<?xml version='1.0' encoding='UTF-8'?><gpx version="1.1" creator="JPX - https://github.com/jenetics/jpx" xmlns="http://www.topografix.com/GPX/1/1"><trk><trkseg><trkpt lat="43.2801696" lon="11.3032729"><ele>243.0</ele><time>2026-04-04T07:19:17.495Z</time></trkpt><trkpt lat="43.2801076" lon="11.3032482"><ele>243.0</ele><time>2026-04-04T07:19:29.489Z</time></trkpt><trkpt lat="43.280045" lon="11.3032262"><ele>243.0</ele><time>2026-04-04T07:19:41.504Z</time></trkpt><trkpt lat="43.2800332" lon="11.3033425"><ele>243.0</ele><time>2026-04-04T07:26:29.523Z</time></trkpt><trkpt lat="43.2800635" lon="11.3032524"><ele>243.0</ele><time>2026-04-04T07:27:58.403Z</time></trkpt><trkpt lat="43.280037" lon="11.3033356"><ele>243.0</ele><time>2026-04-04T07:30:06.517Z</time></trkpt><trkpt lat="43.2800488" lon="11.3034206"><ele>243.0</ele><time>2026-04-04T07:30:40.486Z</time></trkpt><trkpt lat="43.2799883" lon="11.3034496"><ele>243.0</ele><time>2026-04-04T07:31:16.507Z</time></trkpt><trkpt lat="43.2800823" lon="11.3034777"><ele>243.0</ele><time>2026-04-04T07:39:55.49Z</time></trkpt><trkpt lat="43.2801444" lon="11.3035397"><ele>243.0</ele><time>2026-04-04T07:39:57.5Z</time></trkpt><trkpt lat="43.2802183" lon="11.3035876"><ele>243.0</ele><time>2026-04-04T07:39:59.493Z</time></trkpt><trkpt lat="43.280291" lon="11.3036348"><ele>243.0</ele><time>2026-04-04T07:40:01.493Z</time></trkpt><trkpt lat="43.2803778" lon="11.3036619"><ele>243.0</ele><time>2026-04-04T07:40:03.493Z</time></trkpt><trkpt lat="43.2804627" lon="11.3036185"><ele>243.0</ele><time>2026-04-04T07:40:05.493Z</time></trkpt><trkpt lat="43.2805263" lon="11.3035436"><ele>243.0</ele><time>2026-04-04T07:40:07.494Z</time></trkpt><trkpt lat="43.2806009" lon="11.3035295"><ele>243.0</ele><time>2026-04-04T07:40:10.492Z</time></trkpt><trkpt lat="43.280688" lon="11.3036516"><ele>243.0</ele><time>2026-04-04T07:40:13.498Z</time></trkpt><trkpt lat="43.2807317" lon="11.3037381"><ele>243.0</ele><time>2026-04-04T07:40:14.498Z</time></trkpt><trkpt lat="43.2807728" lon="11.3038308"><ele>243.0</ele><time>2026-04-04T07:40:15.505Z</time></trkpt><trkpt lat="43.2808184" lon="11.3039313"><ele>243.5</ele><time>2026-04-04T07:40:16.498Z</time></trkpt><trkpt lat="43.2808671" lon="11.3040311"><ele>244.0</ele><time>2026-04-04T07:40:17.497Z</time></trkpt><trkpt lat="43.2809115" lon="11.3041382"><ele>244.5</ele><time>2026-04-04T07:40:18.494Z</time></trkpt><trkpt lat="43.28095" lon="11.3042434"><ele>245.0</ele><time>2026-04-04T07:40:19.498Z</time></trkpt><trkpt lat="43.2809913" lon="11.3043644"><ele>245.5</ele><time>2026-04-04T07:40:20.499Z</time></trkpt><trkpt lat="43.2810309" lon="11.3044638"><ele>246.0</ele><time>2026-04-04T07:40:21.495Z</time></trkpt><trkpt lat="43.2810783" lon="11.3045672"><ele>246.0</ele><time>2026-04-04T07:40:22.51Z</time></trkpt><trkpt lat="43.2811286" lon="11.3046735"><ele>246.0</ele><time>2026-04-04T07:40:23.496Z</time></trkpt><trkpt lat="43.2811772" lon="11.304771"><ele>246.0</ele><time>2026-04-04T07:40:24.495Z</time></trkpt><trkpt lat="43.2812299" lon="11.3048658"><ele>246.0</ele><time>2026-04-04T07:40:25.499Z</time></trkpt><trkpt lat="43.2812741" lon="11.3049619"><ele>246.0</ele><time>2026-04-04T07:40:26.5Z</time></trkpt><trkpt lat="43.2813134" lon="11.3050551"><ele>246.0</ele><time>2026-04-04T07:40:27.492Z</time></trkpt><trkpt lat="43.2813441" lon="11.3051374"><ele>245.4</ele><time>2026-04-04T07:40:28.498Z</time></trkpt><trkpt lat="43.2813938" lon="11.3052453"><ele>244.8</ele><time>2026-04-04T07:40:30.496Z</time></trkpt><trkpt lat="43.2814604" lon="11.3053034"><ele>244.20000000000002</ele><time>2026-04-04T07:40:36.497Z</time></trkpt><trkpt lat="43.2815703" lon="11.3052287"><ele>243.60000000000002</ele><time>2026-04-04T07:40:38.501Z</time></trkpt><trkpt lat="43.2816076" lon="11.3051526"><ele>243.0</ele><time>2026-04-04T07:40:39.497Z</time></trkpt><trkpt lat="43.2816495" lon="11.305041"><ele>244.2</ele><time>2026-04-04T07:40:40.497Z</time></trkpt><trkpt lat="43.281717" lon="11.3049196"><ele>245.4</ele><time>2026-04-04T07:40:41.497Z</time></trkpt><trkpt lat="43.2817729" lon="11.3048009"><ele>246.59999999999997</ele><time>2026-04-04T07:40:42.504Z</time></trkpt><trkpt lat="43.2818316" lon="11.3046874"><ele>247.79999999999998</ele><time>2026-04-04T07:40:43.492Z</time></trkpt><trkpt lat="43.2818888" lon="11.3045615"><ele>249.0</ele><time>2026-04-04T07:40:44.504Z</time></trkpt><trkpt lat="43.2819508" lon="11.304428"><ele>249.39999999999998</ele><time>2026-04-04T07:40:45.502Z</time></trkpt><trkpt lat="43.2820156" lon="11.3043018"><ele>249.79999999999998</ele><time>2026-04-04T07:40:46.501Z</time></trkpt><trkpt lat="43.2820753" lon="11.304181"><ele>250.20000000000002</ele><time>2026-04-04T07:40:47.503Z</time></trkpt><trkpt lat="43.2821294" lon="11.3040567"><ele>250.60000000000002</ele><time>2026-04-04T07:40:48.5Z</time></trkpt><trkpt lat="43.282176" lon="11.3039529"><ele>251.0</ele><time>2026-04-04T07:40:49.501Z</time></trkpt><trkpt lat="43.2822169" lon="11.3038515"><ele>251.66666666666669</ele><time>2026-04-04T07:40:50.494Z</time></trkpt><trkpt lat="43.282249" lon="11.3037757"><ele>252.33333333333334</ele><time>2026-04-04T07:40:51.5Z</time></trkpt><trkpt lat="43.2823107" lon="11.3036828"><ele>253.0</ele><time>2026-04-04T07:40:53.497Z</time></trkpt><trkpt lat="43.2823679" lon="11.3036265"><ele>253.66666666666669</ele><time>2026-04-04T07:40:55.511Z</time></trkpt><trkpt lat="43.282401" lon="11.3035485"><ele>254.33333333333334</ele><time>2026-04-04T07:40:58.52Z</time></trkpt><trkpt lat="43.2824242" lon="11.3034597"><ele>255.0</ele><time>2026-04-04T07:41:08.499Z</time></trkpt><trkpt lat="43.2823931" lon="11.3032875"><ele>255.66666666666666</ele><time>2026-04-04T07:41:10.497Z</time></trkpt><trkpt lat="43.2823562" lon="11.3031951"><ele>256.3333333333333</ele><time>2026-04-04T07:41:11.506Z</time></trkpt><trkpt lat="43.2823162" lon="11.3031034"><ele>257.0</ele><time>2026-04-04T07:41:12.5Z</time></trkpt><trkpt lat="43.2822941" lon="11.3030138"><ele>257.66666666666663</ele><time>2026-04-04T07:41:13.494Z</time></trkpt><trkpt lat="43.2822576" lon="11.3029207"><ele>258.3333333333333</ele><time>2026-04-04T07:41:14.511Z</time></trkpt><trkpt lat="43.2822257" lon="11.3027959"><ele>259.0</ele><time>2026-04-04T07:41:15.512Z</time></trkpt><trkpt lat="43.2822097" lon="11.302649"><ele>257.2</ele><time>2026-04-04T07:41:16.494Z</time></trkpt><trkpt lat="43.282189" lon="11.3025039"><ele>255.39999999999998</ele><time>2026-04-04T07:41:17.506Z</time></trkpt><trkpt lat="43.2821688" lon="11.3023674"><ele>253.6</ele><time>2026-04-04T07:41:18.493Z</time></trkpt><trkpt lat="43.2821549" lon="11.302225"><ele>251.8</ele><time>2026-04-04T07:41:19.506Z</time></trkpt><trkpt lat="43.2821372" lon="11.302077"><ele>250.0</ele><time>2026-04-04T07:41:20.492Z</time></trkpt><trkpt lat="43.2821273" lon="11.3019301"><ele>249.6</ele><time>2026-04-04T07:41:21.499Z</time></trkpt><trkpt lat="43.2821163" lon="11.3017903"><ele>249.2</ele><time>2026-04-04T07:41:22.505Z</time></trkpt><trkpt lat="43.2821052" lon="11.301656"><ele>248.8</ele><time>2026-04-04T07:41:23.504Z</time></trkpt><trkpt lat="43.2820966" lon="11.301513"><ele>248.4</ele><time>2026-04-04T07:41:24.501Z</time></trkpt><trkpt lat="43.2820849" lon="11.3013589"><ele>248.0</ele><time>2026-04-04T07:41:25.49Z</time></trkpt><trkpt lat="43.2820752" lon="11.3011944"><ele>247.75</ele><time>2026-04-04T07:41:26.492Z</time></trkpt><trkpt lat="43.2820657" lon="11.3010343"><ele>247.5</ele><time>2026-04-04T07:41:27.499Z</time></trkpt><trkpt lat="43.282048" lon="11.3008776"><ele>247.25</ele><time>2026-04-04T07:41:28.498Z</time></trkpt><trkpt lat="43.2820257" lon="11.3007237"><ele>247.0</ele><time>2026-04-04T07:41:29.499Z</time></trkpt><trkpt lat="43.282003" lon="11.3005785"><ele>247.39999999999998</ele><time>2026-04-04T07:41:30.496Z</time></trkpt><trkpt lat="43.2819858" lon="11.300425"><ele>247.79999999999998</ele><time>2026-04-04T07:41:31.499Z</time></trkpt><trkpt lat="43.2819773" lon="11.3002843"><ele>248.2</ele><time>2026-04-04T07:41:32.507Z</time></trkpt><trkpt lat="43.2819567" lon="11.3001341"><ele>248.6</ele><time>2026-04-04T07:41:33.499Z</time></trkpt><trkpt lat="43.2819404" lon="11.2999916"><ele>249.0</ele><time>2026-04-04T07:41:34.502Z</time></trkpt><trkpt lat="43.2819106" lon="11.2998538"><ele>249.0</ele><time>2026-04-04T07:41:35.502Z</time></trkpt><trkpt lat="43.2818599" lon="11.2997269"><ele>249.0</ele><time>2026-04-04T07:41:36.515Z</time></trkpt><trkpt lat="43.2817797" lon="11.2996109"><ele>249.0</ele><time>2026-04-04T07:41:37.496Z</time></trkpt><trkpt lat="43.2816985" lon="11.2994992"><ele>249.0</ele><time>2026-04-04T07:41:38.511Z</time></trkpt><trkpt lat="43.2816195" lon="11.2993884"><ele>249.0</ele><time>2026-04-04T07:41:39.514Z</time></trkpt><trkpt lat="43.2815513" lon="11.2992647"><ele>249.0</ele><time>2026-04-04T07:41:40.511Z</time></trkpt><trkpt lat="43.2814856" lon="11.2991337"><ele>249.0</ele><time>2026-04-04T07:41:41.508Z</time></trkpt><trkpt lat="43.2814224" lon="11.2989956"><ele>249.0</ele><time>2026-04-04T07:41:42.507Z</time></trkpt><trkpt lat="43.2813557" lon="11.2988578"><ele>247.25</ele><time>2026-04-04T07:41:43.514Z</time></trkpt><trkpt lat="43.2813004" lon="11.2987269"><ele>245.5</ele><time>2026-04-04T07:41:44.5Z</time></trkpt><trkpt lat="43.2812203" lon="11.298598"><ele>243.75</ele><time>2026-04-04T07:41:45.516Z</time></trkpt><trkpt lat="43.2811115" lon="11.2985193"><ele>242.0</ele><time>2026-04-04T07:41:46.508Z</time></trkpt><trkpt lat="43.2809935" lon="11.2984684"><ele>242.0</ele><time>2026-04-04T07:41:47.497Z</time></trkpt><trkpt lat="43.2808766" lon="11.2983959"><ele>242.0</ele><time>2026-04-04T07:41:48.531Z</time></trkpt><trkpt lat="43.2807741" lon="11.2983331"><ele>242.0</ele><time>2026-04-04T07:41:49.514Z</time></trkpt><trkpt lat="43.2806645" lon="11.2982736"><ele>242.0</ele><time>2026-04-04T07:41:50.518Z</time></trkpt><trkpt lat="43.2805557" lon="11.2982146"><ele>241.75</ele><time>2026-04-04T07:41:51.501Z</time></trkpt><trkpt lat="43.2804396" lon="11.2981524"><ele>241.5</ele><time>2026-04-04T07:41:52.511Z</time></trkpt><trkpt lat="43.2803216" lon="11.2980904"><ele>241.25</ele><time>2026-04-04T07:41:53.516Z</time></trkpt><trkpt lat="43.2802003" lon="11.2980286"><ele>241.0</ele><time>2026-04-04T07:41:54.522Z</time></trkpt><trkpt lat="43.2800778" lon="11.2979614"><ele>241.0</ele><time>2026-04-04T07:41:55.526Z</time></trkpt><trkpt lat="43.2799594" lon="11.2978863"><ele>241.0</ele><time>2026-04-04T07:41:56.515Z</time></trkpt><trkpt lat="43.2798403" lon="11.2977968"><ele>241.0</ele><time>2026-04-04T07:41:57.528Z</time></trkpt><trkpt lat="43.2797326" lon="11.2976843"><ele>241.0</ele><time>2026-04-04T07:41:58.512Z</time></trkpt><trkpt lat="43.2796179" lon="11.2975511"><ele>239.25</ele><time>2026-04-04T07:41:59.511Z</time></trkpt><trkpt lat="43.2795078" lon="11.297422"><ele>237.5</ele><time>2026-04-04T07:42:00.511Z</time></trkpt><trkpt lat="43.2794134" lon="11.2972752"><ele>235.75</ele><time>2026-04-04T07:42:01.52Z</time></trkpt><trkpt lat="43.2793217" lon="11.2971309"><ele>234.0</ele><time>2026-04-04T07:42:02.509Z</time></trkpt><trkpt lat="43.2792382" lon="11.2969765"><ele>233.5</ele><time>2026-04-04T07:42:03.511Z</time></trkpt><trkpt lat="43.2791567" lon="11.2968214"><ele>233.0</ele><time>2026-04-04T07:42:04.507Z</time></trkpt><trkpt lat="43.2790758" lon="11.2966704"><ele>232.5</ele><time>2026-04-04T07:42:05.52Z</time></trkpt><trkpt lat="43.2790029" lon="11.2965306"><ele>232.0</ele><time>2026-04-04T07:42:06.509Z</time></trkpt><trkpt lat="43.2789348" lon="11.2963983"><ele>233.0</ele><time>2026-04-04T07:42:07.51Z</time></trkpt><trkpt lat="43.2788731" lon="11.2962851"><ele>234.0</ele><time>2026-04-04T07:42:08.51Z</time></trkpt><trkpt lat="43.2788007" lon="11.2961606"><ele>235.0</ele><time>2026-04-04T07:42:09.5Z</time></trkpt><trkpt lat="43.2787253" lon="11.2960464"><ele>236.0</ele><time>2026-04-04T07:42:10.513Z</time></trkpt><trkpt lat="43.2786474" lon="11.2959512"><ele>237.0</ele><time>2026-04-04T07:42:11.516Z</time></trkpt><trkpt lat="43.2785813" lon="11.2958666"><ele>237.0</ele><time>2026-04-04T07:42:12.515Z</time></trkpt><trkpt lat="43.2785032" lon="11.295796"><ele>237.0</ele><time>2026-04-04T07:42:13.507Z</time></trkpt><trkpt lat="43.2784204" lon="11.2957209"><ele>237.0</ele><time>2026-04-04T07:42:14.51Z</time></trkpt><trkpt lat="43.2783285" lon="11.2956394"><ele>237.0</ele><time>2026-04-04T07:42:15.514Z</time></trkpt><trkpt lat="43.2782187" lon="11.2955402"><ele>237.0</ele><time>2026-04-04T07:42:16.508Z</time></trkpt><trkpt lat="43.2781054" lon="11.2954328"><ele>239.33333333333331</ele><time>2026-04-04T07:42:17.521Z</time></trkpt><trkpt lat="43.2779633" lon="11.2953215"><ele>241.66666666666666</ele><time>2026-04-04T07:42:18.509Z</time></trkpt><trkpt lat="43.2778057" lon="11.2952301"><ele>244.0</ele><time>2026-04-04T07:42:19.51Z</time></trkpt><trkpt lat="43.2776368" lon="11.2951402"><ele>244.0</ele><time>2026-04-04T07:42:20.508Z</time></trkpt><trkpt lat="43.2774562" lon="11.29506"><ele>244.0</ele><time>2026-04-04T07:42:21.507Z</time></trkpt><trkpt lat="43.2772723" lon="11.2949757"><ele>244.0</ele><time>2026-04-04T07:42:22.517Z</time></trkpt><trkpt lat="43.2770876" lon="11.2948882"><ele>244.33333333333331</ele><time>2026-04-04T07:42:23.515Z</time></trkpt><trkpt lat="43.2769096" lon="11.2948176"><ele>244.66666666666669</ele><time>2026-04-04T07:42:24.509Z</time></trkpt><trkpt lat="43.2767293" lon="11.2947514"><ele>245.0</ele><time>2026-04-04T07:42:25.495Z</time></trkpt><trkpt lat="43.2765514" lon="11.2946927"><ele>247.33333333333334</ele><time>2026-04-04T07:42:26.513Z</time></trkpt><trkpt lat="43.2763902" lon="11.2946461"><ele>249.66666666666669</ele><time>2026-04-04T07:42:27.505Z</time></trkpt><trkpt lat="43.276217" lon="11.2945978"><ele>252.0</ele><time>2026-04-04T07:42:28.521Z</time></trkpt><trkpt lat="43.2760407" lon="11.2945709"><ele>252.0</ele><time>2026-04-04T07:42:29.507Z</time></trkpt><trkpt lat="43.2758643" lon="11.2945755"><ele>252.0</ele><time>2026-04-04T07:42:30.499Z</time></trkpt><trkpt lat="43.2756974" lon="11.2945961"><ele>252.0</ele><time>2026-04-04T07:42:31.509Z</time></trkpt><trkpt lat="43.2755344" lon="11.2946209"><ele>251.66666666666669</ele><time>2026-04-04T07:42:32.51Z</time></trkpt><trkpt lat="43.2753738" lon="11.2946483"><ele>251.33333333333334</ele><time>2026-04-04T07:42:33.511Z</time></trkpt><trkpt lat="43.275214" lon="11.2946728"><ele>251.0</ele><time>2026-04-04T07:42:34.503Z</time></trkpt><trkpt lat="43.2750569" lon="11.2946876"><ele>251.0</ele><time>2026-04-04T07:42:35.519Z</time></trkpt><trkpt lat="43.2748928" lon="11.294701"><ele>251.0</ele><time>2026-04-04T07:42:36.503Z</time></trkpt><trkpt lat="43.2747307" lon="11.2947128"><ele>251.0</ele><time>2026-04-04T07:42:37.518Z</time></trkpt><trkpt lat="43.2745695" lon="11.2947323"><ele>250.33333333333334</ele><time>2026-04-04T07:42:38.516Z</time></trkpt><trkpt lat="43.2743993" lon="11.2947464"><ele>249.66666666666669</ele><time>2026-04-04T07:42:39.504Z</time></trkpt><trkpt lat="43.2742278" lon="11.2947477"><ele>249.0</ele><time>2026-04-04T07:42:40.529Z</time></trkpt><trkpt lat="43.2740533" lon="11.2947429"><ele>249.0</ele><time>2026-04-04T07:42:41.508Z</time></trkpt><trkpt lat="43.2738775" lon="11.2947266"><ele>249.0</ele><time>2026-04-04T07:42:42.505Z</time></trkpt><trkpt lat="43.2737134" lon="11.2947071"><ele>249.0</ele><time>2026-04-04T07:42:43.525Z</time></trkpt><trkpt lat="43.27356" lon="11.2946799"><ele>249.0</ele><time>2026-04-04T07:42:44.499Z</time></trkpt><trkpt lat="43.2734158" lon="11.2946557"><ele>249.0</ele><time>2026-04-04T07:42:45.515Z</time></trkpt><trkpt lat="43.2732727" lon="11.2946142"><ele>249.0</ele><time>2026-04-04T07:42:46.5Z</time></trkpt><trkpt lat="43.2731262" lon="11.2945507"><ele>249.0</ele><time>2026-04-04T07:42:47.491Z</time></trkpt><trkpt lat="43.2729842" lon="11.2944549"><ele>250.66666666666669</ele><time>2026-04-04T07:42:48.499Z</time></trkpt><trkpt lat="43.2728465" lon="11.2943626"><ele>252.33333333333334</ele><time>2026-04-04T07:42:49.496Z</time></trkpt><trkpt lat="43.2727068" lon="11.2942714"><ele>254.0</ele><time>2026-04-04T07:42:50.486Z</time></trkpt><trkpt lat="43.2725734" lon="11.2941853"><ele>254.0</ele><time>2026-04-04T07:42:51.491Z</time></trkpt><trkpt lat="43.2724491" lon="11.2941045"><ele>254.0</ele><time>2026-04-04T07:42:52.494Z</time></trkpt><trkpt lat="43.2723192" lon="11.2940282"><ele>254.0</ele><time>2026-04-04T07:42:53.495Z</time></trkpt><trkpt lat="43.272187" lon="11.2939515"><ele>254.0</ele><time>2026-04-04T07:42:54.518Z</time></trkpt><trkpt lat="43.2720434" lon="11.2938781"><ele>255.33333333333334</ele><time>2026-04-04T07:42:55.521Z</time></trkpt><trkpt lat="43.2718966" lon="11.2938144"><ele>256.6666666666667</ele><time>2026-04-04T07:42:56.525Z</time></trkpt><trkpt lat="43.2717396" lon="11.2937626"><ele>258.0</ele><time>2026-04-04T07:42:57.513Z</time></trkpt><trkpt lat="43.2715939" lon="11.2937153"><ele>258.0</ele><time>2026-04-04T07:42:58.494Z</time></trkpt><trkpt lat="43.2714459" lon="11.2936636"><ele>258.0</ele><time>2026-04-04T07:42:59.501Z</time></trkpt><trkpt lat="43.271329" lon="11.2935989"><ele>258.0</ele><time>2026-04-04T07:43:00.514Z</time></trkpt><trkpt lat="43.2712386" lon="11.2934978"><ele>258.0</ele><time>2026-04-04T07:43:01.501Z</time></trkpt><trkpt lat="43.2711718" lon="11.2933343"><ele>255.33333333333331</ele><time>2026-04-04T07:43:02.511Z</time></trkpt><trkpt lat="43.2711158" lon="11.2931361"><ele>252.66666666666666</ele><time>2026-04-04T07:43:03.502Z</time></trkpt><trkpt lat="43.271068" lon="11.2929075"><ele>250.0</ele><time>2026-04-04T07:43:04.508Z</time></trkpt><trkpt lat="43.2709928" lon="11.2926777"><ele>249.66666666666666</ele><time>2026-04-04T07:43:05.507Z</time></trkpt><trkpt lat="43.2709119" lon="11.2924378"><ele>249.33333333333331</ele><time>2026-04-04T07:43:06.498Z</time></trkpt><trkpt lat="43.2708375" lon="11.2922215"><ele>249.0</ele><time>2026-04-04T07:43:07.51Z</time></trkpt><trkpt lat="43.2707511" lon="11.2920283"><ele>249.66666666666669</ele><time>2026-04-04T07:43:08.5Z</time></trkpt><trkpt lat="43.2706595" lon="11.2918429"><ele>250.33333333333334</ele><time>2026-04-04T07:43:09.52Z</time></trkpt><trkpt lat="43.2705317" lon="11.2916918"><ele>251.0</ele><time>2026-04-04T07:43:10.497Z</time></trkpt><trkpt lat="43.2703479" lon="11.291595"><ele>251.0</ele><time>2026-04-04T07:43:11.512Z</time></trkpt><trkpt lat="43.2701787" lon="11.2914921"><ele>251.0</ele><time>2026-04-04T07:43:12.494Z</time></trkpt><trkpt lat="43.2700028" lon="11.2913958"><ele>251.0</ele><time>2026-04-04T07:43:13.504Z</time></trkpt><trkpt lat="43.2698386" lon="11.2912929"><ele>252.0</ele><time>2026-04-04T07:43:14.501Z</time></trkpt><trkpt lat="43.2696703" lon="11.2911953"><ele>253.0</ele><time>2026-04-04T07:43:15.512Z</time></trkpt><trkpt lat="43.2695011" lon="11.2911081"><ele>254.0</ele><time>2026-04-04T07:43:16.514Z</time></trkpt><trkpt lat="43.2693355" lon="11.2910394"><ele>254.0</ele><time>2026-04-04T07:43:17.496Z</time></trkpt><trkpt lat="43.2691814" lon="11.2909765"><ele>254.0</ele><time>2026-04-04T07:43:18.506Z</time></trkpt><trkpt lat="43.269031" lon="11.2909133"><ele>254.0</ele><time>2026-04-04T07:43:19.509Z</time></trkpt><trkpt lat="43.2688841" lon="11.2908516"><ele>253.0</ele><time>2026-04-04T07:43:20.51Z</time></trkpt><trkpt lat="43.2687465" lon="11.2907934"><ele>252.0</ele><time>2026-04-04T07:43:21.504Z</time></trkpt><trkpt lat="43.2686035" lon="11.2907095"><ele>251.0</ele><time>2026-04-04T07:43:22.508Z</time></trkpt><trkpt lat="43.2684716" lon="11.2905904"><ele>251.0</ele><time>2026-04-04T07:43:23.513Z</time></trkpt><trkpt lat="43.2683522" lon="11.2904687"><ele>251.0</ele><time>2026-04-04T07:43:24.509Z</time></trkpt><trkpt lat="43.2682271" lon="11.2903451"><ele>251.0</ele><time>2026-04-04T07:43:25.516Z</time></trkpt><trkpt lat="43.2681017" lon="11.2902284"><ele>252.0</ele><time>2026-04-04T07:43:26.506Z</time></trkpt><trkpt lat="43.267986" lon="11.2901001"><ele>253.0</ele><time>2026-04-04T07:43:27.51Z</time></trkpt><trkpt lat="43.2678697" lon="11.2899862"><ele>254.0</ele><time>2026-04-04T07:43:28.504Z</time></trkpt><trkpt lat="43.2677452" lon="11.2898839"><ele>255.0</ele><time>2026-04-04T07:43:29.502Z</time></trkpt><trkpt lat="43.2676071" lon="11.2897956"><ele>252.33333333333331</ele><time>2026-04-04T07:43:30.51Z</time></trkpt><trkpt lat="43.2674529" lon="11.2897132"><ele>249.66666666666666</ele><time>2026-04-04T07:43:31.518Z</time></trkpt><trkpt lat="43.2672967" lon="11.2896244"><ele>247.0</ele><time>2026-04-04T07:43:32.505Z</time></trkpt><trkpt lat="43.2671354" lon="11.2895242"><ele>247.0</ele><time>2026-04-04T07:43:33.519Z</time></trkpt><trkpt lat="43.266966" lon="11.2894259"><ele>247.0</ele><time>2026-04-04T07:43:34.524Z</time></trkpt><trkpt lat="43.2667971" lon="11.2893303"><ele>247.0</ele><time>2026-04-04T07:43:35.502Z</time></trkpt><trkpt lat="43.2666301" lon="11.2892381"><ele>247.0</ele><time>2026-04-04T07:43:36.505Z</time></trkpt><trkpt lat="43.266469" lon="11.289142"><ele>247.0</ele><time>2026-04-04T07:43:37.51Z</time></trkpt><trkpt lat="43.2663075" lon="11.2890531"><ele>247.0</ele><time>2026-04-04T07:43:38.515Z</time></trkpt><trkpt lat="43.266139" lon="11.2889734"><ele>246.66666666666666</ele><time>2026-04-04T07:43:39.498Z</time></trkpt><trkpt lat="43.2659641" lon="11.288913"><ele>246.33333333333331</ele><time>2026-04-04T07:43:40.505Z</time></trkpt><trkpt lat="43.2657973" lon="11.2888534"><ele>246.0</ele><time>2026-04-04T07:43:41.512Z</time></trkpt><trkpt lat="43.2656292" lon="11.2887896"><ele>246.33333333333331</ele><time>2026-04-04T07:43:42.503Z</time></trkpt><trkpt lat="43.2654682" lon="11.2887281"><ele>246.66666666666666</ele><time>2026-04-04T07:43:43.502Z</time></trkpt><trkpt lat="43.2653146" lon="11.2886637"><ele>247.0</ele><time>2026-04-04T07:43:44.51Z</time></trkpt><trkpt lat="43.2651641" lon="11.2885918"><ele>247.0</ele><time>2026-04-04T07:43:45.508Z</time></trkpt><trkpt lat="43.2650079" lon="11.2885024"><ele>247.0</ele><time>2026-04-04T07:43:46.496Z</time></trkpt><trkpt lat="43.2648515" lon="11.2884123"><ele>247.0</ele><time>2026-04-04T07:43:47.507Z</time></trkpt><trkpt lat="43.2646997" lon="11.2883278"><ele>246.66666666666666</ele><time>2026-04-04T07:43:48.511Z</time></trkpt><trkpt lat="43.2645507" lon="11.2882502"><ele>246.33333333333331</ele><time>2026-04-04T07:43:49.513Z</time></trkpt><trkpt lat="43.264399" lon="11.288176"><ele>246.0</ele><time>2026-04-04T07:43:50.507Z</time></trkpt><trkpt lat="43.2642475" lon="11.288112"><ele>246.0</ele><time>2026-04-04T07:43:51.523Z</time></trkpt><trkpt lat="43.2641038" lon="11.2880761"><ele>246.0</ele><time>2026-04-04T07:43:52.521Z</time></trkpt><trkpt lat="43.2639621" lon="11.2880178"><ele>246.0</ele><time>2026-04-04T07:43:53.496Z</time></trkpt><trkpt lat="43.2638259" lon="11.2879637"><ele>246.0</ele><time>2026-04-04T07:43:54.507Z</time></trkpt><trkpt lat="43.2637025" lon="11.2879021"><ele>246.0</ele><time>2026-04-04T07:43:55.497Z</time></trkpt><trkpt lat="43.2635857" lon="11.287845"><ele>246.0</ele><time>2026-04-04T07:43:56.498Z</time></trkpt><trkpt lat="43.2634744" lon="11.2877878"><ele>246.0</ele><time>2026-04-04T07:43:57.5Z</time></trkpt><trkpt lat="43.2633733" lon="11.2877291"><ele>246.0</ele><time>2026-04-04T07:43:58.498Z</time></trkpt><trkpt lat="43.2632747" lon="11.2876576"><ele>246.0</ele><time>2026-04-04T07:43:59.503Z</time></trkpt><trkpt lat="43.2631858" lon="11.2875876"><ele>246.00000000000003</ele><time>2026-04-04T07:44:00.497Z</time></trkpt><trkpt lat="43.2631035" lon="11.2875238"><ele>246.00000000000003</ele><time>2026-04-04T07:44:01.498Z</time></trkpt><trkpt lat="43.2630283" lon="11.2874721"><ele>246.0</ele><time>2026-04-04T07:44:02.522Z</time></trkpt><trkpt lat="43.2629446" lon="11.2874255"><ele>246.0</ele><time>2026-04-04T07:44:04.498Z</time></trkpt><trkpt lat="43.2628388" lon="11.2873235"><ele>245.4</ele><time>2026-04-04T07:44:06.504Z</time></trkpt><trkpt lat="43.2627651" lon="11.2872643"><ele>244.8</ele><time>2026-04-04T07:44:07.516Z</time></trkpt><trkpt lat="43.2626842" lon="11.2872055"><ele>244.20000000000002</ele><time>2026-04-04T07:44:08.498Z</time></trkpt><trkpt lat="43.2625922" lon="11.2871469"><ele>243.60000000000002</ele><time>2026-04-04T07:44:09.497Z</time></trkpt><trkpt lat="43.2624803" lon="11.2870812"><ele>243.0</ele><time>2026-04-04T07:44:10.498Z</time></trkpt><trkpt lat="43.2623722" lon="11.287022"><ele>242.8</ele><time>2026-04-04T07:44:11.502Z</time></trkpt><trkpt lat="43.2622836" lon="11.2869793"><ele>242.60000000000002</ele><time>2026-04-04T07:44:12.5Z</time></trkpt><trkpt lat="43.2622125" lon="11.2869457"><ele>242.39999999999998</ele><time>2026-04-04T07:44:13.497Z</time></trkpt><trkpt lat="43.2621613" lon="11.2868142"><ele>242.2</ele><time>2026-04-04T07:44:15.5Z</time></trkpt><trkpt lat="43.2621745" lon="11.2867108"><ele>242.0</ele><time>2026-04-04T07:44:16.509Z</time></trkpt><trkpt lat="43.2621919" lon="11.286576"><ele>242.5</ele><time>2026-04-04T07:44:17.493Z</time></trkpt><trkpt lat="43.2622003" lon="11.2864128"><ele>243.0</ele><time>2026-04-04T07:44:18.513Z</time></trkpt><trkpt lat="43.2622008" lon="11.2862376"><ele>243.5</ele><time>2026-04-04T07:44:19.498Z</time></trkpt><trkpt lat="43.2622052" lon="11.2860525"><ele>244.0</ele><time>2026-04-04T07:44:20.509Z</time></trkpt><trkpt lat="43.2622147" lon="11.2858647"><ele>244.0</ele><time>2026-04-04T07:44:21.505Z</time></trkpt><trkpt lat="43.2622136" lon="11.285673"><ele>244.0</ele><time>2026-04-04T07:44:22.523Z</time></trkpt><trkpt lat="43.2622147" lon="11.2854796"><ele>244.0</ele><time>2026-04-04T07:44:23.515Z</time></trkpt><trkpt lat="43.2622017" lon="11.2852816"><ele>244.0</ele><time>2026-04-04T07:44:24.513Z</time></trkpt><trkpt lat="43.2621798" lon="11.2850902"><ele>243.25</ele><time>2026-04-04T07:44:25.514Z</time></trkpt><trkpt lat="43.2621384" lon="11.2849049"><ele>242.5</ele><time>2026-04-04T07:44:26.504Z</time></trkpt><trkpt lat="43.2621149" lon="11.2847063"><ele>241.75</ele><time>2026-04-04T07:44:27.509Z</time></trkpt><trkpt lat="43.2621205" lon="11.2844886"><ele>241.0</ele><time>2026-04-04T07:44:28.501Z</time></trkpt><trkpt lat="43.2621386" lon="11.2842557"><ele>239.66666666666666</ele><time>2026-04-04T07:44:29.518Z</time></trkpt><trkpt lat="43.2621576" lon="11.2840244"><ele>238.33333333333331</ele><time>2026-04-04T07:44:30.513Z</time></trkpt><trkpt lat="43.2621847" lon="11.2837812"><ele>237.0</ele><time>2026-04-04T07:44:31.509Z</time></trkpt><trkpt lat="43.2622196" lon="11.2835482"><ele>236.66666666666669</ele><time>2026-04-04T07:44:32.52Z</time></trkpt><trkpt lat="43.2622543" lon="11.2833093"><ele>236.33333333333334</ele><time>2026-04-04T07:44:33.51Z</time></trkpt><trkpt lat="43.2622875" lon="11.28308"><ele>236.0</ele><time>2026-04-04T07:44:34.524Z</time></trkpt><trkpt lat="43.2623218" lon="11.2828567"><ele>230.66666666666669</ele><time>2026-04-04T07:44:35.513Z</time></trkpt><trkpt lat="43.2623498" lon="11.2826406"><ele>225.33333333333331</ele><time>2026-04-04T07:44:36.518Z</time></trkpt><trkpt lat="43.2623756" lon="11.2824243"><ele>220.0</ele><time>2026-04-04T07:44:37.517Z</time></trkpt><trkpt lat="43.2623923" lon="11.2822176"><ele>219.66666666666666</ele><time>2026-04-04T07:44:38.51Z</time></trkpt><trkpt lat="43.262385" lon="11.2820091"><ele>219.33333333333331</ele><time>2026-04-04T07:44:39.514Z</time></trkpt><trkpt lat="43.2623585" lon="11.2817881"><ele>219.0</ele><time>2026-04-04T07:44:40.515Z</time></trkpt><trkpt lat="43.262322" lon="11.28158"><ele>218.66666666666669</ele><time>2026-04-04T07:44:41.517Z</time></trkpt><trkpt lat="43.2622848" lon="11.281372"><ele>218.33333333333334</ele><time>2026-04-04T07:44:42.499Z</time></trkpt><trkpt lat="43.2622813" lon="11.2811695"><ele>218.0</ele><time>2026-04-04T07:44:43.508Z</time></trkpt><trkpt lat="43.2623075" lon="11.2809415"><ele>217.0</ele><time>2026-04-04T07:44:44.516Z</time></trkpt><trkpt lat="43.2623518" lon="11.2807143"><ele>216.0</ele><time>2026-04-04T07:44:45.503Z</time></trkpt><trkpt lat="43.2624094" lon="11.2804691"><ele>215.0</ele><time>2026-04-04T07:44:46.518Z</time></trkpt><trkpt lat="43.2624722" lon="11.280222"><ele>214.33333333333334</ele><time>2026-04-04T07:44:47.512Z</time></trkpt><trkpt lat="43.262534" lon="11.2799583"><ele>213.66666666666669</ele><time>2026-04-04T07:44:48.523Z</time></trkpt><trkpt lat="43.2625937" lon="11.279691"><ele>213.0</ele><time>2026-04-04T07:44:49.513Z</time></trkpt><trkpt lat="43.2626576" lon="11.2794116"><ele>212.0</ele><time>2026-04-04T07:44:50.508Z</time></trkpt><trkpt lat="43.2627075" lon="11.279128"><ele>211.0</ele><time>2026-04-04T07:44:51.514Z</time></trkpt><trkpt lat="43.2627388" lon="11.2788292"><ele>210.0</ele><time>2026-04-04T07:44:52.498Z</time></trkpt><trkpt lat="43.2627546" lon="11.278521"><ele>207.0</ele><time>2026-04-04T07:44:53.512Z</time></trkpt><trkpt lat="43.26276" lon="11.2782107"><ele>204.0</ele><time>2026-04-04T07:44:54.523Z</time></trkpt><trkpt lat="43.2627595" lon="11.2778955"><ele>202.0</ele><time>2026-04-04T07:44:55.517Z</time></trkpt><trkpt lat="43.2627541" lon="11.2775858"><ele>200.0</ele><time>2026-04-04T07:44:56.528Z</time></trkpt><trkpt lat="43.2627543" lon="11.2772687"><ele>199.5</ele><time>2026-04-04T07:44:57.512Z</time></trkpt><trkpt lat="43.2627471" lon="11.2769558"><ele>199.0</ele><time>2026-04-04T07:44:58.51Z</time></trkpt><trkpt lat="43.2627411" lon="11.2766465"><ele>198.33333333333331</ele><time>2026-04-04T07:44:59.517Z</time></trkpt><trkpt lat="43.2627404" lon="11.2763525"><ele>197.66666666666669</ele><time>2026-04-04T07:45:00.511Z</time></trkpt><trkpt lat="43.2627333" lon="11.2760784"><ele>197.0</ele><time>2026-04-04T07:45:01.512Z</time></trkpt><trkpt lat="43.2626928" lon="11.275808"><ele>196.33333333333334</ele><time>2026-04-04T07:45:02.514Z</time></trkpt><trkpt lat="43.2626248" lon="11.2755444"><ele>195.66666666666669</ele><time>2026-04-04T07:45:03.516Z</time></trkpt><trkpt lat="43.2625341" lon="11.2752728"><ele>195.0</ele><time>2026-04-04T07:45:04.522Z</time></trkpt><trkpt lat="43.2624429" lon="11.2749778"><ele>195.0</ele><time>2026-04-04T07:45:05.512Z</time></trkpt><trkpt lat="43.2623437" lon="11.2746568"><ele>195.0</ele><time>2026-04-04T07:45:06.515Z</time></trkpt><trkpt lat="43.2622413" lon="11.2743365"><ele>195.0</ele><time>2026-04-04T07:45:07.522Z</time></trkpt><trkpt lat="43.2621445" lon="11.2740292"><ele>195.0</ele><time>2026-04-04T07:45:08.524Z</time></trkpt><trkpt lat="43.262056" lon="11.2737417"><ele>194.66666666666669</ele><time>2026-04-04T07:45:09.514Z</time></trkpt><trkpt lat="43.2619767" lon="11.2734588"><ele>194.33333333333334</ele><time>2026-04-04T07:45:10.525Z</time></trkpt><trkpt lat="43.2619042" lon="11.2731668"><ele>194.0</ele><time>2026-04-04T07:45:11.524Z</time></trkpt><trkpt lat="43.2618391" lon="11.2728809"><ele>193.66666666666669</ele><time>2026-04-04T07:45:12.518Z</time></trkpt><trkpt lat="43.2617849" lon="11.2725954"><ele>193.33333333333331</ele><time>2026-04-04T07:45:13.509Z</time></trkpt><trkpt lat="43.2617471" lon="11.2723149"><ele>193.0</ele><time>2026-04-04T07:45:14.504Z</time></trkpt><trkpt lat="43.2617021" lon="11.2720566"><ele>192.33333333333331</ele><time>2026-04-04T07:45:15.499Z</time></trkpt><trkpt lat="43.2616579" lon="11.2718136"><ele>191.66666666666666</ele><time>2026-04-04T07:45:16.507Z</time></trkpt><trkpt lat="43.2616279" lon="11.2715803"><ele>191.0</ele><time>2026-04-04T07:45:17.505Z</time></trkpt><trkpt lat="43.2616295" lon="11.2713273"><ele>190.66666666666666</ele><time>2026-04-04T07:45:18.508Z</time></trkpt><trkpt lat="43.2616655" lon="11.2710705"><ele>190.33333333333334</ele><time>2026-04-04T07:45:19.511Z</time></trkpt><trkpt lat="43.2617113" lon="11.270819"><ele>190.0</ele><time>2026-04-04T07:45:20.506Z</time></trkpt><trkpt lat="43.2617425" lon="11.270558"><ele>190.66666666666669</ele><time>2026-04-04T07:45:21.51Z</time></trkpt><trkpt lat="43.2617696" lon="11.2703165"><ele>191.33333333333334</ele><time>2026-04-04T07:45:22.514Z</time></trkpt><trkpt lat="43.261812" lon="11.2700825"><ele>192.0</ele><time>2026-04-04T07:45:23.508Z</time></trkpt><trkpt lat="43.2618722" lon="11.2698484"><ele>192.33333333333331</ele><time>2026-04-04T07:45:24.526Z</time></trkpt><trkpt lat="43.2619498" lon="11.2696348"><ele>192.66666666666666</ele><time>2026-04-04T07:45:25.509Z</time></trkpt><trkpt lat="43.2620581" lon="11.2694277"><ele>193.0</ele><time>2026-04-04T07:45:26.511Z</time></trkpt><trkpt lat="43.2621675" lon="11.2692236"><ele>193.0</ele><time>2026-04-04T07:45:27.508Z</time></trkpt><trkpt lat="43.262279" lon="11.2690128"><ele>193.0</ele><time>2026-04-04T07:45:28.508Z</time></trkpt><trkpt lat="43.2623896" lon="11.2687955"><ele>193.0</ele><time>2026-04-04T07:45:29.499Z</time></trkpt><trkpt lat="43.2625005" lon="11.2685779"><ele>193.33333333333331</ele><time>2026-04-04T07:45:30.506Z</time></trkpt><trkpt lat="43.2626162" lon="11.2683597"><ele>193.66666666666669</ele><time>2026-04-04T07:45:31.513Z</time></trkpt><trkpt lat="43.2627288" lon="11.2681407"><ele>194.0</ele><time>2026-04-04T07:45:32.518Z</time></trkpt><trkpt lat="43.2628472" lon="11.2679205"><ele>194.33333333333334</ele><time>2026-04-04T07:45:33.506Z</time></trkpt><trkpt lat="43.2629647" lon="11.2676908"><ele>194.66666666666669</ele><time>2026-04-04T07:45:34.513Z</time></trkpt><trkpt lat="43.263083" lon="11.2674644"><ele>195.0</ele><time>2026-04-04T07:45:35.515Z</time></trkpt><trkpt lat="43.2632007" lon="11.2672387"><ele>195.66666666666669</ele><time>2026-04-04T07:45:36.517Z</time></trkpt><trkpt lat="43.2633155" lon="11.267011"><ele>196.33333333333334</ele><time>2026-04-04T07:45:37.516Z</time></trkpt><trkpt lat="43.2634319" lon="11.2667879"><ele>197.0</ele><time>2026-04-04T07:45:38.519Z</time></trkpt><trkpt lat="43.2635515" lon="11.2665574"><ele>196.33333333333334</ele><time>2026-04-04T07:45:39.524Z</time></trkpt><trkpt lat="43.2636669" lon="11.2663277"><ele>195.66666666666669</ele><time>2026-04-04T07:45:40.513Z</time></trkpt><trkpt lat="43.2637849" lon="11.2661057"><ele>195.0</ele><time>2026-04-04T07:45:41.508Z</time></trkpt><trkpt lat="43.263903" lon="11.2658834"><ele>195.33333333333331</ele><time>2026-04-04T07:45:42.521Z</time></trkpt><trkpt lat="43.264024" lon="11.2656641"><ele>195.66666666666666</ele><time>2026-04-04T07:45:43.507Z</time></trkpt><trkpt lat="43.2641421" lon="11.2654466"><ele>196.0</ele><time>2026-04-04T07:45:44.496Z</time></trkpt><trkpt lat="43.2642553" lon="11.2652308"><ele>196.0</ele><time>2026-04-04T07:45:45.505Z</time></trkpt><trkpt lat="43.2643701" lon="11.2650031"><ele>196.0</ele><time>2026-04-04T07:45:46.505Z</time></trkpt><trkpt lat="43.2644773" lon="11.2647757"><ele>196.0</ele><time>2026-04-04T07:45:47.512Z</time></trkpt><trkpt lat="43.2645756" lon="11.2645293"><ele>195.33333333333331</ele><time>2026-04-04T07:45:48.522Z</time></trkpt><trkpt lat="43.2646692" lon="11.2642768"><ele>194.66666666666669</ele><time>2026-04-04T07:45:49.518Z</time></trkpt><trkpt lat="43.2647568" lon="11.2640244"><ele>194.0</ele><time>2026-04-04T07:45:50.521Z</time></trkpt><trkpt lat="43.2648329" lon="11.2637625"><ele>195.33333333333334</ele><time>2026-04-04T07:45:51.514Z</time></trkpt><trkpt lat="43.264905" lon="11.2635062"><ele>196.66666666666669</ele><time>2026-04-04T07:45:52.514Z</time></trkpt><trkpt lat="43.2649727" lon="11.2632482"><ele>198.0</ele><time>2026-04-04T07:45:53.517Z</time></trkpt><trkpt lat="43.2650406" lon="11.2629879"><ele>198.66666666666669</ele><time>2026-04-04T07:45:54.519Z</time></trkpt><trkpt lat="43.2651061" lon="11.262735"><ele>199.33333333333334</ele><time>2026-04-04T07:45:55.509Z</time></trkpt><trkpt lat="43.2651752" lon="11.2624776"><ele>200.0</ele><time>2026-04-04T07:45:56.516Z</time></trkpt><trkpt lat="43.2652388" lon="11.2622282"><ele>201.0</ele><time>2026-04-04T07:45:57.513Z</time></trkpt><trkpt lat="43.2653079" lon="11.2619772"><ele>202.0</ele><time>2026-04-04T07:45:58.527Z</time></trkpt><trkpt lat="43.2653776" lon="11.2617202"><ele>203.0</ele><time>2026-04-04T07:45:59.514Z</time></trkpt><trkpt lat="43.2654425" lon="11.2614629"><ele>204.0</ele><time>2026-04-04T07:46:00.518Z</time></trkpt><trkpt lat="43.2655103" lon="11.2612021"><ele>205.0</ele><time>2026-04-04T07:46:01.51Z</time></trkpt><trkpt lat="43.2655748" lon="11.260945"><ele>206.0</ele><time>2026-04-04T07:46:02.517Z</time></trkpt><trkpt lat="43.2656373" lon="11.2606862"><ele>207.33333333333334</ele><time>2026-04-04T07:46:03.512Z</time></trkpt><trkpt lat="43.2657011" lon="11.260443"><ele>208.66666666666669</ele><time>2026-04-04T07:46:04.508Z</time></trkpt><trkpt lat="43.2657656" lon="11.2602071"><ele>210.0</ele><time>2026-04-04T07:46:05.513Z</time></trkpt><trkpt lat="43.2658334" lon="11.2599813"><ele>209.66666666666669</ele><time>2026-04-04T07:46:06.518Z</time></trkpt><trkpt lat="43.265917" lon="11.2597533"><ele>209.33333333333334</ele><time>2026-04-04T07:46:07.517Z</time></trkpt><trkpt lat="43.2660222" lon="11.2595266"><ele>209.0</ele><time>2026-04-04T07:46:08.522Z</time></trkpt><trkpt lat="43.266148" lon="11.2593033"><ele>209.0</ele><time>2026-04-04T07:46:09.514Z</time></trkpt><trkpt lat="43.2663019" lon="11.2590809"><ele>209.0</ele><time>2026-04-04T07:46:10.505Z</time></trkpt><trkpt lat="43.2664684" lon="11.258853"><ele>207.5</ele><time>2026-04-04T07:46:11.495Z</time></trkpt><trkpt lat="43.2666547" lon="11.258623"><ele>206.0</ele><time>2026-04-04T07:46:12.53Z</time></trkpt><trkpt lat="43.2668547" lon="11.2583872"><ele>206.0</ele><time>2026-04-04T07:46:13.512Z</time></trkpt><trkpt lat="43.2670511" lon="11.258159"><ele>206.0</ele><time>2026-04-04T07:46:14.503Z</time></trkpt><trkpt lat="43.2672496" lon="11.2579385"><ele>205.0</ele><time>2026-04-04T07:46:15.52Z</time></trkpt><trkpt lat="43.2674462" lon="11.25771"><ele>204.0</ele><time>2026-04-04T07:46:16.514Z</time></trkpt><trkpt lat="43.2676525" lon="11.257486"><ele>205.5</ele><time>2026-04-04T07:46:17.517Z</time></trkpt><trkpt lat="43.2678623" lon="11.2572601"><ele>207.0</ele><time>2026-04-04T07:46:18.511Z</time></trkpt><trkpt lat="43.2680735" lon="11.2570349"><ele>207.5</ele><time>2026-04-04T07:46:19.513Z</time></trkpt><trkpt lat="43.2682898" lon="11.2568061"><ele>208.0</ele><time>2026-04-04T07:46:20.505Z</time></trkpt><trkpt lat="43.2684987" lon="11.2565743"><ele>209.5</ele><time>2026-04-04T07:46:21.506Z</time></trkpt><trkpt lat="43.2687054" lon="11.2563474"><ele>211.0</ele><time>2026-04-04T07:46:22.507Z</time></trkpt><trkpt lat="43.268902" lon="11.2561339"><ele>211.0</ele><time>2026-04-04T07:46:23.507Z</time></trkpt><trkpt lat="43.2690987" lon="11.2559211"><ele>211.0</ele><time>2026-04-04T07:46:24.529Z</time></trkpt><trkpt lat="43.2692803" lon="11.2557183"><ele>210.66666666666666</ele><time>2026-04-04T07:46:25.507Z</time></trkpt><trkpt lat="43.2694577" lon="11.2555288"><ele>210.33333333333331</ele><time>2026-04-04T07:46:26.517Z</time></trkpt><trkpt lat="43.2696275" lon="11.2553434"><ele>210.0</ele><time>2026-04-04T07:46:27.514Z</time></trkpt><trkpt lat="43.2697902" lon="11.255169"><ele>210.0</ele><time>2026-04-04T07:46:28.511Z</time></trkpt><trkpt lat="43.2699441" lon="11.2550027"><ele>210.0</ele><time>2026-04-04T07:46:29.514Z</time></trkpt><trkpt lat="43.270082" lon="11.2548414"><ele>210.0</ele><time>2026-04-04T07:46:30.508Z</time></trkpt><trkpt lat="43.2701925" lon="11.2546668"><ele>212.0</ele><time>2026-04-04T07:46:31.514Z</time></trkpt><trkpt lat="43.2702781" lon="11.2544554"><ele>214.0</ele><time>2026-04-04T07:46:32.509Z</time></trkpt><trkpt lat="43.2703152" lon="11.2542249"><ele>216.0</ele><time>2026-04-04T07:46:33.515Z</time></trkpt><trkpt lat="43.2703123" lon="11.2539525"><ele>217.0</ele><time>2026-04-04T07:46:34.515Z</time></trkpt><trkpt lat="43.2702959" lon="11.2536812"><ele>218.0</ele><time>2026-04-04T07:46:35.495Z</time></trkpt><trkpt lat="43.2702719" lon="11.2534126"><ele>219.0</ele><time>2026-04-04T07:46:36.502Z</time></trkpt><trkpt lat="43.2702422" lon="11.2531561"><ele>220.33333333333331</ele><time>2026-04-04T07:46:37.513Z</time></trkpt><trkpt lat="43.2702153" lon="11.2529038"><ele>221.66666666666666</ele><time>2026-04-04T07:46:38.496Z</time></trkpt><trkpt lat="43.2701912" lon="11.2526732"><ele>223.0</ele><time>2026-04-04T07:46:39.509Z</time></trkpt><trkpt lat="43.2701649" lon="11.2524542"><ele>222.0</ele><time>2026-04-04T07:46:40.511Z</time></trkpt><trkpt lat="43.2701429" lon="11.2522321"><ele>221.0</ele><time>2026-04-04T07:46:41.502Z</time></trkpt><trkpt lat="43.2701222" lon="11.2520191"><ele>220.0</ele><time>2026-04-04T07:46:42.489Z</time></trkpt><trkpt lat="43.2700997" lon="11.2518148"><ele>220.0</ele><time>2026-04-04T07:46:43.516Z</time></trkpt><trkpt lat="43.2700832" lon="11.2516144"><ele>220.0</ele><time>2026-04-04T07:46:44.506Z</time></trkpt><trkpt lat="43.2700727" lon="11.251414"><ele>220.0</ele><time>2026-04-04T07:46:45.497Z</time></trkpt><trkpt lat="43.2700803" lon="11.2512148"><ele>220.0</ele><time>2026-04-04T07:46:46.516Z</time></trkpt><trkpt lat="43.2701124" lon="11.25102"><ele>218.33333333333331</ele><time>2026-04-04T07:46:47.514Z</time></trkpt><trkpt lat="43.2701856" lon="11.2508367"><ele>216.66666666666669</ele><time>2026-04-04T07:46:48.5Z</time></trkpt><trkpt lat="43.2702897" lon="11.250646"><ele>215.0</ele><time>2026-04-04T07:46:49.5Z</time></trkpt><trkpt lat="43.2703987" lon="11.2504698"><ele>214.66666666666669</ele><time>2026-04-04T07:46:50.494Z</time></trkpt><trkpt lat="43.2705206" lon="11.2503194"><ele>214.33333333333331</ele><time>2026-04-04T07:46:51.504Z</time></trkpt><trkpt lat="43.2706435" lon="11.2501727"><ele>214.0</ele><time>2026-04-04T07:46:52.512Z</time></trkpt><trkpt lat="43.2707686" lon="11.2500309"><ele>214.0</ele><time>2026-04-04T07:46:53.5Z</time></trkpt><trkpt lat="43.2708973" lon="11.2498901"><ele>214.0</ele><time>2026-04-04T07:46:54.499Z</time></trkpt><trkpt lat="43.2710225" lon="11.2497482"><ele>214.0</ele><time>2026-04-04T07:46:55.497Z</time></trkpt><trkpt lat="43.2711396" lon="11.2496128"><ele>214.0</ele><time>2026-04-04T07:46:56.502Z</time></trkpt><trkpt lat="43.2712571" lon="11.2494786"><ele>214.0</ele><time>2026-04-04T07:46:57.499Z</time></trkpt><trkpt lat="43.271376" lon="11.2493445"><ele>214.0</ele><time>2026-04-04T07:46:58.496Z</time></trkpt><trkpt lat="43.2714918" lon="11.2492133"><ele>214.0</ele><time>2026-04-04T07:46:59.499Z</time></trkpt><trkpt lat="43.2715981" lon="11.2490871"><ele>214.0</ele><time>2026-04-04T07:47:00.5Z</time></trkpt><trkpt lat="43.2717005" lon="11.2489637"><ele>214.0</ele><time>2026-04-04T07:47:01.5Z</time></trkpt><trkpt lat="43.271798" lon="11.2488488"><ele>214.0</ele><time>2026-04-04T07:47:02.494Z</time></trkpt><trkpt lat="43.271901" lon="11.2487495"><ele>212.6</ele><time>2026-04-04T07:47:03.497Z</time></trkpt><trkpt lat="43.2719949" lon="11.2486433"><ele>211.2</ele><time>2026-04-04T07:47:04.508Z</time></trkpt><trkpt lat="43.2720811" lon="11.2485584"><ele>209.79999999999998</ele><time>2026-04-04T07:47:05.498Z</time></trkpt><trkpt lat="43.2721554" lon="11.2484726"><ele>208.39999999999998</ele><time>2026-04-04T07:47:06.491Z</time></trkpt><trkpt lat="43.2722251" lon="11.2483942"><ele>207.0</ele><time>2026-04-04T07:47:07.51Z</time></trkpt><trkpt lat="43.2722983" lon="11.2483352"><ele>206.6</ele><time>2026-04-04T07:47:08.495Z</time></trkpt><trkpt lat="43.2723994" lon="11.2482494"><ele>206.2</ele><time>2026-04-04T07:47:10.498Z</time></trkpt><trkpt lat="43.2724587" lon="11.2481722"><ele>205.8</ele><time>2026-04-04T07:47:12.5Z</time></trkpt><trkpt lat="43.2725566" lon="11.248058"><ele>205.4</ele><time>2026-04-04T07:47:14.503Z</time></trkpt><trkpt lat="43.2726364" lon="11.247971"><ele>205.0</ele><time>2026-04-04T07:47:15.498Z</time></trkpt><trkpt lat="43.2727107" lon="11.2478642"><ele>204.25</ele><time>2026-04-04T07:47:16.503Z</time></trkpt><trkpt lat="43.2727848" lon="11.247754"><ele>203.5</ele><time>2026-04-04T07:47:17.501Z</time></trkpt><trkpt lat="43.2728855" lon="11.2476512"><ele>202.75</ele><time>2026-04-04T07:47:18.517Z</time></trkpt><trkpt lat="43.2730017" lon="11.2475251"><ele>202.0</ele><time>2026-04-04T07:47:19.502Z</time></trkpt><trkpt lat="43.273137" lon="11.2474104"><ele>202.0</ele><time>2026-04-04T07:47:20.505Z</time></trkpt><trkpt lat="43.2732725" lon="11.2473066"><ele>202.0</ele><time>2026-04-04T07:47:21.512Z</time></trkpt><trkpt lat="43.2734193" lon="11.2472056"><ele>202.0</ele><time>2026-04-04T07:47:22.505Z</time></trkpt><trkpt lat="43.2735823" lon="11.2471102"><ele>201.66666666666666</ele><time>2026-04-04T07:47:23.494Z</time></trkpt><trkpt lat="43.2737435" lon="11.2470171"><ele>201.33333333333331</ele><time>2026-04-04T07:47:24.508Z</time></trkpt><trkpt lat="43.2739111" lon="11.2469271"><ele>201.0</ele><time>2026-04-04T07:47:25.507Z</time></trkpt><trkpt lat="43.2740764" lon="11.2468341"><ele>202.0</ele><time>2026-04-04T07:47:26.508Z</time></trkpt><trkpt lat="43.274241" lon="11.2467413"><ele>203.0</ele><time>2026-04-04T07:47:27.505Z</time></trkpt><trkpt lat="43.2744029" lon="11.2466575"><ele>204.0</ele><time>2026-04-04T07:47:28.504Z</time></trkpt><trkpt lat="43.2745571" lon="11.2465677"><ele>204.0</ele><time>2026-04-04T07:47:29.509Z</time></trkpt><trkpt lat="43.2747084" lon="11.2464821"><ele>204.0</ele><time>2026-04-04T07:47:30.5Z</time></trkpt><trkpt lat="43.2748561" lon="11.2463964"><ele>204.0</ele><time>2026-04-04T07:47:31.512Z</time></trkpt><trkpt lat="43.2750027" lon="11.2463142"><ele>204.5</ele><time>2026-04-04T07:47:32.505Z</time></trkpt><trkpt lat="43.2751366" lon="11.2462302"><ele>205.0</ele><time>2026-04-04T07:47:33.506Z</time></trkpt><trkpt lat="43.2752622" lon="11.2461293"><ele>205.5</ele><time>2026-04-04T07:47:34.505Z</time></trkpt><trkpt lat="43.2753808" lon="11.2460027"><ele>206.0</ele><time>2026-04-04T07:47:35.495Z</time></trkpt><trkpt lat="43.2754895" lon="11.2458349"><ele>206.0</ele><time>2026-04-04T07:47:36.503Z</time></trkpt><trkpt lat="43.2755828" lon="11.2456425"><ele>206.0</ele><time>2026-04-04T07:47:37.504Z</time></trkpt><trkpt lat="43.2756621" lon="11.2454451"><ele>206.0</ele><time>2026-04-04T07:47:38.515Z</time></trkpt><trkpt lat="43.2757463" lon="11.2452267"><ele>206.66666666666669</ele><time>2026-04-04T07:47:39.514Z</time></trkpt><trkpt lat="43.2758308" lon="11.2449894"><ele>207.33333333333331</ele><time>2026-04-04T07:47:40.507Z</time></trkpt><trkpt lat="43.2759165" lon="11.2447578"><ele>208.0</ele><time>2026-04-04T07:47:41.509Z</time></trkpt><trkpt lat="43.2759983" lon="11.2445446"><ele>208.33333333333331</ele><time>2026-04-04T07:47:42.506Z</time></trkpt><trkpt lat="43.2760731" lon="11.244355"><ele>208.66666666666669</ele><time>2026-04-04T07:47:43.505Z</time></trkpt><trkpt lat="43.2761576" lon="11.2441812"><ele>209.0</ele><time>2026-04-04T07:47:44.505Z</time></trkpt><trkpt lat="43.2762648" lon="11.2440171"><ele>210.33333333333334</ele><time>2026-04-04T07:47:45.506Z</time></trkpt><trkpt lat="43.2763982" lon="11.2438853"><ele>211.66666666666669</ele><time>2026-04-04T07:47:46.512Z</time></trkpt><trkpt lat="43.2765415" lon="11.2437573"><ele>213.0</ele><time>2026-04-04T07:47:47.505Z</time></trkpt><trkpt lat="43.2767017" lon="11.2436399"><ele>213.0</ele><time>2026-04-04T07:47:48.502Z</time></trkpt><trkpt lat="43.2768761" lon="11.2435305"><ele>213.0</ele><time>2026-04-04T07:47:49.51Z</time></trkpt><trkpt lat="43.2770591" lon="11.2434049"><ele>213.0</ele><time>2026-04-04T07:47:50.513Z</time></trkpt><trkpt lat="43.2772499" lon="11.2432663"><ele>212.0</ele><time>2026-04-04T07:47:51.505Z</time></trkpt><trkpt lat="43.2774486" lon="11.2431223"><ele>211.0</ele><time>2026-04-04T07:47:52.518Z</time></trkpt><trkpt lat="43.2776599" lon="11.2429662"><ele>211.0</ele><time>2026-04-04T07:47:53.506Z</time></trkpt><trkpt lat="43.277893" lon="11.2427935"><ele>211.0</ele><time>2026-04-04T07:47:54.512Z</time></trkpt><trkpt lat="43.2781425" lon="11.2426134"><ele>208.0</ele><time>2026-04-04T07:47:55.507Z</time></trkpt><trkpt lat="43.2783955" lon="11.2424249"><ele>205.0</ele><time>2026-04-04T07:47:56.52Z</time></trkpt><trkpt lat="43.2786427" lon="11.2422549"><ele>204.0</ele><time>2026-04-04T07:47:57.515Z</time></trkpt><trkpt lat="43.2788684" lon="11.2420899"><ele>203.0</ele><time>2026-04-04T07:47:58.497Z</time></trkpt><trkpt lat="43.2790812" lon="11.2419292"><ele>203.0</ele><time>2026-04-04T07:47:59.499Z</time></trkpt><trkpt lat="43.2792818" lon="11.2417777"><ele>203.0</ele><time>2026-04-04T07:48:00.508Z</time></trkpt><trkpt lat="43.2794877" lon="11.2416265"><ele>203.0</ele><time>2026-04-04T07:48:01.514Z</time></trkpt><trkpt lat="43.2796798" lon="11.2414875"><ele>203.0</ele><time>2026-04-04T07:48:02.51Z</time></trkpt><trkpt lat="43.2798743" lon="11.2413671"><ele>203.0</ele><time>2026-04-04T07:48:03.517Z</time></trkpt><trkpt lat="43.28007" lon="11.2412585"><ele>203.0</ele><time>2026-04-04T07:48:04.503Z</time></trkpt><trkpt lat="43.2802678" lon="11.2411791"><ele>203.0</ele><time>2026-04-04T07:48:05.506Z</time></trkpt><trkpt lat="43.2804777" lon="11.2411106"><ele>203.0</ele><time>2026-04-04T07:48:06.499Z</time></trkpt><trkpt lat="43.2806837" lon="11.2410502"><ele>203.33333333333334</ele><time>2026-04-04T07:48:07.512Z</time></trkpt><trkpt lat="43.2808896" lon="11.2409786"><ele>203.66666666666669</ele><time>2026-04-04T07:48:08.502Z</time></trkpt><trkpt lat="43.2810872" lon="11.2409034"><ele>204.0</ele><time>2026-04-04T07:48:09.51Z</time></trkpt><trkpt lat="43.281283" lon="11.2408268"><ele>204.66666666666669</ele><time>2026-04-04T07:48:10.5Z</time></trkpt><trkpt lat="43.2814762" lon="11.2407696"><ele>205.33333333333334</ele><time>2026-04-04T07:48:11.511Z</time></trkpt><trkpt lat="43.2816521" lon="11.2407149"><ele>206.0</ele><time>2026-04-04T07:48:12.501Z</time></trkpt><trkpt lat="43.2818151" lon="11.2406614"><ele>206.66666666666669</ele><time>2026-04-04T07:48:13.509Z</time></trkpt><trkpt lat="43.2819612" lon="11.2405941"><ele>207.33333333333331</ele><time>2026-04-04T07:48:14.508Z</time></trkpt><trkpt lat="43.2821093" lon="11.2404925"><ele>208.0</ele><time>2026-04-04T07:48:15.51Z</time></trkpt><trkpt lat="43.2822559" lon="11.2403549"><ele>207.0</ele><time>2026-04-04T07:48:16.502Z</time></trkpt><trkpt lat="43.2823856" lon="11.2401679"><ele>206.0</ele><time>2026-04-04T07:48:17.506Z</time></trkpt><trkpt lat="43.282505" lon="11.2399651"><ele>205.0</ele><time>2026-04-04T07:48:18.505Z</time></trkpt><trkpt lat="43.2826075" lon="11.2397494"><ele>205.0</ele><time>2026-04-04T07:48:19.503Z</time></trkpt><trkpt lat="43.2827116" lon="11.2395554"><ele>205.0</ele><time>2026-04-04T07:48:20.511Z</time></trkpt><trkpt lat="43.2828038" lon="11.2393759"><ele>205.0</ele><time>2026-04-04T07:48:21.509Z</time></trkpt><trkpt lat="43.2828946" lon="11.2392174"><ele>205.0</ele><time>2026-04-04T07:48:22.508Z</time></trkpt><trkpt lat="43.2829808" lon="11.2390663"><ele>205.0</ele><time>2026-04-04T07:48:23.51Z</time></trkpt><trkpt lat="43.2830663" lon="11.2389443"><ele>205.0</ele><time>2026-04-04T07:48:24.498Z</time></trkpt><trkpt lat="43.2831302" lon="11.238845"><ele>205.0</ele><time>2026-04-04T07:48:25.506Z</time></trkpt><trkpt lat="43.2831792" lon="11.2387708"><ele>205.0</ele><time>2026-04-04T07:48:26.508Z</time></trkpt><trkpt lat="43.2832384" lon="11.2386915"><ele>205.2</ele><time>2026-04-04T07:48:28.504Z</time></trkpt><trkpt lat="43.2832624" lon="11.2385776"><ele>205.4</ele><time>2026-04-04T07:48:45.502Z</time></trkpt><trkpt lat="43.2832276" lon="11.2384951"><ele>205.60000000000002</ele><time>2026-04-04T07:48:46.504Z</time></trkpt><trkpt lat="43.2831622" lon="11.2383785"><ele>205.8</ele><time>2026-04-04T07:48:47.518Z</time></trkpt><trkpt lat="43.2830947" lon="11.2382481"><ele>206.0</ele><time>2026-04-04T07:48:48.496Z</time></trkpt><trkpt lat="43.2830393" lon="11.2380656"><ele>206.33333333333334</ele><time>2026-04-04T07:48:49.51Z</time></trkpt><trkpt lat="43.282985" lon="11.2378546"><ele>206.66666666666669</ele><time>2026-04-04T07:48:50.5Z</time></trkpt><trkpt lat="43.2829344" lon="11.23766"><ele>207.0</ele><time>2026-04-04T07:48:51.512Z</time></trkpt><trkpt lat="43.2828806" lon="11.2374455"><ele>207.66666666666669</ele><time>2026-04-04T07:48:52.507Z</time></trkpt><trkpt lat="43.282812" lon="11.237228"><ele>208.33333333333334</ele><time>2026-04-04T07:48:53.506Z</time></trkpt><trkpt lat="43.282751" lon="11.2370171"><ele>209.0</ele><time>2026-04-04T07:48:54.513Z</time></trkpt><trkpt lat="43.2826867" lon="11.2367996"><ele>209.0</ele><time>2026-04-04T07:48:55.513Z</time></trkpt><trkpt lat="43.2826259" lon="11.2365882"><ele>209.0</ele><time>2026-04-04T07:48:56.51Z</time></trkpt><trkpt lat="43.2825657" lon="11.2363887"><ele>209.0</ele><time>2026-04-04T07:48:57.499Z</time></trkpt><trkpt lat="43.2825161" lon="11.2362031"><ele>209.75</ele><time>2026-04-04T07:48:58.502Z</time></trkpt><trkpt lat="43.2824636" lon="11.2360213"><ele>210.5</ele><time>2026-04-04T07:48:59.508Z</time></trkpt><trkpt lat="43.2824283" lon="11.2358746"><ele>211.25</ele><time>2026-04-04T07:49:00.513Z</time></trkpt><trkpt lat="43.2823921" lon="11.23576"><ele>212.0</ele><time>2026-04-04T07:49:01.504Z</time></trkpt><trkpt lat="43.2823496" lon="11.2356198"><ele>212.0</ele><time>2026-04-04T07:49:02.508Z</time></trkpt><trkpt lat="43.2823116" lon="11.2354699"><ele>212.0</ele><time>2026-04-04T07:49:03.514Z</time></trkpt><trkpt lat="43.2822654" lon="11.2353152"><ele>212.0</ele><time>2026-04-04T07:49:04.512Z</time></trkpt><trkpt lat="43.2822236" lon="11.2351828"><ele>212.0</ele><time>2026-04-04T07:49:05.511Z</time></trkpt><trkpt lat="43.2821856" lon="11.2350708"><ele>212.0</ele><time>2026-04-04T07:49:06.509Z</time></trkpt><trkpt lat="43.2821543" lon="11.2349728"><ele>212.50000000000003</ele><time>2026-04-04T07:49:07.515Z</time></trkpt><trkpt lat="43.2821405" lon="11.2348878"><ele>213.0</ele><time>2026-04-04T07:49:08.505Z</time></trkpt><trkpt lat="43.2821222" lon="11.2347928"><ele>213.5</ele><time>2026-04-04T07:49:10.504Z</time></trkpt><trkpt lat="43.2820946" lon="11.2347046"><ele>214.0</ele><time>2026-04-04T07:50:21.505Z</time></trkpt><trkpt lat="43.2820613" lon="11.2346188"><ele>214.50000000000003</ele><time>2026-04-04T07:50:22.504Z</time></trkpt><trkpt lat="43.2820464" lon="11.2345167"><ele>215.0</ele><time>2026-04-04T07:50:23.5Z</time></trkpt><trkpt lat="43.2820044" lon="11.2343921"><ele>215.4</ele><time>2026-04-04T07:50:24.496Z</time></trkpt><trkpt lat="43.2819576" lon="11.2342768"><ele>215.8</ele><time>2026-04-04T07:50:25.506Z</time></trkpt><trkpt lat="43.2818957" lon="11.2341741"><ele>216.2</ele><time>2026-04-04T07:50:26.506Z</time></trkpt><trkpt lat="43.2818112" lon="11.2340676"><ele>216.6</ele><time>2026-04-04T07:50:27.507Z</time></trkpt><trkpt lat="43.2817165" lon="11.2339637"><ele>217.0</ele><time>2026-04-04T07:50:28.517Z</time></trkpt><trkpt lat="43.2816017" lon="11.2338608"><ele>217.33333333333331</ele><time>2026-04-04T07:50:29.511Z</time></trkpt><trkpt lat="43.2814498" lon="11.2337824"><ele>217.66666666666669</ele><time>2026-04-04T07:50:30.494Z</time></trkpt><trkpt lat="43.2812708" lon="11.2337259"><ele>218.0</ele><time>2026-04-04T07:50:31.502Z</time></trkpt><trkpt lat="43.2810823" lon="11.2336768"><ele>218.0</ele><time>2026-04-04T07:50:32.512Z</time></trkpt><trkpt lat="43.2808872" lon="11.2336572"><ele>218.0</ele><time>2026-04-04T07:50:33.511Z</time></trkpt><trkpt lat="43.2806927" lon="11.2336405"><ele>218.0</ele><time>2026-04-04T07:50:34.516Z</time></trkpt><trkpt lat="43.2805391" lon="11.2336355"><ele>218.0</ele><time>2026-04-04T07:50:35.523Z</time></trkpt><trkpt lat="43.2804255" lon="11.2336282"><ele>218.0</ele><time>2026-04-04T07:50:36.503Z</time></trkpt><trkpt lat="43.2803126" lon="11.2336213"><ele>218.0</ele><time>2026-04-04T07:50:37.514Z</time></trkpt><trkpt lat="43.280182" lon="11.2336088"><ele>218.0</ele><time>2026-04-04T07:50:38.522Z</time></trkpt><trkpt lat="43.2800165" lon="11.233601"><ele>218.0</ele><time>2026-04-04T07:50:39.511Z</time></trkpt><trkpt lat="43.279842" lon="11.2335954"><ele>218.0</ele><time>2026-04-04T07:50:40.512Z</time></trkpt><trkpt lat="43.2796557" lon="11.233584"><ele>218.0</ele><time>2026-04-04T07:50:41.512Z</time></trkpt><trkpt lat="43.2794483" lon="11.2335674"><ele>220.0</ele><time>2026-04-04T07:50:42.511Z</time></trkpt><trkpt lat="43.2792293" lon="11.2335622"><ele>222.0</ele><time>2026-04-04T07:50:43.511Z</time></trkpt><trkpt lat="43.2790045" lon="11.2335448"><ele>224.0</ele><time>2026-04-04T07:50:44.508Z</time></trkpt><trkpt lat="43.2787879" lon="11.2335338"><ele>224.66666666666669</ele><time>2026-04-04T07:50:45.511Z</time></trkpt><trkpt lat="43.2785874" lon="11.2335201"><ele>225.33333333333331</ele><time>2026-04-04T07:50:46.502Z</time></trkpt><trkpt lat="43.2784099" lon="11.2335041"><ele>226.0</ele><time>2026-04-04T07:50:47.521Z</time></trkpt><trkpt lat="43.2782441" lon="11.2334551"><ele>226.0</ele><time>2026-04-04T07:50:48.51Z</time></trkpt><trkpt lat="43.2781123" lon="11.2333591"><ele>226.0</ele><time>2026-04-04T07:50:49.501Z</time></trkpt><trkpt lat="43.2780034" lon="11.2332254"><ele>226.0</ele><time>2026-04-04T07:50:50.509Z</time></trkpt><trkpt lat="43.2779136" lon="11.2330602"><ele>226.0</ele><time>2026-04-04T07:50:51.507Z</time></trkpt><trkpt lat="43.2778196" lon="11.2328375"><ele>230.33333333333331</ele><time>2026-04-04T07:50:52.501Z</time></trkpt><trkpt lat="43.2777725" lon="11.2326056"><ele>234.66666666666669</ele><time>2026-04-04T07:50:53.501Z</time></trkpt><trkpt lat="43.2777471" lon="11.2323232"><ele>239.0</ele><time>2026-04-04T07:50:54.499Z</time></trkpt><trkpt lat="43.277727" lon="11.2320377"><ele>240.33333333333334</ele><time>2026-04-04T07:50:55.505Z</time></trkpt><trkpt lat="43.2776978" lon="11.2317604"><ele>241.66666666666669</ele><time>2026-04-04T07:50:56.508Z</time></trkpt><trkpt lat="43.2776717" lon="11.2314909"><ele>243.0</ele><time>2026-04-04T07:50:57.5Z</time></trkpt><trkpt lat="43.2776499" lon="11.2312503"><ele>243.0</ele><time>2026-04-04T07:50:58.514Z</time></trkpt><trkpt lat="43.2776259" lon="11.2310265"><ele>243.0</ele><time>2026-04-04T07:50:59.507Z</time></trkpt><trkpt lat="43.277606" lon="11.2308195"><ele>243.0</ele><time>2026-04-04T07:51:00.51Z</time></trkpt><trkpt lat="43.277588" lon="11.2306348"><ele>243.5</ele><time>2026-04-04T07:51:01.499Z</time></trkpt><trkpt lat="43.2775705" lon="11.23046"><ele>244.0</ele><time>2026-04-04T07:51:02.511Z</time></trkpt><trkpt lat="43.2775782" lon="11.2302867"><ele>244.5</ele><time>2026-04-04T07:51:03.503Z</time></trkpt><trkpt lat="43.2776073" lon="11.230117"><ele>245.0</ele><time>2026-04-04T07:51:04.518Z</time></trkpt><trkpt lat="43.277642" lon="11.2299351"><ele>246.5</ele><time>2026-04-04T07:51:05.498Z</time></trkpt><trkpt lat="43.2776761" lon="11.2297541"><ele>248.0</ele><time>2026-04-04T07:51:06.503Z</time></trkpt><trkpt lat="43.2777059" lon="11.2295648"><ele>249.5</ele><time>2026-04-04T07:51:07.495Z</time></trkpt><trkpt lat="43.2777236" lon="11.2293797"><ele>251.0</ele><time>2026-04-04T07:51:08.51Z</time></trkpt><trkpt lat="43.2777369" lon="11.2292008"><ele>251.0</ele><time>2026-04-04T07:51:09.5Z</time></trkpt><trkpt lat="43.2777445" lon="11.2290345"><ele>251.00000000000003</ele><time>2026-04-04T07:51:10.506Z</time></trkpt><trkpt lat="43.2777521" lon="11.228877"><ele>251.00000000000003</ele><time>2026-04-04T07:51:11.507Z</time></trkpt><trkpt lat="43.2777566" lon="11.228752"><ele>251.0</ele><time>2026-04-04T07:51:12.495Z</time></trkpt><trkpt lat="43.2777582" lon="11.2286339"><ele>251.0</ele><time>2026-04-04T07:51:13.496Z</time></trkpt><trkpt lat="43.2777602" lon="11.2285287"><ele>251.33333333333334</ele><time>2026-04-04T07:51:14.497Z</time></trkpt><trkpt lat="43.2777592" lon="11.2284338"><ele>251.66666666666669</ele><time>2026-04-04T07:51:15.501Z</time></trkpt><trkpt lat="43.2777112" lon="11.2283389"><ele>252.0</ele><time>2026-04-04T07:51:17.497Z</time></trkpt><trkpt lat="43.2776349" lon="11.2283213"><ele>252.33333333333331</ele><time>2026-04-04T07:51:18.503Z</time></trkpt><trkpt lat="43.27753" lon="11.2283269"><ele>252.66666666666666</ele><time>2026-04-04T07:51:19.514Z</time></trkpt><trkpt lat="43.2774506" lon="11.2283373"><ele>253.0</ele><time>2026-04-04T07:51:20.5Z</time></trkpt><trkpt lat="43.2773816" lon="11.2283407"><ele>252.99999999999997</ele><time>2026-04-04T07:51:21.504Z</time></trkpt><trkpt lat="43.2773115" lon="11.2283039"><ele>253.0</ele><time>2026-04-04T07:51:22.498Z</time></trkpt><trkpt lat="43.2772609" lon="11.2282467"><ele>253.0</ele><time>2026-04-04T07:51:23.499Z</time></trkpt><trkpt lat="43.2772172" lon="11.2281566"><ele>253.0</ele><time>2026-04-04T07:51:24.5Z</time></trkpt><trkpt lat="43.2771826" lon="11.2280465"><ele>252.99999999999997</ele><time>2026-04-04T07:51:25.505Z</time></trkpt><trkpt lat="43.2771585" lon="11.2279315"><ele>253.0</ele><time>2026-04-04T07:51:26.496Z</time></trkpt><trkpt lat="43.2771278" lon="11.2278144"><ele>253.66666666666666</ele><time>2026-04-04T07:51:27.51Z</time></trkpt><trkpt lat="43.2770983" lon="11.2277188"><ele>254.33333333333331</ele><time>2026-04-04T07:51:28.516Z</time></trkpt><trkpt lat="43.2770677" lon="11.2276414"><ele>255.0</ele><time>2026-04-04T07:51:29.51Z</time></trkpt><trkpt lat="43.2770165" lon="11.2275052"><ele>255.66666666666669</ele><time>2026-04-04T07:51:31.504Z</time></trkpt><trkpt lat="43.2769782" lon="11.2273999"><ele>256.33333333333337</ele><time>2026-04-04T07:51:33.511Z</time></trkpt><trkpt lat="43.2769445" lon="11.22729"><ele>257.0</ele><time>2026-04-04T07:51:35.496Z</time></trkpt><trkpt lat="43.2769103" lon="11.2272038"><ele>258.0</ele><time>2026-04-04T07:51:36.51Z</time></trkpt><trkpt lat="43.2768728" lon="11.2271032"><ele>259.0</ele><time>2026-04-04T07:51:37.509Z</time></trkpt><trkpt lat="43.2768348" lon="11.226982"><ele>260.0</ele><time>2026-04-04T07:51:38.506Z</time></trkpt><trkpt lat="43.2767858" lon="11.2268184"><ele>261.0</ele><time>2026-04-04T07:51:39.506Z</time></trkpt><trkpt lat="43.276715" lon="11.2266385"><ele>262.6666666666667</ele><time>2026-04-04T07:51:40.51Z</time></trkpt><trkpt lat="43.2766489" lon="11.2264371"><ele>264.33333333333337</ele><time>2026-04-04T07:51:41.511Z</time></trkpt><trkpt lat="43.2765761" lon="11.2262132"><ele>266.0</ele><time>2026-04-04T07:51:42.501Z</time></trkpt><trkpt lat="43.2764992" lon="11.225978"><ele>266.0</ele><time>2026-04-04T07:51:43.517Z</time></trkpt><trkpt lat="43.2764425" lon="11.2257413"><ele>266.0</ele><time>2026-04-04T07:51:44.504Z</time></trkpt><trkpt lat="43.2763997" lon="11.2254873"><ele>266.0</ele><time>2026-04-04T07:51:45.512Z</time></trkpt><trkpt lat="43.2763622" lon="11.2252295"><ele>266.33333333333337</ele><time>2026-04-04T07:51:46.511Z</time></trkpt><trkpt lat="43.2763283" lon="11.2249791"><ele>266.6666666666667</ele><time>2026-04-04T07:51:47.505Z</time></trkpt><trkpt lat="43.2762979" lon="11.224727"><ele>267.0</ele><time>2026-04-04T07:51:48.499Z</time></trkpt><trkpt lat="43.2762689" lon="11.224486"><ele>267.6666666666667</ele><time>2026-04-04T07:51:49.509Z</time></trkpt><trkpt lat="43.2762368" lon="11.2242578"><ele>268.33333333333337</ele><time>2026-04-04T07:51:50.513Z</time></trkpt><trkpt lat="43.2762066" lon="11.2240306"><ele>269.0</ele><time>2026-04-04T07:51:51.493Z</time></trkpt><trkpt lat="43.2761786" lon="11.2238062"><ele>270.0</ele><time>2026-04-04T07:51:52.527Z</time></trkpt><trkpt lat="43.2761537" lon="11.2235722"><ele>271.0</ele><time>2026-04-04T07:51:53.5Z</time></trkpt><trkpt lat="43.2761296" lon="11.2233601"><ele>272.0</ele><time>2026-04-04T07:51:54.506Z</time></trkpt><trkpt lat="43.276108" lon="11.22317"><ele>271.75</ele><time>2026-04-04T07:51:55.506Z</time></trkpt><trkpt lat="43.2760923" lon="11.2229859"><ele>271.5</ele><time>2026-04-04T07:51:56.5Z</time></trkpt><trkpt lat="43.276084" lon="11.2228"><ele>271.25</ele><time>2026-04-04T07:51:57.504Z</time></trkpt><trkpt lat="43.2760808" lon="11.22262"><ele>271.0</ele><time>2026-04-04T07:51:58.492Z</time></trkpt><trkpt lat="43.2760822" lon="11.2224383"><ele>270.25</ele><time>2026-04-04T07:51:59.507Z</time></trkpt><trkpt lat="43.2760919" lon="11.2222472"><ele>269.5</ele><time>2026-04-04T07:52:00.507Z</time></trkpt><trkpt lat="43.2761088" lon="11.2220634"><ele>268.75</ele><time>2026-04-04T07:52:01.511Z</time></trkpt><trkpt lat="43.276124" lon="11.2218864"><ele>268.0</ele><time>2026-04-04T07:52:02.495Z</time></trkpt><trkpt lat="43.2761417" lon="11.2217107"><ele>268.0</ele><time>2026-04-04T07:52:03.511Z</time></trkpt><trkpt lat="43.2761619" lon="11.2215413"><ele>268.0</ele><time>2026-04-04T07:52:04.503Z</time></trkpt><trkpt lat="43.2761981" lon="11.2213796"><ele>268.0</ele><time>2026-04-04T07:52:05.494Z</time></trkpt><trkpt lat="43.2762428" lon="11.2212317"><ele>268.0</ele><time>2026-04-04T07:52:06.504Z</time></trkpt><trkpt lat="43.2762916" lon="11.2210929"><ele>267.8</ele><time>2026-04-04T07:52:07.513Z</time></trkpt><trkpt lat="43.2763319" lon="11.2209554"><ele>267.6</ele><time>2026-04-04T07:52:08.494Z</time></trkpt><trkpt lat="43.2763701" lon="11.2208301"><ele>267.4</ele><time>2026-04-04T07:52:09.497Z</time></trkpt><trkpt lat="43.2764002" lon="11.2207037"><ele>267.2</ele><time>2026-04-04T07:52:10.499Z</time></trkpt><trkpt lat="43.2764224" lon="11.220587"><ele>267.0</ele><time>2026-04-04T07:52:11.503Z</time></trkpt><trkpt lat="43.2764404" lon="11.2204654"><ele>267.0</ele><time>2026-04-04T07:52:12.497Z</time></trkpt><trkpt lat="43.2764515" lon="11.2203383"><ele>267.0</ele><time>2026-04-04T07:52:13.497Z</time></trkpt><trkpt lat="43.276447" lon="11.2201916"><ele>267.0</ele><time>2026-04-04T07:52:14.506Z</time></trkpt><trkpt lat="43.276435" lon="11.2200293"><ele>267.0</ele><time>2026-04-04T07:52:15.506Z</time></trkpt><trkpt lat="43.2764281" lon="11.2198777"><ele>267.0</ele><time>2026-04-04T07:52:16.504Z</time></trkpt><trkpt lat="43.2764521" lon="11.2197129"><ele>267.0</ele><time>2026-04-04T07:52:17.508Z</time></trkpt><trkpt lat="43.2764919" lon="11.2195633"><ele>267.0</ele><time>2026-04-04T07:52:18.498Z</time></trkpt><trkpt lat="43.2765654" lon="11.2194503"><ele>267.0</ele><time>2026-04-04T07:52:19.504Z</time></trkpt><trkpt lat="43.276663" lon="11.219378"><ele>267.0</ele><time>2026-04-04T07:52:20.506Z</time></trkpt><trkpt lat="43.2767609" lon="11.2193317"><ele>267.0</ele><time>2026-04-04T07:52:21.515Z</time></trkpt><trkpt lat="43.2768627" lon="11.2193041"><ele>267.0</ele><time>2026-04-04T07:52:22.513Z</time></trkpt><trkpt lat="43.2769509" lon="11.2192952"><ele>267.0</ele><time>2026-04-04T07:52:23.52Z</time></trkpt><trkpt lat="43.2770418" lon="11.2193052"><ele>267.0</ele><time>2026-04-04T07:52:24.514Z</time></trkpt><trkpt lat="43.2771317" lon="11.2193185"><ele>267.0</ele><time>2026-04-04T07:52:25.493Z</time></trkpt><trkpt lat="43.2772234" lon="11.2193377"><ele>267.0</ele><time>2026-04-04T07:52:26.505Z</time></trkpt><trkpt lat="43.2773113" lon="11.2193429"><ele>265.0</ele><time>2026-04-04T07:52:27.496Z</time></trkpt><trkpt lat="43.2774022" lon="11.2193569"><ele>263.0</ele><time>2026-04-04T07:52:28.508Z</time></trkpt><trkpt lat="43.2774978" lon="11.2193672"><ele>261.0</ele><time>2026-04-04T07:52:29.506Z</time></trkpt><trkpt lat="43.2775861" lon="11.2193754"><ele>259.0</ele><time>2026-04-04T07:52:30.493Z</time></trkpt><trkpt lat="43.2776802" lon="11.2193833"><ele>257.0</ele><time>2026-04-04T07:52:31.499Z</time></trkpt><trkpt lat="43.2777686" lon="11.2193933"><ele>257.0</ele><time>2026-04-04T07:52:32.507Z</time></trkpt><trkpt lat="43.277851" lon="11.2194089"><ele>257.0</ele><time>2026-04-04T07:52:33.497Z</time></trkpt><trkpt lat="43.2779372" lon="11.2194268"><ele>257.0</ele><time>2026-04-04T07:52:34.495Z</time></trkpt><trkpt lat="43.278029" lon="11.2194413"><ele>257.0</ele><time>2026-04-04T07:52:35.516Z</time></trkpt><trkpt lat="43.2781321" lon="11.2194479"><ele>257.0</ele><time>2026-04-04T07:52:36.513Z</time></trkpt><trkpt lat="43.2782392" lon="11.2194569"><ele>255.8</ele><time>2026-04-04T07:52:37.512Z</time></trkpt><trkpt lat="43.2783405" lon="11.2194629"><ele>254.6</ele><time>2026-04-04T07:52:38.51Z</time></trkpt><trkpt lat="43.2784403" lon="11.2194709"><ele>253.40000000000003</ele><time>2026-04-04T07:52:39.507Z</time></trkpt><trkpt lat="43.2785343" lon="11.219481"><ele>252.20000000000002</ele><time>2026-04-04T07:52:40.505Z</time></trkpt><trkpt lat="43.27863" lon="11.2194974"><ele>251.0</ele><time>2026-04-04T07:52:41.517Z</time></trkpt><trkpt lat="43.2787308" lon="11.2195127"><ele>251.0</ele><time>2026-04-04T07:52:42.505Z</time></trkpt><trkpt lat="43.2788507" lon="11.2195141"><ele>251.0</ele><time>2026-04-04T07:52:43.521Z</time></trkpt><trkpt lat="43.2789749" lon="11.2195075"><ele>251.0</ele><time>2026-04-04T07:52:44.499Z</time></trkpt><trkpt lat="43.2790976" lon="11.2194803"><ele>251.0</ele><time>2026-04-04T07:52:45.512Z</time></trkpt><trkpt lat="43.2791945" lon="11.2194522"><ele>251.0</ele><time>2026-04-04T07:52:46.508Z</time></trkpt><trkpt lat="43.2792863" lon="11.2194169"><ele>251.00000000000003</ele><time>2026-04-04T07:52:48.505Z</time></trkpt><trkpt lat="43.2792132" lon="11.219386"><ele>251.00000000000003</ele><time>2026-04-04T07:52:55.504Z</time></trkpt><trkpt lat="43.2790852" lon="11.2194454"><ele>251.0</ele><time>2026-04-04T07:52:57.505Z</time></trkpt><trkpt lat="43.2790067" lon="11.2194667"><ele>251.0</ele><time>2026-04-04T07:52:58.514Z</time></trkpt><trkpt lat="43.2789122" lon="11.2194773"><ele>251.0</ele><time>2026-04-04T07:52:59.501Z</time></trkpt><trkpt lat="43.2787979" lon="11.2194768"><ele>251.0</ele><time>2026-04-04T07:53:00.518Z</time></trkpt><trkpt lat="43.2786675" lon="11.2194741"><ele>251.0</ele><time>2026-04-04T07:53:01.512Z</time></trkpt><trkpt lat="43.2785154" lon="11.2194603"><ele>251.0</ele><time>2026-04-04T07:53:02.516Z</time></trkpt><trkpt lat="43.2783506" lon="11.2194431"><ele>251.0</ele><time>2026-04-04T07:53:03.506Z</time></trkpt><trkpt lat="43.2781744" lon="11.2194252"><ele>251.0</ele><time>2026-04-04T07:53:04.516Z</time></trkpt><trkpt lat="43.278" lon="11.2194097"><ele>251.0</ele><time>2026-04-04T07:53:05.51Z</time></trkpt><trkpt lat="43.2778053" lon="11.2193923"><ele>253.0</ele><time>2026-04-04T07:53:06.513Z</time></trkpt><trkpt lat="43.2775994" lon="11.2193611"><ele>255.0</ele><time>2026-04-04T07:53:07.492Z</time></trkpt><trkpt lat="43.2773958" lon="11.2193392"><ele>257.0</ele><time>2026-04-04T07:53:08.514Z</time></trkpt><trkpt lat="43.2772135" lon="11.2193162"><ele>259.5</ele><time>2026-04-04T07:53:09.518Z</time></trkpt><trkpt lat="43.2770462" lon="11.2192957"><ele>262.0</ele><time>2026-04-04T07:53:10.51Z</time></trkpt><trkpt lat="43.2769084" lon="11.2192747"><ele>264.5</ele><time>2026-04-04T07:53:11.506Z</time></trkpt><trkpt lat="43.2767813" lon="11.219294"><ele>267.0</ele><time>2026-04-04T07:53:12.503Z</time></trkpt><trkpt lat="43.2766536" lon="11.2193407"><ele>267.0</ele><time>2026-04-04T07:53:13.52Z</time></trkpt><trkpt lat="43.2765517" lon="11.2194151"><ele>267.0</ele><time>2026-04-04T07:53:14.499Z</time></trkpt><trkpt lat="43.2764804" lon="11.2195332"><ele>267.0</ele><time>2026-04-04T07:53:15.492Z</time></trkpt><trkpt lat="43.2764149" lon="11.2196998"><ele>267.0</ele><time>2026-04-04T07:53:16.516Z</time></trkpt><trkpt lat="43.2763777" lon="11.2198648"><ele>267.3333333333333</ele><time>2026-04-04T07:53:17.505Z</time></trkpt><trkpt lat="43.2763683" lon="11.2200215"><ele>267.6666666666667</ele><time>2026-04-04T07:53:18.517Z</time></trkpt><trkpt lat="43.2763948" lon="11.2201154"><ele>268.0</ele><time>2026-04-04T07:53:19.507Z</time></trkpt><trkpt lat="43.276384" lon="11.2202066"><ele>268.33333333333337</ele><time>2026-04-04T07:53:21.512Z</time></trkpt><trkpt lat="43.2763141" lon="11.2201353"><ele>268.6666666666667</ele><time>2026-04-04T07:53:25.519Z</time></trkpt><trkpt lat="43.2763011" lon="11.2200436"><ele>269.0</ele><time>2026-04-04T07:53:26.501Z</time></trkpt><trkpt lat="43.2762907" lon="11.2199513"><ele>269.0</ele><time>2026-04-04T07:53:27.499Z</time></trkpt><trkpt lat="43.2762663" lon="11.2198477"><ele>269.0</ele><time>2026-04-04T07:53:28.501Z</time></trkpt><trkpt lat="43.2762335" lon="11.219697"><ele>269.0</ele><time>2026-04-04T07:53:29.518Z</time></trkpt><trkpt lat="43.2762119" lon="11.2195014"><ele>269.0</ele><time>2026-04-04T07:53:30.499Z</time></trkpt><trkpt lat="43.2762147" lon="11.2193107"><ele>270.6666666666667</ele><time>2026-04-04T07:53:31.499Z</time></trkpt><trkpt lat="43.2762431" lon="11.2191007"><ele>272.3333333333333</ele><time>2026-04-04T07:53:32.505Z</time></trkpt><trkpt lat="43.2762729" lon="11.2188854"><ele>274.0</ele><time>2026-04-04T07:53:33.493Z</time></trkpt><trkpt lat="43.2763348" lon="11.2186571"><ele>273.66666666666663</ele><time>2026-04-04T07:53:34.5Z</time></trkpt><trkpt lat="43.2764091" lon="11.2184183"><ele>273.3333333333333</ele><time>2026-04-04T07:53:35.494Z</time></trkpt><trkpt lat="43.2764716" lon="11.2181914"><ele>273.0</ele><time>2026-04-04T07:53:36.506Z</time></trkpt><trkpt lat="43.2765354" lon="11.2179743"><ele>276.3333333333333</ele><time>2026-04-04T07:53:37.496Z</time></trkpt><trkpt lat="43.2766029" lon="11.2177546"><ele>279.66666666666663</ele><time>2026-04-04T07:53:38.499Z</time></trkpt><trkpt lat="43.2766749" lon="11.2175432"><ele>283.0</ele><time>2026-04-04T07:53:39.498Z</time></trkpt><trkpt lat="43.2767558" lon="11.2173469"><ele>288.66666666666663</ele><time>2026-04-04T07:53:40.514Z</time></trkpt><trkpt lat="43.2768454" lon="11.2171585"><ele>294.3333333333333</ele><time>2026-04-04T07:53:41.514Z</time></trkpt><trkpt lat="43.2769307" lon="11.2169675"><ele>300.0</ele><time>2026-04-04T07:53:42.512Z</time></trkpt><trkpt lat="43.2770114" lon="11.2167801"><ele>300.0</ele><time>2026-04-04T07:53:43.511Z</time></trkpt><trkpt lat="43.2770871" lon="11.2166049"><ele>300.0</ele><time>2026-04-04T07:53:44.526Z</time></trkpt><trkpt lat="43.2771439" lon="11.216435"><ele>300.0</ele><time>2026-04-04T07:53:45.518Z</time></trkpt><trkpt lat="43.2771783" lon="11.2162714"><ele>300.0</ele><time>2026-04-04T07:53:46.505Z</time></trkpt><trkpt lat="43.2772006" lon="11.2160911"><ele>298.75</ele><time>2026-04-04T07:53:47.501Z</time></trkpt><trkpt lat="43.2772421" lon="11.2159238"><ele>297.5</ele><time>2026-04-04T07:53:48.494Z</time></trkpt><trkpt lat="43.27731" lon="11.2157997"><ele>296.25</ele><time>2026-04-04T07:53:49.507Z</time></trkpt><trkpt lat="43.2774265" lon="11.2157323"><ele>295.0</ele><time>2026-04-04T07:53:50.535Z</time></trkpt><trkpt lat="43.2775804" lon="11.2156875"><ele>295.0</ele><time>2026-04-04T07:53:51.52Z</time></trkpt><trkpt lat="43.2777456" lon="11.2156588"><ele>295.0</ele><time>2026-04-04T07:53:52.524Z</time></trkpt><trkpt lat="43.2779183" lon="11.2155934"><ele>295.0</ele><time>2026-04-04T07:53:53.512Z</time></trkpt><trkpt lat="43.2780743" lon="11.2154796"><ele>297.66666666666663</ele><time>2026-04-04T07:53:54.51Z</time></trkpt><trkpt lat="43.2782221" lon="11.2153345"><ele>300.3333333333333</ele><time>2026-04-04T07:53:55.505Z</time></trkpt><trkpt lat="43.278362" lon="11.2151687"><ele>303.0</ele><time>2026-04-04T07:53:56.507Z</time></trkpt><trkpt lat="43.2785064" lon="11.2150209"><ele>303.0</ele><time>2026-04-04T07:53:57.515Z</time></trkpt><trkpt lat="43.2785869" lon="11.2148657"><ele>303.0</ele><time>2026-04-04T07:53:58.501Z</time></trkpt><trkpt lat="43.2786385" lon="11.2147479"><ele>303.0</ele><time>2026-04-04T07:53:59.512Z</time></trkpt><trkpt lat="43.2786691" lon="11.2146242"><ele>303.0</ele><time>2026-04-04T07:54:00.511Z</time></trkpt><trkpt lat="43.2786681" lon="11.214516"><ele>303.0</ele><time>2026-04-04T07:54:01.517Z</time></trkpt><trkpt lat="43.2786096" lon="11.2144389"><ele>305.75</ele><time>2026-04-04T07:54:02.512Z</time></trkpt><trkpt lat="43.2785208" lon="11.2144082"><ele>308.5</ele><time>2026-04-04T07:54:03.507Z</time></trkpt><trkpt lat="43.2784006" lon="11.2144396"><ele>311.25</ele><time>2026-04-04T07:54:04.507Z</time></trkpt><trkpt lat="43.27828" lon="11.2145057"><ele>314.0</ele><time>2026-04-04T07:54:05.501Z</time></trkpt><trkpt lat="43.2781379" lon="11.2145886"><ele>314.0</ele><time>2026-04-04T07:54:06.509Z</time></trkpt><trkpt lat="43.2779644" lon="11.2146638"><ele>314.0</ele><time>2026-04-04T07:54:07.508Z</time></trkpt><trkpt lat="43.2777828" lon="11.2147478"><ele>314.0</ele><time>2026-04-04T07:54:08.509Z</time></trkpt><trkpt lat="43.2775603" lon="11.2148602"><ele>314.0</ele><time>2026-04-04T07:54:09.51Z</time></trkpt><trkpt lat="43.2773219" lon="11.2149938"><ele>314.0</ele><time>2026-04-04T07:54:10.509Z</time></trkpt><trkpt lat="43.2771088" lon="11.2151041"><ele>320.6666666666667</ele><time>2026-04-04T07:54:11.522Z</time></trkpt><trkpt lat="43.276922" lon="11.2151947"><ele>327.3333333333333</ele><time>2026-04-04T07:54:12.515Z</time></trkpt><trkpt lat="43.2767669" lon="11.2152859"><ele>334.0</ele><time>2026-04-04T07:54:13.503Z</time></trkpt><trkpt lat="43.2766314" lon="11.2153941"><ele>334.0</ele><time>2026-04-04T07:54:14.524Z</time></trkpt><trkpt lat="43.276496" lon="11.2155036"><ele>334.0</ele><time>2026-04-04T07:54:15.509Z</time></trkpt><trkpt lat="43.2763744" lon="11.2156362"><ele>334.0</ele><time>2026-04-04T07:54:16.522Z</time></trkpt><trkpt lat="43.2762685" lon="11.2157582"><ele>333.16666666666663</ele><time>2026-04-04T07:54:17.514Z</time></trkpt><trkpt lat="43.2761953" lon="11.2158436"><ele>332.3333333333333</ele><time>2026-04-04T07:54:18.497Z</time></trkpt><trkpt lat="43.2761277" lon="11.2159405"><ele>331.5</ele><time>2026-04-04T07:54:19.513Z</time></trkpt><trkpt lat="43.2760788" lon="11.2160215"><ele>330.6666666666667</ele><time>2026-04-04T07:54:20.52Z</time></trkpt><trkpt lat="43.2760131" lon="11.2160592"><ele>329.83333333333337</ele><time>2026-04-04T07:54:22.51Z</time></trkpt><trkpt lat="43.2759772" lon="11.2159516"><ele>329.0</ele><time>2026-04-04T07:54:24.502Z</time></trkpt><trkpt lat="43.2760005" lon="11.2158404"><ele>329.0</ele><time>2026-04-04T07:54:25.499Z</time></trkpt><trkpt lat="43.276082" lon="11.2157102"><ele>329.0</ele><time>2026-04-04T07:54:26.512Z</time></trkpt><trkpt lat="43.2761661" lon="11.2155512"><ele>329.0</ele><time>2026-04-04T07:54:27.501Z</time></trkpt><trkpt lat="43.2762864" lon="11.2153754"><ele>329.0</ele><time>2026-04-04T07:54:28.502Z</time></trkpt><trkpt lat="43.2764118" lon="11.2151945"><ele>330.6666666666667</ele><time>2026-04-04T07:54:29.52Z</time></trkpt><trkpt lat="43.2765442" lon="11.2150112"><ele>332.3333333333333</ele><time>2026-04-04T07:54:30.508Z</time></trkpt><trkpt lat="43.2766814" lon="11.2148089"><ele>334.0</ele><time>2026-04-04T07:54:31.502Z</time></trkpt><trkpt lat="43.2768056" lon="11.2146031"><ele>339.0</ele><time>2026-04-04T07:54:32.501Z</time></trkpt><trkpt lat="43.2769159" lon="11.2143716"><ele>344.0</ele><time>2026-04-04T07:54:33.512Z</time></trkpt><trkpt lat="43.277023" lon="11.2141373"><ele>349.0</ele><time>2026-04-04T07:54:34.502Z</time></trkpt><trkpt lat="43.2771244" lon="11.2139145"><ele>346.66666666666663</ele><time>2026-04-04T07:54:35.511Z</time></trkpt><trkpt lat="43.2772126" lon="11.2137052"><ele>344.3333333333333</ele><time>2026-04-04T07:54:36.498Z</time></trkpt><trkpt lat="43.2772967" lon="11.2134846"><ele>342.0</ele><time>2026-04-04T07:54:37.51Z</time></trkpt><trkpt lat="43.2773645" lon="11.213257"><ele>345.0</ele><time>2026-04-04T07:54:38.51Z</time></trkpt><trkpt lat="43.2774269" lon="11.2130123"><ele>348.0</ele><time>2026-04-04T07:54:39.504Z</time></trkpt><trkpt lat="43.2774847" lon="11.2127637"><ele>351.0</ele><time>2026-04-04T07:54:40.512Z</time></trkpt><trkpt lat="43.2775402" lon="11.2125077"><ele>353.6666666666667</ele><time>2026-04-04T07:54:41.506Z</time></trkpt><trkpt lat="43.2775848" lon="11.2122413"><ele>356.33333333333337</ele><time>2026-04-04T07:54:42.503Z</time></trkpt><trkpt lat="43.2776214" lon="11.2120024"><ele>359.0</ele><time>2026-04-04T07:54:43.526Z</time></trkpt><trkpt lat="43.277651" lon="11.2117877"><ele>359.0</ele><time>2026-04-04T07:54:44.504Z</time></trkpt><trkpt lat="43.2776554" lon="11.2115769"><ele>359.0</ele><time>2026-04-04T07:54:45.509Z</time></trkpt><trkpt lat="43.2776357" lon="11.2113671"><ele>359.0</ele><time>2026-04-04T07:54:46.503Z</time></trkpt><trkpt lat="43.2776091" lon="11.2111754"><ele>360.0</ele><time>2026-04-04T07:54:47.5Z</time></trkpt><trkpt lat="43.2775647" lon="11.2110031"><ele>361.0</ele><time>2026-04-04T07:54:48.515Z</time></trkpt><trkpt lat="43.2774928" lon="11.2108644"><ele>362.0</ele><time>2026-04-04T07:54:49.504Z</time></trkpt><trkpt lat="43.2774306" lon="11.2107605"><ele>363.0</ele><time>2026-04-04T07:54:50.512Z</time></trkpt><trkpt lat="43.277393" lon="11.2106675"><ele>364.0</ele><time>2026-04-04T07:54:51.501Z</time></trkpt><trkpt lat="43.2774023" lon="11.2105759"><ele>365.6</ele><time>2026-04-04T07:54:52.513Z</time></trkpt><trkpt lat="43.2774616" lon="11.2104965"><ele>367.2</ele><time>2026-04-04T07:54:53.512Z</time></trkpt><trkpt lat="43.2775707" lon="11.2104323"><ele>368.8</ele><time>2026-04-04T07:54:54.524Z</time></trkpt><trkpt lat="43.2776741" lon="11.2103946"><ele>370.40000000000003</ele><time>2026-04-04T07:54:55.514Z</time></trkpt><trkpt lat="43.2777541" lon="11.2103409"><ele>372.0</ele><time>2026-04-04T07:54:56.502Z</time></trkpt><trkpt lat="43.2778004" lon="11.2102207"><ele>372.0</ele><time>2026-04-04T07:54:57.511Z</time></trkpt><trkpt lat="43.2778161" lon="11.2100623"><ele>372.0</ele><time>2026-04-04T07:54:58.506Z</time></trkpt><trkpt lat="43.2778288" lon="11.2098786"><ele>372.0</ele><time>2026-04-04T07:54:59.505Z</time></trkpt><trkpt lat="43.2778372" lon="11.2096831"><ele>372.0</ele><time>2026-04-04T07:55:00.509Z</time></trkpt><trkpt lat="43.2778376" lon="11.2094717"><ele>371.0</ele><time>2026-04-04T07:55:01.502Z</time></trkpt><trkpt lat="43.2778271" lon="11.2092726"><ele>370.0</ele><time>2026-04-04T07:55:02.513Z</time></trkpt><trkpt lat="43.27779" lon="11.2090625"><ele>369.0</ele><time>2026-04-04T07:55:03.513Z</time></trkpt><trkpt lat="43.2777322" lon="11.2088484"><ele>369.0</ele><time>2026-04-04T07:55:04.524Z</time></trkpt><trkpt lat="43.2776829" lon="11.2086604"><ele>369.0</ele><time>2026-04-04T07:55:05.507Z</time></trkpt><trkpt lat="43.2776318" lon="11.2085116"><ele>369.0</ele><time>2026-04-04T07:55:06.508Z</time></trkpt><trkpt lat="43.2775582" lon="11.2083793"><ele>369.0</ele><time>2026-04-04T07:55:07.533Z</time></trkpt><trkpt lat="43.2774636" lon="11.2082475"><ele>365.0</ele><time>2026-04-04T07:55:08.519Z</time></trkpt><trkpt lat="43.2773362" lon="11.208134"><ele>361.0</ele><time>2026-04-04T07:55:09.505Z</time></trkpt><trkpt lat="43.2772116" lon="11.208021"><ele>357.0</ele><time>2026-04-04T07:55:10.509Z</time></trkpt><trkpt lat="43.2770869" lon="11.2078996"><ele>364.75</ele><time>2026-04-04T07:55:11.503Z</time></trkpt><trkpt lat="43.2769903" lon="11.2077797"><ele>372.5</ele><time>2026-04-04T07:55:12.519Z</time></trkpt><trkpt lat="43.2769065" lon="11.2076778"><ele>380.25</ele><time>2026-04-04T07:55:13.504Z</time></trkpt><trkpt lat="43.276828" lon="11.2075832"><ele>388.0</ele><time>2026-04-04T07:55:14.504Z</time></trkpt><trkpt lat="43.2767574" lon="11.2074793"><ele>388.0</ele><time>2026-04-04T07:55:15.493Z</time></trkpt><trkpt lat="43.2766901" lon="11.2073582"><ele>388.0</ele><time>2026-04-04T07:55:16.502Z</time></trkpt><trkpt lat="43.2766305" lon="11.2072324"><ele>388.0</ele><time>2026-04-04T07:55:17.514Z</time></trkpt><trkpt lat="43.2765537" lon="11.2071221"><ele>388.0</ele><time>2026-04-04T07:55:18.502Z</time></trkpt><trkpt lat="43.2764592" lon="11.2070231"><ele>390.25</ele><time>2026-04-04T07:55:19.505Z</time></trkpt><trkpt lat="43.2763627" lon="11.2069333"><ele>392.5</ele><time>2026-04-04T07:55:20.509Z</time></trkpt><trkpt lat="43.2762512" lon="11.206857"><ele>394.75</ele><time>2026-04-04T07:55:21.5Z</time></trkpt><trkpt lat="43.2761427" lon="11.2067878"><ele>397.0</ele><time>2026-04-04T07:55:22.505Z</time></trkpt><trkpt lat="43.2760304" lon="11.206721"><ele>397.0</ele><time>2026-04-04T07:55:23.519Z</time></trkpt><trkpt lat="43.2759124" lon="11.2066578"><ele>397.0</ele><time>2026-04-04T07:55:24.517Z</time></trkpt><trkpt lat="43.2757933" lon="11.2065967"><ele>397.0</ele><time>2026-04-04T07:55:25.517Z</time></trkpt><trkpt lat="43.275686" lon="11.206533"><ele>397.0</ele><time>2026-04-04T07:55:26.495Z</time></trkpt><trkpt lat="43.2755773" lon="11.2064667"><ele>398.0</ele><time>2026-04-04T07:55:27.506Z</time></trkpt><trkpt lat="43.275464" lon="11.2063767"><ele>399.0</ele><time>2026-04-04T07:55:28.51Z</time></trkpt><trkpt lat="43.275335" lon="11.2062677"><ele>400.0</ele><time>2026-04-04T07:55:29.504Z</time></trkpt><trkpt lat="43.2751905" lon="11.2061556"><ele>401.0</ele><time>2026-04-04T07:55:30.504Z</time></trkpt><trkpt lat="43.2750459" lon="11.2060548"><ele>401.0</ele><time>2026-04-04T07:55:31.499Z</time></trkpt><trkpt lat="43.2748957" lon="11.2059531"><ele>401.0</ele><time>2026-04-04T07:55:32.51Z</time></trkpt><trkpt lat="43.2747422" lon="11.2058297"><ele>401.0</ele><time>2026-04-04T07:55:33.501Z</time></trkpt><trkpt lat="43.2745957" lon="11.2057015"><ele>402.75</ele><time>2026-04-04T07:55:34.504Z</time></trkpt><trkpt lat="43.2744736" lon="11.2055826"><ele>404.5</ele><time>2026-04-04T07:55:35.51Z</time></trkpt><trkpt lat="43.2743645" lon="11.2054524"><ele>406.25</ele><time>2026-04-04T07:55:36.49Z</time></trkpt><trkpt lat="43.2742559" lon="11.205308"><ele>408.0</ele><time>2026-04-04T07:55:37.512Z</time></trkpt><trkpt lat="43.2741497" lon="11.2051514"><ele>408.0</ele><time>2026-04-04T07:55:38.502Z</time></trkpt><trkpt lat="43.2740531" lon="11.205019"><ele>408.0</ele><time>2026-04-04T07:55:39.509Z</time></trkpt><trkpt lat="43.2739534" lon="11.2049036"><ele>408.0</ele><time>2026-04-04T07:55:40.511Z</time></trkpt><trkpt lat="43.2738381" lon="11.204808"><ele>408.0</ele><time>2026-04-04T07:55:41.521Z</time></trkpt><trkpt lat="43.2736999" lon="11.2047229"><ele>407.33333333333337</ele><time>2026-04-04T07:55:42.508Z</time></trkpt><trkpt lat="43.2735604" lon="11.2046115"><ele>406.6666666666667</ele><time>2026-04-04T07:55:43.5Z</time></trkpt><trkpt lat="43.2734255" lon="11.2044579"><ele>406.0</ele><time>2026-04-04T07:55:44.505Z</time></trkpt><trkpt lat="43.2732834" lon="11.2043015"><ele>406.0</ele><time>2026-04-04T07:55:45.509Z</time></trkpt><trkpt lat="43.273143" lon="11.2041654"><ele>406.0</ele><time>2026-04-04T07:55:46.507Z</time></trkpt><trkpt lat="43.273003" lon="11.2040493"><ele>406.0</ele><time>2026-04-04T07:55:47.508Z</time></trkpt><trkpt lat="43.2728715" lon="11.2039739"><ele>407.6666666666667</ele><time>2026-04-04T07:55:48.508Z</time></trkpt><trkpt lat="43.2727357" lon="11.2039207"><ele>409.33333333333337</ele><time>2026-04-04T07:55:49.503Z</time></trkpt><trkpt lat="43.2725806" lon="11.203901"><ele>411.0</ele><time>2026-04-04T07:55:50.506Z</time></trkpt><trkpt lat="43.2724297" lon="11.2038647"><ele>411.0</ele><time>2026-04-04T07:55:51.511Z</time></trkpt><trkpt lat="43.272287" lon="11.2037947"><ele>411.0</ele><time>2026-04-04T07:55:52.509Z</time></trkpt><trkpt lat="43.2721491" lon="11.2036943"><ele>411.0</ele><time>2026-04-04T07:55:53.501Z</time></trkpt><trkpt lat="43.2719832" lon="11.2036041"><ele>412.0</ele><time>2026-04-04T07:55:54.5Z</time></trkpt><trkpt lat="43.2718207" lon="11.2035093"><ele>413.0</ele><time>2026-04-04T07:55:55.509Z</time></trkpt><trkpt lat="43.2716749" lon="11.2034265"><ele>414.0</ele><time>2026-04-04T07:55:56.508Z</time></trkpt><trkpt lat="43.2715217" lon="11.2033545"><ele>415.75</ele><time>2026-04-04T07:55:57.517Z</time></trkpt><trkpt lat="43.2713801" lon="11.2033092"><ele>417.5</ele><time>2026-04-04T07:55:58.499Z</time></trkpt><trkpt lat="43.2712414" lon="11.2032906"><ele>419.25</ele><time>2026-04-04T07:55:59.51Z</time></trkpt><trkpt lat="43.2710988" lon="11.2032967"><ele>421.0</ele><time>2026-04-04T07:56:00.509Z</time></trkpt><trkpt lat="43.2709476" lon="11.2033282"><ele>421.0</ele><time>2026-04-04T07:56:01.498Z</time></trkpt><trkpt lat="43.2708198" lon="11.2033378"><ele>421.0</ele><time>2026-04-04T07:56:02.51Z</time></trkpt><trkpt lat="43.2706954" lon="11.2033074"><ele>421.0</ele><time>2026-04-04T07:56:03.507Z</time></trkpt><trkpt lat="43.2705685" lon="11.2032421"><ele>421.0</ele><time>2026-04-04T07:56:04.505Z</time></trkpt><trkpt lat="43.2704285" lon="11.2031778"><ele>422.25</ele><time>2026-04-04T07:56:05.523Z</time></trkpt><trkpt lat="43.2702781" lon="11.2031315"><ele>423.5</ele><time>2026-04-04T07:56:06.504Z</time></trkpt><trkpt lat="43.2701419" lon="11.2031105"><ele>424.75</ele><time>2026-04-04T07:56:07.502Z</time></trkpt><trkpt lat="43.2700468" lon="11.2030844"><ele>426.0</ele><time>2026-04-04T07:56:08.508Z</time></trkpt><trkpt lat="43.2699851" lon="11.2030174"><ele>426.0</ele><time>2026-04-04T07:56:09.508Z</time></trkpt><trkpt lat="43.2699429" lon="11.2029085"><ele>426.0</ele><time>2026-04-04T07:56:10.512Z</time></trkpt><trkpt lat="43.2699285" lon="11.2027603"><ele>426.0</ele><time>2026-04-04T07:56:11.506Z</time></trkpt><trkpt lat="43.2699305" lon="11.2026304"><ele>426.0</ele><time>2026-04-04T07:56:12.51Z</time></trkpt><trkpt lat="43.2699559" lon="11.2025086"><ele>426.0</ele><time>2026-04-04T07:56:13.513Z</time></trkpt><trkpt lat="43.270023" lon="11.2023916"><ele>426.0</ele><time>2026-04-04T07:56:14.513Z</time></trkpt><trkpt lat="43.2701252" lon="11.2023456"><ele>426.0</ele><time>2026-04-04T07:56:15.499Z</time></trkpt><trkpt lat="43.2702465" lon="11.2023053"><ele>426.0</ele><time>2026-04-04T07:56:16.489Z</time></trkpt><trkpt lat="43.2703771" lon="11.2022867"><ele>426.0</ele><time>2026-04-04T07:56:17.493Z</time></trkpt><trkpt lat="43.2705206" lon="11.202256"><ele>428.0</ele><time>2026-04-04T07:56:18.496Z</time></trkpt><trkpt lat="43.2706639" lon="11.2022145"><ele>430.0</ele><time>2026-04-04T07:56:19.498Z</time></trkpt><trkpt lat="43.2707845" lon="11.2021661"><ele>432.0</ele><time>2026-04-04T07:56:20.495Z</time></trkpt><trkpt lat="43.2708834" lon="11.2021052"><ele>434.0</ele><time>2026-04-04T07:56:21.502Z</time></trkpt><trkpt lat="43.2709542" lon="11.2020187"><ele>434.0</ele><time>2026-04-04T07:56:22.497Z</time></trkpt><trkpt lat="43.2710025" lon="11.2019087"><ele>434.0</ele><time>2026-04-04T07:56:23.505Z</time></trkpt><trkpt lat="43.2709974" lon="11.2018034"><ele>434.0</ele><time>2026-04-04T07:56:24.5Z</time></trkpt><trkpt lat="43.2709257" lon="11.2017087"><ele>434.0</ele><time>2026-04-04T07:56:25.492Z</time></trkpt><trkpt lat="43.2708127" lon="11.2017028"><ele>434.0</ele><time>2026-04-04T07:56:26.504Z</time></trkpt><trkpt lat="43.2706632" lon="11.2017492"><ele>434.75</ele><time>2026-04-04T07:56:27.493Z</time></trkpt><trkpt lat="43.2705157" lon="11.2018093"><ele>435.5</ele><time>2026-04-04T07:56:28.497Z</time></trkpt><trkpt lat="43.2703877" lon="11.2018592"><ele>436.25</ele><time>2026-04-04T07:56:29.499Z</time></trkpt><trkpt lat="43.2702544" lon="11.2018666"><ele>437.0</ele><time>2026-04-04T07:56:30.503Z</time></trkpt><trkpt lat="43.2701264" lon="11.2018432"><ele>437.0</ele><time>2026-04-04T07:56:31.497Z</time></trkpt><trkpt lat="43.2700126" lon="11.201816"><ele>437.00000000000006</ele><time>2026-04-04T07:56:32.511Z</time></trkpt><trkpt lat="43.2699337" lon="11.2017557"><ele>437.00000000000006</ele><time>2026-04-04T07:56:33.505Z</time></trkpt><trkpt lat="43.2698995" lon="11.2016466"><ele>437.0</ele><time>2026-04-04T07:56:34.498Z</time></trkpt><trkpt lat="43.2698907" lon="11.2015124"><ele>437.0</ele><time>2026-04-04T07:56:35.508Z</time></trkpt><trkpt lat="43.2699251" lon="11.2014006"><ele>439.75</ele><time>2026-04-04T07:56:36.512Z</time></trkpt><trkpt lat="43.2699989" lon="11.2012854"><ele>442.5</ele><time>2026-04-04T07:56:37.514Z</time></trkpt><trkpt lat="43.2701142" lon="11.2011786"><ele>445.25</ele><time>2026-04-04T07:56:38.508Z</time></trkpt><trkpt lat="43.2702328" lon="11.2010699"><ele>448.0</ele><time>2026-04-04T07:56:39.509Z</time></trkpt><trkpt lat="43.2703506" lon="11.2009732"><ele>448.0</ele><time>2026-04-04T07:56:40.509Z</time></trkpt><trkpt lat="43.2704758" lon="11.2009002"><ele>448.0</ele><time>2026-04-04T07:56:41.507Z</time></trkpt><trkpt lat="43.2706399" lon="11.2008784"><ele>448.0</ele><time>2026-04-04T07:56:42.513Z</time></trkpt><trkpt lat="43.2707969" lon="11.2009079"><ele>447.75</ele><time>2026-04-04T07:56:43.514Z</time></trkpt><trkpt lat="43.2709355" lon="11.2009401"><ele>447.5</ele><time>2026-04-04T07:56:44.509Z</time></trkpt><trkpt lat="43.2710588" lon="11.201008"><ele>447.25</ele><time>2026-04-04T07:56:45.495Z</time></trkpt><trkpt lat="43.2711978" lon="11.2010674"><ele>447.0</ele><time>2026-04-04T07:56:46.51Z</time></trkpt><trkpt lat="43.2713326" lon="11.201047"><ele>447.0</ele><time>2026-04-04T07:56:47.513Z</time></trkpt><trkpt lat="43.2714792" lon="11.2009612"><ele>447.0</ele><time>2026-04-04T07:56:48.505Z</time></trkpt><trkpt lat="43.2716184" lon="11.2008534"><ele>447.0</ele><time>2026-04-04T07:56:49.508Z</time></trkpt><trkpt lat="43.2717647" lon="11.200729"><ele>449.0</ele><time>2026-04-04T07:56:50.516Z</time></trkpt><trkpt lat="43.2719123" lon="11.2005802"><ele>451.0</ele><time>2026-04-04T07:56:51.516Z</time></trkpt><trkpt lat="43.2720556" lon="11.2004104"><ele>453.0</ele><time>2026-04-04T07:56:52.499Z</time></trkpt><trkpt lat="43.2721992" lon="11.2002383"><ele>452.0</ele><time>2026-04-04T07:56:53.511Z</time></trkpt><trkpt lat="43.2723448" lon="11.2000519"><ele>451.0</ele><time>2026-04-04T07:56:54.502Z</time></trkpt><trkpt lat="43.2724909" lon="11.1998762"><ele>450.0</ele><time>2026-04-04T07:56:55.507Z</time></trkpt><trkpt lat="43.2726303" lon="11.1997069"><ele>451.75</ele><time>2026-04-04T07:56:56.504Z</time></trkpt><trkpt lat="43.2727553" lon="11.1995589"><ele>453.5</ele><time>2026-04-04T07:56:57.502Z</time></trkpt><trkpt lat="43.2728651" lon="11.1994514"><ele>455.25</ele><time>2026-04-04T07:56:58.493Z</time></trkpt><trkpt lat="43.2729508" lon="11.1993556"><ele>457.0</ele><time>2026-04-04T07:56:59.515Z</time></trkpt><trkpt lat="43.2730189" lon="11.1992578"><ele>457.0</ele><time>2026-04-04T07:57:00.511Z</time></trkpt><trkpt lat="43.2730585" lon="11.199155"><ele>457.00000000000006</ele><time>2026-04-04T07:57:01.5Z</time></trkpt><trkpt lat="43.2730531" lon="11.1990323"><ele>457.00000000000006</ele><time>2026-04-04T07:57:02.497Z</time></trkpt><trkpt lat="43.2729977" lon="11.1989026"><ele>457.0</ele><time>2026-04-04T07:57:03.491Z</time></trkpt><trkpt lat="43.2729232" lon="11.1987598"><ele>457.0</ele><time>2026-04-04T07:57:04.494Z</time></trkpt><trkpt lat="43.2728413" lon="11.1986028"><ele>459.25</ele><time>2026-04-04T07:57:05.492Z</time></trkpt><trkpt lat="43.2727636" lon="11.1984484"><ele>461.5</ele><time>2026-04-04T07:57:06.494Z</time></trkpt><trkpt lat="43.2726936" lon="11.1982968"><ele>463.75</ele><time>2026-04-04T07:57:07.498Z</time></trkpt><trkpt lat="43.2726386" lon="11.1981702"><ele>466.0</ele><time>2026-04-04T07:57:08.498Z</time></trkpt><trkpt lat="43.2726154" lon="11.1980416"><ele>467.25</ele><time>2026-04-04T07:57:09.49Z</time></trkpt><trkpt lat="43.2726658" lon="11.1979162"><ele>468.5</ele><time>2026-04-04T07:57:10.512Z</time></trkpt><trkpt lat="43.2727503" lon="11.1977755"><ele>469.75</ele><time>2026-04-04T07:57:11.507Z</time></trkpt><trkpt lat="43.2728117" lon="11.1976175"><ele>471.0</ele><time>2026-04-04T07:57:12.513Z</time></trkpt><trkpt lat="43.2728372" lon="11.197424"><ele>472.66666666666663</ele><time>2026-04-04T07:57:13.518Z</time></trkpt><trkpt lat="43.2728488" lon="11.1972109"><ele>474.3333333333333</ele><time>2026-04-04T07:57:14.503Z</time></trkpt><trkpt lat="43.2728314" lon="11.1970072"><ele>476.0</ele><time>2026-04-04T07:57:15.5Z</time></trkpt><trkpt lat="43.2727874" lon="11.1968141"><ele>476.0</ele><time>2026-04-04T07:57:16.494Z</time></trkpt><trkpt lat="43.2727287" lon="11.1966312"><ele>476.0</ele><time>2026-04-04T07:57:17.504Z</time></trkpt><trkpt lat="43.2726947" lon="11.1964656"><ele>476.0</ele><time>2026-04-04T07:57:18.487Z</time></trkpt><trkpt lat="43.272694" lon="11.1963086"><ele>476.0</ele><time>2026-04-04T07:57:19.496Z</time></trkpt><trkpt lat="43.2727186" lon="11.1961724"><ele>476.16666666666663</ele><time>2026-04-04T07:57:20.493Z</time></trkpt><trkpt lat="43.272784" lon="11.196078"><ele>476.3333333333333</ele><time>2026-04-04T07:57:21.494Z</time></trkpt><trkpt lat="43.2728573" lon="11.1960257"><ele>476.5</ele><time>2026-04-04T07:57:22.492Z</time></trkpt><trkpt lat="43.2729476" lon="11.1960197"><ele>476.66666666666663</ele><time>2026-04-04T07:57:23.51Z</time></trkpt><trkpt lat="43.2730349" lon="11.1960383"><ele>476.8333333333333</ele><time>2026-04-04T07:57:24.492Z</time></trkpt><trkpt lat="43.2731035" lon="11.1960513"><ele>477.0</ele><time>2026-04-04T07:57:25.499Z</time></trkpt><trkpt lat="43.2731882" lon="11.1960483"><ele>477.0</ele><time>2026-04-04T07:57:27.497Z</time></trkpt><trkpt lat="43.2732401" lon="11.1959961"><ele>477.0</ele><time>2026-04-04T07:57:53.515Z</time></trkpt><trkpt lat="43.2732023" lon="11.1959033"><ele>477.0</ele><time>2026-04-04T07:57:55.513Z</time></trkpt><trkpt lat="43.2731541" lon="11.195838"><ele>477.0</ele><time>2026-04-04T07:57:56.513Z</time></trkpt><trkpt lat="43.2731044" lon="11.195755"><ele>477.0</ele><time>2026-04-04T07:57:57.512Z</time></trkpt><trkpt lat="43.2730498" lon="11.1956674"><ele>477.0</ele><time>2026-04-04T07:57:58.512Z</time></trkpt><trkpt lat="43.2729671" lon="11.19558"><ele>478.40000000000003</ele><time>2026-04-04T07:57:59.514Z</time></trkpt><trkpt lat="43.2728925" lon="11.1954989"><ele>479.80000000000007</ele><time>2026-04-04T07:58:00.499Z</time></trkpt><trkpt lat="43.272806" lon="11.1954101"><ele>481.2</ele><time>2026-04-04T07:58:01.492Z</time></trkpt><trkpt lat="43.2727085" lon="11.1953166"><ele>482.6</ele><time>2026-04-04T07:58:02.53Z</time></trkpt><trkpt lat="43.2726031" lon="11.1952332"><ele>484.0</ele><time>2026-04-04T07:58:03.516Z</time></trkpt><trkpt lat="43.2724967" lon="11.1951518"><ele>484.0</ele><time>2026-04-04T07:58:04.509Z</time></trkpt><trkpt lat="43.2723861" lon="11.1950752"><ele>484.0</ele><time>2026-04-04T07:58:05.512Z</time></trkpt><trkpt lat="43.2722738" lon="11.1950025"><ele>484.0</ele><time>2026-04-04T07:58:06.496Z</time></trkpt><trkpt lat="43.2721643" lon="11.1949336"><ele>484.0</ele><time>2026-04-04T07:58:07.505Z</time></trkpt><trkpt lat="43.2720547" lon="11.1948763"><ele>484.6</ele><time>2026-04-04T07:58:08.516Z</time></trkpt><trkpt lat="43.2719535" lon="11.1948243"><ele>485.2</ele><time>2026-04-04T07:58:09.506Z</time></trkpt><trkpt lat="43.2718568" lon="11.1947675"><ele>485.80000000000007</ele><time>2026-04-04T07:58:10.5Z</time></trkpt><trkpt lat="43.2717616" lon="11.1946834"><ele>486.40000000000003</ele><time>2026-04-04T07:58:11.505Z</time></trkpt><trkpt lat="43.2716748" lon="11.194582"><ele>487.0</ele><time>2026-04-04T07:58:12.502Z</time></trkpt><trkpt lat="43.2715978" lon="11.1944651"><ele>487.0</ele><time>2026-04-04T07:58:13.501Z</time></trkpt><trkpt lat="43.2715232" lon="11.1943375"><ele>487.0</ele><time>2026-04-04T07:58:14.504Z</time></trkpt><trkpt lat="43.2714517" lon="11.1941965"><ele>487.0</ele><time>2026-04-04T07:58:15.515Z</time></trkpt><trkpt lat="43.2713879" lon="11.1940665"><ele>487.0</ele><time>2026-04-04T07:58:16.524Z</time></trkpt><trkpt lat="43.2713362" lon="11.1939184"><ele>487.0</ele><time>2026-04-04T07:58:17.508Z</time></trkpt><trkpt lat="43.2712924" lon="11.1937755"><ele>487.00000000000006</ele><time>2026-04-04T07:58:18.512Z</time></trkpt><trkpt lat="43.2712547" lon="11.1936337"><ele>487.00000000000006</ele><time>2026-04-04T07:58:19.507Z</time></trkpt><trkpt lat="43.2712167" lon="11.1934884"><ele>487.0</ele><time>2026-04-04T07:58:20.506Z</time></trkpt><trkpt lat="43.2711913" lon="11.1933529"><ele>487.0</ele><time>2026-04-04T07:58:21.512Z</time></trkpt><trkpt lat="43.2711653" lon="11.193225"><ele>486.6</ele><time>2026-04-04T07:58:22.507Z</time></trkpt><trkpt lat="43.2711444" lon="11.1930935"><ele>486.20000000000005</ele><time>2026-04-04T07:58:23.511Z</time></trkpt><trkpt lat="43.271124" lon="11.1929538"><ele>485.8</ele><time>2026-04-04T07:58:24.497Z</time></trkpt><trkpt lat="43.27108" lon="11.1928223"><ele>485.4</ele><time>2026-04-04T07:58:25.518Z</time></trkpt><trkpt lat="43.2710055" lon="11.1926947"><ele>485.0</ele><time>2026-04-04T07:58:26.501Z</time></trkpt><trkpt lat="43.2709204" lon="11.1925493"><ele>485.0</ele><time>2026-04-04T07:58:27.507Z</time></trkpt><trkpt lat="43.2708414" lon="11.1924153"><ele>485.0</ele><time>2026-04-04T07:58:28.499Z</time></trkpt><trkpt lat="43.2707625" lon="11.192295"><ele>485.0</ele><time>2026-04-04T07:58:29.498Z</time></trkpt><trkpt lat="43.2706926" lon="11.1921748"><ele>485.0</ele><time>2026-04-04T07:58:30.497Z</time></trkpt><trkpt lat="43.2706203" lon="11.1920774"><ele>483.0</ele><time>2026-04-04T07:58:31.514Z</time></trkpt><trkpt lat="43.2705451" lon="11.1919748"><ele>481.0</ele><time>2026-04-04T07:58:32.509Z</time></trkpt><trkpt lat="43.2704738" lon="11.1918777"><ele>479.0</ele><time>2026-04-04T07:58:33.506Z</time></trkpt><trkpt lat="43.2704075" lon="11.1917874"><ele>477.0</ele><time>2026-04-04T07:58:34.502Z</time></trkpt><trkpt lat="43.2703331" lon="11.1916825"><ele>475.0</ele><time>2026-04-04T07:58:35.514Z</time></trkpt><trkpt lat="43.270262" lon="11.1915619"><ele>473.6666666666667</ele><time>2026-04-04T07:58:36.53Z</time></trkpt><trkpt lat="43.2701793" lon="11.191418"><ele>472.33333333333337</ele><time>2026-04-04T07:58:37.514Z</time></trkpt><trkpt lat="43.2700943" lon="11.1912439"><ele>471.0</ele><time>2026-04-04T07:58:38.511Z</time></trkpt><trkpt lat="43.2699942" lon="11.1910555"><ele>471.0</ele><time>2026-04-04T07:58:39.505Z</time></trkpt><trkpt lat="43.2698985" lon="11.190873"><ele>471.0</ele><time>2026-04-04T07:58:40.523Z</time></trkpt><trkpt lat="43.2698086" lon="11.1907089"><ele>471.0</ele><time>2026-04-04T07:58:41.511Z</time></trkpt><trkpt lat="43.2697262" lon="11.1905439"><ele>469.0</ele><time>2026-04-04T07:58:42.524Z</time></trkpt><trkpt lat="43.2696457" lon="11.1903945"><ele>467.0</ele><time>2026-04-04T07:58:43.504Z</time></trkpt><trkpt lat="43.269574" lon="11.1902593"><ele>465.0</ele><time>2026-04-04T07:58:44.506Z</time></trkpt><trkpt lat="43.2695048" lon="11.1901213"><ele>463.0</ele><time>2026-04-04T07:58:45.519Z</time></trkpt><trkpt lat="43.2694485" lon="11.1899893"><ele>463.0</ele><time>2026-04-04T07:58:46.509Z</time></trkpt><trkpt lat="43.2693784" lon="11.1898588"><ele>463.0</ele><time>2026-04-04T07:58:47.508Z</time></trkpt><trkpt lat="43.2693011" lon="11.1897301"><ele>463.0</ele><time>2026-04-04T07:58:48.508Z</time></trkpt><trkpt lat="43.2692282" lon="11.1896024"><ele>463.0</ele><time>2026-04-04T07:58:49.513Z</time></trkpt><trkpt lat="43.269149" lon="11.1894628"><ele>462.59999999999997</ele><time>2026-04-04T07:58:50.525Z</time></trkpt><trkpt lat="43.269066" lon="11.1893342"><ele>462.19999999999993</ele><time>2026-04-04T07:58:51.514Z</time></trkpt><trkpt lat="43.2689807" lon="11.1892229"><ele>461.8</ele><time>2026-04-04T07:58:52.533Z</time></trkpt><trkpt lat="43.268915" lon="11.1891098"><ele>461.4</ele><time>2026-04-04T07:58:53.519Z</time></trkpt><trkpt lat="43.2688456" lon="11.1890124"><ele>461.0</ele><time>2026-04-04T07:58:54.509Z</time></trkpt><trkpt lat="43.2687902" lon="11.188916"><ele>459.8</ele><time>2026-04-04T07:58:55.5Z</time></trkpt><trkpt lat="43.2687409" lon="11.1888165"><ele>458.6</ele><time>2026-04-04T07:58:56.515Z</time></trkpt><trkpt lat="43.2686838" lon="11.1887132"><ele>457.4</ele><time>2026-04-04T07:58:57.514Z</time></trkpt><trkpt lat="43.2686317" lon="11.1886011"><ele>456.2</ele><time>2026-04-04T07:58:58.521Z</time></trkpt><trkpt lat="43.2685878" lon="11.1884767"><ele>455.0</ele><time>2026-04-04T07:58:59.522Z</time></trkpt><trkpt lat="43.2685542" lon="11.1883545"><ele>454.99999999999994</ele><time>2026-04-04T07:59:00.521Z</time></trkpt><trkpt lat="43.2685281" lon="11.1882337"><ele>455.0</ele><time>2026-04-04T07:59:01.538Z</time></trkpt><trkpt lat="43.268509" lon="11.1881089"><ele>455.0</ele><time>2026-04-04T07:59:02.52Z</time></trkpt><trkpt lat="43.2684998" lon="11.1879919"><ele>455.0</ele><time>2026-04-04T07:59:03.521Z</time></trkpt><trkpt lat="43.2685023" lon="11.1878834"><ele>454.99999999999994</ele><time>2026-04-04T07:59:04.527Z</time></trkpt><trkpt lat="43.2685076" lon="11.1877694"><ele>455.0</ele><time>2026-04-04T07:59:05.503Z</time></trkpt><trkpt lat="43.2685274" lon="11.1876536"><ele>454.8</ele><time>2026-04-04T07:59:06.518Z</time></trkpt><trkpt lat="43.2685567" lon="11.1875247"><ele>454.6</ele><time>2026-04-04T07:59:07.517Z</time></trkpt><trkpt lat="43.2685928" lon="11.1873903"><ele>454.4</ele><time>2026-04-04T07:59:08.515Z</time></trkpt><trkpt lat="43.2686356" lon="11.1872625"><ele>454.2</ele><time>2026-04-04T07:59:09.511Z</time></trkpt><trkpt lat="43.2686766" lon="11.1871541"><ele>454.0</ele><time>2026-04-04T07:59:10.514Z</time></trkpt><trkpt lat="43.268717" lon="11.1870594"><ele>453.6666666666667</ele><time>2026-04-04T07:59:11.514Z</time></trkpt><trkpt lat="43.2687705" lon="11.1869825"><ele>453.33333333333337</ele><time>2026-04-04T07:59:12.51Z</time></trkpt><trkpt lat="43.26884" lon="11.1869293"><ele>453.0</ele><time>2026-04-04T07:59:13.515Z</time></trkpt><trkpt lat="43.2689213" lon="11.186882"><ele>452.66666666666663</ele><time>2026-04-04T07:59:14.512Z</time></trkpt><trkpt lat="43.2690033" lon="11.1868328"><ele>452.3333333333333</ele><time>2026-04-04T07:59:15.504Z</time></trkpt><trkpt lat="43.2690819" lon="11.18678"><ele>452.0</ele><time>2026-04-04T07:59:16.514Z</time></trkpt><trkpt lat="43.2691511" lon="11.1867091"><ele>452.0</ele><time>2026-04-04T07:59:17.505Z</time></trkpt><trkpt lat="43.269209" lon="11.1866181"><ele>452.00000000000006</ele><time>2026-04-04T07:59:18.51Z</time></trkpt><trkpt lat="43.269264" lon="11.186495"><ele>452.00000000000006</ele><time>2026-04-04T07:59:19.498Z</time></trkpt><trkpt lat="43.2693198" lon="11.1863624"><ele>452.0</ele><time>2026-04-04T07:59:20.506Z</time></trkpt><trkpt lat="43.2693648" lon="11.1862328"><ele>452.0</ele><time>2026-04-04T07:59:21.524Z</time></trkpt><trkpt lat="43.2694041" lon="11.1861277"><ele>452.0</ele><time>2026-04-04T07:59:22.512Z</time></trkpt><trkpt lat="43.269448" lon="11.186023"><ele>452.00000000000006</ele><time>2026-04-04T07:59:23.526Z</time></trkpt><trkpt lat="43.2694912" lon="11.1859214"><ele>452.00000000000006</ele><time>2026-04-04T07:59:24.511Z</time></trkpt><trkpt lat="43.2695345" lon="11.1858125"><ele>452.0</ele><time>2026-04-04T07:59:25.52Z</time></trkpt><trkpt lat="43.2695818" lon="11.1856942"><ele>452.0</ele><time>2026-04-04T07:59:26.528Z</time></trkpt><trkpt lat="43.2696385" lon="11.1855404"><ele>453.25</ele><time>2026-04-04T07:59:27.523Z</time></trkpt><trkpt lat="43.2697024" lon="11.1853879"><ele>454.5</ele><time>2026-04-04T07:59:28.524Z</time></trkpt><trkpt lat="43.269767" lon="11.1852341"><ele>455.75</ele><time>2026-04-04T07:59:29.519Z</time></trkpt><trkpt lat="43.2698302" lon="11.1850753"><ele>457.0</ele><time>2026-04-04T07:59:30.522Z</time></trkpt><trkpt lat="43.2698889" lon="11.1849207"><ele>458.6</ele><time>2026-04-04T07:59:31.513Z</time></trkpt><trkpt lat="43.269936" lon="11.1847864"><ele>460.20000000000005</ele><time>2026-04-04T07:59:32.512Z</time></trkpt><trkpt lat="43.2699842" lon="11.1846518"><ele>461.8</ele><time>2026-04-04T07:59:33.52Z</time></trkpt><trkpt lat="43.2700279" lon="11.1845156"><ele>463.4</ele><time>2026-04-04T07:59:34.518Z</time></trkpt><trkpt lat="43.2700695" lon="11.1843834"><ele>465.0</ele><time>2026-04-04T07:59:35.527Z</time></trkpt><trkpt lat="43.2701002" lon="11.1842426"><ele>465.0</ele><time>2026-04-04T07:59:36.52Z</time></trkpt><trkpt lat="43.270116" lon="11.1841175"><ele>465.0</ele><time>2026-04-04T07:59:37.521Z</time></trkpt><trkpt lat="43.2701315" lon="11.1840115"><ele>465.0</ele><time>2026-04-04T07:59:38.512Z</time></trkpt><trkpt lat="43.270135" lon="11.1838967"><ele>465.0</ele><time>2026-04-04T07:59:39.516Z</time></trkpt><trkpt lat="43.2701072" lon="11.1837843"><ele>465.0</ele><time>2026-04-04T07:59:40.529Z</time></trkpt><trkpt lat="43.2700539" lon="11.1836872"><ele>465.0</ele><time>2026-04-04T07:59:41.499Z</time></trkpt><trkpt lat="43.2699838" lon="11.1836126"><ele>464.6</ele><time>2026-04-04T07:59:42.508Z</time></trkpt><trkpt lat="43.2698942" lon="11.1835138"><ele>464.2</ele><time>2026-04-04T07:59:43.508Z</time></trkpt><trkpt lat="43.2697927" lon="11.183423"><ele>463.79999999999995</ele><time>2026-04-04T07:59:44.51Z</time></trkpt><trkpt lat="43.2697091" lon="11.1833507"><ele>463.4</ele><time>2026-04-04T07:59:45.51Z</time></trkpt><trkpt lat="43.2696381" lon="11.1832845"><ele>463.0</ele><time>2026-04-04T07:59:46.524Z</time></trkpt><trkpt lat="43.2695647" lon="11.1832192"><ele>462.6666666666667</ele><time>2026-04-04T07:59:47.52Z</time></trkpt><trkpt lat="43.2694967" lon="11.183156"><ele>462.33333333333337</ele><time>2026-04-04T07:59:48.517Z</time></trkpt><trkpt lat="43.2694165" lon="11.1830385"><ele>462.0</ele><time>2026-04-04T07:59:50.523Z</time></trkpt><trkpt lat="43.269388" lon="11.1829554"><ele>461.66666666666663</ele><time>2026-04-04T07:59:51.515Z</time></trkpt><trkpt lat="43.2693754" lon="11.182852"><ele>461.3333333333333</ele><time>2026-04-04T07:59:52.519Z</time></trkpt><trkpt lat="43.2693743" lon="11.1827232"><ele>461.0</ele><time>2026-04-04T07:59:53.498Z</time></trkpt><trkpt lat="43.2693662" lon="11.182587"><ele>461.0</ele><time>2026-04-04T07:59:54.526Z</time></trkpt><trkpt lat="43.2693446" lon="11.1824643"><ele>461.0</ele><time>2026-04-04T07:59:55.514Z</time></trkpt><trkpt lat="43.2693018" lon="11.1823493"><ele>461.0</ele><time>2026-04-04T07:59:56.51Z</time></trkpt><trkpt lat="43.2692543" lon="11.1822444"><ele>461.0</ele><time>2026-04-04T07:59:57.509Z</time></trkpt><trkpt lat="43.2691719" lon="11.1821377"><ele>461.0</ele><time>2026-04-04T07:59:58.51Z</time></trkpt><trkpt lat="43.2690735" lon="11.1820249"><ele>461.5</ele><time>2026-04-04T07:59:59.513Z</time></trkpt><trkpt lat="43.2689709" lon="11.1819058"><ele>462.0</ele><time>2026-04-04T08:00:00.515Z</time></trkpt><trkpt lat="43.2688614" lon="11.1817851"><ele>462.5</ele><time>2026-04-04T08:00:01.526Z</time></trkpt><trkpt lat="43.2687638" lon="11.1816647"><ele>463.0</ele><time>2026-04-04T08:00:02.507Z</time></trkpt><trkpt lat="43.2686731" lon="11.1815373"><ele>462.75</ele><time>2026-04-04T08:00:03.513Z</time></trkpt><trkpt lat="43.268578" lon="11.1814025"><ele>462.5</ele><time>2026-04-04T08:00:04.513Z</time></trkpt><trkpt lat="43.2684977" lon="11.1812836"><ele>462.25</ele><time>2026-04-04T08:00:05.518Z</time></trkpt><trkpt lat="43.2684198" lon="11.1811721"><ele>462.0</ele><time>2026-04-04T08:00:06.506Z</time></trkpt><trkpt lat="43.2683511" lon="11.1810748"><ele>462.0</ele><time>2026-04-04T08:00:07.525Z</time></trkpt><trkpt lat="43.2682924" lon="11.1809783"><ele>462.00000000000006</ele><time>2026-04-04T08:00:08.512Z</time></trkpt><trkpt lat="43.2682245" lon="11.1808897"><ele>462.00000000000006</ele><time>2026-04-04T08:00:09.509Z</time></trkpt><trkpt lat="43.2681554" lon="11.1808136"><ele>462.0</ele><time>2026-04-04T08:00:10.503Z</time></trkpt><trkpt lat="43.2680802" lon="11.1807406"><ele>462.0</ele><time>2026-04-04T08:00:11.504Z</time></trkpt><trkpt lat="43.2679965" lon="11.1807"><ele>461.6</ele><time>2026-04-04T08:00:12.522Z</time></trkpt><trkpt lat="43.2679062" lon="11.1806777"><ele>461.20000000000005</ele><time>2026-04-04T08:00:13.509Z</time></trkpt><trkpt lat="43.2678131" lon="11.1806884"><ele>460.8</ele><time>2026-04-04T08:00:14.51Z</time></trkpt><trkpt lat="43.267709" lon="11.1807218"><ele>460.4</ele><time>2026-04-04T08:00:15.501Z</time></trkpt><trkpt lat="43.2676018" lon="11.1807758"><ele>460.0</ele><time>2026-04-04T08:00:16.502Z</time></trkpt><trkpt lat="43.2675052" lon="11.1808345"><ele>459.83333333333337</ele><time>2026-04-04T08:00:17.505Z</time></trkpt><trkpt lat="43.2674291" lon="11.1808938"><ele>459.6666666666667</ele><time>2026-04-04T08:00:18.508Z</time></trkpt><trkpt lat="43.267355" lon="11.1809385"><ele>459.5</ele><time>2026-04-04T08:00:19.504Z</time></trkpt><trkpt lat="43.2672862" lon="11.1809697"><ele>459.33333333333337</ele><time>2026-04-04T08:00:20.507Z</time></trkpt><trkpt lat="43.2672013" lon="11.1809889"><ele>459.1666666666667</ele><time>2026-04-04T08:00:21.498Z</time></trkpt><trkpt lat="43.2671062" lon="11.1809742"><ele>459.0</ele><time>2026-04-04T08:00:22.511Z</time></trkpt><trkpt lat="43.2670072" lon="11.1809476"><ele>459.0</ele><time>2026-04-04T08:00:23.51Z</time></trkpt><trkpt lat="43.266927" lon="11.1808917"><ele>459.0</ele><time>2026-04-04T08:00:24.516Z</time></trkpt><trkpt lat="43.2668528" lon="11.1808319"><ele>459.0</ele><time>2026-04-04T08:00:25.503Z</time></trkpt><trkpt lat="43.2667815" lon="11.1807712"><ele>459.0</ele><time>2026-04-04T08:00:26.502Z</time></trkpt><trkpt lat="43.2667223" lon="11.1807091"><ele>459.0</ele><time>2026-04-04T08:00:27.505Z</time></trkpt><trkpt lat="43.2666624" lon="11.1806588"><ele>459.0</ele><time>2026-04-04T08:00:28.508Z</time></trkpt><trkpt lat="43.2665715" lon="11.1806245"><ele>459.79999999999995</ele><time>2026-04-04T08:00:30.505Z</time></trkpt><trkpt lat="43.2664979" lon="11.1806534"><ele>460.59999999999997</ele><time>2026-04-04T08:00:32.503Z</time></trkpt><trkpt lat="43.2664126" lon="11.1806925"><ele>461.4</ele><time>2026-04-04T08:00:34.504Z</time></trkpt><trkpt lat="43.2662917" lon="11.1807683"><ele>462.2</ele><time>2026-04-04T08:00:36.511Z</time></trkpt><trkpt lat="43.26622" lon="11.1808073"><ele>463.0</ele><time>2026-04-04T08:00:37.503Z</time></trkpt><trkpt lat="43.2661282" lon="11.1808416"><ele>463.0</ele><time>2026-04-04T08:00:38.515Z</time></trkpt><trkpt lat="43.2660193" lon="11.1808669"><ele>463.0</ele><time>2026-04-04T08:00:39.521Z</time></trkpt><trkpt lat="43.2658883" lon="11.1808868"><ele>463.0</ele><time>2026-04-04T08:00:40.505Z</time></trkpt><trkpt lat="43.2657519" lon="11.1809161"><ele>463.0</ele><time>2026-04-04T08:00:41.505Z</time></trkpt><trkpt lat="43.2656042" lon="11.1809318"><ele>463.5</ele><time>2026-04-04T08:00:42.511Z</time></trkpt><trkpt lat="43.2654756" lon="11.1809552"><ele>464.0</ele><time>2026-04-04T08:00:43.505Z</time></trkpt><trkpt lat="43.2653545" lon="11.1809762"><ele>464.5</ele><time>2026-04-04T08:00:44.499Z</time></trkpt><trkpt lat="43.2652389" lon="11.1810007"><ele>465.0</ele><time>2026-04-04T08:00:45.504Z</time></trkpt><trkpt lat="43.2651345" lon="11.1810097"><ele>465.0</ele><time>2026-04-04T08:00:46.506Z</time></trkpt><trkpt lat="43.2650354" lon="11.1810097"><ele>465.0</ele><time>2026-04-04T08:00:47.514Z</time></trkpt><trkpt lat="43.2649356" lon="11.1809979"><ele>465.0</ele><time>2026-04-04T08:00:48.499Z</time></trkpt><trkpt lat="43.2648403" lon="11.1809747"><ele>465.0</ele><time>2026-04-04T08:00:49.511Z</time></trkpt><trkpt lat="43.2647555" lon="11.180954"><ele>465.0</ele><time>2026-04-04T08:00:50.503Z</time></trkpt><trkpt lat="43.2646791" lon="11.1809491"><ele>464.8</ele><time>2026-04-04T08:00:51.501Z</time></trkpt><trkpt lat="43.2645886" lon="11.1809466"><ele>464.6</ele><time>2026-04-04T08:00:52.516Z</time></trkpt><trkpt lat="43.2644875" lon="11.1809808"><ele>464.4</ele><time>2026-04-04T08:00:53.529Z</time></trkpt><trkpt lat="43.2643849" lon="11.1810296"><ele>464.2</ele><time>2026-04-04T08:00:54.533Z</time></trkpt><trkpt lat="43.2642822" lon="11.1810508"><ele>464.0</ele><time>2026-04-04T08:00:55.52Z</time></trkpt><trkpt lat="43.2641729" lon="11.1810454"><ele>464.0</ele><time>2026-04-04T08:00:56.532Z</time></trkpt><trkpt lat="43.2640743" lon="11.1810509"><ele>464.0</ele><time>2026-04-04T08:00:57.507Z</time></trkpt><trkpt lat="43.2639603" lon="11.1810561"><ele>464.0</ele><time>2026-04-04T08:00:58.51Z</time></trkpt><trkpt lat="43.263841" lon="11.1810964"><ele>464.0</ele><time>2026-04-04T08:00:59.512Z</time></trkpt><trkpt lat="43.2636949" lon="11.1811536"><ele>464.5</ele><time>2026-04-04T08:01:00.511Z</time></trkpt><trkpt lat="43.2635509" lon="11.181227"><ele>465.0</ele><time>2026-04-04T08:01:01.512Z</time></trkpt><trkpt lat="43.2634196" lon="11.1812918"><ele>465.5</ele><time>2026-04-04T08:01:02.514Z</time></trkpt><trkpt lat="43.2633278" lon="11.1813315"><ele>466.0</ele><time>2026-04-04T08:01:03.509Z</time></trkpt><trkpt lat="43.2632394" lon="11.1813603"><ele>466.0</ele><time>2026-04-04T08:01:04.529Z</time></trkpt><trkpt lat="43.2631454" lon="11.1813799"><ele>466.0</ele><time>2026-04-04T08:01:05.508Z</time></trkpt><trkpt lat="43.2630402" lon="11.1813744"><ele>466.0</ele><time>2026-04-04T08:01:06.506Z</time></trkpt><trkpt lat="43.2629232" lon="11.1813555"><ele>466.0</ele><time>2026-04-04T08:01:07.52Z</time></trkpt><trkpt lat="43.2627989" lon="11.1813462"><ele>466.0</ele><time>2026-04-04T08:01:08.506Z</time></trkpt><trkpt lat="43.2626852" lon="11.1813593"><ele>465.75</ele><time>2026-04-04T08:01:09.504Z</time></trkpt><trkpt lat="43.2625616" lon="11.1813696"><ele>465.5</ele><time>2026-04-04T08:01:10.499Z</time></trkpt><trkpt lat="43.2624358" lon="11.1813765"><ele>465.25</ele><time>2026-04-04T08:01:11.503Z</time></trkpt><trkpt lat="43.2623225" lon="11.1813743"><ele>465.0</ele><time>2026-04-04T08:01:12.508Z</time></trkpt><trkpt lat="43.2622211" lon="11.1813699"><ele>465.6</ele><time>2026-04-04T08:01:13.505Z</time></trkpt><trkpt lat="43.262123" lon="11.1813707"><ele>466.2</ele><time>2026-04-04T08:01:14.508Z</time></trkpt><trkpt lat="43.2620398" lon="11.1813868"><ele>466.79999999999995</ele><time>2026-04-04T08:01:15.503Z</time></trkpt><trkpt lat="43.2619553" lon="11.1814123"><ele>467.4</ele><time>2026-04-04T08:01:16.513Z</time></trkpt><trkpt lat="43.261868" lon="11.181456"><ele>468.0</ele><time>2026-04-04T08:01:17.515Z</time></trkpt><trkpt lat="43.261774" lon="11.1814946"><ele>467.59999999999997</ele><time>2026-04-04T08:01:18.53Z</time></trkpt><trkpt lat="43.2616779" lon="11.1815335"><ele>467.19999999999993</ele><time>2026-04-04T08:01:19.505Z</time></trkpt><trkpt lat="43.2615704" lon="11.1815573"><ele>466.8</ele><time>2026-04-04T08:01:20.521Z</time></trkpt><trkpt lat="43.2614554" lon="11.1815867"><ele>466.4</ele><time>2026-04-04T08:01:21.497Z</time></trkpt><trkpt lat="43.2613532" lon="11.1816137"><ele>466.0</ele><time>2026-04-04T08:01:22.508Z</time></trkpt><trkpt lat="43.2612513" lon="11.1816369"><ele>466.0</ele><time>2026-04-04T08:01:23.511Z</time></trkpt><trkpt lat="43.2611431" lon="11.1816654"><ele>466.0</ele><time>2026-04-04T08:01:24.507Z</time></trkpt><trkpt lat="43.2610207" lon="11.1817029"><ele>466.0</ele><time>2026-04-04T08:01:25.513Z</time></trkpt><trkpt lat="43.2608972" lon="11.1817434"><ele>466.0</ele><time>2026-04-04T08:01:26.516Z</time></trkpt><trkpt lat="43.2607785" lon="11.181788"><ele>466.0</ele><time>2026-04-04T08:01:27.501Z</time></trkpt><trkpt lat="43.2606705" lon="11.181863"><ele>466.0</ele><time>2026-04-04T08:01:28.513Z</time></trkpt><trkpt lat="43.2605646" lon="11.1819525"><ele>466.0</ele><time>2026-04-04T08:01:29.505Z</time></trkpt><trkpt lat="43.2604644" lon="11.1820462"><ele>466.0</ele><time>2026-04-04T08:01:30.513Z</time></trkpt><trkpt lat="43.2603704" lon="11.1821578"><ele>466.20000000000005</ele><time>2026-04-04T08:01:31.518Z</time></trkpt><trkpt lat="43.2602952" lon="11.1822519"><ele>466.40000000000003</ele><time>2026-04-04T08:01:32.508Z</time></trkpt><trkpt lat="43.2602262" lon="11.18232"><ele>466.6</ele><time>2026-04-04T08:01:33.521Z</time></trkpt><trkpt lat="43.2601491" lon="11.1823795"><ele>466.8</ele><time>2026-04-04T08:01:34.514Z</time></trkpt><trkpt lat="43.2600651" lon="11.1824245"><ele>467.0</ele><time>2026-04-04T08:01:35.511Z</time></trkpt><trkpt lat="43.2599647" lon="11.1824456"><ele>467.0</ele><time>2026-04-04T08:01:36.499Z</time></trkpt><trkpt lat="43.2598437" lon="11.1824765"><ele>467.0</ele><time>2026-04-04T08:01:37.517Z</time></trkpt><trkpt lat="43.2597162" lon="11.1825165"><ele>467.0</ele><time>2026-04-04T08:01:38.511Z</time></trkpt><trkpt lat="43.2595843" lon="11.1825622"><ele>467.0</ele><time>2026-04-04T08:01:39.493Z</time></trkpt><trkpt lat="43.2594605" lon="11.1826115"><ele>467.25</ele><time>2026-04-04T08:01:40.518Z</time></trkpt><trkpt lat="43.2593462" lon="11.1826582"><ele>467.5</ele><time>2026-04-04T08:01:41.498Z</time></trkpt><trkpt lat="43.2592285" lon="11.1827094"><ele>467.75</ele><time>2026-04-04T08:01:42.511Z</time></trkpt><trkpt lat="43.2591185" lon="11.1827525"><ele>468.0</ele><time>2026-04-04T08:01:43.502Z</time></trkpt><trkpt lat="43.2590251" lon="11.1827976"><ele>468.0</ele><time>2026-04-04T08:01:44.509Z</time></trkpt><trkpt lat="43.2589553" lon="11.1828211"><ele>468.0</ele><time>2026-04-04T08:01:45.494Z</time></trkpt><trkpt lat="43.2588558" lon="11.1828329"><ele>468.0</ele><time>2026-04-04T08:01:47.502Z</time></trkpt><trkpt lat="43.2587632" lon="11.1828537"><ele>468.0</ele><time>2026-04-04T08:01:49.498Z</time></trkpt><trkpt lat="43.2586732" lon="11.1828511"><ele>468.0</ele><time>2026-04-04T08:01:51.502Z</time></trkpt><trkpt lat="43.2585972" lon="11.1828628"><ele>468.0</ele><time>2026-04-04T08:01:53.494Z</time></trkpt><trkpt lat="43.2585305" lon="11.1828656"><ele>467.4</ele><time>2026-04-04T08:01:56.503Z</time></trkpt><trkpt lat="43.2584617" lon="11.1829005"><ele>466.79999999999995</ele><time>2026-04-04T08:03:10.5Z</time></trkpt><trkpt lat="43.2585489" lon="11.1829157"><ele>466.2</ele><time>2026-04-04T08:03:21.503Z</time></trkpt><trkpt lat="43.2586701" lon="11.1828998"><ele>465.6</ele><time>2026-04-04T08:03:23.491Z</time></trkpt><trkpt lat="43.2587516" lon="11.1828847"><ele>465.0</ele><time>2026-04-04T08:03:24.513Z</time></trkpt><trkpt lat="43.2588379" lon="11.1828663"><ele>465.0</ele><time>2026-04-04T08:03:25.514Z</time></trkpt><trkpt lat="43.2589351" lon="11.1828492"><ele>465.0</ele><time>2026-04-04T08:03:26.512Z</time></trkpt><trkpt lat="43.2590387" lon="11.1828325"><ele>465.0</ele><time>2026-04-04T08:03:27.504Z</time></trkpt><trkpt lat="43.2591413" lon="11.1828056"><ele>465.0</ele><time>2026-04-04T08:03:28.505Z</time></trkpt><trkpt lat="43.2592498" lon="11.1827652"><ele>465.0</ele><time>2026-04-04T08:03:29.501Z</time></trkpt><trkpt lat="43.25936" lon="11.1827123"><ele>465.4</ele><time>2026-04-04T08:03:30.501Z</time></trkpt><trkpt lat="43.2594628" lon="11.1826661"><ele>465.8</ele><time>2026-04-04T08:03:31.498Z</time></trkpt><trkpt lat="43.259559" lon="11.1826317"><ele>466.20000000000005</ele><time>2026-04-04T08:03:32.504Z</time></trkpt><trkpt lat="43.2596478" lon="11.1825999"><ele>466.6</ele><time>2026-04-04T08:03:33.504Z</time></trkpt><trkpt lat="43.2597353" lon="11.1825576"><ele>467.0</ele><time>2026-04-04T08:03:34.513Z</time></trkpt><trkpt lat="43.2598245" lon="11.1825121"><ele>466.99999999999994</ele><time>2026-04-04T08:03:35.509Z</time></trkpt><trkpt lat="43.2599084" lon="11.1824674"><ele>467.0</ele><time>2026-04-04T08:03:36.511Z</time></trkpt><trkpt lat="43.2599885" lon="11.1824304"><ele>467.0</ele><time>2026-04-04T08:03:37.507Z</time></trkpt><trkpt lat="43.2600701" lon="11.1824025"><ele>467.0</ele><time>2026-04-04T08:03:38.507Z</time></trkpt><trkpt lat="43.2601449" lon="11.1823732"><ele>466.99999999999994</ele><time>2026-04-04T08:03:39.498Z</time></trkpt><trkpt lat="43.2602104" lon="11.1823478"><ele>467.0</ele><time>2026-04-04T08:03:40.507Z</time></trkpt><trkpt lat="43.2602718" lon="11.1822999"><ele>466.8333333333333</ele><time>2026-04-04T08:03:41.507Z</time></trkpt><trkpt lat="43.2603294" lon="11.1822437"><ele>466.66666666666663</ele><time>2026-04-04T08:03:42.502Z</time></trkpt><trkpt lat="43.26039" lon="11.1821583"><ele>466.5</ele><time>2026-04-04T08:03:43.508Z</time></trkpt><trkpt lat="43.2604642" lon="11.182067"><ele>466.33333333333337</ele><time>2026-04-04T08:03:44.506Z</time></trkpt><trkpt lat="43.2605292" lon="11.1819935"><ele>466.1666666666667</ele><time>2026-04-04T08:03:45.503Z</time></trkpt><trkpt lat="43.2605945" lon="11.1819277"><ele>466.0</ele><time>2026-04-04T08:03:46.515Z</time></trkpt><trkpt lat="43.2606529" lon="11.181871"><ele>466.0</ele><time>2026-04-04T08:03:47.504Z</time></trkpt><trkpt lat="43.26072" lon="11.1818282"><ele>466.0</ele><time>2026-04-04T08:03:48.517Z</time></trkpt><trkpt lat="43.260804" lon="11.181787"><ele>466.0</ele><time>2026-04-04T08:03:49.505Z</time></trkpt><trkpt lat="43.2608999" lon="11.181755"><ele>466.0</ele><time>2026-04-04T08:03:50.507Z</time></trkpt><trkpt lat="43.2610012" lon="11.1817374"><ele>466.0</ele><time>2026-04-04T08:03:51.508Z</time></trkpt><trkpt lat="43.2611021" lon="11.1817188"><ele>466.00000000000006</ele><time>2026-04-04T08:03:52.503Z</time></trkpt><trkpt lat="43.261184" lon="11.1816956"><ele>466.0</ele><time>2026-04-04T08:03:53.51Z</time></trkpt><trkpt lat="43.261265" lon="11.1816695"><ele>466.0</ele><time>2026-04-04T08:03:54.505Z</time></trkpt><trkpt lat="43.2613363" lon="11.1816443"><ele>466.0</ele><time>2026-04-04T08:03:55.51Z</time></trkpt><trkpt lat="43.2614178" lon="11.1816257"><ele>466.00000000000006</ele><time>2026-04-04T08:03:56.523Z</time></trkpt><trkpt lat="43.2615039" lon="11.1816094"><ele>466.0</ele><time>2026-04-04T08:03:57.506Z</time></trkpt><trkpt lat="43.2615948" lon="11.1815945"><ele>466.33333333333337</ele><time>2026-04-04T08:03:58.504Z</time></trkpt><trkpt lat="43.2616859" lon="11.1815624"><ele>466.6666666666667</ele><time>2026-04-04T08:03:59.512Z</time></trkpt><trkpt lat="43.2617675" lon="11.1815297"><ele>467.0</ele><time>2026-04-04T08:04:00.511Z</time></trkpt><trkpt lat="43.2618459" lon="11.1814945"><ele>467.33333333333337</ele><time>2026-04-04T08:04:01.506Z</time></trkpt><trkpt lat="43.2619171" lon="11.181463"><ele>467.6666666666667</ele><time>2026-04-04T08:04:02.509Z</time></trkpt><trkpt lat="43.2619788" lon="11.1814334"><ele>468.0</ele><time>2026-04-04T08:04:03.502Z</time></trkpt><trkpt lat="43.26208" lon="11.1813826"><ele>468.0</ele><time>2026-04-04T08:04:05.515Z</time></trkpt><trkpt lat="43.2620844" lon="11.1812825"><ele>467.99999999999994</ele><time>2026-04-04T08:04:18.508Z</time></trkpt><trkpt lat="43.2620635" lon="11.1811491"><ele>467.99999999999994</ele><time>2026-04-04T08:04:20.516Z</time></trkpt><trkpt lat="43.262055" lon="11.18097"><ele>468.0</ele><time>2026-04-04T08:04:22.511Z</time></trkpt><trkpt lat="43.2620555" lon="11.180846"><ele>468.0</ele><time>2026-04-04T08:04:23.511Z</time></trkpt><trkpt lat="43.2620484" lon="11.1806965"><ele>468.3333333333333</ele><time>2026-04-04T08:04:24.517Z</time></trkpt><trkpt lat="43.2620429" lon="11.1805836"><ele>468.66666666666663</ele><time>2026-04-04T08:04:25.505Z</time></trkpt><trkpt lat="43.2620343" lon="11.1804879"><ele>469.0</ele><time>2026-04-04T08:04:26.509Z</time></trkpt><trkpt lat="43.2620209" lon="11.1803997"><ele>469.3333333333333</ele><time>2026-04-04T08:04:27.52Z</time></trkpt><trkpt lat="43.2620019" lon="11.1802226"><ele>469.66666666666663</ele><time>2026-04-04T08:04:29.522Z</time></trkpt><trkpt lat="43.2619852" lon="11.1801231"><ele>470.0</ele><time>2026-04-04T08:04:30.525Z</time></trkpt><trkpt lat="43.2619703" lon="11.1800269"><ele>469.99999999999994</ele><time>2026-04-04T08:04:31.526Z</time></trkpt><trkpt lat="43.2619601" lon="11.1799296"><ele>470.0</ele><time>2026-04-04T08:04:32.505Z</time></trkpt><trkpt lat="43.2619541" lon="11.1798347"><ele>470.0</ele><time>2026-04-04T08:04:33.522Z</time></trkpt><trkpt lat="43.2619411" lon="11.1797384"><ele>470.0</ele><time>2026-04-04T08:04:34.521Z</time></trkpt><trkpt lat="43.2619288" lon="11.1795845"><ele>469.99999999999994</ele><time>2026-04-04T08:04:36.515Z</time></trkpt><trkpt lat="43.2619136" lon="11.1794968"><ele>470.0</ele><time>2026-04-04T08:04:37.532Z</time></trkpt><trkpt lat="43.2618922" lon="11.1794095"><ele>470.1428571428571</ele><time>2026-04-04T08:04:38.517Z</time></trkpt><trkpt lat="43.2618549" lon="11.1793135"><ele>470.2857142857142</ele><time>2026-04-04T08:04:39.531Z</time></trkpt><trkpt lat="43.2618198" lon="11.1792157"><ele>470.42857142857144</ele><time>2026-04-04T08:04:40.514Z</time></trkpt><trkpt lat="43.2617942" lon="11.1791217"><ele>470.57142857142856</ele><time>2026-04-04T08:04:41.516Z</time></trkpt><trkpt lat="43.2617762" lon="11.1790372"><ele>470.7142857142857</ele><time>2026-04-04T08:04:42.519Z</time></trkpt><trkpt lat="43.2617671" lon="11.17894"><ele>470.8571428571429</ele><time>2026-04-04T08:04:43.522Z</time></trkpt><trkpt lat="43.2617565" lon="11.178848"><ele>471.00000000000006</ele><time>2026-04-04T08:04:44.525Z</time></trkpt><trkpt lat="43.2617338" lon="11.1787154"><ele>471.0</ele><time>2026-04-04T08:04:46.525Z</time></trkpt><trkpt lat="43.2617131" lon="11.1786214"><ele>471.0</ele><time>2026-04-04T08:05:08.514Z</time></trkpt><trkpt lat="43.2616779" lon="11.1785371"><ele>471.0</ele><time>2026-04-04T08:05:21.517Z</time></trkpt><trkpt lat="43.2616409" lon="11.1784418"><ele>471.0</ele><time>2026-04-04T08:05:25.503Z</time></trkpt><trkpt lat="43.2615962" lon="11.1783611"><ele>471.0</ele><time>2026-04-04T08:05:28.516Z</time></trkpt><trkpt lat="43.2615624" lon="11.1782773"><ele>471.0</ele><time>2026-04-04T08:05:30.524Z</time></trkpt><trkpt lat="43.2615022" lon="11.1781818"><ele>471.3333333333333</ele><time>2026-04-04T08:05:33.516Z</time></trkpt><trkpt lat="43.2614607" lon="11.1781065"><ele>471.66666666666663</ele><time>2026-04-04T08:05:35.517Z</time></trkpt><trkpt lat="43.2614057" lon="11.1779964"><ele>472.0</ele><time>2026-04-04T08:05:37.526Z</time></trkpt><trkpt lat="43.2613387" lon="11.1778622"><ele>472.3333333333333</ele><time>2026-04-04T08:05:39.515Z</time></trkpt><trkpt lat="43.2613039" lon="11.1777803"><ele>472.66666666666663</ele><time>2026-04-04T08:05:40.516Z</time></trkpt><trkpt lat="43.2612704" lon="11.1776919"><ele>473.0</ele><time>2026-04-04T08:05:41.51Z</time></trkpt><trkpt lat="43.2612379" lon="11.1776092"><ele>473.4</ele><time>2026-04-04T08:05:42.525Z</time></trkpt><trkpt lat="43.2612088" lon="11.1775289"><ele>473.79999999999995</ele><time>2026-04-04T08:05:43.516Z</time></trkpt><trkpt lat="43.2611469" lon="11.1773808"><ele>474.2</ele><time>2026-04-04T08:05:45.518Z</time></trkpt><trkpt lat="43.2611027" lon="11.1772542"><ele>474.6</ele><time>2026-04-04T08:05:47.518Z</time></trkpt><trkpt lat="43.2610764" lon="11.1771625"><ele>475.0</ele><time>2026-04-04T08:05:49.526Z</time></trkpt><trkpt lat="43.2610142" lon="11.1770723"><ele>473.1666666666667</ele><time>2026-04-04T08:05:59.518Z</time></trkpt><trkpt lat="43.2609679" lon="11.1769988"><ele>471.33333333333337</ele><time>2026-04-04T08:06:01.506Z</time></trkpt><trkpt lat="43.2609289" lon="11.1769137"><ele>469.5</ele><time>2026-04-04T08:06:08.526Z</time></trkpt><trkpt lat="43.2608812" lon="11.176779"><ele>467.66666666666663</ele><time>2026-04-04T08:06:11.511Z</time></trkpt><trkpt lat="43.2608428" lon="11.1766728"><ele>465.8333333333333</ele><time>2026-04-04T08:06:13.461Z</time></trkpt><trkpt lat="43.2608174" lon="11.1765495"><ele>464.0</ele><time>2026-04-04T08:06:14.511Z</time></trkpt><trkpt lat="43.260789" lon="11.1764408"><ele>463.0</ele><time>2026-04-04T08:06:15.496Z</time></trkpt><trkpt lat="43.2607604" lon="11.1763527"><ele>462.0</ele><time>2026-04-04T08:06:16.524Z</time></trkpt><trkpt lat="43.2606945" lon="11.1762053"><ele>461.0</ele><time>2026-04-04T08:06:18.511Z</time></trkpt><trkpt lat="43.2606236" lon="11.1760814"><ele>460.0</ele><time>2026-04-04T08:06:20.508Z</time></trkpt><trkpt lat="43.2605518" lon="11.17596"><ele>459.0</ele><time>2026-04-04T08:06:22.508Z</time></trkpt><trkpt lat="43.2604919" lon="11.1758455"><ele>458.57142857142856</ele><time>2026-04-04T08:06:24.506Z</time></trkpt><trkpt lat="43.2604289" lon="11.1757521"><ele>458.1428571428571</ele><time>2026-04-04T08:06:26.509Z</time></trkpt><trkpt lat="43.2603758" lon="11.1756856"><ele>457.71428571428567</ele><time>2026-04-04T08:06:28.504Z</time></trkpt><trkpt lat="43.2603265" lon="11.1756228"><ele>457.2857142857143</ele><time>2026-04-04T08:06:30.501Z</time></trkpt><trkpt lat="43.2602764" lon="11.1755678"><ele>456.8571428571428</ele><time>2026-04-04T08:06:32.51Z</time></trkpt><trkpt lat="43.2602223" lon="11.1755125"><ele>456.4285714285714</ele><time>2026-04-04T08:06:34.496Z</time></trkpt><trkpt lat="43.260165" lon="11.1754455"><ele>456.0</ele><time>2026-04-04T08:06:36.514Z</time></trkpt><trkpt lat="43.2601018" lon="11.1753639"><ele>454.8333333333333</ele><time>2026-04-04T08:06:38.516Z</time></trkpt><trkpt lat="43.2600282" lon="11.1752561"><ele>453.66666666666663</ele><time>2026-04-04T08:06:40.518Z</time></trkpt><trkpt lat="43.2599769" lon="11.1751791"><ele>452.5</ele><time>2026-04-04T08:06:42.502Z</time></trkpt><trkpt lat="43.2599306" lon="11.1751154"><ele>451.3333333333333</ele><time>2026-04-04T08:06:44.501Z</time></trkpt><trkpt lat="43.2598617" lon="11.1750397"><ele>450.16666666666663</ele><time>2026-04-04T08:06:46.506Z</time></trkpt><trkpt lat="43.2598006" lon="11.1749705"><ele>449.0</ele><time>2026-04-04T08:06:48.512Z</time></trkpt><trkpt lat="43.2597468" lon="11.1748937"><ele>445.8333333333333</ele><time>2026-04-04T08:06:50.505Z</time></trkpt><trkpt lat="43.2597054" lon="11.1748262"><ele>442.66666666666663</ele><time>2026-04-04T08:06:52.516Z</time></trkpt><trkpt lat="43.259669" lon="11.1747501"><ele>439.5</ele><time>2026-04-04T08:06:54.509Z</time></trkpt><trkpt lat="43.2596327" lon="11.1746576"><ele>436.33333333333337</ele><time>2026-04-04T08:06:56.503Z</time></trkpt><trkpt lat="43.2595977" lon="11.1745653"><ele>433.1666666666667</ele><time>2026-04-04T08:06:58.503Z</time></trkpt><trkpt lat="43.2595474" lon="11.1744638"><ele>430.0</ele><time>2026-04-04T08:07:00.513Z</time></trkpt><trkpt lat="43.2594957" lon="11.1743573"><ele>430.00000000000006</ele><time>2026-04-04T08:07:02.502Z</time></trkpt><trkpt lat="43.2594403" lon="11.1742677"><ele>430.0</ele><time>2026-04-04T08:07:04.506Z</time></trkpt><trkpt lat="43.2594038" lon="11.1741688"><ele>430.0</ele><time>2026-04-04T08:07:06.501Z</time></trkpt><trkpt lat="43.2593646" lon="11.1740689"><ele>430.0</ele><time>2026-04-04T08:07:08.508Z</time></trkpt><trkpt lat="43.2593253" lon="11.1739647"><ele>430.00000000000006</ele><time>2026-04-04T08:07:10.507Z</time></trkpt><trkpt lat="43.2592862" lon="11.1738528"><ele>430.0</ele><time>2026-04-04T08:07:12.525Z</time></trkpt><trkpt lat="43.2592396" lon="11.1737456"><ele>426.4</ele><time>2026-04-04T08:07:14.51Z</time></trkpt><trkpt lat="43.2591862" lon="11.1736183"><ele>422.8</ele><time>2026-04-04T08:07:16.515Z</time></trkpt><trkpt lat="43.2591471" lon="11.1735261"><ele>419.20000000000005</ele><time>2026-04-04T08:07:18.494Z</time></trkpt><trkpt lat="43.2590958" lon="11.1734109"><ele>415.6</ele><time>2026-04-04T08:07:20.51Z</time></trkpt><trkpt lat="43.2590807" lon="11.1732725"><ele>412.0</ele><time>2026-04-04T08:07:22.504Z</time></trkpt><trkpt lat="43.2590723" lon="11.1731357"><ele>409.6</ele><time>2026-04-04T08:07:24.503Z</time></trkpt><trkpt lat="43.2590863" lon="11.172982"><ele>407.20000000000005</ele><time>2026-04-04T08:07:26.512Z</time></trkpt><trkpt lat="43.2590791" lon="11.1728275"><ele>404.8</ele><time>2026-04-04T08:07:28.507Z</time></trkpt><trkpt lat="43.2590359" lon="11.1727078"><ele>402.4</ele><time>2026-04-04T08:07:30.502Z</time></trkpt><trkpt lat="43.2589972" lon="11.1725929"><ele>400.0</ele><time>2026-04-04T08:07:32.506Z</time></trkpt><trkpt lat="43.2589568" lon="11.1724891"><ele>401.00000000000006</ele><time>2026-04-04T08:07:34.502Z</time></trkpt><trkpt lat="43.2589117" lon="11.1724059"><ele>402.0</ele><time>2026-04-04T08:07:36.493Z</time></trkpt><trkpt lat="43.258888" lon="11.1723246"><ele>403.0</ele><time>2026-04-04T08:07:38.506Z</time></trkpt><trkpt lat="43.2588534" lon="11.1722477"><ele>404.0</ele><time>2026-04-04T08:07:40.505Z</time></trkpt><trkpt lat="43.2588197" lon="11.1721398"><ele>405.0</ele><time>2026-04-04T08:07:43.515Z</time></trkpt><trkpt lat="43.2587647" lon="11.1720645"><ele>406.00000000000006</ele><time>2026-04-04T08:07:46.506Z</time></trkpt><trkpt lat="43.2587142" lon="11.1720091"><ele>407.0</ele><time>2026-04-04T08:07:48.516Z</time></trkpt><trkpt lat="43.2586781" lon="11.1719321"><ele>404.66666666666663</ele><time>2026-04-04T08:07:50.508Z</time></trkpt><trkpt lat="43.2586537" lon="11.1718338"><ele>402.3333333333333</ele><time>2026-04-04T08:07:52.507Z</time></trkpt><trkpt lat="43.2585968" lon="11.1716659"><ele>400.0</ele><time>2026-04-04T08:07:54.505Z</time></trkpt><trkpt lat="43.2585544" lon="11.1715848"><ele>397.66666666666663</ele><time>2026-04-04T08:07:55.518Z</time></trkpt><trkpt lat="43.258509" lon="11.1715094"><ele>395.3333333333333</ele><time>2026-04-04T08:07:56.515Z</time></trkpt><trkpt lat="43.2584571" lon="11.1714318"><ele>393.0</ele><time>2026-04-04T08:07:57.518Z</time></trkpt><trkpt lat="43.2584118" lon="11.1713523"><ele>391.7142857142857</ele><time>2026-04-04T08:07:58.514Z</time></trkpt><trkpt lat="43.2583683" lon="11.1712677"><ele>390.42857142857144</ele><time>2026-04-04T08:07:59.513Z</time></trkpt><trkpt lat="43.2583289" lon="11.1711807"><ele>389.1428571428571</ele><time>2026-04-04T08:08:00.516Z</time></trkpt><trkpt lat="43.2582888" lon="11.1710997"><ele>387.8571428571429</ele><time>2026-04-04T08:08:01.509Z</time></trkpt><trkpt lat="43.258248" lon="11.1710136"><ele>386.57142857142856</ele><time>2026-04-04T08:08:02.524Z</time></trkpt><trkpt lat="43.2582098" lon="11.1709252"><ele>385.2857142857143</ele><time>2026-04-04T08:08:03.51Z</time></trkpt><trkpt lat="43.2581785" lon="11.1708375"><ele>384.0</ele><time>2026-04-04T08:08:04.509Z</time></trkpt><trkpt lat="43.2581262" lon="11.1707307"><ele>383.5</ele><time>2026-04-04T08:08:06.513Z</time></trkpt><trkpt lat="43.2580889" lon="11.1706516"><ele>383.0</ele><time>2026-04-04T08:08:08.506Z</time></trkpt><trkpt lat="43.2580525" lon="11.170577"><ele>382.5</ele><time>2026-04-04T08:08:10.506Z</time></trkpt><trkpt lat="43.2580026" lon="11.1704817"><ele>382.0</ele><time>2026-04-04T08:08:12.513Z</time></trkpt><trkpt lat="43.2579462" lon="11.170382"><ele>381.5</ele><time>2026-04-04T08:08:14.515Z</time></trkpt><trkpt lat="43.2578835" lon="11.1702868"><ele>381.0</ele><time>2026-04-04T08:08:16.514Z</time></trkpt><trkpt lat="43.2578076" lon="11.1701745"><ele>381.0</ele><time>2026-04-04T08:08:18.499Z</time></trkpt><trkpt lat="43.2577271" lon="11.1700454"><ele>381.0</ele><time>2026-04-04T08:08:20.506Z</time></trkpt><trkpt lat="43.2576713" lon="11.169952"><ele>381.0</ele><time>2026-04-04T08:08:21.51Z</time></trkpt><trkpt lat="43.2576223" lon="11.1698421"><ele>381.0</ele><time>2026-04-04T08:08:22.517Z</time></trkpt><trkpt lat="43.2575857" lon="11.169714"><ele>381.0</ele><time>2026-04-04T08:08:23.505Z</time></trkpt><trkpt lat="43.2575437" lon="11.1695927"><ele>380.4</ele><time>2026-04-04T08:08:24.531Z</time></trkpt><trkpt lat="43.2575048" lon="11.1694709"><ele>379.8</ele><time>2026-04-04T08:08:25.509Z</time></trkpt><trkpt lat="43.2574637" lon="11.1693528"><ele>379.2</ele><time>2026-04-04T08:08:26.508Z</time></trkpt><trkpt lat="43.2574234" lon="11.1692387"><ele>378.59999999999997</ele><time>2026-04-04T08:08:27.508Z</time></trkpt><trkpt lat="43.2573754" lon="11.1691365"><ele>378.0</ele><time>2026-04-04T08:08:28.511Z</time></trkpt><trkpt lat="43.2573305" lon="11.1690355"><ele>377.6666666666667</ele><time>2026-04-04T08:08:29.524Z</time></trkpt><trkpt lat="43.257286" lon="11.1689295"><ele>377.3333333333333</ele><time>2026-04-04T08:08:30.514Z</time></trkpt><trkpt lat="43.2572484" lon="11.1688234"><ele>377.0</ele><time>2026-04-04T08:08:31.505Z</time></trkpt><trkpt lat="43.2572138" lon="11.1687112"><ele>376.66666666666663</ele><time>2026-04-04T08:08:32.518Z</time></trkpt><trkpt lat="43.2571779" lon="11.1685957"><ele>376.3333333333333</ele><time>2026-04-04T08:08:33.493Z</time></trkpt><trkpt lat="43.257142" lon="11.1684891"><ele>376.0</ele><time>2026-04-04T08:08:34.511Z</time></trkpt><trkpt lat="43.2570962" lon="11.168377"><ele>374.20000000000005</ele><time>2026-04-04T08:08:35.518Z</time></trkpt><trkpt lat="43.2570545" lon="11.1682505"><ele>372.40000000000003</ele><time>2026-04-04T08:08:36.513Z</time></trkpt><trkpt lat="43.2570313" lon="11.1681313"><ele>370.6</ele><time>2026-04-04T08:08:37.508Z</time></trkpt><trkpt lat="43.256992" lon="11.1680093"><ele>368.8</ele><time>2026-04-04T08:08:38.499Z</time></trkpt><trkpt lat="43.2569586" lon="11.1678922"><ele>367.0</ele><time>2026-04-04T08:08:39.502Z</time></trkpt><trkpt lat="43.2569122" lon="11.1677838"><ele>364.5</ele><time>2026-04-04T08:08:40.507Z</time></trkpt><trkpt lat="43.2568713" lon="11.1676729"><ele>362.0</ele><time>2026-04-04T08:08:41.512Z</time></trkpt><trkpt lat="43.2568301" lon="11.1675703"><ele>359.5</ele><time>2026-04-04T08:08:42.499Z</time></trkpt><trkpt lat="43.2567876" lon="11.1674656"><ele>357.0</ele><time>2026-04-04T08:08:43.514Z</time></trkpt><trkpt lat="43.2567535" lon="11.1673538"><ele>354.5</ele><time>2026-04-04T08:08:44.51Z</time></trkpt><trkpt lat="43.2567179" lon="11.1672525"><ele>352.0</ele><time>2026-04-04T08:08:45.52Z</time></trkpt><trkpt lat="43.2566799" lon="11.1671472"><ele>351.3333333333333</ele><time>2026-04-04T08:08:46.507Z</time></trkpt><trkpt lat="43.2566369" lon="11.1670327"><ele>350.66666666666663</ele><time>2026-04-04T08:08:47.503Z</time></trkpt><trkpt lat="43.2566088" lon="11.1669228"><ele>350.0</ele><time>2026-04-04T08:08:48.521Z</time></trkpt><trkpt lat="43.2565752" lon="11.1668163"><ele>349.3333333333333</ele><time>2026-04-04T08:08:49.508Z</time></trkpt><trkpt lat="43.2565394" lon="11.1667056"><ele>348.6666666666667</ele><time>2026-04-04T08:08:50.509Z</time></trkpt><trkpt lat="43.2565037" lon="11.1665875"><ele>348.0</ele><time>2026-04-04T08:08:51.507Z</time></trkpt><trkpt lat="43.2564613" lon="11.1664712"><ele>346.0</ele><time>2026-04-04T08:08:52.507Z</time></trkpt><trkpt lat="43.256421" lon="11.1663665"><ele>344.0</ele><time>2026-04-04T08:08:53.512Z</time></trkpt><trkpt lat="43.2563732" lon="11.1662724"><ele>342.0</ele><time>2026-04-04T08:08:54.51Z</time></trkpt><trkpt lat="43.2563258" lon="11.1661761"><ele>340.0</ele><time>2026-04-04T08:08:55.517Z</time></trkpt><trkpt lat="43.2562786" lon="11.1660816"><ele>338.0</ele><time>2026-04-04T08:08:56.518Z</time></trkpt><trkpt lat="43.2562266" lon="11.165992"><ele>336.0</ele><time>2026-04-04T08:08:57.519Z</time></trkpt><trkpt lat="43.2561772" lon="11.1659036"><ele>336.0</ele><time>2026-04-04T08:08:58.52Z</time></trkpt><trkpt lat="43.2561196" lon="11.1658204"><ele>336.0</ele><time>2026-04-04T08:08:59.515Z</time></trkpt><trkpt lat="43.2560558" lon="11.165747"><ele>336.0</ele><time>2026-04-04T08:09:00.514Z</time></trkpt><trkpt lat="43.255988" lon="11.1656839"><ele>336.0</ele><time>2026-04-04T08:09:01.5Z</time></trkpt><trkpt lat="43.255915" lon="11.1656239"><ele>336.0</ele><time>2026-04-04T08:09:02.523Z</time></trkpt><trkpt lat="43.2558365" lon="11.1655634"><ele>336.0</ele><time>2026-04-04T08:09:03.516Z</time></trkpt><trkpt lat="43.2557541" lon="11.1655039"><ele>335.5</ele><time>2026-04-04T08:09:04.517Z</time></trkpt><trkpt lat="43.2556778" lon="11.1654479"><ele>335.0</ele><time>2026-04-04T08:09:05.513Z</time></trkpt><trkpt lat="43.2556043" lon="11.1653917"><ele>334.5</ele><time>2026-04-04T08:09:06.513Z</time></trkpt><trkpt lat="43.2555371" lon="11.1653381"><ele>334.0</ele><time>2026-04-04T08:09:07.511Z</time></trkpt><trkpt lat="43.2554677" lon="11.165287"><ele>333.5</ele><time>2026-04-04T08:09:08.513Z</time></trkpt><trkpt lat="43.2554025" lon="11.1652316"><ele>333.0</ele><time>2026-04-04T08:09:09.507Z</time></trkpt><trkpt lat="43.2553432" lon="11.1651739"><ele>332.1666666666667</ele><time>2026-04-04T08:09:10.497Z</time></trkpt><trkpt lat="43.2552804" lon="11.1651005"><ele>331.3333333333333</ele><time>2026-04-04T08:09:11.508Z</time></trkpt><trkpt lat="43.2552167" lon="11.1650287"><ele>330.5</ele><time>2026-04-04T08:09:12.507Z</time></trkpt><trkpt lat="43.2551489" lon="11.1649686"><ele>329.66666666666663</ele><time>2026-04-04T08:09:13.504Z</time></trkpt><trkpt lat="43.2550775" lon="11.1649245"><ele>328.8333333333333</ele><time>2026-04-04T08:09:14.493Z</time></trkpt><trkpt lat="43.2549949" lon="11.1648856"><ele>328.0</ele><time>2026-04-04T08:09:15.502Z</time></trkpt><trkpt lat="43.2549102" lon="11.1648549"><ele>328.0</ele><time>2026-04-04T08:09:16.501Z</time></trkpt><trkpt lat="43.2548396" lon="11.1648136"><ele>328.0</ele><time>2026-04-04T08:09:17.5Z</time></trkpt><trkpt lat="43.2547666" lon="11.1647488"><ele>328.0</ele><time>2026-04-04T08:09:18.523Z</time></trkpt><trkpt lat="43.2547066" lon="11.1646857"><ele>328.0</ele><time>2026-04-04T08:09:19.507Z</time></trkpt><trkpt lat="43.2546459" lon="11.1646187"><ele>328.0</ele><time>2026-04-04T08:09:20.502Z</time></trkpt><trkpt lat="43.2545922" lon="11.16454"><ele>328.0</ele><time>2026-04-04T08:09:21.503Z</time></trkpt><trkpt lat="43.2545355" lon="11.1644772"><ele>327.0</ele><time>2026-04-04T08:09:22.503Z</time></trkpt><trkpt lat="43.2544532" lon="11.1643916"><ele>326.0</ele><time>2026-04-04T08:09:24.5Z</time></trkpt><trkpt lat="43.254402" lon="11.1643166"><ele>325.0</ele><time>2026-04-04T08:09:26.505Z</time></trkpt><trkpt lat="43.2543916" lon="11.1642307"><ele>324.0</ele><time>2026-04-04T08:09:28.505Z</time></trkpt><trkpt lat="43.2544233" lon="11.1640867"><ele>323.0</ele><time>2026-04-04T08:09:30.5Z</time></trkpt><trkpt lat="43.2544537" lon="11.1639984"><ele>322.0</ele><time>2026-04-04T08:09:31.5Z</time></trkpt><trkpt lat="43.2544828" lon="11.163908"><ele>321.5</ele><time>2026-04-04T08:09:32.503Z</time></trkpt><trkpt lat="43.2545142" lon="11.1638151"><ele>321.0</ele><time>2026-04-04T08:09:33.511Z</time></trkpt><trkpt lat="43.2545456" lon="11.1637096"><ele>320.5</ele><time>2026-04-04T08:09:34.497Z</time></trkpt><trkpt lat="43.2545699" lon="11.1636038"><ele>320.0</ele><time>2026-04-04T08:09:35.5Z</time></trkpt><trkpt lat="43.2545963" lon="11.1635083"><ele>319.5</ele><time>2026-04-04T08:09:36.497Z</time></trkpt><trkpt lat="43.2546179" lon="11.1634149"><ele>319.0</ele><time>2026-04-04T08:09:37.498Z</time></trkpt><trkpt lat="43.2546369" lon="11.1633201"><ele>319.0</ele><time>2026-04-04T08:09:38.499Z</time></trkpt><trkpt lat="43.2546614" lon="11.1632333"><ele>319.0</ele><time>2026-04-04T08:09:39.499Z</time></trkpt><trkpt lat="43.2546833" lon="11.1631364"><ele>319.0</ele><time>2026-04-04T08:09:40.496Z</time></trkpt><trkpt lat="43.2546976" lon="11.1630486"><ele>319.0</ele><time>2026-04-04T08:09:41.508Z</time></trkpt><trkpt lat="43.2547381" lon="11.1628889"><ele>319.0</ele><time>2026-04-04T08:09:43.516Z</time></trkpt><trkpt lat="43.2547865" lon="11.1627356"><ele>318.8571428571429</ele><time>2026-04-04T08:09:45.513Z</time></trkpt><trkpt lat="43.2548194" lon="11.1626528"><ele>318.71428571428567</ele><time>2026-04-04T08:09:46.523Z</time></trkpt><trkpt lat="43.254854" lon="11.1625745"><ele>318.57142857142856</ele><time>2026-04-04T08:09:47.524Z</time></trkpt><trkpt lat="43.2548874" lon="11.1624925"><ele>318.42857142857144</ele><time>2026-04-04T08:09:48.507Z</time></trkpt><trkpt lat="43.2549268" lon="11.1624054"><ele>318.28571428571433</ele><time>2026-04-04T08:09:49.525Z</time></trkpt><trkpt lat="43.2549633" lon="11.162328"><ele>318.1428571428571</ele><time>2026-04-04T08:09:50.515Z</time></trkpt><trkpt lat="43.2550047" lon="11.1622514"><ele>318.0</ele><time>2026-04-04T08:09:51.524Z</time></trkpt><trkpt lat="43.2550493" lon="11.162169"><ele>317.0</ele><time>2026-04-04T08:09:52.516Z</time></trkpt><trkpt lat="43.2550925" lon="11.1620816"><ele>316.0</ele><time>2026-04-04T08:09:53.516Z</time></trkpt><trkpt lat="43.2551228" lon="11.1619955"><ele>315.0</ele><time>2026-04-04T08:09:54.515Z</time></trkpt><trkpt lat="43.2551804" lon="11.1618952"><ele>314.0</ele><time>2026-04-04T08:09:56.516Z</time></trkpt><trkpt lat="43.2552168" lon="11.1618137"><ele>313.0</ele><time>2026-04-04T08:11:23.513Z</time></trkpt><trkpt lat="43.2552823" lon="11.1616863"><ele>312.0</ele><time>2026-04-04T08:11:25.499Z</time></trkpt><trkpt lat="43.2553474" lon="11.1615503"><ele>312.0</ele><time>2026-04-04T08:11:27.513Z</time></trkpt><trkpt lat="43.2553508" lon="11.1614578"><ele>312.0</ele><time>2026-04-04T08:11:30.513Z</time></trkpt><trkpt lat="43.2552555" lon="11.1614362"><ele>312.0</ele><time>2026-04-04T08:11:41.512Z</time></trkpt><trkpt lat="43.2551862" lon="11.16149"><ele>312.0</ele><time>2026-04-04T08:11:42.508Z</time></trkpt><trkpt lat="43.2550818" lon="11.1615748"><ele>312.0</ele><time>2026-04-04T08:11:43.506Z</time></trkpt><trkpt lat="43.2549781" lon="11.1616656"><ele>312.0</ele><time>2026-04-04T08:11:44.524Z</time></trkpt><trkpt lat="43.2548549" lon="11.1617683"><ele>312.0</ele><time>2026-04-04T08:11:45.513Z</time></trkpt><trkpt lat="43.2547232" lon="11.1618699"><ele>312.0</ele><time>2026-04-04T08:11:46.53Z</time></trkpt><trkpt lat="43.2545655" lon="11.1619836"><ele>311.6666666666667</ele><time>2026-04-04T08:11:47.515Z</time></trkpt><trkpt lat="43.254402" lon="11.1621278"><ele>311.33333333333337</ele><time>2026-04-04T08:11:48.511Z</time></trkpt><trkpt lat="43.2542237" lon="11.16226"><ele>311.0</ele><time>2026-04-04T08:11:49.501Z</time></trkpt><trkpt lat="43.2540384" lon="11.162401"><ele>311.0</ele><time>2026-04-04T08:11:50.508Z</time></trkpt><trkpt lat="43.253846" lon="11.1625501"><ele>311.0</ele><time>2026-04-04T08:11:51.504Z</time></trkpt><trkpt lat="43.2536544" lon="11.1626947"><ele>311.0</ele><time>2026-04-04T08:11:52.51Z</time></trkpt><trkpt lat="43.2534699" lon="11.1628356"><ele>311.0</ele><time>2026-04-04T08:11:53.506Z</time></trkpt><trkpt lat="43.2533075" lon="11.1629661"><ele>311.0</ele><time>2026-04-04T08:11:54.512Z</time></trkpt><trkpt lat="43.253156" lon="11.1631043"><ele>311.0</ele><time>2026-04-04T08:11:55.506Z</time></trkpt><trkpt lat="43.253023" lon="11.16326"><ele>313.33333333333337</ele><time>2026-04-04T08:11:56.505Z</time></trkpt><trkpt lat="43.252915" lon="11.1634311"><ele>315.6666666666667</ele><time>2026-04-04T08:11:57.512Z</time></trkpt><trkpt lat="43.2528309" lon="11.1636369"><ele>318.0</ele><time>2026-04-04T08:11:58.506Z</time></trkpt><trkpt lat="43.2527734" lon="11.1638785"><ele>316.0</ele><time>2026-04-04T08:11:59.51Z</time></trkpt><trkpt lat="43.2527414" lon="11.1641406"><ele>314.0</ele><time>2026-04-04T08:12:00.507Z</time></trkpt><trkpt lat="43.252714" lon="11.1644252"><ele>312.0</ele><time>2026-04-04T08:12:01.499Z</time></trkpt><trkpt lat="43.2526834" lon="11.1647065"><ele>310.6666666666667</ele><time>2026-04-04T08:12:02.514Z</time></trkpt><trkpt lat="43.252648" lon="11.1649781"><ele>309.33333333333337</ele><time>2026-04-04T08:12:03.505Z</time></trkpt><trkpt lat="43.2526132" lon="11.1652248"><ele>308.0</ele><time>2026-04-04T08:12:04.512Z</time></trkpt><trkpt lat="43.2525851" lon="11.1654584"><ele>308.0</ele><time>2026-04-04T08:12:05.515Z</time></trkpt><trkpt lat="43.2525347" lon="11.1656858"><ele>308.0</ele><time>2026-04-04T08:12:06.503Z</time></trkpt><trkpt lat="43.2524635" lon="11.1659015"><ele>308.0</ele><time>2026-04-04T08:12:07.498Z</time></trkpt><trkpt lat="43.2523563" lon="11.1661016"><ele>308.6666666666667</ele><time>2026-04-04T08:12:08.501Z</time></trkpt><trkpt lat="43.2522385" lon="11.1662809"><ele>309.3333333333333</ele><time>2026-04-04T08:12:09.492Z</time></trkpt><trkpt lat="43.2521118" lon="11.1664592"><ele>310.0</ele><time>2026-04-04T08:12:10.498Z</time></trkpt><trkpt lat="43.2519861" lon="11.1666348"><ele>310.0</ele><time>2026-04-04T08:12:11.513Z</time></trkpt><trkpt lat="43.2518582" lon="11.1668085"><ele>310.0</ele><time>2026-04-04T08:12:12.512Z</time></trkpt><trkpt lat="43.2517222" lon="11.1669667"><ele>310.0</ele><time>2026-04-04T08:12:13.516Z</time></trkpt><trkpt lat="43.2515825" lon="11.1671275"><ele>310.0</ele><time>2026-04-04T08:12:14.515Z</time></trkpt><trkpt lat="43.2514296" lon="11.1672562"><ele>310.0</ele><time>2026-04-04T08:12:15.524Z</time></trkpt><trkpt lat="43.251265" lon="11.1673673"><ele>310.0</ele><time>2026-04-04T08:12:16.511Z</time></trkpt><trkpt lat="43.2510927" lon="11.1674764"><ele>310.0</ele><time>2026-04-04T08:12:17.514Z</time></trkpt><trkpt lat="43.2509172" lon="11.167593"><ele>310.0</ele><time>2026-04-04T08:12:18.514Z</time></trkpt><trkpt lat="43.2507337" lon="11.1677039"><ele>310.0</ele><time>2026-04-04T08:12:19.517Z</time></trkpt><trkpt lat="43.2505591" lon="11.1678111"><ele>309.0</ele><time>2026-04-04T08:12:20.502Z</time></trkpt><trkpt lat="43.250383" lon="11.1679265"><ele>308.0</ele><time>2026-04-04T08:12:21.522Z</time></trkpt><trkpt lat="43.2502153" lon="11.1680389"><ele>307.0</ele><time>2026-04-04T08:12:22.506Z</time></trkpt><trkpt lat="43.2500483" lon="11.1681483"><ele>307.3333333333333</ele><time>2026-04-04T08:12:23.502Z</time></trkpt><trkpt lat="43.2498776" lon="11.168249"><ele>307.6666666666667</ele><time>2026-04-04T08:12:24.503Z</time></trkpt><trkpt lat="43.2497055" lon="11.1683316"><ele>308.0</ele><time>2026-04-04T08:12:25.512Z</time></trkpt><trkpt lat="43.2495391" lon="11.1683983"><ele>307.33333333333337</ele><time>2026-04-04T08:12:26.51Z</time></trkpt><trkpt lat="43.2493797" lon="11.168447"><ele>306.6666666666667</ele><time>2026-04-04T08:12:27.507Z</time></trkpt><trkpt lat="43.2492148" lon="11.168492"><ele>306.0</ele><time>2026-04-04T08:12:28.511Z</time></trkpt><trkpt lat="43.2490474" lon="11.1685515"><ele>304.6666666666667</ele><time>2026-04-04T08:12:29.519Z</time></trkpt><trkpt lat="43.248882" lon="11.1686271"><ele>303.33333333333337</ele><time>2026-04-04T08:12:30.528Z</time></trkpt><trkpt lat="43.2487213" lon="11.1687176"><ele>302.0</ele><time>2026-04-04T08:12:31.522Z</time></trkpt><trkpt lat="43.2485622" lon="11.1688213"><ele>302.0</ele><time>2026-04-04T08:12:32.502Z</time></trkpt><trkpt lat="43.2484051" lon="11.168927"><ele>302.0</ele><time>2026-04-04T08:12:33.509Z</time></trkpt><trkpt lat="43.2482471" lon="11.1690468"><ele>302.0</ele><time>2026-04-04T08:12:34.503Z</time></trkpt><trkpt lat="43.2480962" lon="11.1691854"><ele>302.6666666666667</ele><time>2026-04-04T08:12:35.523Z</time></trkpt><trkpt lat="43.2479633" lon="11.1693426"><ele>303.3333333333333</ele><time>2026-04-04T08:12:36.496Z</time></trkpt><trkpt lat="43.2478265" lon="11.1695091"><ele>304.0</ele><time>2026-04-04T08:12:37.5Z</time></trkpt><trkpt lat="43.2476918" lon="11.1696808"><ele>304.0</ele><time>2026-04-04T08:12:38.502Z</time></trkpt><trkpt lat="43.2475575" lon="11.1698514"><ele>304.0</ele><time>2026-04-04T08:12:39.502Z</time></trkpt><trkpt lat="43.2474358" lon="11.170003"><ele>304.0</ele><time>2026-04-04T08:12:40.501Z</time></trkpt><trkpt lat="43.2473379" lon="11.1701374"><ele>303.66666666666663</ele><time>2026-04-04T08:12:41.506Z</time></trkpt><trkpt lat="43.2472661" lon="11.1702251"><ele>303.3333333333333</ele><time>2026-04-04T08:12:42.504Z</time></trkpt><trkpt lat="43.2472109" lon="11.1702982"><ele>303.0</ele><time>2026-04-04T08:12:43.505Z</time></trkpt><trkpt lat="43.247151" lon="11.1703566"><ele>302.6666666666667</ele><time>2026-04-04T08:12:44.502Z</time></trkpt><trkpt lat="43.2470673" lon="11.1703954"><ele>302.33333333333337</ele><time>2026-04-04T08:12:46.515Z</time></trkpt><trkpt lat="43.2469869" lon="11.1703448"><ele>302.0</ele><time>2026-04-04T08:12:48.494Z</time></trkpt><trkpt lat="43.2469247" lon="11.1702377"><ele>302.0</ele><time>2026-04-04T08:12:50.521Z</time></trkpt><trkpt lat="43.2468592" lon="11.1701068"><ele>302.0</ele><time>2026-04-04T08:12:52.518Z</time></trkpt><trkpt lat="43.2467767" lon="11.1700204"><ele>302.0</ele><time>2026-04-04T08:12:54.521Z</time></trkpt><trkpt lat="43.2466999" lon="11.1699539"><ele>302.0</ele><time>2026-04-04T08:12:57.518Z</time></trkpt><trkpt lat="43.2466405" lon="11.1699159"><ele>302.0</ele><time>2026-04-04T08:12:59.522Z</time></trkpt><trkpt lat="43.2465719" lon="11.1698833"><ele>302.0</ele><time>2026-04-04T08:13:02.511Z</time></trkpt><trkpt lat="43.2465054" lon="11.1698515"><ele>303.0</ele><time>2026-04-04T08:13:04.518Z</time></trkpt><trkpt lat="43.246379" lon="11.1698009"><ele>304.0</ele><time>2026-04-04T08:13:06.514Z</time></trkpt><trkpt lat="43.2463072" lon="11.169766"><ele>305.0</ele><time>2026-04-04T08:13:07.528Z</time></trkpt><trkpt lat="43.2462406" lon="11.1697308"><ele>306.0</ele><time>2026-04-04T08:13:08.52Z</time></trkpt><trkpt lat="43.2461663" lon="11.1696833"><ele>307.0</ele><time>2026-04-04T08:13:09.521Z</time></trkpt><trkpt lat="43.2460966" lon="11.1696344"><ele>308.0</ele><time>2026-04-04T08:13:10.503Z</time></trkpt><trkpt lat="43.2460372" lon="11.1695802"><ele>308.0</ele><time>2026-04-04T08:13:11.513Z</time></trkpt><trkpt lat="43.2459775" lon="11.1695206"><ele>308.0</ele><time>2026-04-04T08:13:12.522Z</time></trkpt><trkpt lat="43.2459181" lon="11.1694507"><ele>308.0</ele><time>2026-04-04T08:13:13.502Z</time></trkpt><trkpt lat="43.2458724" lon="11.1693663"><ele>308.0</ele><time>2026-04-04T08:13:14.529Z</time></trkpt><trkpt lat="43.2458327" lon="11.1692624"><ele>308.0</ele><time>2026-04-04T08:13:15.514Z</time></trkpt><trkpt lat="43.2458035" lon="11.1691643"><ele>308.0</ele><time>2026-04-04T08:13:16.51Z</time></trkpt><trkpt lat="43.2457947" lon="11.1690731"><ele>308.8</ele><time>2026-04-04T08:13:17.502Z</time></trkpt><trkpt lat="43.2457981" lon="11.1689811"><ele>309.6</ele><time>2026-04-04T08:13:18.518Z</time></trkpt><trkpt lat="43.245833" lon="11.1687959"><ele>310.4</ele><time>2026-04-04T08:13:20.505Z</time></trkpt><trkpt lat="43.2458523" lon="11.1686857"><ele>311.2</ele><time>2026-04-04T08:13:21.515Z</time></trkpt><trkpt lat="43.2458741" lon="11.1685437"><ele>312.0</ele><time>2026-04-04T08:13:22.502Z</time></trkpt><trkpt lat="43.2458997" lon="11.1683753"><ele>312.0</ele><time>2026-04-04T08:13:23.503Z</time></trkpt><trkpt lat="43.2459224" lon="11.1682023"><ele>312.0</ele><time>2026-04-04T08:13:24.51Z</time></trkpt><trkpt lat="43.2459279" lon="11.1680564"><ele>312.0</ele><time>2026-04-04T08:13:25.507Z</time></trkpt><trkpt lat="43.2459309" lon="11.167918"><ele>312.0</ele><time>2026-04-04T08:13:26.519Z</time></trkpt><trkpt lat="43.245918" lon="11.1677787"><ele>312.0</ele><time>2026-04-04T08:13:27.508Z</time></trkpt><trkpt lat="43.2458898" lon="11.1676414"><ele>312.5</ele><time>2026-04-04T08:13:28.507Z</time></trkpt><trkpt lat="43.2458466" lon="11.1674989"><ele>313.0</ele><time>2026-04-04T08:13:29.503Z</time></trkpt><trkpt lat="43.2457967" lon="11.1673259"><ele>313.5</ele><time>2026-04-04T08:13:30.504Z</time></trkpt><trkpt lat="43.245746" lon="11.1671481"><ele>314.0</ele><time>2026-04-04T08:13:31.516Z</time></trkpt><trkpt lat="43.2456965" lon="11.1669814"><ele>313.8</ele><time>2026-04-04T08:13:32.503Z</time></trkpt><trkpt lat="43.2456455" lon="11.1668239"><ele>313.59999999999997</ele><time>2026-04-04T08:13:33.511Z</time></trkpt><trkpt lat="43.245599" lon="11.1666878"><ele>313.4</ele><time>2026-04-04T08:13:34.503Z</time></trkpt><trkpt lat="43.2455548" lon="11.1665665"><ele>313.2</ele><time>2026-04-04T08:13:35.507Z</time></trkpt><trkpt lat="43.2455268" lon="11.1664541"><ele>313.0</ele><time>2026-04-04T08:13:36.505Z</time></trkpt><trkpt lat="43.2455047" lon="11.1663346"><ele>313.0</ele><time>2026-04-04T08:13:37.514Z</time></trkpt><trkpt lat="43.2454824" lon="11.1662203"><ele>313.0</ele><time>2026-04-04T08:13:38.501Z</time></trkpt><trkpt lat="43.2454721" lon="11.1661"><ele>313.0</ele><time>2026-04-04T08:13:39.5Z</time></trkpt><trkpt lat="43.2454716" lon="11.1659801"><ele>313.0</ele><time>2026-04-04T08:13:40.508Z</time></trkpt><trkpt lat="43.2454724" lon="11.165866"><ele>313.0</ele><time>2026-04-04T08:13:41.519Z</time></trkpt><trkpt lat="43.24548" lon="11.1657351"><ele>313.0</ele><time>2026-04-04T08:13:42.52Z</time></trkpt><trkpt lat="43.2455104" lon="11.1656043"><ele>313.5</ele><time>2026-04-04T08:13:43.52Z</time></trkpt><trkpt lat="43.2455565" lon="11.1654785"><ele>314.0</ele><time>2026-04-04T08:13:44.504Z</time></trkpt><trkpt lat="43.2456123" lon="11.1653703"><ele>314.5</ele><time>2026-04-04T08:13:45.524Z</time></trkpt><trkpt lat="43.2456627" lon="11.1652792"><ele>315.0</ele><time>2026-04-04T08:13:46.521Z</time></trkpt><trkpt lat="43.2457201" lon="11.1651988"><ele>315.5</ele><time>2026-04-04T08:13:47.518Z</time></trkpt><trkpt lat="43.2457709" lon="11.1651406"><ele>316.0</ele><time>2026-04-04T08:13:48.509Z</time></trkpt><trkpt lat="43.2458608" lon="11.1650575"><ele>317.16666666666663</ele><time>2026-04-04T08:13:50.516Z</time></trkpt><trkpt lat="43.245927" lon="11.1650255"><ele>318.3333333333333</ele><time>2026-04-04T08:13:52.514Z</time></trkpt><trkpt lat="43.2459925" lon="11.165"><ele>319.5</ele><time>2026-04-04T08:14:09.512Z</time></trkpt><trkpt lat="43.2460684" lon="11.1649358"><ele>320.6666666666667</ele><time>2026-04-04T08:14:11.527Z</time></trkpt><trkpt lat="43.2461497" lon="11.1648837"><ele>321.83333333333337</ele><time>2026-04-04T08:14:12.526Z</time></trkpt><trkpt lat="43.2462533" lon="11.1648261"><ele>323.0</ele><time>2026-04-04T08:14:13.515Z</time></trkpt><trkpt lat="43.2463637" lon="11.1647602"><ele>325.0</ele><time>2026-04-04T08:14:14.501Z</time></trkpt><trkpt lat="43.2464795" lon="11.1646757"><ele>327.0</ele><time>2026-04-04T08:14:15.522Z</time></trkpt><trkpt lat="43.2466027" lon="11.164587"><ele>329.0</ele><time>2026-04-04T08:14:16.518Z</time></trkpt><trkpt lat="43.2467227" lon="11.1645048"><ele>331.0</ele><time>2026-04-04T08:14:17.517Z</time></trkpt><trkpt lat="43.2468496" lon="11.1644235"><ele>331.0</ele><time>2026-04-04T08:14:18.518Z</time></trkpt><trkpt lat="43.2469754" lon="11.164341"><ele>331.0</ele><time>2026-04-04T08:14:19.52Z</time></trkpt><trkpt lat="43.2471013" lon="11.1642607"><ele>331.0</ele><time>2026-04-04T08:14:20.51Z</time></trkpt><trkpt lat="43.2472261" lon="11.1641777"><ele>331.0</ele><time>2026-04-04T08:14:21.523Z</time></trkpt><trkpt lat="43.2473388" lon="11.1641045"><ele>331.16666666666663</ele><time>2026-04-04T08:14:22.515Z</time></trkpt><trkpt lat="43.2474364" lon="11.1640478"><ele>331.3333333333333</ele><time>2026-04-04T08:14:23.513Z</time></trkpt><trkpt lat="43.2475187" lon="11.163986"><ele>331.5</ele><time>2026-04-04T08:14:24.534Z</time></trkpt><trkpt lat="43.247583" lon="11.1639277"><ele>331.6666666666667</ele><time>2026-04-04T08:14:25.513Z</time></trkpt><trkpt lat="43.2476422" lon="11.1638437"><ele>331.83333333333337</ele><time>2026-04-04T08:14:26.508Z</time></trkpt><trkpt lat="43.2476778" lon="11.1637667"><ele>332.0</ele><time>2026-04-04T08:14:27.515Z</time></trkpt><trkpt lat="43.2477016" lon="11.1636227"><ele>334.75</ele><time>2026-04-04T08:14:29.518Z</time></trkpt><trkpt lat="43.247629" lon="11.1634586"><ele>337.5</ele><time>2026-04-04T08:14:31.514Z</time></trkpt><trkpt lat="43.2475694" lon="11.1633593"><ele>340.25</ele><time>2026-04-04T08:14:32.509Z</time></trkpt><trkpt lat="43.2474876" lon="11.1632539"><ele>343.0</ele><time>2026-04-04T08:14:33.504Z</time></trkpt><trkpt lat="43.2474001" lon="11.1631404"><ele>343.0</ele><time>2026-04-04T08:14:34.524Z</time></trkpt><trkpt lat="43.2473152" lon="11.1630285"><ele>343.0</ele><time>2026-04-04T08:14:35.508Z</time></trkpt><trkpt lat="43.2472309" lon="11.1629083"><ele>343.0</ele><time>2026-04-04T08:14:36.542Z</time></trkpt><trkpt lat="43.2471506" lon="11.1627938"><ele>343.0</ele><time>2026-04-04T08:14:37.507Z</time></trkpt><trkpt lat="43.2470769" lon="11.1626827"><ele>343.0</ele><time>2026-04-04T08:14:38.517Z</time></trkpt><trkpt lat="43.2470133" lon="11.1625614"><ele>343.0</ele><time>2026-04-04T08:14:39.519Z</time></trkpt><trkpt lat="43.2469574" lon="11.1624341"><ele>343.0</ele><time>2026-04-04T08:14:40.517Z</time></trkpt><trkpt lat="43.2469258" lon="11.1623041"><ele>343.0</ele><time>2026-04-04T08:14:41.519Z</time></trkpt><trkpt lat="43.2468971" lon="11.1621825"><ele>343.0</ele><time>2026-04-04T08:14:42.517Z</time></trkpt><trkpt lat="43.2468703" lon="11.1620291"><ele>344.75</ele><time>2026-04-04T08:14:43.515Z</time></trkpt><trkpt lat="43.2468549" lon="11.1618553"><ele>346.5</ele><time>2026-04-04T08:14:44.509Z</time></trkpt><trkpt lat="43.2468436" lon="11.1616836"><ele>348.25</ele><time>2026-04-04T08:14:45.519Z</time></trkpt><trkpt lat="43.2468265" lon="11.1615131"><ele>350.0</ele><time>2026-04-04T08:14:46.521Z</time></trkpt><trkpt lat="43.2468113" lon="11.1613589"><ele>350.6666666666667</ele><time>2026-04-04T08:14:47.525Z</time></trkpt><trkpt lat="43.2468081" lon="11.1612294"><ele>351.33333333333337</ele><time>2026-04-04T08:14:48.525Z</time></trkpt><trkpt lat="43.2468175" lon="11.1611272"><ele>352.0</ele><time>2026-04-04T08:14:49.502Z</time></trkpt><trkpt lat="43.2468408" lon="11.1610255"><ele>352.6666666666667</ele><time>2026-04-04T08:14:50.508Z</time></trkpt><trkpt lat="43.2468811" lon="11.160928"><ele>353.3333333333333</ele><time>2026-04-04T08:14:51.514Z</time></trkpt><trkpt lat="43.2469208" lon="11.1608163"><ele>354.0</ele><time>2026-04-04T08:14:52.531Z</time></trkpt><trkpt lat="43.2469647" lon="11.160715"><ele>354.0</ele><time>2026-04-04T08:14:53.517Z</time></trkpt><trkpt lat="43.2469915" lon="11.1606218"><ele>354.0</ele><time>2026-04-04T08:14:54.511Z</time></trkpt><trkpt lat="43.2470766" lon="11.1605158"><ele>354.0</ele><time>2026-04-04T08:14:56.506Z</time></trkpt><trkpt lat="43.2471767" lon="11.1605356"><ele>354.0</ele><time>2026-04-04T08:14:58.525Z</time></trkpt><trkpt lat="43.2472334" lon="11.1605895"><ele>354.0</ele><time>2026-04-04T08:14:59.514Z</time></trkpt><trkpt lat="43.247292" lon="11.1607521"><ele>357.2</ele><time>2026-04-04T08:15:01.521Z</time></trkpt><trkpt lat="43.2473165" lon="11.1608632"><ele>360.4</ele><time>2026-04-04T08:15:02.516Z</time></trkpt><trkpt lat="43.2473442" lon="11.1609534"><ele>363.6</ele><time>2026-04-04T08:15:03.53Z</time></trkpt><trkpt lat="43.2474363" lon="11.1610587"><ele>366.8</ele><time>2026-04-04T08:15:05.524Z</time></trkpt><trkpt lat="43.2475512" lon="11.1610473"><ele>370.0</ele><time>2026-04-04T08:15:07.512Z</time></trkpt><trkpt lat="43.2475913" lon="11.1609768"><ele>370.0</ele><time>2026-04-04T08:15:08.516Z</time></trkpt><trkpt lat="43.247632" lon="11.1609041"><ele>370.0</ele><time>2026-04-04T08:15:09.514Z</time></trkpt><trkpt lat="43.2476637" lon="11.1608134"><ele>370.0</ele><time>2026-04-04T08:15:10.511Z</time></trkpt><trkpt lat="43.2476671" lon="11.1607095"><ele>370.0</ele><time>2026-04-04T08:15:11.513Z</time></trkpt><trkpt lat="43.2476714" lon="11.1605921"><ele>370.0</ele><time>2026-04-04T08:15:12.511Z</time></trkpt><trkpt lat="43.2476723" lon="11.1604461"><ele>370.0</ele><time>2026-04-04T08:15:13.526Z</time></trkpt><trkpt lat="43.2476788" lon="11.1602555"><ele>371.0</ele><time>2026-04-04T08:15:14.515Z</time></trkpt><trkpt lat="43.2476787" lon="11.1600557"><ele>372.0</ele><time>2026-04-04T08:15:15.517Z</time></trkpt><trkpt lat="43.2476682" lon="11.1598464"><ele>373.0</ele><time>2026-04-04T08:15:16.517Z</time></trkpt><trkpt lat="43.2476605" lon="11.1596508"><ele>374.0</ele><time>2026-04-04T08:15:17.519Z</time></trkpt><trkpt lat="43.2476471" lon="11.1594804"><ele>375.0</ele><time>2026-04-04T08:15:18.527Z</time></trkpt><trkpt lat="43.2476357" lon="11.1593154"><ele>376.0</ele><time>2026-04-04T08:15:19.516Z</time></trkpt><trkpt lat="43.2476351" lon="11.1591714"><ele>377.0</ele><time>2026-04-04T08:15:20.515Z</time></trkpt><trkpt lat="43.2476303" lon="11.1590087"><ele>378.0</ele><time>2026-04-04T08:15:21.513Z</time></trkpt><trkpt lat="43.24763" lon="11.1588654"><ele>379.0</ele><time>2026-04-04T08:15:22.513Z</time></trkpt><trkpt lat="43.2476529" lon="11.158731"><ele>379.0</ele><time>2026-04-04T08:15:23.514Z</time></trkpt><trkpt lat="43.2476797" lon="11.158602"><ele>379.0</ele><time>2026-04-04T08:15:24.519Z</time></trkpt><trkpt lat="43.2477213" lon="11.1584847"><ele>379.0</ele><time>2026-04-04T08:15:25.518Z</time></trkpt><trkpt lat="43.2477748" lon="11.1583581"><ele>379.0</ele><time>2026-04-04T08:15:26.512Z</time></trkpt><trkpt lat="43.2478298" lon="11.1582343"><ele>379.0</ele><time>2026-04-04T08:15:27.525Z</time></trkpt><trkpt lat="43.2478903" lon="11.1581036"><ele>379.0</ele><time>2026-04-04T08:15:28.517Z</time></trkpt><trkpt lat="43.2479479" lon="11.1579754"><ele>379.0</ele><time>2026-04-04T08:15:29.529Z</time></trkpt><trkpt lat="43.2480081" lon="11.1578334"><ele>379.0</ele><time>2026-04-04T08:15:30.529Z</time></trkpt><trkpt lat="43.2480577" lon="11.1576891"><ele>379.0</ele><time>2026-04-04T08:15:31.522Z</time></trkpt><trkpt lat="43.2480957" lon="11.1575531"><ele>379.0</ele><time>2026-04-04T08:15:32.526Z</time></trkpt><trkpt lat="43.2481254" lon="11.1574157"><ele>379.0</ele><time>2026-04-04T08:15:33.526Z</time></trkpt><trkpt lat="43.2481404" lon="11.1572635"><ele>379.0</ele><time>2026-04-04T08:15:34.531Z</time></trkpt><trkpt lat="43.2481445" lon="11.1570982"><ele>379.0</ele><time>2026-04-04T08:15:35.525Z</time></trkpt><trkpt lat="43.2481441" lon="11.1569341"><ele>382.4</ele><time>2026-04-04T08:15:36.524Z</time></trkpt><trkpt lat="43.2481438" lon="11.15678"><ele>385.79999999999995</ele><time>2026-04-04T08:15:37.524Z</time></trkpt><trkpt lat="43.2481431" lon="11.1566262"><ele>389.20000000000005</ele><time>2026-04-04T08:15:38.526Z</time></trkpt><trkpt lat="43.2481205" lon="11.1564773"><ele>392.6</ele><time>2026-04-04T08:15:39.523Z</time></trkpt><trkpt lat="43.2480747" lon="11.1563388"><ele>396.0</ele><time>2026-04-04T08:15:40.516Z</time></trkpt><trkpt lat="43.2480399" lon="11.1562097"><ele>396.0</ele><time>2026-04-04T08:15:41.524Z</time></trkpt><trkpt lat="43.2480118" lon="11.1560744"><ele>396.0</ele><time>2026-04-04T08:15:42.52Z</time></trkpt><trkpt lat="43.2479894" lon="11.1559384"><ele>396.0</ele><time>2026-04-04T08:15:43.522Z</time></trkpt><trkpt lat="43.2479729" lon="11.1558026"><ele>396.0</ele><time>2026-04-04T08:15:44.518Z</time></trkpt><trkpt lat="43.2479413" lon="11.1556653"><ele>396.0</ele><time>2026-04-04T08:15:45.516Z</time></trkpt><trkpt lat="43.2479066" lon="11.1555312"><ele>397.4</ele><time>2026-04-04T08:15:46.525Z</time></trkpt><trkpt lat="43.2478566" lon="11.1553876"><ele>398.8</ele><time>2026-04-04T08:15:47.511Z</time></trkpt><trkpt lat="43.2478209" lon="11.1552718"><ele>400.2</ele><time>2026-04-04T08:15:48.523Z</time></trkpt><trkpt lat="43.2477905" lon="11.1551563"><ele>401.59999999999997</ele><time>2026-04-04T08:15:49.513Z</time></trkpt><trkpt lat="43.2477731" lon="11.1550263"><ele>403.0</ele><time>2026-04-04T08:15:50.519Z</time></trkpt><trkpt lat="43.2477802" lon="11.1548732"><ele>403.5</ele><time>2026-04-04T08:15:51.516Z</time></trkpt><trkpt lat="43.2478048" lon="11.1547098"><ele>404.0</ele><time>2026-04-04T08:15:52.528Z</time></trkpt><trkpt lat="43.24784" lon="11.1545264"><ele>404.5</ele><time>2026-04-04T08:15:53.526Z</time></trkpt><trkpt lat="43.2478717" lon="11.154343"><ele>405.0</ele><time>2026-04-04T08:15:54.511Z</time></trkpt><trkpt lat="43.2479095" lon="11.154189"><ele>405.0</ele><time>2026-04-04T08:15:55.532Z</time></trkpt><trkpt lat="43.2479379" lon="11.1540693"><ele>405.0</ele><time>2026-04-04T08:15:56.51Z</time></trkpt><trkpt lat="43.2479894" lon="11.1539335"><ele>405.0</ele><time>2026-04-04T08:15:58.535Z</time></trkpt><trkpt lat="43.2480635" lon="11.1538968"><ele>405.0</ele><time>2026-04-04T08:16:00.518Z</time></trkpt><trkpt lat="43.2480984" lon="11.1539883"><ele>405.0</ele><time>2026-04-04T08:16:02.516Z</time></trkpt><trkpt lat="43.2480756" lon="11.1541702"><ele>405.0</ele><time>2026-04-04T08:16:04.511Z</time></trkpt><trkpt lat="43.2480586" lon="11.1542703"><ele>405.0</ele><time>2026-04-04T08:16:05.523Z</time></trkpt><trkpt lat="43.2480433" lon="11.154364"><ele>405.0</ele><time>2026-04-04T08:16:06.506Z</time></trkpt><trkpt lat="43.2481376" lon="11.1545015"><ele>405.0</ele><time>2026-04-04T08:16:08.517Z</time></trkpt><trkpt lat="43.2482063" lon="11.1545384"><ele>405.0</ele><time>2026-04-04T08:16:09.512Z</time></trkpt><trkpt lat="43.2482956" lon="11.1545366"><ele>405.0</ele><time>2026-04-04T08:16:10.513Z</time></trkpt><trkpt lat="43.2483614" lon="11.154491"><ele>408.0</ele><time>2026-04-04T08:16:11.511Z</time></trkpt><trkpt lat="43.248425" lon="11.1544193"><ele>411.0</ele><time>2026-04-04T08:16:12.521Z</time></trkpt><trkpt lat="43.2484885" lon="11.1543368"><ele>414.0</ele><time>2026-04-04T08:16:13.52Z</time></trkpt><trkpt lat="43.2485718" lon="11.1542403"><ele>417.0</ele><time>2026-04-04T08:16:14.522Z</time></trkpt><trkpt lat="43.2486597" lon="11.1541399"><ele>420.0</ele><time>2026-04-04T08:16:15.535Z</time></trkpt><trkpt lat="43.2487626" lon="11.1540545"><ele>421.2</ele><time>2026-04-04T08:16:16.515Z</time></trkpt><trkpt lat="43.2488657" lon="11.1539894"><ele>422.4</ele><time>2026-04-04T08:16:17.525Z</time></trkpt><trkpt lat="43.2489643" lon="11.1539073"><ele>423.6</ele><time>2026-04-04T08:16:18.527Z</time></trkpt><trkpt lat="43.2490503" lon="11.1538218"><ele>424.8</ele><time>2026-04-04T08:16:19.528Z</time></trkpt><trkpt lat="43.2491125" lon="11.1537433"><ele>426.0</ele><time>2026-04-04T08:16:20.518Z</time></trkpt><trkpt lat="43.2491707" lon="11.1536457"><ele>427.20000000000005</ele><time>2026-04-04T08:16:21.52Z</time></trkpt><trkpt lat="43.2492268" lon="11.1535287"><ele>428.40000000000003</ele><time>2026-04-04T08:16:22.526Z</time></trkpt><trkpt lat="43.2492778" lon="11.1534023"><ele>429.6</ele><time>2026-04-04T08:16:23.513Z</time></trkpt><trkpt lat="43.249325" lon="11.1532596"><ele>430.8</ele><time>2026-04-04T08:16:24.535Z</time></trkpt><trkpt lat="43.2493586" lon="11.1531157"><ele>432.0</ele><time>2026-04-04T08:16:25.531Z</time></trkpt><trkpt lat="43.2493812" lon="11.1529806"><ele>433.0</ele><time>2026-04-04T08:16:26.527Z</time></trkpt><trkpt lat="43.2493973" lon="11.1528411"><ele>434.00000000000006</ele><time>2026-04-04T08:16:27.529Z</time></trkpt><trkpt lat="43.2493968" lon="11.152704"><ele>435.00000000000006</ele><time>2026-04-04T08:16:28.515Z</time></trkpt><trkpt lat="43.2493784" lon="11.1525725"><ele>436.0</ele><time>2026-04-04T08:16:29.521Z</time></trkpt><trkpt lat="43.2493509" lon="11.1524327"><ele>437.0</ele><time>2026-04-04T08:16:30.534Z</time></trkpt><trkpt lat="43.2493033" lon="11.1522891"><ele>437.5</ele><time>2026-04-04T08:16:31.526Z</time></trkpt><trkpt lat="43.2492656" lon="11.1521267"><ele>438.0</ele><time>2026-04-04T08:16:32.517Z</time></trkpt><trkpt lat="43.24923" lon="11.1519563"><ele>438.5</ele><time>2026-04-04T08:16:33.533Z</time></trkpt><trkpt lat="43.2491984" lon="11.1517902"><ele>439.0</ele><time>2026-04-04T08:16:34.522Z</time></trkpt><trkpt lat="43.2491729" lon="11.1516216"><ele>439.5</ele><time>2026-04-04T08:16:35.529Z</time></trkpt><trkpt lat="43.2491397" lon="11.1514484"><ele>440.0</ele><time>2026-04-04T08:16:36.519Z</time></trkpt><trkpt lat="43.2491118" lon="11.151278"><ele>440.5</ele><time>2026-04-04T08:16:37.519Z</time></trkpt><trkpt lat="43.249086" lon="11.1511076"><ele>441.0</ele><time>2026-04-04T08:16:38.529Z</time></trkpt><trkpt lat="43.2490677" lon="11.1509396"><ele>441.0</ele><time>2026-04-04T08:16:39.531Z</time></trkpt><trkpt lat="43.2490521" lon="11.1507808"><ele>441.0</ele><time>2026-04-04T08:16:40.516Z</time></trkpt><trkpt lat="43.2490351" lon="11.1506257"><ele>441.0</ele><time>2026-04-04T08:16:41.526Z</time></trkpt><trkpt lat="43.2490201" lon="11.1504702"><ele>441.0</ele><time>2026-04-04T08:16:42.516Z</time></trkpt><trkpt lat="43.2490173" lon="11.1503197"><ele>441.6666666666667</ele><time>2026-04-04T08:16:43.529Z</time></trkpt><trkpt lat="43.2490267" lon="11.1501731"><ele>442.33333333333337</ele><time>2026-04-04T08:16:44.527Z</time></trkpt><trkpt lat="43.2490361" lon="11.1500359"><ele>443.0</ele><time>2026-04-04T08:16:45.508Z</time></trkpt><trkpt lat="43.2490444" lon="11.149924"><ele>443.6666666666667</ele><time>2026-04-04T08:16:46.512Z</time></trkpt><trkpt lat="43.2490517" lon="11.1498319"><ele>444.33333333333337</ele><time>2026-04-04T08:16:47.526Z</time></trkpt><trkpt lat="43.2490654" lon="11.1497435"><ele>445.0</ele><time>2026-04-04T08:16:48.515Z</time></trkpt><trkpt lat="43.2490708" lon="11.1496023"><ele>445.6666666666667</ele><time>2026-04-04T08:16:50.516Z</time></trkpt><trkpt lat="43.2490755" lon="11.1494613"><ele>446.33333333333337</ele><time>2026-04-04T08:16:52.517Z</time></trkpt><trkpt lat="43.2490841" lon="11.1493535"><ele>447.0</ele><time>2026-04-04T08:16:54.526Z</time></trkpt><trkpt lat="43.2491113" lon="11.149255"><ele>447.66666666666663</ele><time>2026-04-04T08:16:56.506Z</time></trkpt><trkpt lat="43.2491237" lon="11.1491567"><ele>448.3333333333333</ele><time>2026-04-04T08:16:58.528Z</time></trkpt><trkpt lat="43.2491319" lon="11.1490653"><ele>449.0</ele><time>2026-04-04T08:17:00.526Z</time></trkpt><trkpt lat="43.2491519" lon="11.1489716"><ele>449.0</ele><time>2026-04-04T08:17:02.526Z</time></trkpt><trkpt lat="43.2491742" lon="11.1488705"><ele>449.0</ele><time>2026-04-04T08:17:04.521Z</time></trkpt><trkpt lat="43.249181" lon="11.1487606"><ele>449.0</ele><time>2026-04-04T08:17:06.534Z</time></trkpt><trkpt lat="43.2492135" lon="11.1486125"><ele>449.0</ele><time>2026-04-04T08:17:08.522Z</time></trkpt><trkpt lat="43.2492434" lon="11.1484384"><ele>449.0</ele><time>2026-04-04T08:17:10.525Z</time></trkpt><trkpt lat="43.2492648" lon="11.1483302"><ele>449.75</ele><time>2026-04-04T08:17:11.527Z</time></trkpt><trkpt lat="43.2492947" lon="11.1481865"><ele>450.5</ele><time>2026-04-04T08:17:12.519Z</time></trkpt><trkpt lat="43.2493317" lon="11.1479876"><ele>451.25</ele><time>2026-04-04T08:17:13.524Z</time></trkpt><trkpt lat="43.2493697" lon="11.14776"><ele>452.0</ele><time>2026-04-04T08:17:14.519Z</time></trkpt><trkpt lat="43.2494016" lon="11.1475279"><ele>453.25</ele><time>2026-04-04T08:17:15.528Z</time></trkpt><trkpt lat="43.2494248" lon="11.1473205"><ele>454.5</ele><time>2026-04-04T08:17:16.528Z</time></trkpt><trkpt lat="43.2494458" lon="11.1471374"><ele>455.75</ele><time>2026-04-04T08:17:17.527Z</time></trkpt><trkpt lat="43.2494664" lon="11.1469689"><ele>457.0</ele><time>2026-04-04T08:17:18.518Z</time></trkpt><trkpt lat="43.2494949" lon="11.1468225"><ele>457.0</ele><time>2026-04-04T08:17:19.549Z</time></trkpt><trkpt lat="43.2495172" lon="11.1466849"><ele>457.00000000000006</ele><time>2026-04-04T08:17:20.515Z</time></trkpt><trkpt lat="43.2495404" lon="11.1465461"><ele>457.00000000000006</ele><time>2026-04-04T08:17:21.524Z</time></trkpt><trkpt lat="43.2495585" lon="11.1464077"><ele>457.0</ele><time>2026-04-04T08:17:22.526Z</time></trkpt><trkpt lat="43.2495565" lon="11.1462799"><ele>457.0</ele><time>2026-04-04T08:17:23.519Z</time></trkpt><trkpt lat="43.2495508" lon="11.1461469"><ele>457.50000000000006</ele><time>2026-04-04T08:17:24.526Z</time></trkpt><trkpt lat="43.2495409" lon="11.1460286"><ele>458.0</ele><time>2026-04-04T08:17:25.521Z</time></trkpt><trkpt lat="43.2495207" lon="11.1459227"><ele>458.5</ele><time>2026-04-04T08:17:26.505Z</time></trkpt><trkpt lat="43.2494848" lon="11.1458208"><ele>459.0</ele><time>2026-04-04T08:17:27.515Z</time></trkpt><trkpt lat="43.24943" lon="11.1457137"><ele>459.50000000000006</ele><time>2026-04-04T08:17:28.525Z</time></trkpt><trkpt lat="43.249368" lon="11.1456065"><ele>460.0</ele><time>2026-04-04T08:17:29.524Z</time></trkpt><trkpt lat="43.2492981" lon="11.1454881"><ele>461.0</ele><time>2026-04-04T08:17:30.523Z</time></trkpt><trkpt lat="43.2492253" lon="11.1453598"><ele>462.0</ele><time>2026-04-04T08:17:31.519Z</time></trkpt><trkpt lat="43.2491514" lon="11.1452323"><ele>463.0</ele><time>2026-04-04T08:17:32.518Z</time></trkpt><trkpt lat="43.2490784" lon="11.1451035"><ele>464.0</ele><time>2026-04-04T08:17:33.508Z</time></trkpt><trkpt lat="43.24901" lon="11.1449872"><ele>463.8333333333333</ele><time>2026-04-04T08:17:34.522Z</time></trkpt><trkpt lat="43.2489576" lon="11.1448936"><ele>463.66666666666663</ele><time>2026-04-04T08:17:35.507Z</time></trkpt><trkpt lat="43.2489183" lon="11.1448191"><ele>463.5</ele><time>2026-04-04T08:17:36.513Z</time></trkpt><trkpt lat="43.248976" lon="11.1447743"><ele>463.33333333333337</ele><time>2026-04-04T08:18:00.505Z</time></trkpt><trkpt lat="43.2490056" lon="11.1446899"><ele>463.1666666666667</ele><time>2026-04-04T08:18:01.507Z</time></trkpt><trkpt lat="43.2490351" lon="11.1446097"><ele>463.0</ele><time>2026-04-04T08:18:02.51Z</time></trkpt><trkpt lat="43.2490647" lon="11.1444511"><ele>463.00000000000006</ele><time>2026-04-04T08:18:04.532Z</time></trkpt><trkpt lat="43.2490825" lon="11.1442849"><ele>463.0</ele><time>2026-04-04T08:18:06.533Z</time></trkpt><trkpt lat="43.2490913" lon="11.1441932"><ele>463.0</ele><time>2026-04-04T08:18:07.507Z</time></trkpt><trkpt lat="43.2490993" lon="11.1440922"><ele>463.0</ele><time>2026-04-04T08:18:08.532Z</time></trkpt><trkpt lat="43.2491179" lon="11.1439749"><ele>463.00000000000006</ele><time>2026-04-04T08:18:09.516Z</time></trkpt><trkpt lat="43.2491404" lon="11.1438603"><ele>463.0</ele><time>2026-04-04T08:18:10.506Z</time></trkpt><trkpt lat="43.24917" lon="11.1437451"><ele>462.6666666666667</ele><time>2026-04-04T08:18:11.517Z</time></trkpt><trkpt lat="43.2491928" lon="11.1436316"><ele>462.33333333333337</ele><time>2026-04-04T08:18:12.519Z</time></trkpt><trkpt lat="43.2492163" lon="11.1435347"><ele>462.0</ele><time>2026-04-04T08:18:13.524Z</time></trkpt><trkpt lat="43.2492471" lon="11.1434457"><ele>461.66666666666663</ele><time>2026-04-04T08:18:14.511Z</time></trkpt><trkpt lat="43.2492723" lon="11.1433306"><ele>461.3333333333333</ele><time>2026-04-04T08:18:15.517Z</time></trkpt><trkpt lat="43.2492972" lon="11.1432032"><ele>461.0</ele><time>2026-04-04T08:18:16.511Z</time></trkpt><trkpt lat="43.2493228" lon="11.1430747"><ele>461.8</ele><time>2026-04-04T08:18:17.515Z</time></trkpt><trkpt lat="43.2493447" lon="11.1429621"><ele>462.6</ele><time>2026-04-04T08:18:18.507Z</time></trkpt><trkpt lat="43.249361" lon="11.1428235"><ele>463.4</ele><time>2026-04-04T08:18:19.504Z</time></trkpt><trkpt lat="43.249368" lon="11.1426788"><ele>464.2</ele><time>2026-04-04T08:18:20.509Z</time></trkpt><trkpt lat="43.2493688" lon="11.1425391"><ele>465.0</ele><time>2026-04-04T08:18:21.513Z</time></trkpt><trkpt lat="43.2493664" lon="11.1423952"><ele>466.5</ele><time>2026-04-04T08:18:22.508Z</time></trkpt><trkpt lat="43.2493587" lon="11.1422433"><ele>468.0</ele><time>2026-04-04T08:18:23.513Z</time></trkpt><trkpt lat="43.2493458" lon="11.1420946"><ele>469.5</ele><time>2026-04-04T08:18:24.496Z</time></trkpt><trkpt lat="43.2493314" lon="11.1419368"><ele>471.0</ele><time>2026-04-04T08:18:25.498Z</time></trkpt><trkpt lat="43.2493104" lon="11.1417793"><ele>471.0</ele><time>2026-04-04T08:18:26.505Z</time></trkpt><trkpt lat="43.2493012" lon="11.1416284"><ele>471.0</ele><time>2026-04-04T08:18:27.504Z</time></trkpt><trkpt lat="43.2493023" lon="11.1414782"><ele>471.0</ele><time>2026-04-04T08:18:28.498Z</time></trkpt><trkpt lat="43.2493027" lon="11.1413223"><ele>471.0</ele><time>2026-04-04T08:18:29.508Z</time></trkpt><trkpt lat="43.2493139" lon="11.1411657"><ele>471.0</ele><time>2026-04-04T08:18:30.503Z</time></trkpt><trkpt lat="43.2493252" lon="11.1410232"><ele>472.8</ele><time>2026-04-04T08:18:31.5Z</time></trkpt><trkpt lat="43.2493423" lon="11.1408965"><ele>474.6</ele><time>2026-04-04T08:18:32.502Z</time></trkpt><trkpt lat="43.2493454" lon="11.1407804"><ele>476.4</ele><time>2026-04-04T08:18:33.502Z</time></trkpt><trkpt lat="43.2493388" lon="11.1406438"><ele>478.2</ele><time>2026-04-04T08:18:34.511Z</time></trkpt><trkpt lat="43.2493318" lon="11.1405091"><ele>480.0</ele><time>2026-04-04T08:18:35.498Z</time></trkpt><trkpt lat="43.249314" lon="11.1403921"><ele>480.6</ele><time>2026-04-04T08:18:36.499Z</time></trkpt><trkpt lat="43.2493107" lon="11.140267"><ele>481.2</ele><time>2026-04-04T08:18:37.509Z</time></trkpt><trkpt lat="43.2493335" lon="11.1401358"><ele>481.79999999999995</ele><time>2026-04-04T08:18:38.502Z</time></trkpt><trkpt lat="43.249378" lon="11.1399915"><ele>482.4</ele><time>2026-04-04T08:18:39.5Z</time></trkpt><trkpt lat="43.2494316" lon="11.1398591"><ele>483.0</ele><time>2026-04-04T08:18:40.497Z</time></trkpt><trkpt lat="43.2494982" lon="11.1397437"><ele>483.59999999999997</ele><time>2026-04-04T08:18:41.502Z</time></trkpt><trkpt lat="43.2495592" lon="11.139635"><ele>484.19999999999993</ele><time>2026-04-04T08:18:42.5Z</time></trkpt><trkpt lat="43.2496147" lon="11.1395395"><ele>484.8</ele><time>2026-04-04T08:18:43.507Z</time></trkpt><trkpt lat="43.249652" lon="11.1394343"><ele>485.4</ele><time>2026-04-04T08:18:44.51Z</time></trkpt><trkpt lat="43.2496553" lon="11.139331"><ele>486.0</ele><time>2026-04-04T08:18:45.502Z</time></trkpt><trkpt lat="43.249629" lon="11.1391768"><ele>486.0</ele><time>2026-04-04T08:18:47.502Z</time></trkpt><trkpt lat="43.2495861" lon="11.139106"><ele>486.0</ele><time>2026-04-04T08:18:48.5Z</time></trkpt><trkpt lat="43.2495316" lon="11.1390374"><ele>486.0</ele><time>2026-04-04T08:18:49.501Z</time></trkpt><trkpt lat="43.2494728" lon="11.138976"><ele>486.0</ele><time>2026-04-04T08:18:50.498Z</time></trkpt><trkpt lat="43.2494014" lon="11.1389042"><ele>486.0</ele><time>2026-04-04T08:18:51.499Z</time></trkpt><trkpt lat="43.2493289" lon="11.1388136"><ele>486.0</ele><time>2026-04-04T08:18:52.504Z</time></trkpt><trkpt lat="43.2492679" lon="11.1387234"><ele>487.20000000000005</ele><time>2026-04-04T08:18:53.508Z</time></trkpt><trkpt lat="43.2492369" lon="11.1386082"><ele>488.40000000000003</ele><time>2026-04-04T08:18:54.501Z</time></trkpt><trkpt lat="43.249216" lon="11.1384605"><ele>489.6</ele><time>2026-04-04T08:18:55.494Z</time></trkpt><trkpt lat="43.2492096" lon="11.1382975"><ele>490.8</ele><time>2026-04-04T08:18:56.5Z</time></trkpt><trkpt lat="43.2492135" lon="11.1381376"><ele>492.0</ele><time>2026-04-04T08:18:57.5Z</time></trkpt><trkpt lat="43.2492428" lon="11.1379986"><ele>494.25</ele><time>2026-04-04T08:18:58.511Z</time></trkpt><trkpt lat="43.2492804" lon="11.1378786"><ele>496.5</ele><time>2026-04-04T08:18:59.497Z</time></trkpt><trkpt lat="43.2493386" lon="11.1377508"><ele>498.75</ele><time>2026-04-04T08:19:00.497Z</time></trkpt><trkpt lat="43.2494212" lon="11.1376221"><ele>501.0</ele><time>2026-04-04T08:19:01.507Z</time></trkpt><trkpt lat="43.2494994" lon="11.1374693"><ele>503.0</ele><time>2026-04-04T08:19:02.504Z</time></trkpt><trkpt lat="43.2495774" lon="11.1373108"><ele>505.0</ele><time>2026-04-04T08:19:03.521Z</time></trkpt><trkpt lat="43.2496452" lon="11.1371769"><ele>507.0</ele><time>2026-04-04T08:19:04.503Z</time></trkpt><trkpt lat="43.2497044" lon="11.1370859"><ele>509.0</ele><time>2026-04-04T08:19:05.507Z</time></trkpt><trkpt lat="43.2497628" lon="11.137003"><ele>511.0</ele><time>2026-04-04T08:19:06.509Z</time></trkpt><trkpt lat="43.2498335" lon="11.1369196"><ele>511.0</ele><time>2026-04-04T08:19:07.504Z</time></trkpt><trkpt lat="43.2499005" lon="11.1368478"><ele>511.0</ele><time>2026-04-04T08:19:08.505Z</time></trkpt><trkpt lat="43.2499809" lon="11.1367859"><ele>511.0</ele><time>2026-04-04T08:19:09.52Z</time></trkpt><trkpt lat="43.250068" lon="11.136713"><ele>511.0</ele><time>2026-04-04T08:19:10.496Z</time></trkpt><trkpt lat="43.2501552" lon="11.1366469"><ele>511.0</ele><time>2026-04-04T08:19:11.522Z</time></trkpt><trkpt lat="43.2502348" lon="11.1365778"><ele>513.6</ele><time>2026-04-04T08:19:12.513Z</time></trkpt><trkpt lat="43.2502972" lon="11.1364942"><ele>516.2</ele><time>2026-04-04T08:19:13.511Z</time></trkpt><trkpt lat="43.2503503" lon="11.1363986"><ele>518.8</ele><time>2026-04-04T08:19:14.523Z</time></trkpt><trkpt lat="43.2504089" lon="11.1362956"><ele>521.4</ele><time>2026-04-04T08:19:15.501Z</time></trkpt><trkpt lat="43.2504814" lon="11.1361861"><ele>524.0</ele><time>2026-04-04T08:19:16.516Z</time></trkpt><trkpt lat="43.2505503" lon="11.1360703"><ele>524.0</ele><time>2026-04-04T08:19:17.514Z</time></trkpt><trkpt lat="43.2506186" lon="11.1359564"><ele>524.0</ele><time>2026-04-04T08:19:18.507Z</time></trkpt><trkpt lat="43.2506769" lon="11.1358486"><ele>524.0</ele><time>2026-04-04T08:19:19.521Z</time></trkpt><trkpt lat="43.2507184" lon="11.1357495"><ele>524.0</ele><time>2026-04-04T08:19:20.506Z</time></trkpt><trkpt lat="43.2507303" lon="11.1355945"><ele>524.0</ele><time>2026-04-04T08:19:22.518Z</time></trkpt><trkpt lat="43.2507183" lon="11.1355066"><ele>525.2</ele><time>2026-04-04T08:19:23.501Z</time></trkpt><trkpt lat="43.2506885" lon="11.1354127"><ele>526.4</ele><time>2026-04-04T08:19:24.523Z</time></trkpt><trkpt lat="43.2506533" lon="11.1353232"><ele>527.6</ele><time>2026-04-04T08:19:25.517Z</time></trkpt><trkpt lat="43.2505894" lon="11.1352447"><ele>528.8</ele><time>2026-04-04T08:19:26.523Z</time></trkpt><trkpt lat="43.250491" lon="11.1351402"><ele>530.0</ele><time>2026-04-04T08:19:27.521Z</time></trkpt><trkpt lat="43.2504076" lon="11.1350581"><ele>530.0</ele><time>2026-04-04T08:19:28.518Z</time></trkpt><trkpt lat="43.2503291" lon="11.1349773"><ele>530.0</ele><time>2026-04-04T08:19:29.522Z</time></trkpt><trkpt lat="43.2502545" lon="11.1348955"><ele>530.0</ele><time>2026-04-04T08:19:30.515Z</time></trkpt><trkpt lat="43.2501891" lon="11.1348199"><ele>530.0</ele><time>2026-04-04T08:19:31.523Z</time></trkpt><trkpt lat="43.2501395" lon="11.1347651"><ele>530.0</ele><time>2026-04-04T08:19:32.503Z</time></trkpt><trkpt lat="43.2500726" lon="11.1346769"><ele>530.0</ele><time>2026-04-04T08:19:34.512Z</time></trkpt><trkpt lat="43.2500822" lon="11.1345779"><ele>529.6</ele><time>2026-04-04T08:19:38.501Z</time></trkpt><trkpt lat="43.2501703" lon="11.1344782"><ele>529.2</ele><time>2026-04-04T08:19:40.502Z</time></trkpt><trkpt lat="43.2502303" lon="11.134423"><ele>528.8</ele><time>2026-04-04T08:19:41.514Z</time></trkpt><trkpt lat="43.250333" lon="11.1343522"><ele>528.4</ele><time>2026-04-04T08:19:42.513Z</time></trkpt><trkpt lat="43.2504394" lon="11.134241"><ele>528.0</ele><time>2026-04-04T08:19:43.517Z</time></trkpt><trkpt lat="43.2505538" lon="11.1341411"><ele>529.0</ele><time>2026-04-04T08:19:44.513Z</time></trkpt><trkpt lat="43.2506715" lon="11.1340372"><ele>530.0</ele><time>2026-04-04T08:19:45.513Z</time></trkpt><trkpt lat="43.2507759" lon="11.1339495"><ele>531.0</ele><time>2026-04-04T08:19:46.515Z</time></trkpt><trkpt lat="43.2508841" lon="11.1338784"><ele>532.0</ele><time>2026-04-04T08:19:47.514Z</time></trkpt><trkpt lat="43.2509833" lon="11.1338139"><ele>532.0</ele><time>2026-04-04T08:19:48.521Z</time></trkpt><trkpt lat="43.2510722" lon="11.1337396"><ele>532.0</ele><time>2026-04-04T08:19:49.511Z</time></trkpt><trkpt lat="43.2511763" lon="11.1336651"><ele>532.0</ele><time>2026-04-04T08:19:50.506Z</time></trkpt><trkpt lat="43.2512657" lon="11.1336048"><ele>532.0</ele><time>2026-04-04T08:19:51.519Z</time></trkpt><trkpt lat="43.2513427" lon="11.1335327"><ele>532.0</ele><time>2026-04-04T08:19:52.502Z</time></trkpt><trkpt lat="43.2514256" lon="11.1334327"><ele>532.2</ele><time>2026-04-04T08:19:53.525Z</time></trkpt><trkpt lat="43.2515018" lon="11.1333222"><ele>532.4000000000001</ele><time>2026-04-04T08:19:54.528Z</time></trkpt><trkpt lat="43.2515805" lon="11.133217"><ele>532.5999999999999</ele><time>2026-04-04T08:19:55.519Z</time></trkpt><trkpt lat="43.2516585" lon="11.1331181"><ele>532.8</ele><time>2026-04-04T08:19:56.533Z</time></trkpt><trkpt lat="43.2517486" lon="11.1330285"><ele>533.0</ele><time>2026-04-04T08:19:57.508Z</time></trkpt><trkpt lat="43.2518337" lon="11.1329557"><ele>533.0</ele><time>2026-04-04T08:19:58.529Z</time></trkpt><trkpt lat="43.2519172" lon="11.132887"><ele>533.0</ele><time>2026-04-04T08:19:59.525Z</time></trkpt><trkpt lat="43.2519973" lon="11.132807"><ele>533.0</ele><time>2026-04-04T08:20:00.53Z</time></trkpt><trkpt lat="43.2520758" lon="11.1327159"><ele>533.0</ele><time>2026-04-04T08:20:01.514Z</time></trkpt><trkpt lat="43.2521685" lon="11.1325837"><ele>533.0</ele><time>2026-04-04T08:20:02.531Z</time></trkpt><trkpt lat="43.2522796" lon="11.1324168"><ele>536.6666666666666</ele><time>2026-04-04T08:20:03.498Z</time></trkpt><trkpt lat="43.2524171" lon="11.1322394"><ele>540.3333333333334</ele><time>2026-04-04T08:20:04.518Z</time></trkpt><trkpt lat="43.252548" lon="11.1320655"><ele>544.0</ele><time>2026-04-04T08:20:05.515Z</time></trkpt><trkpt lat="43.2526609" lon="11.1319182"><ele>544.0</ele><time>2026-04-04T08:20:06.532Z</time></trkpt><trkpt lat="43.2527599" lon="11.1317978"><ele>544.0</ele><time>2026-04-04T08:20:07.521Z</time></trkpt><trkpt lat="43.2528546" lon="11.1316759"><ele>544.0</ele><time>2026-04-04T08:20:08.514Z</time></trkpt><trkpt lat="43.252938" lon="11.1315891"><ele>544.0</ele><time>2026-04-04T08:20:09.519Z</time></trkpt><trkpt lat="43.25302" lon="11.1315105"><ele>545.75</ele><time>2026-04-04T08:20:10.524Z</time></trkpt><trkpt lat="43.2531025" lon="11.1314055"><ele>547.5</ele><time>2026-04-04T08:20:11.513Z</time></trkpt><trkpt lat="43.2531767" lon="11.1312824"><ele>549.25</ele><time>2026-04-04T08:20:12.51Z</time></trkpt><trkpt lat="43.2532526" lon="11.1311559"><ele>551.0</ele><time>2026-04-04T08:20:13.501Z</time></trkpt><trkpt lat="43.2533221" lon="11.1310374"><ele>551.6</ele><time>2026-04-04T08:20:14.506Z</time></trkpt><trkpt lat="43.2533803" lon="11.1309274"><ele>552.2</ele><time>2026-04-04T08:20:15.508Z</time></trkpt><trkpt lat="43.2534323" lon="11.130816"><ele>552.8</ele><time>2026-04-04T08:20:16.515Z</time></trkpt><trkpt lat="43.2534631" lon="11.130702"><ele>553.4</ele><time>2026-04-04T08:20:17.513Z</time></trkpt><trkpt lat="43.2534866" lon="11.1305632"><ele>554.0</ele><time>2026-04-04T08:20:18.519Z</time></trkpt><trkpt lat="43.253506" lon="11.1304223"><ele>555.0</ele><time>2026-04-04T08:20:19.503Z</time></trkpt><trkpt lat="43.2535294" lon="11.1302882"><ele>556.0</ele><time>2026-04-04T08:20:20.509Z</time></trkpt><trkpt lat="43.2535578" lon="11.1301789"><ele>557.0</ele><time>2026-04-04T08:20:21.522Z</time></trkpt><trkpt lat="43.2535911" lon="11.130089"><ele>558.0</ele><time>2026-04-04T08:20:22.525Z</time></trkpt><trkpt lat="43.2536847" lon="11.1299669"><ele>559.0</ele><time>2026-04-04T08:20:24.515Z</time></trkpt><trkpt lat="43.253739" lon="11.1299219"><ele>560.0</ele><time>2026-04-04T08:20:25.514Z</time></trkpt><trkpt lat="43.253815" lon="11.1298866"><ele>561.0</ele><time>2026-04-04T08:20:26.505Z</time></trkpt><trkpt lat="43.253895" lon="11.1298572"><ele>562.0</ele><time>2026-04-04T08:20:27.518Z</time></trkpt><trkpt lat="43.2539974" lon="11.129829"><ele>563.0</ele><time>2026-04-04T08:20:28.508Z</time></trkpt><trkpt lat="43.2541104" lon="11.1297867"><ele>564.0</ele><time>2026-04-04T08:20:29.518Z</time></trkpt><trkpt lat="43.2542223" lon="11.1297378"><ele>566.0</ele><time>2026-04-04T08:20:30.508Z</time></trkpt><trkpt lat="43.2543219" lon="11.1296799"><ele>568.0</ele><time>2026-04-04T08:20:31.515Z</time></trkpt><trkpt lat="43.2544193" lon="11.1296175"><ele>570.0</ele><time>2026-04-04T08:20:32.509Z</time></trkpt><trkpt lat="43.2545068" lon="11.1295457"><ele>572.0</ele><time>2026-04-04T08:20:33.514Z</time></trkpt><trkpt lat="43.2545946" lon="11.1294603"><ele>574.0</ele><time>2026-04-04T08:20:34.513Z</time></trkpt><trkpt lat="43.2546805" lon="11.1293763"><ele>574.0</ele><time>2026-04-04T08:20:35.501Z</time></trkpt><trkpt lat="43.2547546" lon="11.1292817"><ele>574.0</ele><time>2026-04-04T08:20:36.527Z</time></trkpt><trkpt lat="43.2548299" lon="11.1291807"><ele>574.0</ele><time>2026-04-04T08:20:37.524Z</time></trkpt><trkpt lat="43.254887" lon="11.1290764"><ele>574.0</ele><time>2026-04-04T08:20:38.53Z</time></trkpt><trkpt lat="43.2549409" lon="11.1289841"><ele>574.0</ele><time>2026-04-04T08:20:39.509Z</time></trkpt><trkpt lat="43.2549918" lon="11.1288895"><ele>573.8333333333334</ele><time>2026-04-04T08:20:40.528Z</time></trkpt><trkpt lat="43.2550398" lon="11.1288051"><ele>573.6666666666667</ele><time>2026-04-04T08:20:41.526Z</time></trkpt><trkpt lat="43.2550805" lon="11.1287078"><ele>573.5</ele><time>2026-04-04T08:20:42.505Z</time></trkpt><trkpt lat="43.2551062" lon="11.1286269"><ele>573.3333333333334</ele><time>2026-04-04T08:20:43.509Z</time></trkpt><trkpt lat="43.2551541" lon="11.128487"><ele>573.1666666666666</ele><time>2026-04-04T08:20:45.515Z</time></trkpt><trkpt lat="43.2551995" lon="11.1283568"><ele>573.0</ele><time>2026-04-04T08:20:47.509Z</time></trkpt><trkpt lat="43.2552537" lon="11.1282062"><ele>572.7142857142858</ele><time>2026-04-04T08:20:49.519Z</time></trkpt><trkpt lat="43.2552867" lon="11.1281236"><ele>572.4285714285714</ele><time>2026-04-04T08:20:50.504Z</time></trkpt><trkpt lat="43.2553206" lon="11.1280336"><ele>572.1428571428571</ele><time>2026-04-04T08:20:51.5Z</time></trkpt><trkpt lat="43.255352" lon="11.1279382"><ele>571.8571428571429</ele><time>2026-04-04T08:20:52.514Z</time></trkpt><trkpt lat="43.2553811" lon="11.1278415"><ele>571.5714285714286</ele><time>2026-04-04T08:20:53.5Z</time></trkpt><trkpt lat="43.2554063" lon="11.1277473"><ele>571.2857142857143</ele><time>2026-04-04T08:20:54.515Z</time></trkpt><trkpt lat="43.2554287" lon="11.1276512"><ele>571.0</ele><time>2026-04-04T08:20:55.501Z</time></trkpt><trkpt lat="43.2554516" lon="11.1275508"><ele>571.0</ele><time>2026-04-04T08:20:56.513Z</time></trkpt><trkpt lat="43.2554743" lon="11.1274468"><ele>571.0</ele><time>2026-04-04T08:20:57.506Z</time></trkpt><trkpt lat="43.2554888" lon="11.127345"><ele>571.0</ele><time>2026-04-04T08:20:58.526Z</time></trkpt><trkpt lat="43.2554927" lon="11.1272423"><ele>571.0</ele><time>2026-04-04T08:20:59.498Z</time></trkpt><trkpt lat="43.255494" lon="11.1271407"><ele>571.0</ele><time>2026-04-04T08:21:00.506Z</time></trkpt><trkpt lat="43.2554923" lon="11.127033"><ele>571.0</ele><time>2026-04-04T08:21:01.51Z</time></trkpt><trkpt lat="43.2554894" lon="11.12693"><ele>570.8333333333334</ele><time>2026-04-04T08:21:02.502Z</time></trkpt><trkpt lat="43.2554874" lon="11.1268271"><ele>570.6666666666667</ele><time>2026-04-04T08:21:03.501Z</time></trkpt><trkpt lat="43.2554888" lon="11.1267181"><ele>570.5</ele><time>2026-04-04T08:21:04.506Z</time></trkpt><trkpt lat="43.2554904" lon="11.1265942"><ele>570.3333333333334</ele><time>2026-04-04T08:21:05.513Z</time></trkpt><trkpt lat="43.2554997" lon="11.1264585"><ele>570.1666666666666</ele><time>2026-04-04T08:21:06.512Z</time></trkpt><trkpt lat="43.255519" lon="11.1263312"><ele>570.0</ele><time>2026-04-04T08:21:07.51Z</time></trkpt><trkpt lat="43.2555546" lon="11.1262291"><ele>570.0</ele><time>2026-04-04T08:21:08.505Z</time></trkpt><trkpt lat="43.2555927" lon="11.126146"><ele>570.0</ele><time>2026-04-04T08:21:09.512Z</time></trkpt><trkpt lat="43.2556446" lon="11.1260249"><ele>570.0</ele><time>2026-04-04T08:21:11.503Z</time></trkpt><trkpt lat="43.2556678" lon="11.1259389"><ele>570.0</ele><time>2026-04-04T08:21:13.502Z</time></trkpt><trkpt lat="43.2556338" lon="11.125825"><ele>570.0</ele><time>2026-04-04T08:21:17.512Z</time></trkpt><trkpt lat="43.2555911" lon="11.1257076"><ele>570.0</ele><time>2026-04-04T08:21:19.511Z</time></trkpt><trkpt lat="43.2555776" lon="11.1256055"><ele>571.3333333333334</ele><time>2026-04-04T08:21:20.515Z</time></trkpt><trkpt lat="43.2555667" lon="11.1255006"><ele>572.6666666666666</ele><time>2026-04-04T08:21:21.522Z</time></trkpt><trkpt lat="43.2555607" lon="11.1253873"><ele>574.0</ele><time>2026-04-04T08:21:22.525Z</time></trkpt><trkpt lat="43.255542" lon="11.1252899"><ele>575.3333333333333</ele><time>2026-04-04T08:21:23.523Z</time></trkpt><trkpt lat="43.2554959" lon="11.1251582"><ele>576.6666666666666</ele><time>2026-04-04T08:21:25.526Z</time></trkpt><trkpt lat="43.2554664" lon="11.1250788"><ele>578.0</ele><time>2026-04-04T08:21:27.507Z</time></trkpt><trkpt lat="43.255432" lon="11.1249977"><ele>579.6</ele><time>2026-04-04T08:21:31.52Z</time></trkpt><trkpt lat="43.2553613" lon="11.1248944"><ele>581.1999999999999</ele><time>2026-04-04T08:21:36.516Z</time></trkpt><trkpt lat="43.2552616" lon="11.1247478"><ele>582.8</ele><time>2026-04-04T08:21:38.513Z</time></trkpt><trkpt lat="43.2551979" lon="11.1246554"><ele>584.4</ele><time>2026-04-04T08:21:39.536Z</time></trkpt><trkpt lat="43.2551423" lon="11.1245533"><ele>586.0</ele><time>2026-04-04T08:21:40.515Z</time></trkpt><trkpt lat="43.2550897" lon="11.1244449"><ele>586.0</ele><time>2026-04-04T08:21:41.518Z</time></trkpt><trkpt lat="43.255051" lon="11.1243359"><ele>586.0</ele><time>2026-04-04T08:21:42.507Z</time></trkpt><trkpt lat="43.2550069" lon="11.1242259"><ele>586.0</ele><time>2026-04-04T08:21:43.517Z</time></trkpt><trkpt lat="43.2549587" lon="11.1241211"><ele>586.0</ele><time>2026-04-04T08:21:44.518Z</time></trkpt><trkpt lat="43.2549078" lon="11.124019"><ele>586.0</ele><time>2026-04-04T08:21:45.514Z</time></trkpt><trkpt lat="43.2548524" lon="11.1239228"><ele>586.0</ele><time>2026-04-04T08:21:46.519Z</time></trkpt><trkpt lat="43.2547997" lon="11.123832"><ele>583.0</ele><time>2026-04-04T08:21:47.513Z</time></trkpt><trkpt lat="43.2547551" lon="11.1237374"><ele>580.0</ele><time>2026-04-04T08:21:48.514Z</time></trkpt><trkpt lat="43.254715" lon="11.1236304"><ele>577.0</ele><time>2026-04-04T08:21:49.527Z</time></trkpt><trkpt lat="43.2546812" lon="11.1235086"><ele>574.0</ele><time>2026-04-04T08:21:50.508Z</time></trkpt><trkpt lat="43.2546549" lon="11.1233695"><ele>571.0</ele><time>2026-04-04T08:21:51.53Z</time></trkpt><trkpt lat="43.2546372" lon="11.1232311"><ele>570.6</ele><time>2026-04-04T08:21:52.525Z</time></trkpt><trkpt lat="43.2546202" lon="11.1230972"><ele>570.2</ele><time>2026-04-04T08:21:53.514Z</time></trkpt><trkpt lat="43.2546033" lon="11.122957"><ele>569.8</ele><time>2026-04-04T08:21:54.523Z</time></trkpt><trkpt lat="43.2545846" lon="11.1228109"><ele>569.4</ele><time>2026-04-04T08:21:55.503Z</time></trkpt><trkpt lat="43.254568" lon="11.122682"><ele>569.0</ele><time>2026-04-04T08:21:56.532Z</time></trkpt><trkpt lat="43.254556" lon="11.1225423"><ele>569.0</ele><time>2026-04-04T08:21:57.513Z</time></trkpt><trkpt lat="43.2545441" lon="11.122403"><ele>569.0</ele><time>2026-04-04T08:21:58.513Z</time></trkpt><trkpt lat="43.2545356" lon="11.1222668"><ele>569.0</ele><time>2026-04-04T08:21:59.52Z</time></trkpt><trkpt lat="43.2545185" lon="11.1221316"><ele>569.0</ele><time>2026-04-04T08:22:00.501Z</time></trkpt><trkpt lat="43.2544972" lon="11.1220054"><ele>569.0</ele><time>2026-04-04T08:22:01.509Z</time></trkpt><trkpt lat="43.2544815" lon="11.1218835"><ele>569.1666666666666</ele><time>2026-04-04T08:22:02.512Z</time></trkpt><trkpt lat="43.2544627" lon="11.1217735"><ele>569.3333333333333</ele><time>2026-04-04T08:22:03.52Z</time></trkpt><trkpt lat="43.2544338" lon="11.1216821"><ele>569.5</ele><time>2026-04-04T08:22:04.508Z</time></trkpt><trkpt lat="43.2543929" lon="11.1215898"><ele>569.6666666666666</ele><time>2026-04-04T08:22:05.502Z</time></trkpt><trkpt lat="43.2543309" lon="11.1214951"><ele>569.8333333333334</ele><time>2026-04-04T08:22:06.525Z</time></trkpt><trkpt lat="43.2542493" lon="11.1213786"><ele>570.0</ele><time>2026-04-04T08:22:07.514Z</time></trkpt><trkpt lat="43.2541686" lon="11.1212649"><ele>570.0</ele><time>2026-04-04T08:22:08.516Z</time></trkpt><trkpt lat="43.2540973" lon="11.1211634"><ele>570.0</ele><time>2026-04-04T08:22:09.513Z</time></trkpt><trkpt lat="43.2540463" lon="11.1210762"><ele>570.0</ele><time>2026-04-04T08:22:10.507Z</time></trkpt><trkpt lat="43.253989" lon="11.1209964"><ele>570.0</ele><time>2026-04-04T08:22:11.514Z</time></trkpt><trkpt lat="43.2539301" lon="11.1209168"><ele>570.0</ele><time>2026-04-04T08:22:12.528Z</time></trkpt><trkpt lat="43.2538735" lon="11.1208485"><ele>570.0</ele><time>2026-04-04T08:22:13.507Z</time></trkpt><trkpt lat="43.2538074" lon="11.1207814"><ele>569.6</ele><time>2026-04-04T08:22:14.519Z</time></trkpt><trkpt lat="43.2537286" lon="11.1207175"><ele>569.2</ele><time>2026-04-04T08:22:15.514Z</time></trkpt><trkpt lat="43.2536573" lon="11.1206493"><ele>568.8</ele><time>2026-04-04T08:22:16.527Z</time></trkpt><trkpt lat="43.2535735" lon="11.1205508"><ele>568.4</ele><time>2026-04-04T08:22:17.523Z</time></trkpt><trkpt lat="43.2535007" lon="11.1204355"><ele>568.0</ele><time>2026-04-04T08:22:18.525Z</time></trkpt><trkpt lat="43.2534391" lon="11.1203355"><ele>568.0</ele><time>2026-04-04T08:22:19.518Z</time></trkpt><trkpt lat="43.2533799" lon="11.1202323"><ele>568.0</ele><time>2026-04-04T08:22:20.516Z</time></trkpt><trkpt lat="43.2533134" lon="11.1201372"><ele>568.0</ele><time>2026-04-04T08:22:21.521Z</time></trkpt><trkpt lat="43.253229" lon="11.1200512"><ele>568.0</ele><time>2026-04-04T08:22:22.517Z</time></trkpt><trkpt lat="43.2531294" lon="11.1199678"><ele>568.0</ele><time>2026-04-04T08:22:23.523Z</time></trkpt><trkpt lat="43.2530339" lon="11.1198991"><ele>567.0</ele><time>2026-04-04T08:22:24.515Z</time></trkpt><trkpt lat="43.2529309" lon="11.1198414"><ele>566.0</ele><time>2026-04-04T08:22:25.523Z</time></trkpt><trkpt lat="43.2528326" lon="11.1197919"><ele>565.0</ele><time>2026-04-04T08:22:26.519Z</time></trkpt><trkpt lat="43.2527453" lon="11.119743"><ele>564.0</ele><time>2026-04-04T08:22:27.53Z</time></trkpt><trkpt lat="43.2526621" lon="11.1196917"><ele>563.0</ele><time>2026-04-04T08:22:28.522Z</time></trkpt><trkpt lat="43.2525837" lon="11.1196358"><ele>563.0</ele><time>2026-04-04T08:22:29.524Z</time></trkpt><trkpt lat="43.2525121" lon="11.1195694"><ele>563.0</ele><time>2026-04-04T08:22:30.505Z</time></trkpt><trkpt lat="43.2524432" lon="11.1195037"><ele>563.0</ele><time>2026-04-04T08:22:31.512Z</time></trkpt><trkpt lat="43.2523718" lon="11.1194412"><ele>563.0</ele><time>2026-04-04T08:22:32.514Z</time></trkpt><trkpt lat="43.2522941" lon="11.1193902"><ele>563.0</ele><time>2026-04-04T08:22:33.521Z</time></trkpt><trkpt lat="43.2522276" lon="11.1193447"><ele>563.0</ele><time>2026-04-04T08:22:34.522Z</time></trkpt><trkpt lat="43.2521553" lon="11.1193167"><ele>562.1428571428571</ele><time>2026-04-04T08:22:35.517Z</time></trkpt><trkpt lat="43.2520853" lon="11.1193017"><ele>561.2857142857143</ele><time>2026-04-04T08:22:36.528Z</time></trkpt><trkpt lat="43.2520144" lon="11.1193031"><ele>560.4285714285714</ele><time>2026-04-04T08:22:37.513Z</time></trkpt><trkpt lat="43.2519419" lon="11.1193157"><ele>559.5714285714286</ele><time>2026-04-04T08:22:38.52Z</time></trkpt><trkpt lat="43.2518735" lon="11.1193395"><ele>558.7142857142857</ele><time>2026-04-04T08:22:39.521Z</time></trkpt><trkpt lat="43.2518107" lon="11.1193597"><ele>557.8571428571429</ele><time>2026-04-04T08:22:40.514Z</time></trkpt><trkpt lat="43.2517396" lon="11.1193686"><ele>557.0</ele><time>2026-04-04T08:22:41.516Z</time></trkpt><trkpt lat="43.2516671" lon="11.1193585"><ele>557.0</ele><time>2026-04-04T08:22:42.513Z</time></trkpt><trkpt lat="43.2515775" lon="11.1193325"><ele>557.0</ele><time>2026-04-04T08:22:43.518Z</time></trkpt><trkpt lat="43.251476" lon="11.1193063"><ele>557.0</ele><time>2026-04-04T08:22:44.509Z</time></trkpt><trkpt lat="43.2513896" lon="11.1192779"><ele>557.0</ele><time>2026-04-04T08:22:45.523Z</time></trkpt><trkpt lat="43.251305" lon="11.1192536"><ele>557.0</ele><time>2026-04-04T08:22:46.517Z</time></trkpt><trkpt lat="43.2512301" lon="11.1192351"><ele>557.0</ele><time>2026-04-04T08:22:47.509Z</time></trkpt><trkpt lat="43.2511642" lon="11.1192352"><ele>556.2857142857143</ele><time>2026-04-04T08:22:48.519Z</time></trkpt><trkpt lat="43.2511013" lon="11.1192564"><ele>555.5714285714286</ele><time>2026-04-04T08:22:49.513Z</time></trkpt><trkpt lat="43.2510382" lon="11.1192886"><ele>554.8571428571429</ele><time>2026-04-04T08:22:50.522Z</time></trkpt><trkpt lat="43.250984" lon="11.1193377"><ele>554.1428571428571</ele><time>2026-04-04T08:22:51.513Z</time></trkpt><trkpt lat="43.2509301" lon="11.1193953"><ele>553.4285714285714</ele><time>2026-04-04T08:22:52.516Z</time></trkpt><trkpt lat="43.2508722" lon="11.1194596"><ele>552.7142857142858</ele><time>2026-04-04T08:22:53.523Z</time></trkpt><trkpt lat="43.2508047" lon="11.1195141"><ele>552.0</ele><time>2026-04-04T08:22:54.514Z</time></trkpt><trkpt lat="43.2507152" lon="11.1195562"><ele>551.0</ele><time>2026-04-04T08:22:55.512Z</time></trkpt><trkpt lat="43.2506126" lon="11.1195784"><ele>550.0</ele><time>2026-04-04T08:22:56.517Z</time></trkpt><trkpt lat="43.2505067" lon="11.1196055"><ele>549.0</ele><time>2026-04-04T08:22:57.504Z</time></trkpt><trkpt lat="43.250392" lon="11.1196212"><ele>548.0</ele><time>2026-04-04T08:22:58.524Z</time></trkpt><trkpt lat="43.2502796" lon="11.1196373"><ele>547.0</ele><time>2026-04-04T08:22:59.514Z</time></trkpt><trkpt lat="43.2501623" lon="11.1196544"><ele>547.0</ele><time>2026-04-04T08:23:00.519Z</time></trkpt><trkpt lat="43.2500501" lon="11.1196772"><ele>547.0</ele><time>2026-04-04T08:23:01.531Z</time></trkpt><trkpt lat="43.2499475" lon="11.1197016"><ele>547.0</ele><time>2026-04-04T08:23:02.506Z</time></trkpt><trkpt lat="43.2498435" lon="11.1197198"><ele>547.0</ele><time>2026-04-04T08:23:03.54Z</time></trkpt><trkpt lat="43.249741" lon="11.1197413"><ele>547.0</ele><time>2026-04-04T08:23:04.526Z</time></trkpt><trkpt lat="43.249636" lon="11.1197594"><ele>545.4</ele><time>2026-04-04T08:23:05.506Z</time></trkpt><trkpt lat="43.249543" lon="11.1197726"><ele>543.8000000000001</ele><time>2026-04-04T08:23:06.52Z</time></trkpt><trkpt lat="43.2494521" lon="11.11978"><ele>542.2</ele><time>2026-04-04T08:23:07.512Z</time></trkpt><trkpt lat="43.2493731" lon="11.1197938"><ele>540.6</ele><time>2026-04-04T08:23:08.52Z</time></trkpt><trkpt lat="43.2493026" lon="11.1198057"><ele>539.0</ele><time>2026-04-04T08:23:09.521Z</time></trkpt><trkpt lat="43.2491885" lon="11.1198492"><ele>538.8</ele><time>2026-04-04T08:23:11.527Z</time></trkpt><trkpt lat="43.249087" lon="11.1199294"><ele>538.5999999999999</ele><time>2026-04-04T08:23:13.522Z</time></trkpt><trkpt lat="43.2489917" lon="11.1200094"><ele>538.4</ele><time>2026-04-04T08:23:15.512Z</time></trkpt><trkpt lat="43.2488838" lon="11.1201348"><ele>538.1999999999999</ele><time>2026-04-04T08:23:17.52Z</time></trkpt><trkpt lat="43.2488352" lon="11.1202074"><ele>538.0</ele><time>2026-04-04T08:23:18.526Z</time></trkpt><trkpt lat="43.2487924" lon="11.1202808"><ele>535.8</ele><time>2026-04-04T08:23:19.512Z</time></trkpt><trkpt lat="43.2487506" lon="11.120355"><ele>533.5999999999999</ele><time>2026-04-04T08:23:20.531Z</time></trkpt><trkpt lat="43.248668" lon="11.1204575"><ele>531.4000000000001</ele><time>2026-04-04T08:23:22.524Z</time></trkpt><trkpt lat="43.2485747" lon="11.1205385"><ele>529.2</ele><time>2026-04-04T08:23:24.506Z</time></trkpt><trkpt lat="43.2484728" lon="11.1205741"><ele>527.0</ele><time>2026-04-04T08:23:26.503Z</time></trkpt><trkpt lat="43.2483574" lon="11.1205782"><ele>527.0</ele><time>2026-04-04T08:23:28.516Z</time></trkpt><trkpt lat="43.2482515" lon="11.1205876"><ele>527.0</ele><time>2026-04-04T08:23:30.522Z</time></trkpt><trkpt lat="43.2481655" lon="11.1206335"><ele>527.0</ele><time>2026-04-04T08:23:32.536Z</time></trkpt><trkpt lat="43.2480933" lon="11.120693"><ele>527.0</ele><time>2026-04-04T08:23:34.507Z</time></trkpt><trkpt lat="43.2480278" lon="11.1207422"><ele>527.0</ele><time>2026-04-04T08:23:36.527Z</time></trkpt><trkpt lat="43.2479476" lon="11.1207759"><ele>527.0</ele><time>2026-04-04T08:23:39.518Z</time></trkpt><trkpt lat="43.2480251" lon="11.120796"><ele>527.0</ele><time>2026-04-04T08:24:15.5Z</time></trkpt><trkpt lat="43.2481076" lon="11.1207007"><ele>527.0</ele><time>2026-04-04T08:24:18.528Z</time></trkpt><trkpt lat="43.2481969" lon="11.1206522"><ele>527.0</ele><time>2026-04-04T08:24:20.525Z</time></trkpt><trkpt lat="43.2483104" lon="11.1205997"><ele>527.0</ele><time>2026-04-04T08:24:22.518Z</time></trkpt><trkpt lat="43.248441" lon="11.1205773"><ele>527.0</ele><time>2026-04-04T08:24:24.521Z</time></trkpt><trkpt lat="43.2485125" lon="11.1205713"><ele>527.0</ele><time>2026-04-04T08:24:25.511Z</time></trkpt><trkpt lat="43.2485808" lon="11.1205557"><ele>527.0</ele><time>2026-04-04T08:24:26.512Z</time></trkpt><trkpt lat="43.2486866" lon="11.1204957"><ele>527.0</ele><time>2026-04-04T08:24:28.526Z</time></trkpt><trkpt lat="43.2487376" lon="11.1204441"><ele>527.0</ele><time>2026-04-04T08:24:29.504Z</time></trkpt><trkpt lat="43.2487909" lon="11.12039"><ele>527.0</ele><time>2026-04-04T08:24:30.506Z</time></trkpt><trkpt lat="43.2488371" lon="11.120321"><ele>527.0</ele><time>2026-04-04T08:24:31.51Z</time></trkpt><trkpt lat="43.248899" lon="11.1201916"><ele>527.0</ele><time>2026-04-04T08:24:33.498Z</time></trkpt><trkpt lat="43.2489661" lon="11.1201199"><ele>527.0</ele><time>2026-04-04T08:24:36.497Z</time></trkpt><trkpt lat="43.2490257" lon="11.1200224"><ele>527.0</ele><time>2026-04-04T08:25:04.517Z</time></trkpt><trkpt lat="43.2491174" lon="11.1199366"><ele>527.0</ele><time>2026-04-04T08:25:06.521Z</time></trkpt><trkpt lat="43.2491976" lon="11.1198691"><ele>526.1666666666666</ele><time>2026-04-04T08:25:08.517Z</time></trkpt><trkpt lat="43.2492091" lon="11.1197758"><ele>525.3333333333333</ele><time>2026-04-04T08:25:12.512Z</time></trkpt><trkpt lat="43.2491598" lon="11.119716"><ele>524.5</ele><time>2026-04-04T08:25:14.519Z</time></trkpt><trkpt lat="43.2490874" lon="11.1196379"><ele>523.6666666666666</ele><time>2026-04-04T08:25:16.534Z</time></trkpt><trkpt lat="43.2490181" lon="11.1195602"><ele>522.8333333333334</ele><time>2026-04-04T08:25:18.519Z</time></trkpt><trkpt lat="43.2489739" lon="11.1194548"><ele>522.0</ele><time>2026-04-04T08:25:20.515Z</time></trkpt><trkpt lat="43.2489399" lon="11.1193347"><ele>522.0</ele><time>2026-04-04T08:25:22.518Z</time></trkpt><trkpt lat="43.248923" lon="11.1192172"><ele>522.0</ele><time>2026-04-04T08:25:24.52Z</time></trkpt><trkpt lat="43.2488891" lon="11.119129"><ele>522.0</ele><time>2026-04-04T08:25:26.517Z</time></trkpt><trkpt lat="43.2488133" lon="11.1191037"><ele>522.0</ele><time>2026-04-04T08:25:28.503Z</time></trkpt><trkpt lat="43.2487319" lon="11.1191285"><ele>522.0</ele><time>2026-04-04T08:25:30.496Z</time></trkpt><trkpt lat="43.2486888" lon="11.1191986"><ele>522.0</ele><time>2026-04-04T08:25:32.51Z</time></trkpt><trkpt lat="43.2486655" lon="11.1193069"><ele>522.0</ele><time>2026-04-04T08:25:34.525Z</time></trkpt><trkpt lat="43.2486465" lon="11.1194726"><ele>522.0</ele><time>2026-04-04T08:25:36.527Z</time></trkpt><trkpt lat="43.2486445" lon="11.1195742"><ele>522.0</ele><time>2026-04-04T08:25:37.524Z</time></trkpt><trkpt lat="43.248635" lon="11.1197401"><ele>522.0</ele><time>2026-04-04T08:25:39.532Z</time></trkpt><trkpt lat="43.2486321" lon="11.1198922"><ele>522.0</ele><time>2026-04-04T08:25:41.508Z</time></trkpt><trkpt lat="43.248612" lon="11.1200253"><ele>523.0</ele><time>2026-04-04T08:25:43.529Z</time></trkpt><trkpt lat="43.2485532" lon="11.1201507"><ele>524.0</ele><time>2026-04-04T08:25:45.517Z</time></trkpt><trkpt lat="43.2484742" lon="11.1202488"><ele>525.0</ele><time>2026-04-04T08:25:47.518Z</time></trkpt><trkpt lat="43.2483781" lon="11.1203087"><ele>526.0</ele><time>2026-04-04T08:25:49.54Z</time></trkpt><trkpt lat="43.2482759" lon="11.1203536"><ele>527.0</ele><time>2026-04-04T08:25:51.519Z</time></trkpt><trkpt lat="43.2481647" lon="11.1203863"><ele>524.0</ele><time>2026-04-04T08:25:53.524Z</time></trkpt><trkpt lat="43.2480363" lon="11.1204198"><ele>521.0</ele><time>2026-04-04T08:25:55.512Z</time></trkpt><trkpt lat="43.247974" lon="11.1204376"><ele>518.0</ele><time>2026-04-04T08:25:56.52Z</time></trkpt><trkpt lat="43.2478636" lon="11.1204919"><ele>515.0</ele><time>2026-04-04T08:25:58.514Z</time></trkpt><trkpt lat="43.247767" lon="11.1205587"><ele>512.0</ele><time>2026-04-04T08:26:00.522Z</time></trkpt><trkpt lat="43.2476939" lon="11.1206168"><ele>512.0</ele><time>2026-04-04T08:26:02.517Z</time></trkpt><trkpt lat="43.2476031" lon="11.1206266"><ele>512.0</ele><time>2026-04-04T08:26:05.521Z</time></trkpt><trkpt lat="43.247501" lon="11.1206302"><ele>512.0</ele><time>2026-04-04T08:26:07.506Z</time></trkpt><trkpt lat="43.2473895" lon="11.1206312"><ele>512.0</ele><time>2026-04-04T08:26:09.508Z</time></trkpt><trkpt lat="43.2472811" lon="11.1206423"><ele>512.0</ele><time>2026-04-04T08:26:11.513Z</time></trkpt><trkpt lat="43.247169" lon="11.1206499"><ele>511.0</ele><time>2026-04-04T08:26:13.504Z</time></trkpt><trkpt lat="43.2470573" lon="11.1206546"><ele>510.00000000000006</ele><time>2026-04-04T08:26:15.515Z</time></trkpt><trkpt lat="43.2469544" lon="11.120664"><ele>509.00000000000006</ele><time>2026-04-04T08:26:17.517Z</time></trkpt><trkpt lat="43.246872" lon="11.1206962"><ele>508.0</ele><time>2026-04-04T08:26:19.517Z</time></trkpt><trkpt lat="43.2467901" lon="11.1207588"><ele>507.0</ele><time>2026-04-04T08:26:21.514Z</time></trkpt><trkpt lat="43.2467216" lon="11.1208432"><ele>507.0</ele><time>2026-04-04T08:26:23.523Z</time></trkpt><trkpt lat="43.246658" lon="11.1209361"><ele>507.00000000000006</ele><time>2026-04-04T08:26:25.512Z</time></trkpt><trkpt lat="43.2465927" lon="11.1210385"><ele>507.00000000000006</ele><time>2026-04-04T08:26:27.516Z</time></trkpt><trkpt lat="43.2465316" lon="11.1211132"><ele>507.0</ele><time>2026-04-04T08:26:29.513Z</time></trkpt><trkpt lat="43.2464313" lon="11.1211205"><ele>507.0</ele><time>2026-04-04T08:26:32.499Z</time></trkpt><trkpt lat="43.2463204" lon="11.1210851"><ele>505.5</ele><time>2026-04-04T08:26:34.522Z</time></trkpt><trkpt lat="43.2462477" lon="11.1210518"><ele>504.0</ele><time>2026-04-04T08:26:35.518Z</time></trkpt><trkpt lat="43.2461663" lon="11.1210259"><ele>502.5</ele><time>2026-04-04T08:26:36.5Z</time></trkpt><trkpt lat="43.2460892" lon="11.1209984"><ele>501.0</ele><time>2026-04-04T08:26:37.51Z</time></trkpt><trkpt lat="43.2460089" lon="11.1209717"><ele>499.5</ele><time>2026-04-04T08:26:38.514Z</time></trkpt><trkpt lat="43.2459244" lon="11.1209432"><ele>498.0</ele><time>2026-04-04T08:26:39.518Z</time></trkpt><trkpt lat="43.2458373" lon="11.1209198"><ele>498.0</ele><time>2026-04-04T08:26:40.512Z</time></trkpt><trkpt lat="43.2457523" lon="11.1208987"><ele>497.99999999999994</ele><time>2026-04-04T08:26:41.499Z</time></trkpt><trkpt lat="43.245676" lon="11.120879"><ele>498.0</ele><time>2026-04-04T08:26:42.531Z</time></trkpt><trkpt lat="43.2456055" lon="11.12087"><ele>498.0</ele><time>2026-04-04T08:26:43.514Z</time></trkpt><trkpt lat="43.2455353" lon="11.1208491"><ele>497.99999999999994</ele><time>2026-04-04T08:26:44.523Z</time></trkpt><trkpt lat="43.2454669" lon="11.1208362"><ele>498.0</ele><time>2026-04-04T08:26:45.504Z</time></trkpt><trkpt lat="43.2453984" lon="11.1208158"><ele>498.0</ele><time>2026-04-04T08:26:46.513Z</time></trkpt><trkpt lat="43.2453286" lon="11.120792"><ele>497.2857142857143</ele><time>2026-04-04T08:26:47.524Z</time></trkpt><trkpt lat="43.2452575" lon="11.1207687"><ele>496.57142857142856</ele><time>2026-04-04T08:26:48.511Z</time></trkpt><trkpt lat="43.2451946" lon="11.1207614"><ele>495.85714285714283</ele><time>2026-04-04T08:26:49.524Z</time></trkpt><trkpt lat="43.2451308" lon="11.1207643"><ele>495.1428571428571</ele><time>2026-04-04T08:26:50.521Z</time></trkpt><trkpt lat="43.245062" lon="11.1207706"><ele>494.42857142857144</ele><time>2026-04-04T08:26:51.52Z</time></trkpt><trkpt lat="43.2449895" lon="11.1207788"><ele>493.71428571428567</ele><time>2026-04-04T08:26:52.514Z</time></trkpt><trkpt lat="43.2449109" lon="11.1207856"><ele>493.0</ele><time>2026-04-04T08:26:53.521Z</time></trkpt><trkpt lat="43.2448373" lon="11.1207889"><ele>491.33333333333337</ele><time>2026-04-04T08:26:54.525Z</time></trkpt><trkpt lat="43.2447643" lon="11.1207929"><ele>489.6666666666667</ele><time>2026-04-04T08:26:55.509Z</time></trkpt><trkpt lat="43.2446963" lon="11.1208031"><ele>488.0</ele><time>2026-04-04T08:26:56.52Z</time></trkpt><trkpt lat="43.2445792" lon="11.1208179"><ele>486.33333333333337</ele><time>2026-04-04T08:26:58.51Z</time></trkpt><trkpt lat="43.2444892" lon="11.1208526"><ele>484.6666666666667</ele><time>2026-04-04T08:27:00.519Z</time></trkpt><trkpt lat="43.2444297" lon="11.1209419"><ele>483.0</ele><time>2026-04-04T08:27:02.511Z</time></trkpt><trkpt lat="43.244405" lon="11.1210444"><ele>483.0</ele><time>2026-04-04T08:27:03.514Z</time></trkpt><trkpt lat="43.2443896" lon="11.12113"><ele>482.99999999999994</ele><time>2026-04-04T08:27:04.503Z</time></trkpt><trkpt lat="43.2443755" lon="11.121216"><ele>482.99999999999994</ele><time>2026-04-04T08:27:05.516Z</time></trkpt><trkpt lat="43.2443411" lon="11.121376"><ele>483.0</ele><time>2026-04-04T08:27:07.505Z</time></trkpt><trkpt lat="43.2443019" lon="11.1215234"><ele>483.0</ele><time>2026-04-04T08:27:09.512Z</time></trkpt><trkpt lat="43.2442479" lon="11.1216628"><ele>483.0</ele><time>2026-04-04T08:27:11.509Z</time></trkpt><trkpt lat="43.2441911" lon="11.121779"><ele>482.99999999999994</ele><time>2026-04-04T08:27:13.511Z</time></trkpt><trkpt lat="43.2441297" lon="11.1218982"><ele>482.99999999999994</ele><time>2026-04-04T08:27:15.519Z</time></trkpt><trkpt lat="43.2440334" lon="11.1219802"><ele>483.0</ele><time>2026-04-04T08:27:17.52Z</time></trkpt><trkpt lat="43.2439314" lon="11.122008"><ele>483.0</ele><time>2026-04-04T08:27:19.516Z</time></trkpt><trkpt lat="43.2438201" lon="11.1220255"><ele>481.0</ele><time>2026-04-04T08:27:21.511Z</time></trkpt><trkpt lat="43.2437003" lon="11.122048"><ele>479.0</ele><time>2026-04-04T08:27:23.521Z</time></trkpt><trkpt lat="43.2435836" lon="11.122085"><ele>477.0</ele><time>2026-04-04T08:27:25.514Z</time></trkpt><trkpt lat="43.2434744" lon="11.1221207"><ele>475.0</ele><time>2026-04-04T08:27:27.51Z</time></trkpt><trkpt lat="43.2433426" lon="11.1221415"><ele>475.0</ele><time>2026-04-04T08:27:29.507Z</time></trkpt><trkpt lat="43.2432472" lon="11.1221366"><ele>475.0</ele><time>2026-04-04T08:27:30.519Z</time></trkpt><trkpt lat="43.2431354" lon="11.1221113"><ele>475.0</ele><time>2026-04-04T08:27:31.511Z</time></trkpt><trkpt lat="43.2430211" lon="11.122091"><ele>475.0</ele><time>2026-04-04T08:27:32.512Z</time></trkpt><trkpt lat="43.2429153" lon="11.1220724"><ele>475.0</ele><time>2026-04-04T08:27:33.519Z</time></trkpt><trkpt lat="43.2428159" lon="11.1220545"><ele>473.8</ele><time>2026-04-04T08:27:34.51Z</time></trkpt><trkpt lat="43.2427157" lon="11.1220394"><ele>472.6</ele><time>2026-04-04T08:27:35.508Z</time></trkpt><trkpt lat="43.2426222" lon="11.1220203"><ele>471.4</ele><time>2026-04-04T08:27:36.517Z</time></trkpt><trkpt lat="43.2425211" lon="11.1220016"><ele>470.2</ele><time>2026-04-04T08:27:37.511Z</time></trkpt><trkpt lat="43.2424237" lon="11.1219815"><ele>469.0</ele><time>2026-04-04T08:27:38.51Z</time></trkpt><trkpt lat="43.2423059" lon="11.121964"><ele>470.75</ele><time>2026-04-04T08:27:39.518Z</time></trkpt><trkpt lat="43.2421783" lon="11.1219456"><ele>472.5</ele><time>2026-04-04T08:27:40.511Z</time></trkpt><trkpt lat="43.2420612" lon="11.1219172"><ele>474.25</ele><time>2026-04-04T08:27:41.521Z</time></trkpt><trkpt lat="43.2419486" lon="11.1218907"><ele>476.0</ele><time>2026-04-04T08:27:42.507Z</time></trkpt><trkpt lat="43.241842" lon="11.1218678"><ele>476.0</ele><time>2026-04-04T08:27:43.519Z</time></trkpt><trkpt lat="43.241747" lon="11.1218388"><ele>476.0</ele><time>2026-04-04T08:27:44.514Z</time></trkpt><trkpt lat="43.2416491" lon="11.1218201"><ele>476.0</ele><time>2026-04-04T08:27:45.511Z</time></trkpt><trkpt lat="43.2415524" lon="11.1217969"><ele>476.0</ele><time>2026-04-04T08:27:46.524Z</time></trkpt><trkpt lat="43.2414606" lon="11.1217778"><ele>476.0</ele><time>2026-04-04T08:27:47.528Z</time></trkpt><trkpt lat="43.241372" lon="11.1217514"><ele>476.0</ele><time>2026-04-04T08:27:48.512Z</time></trkpt><trkpt lat="43.2412862" lon="11.1217259"><ele>476.0</ele><time>2026-04-04T08:27:49.529Z</time></trkpt><trkpt lat="43.2412105" lon="11.1217063"><ele>476.0</ele><time>2026-04-04T08:27:50.513Z</time></trkpt><trkpt lat="43.2411455" lon="11.121713"><ele>476.0</ele><time>2026-04-04T08:27:51.506Z</time></trkpt><trkpt lat="43.2410297" lon="11.121744"><ele>476.0</ele><time>2026-04-04T08:27:53.506Z</time></trkpt><trkpt lat="43.2409164" lon="11.1218627"><ele>476.0</ele><time>2026-04-04T08:27:55.512Z</time></trkpt><trkpt lat="43.2408479" lon="11.1219539"><ele>476.0</ele><time>2026-04-04T08:27:56.5Z</time></trkpt><trkpt lat="43.2407793" lon="11.122054"><ele>476.0</ele><time>2026-04-04T08:27:57.504Z</time></trkpt><trkpt lat="43.2407161" lon="11.1221544"><ele>476.0</ele><time>2026-04-04T08:27:58.518Z</time></trkpt><trkpt lat="43.2406516" lon="11.1222519"><ele>476.0</ele><time>2026-04-04T08:27:59.515Z</time></trkpt><trkpt lat="43.2405985" lon="11.1223383"><ele>475.16666666666663</ele><time>2026-04-04T08:28:00.498Z</time></trkpt><trkpt lat="43.240536" lon="11.1224137"><ele>474.3333333333333</ele><time>2026-04-04T08:28:01.508Z</time></trkpt><trkpt lat="43.2404706" lon="11.1224942"><ele>473.5</ele><time>2026-04-04T08:28:02.514Z</time></trkpt><trkpt lat="43.2403955" lon="11.1225734"><ele>472.66666666666663</ele><time>2026-04-04T08:28:03.527Z</time></trkpt><trkpt lat="43.2403157" lon="11.1226406"><ele>471.8333333333333</ele><time>2026-04-04T08:28:04.508Z</time></trkpt><trkpt lat="43.2402413" lon="11.1227026"><ele>471.0</ele><time>2026-04-04T08:28:05.526Z</time></trkpt><trkpt lat="43.240161" lon="11.1227784"><ele>471.0</ele><time>2026-04-04T08:28:06.507Z</time></trkpt><trkpt lat="43.2400846" lon="11.1228423"><ele>471.0</ele><time>2026-04-04T08:28:07.505Z</time></trkpt><trkpt lat="43.2400139" lon="11.1229107"><ele>471.0</ele><time>2026-04-04T08:28:08.518Z</time></trkpt><trkpt lat="43.2399497" lon="11.1230022"><ele>471.0</ele><time>2026-04-04T08:28:09.509Z</time></trkpt><trkpt lat="43.2398875" lon="11.1230871"><ele>471.0</ele><time>2026-04-04T08:28:10.525Z</time></trkpt><trkpt lat="43.2398312" lon="11.1231554"><ele>471.0</ele><time>2026-04-04T08:28:11.515Z</time></trkpt><trkpt lat="43.2397825" lon="11.123224"><ele>470.57142857142867</ele><time>2026-04-04T08:28:12.515Z</time></trkpt><trkpt lat="43.2397327" lon="11.1232859"><ele>470.14285714285717</ele><time>2026-04-04T08:28:13.523Z</time></trkpt><trkpt lat="43.2396798" lon="11.1233484"><ele>469.7142857142858</ele><time>2026-04-04T08:28:14.519Z</time></trkpt><trkpt lat="43.2396297" lon="11.1234099"><ele>469.28571428571433</ele><time>2026-04-04T08:28:15.51Z</time></trkpt><trkpt lat="43.2395705" lon="11.1234828"><ele>468.8571428571429</ele><time>2026-04-04T08:28:17.512Z</time></trkpt><trkpt lat="43.2395118" lon="11.1235483"><ele>468.42857142857144</ele><time>2026-04-04T08:28:20.527Z</time></trkpt><trkpt lat="43.2395728" lon="11.1234757"><ele>468.0</ele><time>2026-04-04T08:29:00.523Z</time></trkpt><trkpt lat="43.2396456" lon="11.1233874"><ele>468.0</ele><time>2026-04-04T08:29:02.514Z</time></trkpt><trkpt lat="43.23974" lon="11.12328"><ele>467.99999999999994</ele><time>2026-04-04T08:29:04.505Z</time></trkpt><trkpt lat="43.2398333" lon="11.1231612"><ele>467.99999999999994</ele><time>2026-04-04T08:29:06.52Z</time></trkpt><trkpt lat="43.2398804" lon="11.1231008"><ele>468.0</ele><time>2026-04-04T08:29:07.512Z</time></trkpt><trkpt lat="43.2399629" lon="11.1229994"><ele>468.0</ele><time>2026-04-04T08:29:09.511Z</time></trkpt><trkpt lat="43.2400443" lon="11.1229014"><ele>468.5</ele><time>2026-04-04T08:29:11.516Z</time></trkpt><trkpt lat="43.2401413" lon="11.1228001"><ele>469.0</ele><time>2026-04-04T08:29:13.527Z</time></trkpt><trkpt lat="43.2402074" lon="11.1227387"><ele>469.5</ele><time>2026-04-04T08:29:14.521Z</time></trkpt><trkpt lat="43.2402642" lon="11.1226921"><ele>470.0</ele><time>2026-04-04T08:29:15.505Z</time></trkpt><trkpt lat="43.2403356" lon="11.1226334"><ele>470.5</ele><time>2026-04-04T08:29:16.521Z</time></trkpt><trkpt lat="43.2403992" lon="11.1225724"><ele>471.0</ele><time>2026-04-04T08:29:17.52Z</time></trkpt><trkpt lat="43.2404581" lon="11.1225198"><ele>471.0</ele><time>2026-04-04T08:29:18.521Z</time></trkpt><trkpt lat="43.2405161" lon="11.1224579"><ele>471.0</ele><time>2026-04-04T08:29:19.538Z</time></trkpt><trkpt lat="43.2405679" lon="11.1223917"><ele>471.0</ele><time>2026-04-04T08:29:20.515Z</time></trkpt><trkpt lat="43.2406134" lon="11.1223294"><ele>471.0</ele><time>2026-04-04T08:29:21.527Z</time></trkpt><trkpt lat="43.2406639" lon="11.1222717"><ele>471.0</ele><time>2026-04-04T08:29:22.523Z</time></trkpt><trkpt lat="43.2407519" lon="11.1221533"><ele>471.0</ele><time>2026-04-04T08:29:24.522Z</time></trkpt><trkpt lat="43.2407976" lon="11.1220856"><ele>472.0</ele><time>2026-04-04T08:29:25.522Z</time></trkpt><trkpt lat="43.2408476" lon="11.122004"><ele>473.0</ele><time>2026-04-04T08:29:26.516Z</time></trkpt><trkpt lat="43.240901" lon="11.121947"><ele>474.0</ele><time>2026-04-04T08:29:27.521Z</time></trkpt><trkpt lat="43.2409973" lon="11.1218442"><ele>475.0</ele><time>2026-04-04T08:29:29.511Z</time></trkpt><trkpt lat="43.2410752" lon="11.1217666"><ele>476.0</ele><time>2026-04-04T08:29:31.516Z</time></trkpt><trkpt lat="43.2411838" lon="11.121738"><ele>475.99999999999994</ele><time>2026-04-04T08:29:33.511Z</time></trkpt><trkpt lat="43.2413107" lon="11.1217471"><ele>476.0</ele><time>2026-04-04T08:29:35.518Z</time></trkpt><trkpt lat="43.241377" lon="11.1217565"><ele>476.0</ele><time>2026-04-04T08:29:36.508Z</time></trkpt><trkpt lat="43.2414527" lon="11.1217743"><ele>476.0</ele><time>2026-04-04T08:29:37.529Z</time></trkpt><trkpt lat="43.241533" lon="11.1217951"><ele>475.99999999999994</ele><time>2026-04-04T08:29:38.517Z</time></trkpt><trkpt lat="43.2416123" lon="11.1218129"><ele>476.0</ele><time>2026-04-04T08:29:39.513Z</time></trkpt><trkpt lat="43.241687" lon="11.1218336"><ele>475.99999999999994</ele><time>2026-04-04T08:29:40.517Z</time></trkpt><trkpt lat="43.2417629" lon="11.1218512"><ele>476.0</ele><time>2026-04-04T08:29:41.519Z</time></trkpt><trkpt lat="43.2418397" lon="11.1218642"><ele>476.0</ele><time>2026-04-04T08:29:42.514Z</time></trkpt><trkpt lat="43.2419114" lon="11.1218879"><ele>476.0</ele><time>2026-04-04T08:29:43.537Z</time></trkpt><trkpt lat="43.2419892" lon="11.1219065"><ele>475.99999999999994</ele><time>2026-04-04T08:29:44.524Z</time></trkpt><trkpt lat="43.2420725" lon="11.1219266"><ele>476.0</ele><time>2026-04-04T08:29:45.52Z</time></trkpt><trkpt lat="43.2421591" lon="11.1219472"><ele>475.99999999999994</ele><time>2026-04-04T08:29:46.522Z</time></trkpt><trkpt lat="43.2422439" lon="11.1219684"><ele>476.0</ele><time>2026-04-04T08:29:47.517Z</time></trkpt><trkpt lat="43.2423311" lon="11.1219875"><ele>476.0</ele><time>2026-04-04T08:29:48.52Z</time></trkpt><trkpt lat="43.2424135" lon="11.1220054"><ele>476.0</ele><time>2026-04-04T08:29:49.515Z</time></trkpt><trkpt lat="43.2424933" lon="11.1220318"><ele>475.99999999999994</ele><time>2026-04-04T08:29:50.517Z</time></trkpt><trkpt lat="43.2425688" lon="11.1220568"><ele>476.0</ele><time>2026-04-04T08:29:51.519Z</time></trkpt><trkpt lat="43.2426402" lon="11.1220781"><ele>475.8</ele><time>2026-04-04T08:29:52.528Z</time></trkpt><trkpt lat="43.2427293" lon="11.1220926"><ele>475.6</ele><time>2026-04-04T08:29:53.52Z</time></trkpt><trkpt lat="43.2428313" lon="11.1221125"><ele>475.4</ele><time>2026-04-04T08:29:54.52Z</time></trkpt><trkpt lat="43.2429344" lon="11.122135"><ele>475.2</ele><time>2026-04-04T08:29:55.519Z</time></trkpt><trkpt lat="43.2430366" lon="11.122157"><ele>475.0</ele><time>2026-04-04T08:29:56.533Z</time></trkpt><trkpt lat="43.2431365" lon="11.1221832"><ele>475.00000000000006</ele><time>2026-04-04T08:29:57.52Z</time></trkpt><trkpt lat="43.2432301" lon="11.1222083"><ele>475.0</ele><time>2026-04-04T08:29:58.517Z</time></trkpt><trkpt lat="43.2433177" lon="11.1222228"><ele>475.0</ele><time>2026-04-04T08:29:59.525Z</time></trkpt><trkpt lat="43.2433968" lon="11.1222169"><ele>475.0</ele><time>2026-04-04T08:30:00.532Z</time></trkpt><trkpt lat="43.2434727" lon="11.1222018"><ele>475.00000000000006</ele><time>2026-04-04T08:30:01.511Z</time></trkpt><trkpt lat="43.2435411" lon="11.1221756"><ele>475.0</ele><time>2026-04-04T08:30:02.527Z</time></trkpt><trkpt lat="43.2436142" lon="11.1221401"><ele>475.00000000000006</ele><time>2026-04-04T08:30:03.514Z</time></trkpt><trkpt lat="43.2436913" lon="11.1221081"><ele>475.0</ele><time>2026-04-04T08:30:04.518Z</time></trkpt><trkpt lat="43.2437537" lon="11.1220791"><ele>475.0</ele><time>2026-04-04T08:30:05.512Z</time></trkpt><trkpt lat="43.2438161" lon="11.1220477"><ele>475.0</ele><time>2026-04-04T08:30:06.52Z</time></trkpt><trkpt lat="43.2439316" lon="11.1220029"><ele>475.00000000000006</ele><time>2026-04-04T08:30:08.524Z</time></trkpt><trkpt lat="43.244044" lon="11.1219676"><ele>475.0</ele><time>2026-04-04T08:30:10.515Z</time></trkpt><trkpt lat="43.2441341" lon="11.1218978"><ele>476.33333333333337</ele><time>2026-04-04T08:30:12.517Z</time></trkpt><trkpt lat="43.2442263" lon="11.1217734"><ele>477.6666666666667</ele><time>2026-04-04T08:30:14.518Z</time></trkpt><trkpt lat="43.244268" lon="11.1216825"><ele>479.0</ele><time>2026-04-04T08:30:15.524Z</time></trkpt><trkpt lat="43.2443049" lon="11.1216014"><ele>480.33333333333337</ele><time>2026-04-04T08:30:16.52Z</time></trkpt><trkpt lat="43.2443334" lon="11.1215108"><ele>481.6666666666667</ele><time>2026-04-04T08:30:17.516Z</time></trkpt><trkpt lat="43.2443625" lon="11.1214206"><ele>483.0</ele><time>2026-04-04T08:30:18.517Z</time></trkpt><trkpt lat="43.2443909" lon="11.1213321"><ele>483.0</ele><time>2026-04-04T08:30:19.523Z</time></trkpt><trkpt lat="43.2444141" lon="11.1212421"><ele>483.0</ele><time>2026-04-04T08:30:20.527Z</time></trkpt><trkpt lat="43.2444333" lon="11.1211505"><ele>483.0</ele><time>2026-04-04T08:30:21.513Z</time></trkpt><trkpt lat="43.2444526" lon="11.1210665"><ele>483.0</ele><time>2026-04-04T08:30:22.513Z</time></trkpt><trkpt lat="43.2445079" lon="11.120934"><ele>483.0</ele><time>2026-04-04T08:30:24.518Z</time></trkpt><trkpt lat="43.2445936" lon="11.1208542"><ele>483.0</ele><time>2026-04-04T08:30:26.528Z</time></trkpt><trkpt lat="43.2447024" lon="11.1208231"><ele>484.6666666666667</ele><time>2026-04-04T08:30:28.52Z</time></trkpt><trkpt lat="43.2448383" lon="11.1208109"><ele>486.33333333333337</ele><time>2026-04-04T08:30:30.535Z</time></trkpt><trkpt lat="43.2449127" lon="11.1208053"><ele>488.0</ele><time>2026-04-04T08:30:31.513Z</time></trkpt><trkpt lat="43.2449899" lon="11.1207992"><ele>489.6666666666667</ele><time>2026-04-04T08:30:32.511Z</time></trkpt><trkpt lat="43.2450653" lon="11.1207907"><ele>491.33333333333337</ele><time>2026-04-04T08:30:33.513Z</time></trkpt><trkpt lat="43.2451447" lon="11.1207818"><ele>493.0</ele><time>2026-04-04T08:30:34.528Z</time></trkpt><trkpt lat="43.2452166" lon="11.1207789"><ele>493.0</ele><time>2026-04-04T08:30:35.534Z</time></trkpt><trkpt lat="43.2452947" lon="11.1207868"><ele>493.0</ele><time>2026-04-04T08:30:36.515Z</time></trkpt><trkpt lat="43.2453626" lon="11.1207997"><ele>493.0</ele><time>2026-04-04T08:30:37.522Z</time></trkpt><trkpt lat="43.245431" lon="11.1208137"><ele>493.0</ele><time>2026-04-04T08:30:38.536Z</time></trkpt><trkpt lat="43.2455008" lon="11.1208302"><ele>493.0</ele><time>2026-04-04T08:30:39.527Z</time></trkpt><trkpt lat="43.2455718" lon="11.1208466"><ele>493.0</ele><time>2026-04-04T08:30:40.515Z</time></trkpt><trkpt lat="43.2456375" lon="11.1208665"><ele>493.0</ele><time>2026-04-04T08:30:41.523Z</time></trkpt><trkpt lat="43.2457095" lon="11.1208845"><ele>493.83333333333337</ele><time>2026-04-04T08:30:42.519Z</time></trkpt><trkpt lat="43.2457867" lon="11.1208991"><ele>494.6666666666667</ele><time>2026-04-04T08:30:43.522Z</time></trkpt><trkpt lat="43.2458557" lon="11.1209135"><ele>495.5</ele><time>2026-04-04T08:30:44.526Z</time></trkpt><trkpt lat="43.2459342" lon="11.1209357"><ele>496.33333333333337</ele><time>2026-04-04T08:30:45.523Z</time></trkpt><trkpt lat="43.2460198" lon="11.1209712"><ele>497.1666666666667</ele><time>2026-04-04T08:30:46.516Z</time></trkpt><trkpt lat="43.2461142" lon="11.1210029"><ele>498.0</ele><time>2026-04-04T08:30:47.52Z</time></trkpt><trkpt lat="43.2462003" lon="11.1210375"><ele>498.0</ele><time>2026-04-04T08:30:48.516Z</time></trkpt><trkpt lat="43.2462725" lon="11.1210706"><ele>498.0</ele><time>2026-04-04T08:30:49.502Z</time></trkpt><trkpt lat="43.2463438" lon="11.1210958"><ele>498.0</ele><time>2026-04-04T08:30:50.501Z</time></trkpt><trkpt lat="43.2464163" lon="11.1211129"><ele>498.0</ele><time>2026-04-04T08:30:51.523Z</time></trkpt><trkpt lat="43.2465219" lon="11.1211284"><ele>498.0</ele><time>2026-04-04T08:30:53.53Z</time></trkpt><trkpt lat="43.2466075" lon="11.1210539"><ele>498.0</ele><time>2026-04-04T08:30:55.503Z</time></trkpt><trkpt lat="43.2466829" lon="11.1209249"><ele>499.5</ele><time>2026-04-04T08:30:57.514Z</time></trkpt><trkpt lat="43.2467537" lon="11.120807"><ele>501.0</ele><time>2026-04-04T08:30:59.528Z</time></trkpt><trkpt lat="43.2468387" lon="11.1207146"><ele>502.5</ele><time>2026-04-04T08:31:01.519Z</time></trkpt><trkpt lat="43.2469492" lon="11.1206856"><ele>504.0</ele><time>2026-04-04T08:31:03.499Z</time></trkpt><trkpt lat="43.247076" lon="11.1206716"><ele>504.0</ele><time>2026-04-04T08:31:05.522Z</time></trkpt><trkpt lat="43.2471749" lon="11.1206757"><ele>504.0</ele><time>2026-04-04T08:31:07.513Z</time></trkpt><trkpt lat="43.2472687" lon="11.1206702"><ele>504.0</ele><time>2026-04-04T08:31:09.528Z</time></trkpt><trkpt lat="43.2473702" lon="11.1206521"><ele>504.0</ele><time>2026-04-04T08:31:11.51Z</time></trkpt><trkpt lat="43.2474759" lon="11.1206395"><ele>504.0</ele><time>2026-04-04T08:31:13.515Z</time></trkpt><trkpt lat="43.24759" lon="11.1206285"><ele>505.6</ele><time>2026-04-04T08:31:15.513Z</time></trkpt><trkpt lat="43.2476553" lon="11.1206104"><ele>507.2</ele><time>2026-04-04T08:31:16.524Z</time></trkpt><trkpt lat="43.2477735" lon="11.1205782"><ele>508.80000000000007</ele><time>2026-04-04T08:31:18.513Z</time></trkpt><trkpt lat="43.2478759" lon="11.1205323"><ele>510.40000000000003</ele><time>2026-04-04T08:31:20.512Z</time></trkpt><trkpt lat="43.2479875" lon="11.1204747"><ele>512.0</ele><time>2026-04-04T08:31:22.517Z</time></trkpt><trkpt lat="43.2480474" lon="11.1204414"><ele>512.0</ele><time>2026-04-04T08:31:23.52Z</time></trkpt><trkpt lat="43.2481112" lon="11.1204097"><ele>511.99999999999994</ele><time>2026-04-04T08:31:24.512Z</time></trkpt><trkpt lat="43.2481797" lon="11.1203796"><ele>512.0</ele><time>2026-04-04T08:31:25.521Z</time></trkpt><trkpt lat="43.2482526" lon="11.1203393"><ele>512.0</ele><time>2026-04-04T08:31:26.531Z</time></trkpt><trkpt lat="43.2483303" lon="11.1202971"><ele>511.99999999999994</ele><time>2026-04-04T08:31:27.515Z</time></trkpt><trkpt lat="43.2483978" lon="11.1202479"><ele>512.0</ele><time>2026-04-04T08:31:28.513Z</time></trkpt><trkpt lat="43.2484555" lon="11.1201921"><ele>512.0</ele><time>2026-04-04T08:31:29.513Z</time></trkpt><trkpt lat="43.2485073" lon="11.1201311"><ele>513.4285714285714</ele><time>2026-04-04T08:31:30.53Z</time></trkpt><trkpt lat="43.2485509" lon="11.1200632"><ele>514.8571428571428</ele><time>2026-04-04T08:31:31.519Z</time></trkpt><trkpt lat="43.2485931" lon="11.1199837"><ele>516.2857142857142</ele><time>2026-04-04T08:31:32.534Z</time></trkpt><trkpt lat="43.2486222" lon="11.1199022"><ele>517.7142857142857</ele><time>2026-04-04T08:31:33.519Z</time></trkpt><trkpt lat="43.2486469" lon="11.1198163"><ele>519.1428571428571</ele><time>2026-04-04T08:31:34.518Z</time></trkpt><trkpt lat="43.248665" lon="11.1197227"><ele>520.5714285714286</ele><time>2026-04-04T08:31:35.518Z</time></trkpt><trkpt lat="43.2486781" lon="11.1196214"><ele>522.0</ele><time>2026-04-04T08:31:36.524Z</time></trkpt><trkpt lat="43.2486915" lon="11.1195105"><ele>522.0</ele><time>2026-04-04T08:31:37.535Z</time></trkpt><trkpt lat="43.2487002" lon="11.1193997"><ele>522.0</ele><time>2026-04-04T08:31:38.517Z</time></trkpt><trkpt lat="43.2487116" lon="11.1192906"><ele>522.0</ele><time>2026-04-04T08:31:39.52Z</time></trkpt><trkpt lat="43.2487296" lon="11.1192062"><ele>522.0</ele><time>2026-04-04T08:31:40.514Z</time></trkpt><trkpt lat="43.2487981" lon="11.1191234"><ele>522.0</ele><time>2026-04-04T08:31:42.515Z</time></trkpt><trkpt lat="43.2488641" lon="11.1191157"><ele>522.0</ele><time>2026-04-04T08:31:44.51Z</time></trkpt><trkpt lat="43.2489263" lon="11.1191798"><ele>522.0</ele><time>2026-04-04T08:31:46.518Z</time></trkpt><trkpt lat="43.2489582" lon="11.1193176"><ele>522.0</ele><time>2026-04-04T08:31:48.522Z</time></trkpt><trkpt lat="43.2489713" lon="11.1194056"><ele>522.0</ele><time>2026-04-04T08:31:49.509Z</time></trkpt><trkpt lat="43.2489877" lon="11.1194936"><ele>522.0</ele><time>2026-04-04T08:31:50.5Z</time></trkpt><trkpt lat="43.2490447" lon="11.1196193"><ele>522.0</ele><time>2026-04-04T08:31:52.521Z</time></trkpt><trkpt lat="43.2491136" lon="11.1196962"><ele>522.0</ele><time>2026-04-04T08:31:54.515Z</time></trkpt><trkpt lat="43.2491808" lon="11.11974"><ele>525.4</ele><time>2026-04-04T08:31:57.522Z</time></trkpt><trkpt lat="43.2492365" lon="11.1197819"><ele>528.8000000000001</ele><time>2026-04-04T08:31:59.521Z</time></trkpt><trkpt lat="43.2493499" lon="11.119818"><ele>532.2</ele><time>2026-04-04T08:32:01.521Z</time></trkpt><trkpt lat="43.2494714" lon="11.1197983"><ele>535.6</ele><time>2026-04-04T08:32:03.515Z</time></trkpt><trkpt lat="43.2495346" lon="11.119791"><ele>539.0</ele><time>2026-04-04T08:32:04.528Z</time></trkpt><trkpt lat="43.2496679" lon="11.1197742"><ele>539.0</ele><time>2026-04-04T08:32:06.522Z</time></trkpt><trkpt lat="43.2497492" lon="11.1197593"><ele>539.0</ele><time>2026-04-04T08:32:07.527Z</time></trkpt><trkpt lat="43.2498494" lon="11.1197435"><ele>539.0</ele><time>2026-04-04T08:32:08.523Z</time></trkpt><trkpt lat="43.2499863" lon="11.1197225"><ele>539.0</ele><time>2026-04-04T08:32:09.5Z</time></trkpt><trkpt lat="43.2501406" lon="11.1196917"><ele>541.0</ele><time>2026-04-04T08:32:10.523Z</time></trkpt><trkpt lat="43.2502901" lon="11.1196562"><ele>543.0</ele><time>2026-04-04T08:32:11.515Z</time></trkpt><trkpt lat="43.2504204" lon="11.1196281"><ele>545.0</ele><time>2026-04-04T08:32:12.521Z</time></trkpt><trkpt lat="43.2505272" lon="11.1196105"><ele>547.0</ele><time>2026-04-04T08:32:13.522Z</time></trkpt><trkpt lat="43.2506206" lon="11.1195976"><ele>548.0</ele><time>2026-04-04T08:32:14.523Z</time></trkpt><trkpt lat="43.2507111" lon="11.1195787"><ele>549.0</ele><time>2026-04-04T08:32:15.526Z</time></trkpt><trkpt lat="43.2508089" lon="11.1195412"><ele>550.0</ele><time>2026-04-04T08:32:16.508Z</time></trkpt><trkpt lat="43.2508969" lon="11.1194848"><ele>551.0</ele><time>2026-04-04T08:32:17.522Z</time></trkpt><trkpt lat="43.2509746" lon="11.1194149"><ele>552.0</ele><time>2026-04-04T08:32:18.5Z</time></trkpt><trkpt lat="43.2510475" lon="11.1193415"><ele>552.0</ele><time>2026-04-04T08:32:19.518Z</time></trkpt><trkpt lat="43.251116" lon="11.1192789"><ele>552.0</ele><time>2026-04-04T08:32:20.508Z</time></trkpt><trkpt lat="43.2511823" lon="11.1192468"><ele>552.0</ele><time>2026-04-04T08:32:21.515Z</time></trkpt><trkpt lat="43.2512532" lon="11.1192405"><ele>552.0</ele><time>2026-04-04T08:32:22.526Z</time></trkpt><trkpt lat="43.2513382" lon="11.1192535"><ele>552.0</ele><time>2026-04-04T08:32:23.519Z</time></trkpt><trkpt lat="43.2514293" lon="11.1192919"><ele>552.0</ele><time>2026-04-04T08:32:24.522Z</time></trkpt><trkpt lat="43.2515241" lon="11.1193302"><ele>553.0</ele><time>2026-04-04T08:32:25.517Z</time></trkpt><trkpt lat="43.2516254" lon="11.119371"><ele>554.0</ele><time>2026-04-04T08:32:26.53Z</time></trkpt><trkpt lat="43.2517176" lon="11.119396"><ele>555.0</ele><time>2026-04-04T08:32:27.502Z</time></trkpt><trkpt lat="43.2517953" lon="11.1193926"><ele>556.0</ele><time>2026-04-04T08:32:28.529Z</time></trkpt><trkpt lat="43.2518798" lon="11.1193714"><ele>557.0</ele><time>2026-04-04T08:32:29.515Z</time></trkpt><trkpt lat="43.2519714" lon="11.1193408"><ele>557.0</ele><time>2026-04-04T08:32:30.508Z</time></trkpt><trkpt lat="43.25206" lon="11.1193266"><ele>557.0</ele><time>2026-04-04T08:32:31.515Z</time></trkpt><trkpt lat="43.2521449" lon="11.1193397"><ele>557.0</ele><time>2026-04-04T08:32:32.527Z</time></trkpt><trkpt lat="43.2522315" lon="11.1193746"><ele>557.0</ele><time>2026-04-04T08:32:33.53Z</time></trkpt><trkpt lat="43.2523213" lon="11.1194255"><ele>557.0</ele><time>2026-04-04T08:32:34.506Z</time></trkpt><trkpt lat="43.252411" lon="11.1194918"><ele>558.2</ele><time>2026-04-04T08:32:35.507Z</time></trkpt><trkpt lat="43.2524995" lon="11.1195638"><ele>559.4000000000001</ele><time>2026-04-04T08:32:36.514Z</time></trkpt><trkpt lat="43.2525893" lon="11.1196493"><ele>560.5999999999999</ele><time>2026-04-04T08:32:37.513Z</time></trkpt><trkpt lat="43.2526738" lon="11.1197265"><ele>561.8</ele><time>2026-04-04T08:32:38.495Z</time></trkpt><trkpt lat="43.2527715" lon="11.1197878"><ele>563.0</ele><time>2026-04-04T08:32:39.509Z</time></trkpt><trkpt lat="43.2528821" lon="11.1198425"><ele>563.0</ele><time>2026-04-04T08:32:40.512Z</time></trkpt><trkpt lat="43.2529907" lon="11.1198995"><ele>563.0</ele><time>2026-04-04T08:32:41.503Z</time></trkpt><trkpt lat="43.2530953" lon="11.1199708"><ele>563.0</ele><time>2026-04-04T08:32:42.524Z</time></trkpt><trkpt lat="43.2531897" lon="11.1200402"><ele>563.0</ele><time>2026-04-04T08:32:43.515Z</time></trkpt><trkpt lat="43.2532698" lon="11.1201184"><ele>563.0</ele><time>2026-04-04T08:32:44.531Z</time></trkpt><trkpt lat="43.2533422" lon="11.1202005"><ele>564.0</ele><time>2026-04-04T08:32:45.514Z</time></trkpt><trkpt lat="43.2534135" lon="11.1202957"><ele>565.0</ele><time>2026-04-04T08:32:46.52Z</time></trkpt><trkpt lat="43.2534829" lon="11.1204066"><ele>566.0</ele><time>2026-04-04T08:32:47.503Z</time></trkpt><trkpt lat="43.2535442" lon="11.1205159"><ele>567.0</ele><time>2026-04-04T08:32:48.519Z</time></trkpt><trkpt lat="43.253605" lon="11.1206086"><ele>568.0</ele><time>2026-04-04T08:32:49.529Z</time></trkpt><trkpt lat="43.2536741" lon="11.1207019"><ele>568.4</ele><time>2026-04-04T08:32:50.516Z</time></trkpt><trkpt lat="43.2537674" lon="11.1207711"><ele>568.8</ele><time>2026-04-04T08:32:51.511Z</time></trkpt><trkpt lat="43.2538582" lon="11.1208522"><ele>569.2</ele><time>2026-04-04T08:32:52.526Z</time></trkpt><trkpt lat="43.2539396" lon="11.1209423"><ele>569.6</ele><time>2026-04-04T08:32:53.527Z</time></trkpt><trkpt lat="43.2540189" lon="11.1210612"><ele>570.0</ele><time>2026-04-04T08:32:54.53Z</time></trkpt><trkpt lat="43.2541113" lon="11.1211877"><ele>570.0</ele><time>2026-04-04T08:32:55.524Z</time></trkpt><trkpt lat="43.2542017" lon="11.121309"><ele>570.0</ele><time>2026-04-04T08:32:56.525Z</time></trkpt><trkpt lat="43.2542776" lon="11.121426"><ele>570.0</ele><time>2026-04-04T08:32:57.518Z</time></trkpt><trkpt lat="43.2543423" lon="11.1215194"><ele>570.0</ele><time>2026-04-04T08:32:58.495Z</time></trkpt><trkpt lat="43.2544017" lon="11.1216264"><ele>570.0</ele><time>2026-04-04T08:32:59.506Z</time></trkpt><trkpt lat="43.2544524" lon="11.1217443"><ele>570.2</ele><time>2026-04-04T08:33:00.528Z</time></trkpt><trkpt lat="43.2544735" lon="11.1218762"><ele>570.4</ele><time>2026-04-04T08:33:01.517Z</time></trkpt><trkpt lat="43.2544909" lon="11.1220136"><ele>570.6</ele><time>2026-04-04T08:33:02.513Z</time></trkpt><trkpt lat="43.2545143" lon="11.1221773"><ele>570.8</ele><time>2026-04-04T08:33:03.521Z</time></trkpt><trkpt lat="43.2545337" lon="11.1223486"><ele>571.0</ele><time>2026-04-04T08:33:04.525Z</time></trkpt><trkpt lat="43.2545573" lon="11.1225492"><ele>571.0</ele><time>2026-04-04T08:33:05.512Z</time></trkpt><trkpt lat="43.2545774" lon="11.1227514"><ele>571.0</ele><time>2026-04-04T08:33:06.529Z</time></trkpt><trkpt lat="43.2545968" lon="11.1229391"><ele>571.0</ele><time>2026-04-04T08:33:07.51Z</time></trkpt><trkpt lat="43.2546202" lon="11.1231054"><ele>571.0</ele><time>2026-04-04T08:33:08.52Z</time></trkpt><trkpt lat="43.2546425" lon="11.1232776"><ele>571.0</ele><time>2026-04-04T08:33:09.513Z</time></trkpt><trkpt lat="43.2546668" lon="11.1234389"><ele>571.0</ele><time>2026-04-04T08:33:10.524Z</time></trkpt><trkpt lat="43.2547023" lon="11.1235861"><ele>571.0</ele><time>2026-04-04T08:33:11.531Z</time></trkpt><trkpt lat="43.2547549" lon="11.1237486"><ele>571.0</ele><time>2026-04-04T08:33:12.521Z</time></trkpt><trkpt lat="43.254812" lon="11.1238944"><ele>574.0</ele><time>2026-04-04T08:33:13.524Z</time></trkpt><trkpt lat="43.2548824" lon="11.1240233"><ele>577.0</ele><time>2026-04-04T08:33:14.532Z</time></trkpt><trkpt lat="43.2549503" lon="11.1241434"><ele>580.0</ele><time>2026-04-04T08:33:15.521Z</time></trkpt><trkpt lat="43.2550059" lon="11.1242505"><ele>583.0</ele><time>2026-04-04T08:33:16.52Z</time></trkpt><trkpt lat="43.2550459" lon="11.1243681"><ele>586.0</ele><time>2026-04-04T08:33:17.514Z</time></trkpt><trkpt lat="43.255097" lon="11.124491"><ele>586.0</ele><time>2026-04-04T08:33:18.524Z</time></trkpt><trkpt lat="43.2551578" lon="11.1246175"><ele>586.0</ele><time>2026-04-04T08:33:19.519Z</time></trkpt><trkpt lat="43.2552268" lon="11.1247262"><ele>586.0</ele><time>2026-04-04T08:33:20.51Z</time></trkpt><trkpt lat="43.2552934" lon="11.1248211"><ele>586.0</ele><time>2026-04-04T08:33:21.525Z</time></trkpt><trkpt lat="43.255363" lon="11.12492"><ele>586.0</ele><time>2026-04-04T08:33:22.502Z</time></trkpt><trkpt lat="43.2554302" lon="11.1250389"><ele>584.6666666666667</ele><time>2026-04-04T08:33:23.515Z</time></trkpt><trkpt lat="43.2554774" lon="11.1251512"><ele>583.3333333333334</ele><time>2026-04-04T08:33:24.517Z</time></trkpt><trkpt lat="43.2555146" lon="11.1252607"><ele>582.0</ele><time>2026-04-04T08:33:25.523Z</time></trkpt><trkpt lat="43.2555358" lon="11.1253719"><ele>580.6666666666666</ele><time>2026-04-04T08:33:26.524Z</time></trkpt><trkpt lat="43.2555626" lon="11.1254914"><ele>579.3333333333333</ele><time>2026-04-04T08:33:27.512Z</time></trkpt><trkpt lat="43.2555845" lon="11.1256087"><ele>578.0</ele><time>2026-04-04T08:33:28.512Z</time></trkpt><trkpt lat="43.2556043" lon="11.1257281"><ele>576.4</ele><time>2026-04-04T08:33:29.518Z</time></trkpt><trkpt lat="43.2556172" lon="11.1258452"><ele>574.8</ele><time>2026-04-04T08:33:30.497Z</time></trkpt><trkpt lat="43.2556171" lon="11.1259612"><ele>573.2</ele><time>2026-04-04T08:33:31.521Z</time></trkpt><trkpt lat="43.255612" lon="11.1260782"><ele>571.6</ele><time>2026-04-04T08:33:32.497Z</time></trkpt><trkpt lat="43.2555839" lon="11.1262057"><ele>570.0</ele><time>2026-04-04T08:33:33.505Z</time></trkpt><trkpt lat="43.2555408" lon="11.1263358"><ele>570.0</ele><time>2026-04-04T08:33:34.511Z</time></trkpt><trkpt lat="43.2555045" lon="11.1264703"><ele>570.0</ele><time>2026-04-04T08:33:35.499Z</time></trkpt><trkpt lat="43.2554849" lon="11.1265947"><ele>570.0</ele><time>2026-04-04T08:33:36.512Z</time></trkpt><trkpt lat="43.2554798" lon="11.1267168"><ele>570.0</ele><time>2026-04-04T08:33:37.506Z</time></trkpt><trkpt lat="43.2554866" lon="11.1268392"><ele>570.0</ele><time>2026-04-04T08:33:38.501Z</time></trkpt><trkpt lat="43.2554961" lon="11.1269623"><ele>569.8333333333334</ele><time>2026-04-04T08:33:39.496Z</time></trkpt><trkpt lat="43.2554973" lon="11.1270859"><ele>569.6666666666666</ele><time>2026-04-04T08:33:40.504Z</time></trkpt><trkpt lat="43.2554962" lon="11.1272112"><ele>569.5</ele><time>2026-04-04T08:33:41.508Z</time></trkpt><trkpt lat="43.2554916" lon="11.127323"><ele>569.3333333333333</ele><time>2026-04-04T08:33:42.515Z</time></trkpt><trkpt lat="43.2554873" lon="11.1274424"><ele>569.1666666666666</ele><time>2026-04-04T08:33:43.507Z</time></trkpt><trkpt lat="43.2554726" lon="11.1275628"><ele>569.0</ele><time>2026-04-04T08:33:44.503Z</time></trkpt><trkpt lat="43.2554547" lon="11.1276802"><ele>569.4</ele><time>2026-04-04T08:33:45.516Z</time></trkpt><trkpt lat="43.2554211" lon="11.1277978"><ele>569.8</ele><time>2026-04-04T08:33:46.508Z</time></trkpt><trkpt lat="43.2553766" lon="11.1279175"><ele>570.2</ele><time>2026-04-04T08:33:47.5Z</time></trkpt><trkpt lat="43.2553266" lon="11.1280302"><ele>570.6</ele><time>2026-04-04T08:33:48.506Z</time></trkpt><trkpt lat="43.2552787" lon="11.1281369"><ele>571.0</ele><time>2026-04-04T08:33:49.509Z</time></trkpt><trkpt lat="43.255239" lon="11.1282373"><ele>571.4</ele><time>2026-04-04T08:33:50.522Z</time></trkpt><trkpt lat="43.2551971" lon="11.1283483"><ele>571.8</ele><time>2026-04-04T08:33:51.511Z</time></trkpt><trkpt lat="43.2551589" lon="11.1284634"><ele>572.1999999999999</ele><time>2026-04-04T08:33:52.508Z</time></trkpt><trkpt lat="43.255136" lon="11.1285846"><ele>572.6</ele><time>2026-04-04T08:33:53.509Z</time></trkpt><trkpt lat="43.2550964" lon="11.1286892"><ele>573.0</ele><time>2026-04-04T08:33:54.512Z</time></trkpt><trkpt lat="43.255043" lon="11.1287937"><ele>573.0</ele><time>2026-04-04T08:33:55.51Z</time></trkpt><trkpt lat="43.2549956" lon="11.1288997"><ele>573.0</ele><time>2026-04-04T08:33:56.519Z</time></trkpt><trkpt lat="43.2549513" lon="11.1290039"><ele>573.0</ele><time>2026-04-04T08:33:57.505Z</time></trkpt><trkpt lat="43.2549005" lon="11.1291041"><ele>573.0</ele><time>2026-04-04T08:33:58.511Z</time></trkpt><trkpt lat="43.2548521" lon="11.1291898"><ele>573.0</ele><time>2026-04-04T08:33:59.521Z</time></trkpt><trkpt lat="43.2547941" lon="11.1292815"><ele>573.0</ele><time>2026-04-04T08:34:00.526Z</time></trkpt><trkpt lat="43.254729" lon="11.1293702"><ele>573.1666666666666</ele><time>2026-04-04T08:34:01.531Z</time></trkpt><trkpt lat="43.2546585" lon="11.1294473"><ele>573.3333333333334</ele><time>2026-04-04T08:34:02.517Z</time></trkpt><trkpt lat="43.2545859" lon="11.1295205"><ele>573.5</ele><time>2026-04-04T08:34:03.522Z</time></trkpt><trkpt lat="43.2545126" lon="11.1295862"><ele>573.6666666666667</ele><time>2026-04-04T08:34:04.516Z</time></trkpt><trkpt lat="43.2544397" lon="11.1296417"><ele>573.8333333333334</ele><time>2026-04-04T08:34:05.515Z</time></trkpt><trkpt lat="43.2543529" lon="11.1297007"><ele>574.0</ele><time>2026-04-04T08:34:06.515Z</time></trkpt><trkpt lat="43.254256" lon="11.1297608"><ele>574.0</ele><time>2026-04-04T08:34:07.531Z</time></trkpt><trkpt lat="43.2541484" lon="11.1298034"><ele>574.0</ele><time>2026-04-04T08:34:08.514Z</time></trkpt><trkpt lat="43.2540354" lon="11.1298336"><ele>574.0</ele><time>2026-04-04T08:34:09.508Z</time></trkpt><trkpt lat="43.2539444" lon="11.1298678"><ele>574.0</ele><time>2026-04-04T08:34:10.511Z</time></trkpt><trkpt lat="43.2538522" lon="11.1298971"><ele>574.0</ele><time>2026-04-04T08:34:11.517Z</time></trkpt><trkpt lat="43.2537673" lon="11.1299286"><ele>571.0</ele><time>2026-04-04T08:34:12.535Z</time></trkpt><trkpt lat="43.2536803" lon="11.1299776"><ele>568.0</ele><time>2026-04-04T08:34:13.524Z</time></trkpt><trkpt lat="43.2536133" lon="11.1300539"><ele>565.0</ele><time>2026-04-04T08:34:14.513Z</time></trkpt><trkpt lat="43.2535643" lon="11.1301658"><ele>562.0</ele><time>2026-04-04T08:34:15.514Z</time></trkpt><trkpt lat="43.2535311" lon="11.1303127"><ele>559.0</ele><time>2026-04-04T08:34:16.517Z</time></trkpt><trkpt lat="43.2535115" lon="11.1304671"><ele>559.0</ele><time>2026-04-04T08:34:17.508Z</time></trkpt><trkpt lat="43.2534897" lon="11.1306007"><ele>559.0</ele><time>2026-04-04T08:34:18.502Z</time></trkpt><trkpt lat="43.2534602" lon="11.1307124"><ele>559.0</ele><time>2026-04-04T08:34:19.529Z</time></trkpt><trkpt lat="43.253426" lon="11.130834"><ele>559.0</ele><time>2026-04-04T08:34:20.496Z</time></trkpt><trkpt lat="43.2533726" lon="11.1309514"><ele>559.0</ele><time>2026-04-04T08:34:21.505Z</time></trkpt><trkpt lat="43.2533087" lon="11.1310485"><ele>558.0</ele><time>2026-04-04T08:34:22.499Z</time></trkpt><trkpt lat="43.253237" lon="11.1311526"><ele>557.0</ele><time>2026-04-04T08:34:23.497Z</time></trkpt><trkpt lat="43.2531664" lon="11.1312565"><ele>556.0</ele><time>2026-04-04T08:34:24.529Z</time></trkpt><trkpt lat="43.2531048" lon="11.1313554"><ele>555.0</ele><time>2026-04-04T08:34:25.51Z</time></trkpt><trkpt lat="43.2530364" lon="11.1314449"><ele>554.0</ele><time>2026-04-04T08:34:26.518Z</time></trkpt><trkpt lat="43.2529642" lon="11.1315246"><ele>552.0</ele><time>2026-04-04T08:34:27.522Z</time></trkpt><trkpt lat="43.2528928" lon="11.1316086"><ele>550.0</ele><time>2026-04-04T08:34:28.523Z</time></trkpt><trkpt lat="43.252814" lon="11.1316965"><ele>548.0</ele><time>2026-04-04T08:34:29.518Z</time></trkpt><trkpt lat="43.2527394" lon="11.1317838"><ele>546.0</ele><time>2026-04-04T08:34:30.503Z</time></trkpt><trkpt lat="43.2526642" lon="11.1318716"><ele>544.0</ele><time>2026-04-04T08:34:31.519Z</time></trkpt><trkpt lat="43.2525943" lon="11.1319753"><ele>544.0</ele><time>2026-04-04T08:34:32.513Z</time></trkpt><trkpt lat="43.2525179" lon="11.1320792"><ele>544.0</ele><time>2026-04-04T08:34:33.514Z</time></trkpt><trkpt lat="43.2524348" lon="11.1321832"><ele>544.0</ele><time>2026-04-04T08:34:34.518Z</time></trkpt><trkpt lat="43.2523584" lon="11.1322768"><ele>544.0</ele><time>2026-04-04T08:34:35.525Z</time></trkpt><trkpt lat="43.2522788" lon="11.1323714"><ele>544.0</ele><time>2026-04-04T08:34:36.533Z</time></trkpt><trkpt lat="43.2521903" lon="11.132481"><ele>541.8</ele><time>2026-04-04T08:34:37.525Z</time></trkpt><trkpt lat="43.2521183" lon="11.1325928"><ele>539.5999999999999</ele><time>2026-04-04T08:34:38.512Z</time></trkpt><trkpt lat="43.2520529" lon="11.1327035"><ele>537.4</ele><time>2026-04-04T08:34:39.517Z</time></trkpt><trkpt lat="43.2519768" lon="11.1328115"><ele>535.1999999999999</ele><time>2026-04-04T08:34:40.527Z</time></trkpt><trkpt lat="43.2518964" lon="11.1329038"><ele>533.0</ele><time>2026-04-04T08:34:41.512Z</time></trkpt><trkpt lat="43.251807" lon="11.1329925"><ele>533.0</ele><time>2026-04-04T08:34:42.518Z</time></trkpt><trkpt lat="43.2517161" lon="11.1330787"><ele>533.0</ele><time>2026-04-04T08:34:43.53Z</time></trkpt><trkpt lat="43.2516218" lon="11.1331808"><ele>533.0</ele><time>2026-04-04T08:34:44.519Z</time></trkpt><trkpt lat="43.2515347" lon="11.1332926"><ele>533.0</ele><time>2026-04-04T08:34:45.521Z</time></trkpt><trkpt lat="43.2514541" lon="11.1334045"><ele>532.8</ele><time>2026-04-04T08:34:46.519Z</time></trkpt><trkpt lat="43.2513802" lon="11.133505"><ele>532.5999999999999</ele><time>2026-04-04T08:34:47.521Z</time></trkpt><trkpt lat="43.2512989" lon="11.1335885"><ele>532.4000000000001</ele><time>2026-04-04T08:34:48.526Z</time></trkpt><trkpt lat="43.2512159" lon="11.1336632"><ele>532.2</ele><time>2026-04-04T08:34:49.524Z</time></trkpt><trkpt lat="43.2511252" lon="11.133734"><ele>532.0</ele><time>2026-04-04T08:34:50.52Z</time></trkpt><trkpt lat="43.2510235" lon="11.1338065"><ele>532.0</ele><time>2026-04-04T08:34:51.519Z</time></trkpt><trkpt lat="43.2509203" lon="11.1338726"><ele>532.0</ele><time>2026-04-04T08:34:52.518Z</time></trkpt><trkpt lat="43.2508041" lon="11.1339456"><ele>532.0</ele><time>2026-04-04T08:34:53.536Z</time></trkpt><trkpt lat="43.2507009" lon="11.134025"><ele>532.0</ele><time>2026-04-04T08:34:54.518Z</time></trkpt><trkpt lat="43.2505935" lon="11.1341007"><ele>531.2</ele><time>2026-04-04T08:34:55.51Z</time></trkpt><trkpt lat="43.2504971" lon="11.1341843"><ele>530.4000000000001</ele><time>2026-04-04T08:34:56.523Z</time></trkpt><trkpt lat="43.2503954" lon="11.1342645"><ele>529.5999999999999</ele><time>2026-04-04T08:34:57.515Z</time></trkpt><trkpt lat="43.2502982" lon="11.1343381"><ele>528.8</ele><time>2026-04-04T08:34:58.547Z</time></trkpt><trkpt lat="43.250211" lon="11.1343962"><ele>528.0</ele><time>2026-04-04T08:34:59.521Z</time></trkpt><trkpt lat="43.250152" lon="11.1344472"><ele>528.0</ele><time>2026-04-04T08:35:00.52Z</time></trkpt><trkpt lat="43.250093" lon="11.1345184"><ele>528.0</ele><time>2026-04-04T08:35:02.523Z</time></trkpt><trkpt lat="43.2500592" lon="11.1346214"><ele>528.0</ele><time>2026-04-04T08:35:04.518Z</time></trkpt><trkpt lat="43.2500851" lon="11.1347302"><ele>528.0</ele><time>2026-04-04T08:35:06.513Z</time></trkpt><trkpt lat="43.2501734" lon="11.1348561"><ele>528.0</ele><time>2026-04-04T08:35:08.503Z</time></trkpt><trkpt lat="43.2502503" lon="11.1349432"><ele>528.4</ele><time>2026-04-04T08:35:09.504Z</time></trkpt><trkpt lat="43.2503341" lon="11.1350507"><ele>528.8</ele><time>2026-04-04T08:35:10.503Z</time></trkpt><trkpt lat="43.2504173" lon="11.1351432"><ele>529.2</ele><time>2026-04-04T08:35:11.504Z</time></trkpt><trkpt lat="43.2504907" lon="11.135227"><ele>529.6</ele><time>2026-04-04T08:35:12.506Z</time></trkpt><trkpt lat="43.2505565" lon="11.1353007"><ele>530.0</ele><time>2026-04-04T08:35:13.501Z</time></trkpt><trkpt lat="43.2506155" lon="11.1353703"><ele>530.1428571428571</ele><time>2026-04-04T08:35:14.509Z</time></trkpt><trkpt lat="43.2506665" lon="11.1354414"><ele>530.2857142857142</ele><time>2026-04-04T08:35:15.507Z</time></trkpt><trkpt lat="43.2507058" lon="11.1355178"><ele>530.4285714285714</ele><time>2026-04-04T08:35:16.506Z</time></trkpt><trkpt lat="43.2507282" lon="11.1356028"><ele>530.5714285714286</ele><time>2026-04-04T08:35:17.51Z</time></trkpt><trkpt lat="43.2507272" lon="11.1357057"><ele>530.7142857142858</ele><time>2026-04-04T08:35:18.498Z</time></trkpt><trkpt lat="43.2507041" lon="11.1358024"><ele>530.8571428571429</ele><time>2026-04-04T08:35:19.505Z</time></trkpt><trkpt lat="43.2506644" lon="11.1358846"><ele>531.0</ele><time>2026-04-04T08:35:20.5Z</time></trkpt><trkpt lat="43.2506106" lon="11.1359723"><ele>529.8333333333334</ele><time>2026-04-04T08:35:21.505Z</time></trkpt><trkpt lat="43.2505632" lon="11.1360474"><ele>528.6666666666666</ele><time>2026-04-04T08:35:22.49Z</time></trkpt><trkpt lat="43.2505119" lon="11.1361287"><ele>527.5</ele><time>2026-04-04T08:35:23.516Z</time></trkpt><trkpt lat="43.2504666" lon="11.1362023"><ele>526.3333333333333</ele><time>2026-04-04T08:35:24.512Z</time></trkpt><trkpt lat="43.2504229" lon="11.1362857"><ele>525.1666666666666</ele><time>2026-04-04T08:35:25.514Z</time></trkpt><trkpt lat="43.2503749" lon="11.1363794"><ele>524.0</ele><time>2026-04-04T08:35:26.515Z</time></trkpt><trkpt lat="43.2503306" lon="11.1364747"><ele>521.8333333333333</ele><time>2026-04-04T08:35:27.521Z</time></trkpt><trkpt lat="43.2502843" lon="11.1365654"><ele>519.6666666666666</ele><time>2026-04-04T08:35:28.516Z</time></trkpt><trkpt lat="43.2502215" lon="11.1366515"><ele>517.5</ele><time>2026-04-04T08:35:29.496Z</time></trkpt><trkpt lat="43.2501506" lon="11.1367208"><ele>515.3333333333334</ele><time>2026-04-04T08:35:30.52Z</time></trkpt><trkpt lat="43.2500615" lon="11.1367814"><ele>513.1666666666667</ele><time>2026-04-04T08:35:31.508Z</time></trkpt><trkpt lat="43.2499791" lon="11.1368303"><ele>511.0</ele><time>2026-04-04T08:35:32.505Z</time></trkpt><trkpt lat="43.2499064" lon="11.1368937"><ele>511.0</ele><time>2026-04-04T08:35:33.512Z</time></trkpt><trkpt lat="43.2498315" lon="11.1369631"><ele>511.0</ele><time>2026-04-04T08:35:34.51Z</time></trkpt><trkpt lat="43.2497546" lon="11.1370404"><ele>511.0</ele><time>2026-04-04T08:35:35.51Z</time></trkpt><trkpt lat="43.2496898" lon="11.1371323"><ele>511.0</ele><time>2026-04-04T08:35:36.517Z</time></trkpt><trkpt lat="43.2496333" lon="11.1372395"><ele>511.0</ele><time>2026-04-04T08:35:37.506Z</time></trkpt><trkpt lat="43.2495771" lon="11.137361"><ele>509.0</ele><time>2026-04-04T08:35:38.506Z</time></trkpt><trkpt lat="43.2495228" lon="11.137472"><ele>507.0</ele><time>2026-04-04T08:35:39.511Z</time></trkpt><trkpt lat="43.2494645" lon="11.1375817"><ele>505.0</ele><time>2026-04-04T08:35:40.504Z</time></trkpt><trkpt lat="43.2494099" lon="11.1376912"><ele>503.0</ele><time>2026-04-04T08:35:41.51Z</time></trkpt><trkpt lat="43.2493521" lon="11.1377893"><ele>501.0</ele><time>2026-04-04T08:35:42.514Z</time></trkpt><trkpt lat="43.2493011" lon="11.137895"><ele>501.0</ele><time>2026-04-04T08:35:43.508Z</time></trkpt><trkpt lat="43.2492577" lon="11.1380133"><ele>501.0</ele><time>2026-04-04T08:35:44.5Z</time></trkpt><trkpt lat="43.2492381" lon="11.1381447"><ele>501.0</ele><time>2026-04-04T08:35:45.501Z</time></trkpt><trkpt lat="43.2492394" lon="11.1382659"><ele>501.0</ele><time>2026-04-04T08:35:46.516Z</time></trkpt><trkpt lat="43.249238" lon="11.1384064"><ele>501.0</ele><time>2026-04-04T08:35:47.508Z</time></trkpt><trkpt lat="43.2492425" lon="11.138529"><ele>499.5</ele><time>2026-04-04T08:35:48.507Z</time></trkpt><trkpt lat="43.2492628" lon="11.1386459"><ele>498.0</ele><time>2026-04-04T08:35:49.506Z</time></trkpt><trkpt lat="43.2492912" lon="11.1387532"><ele>496.5</ele><time>2026-04-04T08:35:50.499Z</time></trkpt><trkpt lat="43.2493442" lon="11.1388411"><ele>495.0</ele><time>2026-04-04T08:35:51.522Z</time></trkpt><trkpt lat="43.2494218" lon="11.1389041"><ele>493.5</ele><time>2026-04-04T08:35:52.502Z</time></trkpt><trkpt lat="43.2494931" lon="11.13898"><ele>492.0</ele><time>2026-04-04T08:35:53.507Z</time></trkpt><trkpt lat="43.2495503" lon="11.1390412"><ele>491.0</ele><time>2026-04-04T08:35:54.503Z</time></trkpt><trkpt lat="43.2496242" lon="11.1391856"><ele>490.0</ele><time>2026-04-04T08:35:56.505Z</time></trkpt><trkpt lat="43.249646" lon="11.1392772"><ele>489.0</ele><time>2026-04-04T08:35:57.524Z</time></trkpt><trkpt lat="43.2496562" lon="11.1393636"><ele>488.0</ele><time>2026-04-04T08:35:58.521Z</time></trkpt><trkpt lat="43.2496418" lon="11.1394556"><ele>487.0</ele><time>2026-04-04T08:35:59.52Z</time></trkpt><trkpt lat="43.249606" lon="11.1395355"><ele>486.0</ele><time>2026-04-04T08:36:00.504Z</time></trkpt><trkpt lat="43.2495463" lon="11.1396467"><ele>486.0</ele><time>2026-04-04T08:36:02.504Z</time></trkpt><trkpt lat="43.2494973" lon="11.1397618"><ele>486.0</ele><time>2026-04-04T08:36:55.513Z</time></trkpt><trkpt lat="43.2494173" lon="11.1399336"><ele>486.0</ele><time>2026-04-04T08:36:56.498Z</time></trkpt><trkpt lat="43.249362" lon="11.1400957"><ele>486.0</ele><time>2026-04-04T08:36:57.498Z</time></trkpt><trkpt lat="43.249339" lon="11.1402243"><ele>485.5</ele><time>2026-04-04T08:36:58.523Z</time></trkpt><trkpt lat="43.2493295" lon="11.1403444"><ele>485.0</ele><time>2026-04-04T08:36:59.512Z</time></trkpt><trkpt lat="43.2493351" lon="11.1404533"><ele>484.5</ele><time>2026-04-04T08:37:00.501Z</time></trkpt><trkpt lat="43.2493454" lon="11.1405741"><ele>484.0</ele><time>2026-04-04T08:37:01.507Z</time></trkpt><trkpt lat="43.2493538" lon="11.140687"><ele>483.5</ele><time>2026-04-04T08:37:02.504Z</time></trkpt><trkpt lat="43.2493548" lon="11.1407957"><ele>483.0</ele><time>2026-04-04T08:37:03.499Z</time></trkpt><trkpt lat="43.2493457" lon="11.1408991"><ele>482.5</ele><time>2026-04-04T08:37:04.515Z</time></trkpt><trkpt lat="43.2493319" lon="11.1409958"><ele>482.0</ele><time>2026-04-04T08:37:05.518Z</time></trkpt><trkpt lat="43.2493221" lon="11.1410983"><ele>481.5</ele><time>2026-04-04T08:37:06.51Z</time></trkpt><trkpt lat="43.2493098" lon="11.1412034"><ele>481.0</ele><time>2026-04-04T08:37:07.498Z</time></trkpt><trkpt lat="43.249302" lon="11.1413054"><ele>480.5</ele><time>2026-04-04T08:37:08.508Z</time></trkpt><trkpt lat="43.2492952" lon="11.1414139"><ele>480.0</ele><time>2026-04-04T08:37:09.513Z</time></trkpt><trkpt lat="43.2492884" lon="11.1415249"><ele>478.5</ele><time>2026-04-04T08:37:10.515Z</time></trkpt><trkpt lat="43.2492854" lon="11.1416426"><ele>477.0</ele><time>2026-04-04T08:37:11.502Z</time></trkpt><trkpt lat="43.2492863" lon="11.141766"><ele>475.5</ele><time>2026-04-04T08:37:12.516Z</time></trkpt><trkpt lat="43.2492973" lon="11.1418844"><ele>474.0</ele><time>2026-04-04T08:37:13.514Z</time></trkpt><trkpt lat="43.2493139" lon="11.1420044"><ele>472.5</ele><time>2026-04-04T08:37:14.512Z</time></trkpt><trkpt lat="43.2493347" lon="11.1421272"><ele>471.0</ele><time>2026-04-04T08:37:15.509Z</time></trkpt><trkpt lat="43.2493546" lon="11.1422433"><ele>471.0</ele><time>2026-04-04T08:37:16.507Z</time></trkpt><trkpt lat="43.249369" lon="11.1423582"><ele>471.0</ele><time>2026-04-04T08:37:17.507Z</time></trkpt><trkpt lat="43.2493712" lon="11.1424834"><ele>471.0</ele><time>2026-04-04T08:37:18.502Z</time></trkpt><trkpt lat="43.2493643" lon="11.1426264"><ele>471.0</ele><time>2026-04-04T08:37:19.513Z</time></trkpt><trkpt lat="43.2493548" lon="11.1427801"><ele>471.0</ele><time>2026-04-04T08:37:20.517Z</time></trkpt><trkpt lat="43.2493425" lon="11.1429361"><ele>469.5</ele><time>2026-04-04T08:37:21.504Z</time></trkpt><trkpt lat="43.2493167" lon="11.1430913"><ele>468.0</ele><time>2026-04-04T08:37:22.519Z</time></trkpt><trkpt lat="43.2492836" lon="11.1432449"><ele>466.5</ele><time>2026-04-04T08:37:23.506Z</time></trkpt><trkpt lat="43.2492397" lon="11.1434061"><ele>465.0</ele><time>2026-04-04T08:37:24.495Z</time></trkpt><trkpt lat="43.2491907" lon="11.1435822"><ele>464.5</ele><time>2026-04-04T08:37:25.509Z</time></trkpt><trkpt lat="43.249148" lon="11.1437808"><ele>464.0</ele><time>2026-04-04T08:37:26.505Z</time></trkpt><trkpt lat="43.249106" lon="11.1439658"><ele>463.5</ele><time>2026-04-04T08:37:27.503Z</time></trkpt><trkpt lat="43.2490782" lon="11.1441183"><ele>463.0</ele><time>2026-04-04T08:37:28.516Z</time></trkpt><trkpt lat="43.2490645" lon="11.1442514"><ele>463.00000000000006</ele><time>2026-04-04T08:37:29.52Z</time></trkpt><trkpt lat="43.2490555" lon="11.1443779"><ele>463.0</ele><time>2026-04-04T08:37:30.521Z</time></trkpt><trkpt lat="43.2490384" lon="11.1445127"><ele>463.0</ele><time>2026-04-04T08:37:31.507Z</time></trkpt><trkpt lat="43.2490183" lon="11.1446347"><ele>463.0</ele><time>2026-04-04T08:37:32.527Z</time></trkpt><trkpt lat="43.2489955" lon="11.1447168"><ele>463.00000000000006</ele><time>2026-04-04T08:37:33.517Z</time></trkpt><trkpt lat="43.2489627" lon="11.1448225"><ele>463.0</ele><time>2026-04-04T08:37:35.529Z</time></trkpt><trkpt lat="43.2489707" lon="11.144924"><ele>463.25</ele><time>2026-04-04T08:37:37.524Z</time></trkpt><trkpt lat="43.2490429" lon="11.1451118"><ele>463.5</ele><time>2026-04-04T08:37:39.531Z</time></trkpt><trkpt lat="43.24911" lon="11.1452472"><ele>463.75</ele><time>2026-04-04T08:37:40.519Z</time></trkpt><trkpt lat="43.2491806" lon="11.145381"><ele>464.0</ele><time>2026-04-04T08:37:41.516Z</time></trkpt><trkpt lat="43.2492463" lon="11.1455013"><ele>464.0</ele><time>2026-04-04T08:37:42.515Z</time></trkpt><trkpt lat="43.2493062" lon="11.1456144"><ele>464.0</ele><time>2026-04-04T08:37:43.51Z</time></trkpt><trkpt lat="43.2493561" lon="11.1457161"><ele>464.0</ele><time>2026-04-04T08:37:44.518Z</time></trkpt><trkpt lat="43.2494056" lon="11.1458177"><ele>464.0</ele><time>2026-04-04T08:37:45.507Z</time></trkpt><trkpt lat="43.2494532" lon="11.1459185"><ele>464.0</ele><time>2026-04-04T08:37:46.527Z</time></trkpt><trkpt lat="43.2494959" lon="11.146017"><ele>463.2</ele><time>2026-04-04T08:37:47.52Z</time></trkpt><trkpt lat="43.2495229" lon="11.1461185"><ele>462.4</ele><time>2026-04-04T08:37:48.523Z</time></trkpt><trkpt lat="43.249536" lon="11.146234"><ele>461.6</ele><time>2026-04-04T08:37:49.515Z</time></trkpt><trkpt lat="43.2495451" lon="11.1463587"><ele>460.8</ele><time>2026-04-04T08:37:50.511Z</time></trkpt><trkpt lat="43.2495452" lon="11.1464918"><ele>460.0</ele><time>2026-04-04T08:37:51.531Z</time></trkpt><trkpt lat="43.2495307" lon="11.146638"><ele>459.25</ele><time>2026-04-04T08:37:52.525Z</time></trkpt><trkpt lat="43.2494983" lon="11.1467963"><ele>458.5</ele><time>2026-04-04T08:37:53.513Z</time></trkpt><trkpt lat="43.2494576" lon="11.1469733"><ele>457.75</ele><time>2026-04-04T08:37:54.53Z</time></trkpt><trkpt lat="43.2494182" lon="11.1471634"><ele>457.0</ele><time>2026-04-04T08:37:55.529Z</time></trkpt><trkpt lat="43.249391" lon="11.1473519"><ele>455.75</ele><time>2026-04-04T08:37:56.512Z</time></trkpt><trkpt lat="43.2493656" lon="11.1475403"><ele>454.5</ele><time>2026-04-04T08:37:57.517Z</time></trkpt><trkpt lat="43.2493435" lon="11.1477316"><ele>453.25</ele><time>2026-04-04T08:37:58.513Z</time></trkpt><trkpt lat="43.2493182" lon="11.1479113"><ele>452.0</ele><time>2026-04-04T08:37:59.515Z</time></trkpt><trkpt lat="43.2492935" lon="11.1480798"><ele>451.25</ele><time>2026-04-04T08:38:00.532Z</time></trkpt><trkpt lat="43.2492683" lon="11.1482474"><ele>450.5</ele><time>2026-04-04T08:38:01.521Z</time></trkpt><trkpt lat="43.2492439" lon="11.1484185"><ele>449.75</ele><time>2026-04-04T08:38:02.523Z</time></trkpt><trkpt lat="43.2492169" lon="11.1485858"><ele>449.0</ele><time>2026-04-04T08:38:03.511Z</time></trkpt><trkpt lat="43.2491923" lon="11.1487439"><ele>449.0</ele><time>2026-04-04T08:38:04.516Z</time></trkpt><trkpt lat="43.2491674" lon="11.1488937"><ele>449.0</ele><time>2026-04-04T08:38:05.508Z</time></trkpt><trkpt lat="43.2491396" lon="11.1490451"><ele>449.0</ele><time>2026-04-04T08:38:06.512Z</time></trkpt><trkpt lat="43.2491135" lon="11.1491933"><ele>449.0</ele><time>2026-04-04T08:38:07.524Z</time></trkpt><trkpt lat="43.2490946" lon="11.1493434"><ele>449.0</ele><time>2026-04-04T08:38:08.534Z</time></trkpt><trkpt lat="43.2490807" lon="11.14949"><ele>449.0</ele><time>2026-04-04T08:38:09.525Z</time></trkpt><trkpt lat="43.2490643" lon="11.1496374"><ele>449.0</ele><time>2026-04-04T08:38:10.516Z</time></trkpt><trkpt lat="43.249049" lon="11.1497794"><ele>449.0</ele><time>2026-04-04T08:38:11.534Z</time></trkpt><trkpt lat="43.2490331" lon="11.1499256"><ele>449.0</ele><time>2026-04-04T08:38:12.525Z</time></trkpt><trkpt lat="43.2490115" lon="11.1500655"><ele>449.0</ele><time>2026-04-04T08:38:13.518Z</time></trkpt><trkpt lat="43.2490056" lon="11.1502106"><ele>448.2</ele><time>2026-04-04T08:38:14.526Z</time></trkpt><trkpt lat="43.2489996" lon="11.1503513"><ele>447.4</ele><time>2026-04-04T08:38:15.525Z</time></trkpt><trkpt lat="43.2490006" lon="11.1504983"><ele>446.6</ele><time>2026-04-04T08:38:16.514Z</time></trkpt><trkpt lat="43.2490103" lon="11.1506411"><ele>445.8</ele><time>2026-04-04T08:38:17.509Z</time></trkpt><trkpt lat="43.2490254" lon="11.1507888"><ele>445.0</ele><time>2026-04-04T08:38:18.525Z</time></trkpt><trkpt lat="43.2490416" lon="11.1509448"><ele>444.2</ele><time>2026-04-04T08:38:19.535Z</time></trkpt><trkpt lat="43.2490564" lon="11.1511005"><ele>443.4</ele><time>2026-04-04T08:38:20.532Z</time></trkpt><trkpt lat="43.2490718" lon="11.1512528"><ele>442.6</ele><time>2026-04-04T08:38:21.518Z</time></trkpt><trkpt lat="43.2490844" lon="11.1514048"><ele>441.8</ele><time>2026-04-04T08:38:22.525Z</time></trkpt><trkpt lat="43.2490975" lon="11.1515525"><ele>441.0</ele><time>2026-04-04T08:38:23.51Z</time></trkpt><trkpt lat="43.2491173" lon="11.1516968"><ele>440.6</ele><time>2026-04-04T08:38:24.507Z</time></trkpt><trkpt lat="43.2491387" lon="11.1518418"><ele>440.20000000000005</ele><time>2026-04-04T08:38:25.504Z</time></trkpt><trkpt lat="43.2491639" lon="11.1519851"><ele>439.79999999999995</ele><time>2026-04-04T08:38:26.527Z</time></trkpt><trkpt lat="43.2491856" lon="11.1521164"><ele>439.4</ele><time>2026-04-04T08:38:27.518Z</time></trkpt><trkpt lat="43.2492154" lon="11.1522442"><ele>439.0</ele><time>2026-04-04T08:38:28.534Z</time></trkpt><trkpt lat="43.2492489" lon="11.1523618"><ele>438.6</ele><time>2026-04-04T08:38:29.517Z</time></trkpt><trkpt lat="43.2492893" lon="11.1524698"><ele>438.2</ele><time>2026-04-04T08:38:30.532Z</time></trkpt><trkpt lat="43.2493253" lon="11.1525835"><ele>437.80000000000007</ele><time>2026-04-04T08:38:31.527Z</time></trkpt><trkpt lat="43.2493505" lon="11.1527209"><ele>437.40000000000003</ele><time>2026-04-04T08:38:32.516Z</time></trkpt><trkpt lat="43.2493631" lon="11.1528715"><ele>437.0</ele><time>2026-04-04T08:38:33.535Z</time></trkpt><trkpt lat="43.24936" lon="11.1530159"><ele>437.0</ele><time>2026-04-04T08:38:34.52Z</time></trkpt><trkpt lat="43.2493405" lon="11.1531565"><ele>437.00000000000006</ele><time>2026-04-04T08:38:35.517Z</time></trkpt><trkpt lat="43.2493096" lon="11.1532926"><ele>437.00000000000006</ele><time>2026-04-04T08:38:36.509Z</time></trkpt><trkpt lat="43.2492707" lon="11.1534333"><ele>437.0</ele><time>2026-04-04T08:38:37.521Z</time></trkpt><trkpt lat="43.2492234" lon="11.1535694"><ele>437.0</ele><time>2026-04-04T08:38:38.524Z</time></trkpt><trkpt lat="43.2491647" lon="11.1536895"><ele>436.0</ele><time>2026-04-04T08:38:39.527Z</time></trkpt><trkpt lat="43.2490984" lon="11.1537954"><ele>435.00000000000006</ele><time>2026-04-04T08:38:40.525Z</time></trkpt><trkpt lat="43.2490274" lon="11.1538913"><ele>434.00000000000006</ele><time>2026-04-04T08:38:41.528Z</time></trkpt><trkpt lat="43.2489356" lon="11.1539699"><ele>433.0</ele><time>2026-04-04T08:38:42.519Z</time></trkpt><trkpt lat="43.2488205" lon="11.1540414"><ele>432.0</ele><time>2026-04-04T08:38:43.519Z</time></trkpt><trkpt lat="43.2487101" lon="11.1541137"><ele>429.6</ele><time>2026-04-04T08:38:44.52Z</time></trkpt><trkpt lat="43.248616" lon="11.1541918"><ele>427.20000000000005</ele><time>2026-04-04T08:38:45.514Z</time></trkpt><trkpt lat="43.2485391" lon="11.1542736"><ele>424.8</ele><time>2026-04-04T08:38:46.517Z</time></trkpt><trkpt lat="43.2484829" lon="11.1543553"><ele>422.4</ele><time>2026-04-04T08:38:47.518Z</time></trkpt><trkpt lat="43.248428" lon="11.1544257"><ele>420.0</ele><time>2026-04-04T08:38:48.52Z</time></trkpt><trkpt lat="43.2483274" lon="11.1545207"><ele>420.0</ele><time>2026-04-04T08:38:50.528Z</time></trkpt><trkpt lat="43.2482643" lon="11.1545265"><ele>420.0</ele><time>2026-04-04T08:38:51.507Z</time></trkpt><trkpt lat="43.2481954" lon="11.1544851"><ele>420.0</ele><time>2026-04-04T08:38:52.518Z</time></trkpt><trkpt lat="43.2481349" lon="11.1544282"><ele>420.0</ele><time>2026-04-04T08:38:53.512Z</time></trkpt><trkpt lat="43.2480923" lon="11.1542973"><ele>420.0</ele><time>2026-04-04T08:38:55.513Z</time></trkpt><trkpt lat="43.2481096" lon="11.1541042"><ele>418.1666666666667</ele><time>2026-04-04T08:38:57.521Z</time></trkpt><trkpt lat="43.248117" lon="11.153998"><ele>416.33333333333337</ele><time>2026-04-04T08:38:58.518Z</time></trkpt><trkpt lat="43.248049" lon="11.1538849"><ele>414.5</ele><time>2026-04-04T08:39:00.515Z</time></trkpt><trkpt lat="43.2479597" lon="11.1539191"><ele>412.6666666666667</ele><time>2026-04-04T08:39:02.519Z</time></trkpt><trkpt lat="43.247919" lon="11.1539986"><ele>410.83333333333337</ele><time>2026-04-04T08:39:03.512Z</time></trkpt><trkpt lat="43.2478761" lon="11.1541231"><ele>409.0</ele><time>2026-04-04T08:39:04.528Z</time></trkpt><trkpt lat="43.2478576" lon="11.154259"><ele>408.2</ele><time>2026-04-04T08:39:05.506Z</time></trkpt><trkpt lat="43.2478424" lon="11.1543892"><ele>407.4</ele><time>2026-04-04T08:39:06.512Z</time></trkpt><trkpt lat="43.2478049" lon="11.1545172"><ele>406.6</ele><time>2026-04-04T08:39:07.552Z</time></trkpt><trkpt lat="43.2477782" lon="11.1546462"><ele>405.8</ele><time>2026-04-04T08:39:08.525Z</time></trkpt><trkpt lat="43.2477506" lon="11.1547683"><ele>405.0</ele><time>2026-04-04T08:39:09.511Z</time></trkpt><trkpt lat="43.2477235" lon="11.1548942"><ele>404.6666666666667</ele><time>2026-04-04T08:39:10.527Z</time></trkpt><trkpt lat="43.2477004" lon="11.1550096"><ele>404.33333333333337</ele><time>2026-04-04T08:39:11.514Z</time></trkpt><trkpt lat="43.2476862" lon="11.1551199"><ele>404.0</ele><time>2026-04-04T08:39:12.521Z</time></trkpt><trkpt lat="43.247691" lon="11.1552341"><ele>403.6666666666667</ele><time>2026-04-04T08:39:13.514Z</time></trkpt><trkpt lat="43.2477246" lon="11.1553521"><ele>403.33333333333337</ele><time>2026-04-04T08:39:14.514Z</time></trkpt><trkpt lat="43.2477612" lon="11.1554686"><ele>403.0</ele><time>2026-04-04T08:39:15.514Z</time></trkpt><trkpt lat="43.2478059" lon="11.1555709"><ele>403.00000000000006</ele><time>2026-04-04T08:39:16.528Z</time></trkpt><trkpt lat="43.2478458" lon="11.1556745"><ele>403.0</ele><time>2026-04-04T08:39:17.523Z</time></trkpt><trkpt lat="43.2478685" lon="11.1557857"><ele>403.0</ele><time>2026-04-04T08:39:18.515Z</time></trkpt><trkpt lat="43.2478672" lon="11.1558893"><ele>403.0</ele><time>2026-04-04T08:39:19.524Z</time></trkpt><trkpt lat="43.2478628" lon="11.1559905"><ele>403.00000000000006</ele><time>2026-04-04T08:39:20.51Z</time></trkpt><trkpt lat="43.2478597" lon="11.1560915"><ele>403.0</ele><time>2026-04-04T08:39:21.512Z</time></trkpt><trkpt lat="43.247875" lon="11.1562015"><ele>401.59999999999997</ele><time>2026-04-04T08:39:22.516Z</time></trkpt><trkpt lat="43.2479043" lon="11.1563089"><ele>400.2</ele><time>2026-04-04T08:39:23.517Z</time></trkpt><trkpt lat="43.2479323" lon="11.1564095"><ele>398.8</ele><time>2026-04-04T08:39:24.523Z</time></trkpt><trkpt lat="43.2479644" lon="11.1565485"><ele>397.4</ele><time>2026-04-04T08:39:25.52Z</time></trkpt><trkpt lat="43.2479954" lon="11.1566867"><ele>396.0</ele><time>2026-04-04T08:39:26.517Z</time></trkpt><trkpt lat="43.2480241" lon="11.1568284"><ele>393.8</ele><time>2026-04-04T08:39:27.522Z</time></trkpt><trkpt lat="43.2480428" lon="11.1569567"><ele>391.6</ele><time>2026-04-04T08:39:28.516Z</time></trkpt><trkpt lat="43.2480605" lon="11.1570911"><ele>389.4</ele><time>2026-04-04T08:39:29.52Z</time></trkpt><trkpt lat="43.2480688" lon="11.1572205"><ele>387.2</ele><time>2026-04-04T08:39:30.511Z</time></trkpt><trkpt lat="43.2480661" lon="11.1573495"><ele>385.0</ele><time>2026-04-04T08:39:31.515Z</time></trkpt><trkpt lat="43.2480602" lon="11.1574831"><ele>383.8</ele><time>2026-04-04T08:39:32.526Z</time></trkpt><trkpt lat="43.2480514" lon="11.1576086"><ele>382.6</ele><time>2026-04-04T08:39:33.524Z</time></trkpt><trkpt lat="43.2480337" lon="11.1577287"><ele>381.4</ele><time>2026-04-04T08:39:34.52Z</time></trkpt><trkpt lat="43.2480023" lon="11.1578519"><ele>380.2</ele><time>2026-04-04T08:39:35.513Z</time></trkpt><trkpt lat="43.2479543" lon="11.1579839"><ele>379.0</ele><time>2026-04-04T08:39:36.52Z</time></trkpt><trkpt lat="43.2479047" lon="11.1581236"><ele>379.2</ele><time>2026-04-04T08:39:37.524Z</time></trkpt><trkpt lat="43.2478395" lon="11.1582418"><ele>379.4</ele><time>2026-04-04T08:39:38.511Z</time></trkpt><trkpt lat="43.2477854" lon="11.1583607"><ele>379.6</ele><time>2026-04-04T08:39:39.526Z</time></trkpt><trkpt lat="43.2477295" lon="11.1584742"><ele>379.8</ele><time>2026-04-04T08:39:40.52Z</time></trkpt><trkpt lat="43.2476817" lon="11.1585823"><ele>380.0</ele><time>2026-04-04T08:39:41.499Z</time></trkpt><trkpt lat="43.2476348" lon="11.1586873"><ele>380.0</ele><time>2026-04-04T08:39:42.496Z</time></trkpt><trkpt lat="43.2476003" lon="11.1588006"><ele>380.0</ele><time>2026-04-04T08:39:43.509Z</time></trkpt><trkpt lat="43.24758" lon="11.1589127"><ele>380.0</ele><time>2026-04-04T08:39:44.509Z</time></trkpt><trkpt lat="43.2475771" lon="11.1590495"><ele>380.0</ele><time>2026-04-04T08:39:45.517Z</time></trkpt><trkpt lat="43.247575" lon="11.1592017"><ele>380.0</ele><time>2026-04-04T08:39:46.526Z</time></trkpt><trkpt lat="43.2475823" lon="11.1593573"><ele>379.75</ele><time>2026-04-04T08:39:47.515Z</time></trkpt><trkpt lat="43.2475886" lon="11.1595163"><ele>379.5</ele><time>2026-04-04T08:39:48.516Z</time></trkpt><trkpt lat="43.2475971" lon="11.1596796"><ele>379.25</ele><time>2026-04-04T08:39:49.525Z</time></trkpt><trkpt lat="43.2476034" lon="11.1598467"><ele>379.0</ele><time>2026-04-04T08:39:50.517Z</time></trkpt><trkpt lat="43.2476088" lon="11.159994"><ele>378.0</ele><time>2026-04-04T08:39:51.513Z</time></trkpt><trkpt lat="43.2476153" lon="11.1601381"><ele>377.0</ele><time>2026-04-04T08:39:52.521Z</time></trkpt><trkpt lat="43.2476216" lon="11.1602915"><ele>376.0</ele><time>2026-04-04T08:39:53.51Z</time></trkpt><trkpt lat="43.2476265" lon="11.1604329"><ele>375.0</ele><time>2026-04-04T08:39:54.515Z</time></trkpt><trkpt lat="43.2476331" lon="11.1605663"><ele>374.0</ele><time>2026-04-04T08:39:55.523Z</time></trkpt><trkpt lat="43.24764" lon="11.160678"><ele>373.2</ele><time>2026-04-04T08:39:56.514Z</time></trkpt><trkpt lat="43.2476427" lon="11.160845"><ele>372.4</ele><time>2026-04-04T08:39:58.529Z</time></trkpt><trkpt lat="43.2476055" lon="11.1609797"><ele>371.6</ele><time>2026-04-04T08:40:00.502Z</time></trkpt><trkpt lat="43.2475508" lon="11.1610319"><ele>370.8</ele><time>2026-04-04T08:40:01.501Z</time></trkpt><trkpt lat="43.2474914" lon="11.1610639"><ele>370.0</ele><time>2026-04-04T08:40:02.498Z</time></trkpt><trkpt lat="43.2473926" lon="11.1610165"><ele>369.99999999999994</ele><time>2026-04-04T08:40:04.499Z</time></trkpt><trkpt lat="43.2473526" lon="11.1609383"><ele>370.0</ele><time>2026-04-04T08:40:05.502Z</time></trkpt><trkpt lat="43.2473203" lon="11.1608316"><ele>370.0</ele><time>2026-04-04T08:40:06.497Z</time></trkpt><trkpt lat="43.2472951" lon="11.1607165"><ele>370.0</ele><time>2026-04-04T08:40:07.496Z</time></trkpt><trkpt lat="43.2472714" lon="11.1606215"><ele>370.0</ele><time>2026-04-04T08:40:08.489Z</time></trkpt><trkpt lat="43.2472434" lon="11.1605436"><ele>369.99999999999994</ele><time>2026-04-04T08:40:09.503Z</time></trkpt><trkpt lat="43.2471816" lon="11.1605068"><ele>370.0</ele><time>2026-04-04T08:40:10.498Z</time></trkpt><trkpt lat="43.2470602" lon="11.1605341"><ele>367.3333333333333</ele><time>2026-04-04T08:40:12.497Z</time></trkpt><trkpt lat="43.2469945" lon="11.1605941"><ele>364.66666666666663</ele><time>2026-04-04T08:40:13.497Z</time></trkpt><trkpt lat="43.246953" lon="11.1606994"><ele>362.0</ele><time>2026-04-04T08:40:14.498Z</time></trkpt><trkpt lat="43.2469146" lon="11.1608161"><ele>359.3333333333333</ele><time>2026-04-04T08:40:15.496Z</time></trkpt><trkpt lat="43.2468866" lon="11.1609295"><ele>356.6666666666667</ele><time>2026-04-04T08:40:16.501Z</time></trkpt><trkpt lat="43.2468547" lon="11.1610419"><ele>354.0</ele><time>2026-04-04T08:40:17.499Z</time></trkpt><trkpt lat="43.2468296" lon="11.1611477"><ele>354.0</ele><time>2026-04-04T08:40:18.499Z</time></trkpt><trkpt lat="43.2468248" lon="11.1612619"><ele>354.0</ele><time>2026-04-04T08:40:19.502Z</time></trkpt><trkpt lat="43.2468273" lon="11.1613808"><ele>354.0</ele><time>2026-04-04T08:40:20.498Z</time></trkpt><trkpt lat="43.2468439" lon="11.1615102"><ele>354.0</ele><time>2026-04-04T08:40:21.501Z</time></trkpt><trkpt lat="43.246868" lon="11.1616451"><ele>354.0</ele><time>2026-04-04T08:40:22.499Z</time></trkpt><trkpt lat="43.2468856" lon="11.1617895"><ele>353.2</ele><time>2026-04-04T08:40:23.5Z</time></trkpt><trkpt lat="43.2468982" lon="11.1619282"><ele>352.4</ele><time>2026-04-04T08:40:24.505Z</time></trkpt><trkpt lat="43.2469177" lon="11.1620559"><ele>351.6</ele><time>2026-04-04T08:40:25.51Z</time></trkpt><trkpt lat="43.2469383" lon="11.1621792"><ele>350.8</ele><time>2026-04-04T08:40:26.495Z</time></trkpt><trkpt lat="43.2469587" lon="11.1623062"><ele>350.0</ele><time>2026-04-04T08:40:27.509Z</time></trkpt><trkpt lat="43.246975" lon="11.1624261"><ele>348.6</ele><time>2026-04-04T08:40:28.5Z</time></trkpt><trkpt lat="43.2470003" lon="11.1625397"><ele>347.2</ele><time>2026-04-04T08:40:29.505Z</time></trkpt><trkpt lat="43.2470362" lon="11.1626505"><ele>345.79999999999995</ele><time>2026-04-04T08:40:30.496Z</time></trkpt><trkpt lat="43.2470834" lon="11.1627633"><ele>344.4</ele><time>2026-04-04T08:40:31.503Z</time></trkpt><trkpt lat="43.2471359" lon="11.1628779"><ele>343.0</ele><time>2026-04-04T08:40:32.502Z</time></trkpt><trkpt lat="43.2472054" lon="11.1629903"><ele>343.0</ele><time>2026-04-04T08:40:33.5Z</time></trkpt><trkpt lat="43.2472843" lon="11.1631047"><ele>343.0</ele><time>2026-04-04T08:40:34.498Z</time></trkpt><trkpt lat="43.2473691" lon="11.1632175"><ele>343.0</ele><time>2026-04-04T08:40:35.496Z</time></trkpt><trkpt lat="43.2474444" lon="11.1633078"><ele>343.0</ele><time>2026-04-04T08:40:36.499Z</time></trkpt><trkpt lat="43.247521" lon="11.1633925"><ele>343.0</ele><time>2026-04-04T08:40:37.495Z</time></trkpt><trkpt lat="43.24759" lon="11.1634646"><ele>343.0</ele><time>2026-04-04T08:40:38.501Z</time></trkpt><trkpt lat="43.2476414" lon="11.1635319"><ele>343.0</ele><time>2026-04-04T08:40:39.501Z</time></trkpt><trkpt lat="43.2476913" lon="11.1636729"><ele>343.0</ele><time>2026-04-04T08:40:41.502Z</time></trkpt><trkpt lat="43.24769" lon="11.1637609"><ele>343.0</ele><time>2026-04-04T08:40:42.494Z</time></trkpt><trkpt lat="43.2476693" lon="11.1638443"><ele>343.0</ele><time>2026-04-04T08:40:43.504Z</time></trkpt><trkpt lat="43.2476293" lon="11.163919"><ele>343.0</ele><time>2026-04-04T08:40:44.499Z</time></trkpt><trkpt lat="43.2475473" lon="11.1639888"><ele>340.25</ele><time>2026-04-04T08:40:45.5Z</time></trkpt><trkpt lat="43.2474425" lon="11.1640553"><ele>337.5</ele><time>2026-04-04T08:40:46.497Z</time></trkpt><trkpt lat="43.2473174" lon="11.1641243"><ele>334.75</ele><time>2026-04-04T08:40:47.5Z</time></trkpt><trkpt lat="43.2472004" lon="11.1641934"><ele>332.0</ele><time>2026-04-04T08:40:48.494Z</time></trkpt><trkpt lat="43.2470973" lon="11.1642747"><ele>331.75</ele><time>2026-04-04T08:40:49.496Z</time></trkpt><trkpt lat="43.246984" lon="11.1643478"><ele>331.5</ele><time>2026-04-04T08:40:50.499Z</time></trkpt><trkpt lat="43.2468664" lon="11.1644189"><ele>331.25</ele><time>2026-04-04T08:40:51.497Z</time></trkpt><trkpt lat="43.2467413" lon="11.1645006"><ele>331.0</ele><time>2026-04-04T08:40:52.513Z</time></trkpt><trkpt lat="43.2466296" lon="11.16458"><ele>331.0</ele><time>2026-04-04T08:40:53.496Z</time></trkpt><trkpt lat="43.2465195" lon="11.1646637"><ele>331.0</ele><time>2026-04-04T08:40:54.501Z</time></trkpt><trkpt lat="43.2464121" lon="11.1647378"><ele>331.0</ele><time>2026-04-04T08:40:55.499Z</time></trkpt><trkpt lat="43.2462999" lon="11.1648137"><ele>331.0</ele><time>2026-04-04T08:40:56.514Z</time></trkpt><trkpt lat="43.246187" lon="11.1648928"><ele>329.4</ele><time>2026-04-04T08:40:57.506Z</time></trkpt><trkpt lat="43.2460783" lon="11.164964"><ele>327.8</ele><time>2026-04-04T08:40:58.504Z</time></trkpt><trkpt lat="43.2459713" lon="11.1650387"><ele>326.2</ele><time>2026-04-04T08:40:59.521Z</time></trkpt><trkpt lat="43.2458744" lon="11.1650993"><ele>324.59999999999997</ele><time>2026-04-04T08:41:00.514Z</time></trkpt><trkpt lat="43.2457898" lon="11.165174"><ele>323.0</ele><time>2026-04-04T08:41:01.521Z</time></trkpt><trkpt lat="43.2457107" lon="11.1652527"><ele>323.0</ele><time>2026-04-04T08:41:02.509Z</time></trkpt><trkpt lat="43.2456363" lon="11.165335"><ele>323.0</ele><time>2026-04-04T08:41:03.518Z</time></trkpt><trkpt lat="43.2455782" lon="11.1654442"><ele>323.0</ele><time>2026-04-04T08:41:04.52Z</time></trkpt><trkpt lat="43.2455239" lon="11.1655689"><ele>323.0</ele><time>2026-04-04T08:41:05.528Z</time></trkpt><trkpt lat="43.2454794" lon="11.1657013"><ele>323.0</ele><time>2026-04-04T08:41:06.504Z</time></trkpt><trkpt lat="43.2454549" lon="11.1658499"><ele>321.0</ele><time>2026-04-04T08:41:07.528Z</time></trkpt><trkpt lat="43.2454453" lon="11.1659896"><ele>319.0</ele><time>2026-04-04T08:41:08.513Z</time></trkpt><trkpt lat="43.2454427" lon="11.1661208"><ele>317.0</ele><time>2026-04-04T08:41:09.502Z</time></trkpt><trkpt lat="43.2454587" lon="11.1662781"><ele>315.0</ele><time>2026-04-04T08:41:10.505Z</time></trkpt><trkpt lat="43.2454846" lon="11.1664406"><ele>313.0</ele><time>2026-04-04T08:41:11.507Z</time></trkpt><trkpt lat="43.245527" lon="11.1666203"><ele>312.0</ele><time>2026-04-04T08:41:12.509Z</time></trkpt><trkpt lat="43.2455745" lon="11.1667873"><ele>311.0</ele><time>2026-04-04T08:41:13.508Z</time></trkpt><trkpt lat="43.2456351" lon="11.1669392"><ele>310.0</ele><time>2026-04-04T08:41:14.508Z</time></trkpt><trkpt lat="43.2456823" lon="11.1670918"><ele>309.0</ele><time>2026-04-04T08:41:15.502Z</time></trkpt><trkpt lat="43.2457229" lon="11.1672287"><ele>310.0</ele><time>2026-04-04T08:41:16.504Z</time></trkpt><trkpt lat="43.2457701" lon="11.1673677"><ele>311.0</ele><time>2026-04-04T08:41:17.507Z</time></trkpt><trkpt lat="43.2458115" lon="11.1674859"><ele>312.0</ele><time>2026-04-04T08:41:18.507Z</time></trkpt><trkpt lat="43.2458418" lon="11.1676081"><ele>313.0</ele><time>2026-04-04T08:41:19.514Z</time></trkpt><trkpt lat="43.245874" lon="11.1677291"><ele>314.0</ele><time>2026-04-04T08:41:20.499Z</time></trkpt><trkpt lat="43.2458869" lon="11.167855"><ele>314.0</ele><time>2026-04-04T08:41:21.501Z</time></trkpt><trkpt lat="43.2458883" lon="11.1679756"><ele>314.0</ele><time>2026-04-04T08:41:22.5Z</time></trkpt><trkpt lat="43.2458836" lon="11.168111"><ele>314.0</ele><time>2026-04-04T08:41:23.502Z</time></trkpt><trkpt lat="43.2458728" lon="11.1682515"><ele>314.0</ele><time>2026-04-04T08:41:24.506Z</time></trkpt><trkpt lat="43.2458534" lon="11.1683941"><ele>314.0</ele><time>2026-04-04T08:41:25.501Z</time></trkpt><trkpt lat="43.2458336" lon="11.1685334"><ele>313.6666666666667</ele><time>2026-04-04T08:41:26.506Z</time></trkpt><trkpt lat="43.2458144" lon="11.168665"><ele>313.33333333333337</ele><time>2026-04-04T08:41:27.506Z</time></trkpt><trkpt lat="43.2457926" lon="11.1687877"><ele>313.0</ele><time>2026-04-04T08:41:28.506Z</time></trkpt><trkpt lat="43.245775" lon="11.168896"><ele>312.6666666666667</ele><time>2026-04-04T08:41:29.506Z</time></trkpt><trkpt lat="43.2457639" lon="11.1689985"><ele>312.3333333333333</ele><time>2026-04-04T08:41:30.503Z</time></trkpt><trkpt lat="43.2457689" lon="11.1691127"><ele>312.0</ele><time>2026-04-04T08:41:31.505Z</time></trkpt><trkpt lat="43.2457914" lon="11.1692286"><ele>311.2</ele><time>2026-04-04T08:41:32.51Z</time></trkpt><trkpt lat="43.2458226" lon="11.1693411"><ele>310.4</ele><time>2026-04-04T08:41:33.525Z</time></trkpt><trkpt lat="43.2458733" lon="11.1694534"><ele>309.6</ele><time>2026-04-04T08:41:34.51Z</time></trkpt><trkpt lat="43.2459406" lon="11.1695466"><ele>308.8</ele><time>2026-04-04T08:41:35.508Z</time></trkpt><trkpt lat="43.2460396" lon="11.1696363"><ele>308.0</ele><time>2026-04-04T08:41:36.509Z</time></trkpt><trkpt lat="43.2461544" lon="11.1697164"><ele>308.0</ele><time>2026-04-04T08:41:37.502Z</time></trkpt><trkpt lat="43.2462695" lon="11.1697781"><ele>308.0</ele><time>2026-04-04T08:41:38.515Z</time></trkpt><trkpt lat="43.2463914" lon="11.1698417"><ele>308.0</ele><time>2026-04-04T08:41:39.508Z</time></trkpt><trkpt lat="43.2464952" lon="11.169887"><ele>308.0</ele><time>2026-04-04T08:41:40.511Z</time></trkpt><trkpt lat="43.2465906" lon="11.1699309"><ele>307.0</ele><time>2026-04-04T08:41:41.502Z</time></trkpt><trkpt lat="43.2466717" lon="11.169971"><ele>306.0</ele><time>2026-04-04T08:41:42.51Z</time></trkpt><trkpt lat="43.2467516" lon="11.1700051"><ele>305.0</ele><time>2026-04-04T08:41:43.514Z</time></trkpt><trkpt lat="43.246826" lon="11.170052"><ele>304.0</ele><time>2026-04-04T08:41:44.504Z</time></trkpt><trkpt lat="43.2468795" lon="11.1701075"><ele>303.0</ele><time>2026-04-04T08:41:45.504Z</time></trkpt><trkpt lat="43.2469361" lon="11.1702501"><ele>302.0</ele><time>2026-04-04T08:41:47.495Z</time></trkpt><trkpt lat="43.2469585" lon="11.1703672"><ele>302.0</ele><time>2026-04-04T08:41:49.495Z</time></trkpt><trkpt lat="43.2469595" lon="11.170463"><ele>302.0</ele><time>2026-04-04T08:41:51.512Z</time></trkpt><trkpt lat="43.2469295" lon="11.1706142"><ele>302.0</ele><time>2026-04-04T08:42:02.529Z</time></trkpt><trkpt lat="43.246867" lon="11.1707157"><ele>302.0</ele><time>2026-04-04T08:42:03.53Z</time></trkpt><trkpt lat="43.2467721" lon="11.170821"><ele>302.0</ele><time>2026-04-04T08:42:04.512Z</time></trkpt><trkpt lat="43.2466616" lon="11.1709382"><ele>301.33333333333337</ele><time>2026-04-04T08:42:05.518Z</time></trkpt><trkpt lat="43.2465296" lon="11.1710424"><ele>300.6666666666667</ele><time>2026-04-04T08:42:06.503Z</time></trkpt><trkpt lat="43.2463661" lon="11.1711404"><ele>300.0</ele><time>2026-04-04T08:42:07.509Z</time></trkpt><trkpt lat="43.24618" lon="11.1712206"><ele>299.0</ele><time>2026-04-04T08:42:08.505Z</time></trkpt><trkpt lat="43.2459616" lon="11.1712829"><ele>298.0</ele><time>2026-04-04T08:42:09.494Z</time></trkpt><trkpt lat="43.2457442" lon="11.1713534"><ele>297.0</ele><time>2026-04-04T08:42:10.506Z</time></trkpt><trkpt lat="43.2455272" lon="11.1714088"><ele>296.6666666666667</ele><time>2026-04-04T08:42:11.511Z</time></trkpt><trkpt lat="43.2453285" lon="11.1714652"><ele>296.33333333333337</ele><time>2026-04-04T08:42:12.497Z</time></trkpt><trkpt lat="43.2451308" lon="11.1715156"><ele>296.0</ele><time>2026-04-04T08:42:13.497Z</time></trkpt><trkpt lat="43.2449417" lon="11.171568"><ele>295.6666666666667</ele><time>2026-04-04T08:42:14.511Z</time></trkpt><trkpt lat="43.2447556" lon="11.1716243"><ele>295.3333333333333</ele><time>2026-04-04T08:42:15.5Z</time></trkpt><trkpt lat="43.2445755" lon="11.1716734"><ele>295.0</ele><time>2026-04-04T08:42:16.508Z</time></trkpt><trkpt lat="43.2444004" lon="11.1717191"><ele>295.0</ele><time>2026-04-04T08:42:17.504Z</time></trkpt><trkpt lat="43.2442271" lon="11.171764"><ele>295.0</ele><time>2026-04-04T08:42:18.509Z</time></trkpt><trkpt lat="43.2440607" lon="11.1718118"><ele>295.0</ele><time>2026-04-04T08:42:19.51Z</time></trkpt><trkpt lat="43.2438928" lon="11.1718595"><ele>294.3333333333333</ele><time>2026-04-04T08:42:20.498Z</time></trkpt><trkpt lat="43.2437233" lon="11.1719011"><ele>293.6666666666667</ele><time>2026-04-04T08:42:21.512Z</time></trkpt><trkpt lat="43.2435501" lon="11.1719521"><ele>293.0</ele><time>2026-04-04T08:42:22.509Z</time></trkpt><trkpt lat="43.2433772" lon="11.1719985"><ele>293.0</ele><time>2026-04-04T08:42:23.512Z</time></trkpt><trkpt lat="43.2432074" lon="11.1720452"><ele>293.0</ele><time>2026-04-04T08:42:24.506Z</time></trkpt><trkpt lat="43.2430379" lon="11.1720912"><ele>293.0</ele><time>2026-04-04T08:42:25.506Z</time></trkpt><trkpt lat="43.2428669" lon="11.172137"><ele>292.6666666666667</ele><time>2026-04-04T08:42:26.509Z</time></trkpt><trkpt lat="43.2426897" lon="11.1721857"><ele>292.3333333333333</ele><time>2026-04-04T08:42:27.512Z</time></trkpt><trkpt lat="43.2425124" lon="11.172245"><ele>292.0</ele><time>2026-04-04T08:42:28.508Z</time></trkpt><trkpt lat="43.2423351" lon="11.1722987"><ele>292.0</ele><time>2026-04-04T08:42:29.507Z</time></trkpt><trkpt lat="43.2421611" lon="11.1723496"><ele>292.0</ele><time>2026-04-04T08:42:30.506Z</time></trkpt><trkpt lat="43.2419831" lon="11.1724061"><ele>292.0</ele><time>2026-04-04T08:42:31.511Z</time></trkpt><trkpt lat="43.2417982" lon="11.1724616"><ele>292.0</ele><time>2026-04-04T08:42:32.515Z</time></trkpt><trkpt lat="43.2416064" lon="11.1725204"><ele>292.0</ele><time>2026-04-04T08:42:33.509Z</time></trkpt><trkpt lat="43.241396" lon="11.172578"><ele>292.0</ele><time>2026-04-04T08:42:34.497Z</time></trkpt><trkpt lat="43.2411761" lon="11.1726453"><ele>292.0</ele><time>2026-04-04T08:42:35.509Z</time></trkpt><trkpt lat="43.2409532" lon="11.1727086"><ele>292.0</ele><time>2026-04-04T08:42:36.513Z</time></trkpt><trkpt lat="43.2407305" lon="11.1727727"><ele>291.66666666666663</ele><time>2026-04-04T08:42:37.514Z</time></trkpt><trkpt lat="43.2405256" lon="11.1728369"><ele>291.3333333333333</ele><time>2026-04-04T08:42:38.514Z</time></trkpt><trkpt lat="43.2403263" lon="11.1728907"><ele>291.0</ele><time>2026-04-04T08:42:39.508Z</time></trkpt><trkpt lat="43.2401265" lon="11.1729406"><ele>291.0</ele><time>2026-04-04T08:42:40.5Z</time></trkpt><trkpt lat="43.2399246" lon="11.173004"><ele>291.0</ele><time>2026-04-04T08:42:41.514Z</time></trkpt><trkpt lat="43.2397152" lon="11.1730638"><ele>291.0</ele><time>2026-04-04T08:42:42.51Z</time></trkpt><trkpt lat="43.2395107" lon="11.1731326"><ele>291.3333333333333</ele><time>2026-04-04T08:42:43.514Z</time></trkpt><trkpt lat="43.2393131" lon="11.173209"><ele>291.66666666666663</ele><time>2026-04-04T08:42:44.505Z</time></trkpt><trkpt lat="43.2391371" lon="11.1733103"><ele>292.0</ele><time>2026-04-04T08:42:45.498Z</time></trkpt><trkpt lat="43.2389683" lon="11.1734434"><ele>291.0</ele><time>2026-04-04T08:42:46.523Z</time></trkpt><trkpt lat="43.2388178" lon="11.1735974"><ele>290.0</ele><time>2026-04-04T08:42:47.512Z</time></trkpt><trkpt lat="43.2386884" lon="11.1737668"><ele>289.0</ele><time>2026-04-04T08:42:48.498Z</time></trkpt><trkpt lat="43.2385708" lon="11.1739459"><ele>288.66666666666663</ele><time>2026-04-04T08:42:49.517Z</time></trkpt><trkpt lat="43.2384695" lon="11.1741447"><ele>288.3333333333333</ele><time>2026-04-04T08:42:50.51Z</time></trkpt><trkpt lat="43.2383827" lon="11.1743757"><ele>288.0</ele><time>2026-04-04T08:42:51.5Z</time></trkpt><trkpt lat="43.2383131" lon="11.174624"><ele>288.0</ele><time>2026-04-04T08:42:52.515Z</time></trkpt><trkpt lat="43.2382329" lon="11.1749007"><ele>288.0</ele><time>2026-04-04T08:42:53.51Z</time></trkpt><trkpt lat="43.2381685" lon="11.1751848"><ele>288.0</ele><time>2026-04-04T08:42:54.494Z</time></trkpt><trkpt lat="43.2380953" lon="11.1754476"><ele>287.6666666666667</ele><time>2026-04-04T08:42:55.505Z</time></trkpt><trkpt lat="43.2380245" lon="11.1756942"><ele>287.33333333333337</ele><time>2026-04-04T08:42:56.5Z</time></trkpt><trkpt lat="43.2379695" lon="11.1759247"><ele>287.0</ele><time>2026-04-04T08:42:57.503Z</time></trkpt><trkpt lat="43.2379086" lon="11.1761346"><ele>287.0</ele><time>2026-04-04T08:42:58.508Z</time></trkpt><trkpt lat="43.2378338" lon="11.1763254"><ele>287.0</ele><time>2026-04-04T08:42:59.507Z</time></trkpt><trkpt lat="43.2377344" lon="11.1764749"><ele>287.0</ele><time>2026-04-04T08:43:00.511Z</time></trkpt><trkpt lat="43.2375977" lon="11.1765796"><ele>287.33333333333337</ele><time>2026-04-04T08:43:01.49Z</time></trkpt><trkpt lat="43.2374442" lon="11.1766231"><ele>287.6666666666667</ele><time>2026-04-04T08:43:02.5Z</time></trkpt><trkpt lat="43.2372747" lon="11.1766275"><ele>288.0</ele><time>2026-04-04T08:43:03.499Z</time></trkpt><trkpt lat="43.2370918" lon="11.1766168"><ele>288.6666666666667</ele><time>2026-04-04T08:43:04.524Z</time></trkpt><trkpt lat="43.2369042" lon="11.1766026"><ele>289.33333333333337</ele><time>2026-04-04T08:43:05.524Z</time></trkpt><trkpt lat="43.2367156" lon="11.1765843"><ele>290.0</ele><time>2026-04-04T08:43:06.504Z</time></trkpt><trkpt lat="43.2365211" lon="11.176569"><ele>291.0</ele><time>2026-04-04T08:43:07.514Z</time></trkpt><trkpt lat="43.2363078" lon="11.1765599"><ele>292.0</ele><time>2026-04-04T08:43:08.515Z</time></trkpt><trkpt lat="43.2360847" lon="11.1765358"><ele>293.0</ele><time>2026-04-04T08:43:09.516Z</time></trkpt><trkpt lat="43.2358652" lon="11.1765135"><ele>293.0</ele><time>2026-04-04T08:43:10.508Z</time></trkpt><trkpt lat="43.2356442" lon="11.1765472"><ele>293.0</ele><time>2026-04-04T08:43:11.513Z</time></trkpt><trkpt lat="43.2354215" lon="11.1766029"><ele>293.0</ele><time>2026-04-04T08:43:12.512Z</time></trkpt><trkpt lat="43.2352044" lon="11.176689"><ele>294.6666666666667</ele><time>2026-04-04T08:43:13.514Z</time></trkpt><trkpt lat="43.2349849" lon="11.1767841"><ele>296.3333333333333</ele><time>2026-04-04T08:43:14.524Z</time></trkpt><trkpt lat="43.2347785" lon="11.1768759"><ele>298.0</ele><time>2026-04-04T08:43:15.512Z</time></trkpt><trkpt lat="43.2345894" lon="11.1769607"><ele>300.0</ele><time>2026-04-04T08:43:16.517Z</time></trkpt><trkpt lat="43.2344111" lon="11.1770339"><ele>302.0</ele><time>2026-04-04T08:43:17.528Z</time></trkpt><trkpt lat="43.2342265" lon="11.1770898"><ele>304.0</ele><time>2026-04-04T08:43:18.535Z</time></trkpt><trkpt lat="43.2340448" lon="11.1771188"><ele>305.66666666666663</ele><time>2026-04-04T08:43:19.513Z</time></trkpt><trkpt lat="43.2338773" lon="11.1771245"><ele>307.3333333333333</ele><time>2026-04-04T08:43:20.518Z</time></trkpt><trkpt lat="43.2337247" lon="11.1771173"><ele>309.0</ele><time>2026-04-04T08:43:21.513Z</time></trkpt><trkpt lat="43.2335953" lon="11.1770984"><ele>309.0</ele><time>2026-04-04T08:43:22.516Z</time></trkpt><trkpt lat="43.233473" lon="11.1770699"><ele>309.0</ele><time>2026-04-04T08:43:23.504Z</time></trkpt><trkpt lat="43.2333768" lon="11.1770254"><ele>309.0</ele><time>2026-04-04T08:43:24.501Z</time></trkpt><trkpt lat="43.2332845" lon="11.1769689"><ele>309.0</ele><time>2026-04-04T08:43:25.501Z</time></trkpt><trkpt lat="43.2332069" lon="11.1769"><ele>309.0</ele><time>2026-04-04T08:43:26.514Z</time></trkpt><trkpt lat="43.2331372" lon="11.1768001"><ele>311.0</ele><time>2026-04-04T08:43:27.508Z</time></trkpt><trkpt lat="43.2330609" lon="11.1766522"><ele>313.0</ele><time>2026-04-04T08:43:28.503Z</time></trkpt><trkpt lat="43.2329775" lon="11.1764625"><ele>315.0</ele><time>2026-04-04T08:43:29.505Z</time></trkpt><trkpt lat="43.2329082" lon="11.1762478"><ele>315.3333333333333</ele><time>2026-04-04T08:43:30.508Z</time></trkpt><trkpt lat="43.2328566" lon="11.1760246"><ele>315.66666666666663</ele><time>2026-04-04T08:43:31.5Z</time></trkpt><trkpt lat="43.232822" lon="11.1758036"><ele>316.0</ele><time>2026-04-04T08:43:32.512Z</time></trkpt><trkpt lat="43.2327955" lon="11.1755909"><ele>316.3333333333333</ele><time>2026-04-04T08:43:33.511Z</time></trkpt><trkpt lat="43.2327775" lon="11.1753824"><ele>316.6666666666667</ele><time>2026-04-04T08:43:34.505Z</time></trkpt><trkpt lat="43.2327092" lon="11.1751815"><ele>317.0</ele><time>2026-04-04T08:43:35.508Z</time></trkpt><trkpt lat="43.2326027" lon="11.1750178"><ele>317.0</ele><time>2026-04-04T08:43:36.502Z</time></trkpt><trkpt lat="43.2324735" lon="11.1748961"><ele>317.0</ele><time>2026-04-04T08:43:37.517Z</time></trkpt><trkpt lat="43.2323303" lon="11.1747828"><ele>317.0</ele><time>2026-04-04T08:43:38.516Z</time></trkpt><trkpt lat="43.2321849" lon="11.1746739"><ele>319.5</ele><time>2026-04-04T08:43:39.514Z</time></trkpt><trkpt lat="43.2320489" lon="11.1745681"><ele>322.0</ele><time>2026-04-04T08:43:40.511Z</time></trkpt><trkpt lat="43.2319291" lon="11.1744681"><ele>324.5</ele><time>2026-04-04T08:43:41.518Z</time></trkpt><trkpt lat="43.23182" lon="11.1743632"><ele>327.0</ele><time>2026-04-04T08:43:42.522Z</time></trkpt><trkpt lat="43.2317711" lon="11.174262"><ele>327.0</ele><time>2026-04-04T08:43:43.504Z</time></trkpt><trkpt lat="43.2317411" lon="11.1741212"><ele>327.0</ele><time>2026-04-04T08:43:44.521Z</time></trkpt><trkpt lat="43.231733" lon="11.1739825"><ele>327.0</ele><time>2026-04-04T08:43:45.502Z</time></trkpt><trkpt lat="43.2317175" lon="11.1738544"><ele>327.0</ele><time>2026-04-04T08:43:46.514Z</time></trkpt><trkpt lat="43.2316829" lon="11.1737155"><ele>327.0</ele><time>2026-04-04T08:43:47.51Z</time></trkpt><trkpt lat="43.2316287" lon="11.1735515"><ele>327.25</ele><time>2026-04-04T08:43:48.511Z</time></trkpt><trkpt lat="43.2316121" lon="11.1733714"><ele>327.5</ele><time>2026-04-04T08:43:49.501Z</time></trkpt><trkpt lat="43.2316013" lon="11.1731897"><ele>327.75</ele><time>2026-04-04T08:43:50.5Z</time></trkpt><trkpt lat="43.2316166" lon="11.173038"><ele>328.0</ele><time>2026-04-04T08:43:51.509Z</time></trkpt><trkpt lat="43.2316271" lon="11.1728872"><ele>328.4</ele><time>2026-04-04T08:43:52.506Z</time></trkpt><trkpt lat="43.2316321" lon="11.1727499"><ele>328.79999999999995</ele><time>2026-04-04T08:43:53.52Z</time></trkpt><trkpt lat="43.2316209" lon="11.1726096"><ele>329.2</ele><time>2026-04-04T08:43:54.522Z</time></trkpt><trkpt lat="43.2315979" lon="11.1724802"><ele>329.6</ele><time>2026-04-04T08:43:55.507Z</time></trkpt><trkpt lat="43.2315483" lon="11.1723845"><ele>330.0</ele><time>2026-04-04T08:43:56.52Z</time></trkpt><trkpt lat="43.2314703" lon="11.1723052"><ele>332.2</ele><time>2026-04-04T08:43:57.498Z</time></trkpt><trkpt lat="43.2313818" lon="11.1722937"><ele>334.4</ele><time>2026-04-04T08:43:58.501Z</time></trkpt><trkpt lat="43.2313066" lon="11.1723309"><ele>336.6</ele><time>2026-04-04T08:43:59.506Z</time></trkpt><trkpt lat="43.2312562" lon="11.1724093"><ele>338.8</ele><time>2026-04-04T08:44:00.504Z</time></trkpt><trkpt lat="43.2312224" lon="11.1725236"><ele>341.0</ele><time>2026-04-04T08:44:01.517Z</time></trkpt><trkpt lat="43.2312146" lon="11.1726816"><ele>341.75</ele><time>2026-04-04T08:44:02.498Z</time></trkpt><trkpt lat="43.2312021" lon="11.1728815"><ele>342.5</ele><time>2026-04-04T08:44:03.499Z</time></trkpt><trkpt lat="43.2311596" lon="11.1730782"><ele>343.25</ele><time>2026-04-04T08:44:04.502Z</time></trkpt><trkpt lat="43.2311091" lon="11.1732538"><ele>344.0</ele><time>2026-04-04T08:44:05.505Z</time></trkpt><trkpt lat="43.2310723" lon="11.1734482"><ele>344.33333333333337</ele><time>2026-04-04T08:44:06.511Z</time></trkpt><trkpt lat="43.2310473" lon="11.1736879"><ele>344.6666666666667</ele><time>2026-04-04T08:44:07.502Z</time></trkpt><trkpt lat="43.2310202" lon="11.1739226"><ele>345.0</ele><time>2026-04-04T08:44:08.499Z</time></trkpt><trkpt lat="43.2309764" lon="11.1741435"><ele>345.5</ele><time>2026-04-04T08:44:09.494Z</time></trkpt><trkpt lat="43.2309446" lon="11.1743466"><ele>346.0</ele><time>2026-04-04T08:44:10.495Z</time></trkpt><trkpt lat="43.2309361" lon="11.1745219"><ele>346.5</ele><time>2026-04-04T08:44:11.508Z</time></trkpt><trkpt lat="43.2309412" lon="11.1746868"><ele>347.0</ele><time>2026-04-04T08:44:12.507Z</time></trkpt><trkpt lat="43.2309264" lon="11.174856"><ele>347.33333333333337</ele><time>2026-04-04T08:44:13.507Z</time></trkpt><trkpt lat="43.2308732" lon="11.1750169"><ele>347.6666666666667</ele><time>2026-04-04T08:44:14.51Z</time></trkpt><trkpt lat="43.2307927" lon="11.1751998"><ele>348.0</ele><time>2026-04-04T08:44:15.506Z</time></trkpt><trkpt lat="43.2306811" lon="11.1753968"><ele>352.0</ele><time>2026-04-04T08:44:16.5Z</time></trkpt><trkpt lat="43.2305654" lon="11.1756128"><ele>356.0</ele><time>2026-04-04T08:44:17.507Z</time></trkpt><trkpt lat="43.2304523" lon="11.1758348"><ele>360.0</ele><time>2026-04-04T08:44:18.506Z</time></trkpt><trkpt lat="43.2303427" lon="11.1760252"><ele>360.0</ele><time>2026-04-04T08:44:19.498Z</time></trkpt><trkpt lat="43.2302522" lon="11.1761949"><ele>360.0</ele><time>2026-04-04T08:44:20.507Z</time></trkpt><trkpt lat="43.2301665" lon="11.1763449"><ele>360.0</ele><time>2026-04-04T08:44:21.502Z</time></trkpt><trkpt lat="43.2300644" lon="11.1764668"><ele>360.0</ele><time>2026-04-04T08:44:22.518Z</time></trkpt><trkpt lat="43.2299425" lon="11.1765668"><ele>359.3333333333333</ele><time>2026-04-04T08:44:23.501Z</time></trkpt><trkpt lat="43.2297943" lon="11.1766339"><ele>358.66666666666663</ele><time>2026-04-04T08:44:24.497Z</time></trkpt><trkpt lat="43.229593" lon="11.1766602"><ele>358.0</ele><time>2026-04-04T08:44:25.504Z</time></trkpt><trkpt lat="43.2293701" lon="11.1766702"><ele>358.0</ele><time>2026-04-04T08:44:26.494Z</time></trkpt><trkpt lat="43.2291679" lon="11.176691"><ele>358.0</ele><time>2026-04-04T08:44:27.501Z</time></trkpt><trkpt lat="43.2289875" lon="11.1767273"><ele>358.0</ele><time>2026-04-04T08:44:28.492Z</time></trkpt><trkpt lat="43.2288117" lon="11.1767697"><ele>360.0</ele><time>2026-04-04T08:44:29.506Z</time></trkpt><trkpt lat="43.2286492" lon="11.1767992"><ele>362.0</ele><time>2026-04-04T08:44:30.501Z</time></trkpt><trkpt lat="43.2285047" lon="11.1768186"><ele>364.0</ele><time>2026-04-04T08:44:31.515Z</time></trkpt><trkpt lat="43.2283723" lon="11.1767952"><ele>366.0</ele><time>2026-04-04T08:44:32.506Z</time></trkpt><trkpt lat="43.2282562" lon="11.1767395"><ele>366.0</ele><time>2026-04-04T08:44:33.503Z</time></trkpt><trkpt lat="43.2281491" lon="11.1766407"><ele>366.0</ele><time>2026-04-04T08:44:34.509Z</time></trkpt><trkpt lat="43.2280712" lon="11.1765164"><ele>366.0</ele><time>2026-04-04T08:44:35.511Z</time></trkpt><trkpt lat="43.2280215" lon="11.1763688"><ele>366.0</ele><time>2026-04-04T08:44:36.505Z</time></trkpt><trkpt lat="43.2280305" lon="11.1761928"><ele>367.0</ele><time>2026-04-04T08:44:37.502Z</time></trkpt><trkpt lat="43.2281048" lon="11.1760195"><ele>368.0</ele><time>2026-04-04T08:44:38.515Z</time></trkpt><trkpt lat="43.2282106" lon="11.1758906"><ele>369.0</ele><time>2026-04-04T08:44:39.496Z</time></trkpt><trkpt lat="43.2283381" lon="11.1757616"><ele>370.0</ele><time>2026-04-04T08:44:40.498Z</time></trkpt><trkpt lat="43.2284919" lon="11.1756379"><ele>373.3333333333333</ele><time>2026-04-04T08:44:41.494Z</time></trkpt><trkpt lat="43.2286405" lon="11.175514"><ele>376.6666666666667</ele><time>2026-04-04T08:44:42.508Z</time></trkpt><trkpt lat="43.2287805" lon="11.1753778"><ele>380.0</ele><time>2026-04-04T08:44:43.52Z</time></trkpt><trkpt lat="43.2288961" lon="11.1752465"><ele>378.25</ele><time>2026-04-04T08:44:44.501Z</time></trkpt><trkpt lat="43.2289798" lon="11.1750996"><ele>376.5</ele><time>2026-04-04T08:44:45.499Z</time></trkpt><trkpt lat="43.2290415" lon="11.1749279"><ele>374.75</ele><time>2026-04-04T08:44:46.497Z</time></trkpt><trkpt lat="43.2290496" lon="11.1747371"><ele>373.0</ele><time>2026-04-04T08:44:47.497Z</time></trkpt><trkpt lat="43.2290138" lon="11.1745491"><ele>377.0</ele><time>2026-04-04T08:44:48.511Z</time></trkpt><trkpt lat="43.2289341" lon="11.1743762"><ele>381.0</ele><time>2026-04-04T08:44:49.506Z</time></trkpt><trkpt lat="43.2288293" lon="11.1742149"><ele>385.0</ele><time>2026-04-04T08:44:50.512Z</time></trkpt><trkpt lat="43.228708" lon="11.1740491"><ele>383.6666666666667</ele><time>2026-04-04T08:44:51.496Z</time></trkpt><trkpt lat="43.2285684" lon="11.1738873"><ele>382.33333333333337</ele><time>2026-04-04T08:44:52.503Z</time></trkpt><trkpt lat="43.2284214" lon="11.1737349"><ele>381.0</ele><time>2026-04-04T08:44:53.5Z</time></trkpt><trkpt lat="43.2282704" lon="11.1736116"><ele>384.66666666666663</ele><time>2026-04-04T08:44:54.505Z</time></trkpt><trkpt lat="43.2281057" lon="11.1734866"><ele>388.3333333333333</ele><time>2026-04-04T08:44:55.513Z</time></trkpt><trkpt lat="43.2279334" lon="11.1733797"><ele>392.0</ele><time>2026-04-04T08:44:56.508Z</time></trkpt><trkpt lat="43.227742" lon="11.1732882"><ele>392.0</ele><time>2026-04-04T08:44:57.501Z</time></trkpt><trkpt lat="43.2275526" lon="11.1732094"><ele>392.0</ele><time>2026-04-04T08:44:58.498Z</time></trkpt><trkpt lat="43.2273657" lon="11.1731206"><ele>392.0</ele><time>2026-04-04T08:44:59.523Z</time></trkpt><trkpt lat="43.2271793" lon="11.1730421"><ele>392.66666666666663</ele><time>2026-04-04T08:45:00.497Z</time></trkpt><trkpt lat="43.226989" lon="11.1729573"><ele>393.33333333333337</ele><time>2026-04-04T08:45:01.515Z</time></trkpt><trkpt lat="43.2268005" lon="11.1728696"><ele>394.0</ele><time>2026-04-04T08:45:02.508Z</time></trkpt><trkpt lat="43.226606" lon="11.1727898"><ele>397.6666666666667</ele><time>2026-04-04T08:45:03.505Z</time></trkpt><trkpt lat="43.2264274" lon="11.1727189"><ele>401.33333333333337</ele><time>2026-04-04T08:45:04.517Z</time></trkpt><trkpt lat="43.2262743" lon="11.1726596"><ele>405.0</ele><time>2026-04-04T08:45:05.512Z</time></trkpt><trkpt lat="43.2261256" lon="11.1725981"><ele>405.0</ele><time>2026-04-04T08:45:06.514Z</time></trkpt><trkpt lat="43.2259895" lon="11.1725636"><ele>405.0</ele><time>2026-04-04T08:45:07.508Z</time></trkpt><trkpt lat="43.2258613" lon="11.1725156"><ele>405.0</ele><time>2026-04-04T08:45:08.51Z</time></trkpt><trkpt lat="43.2257368" lon="11.1724338"><ele>405.0</ele><time>2026-04-04T08:45:09.513Z</time></trkpt><trkpt lat="43.2256146" lon="11.1722932"><ele>409.0</ele><time>2026-04-04T08:45:10.511Z</time></trkpt><trkpt lat="43.2255278" lon="11.1721155"><ele>413.0</ele><time>2026-04-04T08:45:11.522Z</time></trkpt><trkpt lat="43.2254983" lon="11.1718591"><ele>417.0</ele><time>2026-04-04T08:45:12.499Z</time></trkpt><trkpt lat="43.2255017" lon="11.1715732"><ele>418.0</ele><time>2026-04-04T08:45:13.506Z</time></trkpt><trkpt lat="43.2255141" lon="11.1713014"><ele>419.0</ele><time>2026-04-04T08:45:14.504Z</time></trkpt><trkpt lat="43.2255228" lon="11.1710182"><ele>420.0</ele><time>2026-04-04T08:45:15.511Z</time></trkpt><trkpt lat="43.2255107" lon="11.1707278"><ele>420.66666666666663</ele><time>2026-04-04T08:45:16.511Z</time></trkpt><trkpt lat="43.2254878" lon="11.1704582"><ele>421.3333333333333</ele><time>2026-04-04T08:45:17.501Z</time></trkpt><trkpt lat="43.225467" lon="11.1702238"><ele>422.0</ele><time>2026-04-04T08:45:18.526Z</time></trkpt><trkpt lat="43.2254426" lon="11.1699874"><ele>421.66666666666663</ele><time>2026-04-04T08:45:19.503Z</time></trkpt><trkpt lat="43.2253848" lon="11.1697204"><ele>421.33333333333337</ele><time>2026-04-04T08:45:20.516Z</time></trkpt><trkpt lat="43.2253075" lon="11.1694427"><ele>421.0</ele><time>2026-04-04T08:45:21.511Z</time></trkpt><trkpt lat="43.2252182" lon="11.169148"><ele>418.5</ele><time>2026-04-04T08:45:22.509Z</time></trkpt><trkpt lat="43.2251406" lon="11.16885"><ele>416.0</ele><time>2026-04-04T08:45:23.514Z</time></trkpt><trkpt lat="43.2250717" lon="11.1685519"><ele>416.0</ele><time>2026-04-04T08:45:24.497Z</time></trkpt><trkpt lat="43.2250179" lon="11.1682427"><ele>416.0</ele><time>2026-04-04T08:45:25.506Z</time></trkpt><trkpt lat="43.2249858" lon="11.1679304"><ele>416.0</ele><time>2026-04-04T08:45:26.504Z</time></trkpt><trkpt lat="43.2249587" lon="11.1676383"><ele>416.0</ele><time>2026-04-04T08:45:27.501Z</time></trkpt><trkpt lat="43.224936" lon="11.1673569"><ele>416.0</ele><time>2026-04-04T08:45:28.504Z</time></trkpt><trkpt lat="43.2249081" lon="11.1671019"><ele>417.75</ele><time>2026-04-04T08:45:29.499Z</time></trkpt><trkpt lat="43.2248752" lon="11.1668809"><ele>419.5</ele><time>2026-04-04T08:45:30.511Z</time></trkpt><trkpt lat="43.2248437" lon="11.1666917"><ele>421.25</ele><time>2026-04-04T08:45:31.511Z</time></trkpt><trkpt lat="43.2247976" lon="11.166534"><ele>423.0</ele><time>2026-04-04T08:45:32.512Z</time></trkpt><trkpt lat="43.2247384" lon="11.1664105"><ele>424.0</ele><time>2026-04-04T08:45:33.507Z</time></trkpt><trkpt lat="43.2246574" lon="11.1663413"><ele>425.0</ele><time>2026-04-04T08:45:34.516Z</time></trkpt><trkpt lat="43.2245558" lon="11.1663188"><ele>425.99999999999994</ele><time>2026-04-04T08:45:35.506Z</time></trkpt><trkpt lat="43.2244599" lon="11.1663574"><ele>427.0</ele><time>2026-04-04T08:45:36.518Z</time></trkpt><trkpt lat="43.2243719" lon="11.1664598"><ele>428.0</ele><time>2026-04-04T08:45:37.496Z</time></trkpt><trkpt lat="43.2243133" lon="11.1666308"><ele>428.0</ele><time>2026-04-04T08:45:38.501Z</time></trkpt><trkpt lat="43.2242521" lon="11.1668136"><ele>428.0</ele><time>2026-04-04T08:45:39.512Z</time></trkpt><trkpt lat="43.2241966" lon="11.1669824"><ele>428.0</ele><time>2026-04-04T08:45:40.509Z</time></trkpt><trkpt lat="43.2241187" lon="11.1671223"><ele>428.0</ele><time>2026-04-04T08:45:41.502Z</time></trkpt><trkpt lat="43.2240327" lon="11.1672059"><ele>428.5</ele><time>2026-04-04T08:45:42.511Z</time></trkpt><trkpt lat="43.2239069" lon="11.1672062"><ele>429.0</ele><time>2026-04-04T08:45:43.516Z</time></trkpt><trkpt lat="43.2237896" lon="11.1671518"><ele>429.5</ele><time>2026-04-04T08:45:44.501Z</time></trkpt><trkpt lat="43.2236743" lon="11.1670218"><ele>430.0</ele><time>2026-04-04T08:45:45.503Z</time></trkpt><trkpt lat="43.2235839" lon="11.1668696"><ele>430.0</ele><time>2026-04-04T08:45:46.507Z</time></trkpt><trkpt lat="43.223507" lon="11.1666692"><ele>430.0</ele><time>2026-04-04T08:45:47.523Z</time></trkpt><trkpt lat="43.2234752" lon="11.1664523"><ele>430.0</ele><time>2026-04-04T08:45:48.513Z</time></trkpt><trkpt lat="43.2234683" lon="11.1662323"><ele>430.6666666666667</ele><time>2026-04-04T08:45:49.516Z</time></trkpt><trkpt lat="43.2234954" lon="11.1660016"><ele>431.33333333333337</ele><time>2026-04-04T08:45:50.507Z</time></trkpt><trkpt lat="43.2235119" lon="11.1657506"><ele>432.0</ele><time>2026-04-04T08:45:51.514Z</time></trkpt><trkpt lat="43.2235051" lon="11.1654649"><ele>432.33333333333337</ele><time>2026-04-04T08:45:52.499Z</time></trkpt><trkpt lat="43.2234586" lon="11.1652196"><ele>432.6666666666667</ele><time>2026-04-04T08:45:53.52Z</time></trkpt><trkpt lat="43.2233859" lon="11.1650256"><ele>433.0</ele><time>2026-04-04T08:45:54.502Z</time></trkpt><trkpt lat="43.2232935" lon="11.1648462"><ele>433.6666666666667</ele><time>2026-04-04T08:45:55.517Z</time></trkpt><trkpt lat="43.2231676" lon="11.1646736"><ele>434.33333333333337</ele><time>2026-04-04T08:45:56.515Z</time></trkpt><trkpt lat="43.2230066" lon="11.1645384"><ele>435.0</ele><time>2026-04-04T08:45:57.518Z</time></trkpt><trkpt lat="43.2228179" lon="11.1644272"><ele>435.0</ele><time>2026-04-04T08:45:58.505Z</time></trkpt><trkpt lat="43.2226177" lon="11.1643065"><ele>435.0</ele><time>2026-04-04T08:45:59.507Z</time></trkpt><trkpt lat="43.2224312" lon="11.1641926"><ele>435.0</ele><time>2026-04-04T08:46:00.502Z</time></trkpt><trkpt lat="43.2222543" lon="11.1640893"><ele>437.0</ele><time>2026-04-04T08:46:01.517Z</time></trkpt><trkpt lat="43.2220905" lon="11.1640058"><ele>439.0</ele><time>2026-04-04T08:46:02.523Z</time></trkpt><trkpt lat="43.2219254" lon="11.1639715"><ele>441.0</ele><time>2026-04-04T08:46:03.505Z</time></trkpt><trkpt lat="43.2217685" lon="11.1639935"><ele>439.0</ele><time>2026-04-04T08:46:04.511Z</time></trkpt><trkpt lat="43.2216178" lon="11.1640388"><ele>437.0</ele><time>2026-04-04T08:46:05.514Z</time></trkpt><trkpt lat="43.2214753" lon="11.1640734"><ele>435.0</ele><time>2026-04-04T08:46:06.519Z</time></trkpt><trkpt lat="43.221355" lon="11.1640446"><ele>433.0</ele><time>2026-04-04T08:46:07.518Z</time></trkpt><trkpt lat="43.2212574" lon="11.1639455"><ele>432.75</ele><time>2026-04-04T08:46:08.515Z</time></trkpt><trkpt lat="43.2211972" lon="11.1638034"><ele>432.5</ele><time>2026-04-04T08:46:09.508Z</time></trkpt><trkpt lat="43.2211413" lon="11.1636054"><ele>432.25</ele><time>2026-04-04T08:46:10.517Z</time></trkpt><trkpt lat="43.2210983" lon="11.1634154"><ele>432.0</ele><time>2026-04-04T08:46:11.501Z</time></trkpt><trkpt lat="43.2210648" lon="11.163199"><ele>432.66666666666663</ele><time>2026-04-04T08:46:12.513Z</time></trkpt><trkpt lat="43.2210254" lon="11.1629637"><ele>433.3333333333333</ele><time>2026-04-04T08:46:13.504Z</time></trkpt><trkpt lat="43.2209911" lon="11.1627003"><ele>434.0</ele><time>2026-04-04T08:46:14.51Z</time></trkpt><trkpt lat="43.2209443" lon="11.1624367"><ele>433.66666666666663</ele><time>2026-04-04T08:46:15.504Z</time></trkpt><trkpt lat="43.2208853" lon="11.1621732"><ele>433.33333333333337</ele><time>2026-04-04T08:46:16.51Z</time></trkpt><trkpt lat="43.220818" lon="11.1619241"><ele>433.0</ele><time>2026-04-04T08:46:17.498Z</time></trkpt><trkpt lat="43.2207186" lon="11.1616946"><ele>434.33333333333337</ele><time>2026-04-04T08:46:18.501Z</time></trkpt><trkpt lat="43.2205898" lon="11.1614831"><ele>435.66666666666663</ele><time>2026-04-04T08:46:19.51Z</time></trkpt><trkpt lat="43.2204577" lon="11.1612708"><ele>437.0</ele><time>2026-04-04T08:46:20.515Z</time></trkpt><trkpt lat="43.2203119" lon="11.1610761"><ele>437.0</ele><time>2026-04-04T08:46:21.522Z</time></trkpt><trkpt lat="43.2201683" lon="11.1608896"><ele>437.0</ele><time>2026-04-04T08:46:22.525Z</time></trkpt><trkpt lat="43.2200389" lon="11.1607041"><ele>437.0</ele><time>2026-04-04T08:46:23.504Z</time></trkpt><trkpt lat="43.2199283" lon="11.1605135"><ele>435.66666666666663</ele><time>2026-04-04T08:46:24.513Z</time></trkpt><trkpt lat="43.2198398" lon="11.1603029"><ele>434.33333333333337</ele><time>2026-04-04T08:46:25.514Z</time></trkpt><trkpt lat="43.2197819" lon="11.1600753"><ele>433.0</ele><time>2026-04-04T08:46:26.508Z</time></trkpt><trkpt lat="43.2197278" lon="11.1598394"><ele>437.6666666666667</ele><time>2026-04-04T08:46:27.516Z</time></trkpt><trkpt lat="43.2196822" lon="11.1596107"><ele>442.33333333333337</ele><time>2026-04-04T08:46:28.518Z</time></trkpt><trkpt lat="43.2196623" lon="11.1593848"><ele>447.0</ele><time>2026-04-04T08:46:29.499Z</time></trkpt><trkpt lat="43.2196759" lon="11.1591532"><ele>447.33333333333337</ele><time>2026-04-04T08:46:30.519Z</time></trkpt><trkpt lat="43.2197302" lon="11.1589326"><ele>447.6666666666667</ele><time>2026-04-04T08:46:31.513Z</time></trkpt><trkpt lat="43.2198111" lon="11.1587259"><ele>448.0</ele><time>2026-04-04T08:46:32.516Z</time></trkpt><trkpt lat="43.2199191" lon="11.1585513"><ele>445.0</ele><time>2026-04-04T08:46:33.514Z</time></trkpt><trkpt lat="43.2200199" lon="11.1584007"><ele>442.0</ele><time>2026-04-04T08:46:34.495Z</time></trkpt><trkpt lat="43.2201123" lon="11.1582564"><ele>439.0</ele><time>2026-04-04T08:46:35.515Z</time></trkpt><trkpt lat="43.2201893" lon="11.1581122"><ele>436.0</ele><time>2026-04-04T08:46:36.509Z</time></trkpt><trkpt lat="43.2202254" lon="11.1579592"><ele>435.75</ele><time>2026-04-04T08:46:37.508Z</time></trkpt><trkpt lat="43.2202251" lon="11.1577947"><ele>435.5</ele><time>2026-04-04T08:46:38.509Z</time></trkpt><trkpt lat="43.2202008" lon="11.1576388"><ele>435.25</ele><time>2026-04-04T08:46:39.505Z</time></trkpt><trkpt lat="43.2201299" lon="11.1575011"><ele>435.0</ele><time>2026-04-04T08:46:40.515Z</time></trkpt><trkpt lat="43.2200483" lon="11.157349"><ele>434.66666666666663</ele><time>2026-04-04T08:46:41.497Z</time></trkpt><trkpt lat="43.2199537" lon="11.15716"><ele>434.3333333333333</ele><time>2026-04-04T08:46:42.515Z</time></trkpt><trkpt lat="43.2198615" lon="11.156978"><ele>434.0</ele><time>2026-04-04T08:46:43.513Z</time></trkpt><trkpt lat="43.2197683" lon="11.1568149"><ele>434.0</ele><time>2026-04-04T08:46:44.505Z</time></trkpt><trkpt lat="43.2196374" lon="11.1566913"><ele>434.0</ele><time>2026-04-04T08:46:45.518Z</time></trkpt><trkpt lat="43.2194981" lon="11.1566273"><ele>434.0</ele><time>2026-04-04T08:46:46.506Z</time></trkpt><trkpt lat="43.2193378" lon="11.1565773"><ele>431.0</ele><time>2026-04-04T08:46:47.517Z</time></trkpt><trkpt lat="43.2191946" lon="11.1565134"><ele>428.0</ele><time>2026-04-04T08:46:48.511Z</time></trkpt><trkpt lat="43.219061" lon="11.1563885"><ele>425.0</ele><time>2026-04-04T08:46:49.516Z</time></trkpt><trkpt lat="43.2189289" lon="11.1562539"><ele>425.0</ele><time>2026-04-04T08:46:50.507Z</time></trkpt><trkpt lat="43.2188141" lon="11.1561424"><ele>425.0</ele><time>2026-04-04T08:46:51.501Z</time></trkpt><trkpt lat="43.218712" lon="11.1560692"><ele>425.0</ele><time>2026-04-04T08:46:52.514Z</time></trkpt><trkpt lat="43.2186046" lon="11.1560484"><ele>425.0</ele><time>2026-04-04T08:46:53.513Z</time></trkpt><trkpt lat="43.2184875" lon="11.1560918"><ele>425.0</ele><time>2026-04-04T08:46:54.519Z</time></trkpt><trkpt lat="43.2183325" lon="11.1561808"><ele>425.0</ele><time>2026-04-04T08:46:55.507Z</time></trkpt><trkpt lat="43.2181831" lon="11.1563102"><ele>425.0</ele><time>2026-04-04T08:46:56.514Z</time></trkpt><trkpt lat="43.2180591" lon="11.1564329"><ele>425.5</ele><time>2026-04-04T08:46:57.502Z</time></trkpt><trkpt lat="43.217945" lon="11.1565648"><ele>426.0</ele><time>2026-04-04T08:46:58.501Z</time></trkpt><trkpt lat="43.2178465" lon="11.1566851"><ele>426.5</ele><time>2026-04-04T08:46:59.507Z</time></trkpt><trkpt lat="43.2177752" lon="11.1567659"><ele>427.0</ele><time>2026-04-04T08:47:00.517Z</time></trkpt><trkpt lat="43.2176854" lon="11.1567883"><ele>427.0</ele><time>2026-04-04T08:47:01.501Z</time></trkpt><trkpt lat="43.2175939" lon="11.156725"><ele>427.00000000000006</ele><time>2026-04-04T08:47:02.513Z</time></trkpt><trkpt lat="43.217536" lon="11.1566121"><ele>427.00000000000006</ele><time>2026-04-04T08:47:03.507Z</time></trkpt><trkpt lat="43.2174809" lon="11.156502"><ele>427.0</ele><time>2026-04-04T08:47:04.493Z</time></trkpt><trkpt lat="43.2174169" lon="11.1564246"><ele>427.0</ele><time>2026-04-04T08:47:05.504Z</time></trkpt><trkpt lat="43.2173073" lon="11.156382"><ele>425.8</ele><time>2026-04-04T08:47:06.51Z</time></trkpt><trkpt lat="43.2171863" lon="11.1563892"><ele>424.6</ele><time>2026-04-04T08:47:07.501Z</time></trkpt><trkpt lat="43.2170871" lon="11.156445"><ele>423.40000000000003</ele><time>2026-04-04T08:47:08.507Z</time></trkpt><trkpt lat="43.2169931" lon="11.1564887"><ele>422.20000000000005</ele><time>2026-04-04T08:47:09.494Z</time></trkpt><trkpt lat="43.2169243" lon="11.1564571"><ele>421.0</ele><time>2026-04-04T08:47:10.508Z</time></trkpt><trkpt lat="43.2168624" lon="11.1563264"><ele>421.0</ele><time>2026-04-04T08:47:11.509Z</time></trkpt><trkpt lat="43.2168548" lon="11.1561802"><ele>421.0</ele><time>2026-04-04T08:47:12.493Z</time></trkpt><trkpt lat="43.2168834" lon="11.1560032"><ele>421.0</ele><time>2026-04-04T08:47:13.496Z</time></trkpt><trkpt lat="43.2168789" lon="11.1558233"><ele>421.0</ele><time>2026-04-04T08:47:14.511Z</time></trkpt><trkpt lat="43.2168192" lon="11.1556701"><ele>420.4</ele><time>2026-04-04T08:47:15.501Z</time></trkpt><trkpt lat="43.2167281" lon="11.1555931"><ele>419.8</ele><time>2026-04-04T08:47:16.513Z</time></trkpt><trkpt lat="43.216604" lon="11.1555242"><ele>419.2</ele><time>2026-04-04T08:47:17.503Z</time></trkpt><trkpt lat="43.2165099" lon="11.1554597"><ele>418.59999999999997</ele><time>2026-04-04T08:47:18.505Z</time></trkpt><trkpt lat="43.2164297" lon="11.1553818"><ele>418.0</ele><time>2026-04-04T08:47:19.504Z</time></trkpt><trkpt lat="43.2163873" lon="11.155221"><ele>418.0</ele><time>2026-04-04T08:47:20.51Z</time></trkpt><trkpt lat="43.2163744" lon="11.155033"><ele>418.0</ele><time>2026-04-04T08:47:21.505Z</time></trkpt><trkpt lat="43.216388" lon="11.1548675"><ele>418.0</ele><time>2026-04-04T08:47:22.516Z</time></trkpt><trkpt lat="43.2163467" lon="11.1547009"><ele>418.0</ele><time>2026-04-04T08:47:23.509Z</time></trkpt><trkpt lat="43.2162833" lon="11.1545688"><ele>416.79999999999995</ele><time>2026-04-04T08:47:24.51Z</time></trkpt><trkpt lat="43.2162037" lon="11.1544554"><ele>415.6</ele><time>2026-04-04T08:47:25.5Z</time></trkpt><trkpt lat="43.2161376" lon="11.1543472"><ele>414.4</ele><time>2026-04-04T08:47:26.502Z</time></trkpt><trkpt lat="43.2160753" lon="11.1542513"><ele>413.20000000000005</ele><time>2026-04-04T08:47:27.507Z</time></trkpt><trkpt lat="43.2160228" lon="11.154174"><ele>412.0</ele><time>2026-04-04T08:47:28.509Z</time></trkpt><trkpt lat="43.2159643" lon="11.1540998"><ele>410.6</ele><time>2026-04-04T08:47:29.504Z</time></trkpt><trkpt lat="43.2158908" lon="11.1540115"><ele>409.20000000000005</ele><time>2026-04-04T08:47:30.505Z</time></trkpt><trkpt lat="43.2157951" lon="11.1539238"><ele>407.8</ele><time>2026-04-04T08:47:31.508Z</time></trkpt><trkpt lat="43.2156968" lon="11.1538555"><ele>406.4</ele><time>2026-04-04T08:47:32.511Z</time></trkpt><trkpt lat="43.2155936" lon="11.1538076"><ele>405.0</ele><time>2026-04-04T08:47:33.507Z</time></trkpt><trkpt lat="43.2154784" lon="11.1537794"><ele>404.66666666666663</ele><time>2026-04-04T08:47:34.512Z</time></trkpt><trkpt lat="43.2153317" lon="11.1537652"><ele>404.3333333333333</ele><time>2026-04-04T08:47:35.517Z</time></trkpt><trkpt lat="43.2151453" lon="11.1537866"><ele>404.0</ele><time>2026-04-04T08:47:36.504Z</time></trkpt><trkpt lat="43.2149703" lon="11.153822"><ele>403.0</ele><time>2026-04-04T08:47:37.509Z</time></trkpt><trkpt lat="43.2148096" lon="11.1538554"><ele>402.0</ele><time>2026-04-04T08:47:38.503Z</time></trkpt><trkpt lat="43.2146469" lon="11.1538791"><ele>401.0</ele><time>2026-04-04T08:47:39.505Z</time></trkpt><trkpt lat="43.2144986" lon="11.1539013"><ele>401.0</ele><time>2026-04-04T08:47:40.506Z</time></trkpt><trkpt lat="43.214357" lon="11.1539229"><ele>401.0</ele><time>2026-04-04T08:47:41.505Z</time></trkpt><trkpt lat="43.2142302" lon="11.1539401"><ele>401.0</ele><time>2026-04-04T08:47:42.514Z</time></trkpt><trkpt lat="43.2141059" lon="11.1539617"><ele>401.0</ele><time>2026-04-04T08:47:43.511Z</time></trkpt><trkpt lat="43.2139878" lon="11.1539741"><ele>400.75</ele><time>2026-04-04T08:47:44.505Z</time></trkpt><trkpt lat="43.2138643" lon="11.1539574"><ele>400.5</ele><time>2026-04-04T08:47:45.505Z</time></trkpt><trkpt lat="43.2137347" lon="11.1539123"><ele>400.25</ele><time>2026-04-04T08:47:46.511Z</time></trkpt><trkpt lat="43.213619" lon="11.1538436"><ele>400.0</ele><time>2026-04-04T08:47:47.512Z</time></trkpt><trkpt lat="43.2135033" lon="11.1537493"><ele>400.0</ele><time>2026-04-04T08:47:48.5Z</time></trkpt><trkpt lat="43.2134167" lon="11.153633"><ele>400.0</ele><time>2026-04-04T08:47:49.508Z</time></trkpt><trkpt lat="43.2133378" lon="11.1534921"><ele>400.0</ele><time>2026-04-04T08:47:50.509Z</time></trkpt><trkpt lat="43.213274" lon="11.153335"><ele>400.0</ele><time>2026-04-04T08:47:51.515Z</time></trkpt><trkpt lat="43.2132239" lon="11.1531651"><ele>399.75</ele><time>2026-04-04T08:47:52.504Z</time></trkpt><trkpt lat="43.2131722" lon="11.1530053"><ele>399.5</ele><time>2026-04-04T08:47:53.51Z</time></trkpt><trkpt lat="43.2131176" lon="11.1528374"><ele>399.25</ele><time>2026-04-04T08:47:54.51Z</time></trkpt><trkpt lat="43.213069" lon="11.1526787"><ele>399.0</ele><time>2026-04-04T08:47:55.509Z</time></trkpt><trkpt lat="43.2130189" lon="11.152527"><ele>399.0</ele><time>2026-04-04T08:47:56.511Z</time></trkpt><trkpt lat="43.2129718" lon="11.1523745"><ele>399.0</ele><time>2026-04-04T08:47:57.513Z</time></trkpt><trkpt lat="43.2129144" lon="11.1522107"><ele>399.0</ele><time>2026-04-04T08:47:58.506Z</time></trkpt><trkpt lat="43.2128603" lon="11.1520503"><ele>399.0</ele><time>2026-04-04T08:47:59.497Z</time></trkpt><trkpt lat="43.2128046" lon="11.1519085"><ele>397.25</ele><time>2026-04-04T08:48:00.522Z</time></trkpt><trkpt lat="43.212742" lon="11.1517766"><ele>395.5</ele><time>2026-04-04T08:48:01.503Z</time></trkpt><trkpt lat="43.2126751" lon="11.1516525"><ele>393.75</ele><time>2026-04-04T08:48:02.512Z</time></trkpt><trkpt lat="43.2125838" lon="11.1515172"><ele>392.0</ele><time>2026-04-04T08:48:03.518Z</time></trkpt><trkpt lat="43.2124692" lon="11.1513853"><ele>388.0</ele><time>2026-04-04T08:48:04.504Z</time></trkpt><trkpt lat="43.212319" lon="11.1512996"><ele>384.0</ele><time>2026-04-04T08:48:05.502Z</time></trkpt><trkpt lat="43.2121412" lon="11.151232"><ele>380.0</ele><time>2026-04-04T08:48:06.504Z</time></trkpt><trkpt lat="43.2119454" lon="11.1511925"><ele>380.0</ele><time>2026-04-04T08:48:07.51Z</time></trkpt><trkpt lat="43.2117393" lon="11.1511798"><ele>380.0</ele><time>2026-04-04T08:48:08.519Z</time></trkpt><trkpt lat="43.2115246" lon="11.1511655"><ele>380.0</ele><time>2026-04-04T08:48:09.51Z</time></trkpt><trkpt lat="43.2113024" lon="11.1511529"><ele>378.33333333333337</ele><time>2026-04-04T08:48:10.511Z</time></trkpt><trkpt lat="43.2110868" lon="11.1511306"><ele>376.6666666666667</ele><time>2026-04-04T08:48:11.519Z</time></trkpt><trkpt lat="43.2108817" lon="11.1511088"><ele>375.0</ele><time>2026-04-04T08:48:12.501Z</time></trkpt><trkpt lat="43.2106772" lon="11.151098"><ele>373.6666666666667</ele><time>2026-04-04T08:48:13.5Z</time></trkpt><trkpt lat="43.2104741" lon="11.151108"><ele>372.33333333333337</ele><time>2026-04-04T08:48:14.51Z</time></trkpt><trkpt lat="43.2102691" lon="11.1511411"><ele>371.0</ele><time>2026-04-04T08:48:15.517Z</time></trkpt><trkpt lat="43.2100616" lon="11.1512012"><ele>371.0</ele><time>2026-04-04T08:48:16.516Z</time></trkpt><trkpt lat="43.2098528" lon="11.1512582"><ele>371.0</ele><time>2026-04-04T08:48:17.517Z</time></trkpt><trkpt lat="43.2096474" lon="11.1513224"><ele>371.0</ele><time>2026-04-04T08:48:18.509Z</time></trkpt><trkpt lat="43.2094575" lon="11.1513868"><ele>369.33333333333337</ele><time>2026-04-04T08:48:19.514Z</time></trkpt><trkpt lat="43.2092833" lon="11.1514336"><ele>367.6666666666667</ele><time>2026-04-04T08:48:20.5Z</time></trkpt><trkpt lat="43.2091225" lon="11.1514617"><ele>366.0</ele><time>2026-04-04T08:48:21.504Z</time></trkpt><trkpt lat="43.2089717" lon="11.1514421"><ele>366.0</ele><time>2026-04-04T08:48:22.501Z</time></trkpt><trkpt lat="43.2088241" lon="11.1513774"><ele>366.0</ele><time>2026-04-04T08:48:23.507Z</time></trkpt><trkpt lat="43.2086953" lon="11.1512706"><ele>366.0</ele><time>2026-04-04T08:48:24.515Z</time></trkpt><trkpt lat="43.2086018" lon="11.1511146"><ele>366.0</ele><time>2026-04-04T08:48:25.508Z</time></trkpt><trkpt lat="43.2084983" lon="11.1509094"><ele>366.0</ele><time>2026-04-04T08:48:26.51Z</time></trkpt><trkpt lat="43.2084141" lon="11.1506807"><ele>366.0</ele><time>2026-04-04T08:48:27.5Z</time></trkpt><trkpt lat="43.2083432" lon="11.1504589"><ele>363.0</ele><time>2026-04-04T08:48:28.506Z</time></trkpt><trkpt lat="43.2082604" lon="11.1502486"><ele>360.0</ele><time>2026-04-04T08:48:29.499Z</time></trkpt><trkpt lat="43.2081629" lon="11.1500462"><ele>357.0</ele><time>2026-04-04T08:48:30.516Z</time></trkpt><trkpt lat="43.2080506" lon="11.1498749"><ele>355.6666666666667</ele><time>2026-04-04T08:48:31.51Z</time></trkpt><trkpt lat="43.2079145" lon="11.1497285"><ele>354.33333333333337</ele><time>2026-04-04T08:48:32.502Z</time></trkpt><trkpt lat="43.2077518" lon="11.1495964"><ele>353.0</ele><time>2026-04-04T08:48:33.508Z</time></trkpt><trkpt lat="43.2075895" lon="11.1494663"><ele>353.0</ele><time>2026-04-04T08:48:34.515Z</time></trkpt><trkpt lat="43.2074303" lon="11.1493378"><ele>353.0</ele><time>2026-04-04T08:48:35.511Z</time></trkpt><trkpt lat="43.2072742" lon="11.1492072"><ele>353.0</ele><time>2026-04-04T08:48:36.507Z</time></trkpt><trkpt lat="43.2071164" lon="11.1490747"><ele>351.33333333333337</ele><time>2026-04-04T08:48:37.501Z</time></trkpt><trkpt lat="43.2069595" lon="11.1489427"><ele>349.6666666666667</ele><time>2026-04-04T08:48:38.514Z</time></trkpt><trkpt lat="43.2068077" lon="11.1488137"><ele>348.0</ele><time>2026-04-04T08:48:39.508Z</time></trkpt><trkpt lat="43.2066556" lon="11.1486927"><ele>348.0</ele><time>2026-04-04T08:48:40.508Z</time></trkpt><trkpt lat="43.2065004" lon="11.1485708"><ele>348.0</ele><time>2026-04-04T08:48:41.498Z</time></trkpt><trkpt lat="43.2063505" lon="11.1484553"><ele>348.0</ele><time>2026-04-04T08:48:42.509Z</time></trkpt><trkpt lat="43.2062076" lon="11.1483346"><ele>346.0</ele><time>2026-04-04T08:48:43.509Z</time></trkpt><trkpt lat="43.2060705" lon="11.1482183"><ele>344.0</ele><time>2026-04-04T08:48:44.517Z</time></trkpt><trkpt lat="43.2059386" lon="11.1481073"><ele>342.0</ele><time>2026-04-04T08:48:45.514Z</time></trkpt><trkpt lat="43.2058103" lon="11.1480062"><ele>342.0</ele><time>2026-04-04T08:48:46.519Z</time></trkpt><trkpt lat="43.2056831" lon="11.1479348"><ele>342.0</ele><time>2026-04-04T08:48:47.507Z</time></trkpt><trkpt lat="43.2055634" lon="11.1478783"><ele>342.0</ele><time>2026-04-04T08:48:48.531Z</time></trkpt><trkpt lat="43.2054457" lon="11.1478492"><ele>342.0</ele><time>2026-04-04T08:48:49.508Z</time></trkpt><trkpt lat="43.205334" lon="11.1478276"><ele>341.6</ele><time>2026-04-04T08:48:50.516Z</time></trkpt><trkpt lat="43.205228" lon="11.1478124"><ele>341.20000000000005</ele><time>2026-04-04T08:48:51.502Z</time></trkpt><trkpt lat="43.2051356" lon="11.147801"><ele>340.8</ele><time>2026-04-04T08:48:52.505Z</time></trkpt><trkpt lat="43.2050339" lon="11.1478121"><ele>340.4</ele><time>2026-04-04T08:48:53.508Z</time></trkpt><trkpt lat="43.2049502" lon="11.1478368"><ele>340.0</ele><time>2026-04-04T08:48:54.51Z</time></trkpt><trkpt lat="43.2048822" lon="11.1478889"><ele>340.0</ele><time>2026-04-04T08:48:55.504Z</time></trkpt><trkpt lat="43.2048328" lon="11.1479704"><ele>340.0</ele><time>2026-04-04T08:48:56.51Z</time></trkpt><trkpt lat="43.2048087" lon="11.1480654"><ele>340.0</ele><time>2026-04-04T08:48:57.504Z</time></trkpt><trkpt lat="43.2048233" lon="11.1481854"><ele>340.0</ele><time>2026-04-04T08:48:58.51Z</time></trkpt><trkpt lat="43.2048571" lon="11.1482779"><ele>340.0</ele><time>2026-04-04T08:48:59.499Z</time></trkpt><trkpt lat="43.2049061" lon="11.1483408"><ele>340.0</ele><time>2026-04-04T08:49:00.5Z</time></trkpt><trkpt lat="43.2049874" lon="11.1483935"><ele>337.8333333333333</ele><time>2026-04-04T08:49:01.511Z</time></trkpt><trkpt lat="43.2050594" lon="11.1484241"><ele>335.66666666666663</ele><time>2026-04-04T08:49:02.506Z</time></trkpt><trkpt lat="43.2051467" lon="11.148446"><ele>333.5</ele><time>2026-04-04T08:49:03.515Z</time></trkpt><trkpt lat="43.2052324" lon="11.1484718"><ele>331.3333333333333</ele><time>2026-04-04T08:49:04.511Z</time></trkpt><trkpt lat="43.2053194" lon="11.1485102"><ele>329.1666666666667</ele><time>2026-04-04T08:49:05.492Z</time></trkpt><trkpt lat="43.2054003" lon="11.1485722"><ele>327.0</ele><time>2026-04-04T08:49:06.496Z</time></trkpt><trkpt lat="43.2054586" lon="11.1486674"><ele>327.0</ele><time>2026-04-04T08:49:07.498Z</time></trkpt><trkpt lat="43.2055013" lon="11.1487829"><ele>327.0</ele><time>2026-04-04T08:49:08.508Z</time></trkpt><trkpt lat="43.2055127" lon="11.1488946"><ele>327.0</ele><time>2026-04-04T08:49:09.505Z</time></trkpt><trkpt lat="43.2055077" lon="11.1490042"><ele>327.0</ele><time>2026-04-04T08:49:10.501Z</time></trkpt><trkpt lat="43.2054785" lon="11.1490986"><ele>327.0</ele><time>2026-04-04T08:49:11.498Z</time></trkpt><trkpt lat="43.2054179" lon="11.1491554"><ele>327.0</ele><time>2026-04-04T08:49:12.502Z</time></trkpt><trkpt lat="43.2053381" lon="11.1491966"><ele>325.6</ele><time>2026-04-04T08:49:13.508Z</time></trkpt><trkpt lat="43.2052558" lon="11.1492445"><ele>324.20000000000005</ele><time>2026-04-04T08:49:14.496Z</time></trkpt><trkpt lat="43.2051733" lon="11.1493102"><ele>322.8</ele><time>2026-04-04T08:49:15.509Z</time></trkpt><trkpt lat="43.2050988" lon="11.1493841"><ele>321.4</ele><time>2026-04-04T08:49:16.503Z</time></trkpt><trkpt lat="43.205032" lon="11.1494687"><ele>320.0</ele><time>2026-04-04T08:49:17.495Z</time></trkpt><trkpt lat="43.2049676" lon="11.1495633"><ele>320.0</ele><time>2026-04-04T08:49:18.509Z</time></trkpt><trkpt lat="43.2049138" lon="11.1496648"><ele>320.0</ele><time>2026-04-04T08:49:19.512Z</time></trkpt><trkpt lat="43.2048625" lon="11.1497751"><ele>320.0</ele><time>2026-04-04T08:49:20.499Z</time></trkpt><trkpt lat="43.2047933" lon="11.1498825"><ele>320.0</ele><time>2026-04-04T08:49:21.496Z</time></trkpt><trkpt lat="43.2047048" lon="11.1499496"><ele>320.0</ele><time>2026-04-04T08:49:22.498Z</time></trkpt><trkpt lat="43.2045996" lon="11.1499883"><ele>320.75</ele><time>2026-04-04T08:49:23.507Z</time></trkpt><trkpt lat="43.2044869" lon="11.149978"><ele>321.5</ele><time>2026-04-04T08:49:24.499Z</time></trkpt><trkpt lat="43.2043875" lon="11.1499297"><ele>322.25</ele><time>2026-04-04T08:49:25.51Z</time></trkpt><trkpt lat="43.2042806" lon="11.1498574"><ele>323.0</ele><time>2026-04-04T08:49:26.506Z</time></trkpt><trkpt lat="43.2041715" lon="11.149766"><ele>321.0</ele><time>2026-04-04T08:49:27.497Z</time></trkpt><trkpt lat="43.2040663" lon="11.1496312"><ele>319.0</ele><time>2026-04-04T08:49:28.505Z</time></trkpt><trkpt lat="43.2039416" lon="11.1494556"><ele>317.0</ele><time>2026-04-04T08:49:29.49Z</time></trkpt><trkpt lat="43.2038289" lon="11.1492596"><ele>317.0</ele><time>2026-04-04T08:49:30.496Z</time></trkpt><trkpt lat="43.2037071" lon="11.1490597"><ele>317.0</ele><time>2026-04-04T08:49:31.502Z</time></trkpt><trkpt lat="43.2035981" lon="11.1488767"><ele>317.0</ele><time>2026-04-04T08:49:32.5Z</time></trkpt><trkpt lat="43.2035007" lon="11.1487235"><ele>314.75</ele><time>2026-04-04T08:49:33.499Z</time></trkpt><trkpt lat="43.2034102" lon="11.1485783"><ele>312.5</ele><time>2026-04-04T08:49:34.492Z</time></trkpt><trkpt lat="43.2033133" lon="11.1484397"><ele>310.25</ele><time>2026-04-04T08:49:35.502Z</time></trkpt><trkpt lat="43.2032146" lon="11.1483069"><ele>308.0</ele><time>2026-04-04T08:49:36.505Z</time></trkpt><trkpt lat="43.2031342" lon="11.1481606"><ele>305.5</ele><time>2026-04-04T08:49:37.495Z</time></trkpt><trkpt lat="43.2030688" lon="11.1479961"><ele>303.0</ele><time>2026-04-04T08:49:38.498Z</time></trkpt><trkpt lat="43.2030037" lon="11.1478291"><ele>300.5</ele><time>2026-04-04T08:49:39.491Z</time></trkpt><trkpt lat="43.2029464" lon="11.1476634"><ele>298.0</ele><time>2026-04-04T08:49:40.491Z</time></trkpt><trkpt lat="43.2028941" lon="11.147499"><ele>300.6</ele><time>2026-04-04T08:49:41.506Z</time></trkpt><trkpt lat="43.2028384" lon="11.1473454"><ele>303.20000000000005</ele><time>2026-04-04T08:49:42.501Z</time></trkpt><trkpt lat="43.2027811" lon="11.147221"><ele>305.8</ele><time>2026-04-04T08:49:43.5Z</time></trkpt><trkpt lat="43.2027193" lon="11.1471047"><ele>308.40000000000003</ele><time>2026-04-04T08:49:44.5Z</time></trkpt><trkpt lat="43.2026367" lon="11.1470425"><ele>311.0</ele><time>2026-04-04T08:49:45.493Z</time></trkpt><trkpt lat="43.2025283" lon="11.1470032"><ele>311.0</ele><time>2026-04-04T08:49:46.511Z</time></trkpt><trkpt lat="43.2024152" lon="11.1469672"><ele>311.0</ele><time>2026-04-04T08:49:47.495Z</time></trkpt><trkpt lat="43.2023008" lon="11.1469461"><ele>311.0</ele><time>2026-04-04T08:49:48.499Z</time></trkpt><trkpt lat="43.2021847" lon="11.1469312"><ele>311.0</ele><time>2026-04-04T08:49:49.502Z</time></trkpt><trkpt lat="43.2020624" lon="11.1469337"><ele>308.5</ele><time>2026-04-04T08:49:50.503Z</time></trkpt><trkpt lat="43.2019317" lon="11.1469207"><ele>306.0</ele><time>2026-04-04T08:49:51.505Z</time></trkpt><trkpt lat="43.2017945" lon="11.1468919"><ele>303.5</ele><time>2026-04-04T08:49:52.512Z</time></trkpt><trkpt lat="43.201676" lon="11.1468399"><ele>301.0</ele><time>2026-04-04T08:49:53.509Z</time></trkpt><trkpt lat="43.2015573" lon="11.1467757"><ele>299.3333333333333</ele><time>2026-04-04T08:49:54.519Z</time></trkpt><trkpt lat="43.2014287" lon="11.1466977"><ele>297.6666666666667</ele><time>2026-04-04T08:49:55.508Z</time></trkpt><trkpt lat="43.2012879" lon="11.1466158"><ele>296.0</ele><time>2026-04-04T08:49:56.495Z</time></trkpt><trkpt lat="43.2011361" lon="11.1465241"><ele>296.0</ele><time>2026-04-04T08:49:57.508Z</time></trkpt><trkpt lat="43.2009771" lon="11.1464053"><ele>296.0</ele><time>2026-04-04T08:49:58.513Z</time></trkpt><trkpt lat="43.200835" lon="11.1462874"><ele>296.0</ele><time>2026-04-04T08:49:59.516Z</time></trkpt><trkpt lat="43.2007075" lon="11.1461594"><ele>293.75</ele><time>2026-04-04T08:50:00.511Z</time></trkpt><trkpt lat="43.2005846" lon="11.1460393"><ele>291.5</ele><time>2026-04-04T08:50:01.497Z</time></trkpt><trkpt lat="43.2004624" lon="11.1459253"><ele>289.25</ele><time>2026-04-04T08:50:02.52Z</time></trkpt><trkpt lat="43.20034" lon="11.1458251"><ele>287.0</ele><time>2026-04-04T08:50:03.518Z</time></trkpt><trkpt lat="43.2002129" lon="11.1457259"><ele>289.0</ele><time>2026-04-04T08:50:04.517Z</time></trkpt><trkpt lat="43.200068" lon="11.1456444"><ele>291.0</ele><time>2026-04-04T08:50:05.504Z</time></trkpt><trkpt lat="43.1999123" lon="11.1455777"><ele>293.0</ele><time>2026-04-04T08:50:06.515Z</time></trkpt><trkpt lat="43.1997463" lon="11.1455254"><ele>293.0</ele><time>2026-04-04T08:50:07.5Z</time></trkpt><trkpt lat="43.1995692" lon="11.1454825"><ele>293.0</ele><time>2026-04-04T08:50:08.525Z</time></trkpt><trkpt lat="43.1994003" lon="11.1454451"><ele>293.0</ele><time>2026-04-04T08:50:09.51Z</time></trkpt><trkpt lat="43.1992489" lon="11.1454021"><ele>293.0</ele><time>2026-04-04T08:50:10.517Z</time></trkpt><trkpt lat="43.1991107" lon="11.1453653"><ele>293.0</ele><time>2026-04-04T08:50:11.513Z</time></trkpt><trkpt lat="43.1989858" lon="11.1453427"><ele>293.0</ele><time>2026-04-04T08:50:12.521Z</time></trkpt><trkpt lat="43.19886" lon="11.145319"><ele>293.0</ele><time>2026-04-04T08:50:13.51Z</time></trkpt><trkpt lat="43.1987283" lon="11.1453016"><ele>292.0</ele><time>2026-04-04T08:50:14.51Z</time></trkpt><trkpt lat="43.1985767" lon="11.1452978"><ele>291.0</ele><time>2026-04-04T08:50:15.517Z</time></trkpt><trkpt lat="43.1983995" lon="11.1453187"><ele>290.0</ele><time>2026-04-04T08:50:16.515Z</time></trkpt><trkpt lat="43.198204" lon="11.1453591"><ele>288.6666666666667</ele><time>2026-04-04T08:50:17.52Z</time></trkpt><trkpt lat="43.1980268" lon="11.1454006"><ele>287.3333333333333</ele><time>2026-04-04T08:50:18.52Z</time></trkpt><trkpt lat="43.1978614" lon="11.1454596"><ele>286.0</ele><time>2026-04-04T08:50:19.514Z</time></trkpt><trkpt lat="43.197702" lon="11.1455014"><ele>286.0</ele><time>2026-04-04T08:50:20.526Z</time></trkpt><trkpt lat="43.1975496" lon="11.1455206"><ele>286.0</ele><time>2026-04-04T08:50:21.513Z</time></trkpt><trkpt lat="43.1973969" lon="11.1455181"><ele>286.0</ele><time>2026-04-04T08:50:22.504Z</time></trkpt><trkpt lat="43.1972352" lon="11.1455047"><ele>284.0</ele><time>2026-04-04T08:50:23.519Z</time></trkpt><trkpt lat="43.1970669" lon="11.1454818"><ele>282.0</ele><time>2026-04-04T08:50:24.509Z</time></trkpt><trkpt lat="43.1968938" lon="11.1454358"><ele>280.0</ele><time>2026-04-04T08:50:25.523Z</time></trkpt><trkpt lat="43.196705" lon="11.1453714"><ele>280.0</ele><time>2026-04-04T08:50:26.51Z</time></trkpt><trkpt lat="43.1965099" lon="11.1452963"><ele>280.0</ele><time>2026-04-04T08:50:27.525Z</time></trkpt><trkpt lat="43.1963216" lon="11.145211"><ele>280.0</ele><time>2026-04-04T08:50:28.503Z</time></trkpt><trkpt lat="43.1961408" lon="11.1451323"><ele>279.0</ele><time>2026-04-04T08:50:29.504Z</time></trkpt><trkpt lat="43.19596" lon="11.1450529"><ele>278.0</ele><time>2026-04-04T08:50:30.505Z</time></trkpt><trkpt lat="43.1957819" lon="11.1449667"><ele>277.0</ele><time>2026-04-04T08:50:31.51Z</time></trkpt><trkpt lat="43.195618" lon="11.1448787"><ele>275.66666666666663</ele><time>2026-04-04T08:50:32.512Z</time></trkpt><trkpt lat="43.1954644" lon="11.1447804"><ele>274.3333333333333</ele><time>2026-04-04T08:50:33.509Z</time></trkpt><trkpt lat="43.1953092" lon="11.144679"><ele>273.0</ele><time>2026-04-04T08:50:34.529Z</time></trkpt><trkpt lat="43.1951585" lon="11.1445817"><ele>273.0</ele><time>2026-04-04T08:50:35.51Z</time></trkpt><trkpt lat="43.1950097" lon="11.1444909"><ele>273.0</ele><time>2026-04-04T08:50:36.511Z</time></trkpt><trkpt lat="43.1948624" lon="11.1444009"><ele>273.0</ele><time>2026-04-04T08:50:37.505Z</time></trkpt><trkpt lat="43.1947137" lon="11.1443268"><ele>273.0</ele><time>2026-04-04T08:50:38.515Z</time></trkpt><trkpt lat="43.1945571" lon="11.144232"><ele>273.0</ele><time>2026-04-04T08:50:39.505Z</time></trkpt><trkpt lat="43.1943878" lon="11.1441351"><ele>273.0</ele><time>2026-04-04T08:50:40.502Z</time></trkpt><trkpt lat="43.1942143" lon="11.1440326"><ele>272.6666666666667</ele><time>2026-04-04T08:50:41.513Z</time></trkpt><trkpt lat="43.1940328" lon="11.1439356"><ele>272.33333333333337</ele><time>2026-04-04T08:50:42.512Z</time></trkpt><trkpt lat="43.1938558" lon="11.1438264"><ele>272.0</ele><time>2026-04-04T08:50:43.513Z</time></trkpt><trkpt lat="43.1936804" lon="11.1437146"><ele>272.6666666666667</ele><time>2026-04-04T08:50:44.513Z</time></trkpt><trkpt lat="43.1935" lon="11.1436051"><ele>273.3333333333333</ele><time>2026-04-04T08:50:45.506Z</time></trkpt><trkpt lat="43.1933314" lon="11.1434978"><ele>274.0</ele><time>2026-04-04T08:50:46.514Z</time></trkpt><trkpt lat="43.1931692" lon="11.1433887"><ele>274.0</ele><time>2026-04-04T08:50:47.507Z</time></trkpt><trkpt lat="43.1930056" lon="11.1432797"><ele>274.0</ele><time>2026-04-04T08:50:48.512Z</time></trkpt><trkpt lat="43.1928447" lon="11.1431727"><ele>274.0</ele><time>2026-04-04T08:50:49.512Z</time></trkpt><trkpt lat="43.1926859" lon="11.1430684"><ele>274.0</ele><time>2026-04-04T08:50:50.51Z</time></trkpt><trkpt lat="43.1925233" lon="11.1429717"><ele>274.0</ele><time>2026-04-04T08:50:51.501Z</time></trkpt><trkpt lat="43.1923521" lon="11.142874"><ele>274.0</ele><time>2026-04-04T08:50:52.501Z</time></trkpt><trkpt lat="43.1921823" lon="11.14278"><ele>274.66666666666663</ele><time>2026-04-04T08:50:53.499Z</time></trkpt><trkpt lat="43.1920173" lon="11.1426789"><ele>275.3333333333333</ele><time>2026-04-04T08:50:54.506Z</time></trkpt><trkpt lat="43.1918604" lon="11.1425738"><ele>276.0</ele><time>2026-04-04T08:50:55.502Z</time></trkpt><trkpt lat="43.1917085" lon="11.1424778"><ele>276.0</ele><time>2026-04-04T08:50:56.516Z</time></trkpt><trkpt lat="43.1915599" lon="11.1423825"><ele>276.0</ele><time>2026-04-04T08:50:57.502Z</time></trkpt><trkpt lat="43.1914122" lon="11.1422944"><ele>276.0</ele><time>2026-04-04T08:50:58.5Z</time></trkpt><trkpt lat="43.1912669" lon="11.1422114"><ele>276.25</ele><time>2026-04-04T08:50:59.501Z</time></trkpt><trkpt lat="43.1911318" lon="11.1421321"><ele>276.5</ele><time>2026-04-04T08:51:00.504Z</time></trkpt><trkpt lat="43.1910063" lon="11.142059"><ele>276.75</ele><time>2026-04-04T08:51:01.497Z</time></trkpt><trkpt lat="43.1908827" lon="11.1419845"><ele>277.0</ele><time>2026-04-04T08:51:02.523Z</time></trkpt><trkpt lat="43.1907662" lon="11.1419196"><ele>277.75</ele><time>2026-04-04T08:51:03.51Z</time></trkpt><trkpt lat="43.1906563" lon="11.1418481"><ele>278.5</ele><time>2026-04-04T08:51:04.529Z</time></trkpt><trkpt lat="43.1905451" lon="11.1417723"><ele>279.25</ele><time>2026-04-04T08:51:05.517Z</time></trkpt><trkpt lat="43.1904296" lon="11.1417016"><ele>280.0</ele><time>2026-04-04T08:51:06.504Z</time></trkpt><trkpt lat="43.1903237" lon="11.141639"><ele>280.0</ele><time>2026-04-04T08:51:07.505Z</time></trkpt><trkpt lat="43.1902254" lon="11.1415853"><ele>280.0</ele><time>2026-04-04T08:51:08.502Z</time></trkpt><trkpt lat="43.1901448" lon="11.1415336"><ele>280.0</ele><time>2026-04-04T08:51:09.512Z</time></trkpt><trkpt lat="43.1900719" lon="11.1414894"><ele>280.0</ele><time>2026-04-04T08:51:10.513Z</time></trkpt><trkpt lat="43.1899775" lon="11.1414235"><ele>280.0</ele><time>2026-04-04T08:51:12.5Z</time></trkpt><trkpt lat="43.1899023" lon="11.1413803"><ele>280.0</ele><time>2026-04-04T08:51:14.503Z</time></trkpt><trkpt lat="43.1898334" lon="11.1413956"><ele>280.0</ele><time>2026-04-04T08:51:17.508Z</time></trkpt><trkpt lat="43.1898402" lon="11.1415164"><ele>280.0</ele><time>2026-04-04T08:51:36.505Z</time></trkpt><trkpt lat="43.1899275" lon="11.1415326"><ele>280.0</ele><time>2026-04-04T08:51:38.507Z</time></trkpt><trkpt lat="43.1900337" lon="11.1415721"><ele>280.0</ele><time>2026-04-04T08:51:40.502Z</time></trkpt><trkpt lat="43.1901035" lon="11.1415942"><ele>280.0</ele><time>2026-04-04T08:51:41.514Z</time></trkpt><trkpt lat="43.1901836" lon="11.1416258"><ele>280.0</ele><time>2026-04-04T08:51:42.517Z</time></trkpt><trkpt lat="43.1902814" lon="11.1416727"><ele>280.0</ele><time>2026-04-04T08:51:43.513Z</time></trkpt><trkpt lat="43.1903772" lon="11.1417285"><ele>280.0</ele><time>2026-04-04T08:51:44.502Z</time></trkpt><trkpt lat="43.1904761" lon="11.1417855"><ele>280.0</ele><time>2026-04-04T08:51:45.504Z</time></trkpt><trkpt lat="43.1905674" lon="11.141834"><ele>280.0</ele><time>2026-04-04T08:51:46.509Z</time></trkpt><trkpt lat="43.1906488" lon="11.1418817"><ele>279.5</ele><time>2026-04-04T08:51:47.521Z</time></trkpt><trkpt lat="43.1907276" lon="11.1419373"><ele>279.0</ele><time>2026-04-04T08:51:48.514Z</time></trkpt><trkpt lat="43.1908005" lon="11.14198"><ele>278.5</ele><time>2026-04-04T08:51:49.505Z</time></trkpt><trkpt lat="43.1908697" lon="11.1420226"><ele>278.0</ele><time>2026-04-04T08:51:50.512Z</time></trkpt><trkpt lat="43.1909332" lon="11.1420621"><ele>277.5</ele><time>2026-04-04T08:51:51.515Z</time></trkpt><trkpt lat="43.1910482" lon="11.1420315"><ele>277.0</ele><time>2026-04-04T08:51:53.513Z</time></trkpt><trkpt lat="43.1911196" lon="11.1419361"><ele>277.0</ele><time>2026-04-04T08:51:55.507Z</time></trkpt><trkpt lat="43.1911912" lon="11.141883"><ele>277.0</ele><time>2026-04-04T08:51:57.513Z</time></trkpt><trkpt lat="43.1912375" lon="11.1419558"><ele>277.0</ele><time>2026-04-04T08:52:00.512Z</time></trkpt><trkpt lat="43.1911518" lon="11.1419808"><ele>277.0</ele><time>2026-04-04T08:52:06.521Z</time></trkpt><trkpt lat="43.191059" lon="11.1420313"><ele>277.0</ele><time>2026-04-04T08:52:08.511Z</time></trkpt><trkpt lat="43.1909838" lon="11.1420503"><ele>277.0</ele><time>2026-04-04T08:52:10.536Z</time></trkpt><trkpt lat="43.1909004" lon="11.142004"><ele>277.0</ele><time>2026-04-04T08:52:11.514Z</time></trkpt><trkpt lat="43.1907972" lon="11.141941"><ele>277.0</ele><time>2026-04-04T08:52:12.514Z</time></trkpt><trkpt lat="43.1906828" lon="11.1418568"><ele>277.0</ele><time>2026-04-04T08:52:13.513Z</time></trkpt><trkpt lat="43.1905562" lon="11.1417893"><ele>277.0</ele><time>2026-04-04T08:52:14.517Z</time></trkpt><trkpt lat="43.1904194" lon="11.1417118"><ele>277.66666666666663</ele><time>2026-04-04T08:52:15.51Z</time></trkpt><trkpt lat="43.1902679" lon="11.1416345"><ele>278.3333333333333</ele><time>2026-04-04T08:52:16.512Z</time></trkpt><trkpt lat="43.1901018" lon="11.1415607"><ele>279.0</ele><time>2026-04-04T08:52:17.508Z</time></trkpt><trkpt lat="43.1899241" lon="11.1414858"><ele>279.3333333333333</ele><time>2026-04-04T08:52:18.505Z</time></trkpt><trkpt lat="43.1897403" lon="11.1414318"><ele>279.66666666666663</ele><time>2026-04-04T08:52:19.497Z</time></trkpt><trkpt lat="43.1895295" lon="11.1414187"><ele>280.0</ele><time>2026-04-04T08:52:20.505Z</time></trkpt><trkpt lat="43.1893093" lon="11.1414152"><ele>280.0</ele><time>2026-04-04T08:52:21.51Z</time></trkpt><trkpt lat="43.1890827" lon="11.1414362"><ele>280.0</ele><time>2026-04-04T08:52:22.519Z</time></trkpt><trkpt lat="43.1888597" lon="11.1414695"><ele>280.5</ele><time>2026-04-04T08:52:23.513Z</time></trkpt><trkpt lat="43.1886323" lon="11.1415341"><ele>281.0</ele><time>2026-04-04T08:52:24.499Z</time></trkpt><trkpt lat="43.1884147" lon="11.1416127"><ele>280.6666666666667</ele><time>2026-04-04T08:52:25.495Z</time></trkpt><trkpt lat="43.1882082" lon="11.1417117"><ele>280.3333333333333</ele><time>2026-04-04T08:52:26.517Z</time></trkpt><trkpt lat="43.1880027" lon="11.1418386"><ele>280.0</ele><time>2026-04-04T08:52:27.518Z</time></trkpt><trkpt lat="43.1878066" lon="11.141984"><ele>280.0</ele><time>2026-04-04T08:52:28.517Z</time></trkpt><trkpt lat="43.1876171" lon="11.1421473"><ele>280.0</ele><time>2026-04-04T08:52:29.51Z</time></trkpt><trkpt lat="43.187431" lon="11.1423268"><ele>279.5</ele><time>2026-04-04T08:52:30.515Z</time></trkpt><trkpt lat="43.1872361" lon="11.1425046"><ele>279.0</ele><time>2026-04-04T08:52:31.509Z</time></trkpt><trkpt lat="43.1870406" lon="11.1426813"><ele>279.0</ele><time>2026-04-04T08:52:32.504Z</time></trkpt><trkpt lat="43.1868459" lon="11.1428509"><ele>279.0</ele><time>2026-04-04T08:52:33.515Z</time></trkpt><trkpt lat="43.1866488" lon="11.1430276"><ele>279.0</ele><time>2026-04-04T08:52:34.501Z</time></trkpt><trkpt lat="43.1864535" lon="11.1432024"><ele>279.0</ele><time>2026-04-04T08:52:35.518Z</time></trkpt><trkpt lat="43.1862629" lon="11.1433785"><ele>279.0</ele><time>2026-04-04T08:52:36.509Z</time></trkpt><trkpt lat="43.1860703" lon="11.143558"><ele>279.0</ele><time>2026-04-04T08:52:37.51Z</time></trkpt><trkpt lat="43.1858754" lon="11.1437306"><ele>279.0</ele><time>2026-04-04T08:52:38.506Z</time></trkpt><trkpt lat="43.1856818" lon="11.1439011"><ele>279.0</ele><time>2026-04-04T08:52:39.51Z</time></trkpt><trkpt lat="43.1854829" lon="11.1440771"><ele>278.5</ele><time>2026-04-04T08:52:40.508Z</time></trkpt><trkpt lat="43.1852823" lon="11.1442509"><ele>278.0</ele><time>2026-04-04T08:52:41.52Z</time></trkpt><trkpt lat="43.1850841" lon="11.144429"><ele>278.0</ele><time>2026-04-04T08:52:42.509Z</time></trkpt><trkpt lat="43.1848881" lon="11.1446055"><ele>278.0</ele><time>2026-04-04T08:52:43.526Z</time></trkpt><trkpt lat="43.1846915" lon="11.1447838"><ele>276.5</ele><time>2026-04-04T08:52:44.504Z</time></trkpt><trkpt lat="43.1844928" lon="11.1449604"><ele>275.0</ele><time>2026-04-04T08:52:45.521Z</time></trkpt><trkpt lat="43.1843005" lon="11.1451385"><ele>275.0</ele><time>2026-04-04T08:52:46.503Z</time></trkpt><trkpt lat="43.1841037" lon="11.1453154"><ele>275.0</ele><time>2026-04-04T08:52:47.507Z</time></trkpt><trkpt lat="43.1839061" lon="11.1454906"><ele>274.0</ele><time>2026-04-04T08:52:48.504Z</time></trkpt><trkpt lat="43.1837086" lon="11.145664"><ele>273.0</ele><time>2026-04-04T08:52:49.512Z</time></trkpt><trkpt lat="43.1835147" lon="11.145844"><ele>273.0</ele><time>2026-04-04T08:52:50.508Z</time></trkpt><trkpt lat="43.1833185" lon="11.1460233"><ele>273.0</ele><time>2026-04-04T08:52:51.515Z</time></trkpt><trkpt lat="43.1831271" lon="11.1461961"><ele>274.5</ele><time>2026-04-04T08:52:52.519Z</time></trkpt><trkpt lat="43.182936" lon="11.1463676"><ele>276.0</ele><time>2026-04-04T08:52:53.508Z</time></trkpt><trkpt lat="43.1827417" lon="11.1465366"><ele>275.5</ele><time>2026-04-04T08:52:54.517Z</time></trkpt><trkpt lat="43.1825456" lon="11.1467142"><ele>275.0</ele><time>2026-04-04T08:52:55.509Z</time></trkpt><trkpt lat="43.1823416" lon="11.1469011"><ele>275.0</ele><time>2026-04-04T08:52:56.503Z</time></trkpt><trkpt lat="43.1821254" lon="11.1470999"><ele>275.0</ele><time>2026-04-04T08:52:57.517Z</time></trkpt><trkpt lat="43.1818916" lon="11.1473085"><ele>273.5</ele><time>2026-04-04T08:52:58.513Z</time></trkpt><trkpt lat="43.1816524" lon="11.1475324"><ele>272.0</ele><time>2026-04-04T08:52:59.522Z</time></trkpt><trkpt lat="43.1814148" lon="11.1477518"><ele>271.0</ele><time>2026-04-04T08:53:00.504Z</time></trkpt><trkpt lat="43.1811861" lon="11.1479528"><ele>270.0</ele><time>2026-04-04T08:53:01.52Z</time></trkpt><trkpt lat="43.1809753" lon="11.1481407"><ele>270.0</ele><time>2026-04-04T08:53:02.508Z</time></trkpt><trkpt lat="43.1807758" lon="11.1483194"><ele>270.0</ele><time>2026-04-04T08:53:03.51Z</time></trkpt><trkpt lat="43.180582" lon="11.1484748"><ele>270.0</ele><time>2026-04-04T08:53:04.518Z</time></trkpt><trkpt lat="43.1803752" lon="11.1486174"><ele>270.0</ele><time>2026-04-04T08:53:05.505Z</time></trkpt><trkpt lat="43.1801563" lon="11.1487408"><ele>270.0</ele><time>2026-04-04T08:53:06.511Z</time></trkpt><trkpt lat="43.179927" lon="11.1488394"><ele>270.0</ele><time>2026-04-04T08:53:07.511Z</time></trkpt><trkpt lat="43.1796916" lon="11.1489172"><ele>270.0</ele><time>2026-04-04T08:53:08.513Z</time></trkpt><trkpt lat="43.1794449" lon="11.148992"><ele>270.0</ele><time>2026-04-04T08:53:09.513Z</time></trkpt><trkpt lat="43.1792064" lon="11.1490603"><ele>270.6666666666667</ele><time>2026-04-04T08:53:10.523Z</time></trkpt><trkpt lat="43.1789877" lon="11.1491234"><ele>271.33333333333337</ele><time>2026-04-04T08:53:11.5Z</time></trkpt><trkpt lat="43.1787913" lon="11.1491713"><ele>272.0</ele><time>2026-04-04T08:53:12.509Z</time></trkpt><trkpt lat="43.1786222" lon="11.1492081"><ele>272.0</ele><time>2026-04-04T08:53:13.5Z</time></trkpt><trkpt lat="43.1784537" lon="11.1492401"><ele>272.0</ele><time>2026-04-04T08:53:14.504Z</time></trkpt><trkpt lat="43.1782791" lon="11.1492845"><ele>272.0</ele><time>2026-04-04T08:53:15.517Z</time></trkpt><trkpt lat="43.178094" lon="11.149328"><ele>272.6666666666667</ele><time>2026-04-04T08:53:16.514Z</time></trkpt><trkpt lat="43.1778982" lon="11.1493872"><ele>273.3333333333333</ele><time>2026-04-04T08:53:17.514Z</time></trkpt><trkpt lat="43.1776857" lon="11.1494308"><ele>274.0</ele><time>2026-04-04T08:53:18.505Z</time></trkpt><trkpt lat="43.177459" lon="11.1494657"><ele>274.0</ele><time>2026-04-04T08:53:19.509Z</time></trkpt><trkpt lat="43.1772368" lon="11.1494948"><ele>274.0</ele><time>2026-04-04T08:53:20.51Z</time></trkpt><trkpt lat="43.1770198" lon="11.1495169"><ele>274.0</ele><time>2026-04-04T08:53:21.512Z</time></trkpt><trkpt lat="43.1767993" lon="11.1495434"><ele>274.0</ele><time>2026-04-04T08:53:22.511Z</time></trkpt><trkpt lat="43.17658" lon="11.149582"><ele>274.0</ele><time>2026-04-04T08:53:23.519Z</time></trkpt><trkpt lat="43.1763647" lon="11.1496283"><ele>274.0</ele><time>2026-04-04T08:53:24.508Z</time></trkpt><trkpt lat="43.1761614" lon="11.1496798"><ele>274.0</ele><time>2026-04-04T08:53:25.508Z</time></trkpt><trkpt lat="43.1759619" lon="11.1497571"><ele>274.0</ele><time>2026-04-04T08:53:26.521Z</time></trkpt><trkpt lat="43.1757714" lon="11.1498668"><ele>274.0</ele><time>2026-04-04T08:53:27.509Z</time></trkpt><trkpt lat="43.1755824" lon="11.1499878"><ele>273.3333333333333</ele><time>2026-04-04T08:53:28.516Z</time></trkpt><trkpt lat="43.1754089" lon="11.1501289"><ele>272.6666666666667</ele><time>2026-04-04T08:53:29.506Z</time></trkpt><trkpt lat="43.1752456" lon="11.1502955"><ele>272.0</ele><time>2026-04-04T08:53:30.504Z</time></trkpt><trkpt lat="43.1750806" lon="11.1504733"><ele>272.0</ele><time>2026-04-04T08:53:31.515Z</time></trkpt><trkpt lat="43.174911" lon="11.1506515"><ele>272.0</ele><time>2026-04-04T08:53:32.506Z</time></trkpt><trkpt lat="43.1747281" lon="11.1508414"><ele>272.0</ele><time>2026-04-04T08:53:33.511Z</time></trkpt><trkpt lat="43.1745411" lon="11.1510334"><ele>270.33333333333337</ele><time>2026-04-04T08:53:34.508Z</time></trkpt><trkpt lat="43.1743599" lon="11.1512043"><ele>268.6666666666667</ele><time>2026-04-04T08:53:35.516Z</time></trkpt><trkpt lat="43.1741925" lon="11.1513691"><ele>267.0</ele><time>2026-04-04T08:53:36.504Z</time></trkpt><trkpt lat="43.1740441" lon="11.1515358"><ele>267.3333333333333</ele><time>2026-04-04T08:53:37.509Z</time></trkpt><trkpt lat="43.173903" lon="11.151716"><ele>267.66666666666663</ele><time>2026-04-04T08:53:38.508Z</time></trkpt><trkpt lat="43.1737593" lon="11.1518972"><ele>268.0</ele><time>2026-04-04T08:53:39.515Z</time></trkpt><trkpt lat="43.1735992" lon="11.1520824"><ele>268.0</ele><time>2026-04-04T08:53:40.524Z</time></trkpt><trkpt lat="43.1734386" lon="11.1522589"><ele>268.0</ele><time>2026-04-04T08:53:41.508Z</time></trkpt><trkpt lat="43.1732758" lon="11.1524519"><ele>268.0</ele><time>2026-04-04T08:53:42.51Z</time></trkpt><trkpt lat="43.1731074" lon="11.1526505"><ele>267.3333333333333</ele><time>2026-04-04T08:53:43.514Z</time></trkpt><trkpt lat="43.1729409" lon="11.1528491"><ele>266.6666666666667</ele><time>2026-04-04T08:53:44.523Z</time></trkpt><trkpt lat="43.1727718" lon="11.1530502"><ele>266.0</ele><time>2026-04-04T08:53:45.513Z</time></trkpt><trkpt lat="43.1726065" lon="11.1532496"><ele>266.0</ele><time>2026-04-04T08:53:46.51Z</time></trkpt><trkpt lat="43.1724398" lon="11.153447"><ele>266.0</ele><time>2026-04-04T08:53:47.51Z</time></trkpt><trkpt lat="43.1722762" lon="11.1536371"><ele>266.0</ele><time>2026-04-04T08:53:48.515Z</time></trkpt><trkpt lat="43.1721184" lon="11.1538251"><ele>266.0</ele><time>2026-04-04T08:53:49.505Z</time></trkpt><trkpt lat="43.1719652" lon="11.1540133"><ele>266.0</ele><time>2026-04-04T08:53:50.516Z</time></trkpt><trkpt lat="43.171811" lon="11.1541972"><ele>266.0</ele><time>2026-04-04T08:53:51.507Z</time></trkpt><trkpt lat="43.1716676" lon="11.1543668"><ele>266.0</ele><time>2026-04-04T08:53:52.521Z</time></trkpt><trkpt lat="43.1715341" lon="11.1545386"><ele>266.0</ele><time>2026-04-04T08:53:53.523Z</time></trkpt><trkpt lat="43.1714063" lon="11.1547019"><ele>266.0</ele><time>2026-04-04T08:53:54.52Z</time></trkpt><trkpt lat="43.1712846" lon="11.1548606"><ele>267.0</ele><time>2026-04-04T08:53:55.511Z</time></trkpt><trkpt lat="43.1711564" lon="11.1550137"><ele>268.0</ele><time>2026-04-04T08:53:56.516Z</time></trkpt><trkpt lat="43.1710278" lon="11.1551647"><ele>269.0</ele><time>2026-04-04T08:53:57.511Z</time></trkpt><trkpt lat="43.1708981" lon="11.1553111"><ele>269.0</ele><time>2026-04-04T08:53:58.517Z</time></trkpt><trkpt lat="43.1707703" lon="11.1554724"><ele>269.0</ele><time>2026-04-04T08:53:59.507Z</time></trkpt><trkpt lat="43.1706391" lon="11.1556388"><ele>269.0</ele><time>2026-04-04T08:54:00.516Z</time></trkpt><trkpt lat="43.1705104" lon="11.1558083"><ele>267.33333333333337</ele><time>2026-04-04T08:54:01.511Z</time></trkpt><trkpt lat="43.1703866" lon="11.155972"><ele>265.6666666666667</ele><time>2026-04-04T08:54:02.507Z</time></trkpt><trkpt lat="43.1702804" lon="11.1561559"><ele>264.0</ele><time>2026-04-04T08:54:03.505Z</time></trkpt><trkpt lat="43.1701823" lon="11.1563544"><ele>264.0</ele><time>2026-04-04T08:54:04.512Z</time></trkpt><trkpt lat="43.1700741" lon="11.156558"><ele>264.0</ele><time>2026-04-04T08:54:05.511Z</time></trkpt><trkpt lat="43.1699647" lon="11.1567473"><ele>264.0</ele><time>2026-04-04T08:54:06.512Z</time></trkpt><trkpt lat="43.1698651" lon="11.1569253"><ele>264.0</ele><time>2026-04-04T08:54:07.507Z</time></trkpt><trkpt lat="43.1697645" lon="11.1571052"><ele>264.0</ele><time>2026-04-04T08:54:08.515Z</time></trkpt><trkpt lat="43.1696673" lon="11.1573022"><ele>264.0</ele><time>2026-04-04T08:54:09.509Z</time></trkpt><trkpt lat="43.1695704" lon="11.1575117"><ele>264.0</ele><time>2026-04-04T08:54:10.512Z</time></trkpt><trkpt lat="43.1694614" lon="11.1577191"><ele>264.0</ele><time>2026-04-04T08:54:11.516Z</time></trkpt><trkpt lat="43.1693496" lon="11.1579244"><ele>264.0</ele><time>2026-04-04T08:54:12.522Z</time></trkpt><trkpt lat="43.1692336" lon="11.158111"><ele>263.3333333333333</ele><time>2026-04-04T08:54:13.505Z</time></trkpt><trkpt lat="43.1691369" lon="11.1583"><ele>262.66666666666663</ele><time>2026-04-04T08:54:14.509Z</time></trkpt><trkpt lat="43.1690416" lon="11.1584824"><ele>262.0</ele><time>2026-04-04T08:54:15.52Z</time></trkpt><trkpt lat="43.1689478" lon="11.1586677"><ele>262.0</ele><time>2026-04-04T08:54:16.515Z</time></trkpt><trkpt lat="43.1688543" lon="11.1588566"><ele>262.0</ele><time>2026-04-04T08:54:17.524Z</time></trkpt><trkpt lat="43.1687509" lon="11.1590521"><ele>262.0</ele><time>2026-04-04T08:54:18.514Z</time></trkpt><trkpt lat="43.1686376" lon="11.1592675"><ele>262.0</ele><time>2026-04-04T08:54:19.522Z</time></trkpt><trkpt lat="43.168507" lon="11.1594893"><ele>262.0</ele><time>2026-04-04T08:54:20.508Z</time></trkpt><trkpt lat="43.1683754" lon="11.1597401"><ele>262.0</ele><time>2026-04-04T08:54:21.521Z</time></trkpt><trkpt lat="43.1682388" lon="11.1599991"><ele>261.5</ele><time>2026-04-04T08:54:22.515Z</time></trkpt><trkpt lat="43.1680987" lon="11.1602672"><ele>261.0</ele><time>2026-04-04T08:54:23.501Z</time></trkpt><trkpt lat="43.1679568" lon="11.1605359"><ele>261.0</ele><time>2026-04-04T08:54:24.529Z</time></trkpt><trkpt lat="43.1678159" lon="11.1608089"><ele>261.0</ele><time>2026-04-04T08:54:25.508Z</time></trkpt><trkpt lat="43.1676684" lon="11.1610818"><ele>261.0</ele><time>2026-04-04T08:54:26.509Z</time></trkpt><trkpt lat="43.1675227" lon="11.1613568"><ele>261.0</ele><time>2026-04-04T08:54:27.506Z</time></trkpt><trkpt lat="43.1673774" lon="11.1616303"><ele>262.5</ele><time>2026-04-04T08:54:28.52Z</time></trkpt><trkpt lat="43.1672222" lon="11.1619002"><ele>264.0</ele><time>2026-04-04T08:54:29.526Z</time></trkpt><trkpt lat="43.1670766" lon="11.1621667"><ele>265.5</ele><time>2026-04-04T08:54:30.51Z</time></trkpt><trkpt lat="43.1669349" lon="11.1624195"><ele>267.0</ele><time>2026-04-04T08:54:31.501Z</time></trkpt><trkpt lat="43.1667975" lon="11.1626706"><ele>267.0</ele><time>2026-04-04T08:54:32.512Z</time></trkpt><trkpt lat="43.1666597" lon="11.1629183"><ele>267.0</ele><time>2026-04-04T08:54:33.511Z</time></trkpt><trkpt lat="43.1665163" lon="11.1631632"><ele>265.0</ele><time>2026-04-04T08:54:34.513Z</time></trkpt><trkpt lat="43.1663776" lon="11.1634136"><ele>263.0</ele><time>2026-04-04T08:54:35.507Z</time></trkpt><trkpt lat="43.1662371" lon="11.1636583"><ele>263.0</ele><time>2026-04-04T08:54:36.526Z</time></trkpt><trkpt lat="43.1661039" lon="11.1639063"><ele>263.0</ele><time>2026-04-04T08:54:37.516Z</time></trkpt><trkpt lat="43.1659659" lon="11.1641546"><ele>262.5</ele><time>2026-04-04T08:54:38.5Z</time></trkpt><trkpt lat="43.1658245" lon="11.1644033"><ele>262.0</ele><time>2026-04-04T08:54:39.515Z</time></trkpt><trkpt lat="43.1656818" lon="11.1646698"><ele>261.0</ele><time>2026-04-04T08:54:40.51Z</time></trkpt><trkpt lat="43.1655421" lon="11.1649431"><ele>260.0</ele><time>2026-04-04T08:54:41.502Z</time></trkpt><trkpt lat="43.1654006" lon="11.1652196"><ele>260.0</ele><time>2026-04-04T08:54:42.51Z</time></trkpt><trkpt lat="43.1652626" lon="11.1655"><ele>260.0</ele><time>2026-04-04T08:54:43.517Z</time></trkpt><trkpt lat="43.1651279" lon="11.1657886"><ele>260.0</ele><time>2026-04-04T08:54:44.51Z</time></trkpt><trkpt lat="43.1649841" lon="11.166076"><ele>260.0</ele><time>2026-04-04T08:54:45.506Z</time></trkpt><trkpt lat="43.1648451" lon="11.166367"><ele>260.5</ele><time>2026-04-04T08:54:46.516Z</time></trkpt><trkpt lat="43.1647065" lon="11.1666583"><ele>261.0</ele><time>2026-04-04T08:54:47.502Z</time></trkpt><trkpt lat="43.1645642" lon="11.1669436"><ele>261.0</ele><time>2026-04-04T08:54:48.515Z</time></trkpt><trkpt lat="43.1644296" lon="11.16723"><ele>261.0</ele><time>2026-04-04T08:54:49.502Z</time></trkpt><trkpt lat="43.1642897" lon="11.167517"><ele>261.5</ele><time>2026-04-04T08:54:50.515Z</time></trkpt><trkpt lat="43.1641519" lon="11.1678041"><ele>262.0</ele><time>2026-04-04T08:54:51.505Z</time></trkpt><trkpt lat="43.1640154" lon="11.1680973"><ele>261.5</ele><time>2026-04-04T08:54:52.509Z</time></trkpt><trkpt lat="43.1638775" lon="11.1683862"><ele>261.0</ele><time>2026-04-04T08:54:53.506Z</time></trkpt><trkpt lat="43.1637427" lon="11.1686846"><ele>261.0</ele><time>2026-04-04T08:54:54.527Z</time></trkpt><trkpt lat="43.1636077" lon="11.1689711"><ele>261.0</ele><time>2026-04-04T08:54:55.51Z</time></trkpt><trkpt lat="43.1634756" lon="11.1692509"><ele>262.0</ele><time>2026-04-04T08:54:56.508Z</time></trkpt><trkpt lat="43.1633466" lon="11.1695103"><ele>263.0</ele><time>2026-04-04T08:54:57.503Z</time></trkpt><trkpt lat="43.1632213" lon="11.1697617"><ele>263.33333333333337</ele><time>2026-04-04T08:54:58.512Z</time></trkpt><trkpt lat="43.1630964" lon="11.1699895"><ele>263.6666666666667</ele><time>2026-04-04T08:54:59.507Z</time></trkpt><trkpt lat="43.1629789" lon="11.170208"><ele>264.0</ele><time>2026-04-04T08:55:00.516Z</time></trkpt><trkpt lat="43.1628405" lon="11.1704019"><ele>264.0</ele><time>2026-04-04T08:55:01.506Z</time></trkpt><trkpt lat="43.1626688" lon="11.170528"><ele>264.0</ele><time>2026-04-04T08:55:02.516Z</time></trkpt><trkpt lat="43.162461" lon="11.1706211"><ele>264.0</ele><time>2026-04-04T08:55:03.508Z</time></trkpt><trkpt lat="43.1622584" lon="11.1706868"><ele>266.5</ele><time>2026-04-04T08:55:04.506Z</time></trkpt><trkpt lat="43.1620338" lon="11.1707401"><ele>269.0</ele><time>2026-04-04T08:55:05.523Z</time></trkpt><trkpt lat="43.161815" lon="11.1708001"><ele>269.0</ele><time>2026-04-04T08:55:06.513Z</time></trkpt><trkpt lat="43.161587" lon="11.1708702"><ele>269.0</ele><time>2026-04-04T08:55:07.523Z</time></trkpt><trkpt lat="43.1613559" lon="11.170937"><ele>269.0</ele><time>2026-04-04T08:55:08.522Z</time></trkpt><trkpt lat="43.161141" lon="11.1710002"><ele>269.0</ele><time>2026-04-04T08:55:09.516Z</time></trkpt><trkpt lat="43.1609405" lon="11.1710616"><ele>269.0</ele><time>2026-04-04T08:55:10.51Z</time></trkpt><trkpt lat="43.1607493" lon="11.1710965"><ele>270.0</ele><time>2026-04-04T08:55:11.511Z</time></trkpt><trkpt lat="43.1605731" lon="11.1710876"><ele>271.0</ele><time>2026-04-04T08:55:12.525Z</time></trkpt><trkpt lat="43.160402" lon="11.1710043"><ele>272.0</ele><time>2026-04-04T08:55:13.514Z</time></trkpt><trkpt lat="43.1602588" lon="11.1708888"><ele>272.0</ele><time>2026-04-04T08:55:14.523Z</time></trkpt><trkpt lat="43.1601017" lon="11.170756"><ele>272.0</ele><time>2026-04-04T08:55:15.514Z</time></trkpt><trkpt lat="43.1599591" lon="11.1706618"><ele>272.0</ele><time>2026-04-04T08:55:16.509Z</time></trkpt><trkpt lat="43.1598017" lon="11.1705974"><ele>271.6666666666667</ele><time>2026-04-04T08:55:17.501Z</time></trkpt><trkpt lat="43.1596352" lon="11.1705743"><ele>271.3333333333333</ele><time>2026-04-04T08:55:18.527Z</time></trkpt><trkpt lat="43.1594532" lon="11.1706521"><ele>271.0</ele><time>2026-04-04T08:55:19.517Z</time></trkpt><trkpt lat="43.159271" lon="11.1707567"><ele>272.0</ele><time>2026-04-04T08:55:20.516Z</time></trkpt><trkpt lat="43.159078" lon="11.1708743"><ele>273.0</ele><time>2026-04-04T08:55:21.514Z</time></trkpt><trkpt lat="43.1588666" lon="11.1709882"><ele>274.0</ele><time>2026-04-04T08:55:22.517Z</time></trkpt><trkpt lat="43.1586601" lon="11.1710932"><ele>275.0</ele><time>2026-04-04T08:55:23.515Z</time></trkpt><trkpt lat="43.1584419" lon="11.1712004"><ele>276.0</ele><time>2026-04-04T08:55:24.509Z</time></trkpt><trkpt lat="43.1582292" lon="11.1713043"><ele>276.0</ele><time>2026-04-04T08:55:25.495Z</time></trkpt><trkpt lat="43.1580143" lon="11.171422"><ele>276.0</ele><time>2026-04-04T08:55:26.5Z</time></trkpt><trkpt lat="43.1577908" lon="11.1715384"><ele>276.5</ele><time>2026-04-04T08:55:27.502Z</time></trkpt><trkpt lat="43.1575646" lon="11.1716584"><ele>277.0</ele><time>2026-04-04T08:55:28.512Z</time></trkpt><trkpt lat="43.157335" lon="11.1717799"><ele>278.0</ele><time>2026-04-04T08:55:29.505Z</time></trkpt><trkpt lat="43.1571052" lon="11.1719031"><ele>279.0</ele><time>2026-04-04T08:55:30.503Z</time></trkpt><trkpt lat="43.1568682" lon="11.1720263"><ele>279.0</ele><time>2026-04-04T08:55:31.512Z</time></trkpt><trkpt lat="43.1566177" lon="11.1721531"><ele>279.0</ele><time>2026-04-04T08:55:32.517Z</time></trkpt><trkpt lat="43.156353" lon="11.172276"><ele>279.5</ele><time>2026-04-04T08:55:33.522Z</time></trkpt><trkpt lat="43.1560898" lon="11.1723883"><ele>280.0</ele><time>2026-04-04T08:55:34.509Z</time></trkpt><trkpt lat="43.1558548" lon="11.1724967"><ele>282.0</ele><time>2026-04-04T08:55:35.52Z</time></trkpt><trkpt lat="43.1556371" lon="11.1725961"><ele>284.0</ele><time>2026-04-04T08:55:36.512Z</time></trkpt><trkpt lat="43.1554269" lon="11.172697"><ele>284.0</ele><time>2026-04-04T08:55:37.501Z</time></trkpt><trkpt lat="43.1552127" lon="11.1728204"><ele>284.0</ele><time>2026-04-04T08:55:38.514Z</time></trkpt><trkpt lat="43.155001" lon="11.172984"><ele>284.5</ele><time>2026-04-04T08:55:39.508Z</time></trkpt><trkpt lat="43.1547861" lon="11.1731638"><ele>285.0</ele><time>2026-04-04T08:55:40.504Z</time></trkpt><trkpt lat="43.1545782" lon="11.1733496"><ele>286.0</ele><time>2026-04-04T08:55:41.51Z</time></trkpt><trkpt lat="43.1543611" lon="11.1735547"><ele>287.0</ele><time>2026-04-04T08:55:42.509Z</time></trkpt><trkpt lat="43.1541363" lon="11.1737769"><ele>289.0</ele><time>2026-04-04T08:55:43.514Z</time></trkpt><trkpt lat="43.1539202" lon="11.1739837"><ele>291.0</ele><time>2026-04-04T08:55:44.508Z</time></trkpt><trkpt lat="43.1537139" lon="11.174184"><ele>292.0</ele><time>2026-04-04T08:55:45.502Z</time></trkpt><trkpt lat="43.1535204" lon="11.1743967"><ele>293.0</ele><time>2026-04-04T08:55:46.508Z</time></trkpt><trkpt lat="43.1533265" lon="11.174618"><ele>293.0</ele><time>2026-04-04T08:55:47.506Z</time></trkpt><trkpt lat="43.1531321" lon="11.1748442"><ele>293.0</ele><time>2026-04-04T08:55:48.509Z</time></trkpt><trkpt lat="43.1529332" lon="11.1750699"><ele>293.0</ele><time>2026-04-04T08:55:49.514Z</time></trkpt><trkpt lat="43.1527452" lon="11.1752897"><ele>293.0</ele><time>2026-04-04T08:55:50.501Z</time></trkpt><trkpt lat="43.1525647" lon="11.175479"><ele>293.0</ele><time>2026-04-04T08:55:51.502Z</time></trkpt><trkpt lat="43.152389" lon="11.1756507"><ele>293.0</ele><time>2026-04-04T08:55:52.509Z</time></trkpt><trkpt lat="43.1522128" lon="11.1758022"><ele>293.0</ele><time>2026-04-04T08:55:53.497Z</time></trkpt><trkpt lat="43.1520303" lon="11.1759173"><ele>294.0</ele><time>2026-04-04T08:55:54.506Z</time></trkpt><trkpt lat="43.1518637" lon="11.1760077"><ele>295.0</ele><time>2026-04-04T08:55:55.511Z</time></trkpt><trkpt lat="43.1516958" lon="11.1761064"><ele>296.0</ele><time>2026-04-04T08:55:56.513Z</time></trkpt><trkpt lat="43.1515282" lon="11.1762011"><ele>296.0</ele><time>2026-04-04T08:55:57.513Z</time></trkpt><trkpt lat="43.1513721" lon="11.1763017"><ele>296.0</ele><time>2026-04-04T08:55:58.507Z</time></trkpt><trkpt lat="43.1512321" lon="11.1764154"><ele>296.0</ele><time>2026-04-04T08:55:59.517Z</time></trkpt><trkpt lat="43.1511215" lon="11.176543"><ele>297.75</ele><time>2026-04-04T08:56:00.515Z</time></trkpt><trkpt lat="43.1510407" lon="11.1766835"><ele>299.5</ele><time>2026-04-04T08:56:01.527Z</time></trkpt><trkpt lat="43.1510114" lon="11.1768498"><ele>301.25</ele><time>2026-04-04T08:56:02.503Z</time></trkpt><trkpt lat="43.151023" lon="11.1770218"><ele>303.0</ele><time>2026-04-04T08:56:03.514Z</time></trkpt><trkpt lat="43.1510696" lon="11.177212"><ele>304.8</ele><time>2026-04-04T08:56:04.521Z</time></trkpt><trkpt lat="43.1511235" lon="11.1773704"><ele>306.6</ele><time>2026-04-04T08:56:05.495Z</time></trkpt><trkpt lat="43.1511381" lon="11.1775105"><ele>308.4</ele><time>2026-04-04T08:56:06.535Z</time></trkpt><trkpt lat="43.1511054" lon="11.1776364"><ele>310.2</ele><time>2026-04-04T08:56:07.513Z</time></trkpt><trkpt lat="43.1510291" lon="11.1777584"><ele>312.0</ele><time>2026-04-04T08:56:08.518Z</time></trkpt><trkpt lat="43.150932" lon="11.1778163"><ele>312.0</ele><time>2026-04-04T08:56:09.5Z</time></trkpt><trkpt lat="43.1507852" lon="11.1777891"><ele>312.0</ele><time>2026-04-04T08:56:10.513Z</time></trkpt><trkpt lat="43.1506379" lon="11.1777749"><ele>312.0</ele><time>2026-04-04T08:56:11.512Z</time></trkpt><trkpt lat="43.1504758" lon="11.177786"><ele>312.0</ele><time>2026-04-04T08:56:12.506Z</time></trkpt><trkpt lat="43.150304" lon="11.1778177"><ele>312.0</ele><time>2026-04-04T08:56:13.511Z</time></trkpt><trkpt lat="43.1501288" lon="11.1778598"><ele>312.0</ele><time>2026-04-04T08:56:14.498Z</time></trkpt><trkpt lat="43.1499578" lon="11.1779192"><ele>312.0</ele><time>2026-04-04T08:56:15.509Z</time></trkpt><trkpt lat="43.1497966" lon="11.1780185"><ele>312.0</ele><time>2026-04-04T08:56:16.511Z</time></trkpt><trkpt lat="43.149638" lon="11.1781598"><ele>312.0</ele><time>2026-04-04T08:56:17.49Z</time></trkpt><trkpt lat="43.1494629" lon="11.1783164"><ele>315.3333333333333</ele><time>2026-04-04T08:56:18.522Z</time></trkpt><trkpt lat="43.1492907" lon="11.1784291"><ele>318.66666666666663</ele><time>2026-04-04T08:56:19.51Z</time></trkpt><trkpt lat="43.1491222" lon="11.1784991"><ele>322.0</ele><time>2026-04-04T08:56:20.513Z</time></trkpt><trkpt lat="43.1489573" lon="11.1785547"><ele>323.0</ele><time>2026-04-04T08:56:21.518Z</time></trkpt><trkpt lat="43.1488015" lon="11.1786501"><ele>324.0</ele><time>2026-04-04T08:56:22.51Z</time></trkpt><trkpt lat="43.148643" lon="11.1788236"><ele>325.0</ele><time>2026-04-04T08:56:23.515Z</time></trkpt><trkpt lat="43.1484943" lon="11.1789773"><ele>326.3333333333333</ele><time>2026-04-04T08:56:24.512Z</time></trkpt><trkpt lat="43.1483541" lon="11.1791076"><ele>327.6666666666667</ele><time>2026-04-04T08:56:25.522Z</time></trkpt><trkpt lat="43.148197" lon="11.1792063"><ele>329.0</ele><time>2026-04-04T08:56:26.512Z</time></trkpt><trkpt lat="43.1480229" lon="11.1792546"><ele>329.6666666666667</ele><time>2026-04-04T08:56:27.51Z</time></trkpt><trkpt lat="43.1478432" lon="11.1792585"><ele>330.3333333333333</ele><time>2026-04-04T08:56:28.508Z</time></trkpt><trkpt lat="43.147656" lon="11.1792546"><ele>331.0</ele><time>2026-04-04T08:56:29.504Z</time></trkpt><trkpt lat="43.1474771" lon="11.1792547"><ele>332.0</ele><time>2026-04-04T08:56:30.509Z</time></trkpt><trkpt lat="43.1472913" lon="11.1792604"><ele>333.0</ele><time>2026-04-04T08:56:31.504Z</time></trkpt><trkpt lat="43.1471055" lon="11.1792615"><ele>334.0</ele><time>2026-04-04T08:56:32.517Z</time></trkpt><trkpt lat="43.1469167" lon="11.1792544"><ele>334.0</ele><time>2026-04-04T08:56:33.497Z</time></trkpt><trkpt lat="43.1467302" lon="11.179235"><ele>334.0</ele><time>2026-04-04T08:56:34.519Z</time></trkpt><trkpt lat="43.1465419" lon="11.1792122"><ele>334.0</ele><time>2026-04-04T08:56:35.517Z</time></trkpt><trkpt lat="43.1463553" lon="11.1791742"><ele>335.3333333333333</ele><time>2026-04-04T08:56:36.511Z</time></trkpt><trkpt lat="43.1461653" lon="11.1791288"><ele>336.6666666666667</ele><time>2026-04-04T08:56:37.515Z</time></trkpt><trkpt lat="43.145986" lon="11.1790659"><ele>338.0</ele><time>2026-04-04T08:56:38.513Z</time></trkpt><trkpt lat="43.145818" lon="11.1790115"><ele>341.33333333333337</ele><time>2026-04-04T08:56:39.51Z</time></trkpt><trkpt lat="43.1456652" lon="11.178993"><ele>344.6666666666667</ele><time>2026-04-04T08:56:40.507Z</time></trkpt><trkpt lat="43.1455156" lon="11.1790327"><ele>348.0</ele><time>2026-04-04T08:56:41.514Z</time></trkpt><trkpt lat="43.1453718" lon="11.1791355"><ele>348.0</ele><time>2026-04-04T08:56:42.498Z</time></trkpt><trkpt lat="43.1452404" lon="11.1792843"><ele>348.0</ele><time>2026-04-04T08:56:43.515Z</time></trkpt><trkpt lat="43.1451075" lon="11.1794605"><ele>348.0</ele><time>2026-04-04T08:56:44.504Z</time></trkpt><trkpt lat="43.1449619" lon="11.1796571"><ele>350.3333333333333</ele><time>2026-04-04T08:56:45.494Z</time></trkpt><trkpt lat="43.1448208" lon="11.1798425"><ele>352.66666666666663</ele><time>2026-04-04T08:56:46.519Z</time></trkpt><trkpt lat="43.1446693" lon="11.1800175"><ele>355.0</ele><time>2026-04-04T08:56:47.518Z</time></trkpt><trkpt lat="43.1445074" lon="11.1801642"><ele>355.0</ele><time>2026-04-04T08:56:48.507Z</time></trkpt><trkpt lat="43.144328" lon="11.1802714"><ele>355.0</ele><time>2026-04-04T08:56:49.501Z</time></trkpt><trkpt lat="43.1441404" lon="11.1803512"><ele>355.0</ele><time>2026-04-04T08:56:50.5Z</time></trkpt><trkpt lat="43.1439543" lon="11.1804052"><ele>358.0</ele><time>2026-04-04T08:56:51.511Z</time></trkpt><trkpt lat="43.1437529" lon="11.1804306"><ele>361.0</ele><time>2026-04-04T08:56:52.505Z</time></trkpt><trkpt lat="43.1435467" lon="11.1804494"><ele>364.0</ele><time>2026-04-04T08:56:53.511Z</time></trkpt><trkpt lat="43.1433393" lon="11.1804683"><ele>364.0</ele><time>2026-04-04T08:56:54.505Z</time></trkpt><trkpt lat="43.1431296" lon="11.1804912"><ele>364.0</ele><time>2026-04-04T08:56:55.499Z</time></trkpt><trkpt lat="43.1429311" lon="11.1805062"><ele>364.0</ele><time>2026-04-04T08:56:56.512Z</time></trkpt><trkpt lat="43.1427428" lon="11.1805062"><ele>364.0</ele><time>2026-04-04T08:56:57.502Z</time></trkpt><trkpt lat="43.142558" lon="11.1804755"><ele>364.0</ele><time>2026-04-04T08:56:58.507Z</time></trkpt><trkpt lat="43.1423802" lon="11.180438"><ele>364.0</ele><time>2026-04-04T08:56:59.504Z</time></trkpt><trkpt lat="43.1422038" lon="11.1803953"><ele>363.3333333333333</ele><time>2026-04-04T08:57:00.509Z</time></trkpt><trkpt lat="43.1420287" lon="11.1803404"><ele>362.6666666666667</ele><time>2026-04-04T08:57:01.503Z</time></trkpt><trkpt lat="43.1418588" lon="11.1802709"><ele>362.0</ele><time>2026-04-04T08:57:02.502Z</time></trkpt><trkpt lat="43.1416959" lon="11.1802074"><ele>362.33333333333337</ele><time>2026-04-04T08:57:03.501Z</time></trkpt><trkpt lat="43.141539" lon="11.1801302"><ele>362.6666666666667</ele><time>2026-04-04T08:57:04.5Z</time></trkpt><trkpt lat="43.1413873" lon="11.1800689"><ele>363.0</ele><time>2026-04-04T08:57:05.508Z</time></trkpt><trkpt lat="43.1412389" lon="11.1800303"><ele>363.0</ele><time>2026-04-04T08:57:06.503Z</time></trkpt><trkpt lat="43.1410956" lon="11.1800058"><ele>363.0</ele><time>2026-04-04T08:57:07.5Z</time></trkpt><trkpt lat="43.1409535" lon="11.1799886"><ele>363.0</ele><time>2026-04-04T08:57:08.506Z</time></trkpt><trkpt lat="43.1408223" lon="11.1799789"><ele>363.0</ele><time>2026-04-04T08:57:09.51Z</time></trkpt><trkpt lat="43.1407022" lon="11.1799734"><ele>364.0</ele><time>2026-04-04T08:57:10.506Z</time></trkpt><trkpt lat="43.1405823" lon="11.1799685"><ele>365.0</ele><time>2026-04-04T08:57:11.519Z</time></trkpt><trkpt lat="43.1404612" lon="11.1799723"><ele>366.0</ele><time>2026-04-04T08:57:12.504Z</time></trkpt><trkpt lat="43.1403409" lon="11.179983"><ele>367.0</ele><time>2026-04-04T08:57:13.498Z</time></trkpt><trkpt lat="43.1402262" lon="11.1799875"><ele>367.0</ele><time>2026-04-04T08:57:14.51Z</time></trkpt><trkpt lat="43.1401183" lon="11.1799895"><ele>367.0</ele><time>2026-04-04T08:57:15.496Z</time></trkpt><trkpt lat="43.1400267" lon="11.1799919"><ele>367.0</ele><time>2026-04-04T08:57:16.504Z</time></trkpt><trkpt lat="43.1399365" lon="11.1799957"><ele>367.0</ele><time>2026-04-04T08:57:17.5Z</time></trkpt><trkpt lat="43.1398531" lon="11.1800063"><ele>367.0</ele><time>2026-04-04T08:57:18.512Z</time></trkpt><trkpt lat="43.1397728" lon="11.1800177"><ele>367.16666666666663</ele><time>2026-04-04T08:57:19.509Z</time></trkpt><trkpt lat="43.1396979" lon="11.1800254"><ele>367.3333333333333</ele><time>2026-04-04T08:57:20.518Z</time></trkpt><trkpt lat="43.1396274" lon="11.1800241"><ele>367.5</ele><time>2026-04-04T08:57:21.519Z</time></trkpt><trkpt lat="43.1395596" lon="11.180014"><ele>367.6666666666667</ele><time>2026-04-04T08:57:22.514Z</time></trkpt><trkpt lat="43.1394849" lon="11.1799172"><ele>367.83333333333337</ele><time>2026-04-04T08:57:24.513Z</time></trkpt><trkpt lat="43.1394703" lon="11.1797804"><ele>368.0</ele><time>2026-04-04T08:57:26.515Z</time></trkpt><trkpt lat="43.1395018" lon="11.1796515"><ele>367.42857142857144</ele><time>2026-04-04T08:57:28.521Z</time></trkpt><trkpt lat="43.1395258" lon="11.1795688"><ele>366.85714285714283</ele><time>2026-04-04T08:57:29.498Z</time></trkpt><trkpt lat="43.1395526" lon="11.1794878"><ele>366.2857142857143</ele><time>2026-04-04T08:57:30.509Z</time></trkpt><trkpt lat="43.1395799" lon="11.1794046"><ele>365.7142857142857</ele><time>2026-04-04T08:57:31.519Z</time></trkpt><trkpt lat="43.1396169" lon="11.1793219"><ele>365.1428571428571</ele><time>2026-04-04T08:57:32.501Z</time></trkpt><trkpt lat="43.1396534" lon="11.1792432"><ele>364.57142857142856</ele><time>2026-04-04T08:57:33.502Z</time></trkpt><trkpt lat="43.1396817" lon="11.179162"><ele>364.0</ele><time>2026-04-04T08:57:34.512Z</time></trkpt><trkpt lat="43.1397308" lon="11.1790121"><ele>362.66666666666663</ele><time>2026-04-04T08:57:36.512Z</time></trkpt><trkpt lat="43.139764" lon="11.1788784"><ele>361.3333333333333</ele><time>2026-04-04T08:57:38.522Z</time></trkpt><trkpt lat="43.1397875" lon="11.1787932"><ele>360.0</ele><time>2026-04-04T08:57:40.515Z</time></trkpt><trkpt lat="43.1397774" lon="11.1787013"><ele>358.6666666666667</ele><time>2026-04-04T08:58:18.509Z</time></trkpt><trkpt lat="43.1397121" lon="11.1785854"><ele>357.33333333333337</ele><time>2026-04-04T08:58:20.524Z</time></trkpt><trkpt lat="43.139693" lon="11.1784724"><ele>356.0</ele><time>2026-04-04T08:58:21.513Z</time></trkpt><trkpt lat="43.1396592" lon="11.1783404"><ele>356.0</ele><time>2026-04-04T08:58:22.527Z</time></trkpt><trkpt lat="43.1396044" lon="11.1782037"><ele>356.0</ele><time>2026-04-04T08:58:23.512Z</time></trkpt><trkpt lat="43.1395444" lon="11.1780685"><ele>356.0</ele><time>2026-04-04T08:58:24.508Z</time></trkpt><trkpt lat="43.1394869" lon="11.1779256"><ele>356.0</ele><time>2026-04-04T08:58:25.519Z</time></trkpt><trkpt lat="43.1394287" lon="11.1777845"><ele>355.75</ele><time>2026-04-04T08:58:26.517Z</time></trkpt><trkpt lat="43.1393663" lon="11.1776473"><ele>355.5</ele><time>2026-04-04T08:58:27.513Z</time></trkpt><trkpt lat="43.1393194" lon="11.1775096"><ele>355.25</ele><time>2026-04-04T08:58:28.521Z</time></trkpt><trkpt lat="43.1393011" lon="11.1773426"><ele>355.0</ele><time>2026-04-04T08:58:29.499Z</time></trkpt><trkpt lat="43.1393011" lon="11.1771475"><ele>354.3333333333333</ele><time>2026-04-04T08:58:30.514Z</time></trkpt><trkpt lat="43.139334" lon="11.1769298"><ele>353.6666666666667</ele><time>2026-04-04T08:58:31.502Z</time></trkpt><trkpt lat="43.1393672" lon="11.1767184"><ele>353.0</ele><time>2026-04-04T08:58:32.505Z</time></trkpt><trkpt lat="43.1393872" lon="11.1765263"><ele>352.5</ele><time>2026-04-04T08:58:33.507Z</time></trkpt><trkpt lat="43.1393854" lon="11.1763435"><ele>352.0</ele><time>2026-04-04T08:58:34.516Z</time></trkpt><trkpt lat="43.1393496" lon="11.1761709"><ele>351.5</ele><time>2026-04-04T08:58:35.519Z</time></trkpt><trkpt lat="43.1392767" lon="11.1760085"><ele>351.0</ele><time>2026-04-04T08:58:36.508Z</time></trkpt><trkpt lat="43.139184" lon="11.1758682"><ele>351.0</ele><time>2026-04-04T08:58:37.495Z</time></trkpt><trkpt lat="43.1390673" lon="11.1757601"><ele>351.0</ele><time>2026-04-04T08:58:38.497Z</time></trkpt><trkpt lat="43.1389314" lon="11.1757048"><ele>351.0</ele><time>2026-04-04T08:58:39.508Z</time></trkpt><trkpt lat="43.138799" lon="11.1756634"><ele>351.0</ele><time>2026-04-04T08:58:40.516Z</time></trkpt><trkpt lat="43.1386693" lon="11.1756676"><ele>350.5</ele><time>2026-04-04T08:58:41.514Z</time></trkpt><trkpt lat="43.1385354" lon="11.175703"><ele>350.0</ele><time>2026-04-04T08:58:42.519Z</time></trkpt><trkpt lat="43.1384082" lon="11.1757963"><ele>349.5</ele><time>2026-04-04T08:58:43.51Z</time></trkpt><trkpt lat="43.1382951" lon="11.1758983"><ele>349.0</ele><time>2026-04-04T08:58:44.513Z</time></trkpt><trkpt lat="43.1382037" lon="11.1760239"><ele>350.0</ele><time>2026-04-04T08:58:45.517Z</time></trkpt><trkpt lat="43.1381126" lon="11.1761439"><ele>351.0</ele><time>2026-04-04T08:58:46.51Z</time></trkpt><trkpt lat="43.1380089" lon="11.1762527"><ele>352.0</ele><time>2026-04-04T08:58:47.509Z</time></trkpt><trkpt lat="43.1378734" lon="11.1763159"><ele>353.0</ele><time>2026-04-04T08:58:48.524Z</time></trkpt><trkpt lat="43.1377411" lon="11.1763084"><ele>353.0</ele><time>2026-04-04T08:58:49.517Z</time></trkpt><trkpt lat="43.1375971" lon="11.1762812"><ele>353.0</ele><time>2026-04-04T08:58:50.513Z</time></trkpt><trkpt lat="43.1374466" lon="11.1762248"><ele>353.0</ele><time>2026-04-04T08:58:51.523Z</time></trkpt><trkpt lat="43.1372799" lon="11.1761617"><ele>352.6666666666667</ele><time>2026-04-04T08:58:52.524Z</time></trkpt><trkpt lat="43.1371019" lon="11.1761072"><ele>352.3333333333333</ele><time>2026-04-04T08:58:53.523Z</time></trkpt><trkpt lat="43.1369313" lon="11.1760699"><ele>352.0</ele><time>2026-04-04T08:58:54.514Z</time></trkpt><trkpt lat="43.1367777" lon="11.1760333"><ele>352.0</ele><time>2026-04-04T08:58:55.514Z</time></trkpt><trkpt lat="43.1366212" lon="11.1760162"><ele>352.0</ele><time>2026-04-04T08:58:56.521Z</time></trkpt><trkpt lat="43.136454" lon="11.1760372"><ele>352.0</ele><time>2026-04-04T08:58:57.51Z</time></trkpt><trkpt lat="43.1362859" lon="11.1760716"><ele>352.66666666666663</ele><time>2026-04-04T08:58:58.507Z</time></trkpt><trkpt lat="43.1361143" lon="11.1761069"><ele>353.3333333333333</ele><time>2026-04-04T08:58:59.512Z</time></trkpt><trkpt lat="43.1359462" lon="11.1761508"><ele>354.0</ele><time>2026-04-04T08:59:00.513Z</time></trkpt><trkpt lat="43.1357778" lon="11.1761923"><ele>353.0</ele><time>2026-04-04T08:59:01.494Z</time></trkpt><trkpt lat="43.1356045" lon="11.1762486"><ele>352.0</ele><time>2026-04-04T08:59:02.502Z</time></trkpt><trkpt lat="43.1354451" lon="11.176304"><ele>351.0</ele><time>2026-04-04T08:59:03.505Z</time></trkpt><trkpt lat="43.1352964" lon="11.1763536"><ele>351.0</ele><time>2026-04-04T08:59:04.508Z</time></trkpt><trkpt lat="43.1351585" lon="11.1763605"><ele>351.0</ele><time>2026-04-04T08:59:05.515Z</time></trkpt><trkpt lat="43.1350317" lon="11.1763374"><ele>351.0</ele><time>2026-04-04T08:59:06.504Z</time></trkpt><trkpt lat="43.1349063" lon="11.1762581"><ele>351.0</ele><time>2026-04-04T08:59:07.513Z</time></trkpt><trkpt lat="43.1347655" lon="11.1761175"><ele>349.0</ele><time>2026-04-04T08:59:08.497Z</time></trkpt><trkpt lat="43.1345944" lon="11.1759344"><ele>347.0</ele><time>2026-04-04T08:59:09.51Z</time></trkpt><trkpt lat="43.1344257" lon="11.1757285"><ele>345.0</ele><time>2026-04-04T08:59:10.505Z</time></trkpt><trkpt lat="43.1342544" lon="11.1755178"><ele>345.0</ele><time>2026-04-04T08:59:11.515Z</time></trkpt><trkpt lat="43.1340793" lon="11.1753068"><ele>345.0</ele><time>2026-04-04T08:59:12.518Z</time></trkpt><trkpt lat="43.1339069" lon="11.175091"><ele>345.3333333333333</ele><time>2026-04-04T08:59:13.5Z</time></trkpt><trkpt lat="43.133735" lon="11.174903"><ele>345.66666666666663</ele><time>2026-04-04T08:59:14.513Z</time></trkpt><trkpt lat="43.1335716" lon="11.1747293"><ele>346.0</ele><time>2026-04-04T08:59:15.514Z</time></trkpt><trkpt lat="43.1333794" lon="11.1745801"><ele>347.5</ele><time>2026-04-04T08:59:16.509Z</time></trkpt><trkpt lat="43.1331632" lon="11.1744574"><ele>349.0</ele><time>2026-04-04T08:59:17.51Z</time></trkpt><trkpt lat="43.1329407" lon="11.1743485"><ele>349.0</ele><time>2026-04-04T08:59:18.509Z</time></trkpt><trkpt lat="43.1327226" lon="11.1742381"><ele>349.0</ele><time>2026-04-04T08:59:19.506Z</time></trkpt><trkpt lat="43.1325062" lon="11.1741276"><ele>347.5</ele><time>2026-04-04T08:59:20.512Z</time></trkpt><trkpt lat="43.1322912" lon="11.1740187"><ele>346.0</ele><time>2026-04-04T08:59:21.506Z</time></trkpt><trkpt lat="43.1320836" lon="11.1739147"><ele>346.0</ele><time>2026-04-04T08:59:22.518Z</time></trkpt><trkpt lat="43.1318692" lon="11.173832"><ele>346.0</ele><time>2026-04-04T08:59:23.514Z</time></trkpt><trkpt lat="43.1316563" lon="11.1737552"><ele>346.0</ele><time>2026-04-04T08:59:24.525Z</time></trkpt><trkpt lat="43.1314423" lon="11.1736747"><ele>349.3333333333333</ele><time>2026-04-04T08:59:25.516Z</time></trkpt><trkpt lat="43.1312282" lon="11.1735981"><ele>352.6666666666667</ele><time>2026-04-04T08:59:26.522Z</time></trkpt><trkpt lat="43.1310182" lon="11.1735135"><ele>356.0</ele><time>2026-04-04T08:59:27.512Z</time></trkpt><trkpt lat="43.1308109" lon="11.1734464"><ele>358.33333333333337</ele><time>2026-04-04T08:59:28.518Z</time></trkpt><trkpt lat="43.1306096" lon="11.1733871"><ele>360.6666666666667</ele><time>2026-04-04T08:59:29.504Z</time></trkpt><trkpt lat="43.1304158" lon="11.1733246"><ele>363.0</ele><time>2026-04-04T08:59:30.518Z</time></trkpt><trkpt lat="43.1302141" lon="11.1732718"><ele>363.0</ele><time>2026-04-04T08:59:31.513Z</time></trkpt><trkpt lat="43.1300192" lon="11.17322"><ele>363.0</ele><time>2026-04-04T08:59:32.524Z</time></trkpt><trkpt lat="43.1298271" lon="11.1731798"><ele>363.0</ele><time>2026-04-04T08:59:33.514Z</time></trkpt><trkpt lat="43.1296474" lon="11.1731617"><ele>358.6666666666667</ele><time>2026-04-04T08:59:34.511Z</time></trkpt><trkpt lat="43.1294718" lon="11.1731495"><ele>354.33333333333337</ele><time>2026-04-04T08:59:35.498Z</time></trkpt><trkpt lat="43.1293015" lon="11.1731342"><ele>350.0</ele><time>2026-04-04T08:59:36.507Z</time></trkpt><trkpt lat="43.1291501" lon="11.1731042"><ele>351.25</ele><time>2026-04-04T08:59:37.511Z</time></trkpt><trkpt lat="43.1290106" lon="11.1730657"><ele>352.5</ele><time>2026-04-04T08:59:38.515Z</time></trkpt><trkpt lat="43.1288872" lon="11.17307"><ele>353.75</ele><time>2026-04-04T08:59:39.529Z</time></trkpt><trkpt lat="43.1287804" lon="11.1731472"><ele>355.0</ele><time>2026-04-04T08:59:40.507Z</time></trkpt><trkpt lat="43.1286861" lon="11.1732843"><ele>357.0</ele><time>2026-04-04T08:59:41.523Z</time></trkpt><trkpt lat="43.1285997" lon="11.1734534"><ele>359.0</ele><time>2026-04-04T08:59:42.514Z</time></trkpt><trkpt lat="43.1285376" lon="11.1736357"><ele>361.0</ele><time>2026-04-04T08:59:43.513Z</time></trkpt><trkpt lat="43.1284824" lon="11.1738304"><ele>361.0</ele><time>2026-04-04T08:59:44.509Z</time></trkpt><trkpt lat="43.1284446" lon="11.1740165"><ele>361.0</ele><time>2026-04-04T08:59:45.517Z</time></trkpt><trkpt lat="43.1284206" lon="11.1742005"><ele>361.0</ele><time>2026-04-04T08:59:46.521Z</time></trkpt><trkpt lat="43.1283766" lon="11.1743666"><ele>361.0</ele><time>2026-04-04T08:59:47.511Z</time></trkpt><trkpt lat="43.1283029" lon="11.174511"><ele>361.5</ele><time>2026-04-04T08:59:48.498Z</time></trkpt><trkpt lat="43.1281938" lon="11.1745902"><ele>362.0</ele><time>2026-04-04T08:59:49.51Z</time></trkpt><trkpt lat="43.1280551" lon="11.1746106"><ele>362.5</ele><time>2026-04-04T08:59:50.516Z</time></trkpt><trkpt lat="43.1278944" lon="11.1745842"><ele>363.0</ele><time>2026-04-04T08:59:51.521Z</time></trkpt><trkpt lat="43.1277471" lon="11.174525"><ele>363.0</ele><time>2026-04-04T08:59:52.512Z</time></trkpt><trkpt lat="43.1275828" lon="11.1744928"><ele>363.0</ele><time>2026-04-04T08:59:53.516Z</time></trkpt><trkpt lat="43.1274191" lon="11.1745378"><ele>363.0</ele><time>2026-04-04T08:59:54.51Z</time></trkpt><trkpt lat="43.1272553" lon="11.174597"><ele>364.0</ele><time>2026-04-04T08:59:55.518Z</time></trkpt><trkpt lat="43.1271224" lon="11.1746176"><ele>365.0</ele><time>2026-04-04T08:59:56.519Z</time></trkpt><trkpt lat="43.1269847" lon="11.174555"><ele>366.0</ele><time>2026-04-04T08:59:57.517Z</time></trkpt><trkpt lat="43.1268387" lon="11.1744226"><ele>366.0</ele><time>2026-04-04T08:59:58.534Z</time></trkpt><trkpt lat="43.1266902" lon="11.1742789"><ele>366.0</ele><time>2026-04-04T08:59:59.518Z</time></trkpt><trkpt lat="43.1265443" lon="11.1741401"><ele>366.0</ele><time>2026-04-04T09:00:00.519Z</time></trkpt><trkpt lat="43.1263825" lon="11.1740222"><ele>368.6666666666667</ele><time>2026-04-04T09:00:01.515Z</time></trkpt><trkpt lat="43.1262142" lon="11.1739388"><ele>371.33333333333337</ele><time>2026-04-04T09:00:02.514Z</time></trkpt><trkpt lat="43.1260432" lon="11.1738841"><ele>374.0</ele><time>2026-04-04T09:00:03.515Z</time></trkpt><trkpt lat="43.1258632" lon="11.1738596"><ele>374.33333333333337</ele><time>2026-04-04T09:00:04.52Z</time></trkpt><trkpt lat="43.1256896" lon="11.1738619"><ele>374.6666666666667</ele><time>2026-04-04T09:00:05.523Z</time></trkpt><trkpt lat="43.1255244" lon="11.1738947"><ele>375.0</ele><time>2026-04-04T09:00:06.525Z</time></trkpt><trkpt lat="43.1253674" lon="11.1739709"><ele>374.3333333333333</ele><time>2026-04-04T09:00:07.518Z</time></trkpt><trkpt lat="43.1252094" lon="11.1740651"><ele>373.66666666666663</ele><time>2026-04-04T09:00:08.524Z</time></trkpt><trkpt lat="43.12506" lon="11.1741895"><ele>373.0</ele><time>2026-04-04T09:00:09.517Z</time></trkpt><trkpt lat="43.1249234" lon="11.1743356"><ele>373.0</ele><time>2026-04-04T09:00:10.517Z</time></trkpt><trkpt lat="43.1247965" lon="11.1745017"><ele>373.0</ele><time>2026-04-04T09:00:11.517Z</time></trkpt><trkpt lat="43.1246962" lon="11.1746869"><ele>373.0</ele><time>2026-04-04T09:00:12.516Z</time></trkpt><trkpt lat="43.1246034" lon="11.1748702"><ele>373.0</ele><time>2026-04-04T09:00:13.518Z</time></trkpt><trkpt lat="43.124515" lon="11.1750432"><ele>373.0</ele><time>2026-04-04T09:00:14.499Z</time></trkpt><trkpt lat="43.1244163" lon="11.1751892"><ele>373.0</ele><time>2026-04-04T09:00:15.523Z</time></trkpt><trkpt lat="43.1242867" lon="11.175301"><ele>373.0</ele><time>2026-04-04T09:00:16.516Z</time></trkpt><trkpt lat="43.124133" lon="11.1753478"><ele>373.0</ele><time>2026-04-04T09:00:17.522Z</time></trkpt><trkpt lat="43.1239773" lon="11.1753503"><ele>373.0</ele><time>2026-04-04T09:00:18.507Z</time></trkpt><trkpt lat="43.1238001" lon="11.17531"><ele>372.3333333333333</ele><time>2026-04-04T09:00:19.519Z</time></trkpt><trkpt lat="43.1236259" lon="11.1752098"><ele>371.6666666666667</ele><time>2026-04-04T09:00:20.517Z</time></trkpt><trkpt lat="43.1234617" lon="11.1751079"><ele>371.0</ele><time>2026-04-04T09:00:21.518Z</time></trkpt><trkpt lat="43.1233012" lon="11.1750224"><ele>369.33333333333337</ele><time>2026-04-04T09:00:22.511Z</time></trkpt><trkpt lat="43.1231405" lon="11.1749077"><ele>367.6666666666667</ele><time>2026-04-04T09:00:23.509Z</time></trkpt><trkpt lat="43.1229931" lon="11.174743"><ele>366.0</ele><time>2026-04-04T09:00:24.519Z</time></trkpt><trkpt lat="43.1228503" lon="11.1745501"><ele>366.0</ele><time>2026-04-04T09:00:25.522Z</time></trkpt><trkpt lat="43.1227119" lon="11.1743662"><ele>366.0</ele><time>2026-04-04T09:00:26.518Z</time></trkpt><trkpt lat="43.1225756" lon="11.1741551"><ele>366.0</ele><time>2026-04-04T09:00:27.521Z</time></trkpt><trkpt lat="43.1224523" lon="11.173907"><ele>361.0</ele><time>2026-04-04T09:00:28.518Z</time></trkpt><trkpt lat="43.1223371" lon="11.1736228"><ele>356.0</ele><time>2026-04-04T09:00:29.505Z</time></trkpt><trkpt lat="43.1222208" lon="11.1733424"><ele>357.6666666666667</ele><time>2026-04-04T09:00:30.518Z</time></trkpt><trkpt lat="43.1221133" lon="11.173082"><ele>359.3333333333333</ele><time>2026-04-04T09:00:31.515Z</time></trkpt><trkpt lat="43.1220133" lon="11.1728299"><ele>361.0</ele><time>2026-04-04T09:00:32.531Z</time></trkpt><trkpt lat="43.1219268" lon="11.172599"><ele>361.0</ele><time>2026-04-04T09:00:33.514Z</time></trkpt><trkpt lat="43.121825" lon="11.1724112"><ele>361.0</ele><time>2026-04-04T09:00:34.51Z</time></trkpt><trkpt lat="43.1216957" lon="11.1722764"><ele>361.0</ele><time>2026-04-04T09:00:35.526Z</time></trkpt><trkpt lat="43.1215373" lon="11.1721489"><ele>361.3333333333333</ele><time>2026-04-04T09:00:36.52Z</time></trkpt><trkpt lat="43.1213517" lon="11.172074"><ele>361.6666666666667</ele><time>2026-04-04T09:00:37.506Z</time></trkpt><trkpt lat="43.1211593" lon="11.1720198"><ele>362.0</ele><time>2026-04-04T09:00:38.511Z</time></trkpt><trkpt lat="43.1209535" lon="11.1719529"><ele>362.0</ele><time>2026-04-04T09:00:39.514Z</time></trkpt><trkpt lat="43.1207486" lon="11.1718849"><ele>362.0</ele><time>2026-04-04T09:00:40.508Z</time></trkpt><trkpt lat="43.1205626" lon="11.1717981"><ele>362.0</ele><time>2026-04-04T09:00:41.523Z</time></trkpt><trkpt lat="43.1203972" lon="11.1716853"><ele>362.33333333333337</ele><time>2026-04-04T09:00:42.53Z</time></trkpt><trkpt lat="43.120234" lon="11.1715578"><ele>362.6666666666667</ele><time>2026-04-04T09:00:43.507Z</time></trkpt><trkpt lat="43.1200988" lon="11.1714396"><ele>363.0</ele><time>2026-04-04T09:00:44.522Z</time></trkpt><trkpt lat="43.1199985" lon="11.1713051"><ele>363.3333333333333</ele><time>2026-04-04T09:00:45.519Z</time></trkpt><trkpt lat="43.1199416" lon="11.1711474"><ele>363.66666666666663</ele><time>2026-04-04T09:00:46.524Z</time></trkpt><trkpt lat="43.1199221" lon="11.1709231"><ele>364.0</ele><time>2026-04-04T09:00:47.515Z</time></trkpt><trkpt lat="43.1199151" lon="11.1706681"><ele>363.0</ele><time>2026-04-04T09:00:48.524Z</time></trkpt><trkpt lat="43.1198874" lon="11.1703978"><ele>362.0</ele><time>2026-04-04T09:00:49.505Z</time></trkpt><trkpt lat="43.1198443" lon="11.1701432"><ele>361.0</ele><time>2026-04-04T09:00:50.524Z</time></trkpt><trkpt lat="43.1198" lon="11.1699112"><ele>362.25</ele><time>2026-04-04T09:00:51.509Z</time></trkpt><trkpt lat="43.1197574" lon="11.1697103"><ele>363.5</ele><time>2026-04-04T09:00:52.516Z</time></trkpt><trkpt lat="43.119695" lon="11.1695398"><ele>364.75</ele><time>2026-04-04T09:00:53.514Z</time></trkpt><trkpt lat="43.1196076" lon="11.1694034"><ele>366.0</ele><time>2026-04-04T09:00:54.514Z</time></trkpt><trkpt lat="43.1194799" lon="11.169315"><ele>366.0</ele><time>2026-04-04T09:00:55.504Z</time></trkpt><trkpt lat="43.1193291" lon="11.169257"><ele>366.0</ele><time>2026-04-04T09:00:56.522Z</time></trkpt><trkpt lat="43.1191687" lon="11.169265"><ele>366.0</ele><time>2026-04-04T09:00:57.533Z</time></trkpt><trkpt lat="43.1190145" lon="11.1693269"><ele>368.0</ele><time>2026-04-04T09:00:58.522Z</time></trkpt><trkpt lat="43.1188564" lon="11.1694288"><ele>370.0</ele><time>2026-04-04T09:00:59.508Z</time></trkpt><trkpt lat="43.1187018" lon="11.1695324"><ele>372.0</ele><time>2026-04-04T09:01:00.537Z</time></trkpt><trkpt lat="43.1185421" lon="11.1696199"><ele>372.0</ele><time>2026-04-04T09:01:01.515Z</time></trkpt><trkpt lat="43.11837" lon="11.169679"><ele>372.0</ele><time>2026-04-04T09:01:02.512Z</time></trkpt><trkpt lat="43.1182012" lon="11.1696975"><ele>372.0</ele><time>2026-04-04T09:01:03.525Z</time></trkpt><trkpt lat="43.1180311" lon="11.1696955"><ele>375.0</ele><time>2026-04-04T09:01:04.522Z</time></trkpt><trkpt lat="43.1178601" lon="11.1697016"><ele>378.0</ele><time>2026-04-04T09:01:05.52Z</time></trkpt><trkpt lat="43.1177087" lon="11.1697337"><ele>381.0</ele><time>2026-04-04T09:01:06.508Z</time></trkpt><trkpt lat="43.1175625" lon="11.1698175"><ele>380.0</ele><time>2026-04-04T09:01:07.507Z</time></trkpt><trkpt lat="43.1174432" lon="11.1699651"><ele>379.0</ele><time>2026-04-04T09:01:08.511Z</time></trkpt><trkpt lat="43.1173341" lon="11.1701244"><ele>378.0</ele><time>2026-04-04T09:01:09.51Z</time></trkpt><trkpt lat="43.1172401" lon="11.1702621"><ele>378.0</ele><time>2026-04-04T09:01:10.529Z</time></trkpt><trkpt lat="43.1171376" lon="11.1703609"><ele>378.0</ele><time>2026-04-04T09:01:11.523Z</time></trkpt><trkpt lat="43.1170098" lon="11.1703857"><ele>378.0</ele><time>2026-04-04T09:01:12.524Z</time></trkpt><trkpt lat="43.1168777" lon="11.1702822"><ele>378.0</ele><time>2026-04-04T09:01:13.508Z</time></trkpt><trkpt lat="43.1167418" lon="11.170145"><ele>378.0</ele><time>2026-04-04T09:01:14.54Z</time></trkpt><trkpt lat="43.116589" lon="11.1700126"><ele>378.0</ele><time>2026-04-04T09:01:15.519Z</time></trkpt><trkpt lat="43.1164373" lon="11.1698666"><ele>378.0</ele><time>2026-04-04T09:01:16.517Z</time></trkpt><trkpt lat="43.1162887" lon="11.1697138"><ele>378.0</ele><time>2026-04-04T09:01:17.518Z</time></trkpt><trkpt lat="43.1161378" lon="11.1695564"><ele>378.0</ele><time>2026-04-04T09:01:18.522Z</time></trkpt><trkpt lat="43.1160052" lon="11.1693823"><ele>378.0</ele><time>2026-04-04T09:01:19.524Z</time></trkpt><trkpt lat="43.1159" lon="11.1691788"><ele>377.0</ele><time>2026-04-04T09:01:20.515Z</time></trkpt><trkpt lat="43.1158249" lon="11.1689937"><ele>376.0</ele><time>2026-04-04T09:01:21.505Z</time></trkpt><trkpt lat="43.1157577" lon="11.1688213"><ele>375.0</ele><time>2026-04-04T09:01:22.525Z</time></trkpt><trkpt lat="43.1156907" lon="11.1686367"><ele>374.0</ele><time>2026-04-04T09:01:23.502Z</time></trkpt><trkpt lat="43.1156312" lon="11.1684154"><ele>374.6666666666667</ele><time>2026-04-04T09:01:24.525Z</time></trkpt><trkpt lat="43.1155816" lon="11.1681873"><ele>375.3333333333333</ele><time>2026-04-04T09:01:25.505Z</time></trkpt><trkpt lat="43.1155124" lon="11.1679655"><ele>376.0</ele><time>2026-04-04T09:01:26.518Z</time></trkpt><trkpt lat="43.115416" lon="11.1677688"><ele>376.0</ele><time>2026-04-04T09:01:27.513Z</time></trkpt><trkpt lat="43.1153056" lon="11.167579"><ele>376.0</ele><time>2026-04-04T09:01:28.509Z</time></trkpt><trkpt lat="43.1152116" lon="11.1673817"><ele>376.0</ele><time>2026-04-04T09:01:29.501Z</time></trkpt><trkpt lat="43.1151519" lon="11.1671417"><ele>376.0</ele><time>2026-04-04T09:01:30.512Z</time></trkpt><trkpt lat="43.115115" lon="11.1669192"><ele>376.0</ele><time>2026-04-04T09:01:31.515Z</time></trkpt><trkpt lat="43.1150788" lon="11.1667211"><ele>376.0</ele><time>2026-04-04T09:01:32.502Z</time></trkpt><trkpt lat="43.1150686" lon="11.1665214"><ele>376.0</ele><time>2026-04-04T09:01:33.523Z</time></trkpt><trkpt lat="43.1150907" lon="11.1663194"><ele>376.0</ele><time>2026-04-04T09:01:34.514Z</time></trkpt><trkpt lat="43.1151655" lon="11.1661241"><ele>376.0</ele><time>2026-04-04T09:01:35.504Z</time></trkpt><trkpt lat="43.1152813" lon="11.1659499"><ele>376.0</ele><time>2026-04-04T09:01:36.508Z</time></trkpt><trkpt lat="43.1153924" lon="11.1657753"><ele>376.0</ele><time>2026-04-04T09:01:37.512Z</time></trkpt><trkpt lat="43.1155056" lon="11.1655845"><ele>376.0</ele><time>2026-04-04T09:01:38.51Z</time></trkpt><trkpt lat="43.1156161" lon="11.1653838"><ele>377.3333333333333</ele><time>2026-04-04T09:01:39.511Z</time></trkpt><trkpt lat="43.1157062" lon="11.1651654"><ele>378.6666666666667</ele><time>2026-04-04T09:01:40.509Z</time></trkpt><trkpt lat="43.1157938" lon="11.1649137"><ele>380.0</ele><time>2026-04-04T09:01:41.513Z</time></trkpt><trkpt lat="43.1158759" lon="11.1646526"><ele>380.0</ele><time>2026-04-04T09:01:42.502Z</time></trkpt><trkpt lat="43.1159539" lon="11.1643907"><ele>380.0</ele><time>2026-04-04T09:01:43.513Z</time></trkpt><trkpt lat="43.1160334" lon="11.1641355"><ele>380.0</ele><time>2026-04-04T09:01:44.514Z</time></trkpt><trkpt lat="43.116099" lon="11.1638747"><ele>379.0</ele><time>2026-04-04T09:01:45.516Z</time></trkpt><trkpt lat="43.1161461" lon="11.1636105"><ele>378.0</ele><time>2026-04-04T09:01:46.516Z</time></trkpt><trkpt lat="43.1161827" lon="11.1633522"><ele>377.0</ele><time>2026-04-04T09:01:47.515Z</time></trkpt><trkpt lat="43.1162238" lon="11.1631102"><ele>376.0</ele><time>2026-04-04T09:01:48.531Z</time></trkpt><trkpt lat="43.1162874" lon="11.1629049"><ele>375.0</ele><time>2026-04-04T09:01:49.515Z</time></trkpt><trkpt lat="43.1163538" lon="11.1627054"><ele>374.0</ele><time>2026-04-04T09:01:50.502Z</time></trkpt><trkpt lat="43.1163852" lon="11.1624833"><ele>374.33333333333337</ele><time>2026-04-04T09:01:51.522Z</time></trkpt><trkpt lat="43.1163814" lon="11.1622363"><ele>374.6666666666667</ele><time>2026-04-04T09:01:52.51Z</time></trkpt><trkpt lat="43.1163375" lon="11.1619753"><ele>375.0</ele><time>2026-04-04T09:01:53.512Z</time></trkpt><trkpt lat="43.1162897" lon="11.1617047"><ele>376.3333333333333</ele><time>2026-04-04T09:01:54.507Z</time></trkpt><trkpt lat="43.116251" lon="11.1614197"><ele>377.66666666666663</ele><time>2026-04-04T09:01:55.504Z</time></trkpt><trkpt lat="43.1162186" lon="11.1611243"><ele>379.0</ele><time>2026-04-04T09:01:56.514Z</time></trkpt><trkpt lat="43.1161813" lon="11.1608497"><ele>381.3333333333333</ele><time>2026-04-04T09:01:57.509Z</time></trkpt><trkpt lat="43.1161463" lon="11.1605878"><ele>383.66666666666663</ele><time>2026-04-04T09:01:58.51Z</time></trkpt><trkpt lat="43.116116" lon="11.1603529"><ele>386.0</ele><time>2026-04-04T09:01:59.507Z</time></trkpt><trkpt lat="43.1160794" lon="11.160139"><ele>386.0</ele><time>2026-04-04T09:02:00.506Z</time></trkpt><trkpt lat="43.1160091" lon="11.1599473"><ele>386.0</ele><time>2026-04-04T09:02:01.506Z</time></trkpt><trkpt lat="43.1159047" lon="11.1597484"><ele>386.0</ele><time>2026-04-04T09:02:02.51Z</time></trkpt><trkpt lat="43.1157682" lon="11.1595683"><ele>387.3333333333333</ele><time>2026-04-04T09:02:03.504Z</time></trkpt><trkpt lat="43.1156247" lon="11.1593843"><ele>388.66666666666663</ele><time>2026-04-04T09:02:04.498Z</time></trkpt><trkpt lat="43.1154968" lon="11.1591988"><ele>390.0</ele><time>2026-04-04T09:02:05.508Z</time></trkpt><trkpt lat="43.1153715" lon="11.1590184"><ele>390.0</ele><time>2026-04-04T09:02:06.501Z</time></trkpt><trkpt lat="43.1152406" lon="11.1588611"><ele>390.0</ele><time>2026-04-04T09:02:07.521Z</time></trkpt><trkpt lat="43.1150976" lon="11.1587578"><ele>390.0</ele><time>2026-04-04T09:02:08.511Z</time></trkpt><trkpt lat="43.1149296" lon="11.1586766"><ele>391.0</ele><time>2026-04-04T09:02:09.511Z</time></trkpt><trkpt lat="43.114752" lon="11.1586534"><ele>392.0</ele><time>2026-04-04T09:02:10.51Z</time></trkpt><trkpt lat="43.114569" lon="11.1586541"><ele>393.0</ele><time>2026-04-04T09:02:11.51Z</time></trkpt><trkpt lat="43.1143817" lon="11.1586688"><ele>393.0</ele><time>2026-04-04T09:02:12.51Z</time></trkpt><trkpt lat="43.1141859" lon="11.1586813"><ele>393.0</ele><time>2026-04-04T09:02:13.515Z</time></trkpt><trkpt lat="43.1139888" lon="11.1586829"><ele>393.0</ele><time>2026-04-04T09:02:14.508Z</time></trkpt><trkpt lat="43.1137922" lon="11.1586798"><ele>392.66666666666663</ele><time>2026-04-04T09:02:15.51Z</time></trkpt><trkpt lat="43.1135974" lon="11.1587021"><ele>392.3333333333333</ele><time>2026-04-04T09:02:16.505Z</time></trkpt><trkpt lat="43.1133952" lon="11.1587035"><ele>392.0</ele><time>2026-04-04T09:02:17.5Z</time></trkpt><trkpt lat="43.1132046" lon="11.1586842"><ele>392.0</ele><time>2026-04-04T09:02:18.512Z</time></trkpt><trkpt lat="43.1130144" lon="11.1586474"><ele>392.0</ele><time>2026-04-04T09:02:19.519Z</time></trkpt><trkpt lat="43.1128328" lon="11.1586137"><ele>392.0</ele><time>2026-04-04T09:02:20.513Z</time></trkpt><trkpt lat="43.1126605" lon="11.158585"><ele>392.0</ele><time>2026-04-04T09:02:21.511Z</time></trkpt><trkpt lat="43.1125029" lon="11.1585744"><ele>392.0</ele><time>2026-04-04T09:02:22.503Z</time></trkpt><trkpt lat="43.1123561" lon="11.1585531"><ele>392.0</ele><time>2026-04-04T09:02:23.51Z</time></trkpt><trkpt lat="43.1122251" lon="11.1584792"><ele>392.0</ele><time>2026-04-04T09:02:24.496Z</time></trkpt><trkpt lat="43.1121054" lon="11.1583496"><ele>390.75</ele><time>2026-04-04T09:02:25.493Z</time></trkpt><trkpt lat="43.1120095" lon="11.1582118"><ele>389.5</ele><time>2026-04-04T09:02:26.497Z</time></trkpt><trkpt lat="43.1119384" lon="11.1580645"><ele>388.25</ele><time>2026-04-04T09:02:27.493Z</time></trkpt><trkpt lat="43.1118875" lon="11.1578917"><ele>387.0</ele><time>2026-04-04T09:02:28.509Z</time></trkpt><trkpt lat="43.1118786" lon="11.1576963"><ele>387.0</ele><time>2026-04-04T09:02:29.498Z</time></trkpt><trkpt lat="43.1119023" lon="11.1574863"><ele>387.0</ele><time>2026-04-04T09:02:30.508Z</time></trkpt><trkpt lat="43.1119534" lon="11.1572678"><ele>387.0</ele><time>2026-04-04T09:02:31.509Z</time></trkpt><trkpt lat="43.1120055" lon="11.157048"><ele>387.33333333333337</ele><time>2026-04-04T09:02:32.514Z</time></trkpt><trkpt lat="43.1120873" lon="11.1568176"><ele>387.6666666666667</ele><time>2026-04-04T09:02:33.516Z</time></trkpt><trkpt lat="43.1121556" lon="11.156564"><ele>388.0</ele><time>2026-04-04T09:02:34.512Z</time></trkpt><trkpt lat="43.1122315" lon="11.1563088"><ele>389.33333333333337</ele><time>2026-04-04T09:02:35.51Z</time></trkpt><trkpt lat="43.1123015" lon="11.156074"><ele>390.66666666666663</ele><time>2026-04-04T09:02:36.525Z</time></trkpt><trkpt lat="43.1123596" lon="11.1558405"><ele>392.0</ele><time>2026-04-04T09:02:37.509Z</time></trkpt><trkpt lat="43.1123971" lon="11.1556203"><ele>392.3333333333333</ele><time>2026-04-04T09:02:38.516Z</time></trkpt><trkpt lat="43.1124149" lon="11.1553966"><ele>392.66666666666663</ele><time>2026-04-04T09:02:39.504Z</time></trkpt><trkpt lat="43.1123947" lon="11.1551821"><ele>393.0</ele><time>2026-04-04T09:02:40.5Z</time></trkpt><trkpt lat="43.1123405" lon="11.1549511"><ele>395.0</ele><time>2026-04-04T09:02:41.508Z</time></trkpt><trkpt lat="43.112227" lon="11.1547111"><ele>397.0</ele><time>2026-04-04T09:02:42.506Z</time></trkpt><trkpt lat="43.1121042" lon="11.1544555"><ele>399.0</ele><time>2026-04-04T09:02:43.503Z</time></trkpt><trkpt lat="43.1119935" lon="11.1542234"><ele>401.33333333333337</ele><time>2026-04-04T09:02:44.499Z</time></trkpt><trkpt lat="43.1119035" lon="11.1539989"><ele>403.6666666666667</ele><time>2026-04-04T09:02:45.496Z</time></trkpt><trkpt lat="43.1118237" lon="11.153768"><ele>406.0</ele><time>2026-04-04T09:02:46.509Z</time></trkpt><trkpt lat="43.1117555" lon="11.1535164"><ele>406.0</ele><time>2026-04-04T09:02:47.509Z</time></trkpt><trkpt lat="43.1117247" lon="11.1532387"><ele>406.0</ele><time>2026-04-04T09:02:48.508Z</time></trkpt><trkpt lat="43.1117148" lon="11.1529328"><ele>406.0</ele><time>2026-04-04T09:02:49.504Z</time></trkpt><trkpt lat="43.1117107" lon="11.1526169"><ele>408.0</ele><time>2026-04-04T09:02:50.512Z</time></trkpt><trkpt lat="43.1117008" lon="11.1522911"><ele>410.0</ele><time>2026-04-04T09:02:51.52Z</time></trkpt><trkpt lat="43.1116855" lon="11.1519495"><ele>410.0</ele><time>2026-04-04T09:02:52.513Z</time></trkpt><trkpt lat="43.1116703" lon="11.1516126"><ele>410.0</ele><time>2026-04-04T09:02:53.513Z</time></trkpt><trkpt lat="43.1116676" lon="11.1512749"><ele>411.0</ele><time>2026-04-04T09:02:54.512Z</time></trkpt><trkpt lat="43.1116808" lon="11.1509516"><ele>412.0</ele><time>2026-04-04T09:02:55.505Z</time></trkpt><trkpt lat="43.1116986" lon="11.1506461"><ele>413.33333333333337</ele><time>2026-04-04T09:02:56.501Z</time></trkpt><trkpt lat="43.1117133" lon="11.1503629"><ele>414.66666666666663</ele><time>2026-04-04T09:02:57.498Z</time></trkpt><trkpt lat="43.1117253" lon="11.1500937"><ele>416.0</ele><time>2026-04-04T09:02:58.502Z</time></trkpt><trkpt lat="43.1117394" lon="11.149834"><ele>418.3333333333333</ele><time>2026-04-04T09:02:59.508Z</time></trkpt><trkpt lat="43.1117687" lon="11.149582"><ele>420.66666666666663</ele><time>2026-04-04T09:03:00.514Z</time></trkpt><trkpt lat="43.1118253" lon="11.1493155"><ele>423.0</ele><time>2026-04-04T09:03:01.522Z</time></trkpt><trkpt lat="43.1118945" lon="11.1490593"><ele>427.33333333333337</ele><time>2026-04-04T09:03:02.509Z</time></trkpt><trkpt lat="43.1119473" lon="11.1487921"><ele>431.6666666666667</ele><time>2026-04-04T09:03:03.502Z</time></trkpt><trkpt lat="43.1120024" lon="11.1485121"><ele>436.0</ele><time>2026-04-04T09:03:04.516Z</time></trkpt><trkpt lat="43.1120525" lon="11.1482399"><ele>437.0</ele><time>2026-04-04T09:03:05.51Z</time></trkpt><trkpt lat="43.1120984" lon="11.1479725"><ele>438.0</ele><time>2026-04-04T09:03:06.507Z</time></trkpt><trkpt lat="43.1121432" lon="11.1477231"><ele>439.0</ele><time>2026-04-04T09:03:07.519Z</time></trkpt><trkpt lat="43.1121646" lon="11.1474799"><ele>435.5</ele><time>2026-04-04T09:03:08.504Z</time></trkpt><trkpt lat="43.1121659" lon="11.147282"><ele>432.0</ele><time>2026-04-04T09:03:09.512Z</time></trkpt><trkpt lat="43.1121491" lon="11.1470985"><ele>428.5</ele><time>2026-04-04T09:03:10.503Z</time></trkpt><trkpt lat="43.1121017" lon="11.1469458"><ele>425.0</ele><time>2026-04-04T09:03:11.516Z</time></trkpt><trkpt lat="43.1120195" lon="11.1468161"><ele>425.0</ele><time>2026-04-04T09:03:12.503Z</time></trkpt><trkpt lat="43.1119012" lon="11.1467232"><ele>425.0</ele><time>2026-04-04T09:03:13.515Z</time></trkpt><trkpt lat="43.111762" lon="11.1466517"><ele>425.0</ele><time>2026-04-04T09:03:14.516Z</time></trkpt><trkpt lat="43.1115919" lon="11.1466082"><ele>426.3333333333333</ele><time>2026-04-04T09:03:15.51Z</time></trkpt><trkpt lat="43.1114204" lon="11.1466247"><ele>427.66666666666663</ele><time>2026-04-04T09:03:16.508Z</time></trkpt><trkpt lat="43.1112374" lon="11.1466483"><ele>429.0</ele><time>2026-04-04T09:03:17.501Z</time></trkpt><trkpt lat="43.111049" lon="11.1466702"><ele>429.0</ele><time>2026-04-04T09:03:18.516Z</time></trkpt><trkpt lat="43.1108503" lon="11.1466913"><ele>429.0</ele><time>2026-04-04T09:03:19.509Z</time></trkpt><trkpt lat="43.1106521" lon="11.1467222"><ele>429.0</ele><time>2026-04-04T09:03:20.504Z</time></trkpt><trkpt lat="43.1104703" lon="11.146765"><ele>427.33333333333337</ele><time>2026-04-04T09:03:21.52Z</time></trkpt><trkpt lat="43.1102963" lon="11.1468213"><ele>425.6666666666667</ele><time>2026-04-04T09:03:22.497Z</time></trkpt><trkpt lat="43.1101292" lon="11.146865"><ele>424.0</ele><time>2026-04-04T09:03:23.515Z</time></trkpt><trkpt lat="43.109953" lon="11.146885"><ele>423.0</ele><time>2026-04-04T09:03:24.51Z</time></trkpt><trkpt lat="43.1097818" lon="11.1468793"><ele>422.0</ele><time>2026-04-04T09:03:25.509Z</time></trkpt><trkpt lat="43.1096232" lon="11.1468777"><ele>421.0</ele><time>2026-04-04T09:03:26.511Z</time></trkpt><trkpt lat="43.1094813" lon="11.1469036"><ele>421.0</ele><time>2026-04-04T09:03:27.517Z</time></trkpt><trkpt lat="43.1093485" lon="11.146919"><ele>421.0</ele><time>2026-04-04T09:03:28.514Z</time></trkpt><trkpt lat="43.1092176" lon="11.1469197"><ele>421.0</ele><time>2026-04-04T09:03:29.495Z</time></trkpt><trkpt lat="43.1090969" lon="11.1468592"><ele>421.0</ele><time>2026-04-04T09:03:30.515Z</time></trkpt><trkpt lat="43.1089603" lon="11.1467253"><ele>422.0</ele><time>2026-04-04T09:03:31.519Z</time></trkpt><trkpt lat="43.1088216" lon="11.1465899"><ele>423.0</ele><time>2026-04-04T09:03:32.502Z</time></trkpt><trkpt lat="43.1086972" lon="11.1465013"><ele>424.0</ele><time>2026-04-04T09:03:33.529Z</time></trkpt><trkpt lat="43.108589" lon="11.1464086"><ele>425.0</ele><time>2026-04-04T09:03:34.514Z</time></trkpt><trkpt lat="43.1085264" lon="11.1463082"><ele>425.0</ele><time>2026-04-04T09:03:35.497Z</time></trkpt><trkpt lat="43.1084948" lon="11.1461854"><ele>425.0</ele><time>2026-04-04T09:03:36.505Z</time></trkpt><trkpt lat="43.108503" lon="11.1460057"><ele>425.0</ele><time>2026-04-04T09:03:37.505Z</time></trkpt><trkpt lat="43.1085408" lon="11.1458257"><ele>425.0</ele><time>2026-04-04T09:03:38.507Z</time></trkpt><trkpt lat="43.1085871" lon="11.1456315"><ele>422.3333333333333</ele><time>2026-04-04T09:03:39.509Z</time></trkpt><trkpt lat="43.108619" lon="11.1454433"><ele>419.66666666666663</ele><time>2026-04-04T09:03:40.509Z</time></trkpt><trkpt lat="43.1086072" lon="11.145248"><ele>417.0</ele><time>2026-04-04T09:03:41.498Z</time></trkpt><trkpt lat="43.1085391" lon="11.1450271"><ele>412.33333333333337</ele><time>2026-04-04T09:03:42.516Z</time></trkpt><trkpt lat="43.1084614" lon="11.1448101"><ele>407.6666666666667</ele><time>2026-04-04T09:03:43.503Z</time></trkpt><trkpt lat="43.108386" lon="11.144612"><ele>403.0</ele><time>2026-04-04T09:03:44.502Z</time></trkpt><trkpt lat="43.1083012" lon="11.1444526"><ele>404.0</ele><time>2026-04-04T09:03:45.522Z</time></trkpt><trkpt lat="43.1081716" lon="11.1443289"><ele>405.0</ele><time>2026-04-04T09:03:46.519Z</time></trkpt><trkpt lat="43.1080227" lon="11.1442567"><ele>406.0</ele><time>2026-04-04T09:03:47.514Z</time></trkpt><trkpt lat="43.1078475" lon="11.1442433"><ele>406.0</ele><time>2026-04-04T09:03:48.513Z</time></trkpt><trkpt lat="43.1076662" lon="11.1443017"><ele>406.0</ele><time>2026-04-04T09:03:49.501Z</time></trkpt><trkpt lat="43.1075062" lon="11.1443884"><ele>406.0</ele><time>2026-04-04T09:03:50.512Z</time></trkpt><trkpt lat="43.1073218" lon="11.1444798"><ele>403.6666666666667</ele><time>2026-04-04T09:03:51.517Z</time></trkpt><trkpt lat="43.1071498" lon="11.1445826"><ele>401.33333333333337</ele><time>2026-04-04T09:03:52.509Z</time></trkpt><trkpt lat="43.1069856" lon="11.1446609"><ele>399.0</ele><time>2026-04-04T09:03:53.507Z</time></trkpt><trkpt lat="43.1068234" lon="11.1447152"><ele>399.0</ele><time>2026-04-04T09:03:54.515Z</time></trkpt><trkpt lat="43.1066629" lon="11.1447254"><ele>399.0</ele><time>2026-04-04T09:03:55.504Z</time></trkpt><trkpt lat="43.1065163" lon="11.1447034"><ele>399.0</ele><time>2026-04-04T09:03:56.508Z</time></trkpt><trkpt lat="43.1063662" lon="11.1446697"><ele>398.0</ele><time>2026-04-04T09:03:57.506Z</time></trkpt><trkpt lat="43.1062081" lon="11.144613"><ele>397.0</ele><time>2026-04-04T09:03:58.507Z</time></trkpt><trkpt lat="43.1060687" lon="11.1445149"><ele>396.0</ele><time>2026-04-04T09:03:59.507Z</time></trkpt><trkpt lat="43.1059641" lon="11.1443893"><ele>396.0</ele><time>2026-04-04T09:04:00.505Z</time></trkpt><trkpt lat="43.1058778" lon="11.1442876"><ele>396.0</ele><time>2026-04-04T09:04:01.508Z</time></trkpt><trkpt lat="43.1057693" lon="11.144261"><ele>396.0</ele><time>2026-04-04T09:04:02.506Z</time></trkpt><trkpt lat="43.1056506" lon="11.1443205"><ele>396.0</ele><time>2026-04-04T09:04:03.507Z</time></trkpt><trkpt lat="43.1055232" lon="11.1444236"><ele>395.75</ele><time>2026-04-04T09:04:04.508Z</time></trkpt><trkpt lat="43.1054035" lon="11.1445295"><ele>395.5</ele><time>2026-04-04T09:04:05.51Z</time></trkpt><trkpt lat="43.1052992" lon="11.1446129"><ele>395.25</ele><time>2026-04-04T09:04:06.51Z</time></trkpt><trkpt lat="43.1052101" lon="11.1446641"><ele>395.0</ele><time>2026-04-04T09:04:07.496Z</time></trkpt><trkpt lat="43.1051077" lon="11.1446731"><ele>395.0</ele><time>2026-04-04T09:04:08.516Z</time></trkpt><trkpt lat="43.1050213" lon="11.1446201"><ele>395.0</ele><time>2026-04-04T09:04:09.508Z</time></trkpt><trkpt lat="43.1049732" lon="11.144522"><ele>395.0</ele><time>2026-04-04T09:04:10.51Z</time></trkpt><trkpt lat="43.1049462" lon="11.1443805"><ele>395.0</ele><time>2026-04-04T09:04:11.506Z</time></trkpt><trkpt lat="43.1049521" lon="11.1441912"><ele>395.0</ele><time>2026-04-04T09:04:12.504Z</time></trkpt><trkpt lat="43.1049817" lon="11.143974"><ele>394.66666666666663</ele><time>2026-04-04T09:04:13.506Z</time></trkpt><trkpt lat="43.1050223" lon="11.1437647"><ele>394.33333333333337</ele><time>2026-04-04T09:04:14.493Z</time></trkpt><trkpt lat="43.1050522" lon="11.1435589"><ele>394.0</ele><time>2026-04-04T09:04:15.51Z</time></trkpt><trkpt lat="43.1050746" lon="11.14337"><ele>393.75</ele><time>2026-04-04T09:04:16.511Z</time></trkpt><trkpt lat="43.1050736" lon="11.1431946"><ele>393.5</ele><time>2026-04-04T09:04:17.51Z</time></trkpt><trkpt lat="43.1050231" lon="11.1430357"><ele>393.25</ele><time>2026-04-04T09:04:18.506Z</time></trkpt><trkpt lat="43.1049298" lon="11.1429101"><ele>393.0</ele><time>2026-04-04T09:04:19.514Z</time></trkpt><trkpt lat="43.1048071" lon="11.1427966"><ele>395.0</ele><time>2026-04-04T09:04:20.493Z</time></trkpt><trkpt lat="43.1046676" lon="11.1427082"><ele>397.0</ele><time>2026-04-04T09:04:21.516Z</time></trkpt><trkpt lat="43.1045073" lon="11.142657"><ele>399.0</ele><time>2026-04-04T09:04:22.522Z</time></trkpt><trkpt lat="43.1043231" lon="11.1426419"><ele>399.0</ele><time>2026-04-04T09:04:23.509Z</time></trkpt><trkpt lat="43.1041278" lon="11.1426328"><ele>399.0</ele><time>2026-04-04T09:04:24.522Z</time></trkpt><trkpt lat="43.1039425" lon="11.1426162"><ele>399.0</ele><time>2026-04-04T09:04:25.508Z</time></trkpt><trkpt lat="43.1037685" lon="11.1425936"><ele>399.0</ele><time>2026-04-04T09:04:26.514Z</time></trkpt><trkpt lat="43.103599" lon="11.1425892"><ele>399.0</ele><time>2026-04-04T09:04:27.507Z</time></trkpt><trkpt lat="43.1034408" lon="11.1426134"><ele>399.0</ele><time>2026-04-04T09:04:28.5Z</time></trkpt><trkpt lat="43.1032899" lon="11.1426841"><ele>398.5</ele><time>2026-04-04T09:04:29.503Z</time></trkpt><trkpt lat="43.1031622" lon="11.1427784"><ele>398.0</ele><time>2026-04-04T09:04:30.501Z</time></trkpt><trkpt lat="43.1030334" lon="11.142863"><ele>397.5</ele><time>2026-04-04T09:04:31.51Z</time></trkpt><trkpt lat="43.1029073" lon="11.1429024"><ele>397.0</ele><time>2026-04-04T09:04:32.511Z</time></trkpt><trkpt lat="43.102747" lon="11.1428587"><ele>397.0</ele><time>2026-04-04T09:04:33.513Z</time></trkpt><trkpt lat="43.1025674" lon="11.1427873"><ele>397.0</ele><time>2026-04-04T09:04:34.509Z</time></trkpt><trkpt lat="43.102368" lon="11.1427234"><ele>397.0</ele><time>2026-04-04T09:04:35.503Z</time></trkpt><trkpt lat="43.1021748" lon="11.142664"><ele>395.6666666666667</ele><time>2026-04-04T09:04:36.501Z</time></trkpt><trkpt lat="43.1019872" lon="11.142639"><ele>394.33333333333337</ele><time>2026-04-04T09:04:37.505Z</time></trkpt><trkpt lat="43.1018216" lon="11.1426355"><ele>393.0</ele><time>2026-04-04T09:04:38.507Z</time></trkpt><trkpt lat="43.1016499" lon="11.1427083"><ele>392.66666666666663</ele><time>2026-04-04T09:04:39.515Z</time></trkpt><trkpt lat="43.1014819" lon="11.1428333"><ele>392.3333333333333</ele><time>2026-04-04T09:04:40.51Z</time></trkpt><trkpt lat="43.1013291" lon="11.1429846"><ele>392.0</ele><time>2026-04-04T09:04:41.525Z</time></trkpt><trkpt lat="43.1011711" lon="11.1431198"><ele>393.3333333333333</ele><time>2026-04-04T09:04:42.505Z</time></trkpt><trkpt lat="43.1009981" lon="11.1432166"><ele>394.66666666666663</ele><time>2026-04-04T09:04:43.499Z</time></trkpt><trkpt lat="43.1008242" lon="11.1432876"><ele>396.0</ele><time>2026-04-04T09:04:44.51Z</time></trkpt><trkpt lat="43.1006519" lon="11.1433362"><ele>396.0</ele><time>2026-04-04T09:04:45.509Z</time></trkpt><trkpt lat="43.1004802" lon="11.1433464"><ele>396.0</ele><time>2026-04-04T09:04:46.513Z</time></trkpt><trkpt lat="43.1003345" lon="11.1433265"><ele>396.0</ele><time>2026-04-04T09:04:47.508Z</time></trkpt><trkpt lat="43.1002085" lon="11.143269"><ele>397.25</ele><time>2026-04-04T09:04:48.515Z</time></trkpt><trkpt lat="43.1001057" lon="11.1431851"><ele>398.5</ele><time>2026-04-04T09:04:49.508Z</time></trkpt><trkpt lat="43.1000477" lon="11.1430676"><ele>399.75</ele><time>2026-04-04T09:04:50.521Z</time></trkpt><trkpt lat="43.1000355" lon="11.1429328"><ele>401.0</ele><time>2026-04-04T09:04:51.498Z</time></trkpt><trkpt lat="43.1000756" lon="11.1427606"><ele>401.0</ele><time>2026-04-04T09:04:52.505Z</time></trkpt><trkpt lat="43.1001494" lon="11.1425867"><ele>401.0</ele><time>2026-04-04T09:04:53.519Z</time></trkpt><trkpt lat="43.1002598" lon="11.142407"><ele>401.0</ele><time>2026-04-04T09:04:54.513Z</time></trkpt><trkpt lat="43.1003617" lon="11.1422205"><ele>401.75</ele><time>2026-04-04T09:04:55.513Z</time></trkpt><trkpt lat="43.1004372" lon="11.1420521"><ele>402.5</ele><time>2026-04-04T09:04:56.51Z</time></trkpt><trkpt lat="43.1004896" lon="11.1418967"><ele>403.25</ele><time>2026-04-04T09:04:57.508Z</time></trkpt><trkpt lat="43.1004909" lon="11.1417617"><ele>404.0</ele><time>2026-04-04T09:04:58.521Z</time></trkpt><trkpt lat="43.1004559" lon="11.1416458"><ele>404.0</ele><time>2026-04-04T09:04:59.521Z</time></trkpt><trkpt lat="43.1003558" lon="11.1415571"><ele>404.0</ele><time>2026-04-04T09:05:00.514Z</time></trkpt><trkpt lat="43.1002406" lon="11.1414952"><ele>404.0</ele><time>2026-04-04T09:05:01.507Z</time></trkpt><trkpt lat="43.1000927" lon="11.1414296"><ele>404.0</ele><time>2026-04-04T09:05:02.512Z</time></trkpt><trkpt lat="43.0999286" lon="11.1413399"><ele>406.25</ele><time>2026-04-04T09:05:03.504Z</time></trkpt><trkpt lat="43.0997775" lon="11.1412623"><ele>408.5</ele><time>2026-04-04T09:05:04.512Z</time></trkpt><trkpt lat="43.0996502" lon="11.141188"><ele>410.75</ele><time>2026-04-04T09:05:05.513Z</time></trkpt><trkpt lat="43.0995439" lon="11.1411125"><ele>413.0</ele><time>2026-04-04T09:05:06.509Z</time></trkpt><trkpt lat="43.099456" lon="11.1410173"><ele>413.0</ele><time>2026-04-04T09:05:07.523Z</time></trkpt><trkpt lat="43.0994031" lon="11.1409018"><ele>413.0</ele><time>2026-04-04T09:05:08.514Z</time></trkpt><trkpt lat="43.0994207" lon="11.1407649"><ele>413.0</ele><time>2026-04-04T09:05:09.516Z</time></trkpt><trkpt lat="43.0994975" lon="11.1405938"><ele>413.0</ele><time>2026-04-04T09:05:10.508Z</time></trkpt><trkpt lat="43.0995638" lon="11.1404311"><ele>413.2</ele><time>2026-04-04T09:05:11.509Z</time></trkpt><trkpt lat="43.0995846" lon="11.1402535"><ele>413.4</ele><time>2026-04-04T09:05:12.503Z</time></trkpt><trkpt lat="43.0995603" lon="11.1401065"><ele>413.59999999999997</ele><time>2026-04-04T09:05:13.506Z</time></trkpt><trkpt lat="43.0995251" lon="11.1400042"><ele>413.79999999999995</ele><time>2026-04-04T09:05:14.496Z</time></trkpt><trkpt lat="43.0995149" lon="11.1398992"><ele>414.0</ele><time>2026-04-04T09:05:15.513Z</time></trkpt><trkpt lat="43.0995016" lon="11.1398043"><ele>414.2</ele><time>2026-04-04T09:05:16.513Z</time></trkpt><trkpt lat="43.0994579" lon="11.1396511"><ele>414.4</ele><time>2026-04-04T09:05:18.518Z</time></trkpt><trkpt lat="43.0994125" lon="11.1395061"><ele>414.6</ele><time>2026-04-04T09:05:20.516Z</time></trkpt><trkpt lat="43.0993994" lon="11.1394205"><ele>414.8</ele><time>2026-04-04T09:05:21.515Z</time></trkpt><trkpt lat="43.0993878" lon="11.1393339"><ele>415.0</ele><time>2026-04-04T09:05:22.511Z</time></trkpt><trkpt lat="43.0993875" lon="11.1391668"><ele>415.0</ele><time>2026-04-04T09:05:24.505Z</time></trkpt><trkpt lat="43.0994368" lon="11.1390622"><ele>415.0</ele><time>2026-04-04T09:05:25.509Z</time></trkpt><trkpt lat="43.0995071" lon="11.138942"><ele>415.0</ele><time>2026-04-04T09:05:26.51Z</time></trkpt><trkpt lat="43.099569" lon="11.13883"><ele>415.0</ele><time>2026-04-04T09:05:27.514Z</time></trkpt><trkpt lat="43.0996215" lon="11.1387251"><ele>415.0</ele><time>2026-04-04T09:05:28.522Z</time></trkpt><trkpt lat="43.0996708" lon="11.1386392"><ele>413.8</ele><time>2026-04-04T09:05:29.502Z</time></trkpt><trkpt lat="43.0997268" lon="11.1385491"><ele>412.6</ele><time>2026-04-04T09:05:30.504Z</time></trkpt><trkpt lat="43.0997968" lon="11.1384885"><ele>411.4</ele><time>2026-04-04T09:05:31.509Z</time></trkpt><trkpt lat="43.0998809" lon="11.1384396"><ele>410.2</ele><time>2026-04-04T09:05:32.512Z</time></trkpt><trkpt lat="43.0999803" lon="11.1384002"><ele>409.0</ele><time>2026-04-04T09:05:33.508Z</time></trkpt><trkpt lat="43.1000933" lon="11.1383722"><ele>407.79999999999995</ele><time>2026-04-04T09:05:34.513Z</time></trkpt><trkpt lat="43.1002015" lon="11.1383434"><ele>406.59999999999997</ele><time>2026-04-04T09:05:35.522Z</time></trkpt><trkpt lat="43.1003014" lon="11.1383223"><ele>405.4</ele><time>2026-04-04T09:05:36.508Z</time></trkpt><trkpt lat="43.1003915" lon="11.1383039"><ele>404.2</ele><time>2026-04-04T09:05:37.514Z</time></trkpt><trkpt lat="43.1004651" lon="11.1382864"><ele>403.0</ele><time>2026-04-04T09:05:38.505Z</time></trkpt><trkpt lat="43.1005677" lon="11.1382073"><ele>401.33333333333337</ele><time>2026-04-04T09:05:40.516Z</time></trkpt><trkpt lat="43.1005721" lon="11.1380787"><ele>399.6666666666667</ele><time>2026-04-04T09:05:42.513Z</time></trkpt><trkpt lat="43.1005353" lon="11.1380074"><ele>398.0</ele><time>2026-04-04T09:05:43.507Z</time></trkpt><trkpt lat="43.1004787" lon="11.1379395"><ele>396.33333333333337</ele><time>2026-04-04T09:05:44.508Z</time></trkpt><trkpt lat="43.100414" lon="11.1378817"><ele>394.6666666666667</ele><time>2026-04-04T09:05:45.495Z</time></trkpt><trkpt lat="43.1003311" lon="11.137776"><ele>393.0</ele><time>2026-04-04T09:05:47.505Z</time></trkpt><trkpt lat="43.1003194" lon="11.1376202"><ele>393.0</ele><time>2026-04-04T09:05:49.498Z</time></trkpt><trkpt lat="43.1004241" lon="11.1375465"><ele>393.0</ele><time>2026-04-04T09:05:51.513Z</time></trkpt><trkpt lat="43.1004864" lon="11.1375082"><ele>393.0</ele><time>2026-04-04T09:05:52.514Z</time></trkpt><trkpt lat="43.1005697" lon="11.137481"><ele>393.0</ele><time>2026-04-04T09:05:53.516Z</time></trkpt><trkpt lat="43.1006674" lon="11.1374408"><ele>393.0</ele><time>2026-04-04T09:05:54.513Z</time></trkpt><trkpt lat="43.1007573" lon="11.137396"><ele>391.0</ele><time>2026-04-04T09:05:55.521Z</time></trkpt><trkpt lat="43.1008396" lon="11.137342"><ele>389.0</ele><time>2026-04-04T09:05:56.508Z</time></trkpt><trkpt lat="43.1009104" lon="11.13726"><ele>387.0</ele><time>2026-04-04T09:05:57.504Z</time></trkpt><trkpt lat="43.1009746" lon="11.1371745"><ele>385.0</ele><time>2026-04-04T09:05:58.505Z</time></trkpt><trkpt lat="43.1010335" lon="11.1370636"><ele>383.0</ele><time>2026-04-04T09:05:59.508Z</time></trkpt><trkpt lat="43.1010938" lon="11.1369391"><ele>383.0</ele><time>2026-04-04T09:06:00.516Z</time></trkpt><trkpt lat="43.1011551" lon="11.1368088"><ele>383.0</ele><time>2026-04-04T09:06:01.512Z</time></trkpt><trkpt lat="43.101217" lon="11.1366615"><ele>383.0</ele><time>2026-04-04T09:06:02.512Z</time></trkpt><trkpt lat="43.1012848" lon="11.1364965"><ele>383.0</ele><time>2026-04-04T09:06:03.498Z</time></trkpt><trkpt lat="43.1013535" lon="11.1363311"><ele>382.75</ele><time>2026-04-04T09:06:04.506Z</time></trkpt><trkpt lat="43.1014223" lon="11.1361623"><ele>382.5</ele><time>2026-04-04T09:06:05.515Z</time></trkpt><trkpt lat="43.1014864" lon="11.1359842"><ele>382.25</ele><time>2026-04-04T09:06:06.51Z</time></trkpt><trkpt lat="43.1015501" lon="11.1358052"><ele>382.0</ele><time>2026-04-04T09:06:07.508Z</time></trkpt><trkpt lat="43.1016068" lon="11.1356398"><ele>382.0</ele><time>2026-04-04T09:06:08.498Z</time></trkpt><trkpt lat="43.1016552" lon="11.1354827"><ele>382.0</ele><time>2026-04-04T09:06:09.503Z</time></trkpt><trkpt lat="43.1017176" lon="11.1353251"><ele>382.0</ele><time>2026-04-04T09:06:10.513Z</time></trkpt><trkpt lat="43.1017901" lon="11.1351647"><ele>382.0</ele><time>2026-04-04T09:06:11.513Z</time></trkpt><trkpt lat="43.101872" lon="11.1350217"><ele>382.0</ele><time>2026-04-04T09:06:12.512Z</time></trkpt><trkpt lat="43.1019704" lon="11.1349005"><ele>382.0</ele><time>2026-04-04T09:06:13.526Z</time></trkpt><trkpt lat="43.1020797" lon="11.134785"><ele>382.0</ele><time>2026-04-04T09:06:14.499Z</time></trkpt><trkpt lat="43.1022116" lon="11.1346573"><ele>382.0</ele><time>2026-04-04T09:06:15.503Z</time></trkpt><trkpt lat="43.102352" lon="11.1345343"><ele>383.5</ele><time>2026-04-04T09:06:16.501Z</time></trkpt><trkpt lat="43.1024867" lon="11.1344099"><ele>385.0</ele><time>2026-04-04T09:06:17.522Z</time></trkpt><trkpt lat="43.1026113" lon="11.1342957"><ele>386.5</ele><time>2026-04-04T09:06:18.513Z</time></trkpt><trkpt lat="43.1027229" lon="11.1341896"><ele>388.0</ele><time>2026-04-04T09:06:19.515Z</time></trkpt><trkpt lat="43.1028368" lon="11.1340841"><ele>389.0</ele><time>2026-04-04T09:06:20.507Z</time></trkpt><trkpt lat="43.1029543" lon="11.1339852"><ele>390.0</ele><time>2026-04-04T09:06:21.518Z</time></trkpt><trkpt lat="43.1030738" lon="11.133884"><ele>391.0</ele><time>2026-04-04T09:06:22.513Z</time></trkpt><trkpt lat="43.1031864" lon="11.1337843"><ele>392.0</ele><time>2026-04-04T09:06:23.501Z</time></trkpt><trkpt lat="43.1032932" lon="11.133691"><ele>392.0</ele><time>2026-04-04T09:06:24.533Z</time></trkpt><trkpt lat="43.1033923" lon="11.1336089"><ele>392.0</ele><time>2026-04-04T09:06:25.506Z</time></trkpt><trkpt lat="43.1034842" lon="11.1335403"><ele>392.0</ele><time>2026-04-04T09:06:26.512Z</time></trkpt><trkpt lat="43.1035734" lon="11.1334887"><ele>392.0</ele><time>2026-04-04T09:06:27.513Z</time></trkpt><trkpt lat="43.1036535" lon="11.1334547"><ele>392.0</ele><time>2026-04-04T09:06:28.513Z</time></trkpt><trkpt lat="43.1037515" lon="11.1334037"><ele>392.0</ele><time>2026-04-04T09:06:30.508Z</time></trkpt><trkpt lat="43.1038146" lon="11.1333271"><ele>392.0</ele><time>2026-04-04T09:06:32.51Z</time></trkpt><trkpt lat="43.1038301" lon="11.1331971"><ele>392.0</ele><time>2026-04-04T09:06:34.521Z</time></trkpt><trkpt lat="43.1037791" lon="11.1330852"><ele>392.0</ele><time>2026-04-04T09:06:36.5Z</time></trkpt><trkpt lat="43.1037057" lon="11.1329974"><ele>392.0</ele><time>2026-04-04T09:06:38.499Z</time></trkpt><trkpt lat="43.1036388" lon="11.1329147"><ele>392.8</ele><time>2026-04-04T09:06:41.506Z</time></trkpt><trkpt lat="43.1035973" lon="11.1328269"><ele>393.6</ele><time>2026-04-04T09:06:43.505Z</time></trkpt><trkpt lat="43.1035968" lon="11.1326431"><ele>394.40000000000003</ele><time>2026-04-04T09:06:45.501Z</time></trkpt><trkpt lat="43.1036246" lon="11.1325091"><ele>395.20000000000005</ele><time>2026-04-04T09:06:47.507Z</time></trkpt><trkpt lat="43.1035782" lon="11.1324284"><ele>396.0</ele><time>2026-04-04T09:06:51.508Z</time></trkpt><trkpt lat="43.1035984" lon="11.1325397"><ele>396.0</ele><time>2026-04-04T09:06:55.505Z</time></trkpt><trkpt lat="43.1035973" lon="11.1326264"><ele>396.0</ele><time>2026-04-04T09:06:56.506Z</time></trkpt><trkpt lat="43.1035884" lon="11.1327242"><ele>396.0</ele><time>2026-04-04T09:06:57.494Z</time></trkpt><trkpt lat="43.1035916" lon="11.1328168"><ele>396.0</ele><time>2026-04-04T09:06:58.509Z</time></trkpt><trkpt lat="43.1036333" lon="11.1329503"><ele>396.0</ele><time>2026-04-04T09:07:00.515Z</time></trkpt><trkpt lat="43.1036631" lon="11.1330429"><ele>396.0</ele><time>2026-04-04T09:07:02.513Z</time></trkpt><trkpt lat="43.1036822" lon="11.1331729"><ele>396.0</ele><time>2026-04-04T09:07:04.51Z</time></trkpt><trkpt lat="43.1036529" lon="11.1332685"><ele>396.0</ele><time>2026-04-04T09:07:07.512Z</time></trkpt><trkpt lat="43.1036228" lon="11.1333471"><ele>396.0</ele><time>2026-04-04T09:07:25.514Z</time></trkpt><trkpt lat="43.1036759" lon="11.1334097"><ele>396.0</ele><time>2026-04-04T09:07:29.5Z</time></trkpt><trkpt lat="43.1037321" lon="11.1333631"><ele>396.0</ele><time>2026-04-04T09:07:31.517Z</time></trkpt><trkpt lat="43.1037154" lon="11.1332625"><ele>396.0</ele><time>2026-04-04T09:07:34.509Z</time></trkpt><trkpt lat="43.1036865" lon="11.1331658"><ele>396.0</ele><time>2026-04-04T09:07:36.524Z</time></trkpt><trkpt lat="43.1036736" lon="11.1330374"><ele>396.0</ele><time>2026-04-04T09:07:38.539Z</time></trkpt><trkpt lat="43.1036234" lon="11.132885"><ele>396.0</ele><time>2026-04-04T09:07:40.505Z</time></trkpt><trkpt lat="43.1035984" lon="11.1327729"><ele>396.0</ele><time>2026-04-04T09:07:41.509Z</time></trkpt><trkpt lat="43.1035869" lon="11.132653"><ele>396.0</ele><time>2026-04-04T09:07:42.521Z</time></trkpt><trkpt lat="43.1035882" lon="11.1325281"><ele>396.0</ele><time>2026-04-04T09:07:43.51Z</time></trkpt><trkpt lat="43.1035823" lon="11.1323967"><ele>395.5</ele><time>2026-04-04T09:07:44.511Z</time></trkpt><trkpt lat="43.1035611" lon="11.1322811"><ele>395.0</ele><time>2026-04-04T09:07:45.503Z</time></trkpt><trkpt lat="43.1035445" lon="11.1321736"><ele>394.5</ele><time>2026-04-04T09:07:46.51Z</time></trkpt><trkpt lat="43.1035548" lon="11.1320685"><ele>394.0</ele><time>2026-04-04T09:07:47.501Z</time></trkpt><trkpt lat="43.1035968" lon="11.1319876"><ele>393.5</ele><time>2026-04-04T09:07:48.504Z</time></trkpt><trkpt lat="43.1036665" lon="11.1319331"><ele>393.0</ele><time>2026-04-04T09:07:49.514Z</time></trkpt><trkpt lat="43.1037671" lon="11.1318992"><ele>393.0</ele><time>2026-04-04T09:07:50.512Z</time></trkpt><trkpt lat="43.1038735" lon="11.1318882"><ele>393.0</ele><time>2026-04-04T09:07:51.511Z</time></trkpt><trkpt lat="43.104005" lon="11.1319072"><ele>393.0</ele><time>2026-04-04T09:07:52.513Z</time></trkpt><trkpt lat="43.104145" lon="11.1319301"><ele>393.0</ele><time>2026-04-04T09:07:53.508Z</time></trkpt><trkpt lat="43.1042862" lon="11.131961"><ele>396.25</ele><time>2026-04-04T09:07:54.51Z</time></trkpt><trkpt lat="43.1044142" lon="11.1319913"><ele>399.5</ele><time>2026-04-04T09:07:55.499Z</time></trkpt><trkpt lat="43.1045256" lon="11.1320276"><ele>402.75</ele><time>2026-04-04T09:07:56.511Z</time></trkpt><trkpt lat="43.1046259" lon="11.1320737"><ele>406.0</ele><time>2026-04-04T09:07:57.509Z</time></trkpt><trkpt lat="43.1047187" lon="11.1321504"><ele>406.00000000000006</ele><time>2026-04-04T09:07:58.505Z</time></trkpt><trkpt lat="43.1048" lon="11.1322144"><ele>406.0</ele><time>2026-04-04T09:07:59.506Z</time></trkpt><trkpt lat="43.1048743" lon="11.1322673"><ele>406.0</ele><time>2026-04-04T09:08:00.513Z</time></trkpt><trkpt lat="43.1049493" lon="11.132297"><ele>406.0</ele><time>2026-04-04T09:08:01.516Z</time></trkpt><trkpt lat="43.1050173" lon="11.1322979"><ele>406.00000000000006</ele><time>2026-04-04T09:08:02.51Z</time></trkpt><trkpt lat="43.1050964" lon="11.1322758"><ele>406.0</ele><time>2026-04-04T09:08:03.527Z</time></trkpt><trkpt lat="43.1051925" lon="11.1322195"><ele>408.00000000000006</ele><time>2026-04-04T09:08:04.517Z</time></trkpt><trkpt lat="43.1052834" lon="11.1321693"><ele>410.0</ele><time>2026-04-04T09:08:05.511Z</time></trkpt><trkpt lat="43.1053669" lon="11.1321156"><ele>412.0</ele><time>2026-04-04T09:08:06.508Z</time></trkpt><trkpt lat="43.1054331" lon="11.1320557"><ele>414.0</ele><time>2026-04-04T09:08:07.51Z</time></trkpt><trkpt lat="43.1054951" lon="11.131978"><ele>416.00000000000006</ele><time>2026-04-04T09:08:08.511Z</time></trkpt><trkpt lat="43.1055486" lon="11.1318913"><ele>418.0</ele><time>2026-04-04T09:08:09.511Z</time></trkpt><trkpt lat="43.1055883" lon="11.1317914"><ele>418.0</ele><time>2026-04-04T09:08:10.501Z</time></trkpt><trkpt lat="43.105573" lon="11.1316492"><ele>418.0</ele><time>2026-04-04T09:08:12.502Z</time></trkpt><trkpt lat="43.1054812" lon="11.1315858"><ele>418.0</ele><time>2026-04-04T09:08:14.49Z</time></trkpt><trkpt lat="43.1054135" lon="11.131588"><ele>418.0</ele><time>2026-04-04T09:08:15.508Z</time></trkpt><trkpt lat="43.1053208" lon="11.131614"><ele>418.0</ele><time>2026-04-04T09:08:16.506Z</time></trkpt><trkpt lat="43.1052403" lon="11.131619"><ele>418.0</ele><time>2026-04-04T09:08:17.513Z</time></trkpt><trkpt lat="43.1051687" lon="11.1316113"><ele>418.0</ele><time>2026-04-04T09:08:18.505Z</time></trkpt><trkpt lat="43.1051081" lon="11.1315719"><ele>418.0</ele><time>2026-04-04T09:08:19.508Z</time></trkpt><trkpt lat="43.1050539" lon="11.1315032"><ele>418.0</ele><time>2026-04-04T09:08:20.507Z</time></trkpt><trkpt lat="43.1050099" lon="11.1314407"><ele>418.0</ele><time>2026-04-04T09:08:21.522Z</time></trkpt><trkpt lat="43.1049805" lon="11.1313451"><ele>418.0</ele><time>2026-04-04T09:08:22.51Z</time></trkpt><trkpt lat="43.1049713" lon="11.1312286"><ele>418.0</ele><time>2026-04-04T09:08:23.513Z</time></trkpt><trkpt lat="43.1049627" lon="11.1311032"><ele>419.2</ele><time>2026-04-04T09:08:24.501Z</time></trkpt><trkpt lat="43.104962" lon="11.1310017"><ele>420.4</ele><time>2026-04-04T09:08:25.514Z</time></trkpt><trkpt lat="43.105031" lon="11.130863"><ele>421.59999999999997</ele><time>2026-04-04T09:08:27.526Z</time></trkpt><trkpt lat="43.1051271" lon="11.1308412"><ele>422.79999999999995</ele><time>2026-04-04T09:08:29.5Z</time></trkpt><trkpt lat="43.1052017" lon="11.1308663"><ele>424.0</ele><time>2026-04-04T09:08:30.502Z</time></trkpt><trkpt lat="43.1052948" lon="11.1309113"><ele>424.0</ele><time>2026-04-04T09:08:31.511Z</time></trkpt><trkpt lat="43.1053843" lon="11.1309603"><ele>424.0</ele><time>2026-04-04T09:08:32.513Z</time></trkpt><trkpt lat="43.1054598" lon="11.1310022"><ele>424.0</ele><time>2026-04-04T09:08:33.508Z</time></trkpt><trkpt lat="43.1055873" lon="11.1309917"><ele>424.0</ele><time>2026-04-04T09:08:35.508Z</time></trkpt><trkpt lat="43.1056693" lon="11.130936"><ele>424.0</ele><time>2026-04-04T09:08:36.504Z</time></trkpt><trkpt lat="43.1057579" lon="11.130866"><ele>425.1666666666667</ele><time>2026-04-04T09:08:37.506Z</time></trkpt><trkpt lat="43.1058374" lon="11.1307901"><ele>426.33333333333337</ele><time>2026-04-04T09:08:38.507Z</time></trkpt><trkpt lat="43.1058962" lon="11.1307062"><ele>427.5</ele><time>2026-04-04T09:08:39.502Z</time></trkpt><trkpt lat="43.105924" lon="11.1306226"><ele>428.66666666666663</ele><time>2026-04-04T09:08:40.511Z</time></trkpt><trkpt lat="43.1059346" lon="11.1305345"><ele>429.8333333333333</ele><time>2026-04-04T09:08:41.513Z</time></trkpt><trkpt lat="43.1058886" lon="11.130402"><ele>431.0</ele><time>2026-04-04T09:08:43.502Z</time></trkpt><trkpt lat="43.1057623" lon="11.1303712"><ele>430.3333333333333</ele><time>2026-04-04T09:08:45.513Z</time></trkpt><trkpt lat="43.10567" lon="11.1303512"><ele>429.66666666666663</ele><time>2026-04-04T09:08:46.497Z</time></trkpt><trkpt lat="43.1055807" lon="11.1303302"><ele>429.0</ele><time>2026-04-04T09:08:47.512Z</time></trkpt><trkpt lat="43.1055012" lon="11.1302904"><ele>428.33333333333337</ele><time>2026-04-04T09:08:48.5Z</time></trkpt><trkpt lat="43.1054399" lon="11.1302211"><ele>427.6666666666667</ele><time>2026-04-04T09:08:49.509Z</time></trkpt><trkpt lat="43.1053886" lon="11.1301315"><ele>427.0</ele><time>2026-04-04T09:08:50.507Z</time></trkpt><trkpt lat="43.1053472" lon="11.130035"><ele>427.0</ele><time>2026-04-04T09:08:51.502Z</time></trkpt><trkpt lat="43.1053135" lon="11.1299172"><ele>427.00000000000006</ele><time>2026-04-04T09:08:52.521Z</time></trkpt><trkpt lat="43.1052778" lon="11.1297804"><ele>427.00000000000006</ele><time>2026-04-04T09:08:53.501Z</time></trkpt><trkpt lat="43.1052517" lon="11.1296427"><ele>427.0</ele><time>2026-04-04T09:08:54.513Z</time></trkpt><trkpt lat="43.1052372" lon="11.1294927"><ele>427.0</ele><time>2026-04-04T09:08:55.515Z</time></trkpt><trkpt lat="43.1052395" lon="11.1293215"><ele>428.20000000000005</ele><time>2026-04-04T09:08:56.517Z</time></trkpt><trkpt lat="43.1052574" lon="11.1291447"><ele>429.40000000000003</ele><time>2026-04-04T09:08:57.514Z</time></trkpt><trkpt lat="43.1052808" lon="11.1289828"><ele>430.59999999999997</ele><time>2026-04-04T09:08:58.506Z</time></trkpt><trkpt lat="43.1052945" lon="11.1288358"><ele>431.79999999999995</ele><time>2026-04-04T09:08:59.498Z</time></trkpt><trkpt lat="43.1053052" lon="11.1287265"><ele>433.0</ele><time>2026-04-04T09:09:00.508Z</time></trkpt><trkpt lat="43.105322" lon="11.128631"><ele>433.0</ele><time>2026-04-04T09:09:01.502Z</time></trkpt><trkpt lat="43.1053545" lon="11.1285372"><ele>432.99999999999994</ele><time>2026-04-04T09:09:02.505Z</time></trkpt><trkpt lat="43.1054198" lon="11.1284379"><ele>432.99999999999994</ele><time>2026-04-04T09:09:03.506Z</time></trkpt><trkpt lat="43.105496" lon="11.1283435"><ele>433.0</ele><time>2026-04-04T09:09:04.491Z</time></trkpt><trkpt lat="43.1055878" lon="11.1282389"><ele>433.0</ele><time>2026-04-04T09:09:05.502Z</time></trkpt><trkpt lat="43.1056865" lon="11.1281353"><ele>439.75</ele><time>2026-04-04T09:09:06.505Z</time></trkpt><trkpt lat="43.1057772" lon="11.1280187"><ele>446.5</ele><time>2026-04-04T09:09:07.512Z</time></trkpt><trkpt lat="43.1058589" lon="11.1278918"><ele>453.25</ele><time>2026-04-04T09:09:08.508Z</time></trkpt><trkpt lat="43.1059212" lon="11.127769"><ele>460.0</ele><time>2026-04-04T09:09:09.511Z</time></trkpt><trkpt lat="43.1059667" lon="11.1276345"><ele>460.0</ele><time>2026-04-04T09:09:10.505Z</time></trkpt><trkpt lat="43.106004" lon="11.1274895"><ele>460.0</ele><time>2026-04-04T09:09:11.501Z</time></trkpt><trkpt lat="43.1060405" lon="11.1273475"><ele>460.0</ele><time>2026-04-04T09:09:12.509Z</time></trkpt><trkpt lat="43.1060655" lon="11.1272055"><ele>460.0</ele><time>2026-04-04T09:09:13.516Z</time></trkpt><trkpt lat="43.106064" lon="11.1270314"><ele>459.0</ele><time>2026-04-04T09:09:14.496Z</time></trkpt><trkpt lat="43.1060651" lon="11.1268523"><ele>458.0</ele><time>2026-04-04T09:09:15.506Z</time></trkpt><trkpt lat="43.1060751" lon="11.1266794"><ele>457.0</ele><time>2026-04-04T09:09:16.495Z</time></trkpt><trkpt lat="43.1060959" lon="11.1265095"><ele>456.0</ele><time>2026-04-04T09:09:17.514Z</time></trkpt><trkpt lat="43.1061361" lon="11.1263484"><ele>455.5</ele><time>2026-04-04T09:09:18.505Z</time></trkpt><trkpt lat="43.1061851" lon="11.1261858"><ele>455.0</ele><time>2026-04-04T09:09:19.505Z</time></trkpt><trkpt lat="43.1062412" lon="11.1259938"><ele>454.5</ele><time>2026-04-04T09:09:20.515Z</time></trkpt><trkpt lat="43.106299" lon="11.1257959"><ele>454.0</ele><time>2026-04-04T09:09:21.51Z</time></trkpt><trkpt lat="43.1063539" lon="11.125617"><ele>453.25</ele><time>2026-04-04T09:09:22.5Z</time></trkpt><trkpt lat="43.1064073" lon="11.1254307"><ele>452.5</ele><time>2026-04-04T09:09:23.51Z</time></trkpt><trkpt lat="43.106462" lon="11.1252438"><ele>451.75</ele><time>2026-04-04T09:09:24.501Z</time></trkpt><trkpt lat="43.1065111" lon="11.1250608"><ele>451.0</ele><time>2026-04-04T09:09:25.512Z</time></trkpt><trkpt lat="43.1065565" lon="11.1249053"><ele>454.0</ele><time>2026-04-04T09:09:26.51Z</time></trkpt><trkpt lat="43.1065961" lon="11.1247502"><ele>457.0</ele><time>2026-04-04T09:09:27.519Z</time></trkpt><trkpt lat="43.106639" lon="11.124614"><ele>460.0</ele><time>2026-04-04T09:09:28.512Z</time></trkpt><trkpt lat="43.1066845" lon="11.124477"><ele>463.0</ele><time>2026-04-04T09:09:29.502Z</time></trkpt><trkpt lat="43.1067357" lon="11.1243427"><ele>466.0</ele><time>2026-04-04T09:09:30.514Z</time></trkpt><trkpt lat="43.1067921" lon="11.1242145"><ele>466.00000000000006</ele><time>2026-04-04T09:09:31.515Z</time></trkpt><trkpt lat="43.1068482" lon="11.1241008"><ele>466.0</ele><time>2026-04-04T09:09:32.51Z</time></trkpt><trkpt lat="43.1069013" lon="11.1240109"><ele>466.0</ele><time>2026-04-04T09:09:33.508Z</time></trkpt><trkpt lat="43.1069537" lon="11.1239351"><ele>466.0</ele><time>2026-04-04T09:09:34.508Z</time></trkpt><trkpt lat="43.1070101" lon="11.1238845"><ele>466.00000000000006</ele><time>2026-04-04T09:09:35.515Z</time></trkpt><trkpt lat="43.1071155" lon="11.1238391"><ele>466.0</ele><time>2026-04-04T09:09:37.517Z</time></trkpt><trkpt lat="43.1072359" lon="11.1237765"><ele>465.0</ele><time>2026-04-04T09:09:39.501Z</time></trkpt><trkpt lat="43.1073086" lon="11.1237141"><ele>464.0</ele><time>2026-04-04T09:09:40.504Z</time></trkpt><trkpt lat="43.10738" lon="11.1236354"><ele>463.0</ele><time>2026-04-04T09:09:41.508Z</time></trkpt><trkpt lat="43.1074482" lon="11.1235497"><ele>462.0</ele><time>2026-04-04T09:09:42.512Z</time></trkpt><trkpt lat="43.107516" lon="11.123459"><ele>461.0</ele><time>2026-04-04T09:09:43.503Z</time></trkpt><trkpt lat="43.1075883" lon="11.1233423"><ele>464.25</ele><time>2026-04-04T09:09:44.508Z</time></trkpt><trkpt lat="43.107674" lon="11.1231821"><ele>467.5</ele><time>2026-04-04T09:09:45.505Z</time></trkpt><trkpt lat="43.1077454" lon="11.1230372"><ele>470.75</ele><time>2026-04-04T09:09:46.504Z</time></trkpt><trkpt lat="43.1078033" lon="11.1229081"><ele>474.0</ele><time>2026-04-04T09:09:47.503Z</time></trkpt><trkpt lat="43.107845" lon="11.1227691"><ele>474.0</ele><time>2026-04-04T09:09:48.504Z</time></trkpt><trkpt lat="43.1078725" lon="11.1226275"><ele>474.0</ele><time>2026-04-04T09:09:49.491Z</time></trkpt><trkpt lat="43.1078882" lon="11.1224956"><ele>474.0</ele><time>2026-04-04T09:09:50.504Z</time></trkpt><trkpt lat="43.1079095" lon="11.1223669"><ele>474.0</ele><time>2026-04-04T09:09:51.5Z</time></trkpt><trkpt lat="43.1079218" lon="11.1222734"><ele>474.0</ele><time>2026-04-04T09:09:52.498Z</time></trkpt><trkpt lat="43.1079276" lon="11.1221875"><ele>474.0</ele><time>2026-04-04T09:09:53.506Z</time></trkpt><trkpt lat="43.1079523" lon="11.1220475"><ele>473.1666666666667</ele><time>2026-04-04T09:09:55.507Z</time></trkpt><trkpt lat="43.1079829" lon="11.1219434"><ele>472.33333333333337</ele><time>2026-04-04T09:09:57.508Z</time></trkpt><trkpt lat="43.1080548" lon="11.1219212"><ele>471.5</ele><time>2026-04-04T09:10:06.516Z</time></trkpt><trkpt lat="43.1081219" lon="11.1218746"><ele>470.6666666666667</ele><time>2026-04-04T09:10:08.505Z</time></trkpt><trkpt lat="43.1082297" lon="11.1218273"><ele>469.83333333333337</ele><time>2026-04-04T09:10:10.5Z</time></trkpt><trkpt lat="43.1083028" lon="11.1217924"><ele>469.0</ele><time>2026-04-04T09:10:11.5Z</time></trkpt><trkpt lat="43.1083885" lon="11.1217602"><ele>469.33333333333337</ele><time>2026-04-04T09:10:12.499Z</time></trkpt><trkpt lat="43.1084745" lon="11.1217189"><ele>469.6666666666667</ele><time>2026-04-04T09:10:13.502Z</time></trkpt><trkpt lat="43.1085527" lon="11.1216784"><ele>470.0</ele><time>2026-04-04T09:10:14.494Z</time></trkpt><trkpt lat="43.1086459" lon="11.1216358"><ele>470.33333333333337</ele><time>2026-04-04T09:10:16.491Z</time></trkpt><trkpt lat="43.1087142" lon="11.1216052"><ele>470.6666666666667</ele><time>2026-04-04T09:10:19.5Z</time></trkpt><trkpt lat="43.1088048" lon="11.1215563"><ele>471.0</ele><time>2026-04-04T09:10:21.498Z</time></trkpt><trkpt lat="43.1088696" lon="11.1215348"><ele>471.0</ele><time>2026-04-04T09:10:22.491Z</time></trkpt><trkpt lat="43.1089552" lon="11.1215163"><ele>471.0</ele><time>2026-04-04T09:10:23.502Z</time></trkpt><trkpt lat="43.1090421" lon="11.1215044"><ele>471.0</ele><time>2026-04-04T09:10:24.492Z</time></trkpt><trkpt lat="43.1091188" lon="11.1214853"><ele>471.0</ele><time>2026-04-04T09:10:25.491Z</time></trkpt><trkpt lat="43.1091849" lon="11.1214708"><ele>471.0</ele><time>2026-04-04T09:10:26.497Z</time></trkpt><trkpt lat="43.1092837" lon="11.1214416"><ele>471.0</ele><time>2026-04-04T09:10:28.492Z</time></trkpt><trkpt lat="43.1093817" lon="11.1213848"><ele>471.8</ele><time>2026-04-04T09:10:30.495Z</time></trkpt><trkpt lat="43.1094475" lon="11.1213604"><ele>472.6</ele><time>2026-04-04T09:10:31.492Z</time></trkpt><trkpt lat="43.1095407" lon="11.1213389"><ele>473.4</ele><time>2026-04-04T09:10:32.509Z</time></trkpt><trkpt lat="43.1096543" lon="11.1213105"><ele>474.2</ele><time>2026-04-04T09:10:33.498Z</time></trkpt><trkpt lat="43.1097534" lon="11.1212809"><ele>475.0</ele><time>2026-04-04T09:10:34.49Z</time></trkpt><trkpt lat="43.1098401" lon="11.1212424"><ele>475.6666666666667</ele><time>2026-04-04T09:10:35.495Z</time></trkpt><trkpt lat="43.109917" lon="11.1212071"><ele>476.33333333333337</ele><time>2026-04-04T09:10:36.499Z</time></trkpt><trkpt lat="43.1099904" lon="11.1211654"><ele>477.0</ele><time>2026-04-04T09:10:37.503Z</time></trkpt><trkpt lat="43.1100562" lon="11.1210991"><ele>477.66666666666663</ele><time>2026-04-04T09:10:38.507Z</time></trkpt><trkpt lat="43.1101143" lon="11.1210093"><ele>478.3333333333333</ele><time>2026-04-04T09:10:39.497Z</time></trkpt><trkpt lat="43.110173" lon="11.1209098"><ele>479.0</ele><time>2026-04-04T09:10:40.492Z</time></trkpt><trkpt lat="43.110235" lon="11.1208082"><ele>476.66666666666663</ele><time>2026-04-04T09:10:41.496Z</time></trkpt><trkpt lat="43.1102952" lon="11.1207164"><ele>474.3333333333333</ele><time>2026-04-04T09:10:42.497Z</time></trkpt><trkpt lat="43.1103438" lon="11.1206329"><ele>472.0</ele><time>2026-04-04T09:10:43.494Z</time></trkpt><trkpt lat="43.1103897" lon="11.1205573"><ele>469.66666666666663</ele><time>2026-04-04T09:10:44.492Z</time></trkpt><trkpt lat="43.110423" lon="11.1204667"><ele>467.3333333333333</ele><time>2026-04-04T09:10:45.495Z</time></trkpt><trkpt lat="43.1104334" lon="11.1203797"><ele>465.0</ele><time>2026-04-04T09:10:46.496Z</time></trkpt><trkpt lat="43.110449" lon="11.1202185"><ele>465.0</ele><time>2026-04-04T09:10:48.509Z</time></trkpt><trkpt lat="43.1104737" lon="11.1201369"><ele>465.0</ele><time>2026-04-04T09:10:49.508Z</time></trkpt><trkpt lat="43.1105642" lon="11.1200031"><ele>465.0</ele><time>2026-04-04T09:10:51.509Z</time></trkpt><trkpt lat="43.1106295" lon="11.1199284"><ele>465.0</ele><time>2026-04-04T09:10:52.512Z</time></trkpt><trkpt lat="43.1107186" lon="11.1198497"><ele>465.0</ele><time>2026-04-04T09:10:53.513Z</time></trkpt><trkpt lat="43.1108401" lon="11.1197721"><ele>462.8</ele><time>2026-04-04T09:10:54.497Z</time></trkpt><trkpt lat="43.1109497" lon="11.1196902"><ele>460.6</ele><time>2026-04-04T09:10:55.512Z</time></trkpt><trkpt lat="43.111062" lon="11.1196238"><ele>458.4</ele><time>2026-04-04T09:10:56.511Z</time></trkpt><trkpt lat="43.1111571" lon="11.1195717"><ele>456.2</ele><time>2026-04-04T09:10:57.508Z</time></trkpt><trkpt lat="43.1112429" lon="11.1195187"><ele>454.0</ele><time>2026-04-04T09:10:58.512Z</time></trkpt><trkpt lat="43.1113288" lon="11.1194624"><ele>454.00000000000006</ele><time>2026-04-04T09:10:59.513Z</time></trkpt><trkpt lat="43.1114007" lon="11.1193804"><ele>454.0</ele><time>2026-04-04T09:11:00.517Z</time></trkpt><trkpt lat="43.1114634" lon="11.1192887"><ele>454.0</ele><time>2026-04-04T09:11:01.515Z</time></trkpt><trkpt lat="43.1115172" lon="11.1191856"><ele>454.0</ele><time>2026-04-04T09:11:02.516Z</time></trkpt><trkpt lat="43.1115626" lon="11.1190894"><ele>454.00000000000006</ele><time>2026-04-04T09:11:03.506Z</time></trkpt><trkpt lat="43.1116021" lon="11.1190054"><ele>454.0</ele><time>2026-04-04T09:11:04.509Z</time></trkpt><trkpt lat="43.1116722" lon="11.1188923"><ele>451.79999999999995</ele><time>2026-04-04T09:11:06.511Z</time></trkpt><trkpt lat="43.1117631" lon="11.1188154"><ele>449.59999999999997</ele><time>2026-04-04T09:11:08.507Z</time></trkpt><trkpt lat="43.11185" lon="11.1187337"><ele>447.4</ele><time>2026-04-04T09:11:10.518Z</time></trkpt><trkpt lat="43.1118941" lon="11.1186231"><ele>445.2</ele><time>2026-04-04T09:11:12.515Z</time></trkpt><trkpt lat="43.1119128" lon="11.1184983"><ele>443.0</ele><time>2026-04-04T09:11:14.489Z</time></trkpt><trkpt lat="43.1119401" lon="11.1183964"><ele>443.0</ele><time>2026-04-04T09:11:16.517Z</time></trkpt><trkpt lat="43.1120023" lon="11.1182711"><ele>442.99999999999994</ele><time>2026-04-04T09:11:18.508Z</time></trkpt><trkpt lat="43.1120547" lon="11.1182142"><ele>442.99999999999994</ele><time>2026-04-04T09:11:19.508Z</time></trkpt><trkpt lat="43.1121141" lon="11.1181716"><ele>443.0</ele><time>2026-04-04T09:11:20.503Z</time></trkpt><trkpt lat="43.1122408" lon="11.1181099"><ele>443.0</ele><time>2026-04-04T09:11:22.518Z</time></trkpt><trkpt lat="43.1123136" lon="11.1180776"><ele>441.49999999999994</ele><time>2026-04-04T09:11:23.503Z</time></trkpt><trkpt lat="43.1123879" lon="11.1180464"><ele>440.0</ele><time>2026-04-04T09:11:24.516Z</time></trkpt><trkpt lat="43.1124631" lon="11.1180132"><ele>438.5</ele><time>2026-04-04T09:11:25.522Z</time></trkpt><trkpt lat="43.1125348" lon="11.1179789"><ele>437.0</ele><time>2026-04-04T09:11:26.503Z</time></trkpt><trkpt lat="43.1126067" lon="11.1179473"><ele>435.49999999999994</ele><time>2026-04-04T09:11:27.515Z</time></trkpt><trkpt lat="43.1126845" lon="11.1179155"><ele>434.0</ele><time>2026-04-04T09:11:28.507Z</time></trkpt><trkpt lat="43.112774" lon="11.1178927"><ele>433.0</ele><time>2026-04-04T09:11:29.491Z</time></trkpt><trkpt lat="43.1128646" lon="11.1178884"><ele>432.0</ele><time>2026-04-04T09:11:30.515Z</time></trkpt><trkpt lat="43.11296" lon="11.1178794"><ele>431.0</ele><time>2026-04-04T09:11:31.508Z</time></trkpt><trkpt lat="43.1130776" lon="11.1178913"><ele>430.0</ele><time>2026-04-04T09:11:32.506Z</time></trkpt><trkpt lat="43.1132068" lon="11.1179048"><ele>429.0</ele><time>2026-04-04T09:11:33.502Z</time></trkpt><trkpt lat="43.1133208" lon="11.1179226"><ele>428.0</ele><time>2026-04-04T09:11:34.515Z</time></trkpt><trkpt lat="43.1134353" lon="11.1179316"><ele>427.0</ele><time>2026-04-04T09:11:35.502Z</time></trkpt><trkpt lat="43.1135434" lon="11.1179467"><ele>426.0</ele><time>2026-04-04T09:11:36.511Z</time></trkpt><trkpt lat="43.1136433" lon="11.1179478"><ele>425.0</ele><time>2026-04-04T09:11:37.509Z</time></trkpt><trkpt lat="43.1137402" lon="11.1179609"><ele>424.0</ele><time>2026-04-04T09:11:38.5Z</time></trkpt><trkpt lat="43.113827" lon="11.1179704"><ele>424.00000000000006</ele><time>2026-04-04T09:11:39.51Z</time></trkpt><trkpt lat="43.1139052" lon="11.1179748"><ele>424.0</ele><time>2026-04-04T09:11:40.51Z</time></trkpt><trkpt lat="43.1139783" lon="11.1179881"><ele>424.0</ele><time>2026-04-04T09:11:41.507Z</time></trkpt><trkpt lat="43.1140438" lon="11.1179913"><ele>424.0</ele><time>2026-04-04T09:11:42.505Z</time></trkpt><trkpt lat="43.1141489" lon="11.1179877"><ele>424.00000000000006</ele><time>2026-04-04T09:11:44.505Z</time></trkpt><trkpt lat="43.1142445" lon="11.1179576"><ele>424.0</ele><time>2026-04-04T09:11:46.508Z</time></trkpt><trkpt lat="43.1143365" lon="11.1178463"><ele>422.6</ele><time>2026-04-04T09:11:48.503Z</time></trkpt><trkpt lat="43.1144132" lon="11.1177256"><ele>421.2</ele><time>2026-04-04T09:11:50.501Z</time></trkpt><trkpt lat="43.1144936" lon="11.1176212"><ele>419.8</ele><time>2026-04-04T09:11:52.507Z</time></trkpt><trkpt lat="43.114591" lon="11.1175224"><ele>418.40000000000003</ele><time>2026-04-04T09:11:54.505Z</time></trkpt><trkpt lat="43.1146462" lon="11.1174778"><ele>417.0</ele><time>2026-04-04T09:11:55.513Z</time></trkpt><trkpt lat="43.114712" lon="11.1174493"><ele>417.0</ele><time>2026-04-04T09:11:56.504Z</time></trkpt><trkpt lat="43.114784" lon="11.1174103"><ele>417.0</ele><time>2026-04-04T09:11:57.512Z</time></trkpt><trkpt lat="43.1148591" lon="11.1173716"><ele>417.0</ele><time>2026-04-04T09:11:58.504Z</time></trkpt><trkpt lat="43.1149409" lon="11.1173484"><ele>417.0</ele><time>2026-04-04T09:11:59.52Z</time></trkpt><trkpt lat="43.1150224" lon="11.1173372"><ele>417.0</ele><time>2026-04-04T09:12:00.507Z</time></trkpt><trkpt lat="43.1151106" lon="11.1173295"><ele>417.0</ele><time>2026-04-04T09:12:01.509Z</time></trkpt><trkpt lat="43.115197" lon="11.1173325"><ele>414.6</ele><time>2026-04-04T09:12:02.509Z</time></trkpt><trkpt lat="43.115286" lon="11.1173395"><ele>412.20000000000005</ele><time>2026-04-04T09:12:03.517Z</time></trkpt><trkpt lat="43.1153768" lon="11.1173476"><ele>409.8</ele><time>2026-04-04T09:12:04.525Z</time></trkpt><trkpt lat="43.1154714" lon="11.1173861"><ele>407.4</ele><time>2026-04-04T09:12:05.508Z</time></trkpt><trkpt lat="43.1155637" lon="11.1174123"><ele>405.0</ele><time>2026-04-04T09:12:06.51Z</time></trkpt><trkpt lat="43.1156527" lon="11.117434"><ele>403.25</ele><time>2026-04-04T09:12:07.499Z</time></trkpt><trkpt lat="43.1157609" lon="11.1174339"><ele>401.5</ele><time>2026-04-04T09:12:08.506Z</time></trkpt><trkpt lat="43.1158877" lon="11.1174156"><ele>399.75</ele><time>2026-04-04T09:12:09.505Z</time></trkpt><trkpt lat="43.1160109" lon="11.1173873"><ele>398.0</ele><time>2026-04-04T09:12:10.516Z</time></trkpt><trkpt lat="43.1161254" lon="11.1173591"><ele>396.4</ele><time>2026-04-04T09:12:11.512Z</time></trkpt><trkpt lat="43.1162324" lon="11.1173348"><ele>394.79999999999995</ele><time>2026-04-04T09:12:12.512Z</time></trkpt><trkpt lat="43.1163474" lon="11.1173123"><ele>393.2</ele><time>2026-04-04T09:12:13.516Z</time></trkpt><trkpt lat="43.1164527" lon="11.117281"><ele>391.6</ele><time>2026-04-04T09:12:14.493Z</time></trkpt><trkpt lat="43.1165535" lon="11.1172628"><ele>390.0</ele><time>2026-04-04T09:12:15.505Z</time></trkpt><trkpt lat="43.1166537" lon="11.1172399"><ele>388.6</ele><time>2026-04-04T09:12:16.505Z</time></trkpt><trkpt lat="43.1167544" lon="11.1172239"><ele>387.2</ele><time>2026-04-04T09:12:17.518Z</time></trkpt><trkpt lat="43.1168605" lon="11.1172043"><ele>385.79999999999995</ele><time>2026-04-04T09:12:18.51Z</time></trkpt><trkpt lat="43.1169605" lon="11.1171785"><ele>384.4</ele><time>2026-04-04T09:12:19.504Z</time></trkpt><trkpt lat="43.1170606" lon="11.1171579"><ele>383.0</ele><time>2026-04-04T09:12:20.514Z</time></trkpt><trkpt lat="43.1171687" lon="11.1171488"><ele>383.0</ele><time>2026-04-04T09:12:21.51Z</time></trkpt><trkpt lat="43.11727" lon="11.1171409"><ele>383.0</ele><time>2026-04-04T09:12:22.506Z</time></trkpt><trkpt lat="43.1173739" lon="11.1171338"><ele>383.0</ele><time>2026-04-04T09:12:23.511Z</time></trkpt><trkpt lat="43.1174757" lon="11.1171254"><ele>383.0</ele><time>2026-04-04T09:12:24.507Z</time></trkpt><trkpt lat="43.1175775" lon="11.11712"><ele>383.0</ele><time>2026-04-04T09:12:25.508Z</time></trkpt><trkpt lat="43.1176797" lon="11.1171129"><ele>381.4</ele><time>2026-04-04T09:12:26.516Z</time></trkpt><trkpt lat="43.1177882" lon="11.1171015"><ele>379.79999999999995</ele><time>2026-04-04T09:12:27.505Z</time></trkpt><trkpt lat="43.1178972" lon="11.1170819"><ele>378.2</ele><time>2026-04-04T09:12:28.513Z</time></trkpt><trkpt lat="43.1179986" lon="11.1170718"><ele>376.6</ele><time>2026-04-04T09:12:29.5Z</time></trkpt><trkpt lat="43.1180811" lon="11.1170645"><ele>375.0</ele><time>2026-04-04T09:12:30.509Z</time></trkpt><trkpt lat="43.1181575" lon="11.1170599"><ele>375.0</ele><time>2026-04-04T09:12:31.506Z</time></trkpt><trkpt lat="43.1182314" lon="11.1170496"><ele>375.0</ele><time>2026-04-04T09:12:32.506Z</time></trkpt><trkpt lat="43.1183363" lon="11.116995"><ele>375.0</ele><time>2026-04-04T09:12:34.514Z</time></trkpt><trkpt lat="43.1184221" lon="11.1169206"><ele>375.0</ele><time>2026-04-04T09:12:36.508Z</time></trkpt><trkpt lat="43.118519" lon="11.1168498"><ele>375.0</ele><time>2026-04-04T09:12:38.519Z</time></trkpt><trkpt lat="43.1186178" lon="11.1168256"><ele>373.5</ele><time>2026-04-04T09:12:40.51Z</time></trkpt><trkpt lat="43.118682" lon="11.116838"><ele>372.0</ele><time>2026-04-04T09:12:41.517Z</time></trkpt><trkpt lat="43.1187511" lon="11.1168588"><ele>370.5</ele><time>2026-04-04T09:12:42.507Z</time></trkpt><trkpt lat="43.1188319" lon="11.1168928"><ele>369.0</ele><time>2026-04-04T09:12:43.516Z</time></trkpt><trkpt lat="43.1189136" lon="11.11693"><ele>367.5</ele><time>2026-04-04T09:12:44.509Z</time></trkpt><trkpt lat="43.1189973" lon="11.1169591"><ele>366.0</ele><time>2026-04-04T09:12:45.5Z</time></trkpt><trkpt lat="43.1190863" lon="11.1169933"><ele>364.8</ele><time>2026-04-04T09:12:46.516Z</time></trkpt><trkpt lat="43.1191718" lon="11.1170274"><ele>363.6</ele><time>2026-04-04T09:12:47.517Z</time></trkpt><trkpt lat="43.1192573" lon="11.117068"><ele>362.4</ele><time>2026-04-04T09:12:48.51Z</time></trkpt><trkpt lat="43.1193494" lon="11.1170976"><ele>361.2</ele><time>2026-04-04T09:12:49.523Z</time></trkpt><trkpt lat="43.119436" lon="11.1171267"><ele>360.0</ele><time>2026-04-04T09:12:50.519Z</time></trkpt><trkpt lat="43.1195246" lon="11.1171494"><ele>360.0</ele><time>2026-04-04T09:12:51.506Z</time></trkpt><trkpt lat="43.1196189" lon="11.1171545"><ele>360.0</ele><time>2026-04-04T09:12:52.513Z</time></trkpt><trkpt lat="43.1197267" lon="11.1171492"><ele>360.0</ele><time>2026-04-04T09:12:53.508Z</time></trkpt><trkpt lat="43.1198359" lon="11.117131"><ele>360.0</ele><time>2026-04-04T09:12:54.492Z</time></trkpt><trkpt lat="43.1199408" lon="11.1171099"><ele>360.0</ele><time>2026-04-04T09:12:55.499Z</time></trkpt><trkpt lat="43.1200559" lon="11.1170789"><ele>358.8</ele><time>2026-04-04T09:12:56.514Z</time></trkpt><trkpt lat="43.1201658" lon="11.1170342"><ele>357.6</ele><time>2026-04-04T09:12:57.505Z</time></trkpt><trkpt lat="43.1202764" lon="11.1169906"><ele>356.4</ele><time>2026-04-04T09:12:58.51Z</time></trkpt><trkpt lat="43.1203838" lon="11.1169545"><ele>355.2</ele><time>2026-04-04T09:12:59.51Z</time></trkpt><trkpt lat="43.1204861" lon="11.1169223"><ele>354.0</ele><time>2026-04-04T09:13:00.512Z</time></trkpt><trkpt lat="43.1205907" lon="11.1168924"><ele>354.0</ele><time>2026-04-04T09:13:01.517Z</time></trkpt><trkpt lat="43.1207023" lon="11.1168727"><ele>354.0</ele><time>2026-04-04T09:13:02.5Z</time></trkpt><trkpt lat="43.1208035" lon="11.1168557"><ele>354.0</ele><time>2026-04-04T09:13:03.509Z</time></trkpt><trkpt lat="43.120901" lon="11.1168363"><ele>354.0</ele><time>2026-04-04T09:13:04.509Z</time></trkpt><trkpt lat="43.1209962" lon="11.1168076"><ele>354.0</ele><time>2026-04-04T09:13:05.511Z</time></trkpt><trkpt lat="43.121098" lon="11.1167866"><ele>353.79999999999995</ele><time>2026-04-04T09:13:06.517Z</time></trkpt><trkpt lat="43.1211952" lon="11.1167645"><ele>353.59999999999997</ele><time>2026-04-04T09:13:07.501Z</time></trkpt><trkpt lat="43.1213017" lon="11.1167283"><ele>353.4</ele><time>2026-04-04T09:13:08.505Z</time></trkpt><trkpt lat="43.1214123" lon="11.1166861"><ele>353.2</ele><time>2026-04-04T09:13:09.522Z</time></trkpt><trkpt lat="43.1215313" lon="11.1166324"><ele>353.0</ele><time>2026-04-04T09:13:10.507Z</time></trkpt><trkpt lat="43.1216778" lon="11.1165467"><ele>348.0</ele><time>2026-04-04T09:13:11.514Z</time></trkpt><trkpt lat="43.1218248" lon="11.1164599"><ele>343.0</ele><time>2026-04-04T09:13:12.523Z</time></trkpt><trkpt lat="43.1219725" lon="11.116376"><ele>338.0</ele><time>2026-04-04T09:13:13.513Z</time></trkpt><trkpt lat="43.1221157" lon="11.1162995"><ele>338.0</ele><time>2026-04-04T09:13:14.504Z</time></trkpt><trkpt lat="43.122258" lon="11.1162335"><ele>338.0</ele><time>2026-04-04T09:13:15.522Z</time></trkpt><trkpt lat="43.1223868" lon="11.1161749"><ele>338.0</ele><time>2026-04-04T09:13:16.513Z</time></trkpt><trkpt lat="43.1225239" lon="11.1161022"><ele>338.0</ele><time>2026-04-04T09:13:17.532Z</time></trkpt><trkpt lat="43.1226598" lon="11.116018"><ele>338.0</ele><time>2026-04-04T09:13:18.514Z</time></trkpt><trkpt lat="43.1227829" lon="11.1159353"><ele>338.0</ele><time>2026-04-04T09:13:19.512Z</time></trkpt><trkpt lat="43.1228983" lon="11.1158574"><ele>338.0</ele><time>2026-04-04T09:13:20.517Z</time></trkpt><trkpt lat="43.1230068" lon="11.1157775"><ele>338.0</ele><time>2026-04-04T09:13:21.516Z</time></trkpt><trkpt lat="43.1231074" lon="11.115687"><ele>337.0</ele><time>2026-04-04T09:13:22.527Z</time></trkpt><trkpt lat="43.1232024" lon="11.1155841"><ele>336.0</ele><time>2026-04-04T09:13:23.492Z</time></trkpt><trkpt lat="43.1233038" lon="11.1154821"><ele>335.0</ele><time>2026-04-04T09:13:24.489Z</time></trkpt><trkpt lat="43.1234049" lon="11.1153882"><ele>334.0</ele><time>2026-04-04T09:13:25.499Z</time></trkpt><trkpt lat="43.1235077" lon="11.1152855"><ele>334.0</ele><time>2026-04-04T09:13:26.492Z</time></trkpt><trkpt lat="43.123601" lon="11.1151901"><ele>334.0</ele><time>2026-04-04T09:13:27.521Z</time></trkpt><trkpt lat="43.1236839" lon="11.1150748"><ele>334.0</ele><time>2026-04-04T09:13:28.521Z</time></trkpt><trkpt lat="43.1237475" lon="11.1149583"><ele>334.0</ele><time>2026-04-04T09:13:29.495Z</time></trkpt><trkpt lat="43.1238113" lon="11.1148509"><ele>334.0</ele><time>2026-04-04T09:13:30.516Z</time></trkpt><trkpt lat="43.1238697" lon="11.1147416"><ele>333.75</ele><time>2026-04-04T09:13:31.517Z</time></trkpt><trkpt lat="43.1239393" lon="11.1146389"><ele>333.5</ele><time>2026-04-04T09:13:32.519Z</time></trkpt><trkpt lat="43.1240189" lon="11.1145277"><ele>333.25</ele><time>2026-04-04T09:13:33.512Z</time></trkpt><trkpt lat="43.124097" lon="11.1143971"><ele>333.0</ele><time>2026-04-04T09:13:34.532Z</time></trkpt><trkpt lat="43.1241953" lon="11.1142335"><ele>333.0</ele><time>2026-04-04T09:13:35.522Z</time></trkpt><trkpt lat="43.1242949" lon="11.1140496"><ele>333.0</ele><time>2026-04-04T09:13:36.523Z</time></trkpt><trkpt lat="43.1243854" lon="11.1138851"><ele>333.0</ele><time>2026-04-04T09:13:37.522Z</time></trkpt><trkpt lat="43.1244662" lon="11.1137322"><ele>333.0</ele><time>2026-04-04T09:13:38.517Z</time></trkpt><trkpt lat="43.1245489" lon="11.1135932"><ele>333.0</ele><time>2026-04-04T09:13:39.524Z</time></trkpt><trkpt lat="43.1246223" lon="11.1134684"><ele>333.0</ele><time>2026-04-04T09:13:40.52Z</time></trkpt><trkpt lat="43.1246935" lon="11.1133751"><ele>333.0</ele><time>2026-04-04T09:13:41.518Z</time></trkpt><trkpt lat="43.1247711" lon="11.11329"><ele>333.0</ele><time>2026-04-04T09:13:42.507Z</time></trkpt><trkpt lat="43.1248515" lon="11.1132151"><ele>334.2</ele><time>2026-04-04T09:13:43.526Z</time></trkpt><trkpt lat="43.1249376" lon="11.1131449"><ele>335.4</ele><time>2026-04-04T09:13:44.497Z</time></trkpt><trkpt lat="43.1250239" lon="11.1130772"><ele>336.59999999999997</ele><time>2026-04-04T09:13:45.522Z</time></trkpt><trkpt lat="43.1251223" lon="11.1130268"><ele>337.79999999999995</ele><time>2026-04-04T09:13:46.519Z</time></trkpt><trkpt lat="43.125224" lon="11.1129868"><ele>339.0</ele><time>2026-04-04T09:13:47.522Z</time></trkpt><trkpt lat="43.1253358" lon="11.1129523"><ele>339.0</ele><time>2026-04-04T09:13:48.531Z</time></trkpt><trkpt lat="43.1254491" lon="11.1129185"><ele>339.0</ele><time>2026-04-04T09:13:49.522Z</time></trkpt><trkpt lat="43.1255605" lon="11.1128752"><ele>339.0</ele><time>2026-04-04T09:13:50.531Z</time></trkpt><trkpt lat="43.125673" lon="11.1128168"><ele>339.0</ele><time>2026-04-04T09:13:51.517Z</time></trkpt><trkpt lat="43.125771" lon="11.1127517"><ele>339.79999999999995</ele><time>2026-04-04T09:13:52.526Z</time></trkpt><trkpt lat="43.1258637" lon="11.1126838"><ele>340.59999999999997</ele><time>2026-04-04T09:13:53.514Z</time></trkpt><trkpt lat="43.1259492" lon="11.112634"><ele>341.4</ele><time>2026-04-04T09:13:54.52Z</time></trkpt><trkpt lat="43.1260436" lon="11.1126026"><ele>342.2</ele><time>2026-04-04T09:13:55.529Z</time></trkpt><trkpt lat="43.1261424" lon="11.1125867"><ele>343.0</ele><time>2026-04-04T09:13:56.518Z</time></trkpt><trkpt lat="43.1262557" lon="11.1125565"><ele>343.0</ele><time>2026-04-04T09:13:57.514Z</time></trkpt><trkpt lat="43.1263867" lon="11.1125075"><ele>343.0</ele><time>2026-04-04T09:13:58.532Z</time></trkpt><trkpt lat="43.1265152" lon="11.1124467"><ele>343.0</ele><time>2026-04-04T09:13:59.521Z</time></trkpt><trkpt lat="43.1266431" lon="11.1123641"><ele>343.0</ele><time>2026-04-04T09:14:00.519Z</time></trkpt><trkpt lat="43.1267523" lon="11.1122806"><ele>343.25</ele><time>2026-04-04T09:14:01.521Z</time></trkpt><trkpt lat="43.1268492" lon="11.112196"><ele>343.5</ele><time>2026-04-04T09:14:02.515Z</time></trkpt><trkpt lat="43.1269419" lon="11.1121029"><ele>343.75</ele><time>2026-04-04T09:14:03.527Z</time></trkpt><trkpt lat="43.127029" lon="11.1120061"><ele>344.0</ele><time>2026-04-04T09:14:04.499Z</time></trkpt><trkpt lat="43.127111" lon="11.111893"><ele>344.0</ele><time>2026-04-04T09:14:05.511Z</time></trkpt><trkpt lat="43.1272028" lon="11.1117461"><ele>344.0</ele><time>2026-04-04T09:14:06.528Z</time></trkpt><trkpt lat="43.1272985" lon="11.1115952"><ele>344.0</ele><time>2026-04-04T09:14:07.522Z</time></trkpt><trkpt lat="43.1273885" lon="11.1114466"><ele>344.0</ele><time>2026-04-04T09:14:08.527Z</time></trkpt><trkpt lat="43.1274806" lon="11.1112867"><ele>344.5</ele><time>2026-04-04T09:14:09.528Z</time></trkpt><trkpt lat="43.1275687" lon="11.1111261"><ele>345.0</ele><time>2026-04-04T09:14:10.522Z</time></trkpt><trkpt lat="43.1276407" lon="11.1109617"><ele>345.5</ele><time>2026-04-04T09:14:11.518Z</time></trkpt><trkpt lat="43.1276919" lon="11.110801"><ele>346.0</ele><time>2026-04-04T09:14:12.507Z</time></trkpt><trkpt lat="43.1277409" lon="11.1106476"><ele>348.25</ele><time>2026-04-04T09:14:13.511Z</time></trkpt><trkpt lat="43.1278005" lon="11.1105006"><ele>350.5</ele><time>2026-04-04T09:14:14.515Z</time></trkpt><trkpt lat="43.1278675" lon="11.1103449"><ele>352.75</ele><time>2026-04-04T09:14:15.52Z</time></trkpt><trkpt lat="43.1279393" lon="11.1101996"><ele>355.0</ele><time>2026-04-04T09:14:16.516Z</time></trkpt><trkpt lat="43.1280131" lon="11.110077"><ele>355.0</ele><time>2026-04-04T09:14:17.51Z</time></trkpt><trkpt lat="43.1280775" lon="11.1099625"><ele>355.0</ele><time>2026-04-04T09:14:18.521Z</time></trkpt><trkpt lat="43.1281162" lon="11.1098559"><ele>355.0</ele><time>2026-04-04T09:14:19.519Z</time></trkpt><trkpt lat="43.128138" lon="11.1097358"><ele>355.0</ele><time>2026-04-04T09:14:20.514Z</time></trkpt><trkpt lat="43.1281641" lon="11.1096349"><ele>355.0</ele><time>2026-04-04T09:14:21.519Z</time></trkpt><trkpt lat="43.12818" lon="11.109527"><ele>355.0</ele><time>2026-04-04T09:14:22.515Z</time></trkpt><trkpt lat="43.1281999" lon="11.1094279"><ele>354.6</ele><time>2026-04-04T09:14:23.519Z</time></trkpt><trkpt lat="43.1282297" lon="11.109322"><ele>354.2</ele><time>2026-04-04T09:14:24.524Z</time></trkpt><trkpt lat="43.1282828" lon="11.109231"><ele>353.79999999999995</ele><time>2026-04-04T09:14:25.521Z</time></trkpt><trkpt lat="43.1283506" lon="11.1091507"><ele>353.4</ele><time>2026-04-04T09:14:26.517Z</time></trkpt><trkpt lat="43.1284408" lon="11.1090815"><ele>353.0</ele><time>2026-04-04T09:14:27.52Z</time></trkpt><trkpt lat="43.1285432" lon="11.1090368"><ele>353.0</ele><time>2026-04-04T09:14:28.52Z</time></trkpt><trkpt lat="43.1286371" lon="11.1090134"><ele>353.0</ele><time>2026-04-04T09:14:29.498Z</time></trkpt><trkpt lat="43.1287032" lon="11.1089793"><ele>353.0</ele><time>2026-04-04T09:14:30.504Z</time></trkpt><trkpt lat="43.1287667" lon="11.1088833"><ele>353.0</ele><time>2026-04-04T09:14:32.514Z</time></trkpt><trkpt lat="43.1287751" lon="11.1087544"><ele>353.0</ele><time>2026-04-04T09:14:34.519Z</time></trkpt><trkpt lat="43.1287383" lon="11.108605"><ele>353.0</ele><time>2026-04-04T09:14:36.525Z</time></trkpt><trkpt lat="43.1287225" lon="11.1085109"><ele>353.0</ele><time>2026-04-04T09:14:37.513Z</time></trkpt><trkpt lat="43.1287016" lon="11.1084069"><ele>353.0</ele><time>2026-04-04T09:14:38.511Z</time></trkpt><trkpt lat="43.1286893" lon="11.1082854"><ele>353.0</ele><time>2026-04-04T09:14:39.514Z</time></trkpt><trkpt lat="43.128678" lon="11.1081546"><ele>353.0</ele><time>2026-04-04T09:14:40.523Z</time></trkpt><trkpt lat="43.1286703" lon="11.1080266"><ele>353.0</ele><time>2026-04-04T09:14:41.533Z</time></trkpt><trkpt lat="43.1286834" lon="11.1078897"><ele>353.0</ele><time>2026-04-04T09:14:42.513Z</time></trkpt><trkpt lat="43.1287105" lon="11.1077824"><ele>353.0</ele><time>2026-04-04T09:14:43.513Z</time></trkpt><trkpt lat="43.128741" lon="11.1076845"><ele>353.0</ele><time>2026-04-04T09:14:44.524Z</time></trkpt><trkpt lat="43.1287818" lon="11.1076078"><ele>353.0</ele><time>2026-04-04T09:14:45.501Z</time></trkpt><trkpt lat="43.1288479" lon="11.1075166"><ele>353.0</ele><time>2026-04-04T09:14:47.518Z</time></trkpt><trkpt lat="43.1289101" lon="11.1074897"><ele>353.0</ele><time>2026-04-04T09:14:49.528Z</time></trkpt><trkpt lat="43.1289746" lon="11.1075002"><ele>352.5</ele><time>2026-04-04T09:14:51.519Z</time></trkpt><trkpt lat="43.1290752" lon="11.1075287"><ele>352.0</ele><time>2026-04-04T09:14:53.521Z</time></trkpt><trkpt lat="43.1291453" lon="11.1075615"><ele>351.5</ele><time>2026-04-04T09:14:54.52Z</time></trkpt><trkpt lat="43.1292164" lon="11.1075888"><ele>351.0</ele><time>2026-04-04T09:14:55.516Z</time></trkpt><trkpt lat="43.1292892" lon="11.1076009"><ele>350.5</ele><time>2026-04-04T09:14:56.506Z</time></trkpt><trkpt lat="43.1293607" lon="11.1076142"><ele>350.0</ele><time>2026-04-04T09:14:57.509Z</time></trkpt><trkpt lat="43.1294366" lon="11.1076245"><ele>350.0</ele><time>2026-04-04T09:14:58.519Z</time></trkpt><trkpt lat="43.129507" lon="11.1076331"><ele>350.0</ele><time>2026-04-04T09:14:59.519Z</time></trkpt><trkpt lat="43.1295805" lon="11.1076275"><ele>350.0</ele><time>2026-04-04T09:15:00.513Z</time></trkpt><trkpt lat="43.1296447" lon="11.107609"><ele>350.0</ele><time>2026-04-04T09:15:01.529Z</time></trkpt><trkpt lat="43.1297155" lon="11.1075723"><ele>350.0</ele><time>2026-04-04T09:15:02.497Z</time></trkpt><trkpt lat="43.129783" lon="11.107515"><ele>350.0</ele><time>2026-04-04T09:15:03.516Z</time></trkpt><trkpt lat="43.1298408" lon="11.107448"><ele>350.0</ele><time>2026-04-04T09:15:04.524Z</time></trkpt><trkpt lat="43.1298995" lon="11.1073605"><ele>349.4</ele><time>2026-04-04T09:15:05.524Z</time></trkpt><trkpt lat="43.1299549" lon="11.1072471"><ele>348.8</ele><time>2026-04-04T09:15:06.522Z</time></trkpt><trkpt lat="43.1300065" lon="11.1071082"><ele>348.20000000000005</ele><time>2026-04-04T09:15:07.534Z</time></trkpt><trkpt lat="43.1300575" lon="11.1069668"><ele>347.6</ele><time>2026-04-04T09:15:08.517Z</time></trkpt><trkpt lat="43.1301146" lon="11.1068224"><ele>347.0</ele><time>2026-04-04T09:15:09.516Z</time></trkpt><trkpt lat="43.1301738" lon="11.1066892"><ele>347.6</ele><time>2026-04-04T09:15:10.513Z</time></trkpt><trkpt lat="43.1302409" lon="11.1065546"><ele>348.20000000000005</ele><time>2026-04-04T09:15:11.513Z</time></trkpt><trkpt lat="43.1303142" lon="11.1064364"><ele>348.8</ele><time>2026-04-04T09:15:12.513Z</time></trkpt><trkpt lat="43.1303815" lon="11.1063232"><ele>349.4</ele><time>2026-04-04T09:15:13.524Z</time></trkpt><trkpt lat="43.1304514" lon="11.1062214"><ele>350.0</ele><time>2026-04-04T09:15:14.529Z</time></trkpt><trkpt lat="43.1305103" lon="11.1061287"><ele>350.0</ele><time>2026-04-04T09:15:15.516Z</time></trkpt><trkpt lat="43.1305614" lon="11.1060375"><ele>350.0</ele><time>2026-04-04T09:15:16.518Z</time></trkpt><trkpt lat="43.1306131" lon="11.1059329"><ele>350.0</ele><time>2026-04-04T09:15:17.524Z</time></trkpt><trkpt lat="43.1306752" lon="11.1058173"><ele>350.0</ele><time>2026-04-04T09:15:18.52Z</time></trkpt><trkpt lat="43.13075" lon="11.1057157"><ele>350.0</ele><time>2026-04-04T09:15:19.513Z</time></trkpt><trkpt lat="43.1308493" lon="11.105604"><ele>352.0</ele><time>2026-04-04T09:15:20.523Z</time></trkpt><trkpt lat="43.1309489" lon="11.105499"><ele>354.0</ele><time>2026-04-04T09:15:21.515Z</time></trkpt><trkpt lat="43.1310451" lon="11.1053967"><ele>356.0</ele><time>2026-04-04T09:15:22.512Z</time></trkpt><trkpt lat="43.131135" lon="11.1052862"><ele>358.0</ele><time>2026-04-04T09:15:23.517Z</time></trkpt><trkpt lat="43.131226" lon="11.1051692"><ele>358.0</ele><time>2026-04-04T09:15:24.519Z</time></trkpt><trkpt lat="43.1313293" lon="11.1050281"><ele>358.0</ele><time>2026-04-04T09:15:25.512Z</time></trkpt><trkpt lat="43.1314313" lon="11.104884"><ele>358.0</ele><time>2026-04-04T09:15:26.514Z</time></trkpt><trkpt lat="43.131519" lon="11.1047741"><ele>358.0</ele><time>2026-04-04T09:15:27.522Z</time></trkpt><trkpt lat="43.131581" lon="11.1046764"><ele>360.79999999999995</ele><time>2026-04-04T09:15:28.516Z</time></trkpt><trkpt lat="43.1316302" lon="11.1045891"><ele>363.6</ele><time>2026-04-04T09:15:29.505Z</time></trkpt><trkpt lat="43.1316936" lon="11.1044946"><ele>366.4</ele><time>2026-04-04T09:15:30.519Z</time></trkpt><trkpt lat="43.1317604" lon="11.1044129"><ele>369.20000000000005</ele><time>2026-04-04T09:15:31.528Z</time></trkpt><trkpt lat="43.1318412" lon="11.1043336"><ele>372.0</ele><time>2026-04-04T09:15:32.523Z</time></trkpt><trkpt lat="43.1319493" lon="11.1042372"><ele>372.0</ele><time>2026-04-04T09:15:33.506Z</time></trkpt><trkpt lat="43.1320674" lon="11.104133"><ele>372.0</ele><time>2026-04-04T09:15:34.522Z</time></trkpt><trkpt lat="43.1321749" lon="11.1040219"><ele>372.0</ele><time>2026-04-04T09:15:35.515Z</time></trkpt><trkpt lat="43.1322812" lon="11.1039295"><ele>372.0</ele><time>2026-04-04T09:15:36.52Z</time></trkpt><trkpt lat="43.1323876" lon="11.1038294"><ele>371.0</ele><time>2026-04-04T09:15:37.538Z</time></trkpt><trkpt lat="43.1324956" lon="11.1037234"><ele>370.0</ele><time>2026-04-04T09:15:38.511Z</time></trkpt><trkpt lat="43.1326022" lon="11.1036232"><ele>369.0</ele><time>2026-04-04T09:15:39.521Z</time></trkpt><trkpt lat="43.1327047" lon="11.1035249"><ele>368.0</ele><time>2026-04-04T09:15:40.517Z</time></trkpt><trkpt lat="43.132806" lon="11.1034107"><ele>368.0</ele><time>2026-04-04T09:15:41.519Z</time></trkpt><trkpt lat="43.1329142" lon="11.1032966"><ele>368.0</ele><time>2026-04-04T09:15:42.511Z</time></trkpt><trkpt lat="43.1330323" lon="11.1031826"><ele>368.0</ele><time>2026-04-04T09:15:43.497Z</time></trkpt><trkpt lat="43.1331521" lon="11.1030859"><ele>368.0</ele><time>2026-04-04T09:15:44.53Z</time></trkpt><trkpt lat="43.1332681" lon="11.1030035"><ele>368.0</ele><time>2026-04-04T09:15:45.517Z</time></trkpt><trkpt lat="43.1333868" lon="11.1029166"><ele>368.0</ele><time>2026-04-04T09:15:46.517Z</time></trkpt><trkpt lat="43.1335006" lon="11.1028395"><ele>368.0</ele><time>2026-04-04T09:15:47.527Z</time></trkpt><trkpt lat="43.1335956" lon="11.1027636"><ele>368.0</ele><time>2026-04-04T09:15:48.522Z</time></trkpt><trkpt lat="43.1336927" lon="11.1026932"><ele>368.0</ele><time>2026-04-04T09:15:49.517Z</time></trkpt><trkpt lat="43.1337706" lon="11.1026292"><ele>368.0</ele><time>2026-04-04T09:15:50.514Z</time></trkpt><trkpt lat="43.1338368" lon="11.1025608"><ele>368.0</ele><time>2026-04-04T09:15:51.508Z</time></trkpt><trkpt lat="43.1338916" lon="11.1024952"><ele>368.0</ele><time>2026-04-04T09:15:52.51Z</time></trkpt><trkpt lat="43.1339367" lon="11.1024281"><ele>368.0</ele><time>2026-04-04T09:15:53.52Z</time></trkpt><trkpt lat="43.1339801" lon="11.1023461"><ele>368.0</ele><time>2026-04-04T09:15:54.535Z</time></trkpt><trkpt lat="43.1340079" lon="11.1022571"><ele>369.0</ele><time>2026-04-04T09:15:55.528Z</time></trkpt><trkpt lat="43.1340165" lon="11.1021648"><ele>370.0</ele><time>2026-04-04T09:15:56.514Z</time></trkpt><trkpt lat="43.1340255" lon="11.1020651"><ele>371.0</ele><time>2026-04-04T09:15:57.519Z</time></trkpt><trkpt lat="43.1340302" lon="11.1019649"><ele>372.0</ele><time>2026-04-04T09:15:58.505Z</time></trkpt><trkpt lat="43.1341235" lon="11.1018471"><ele>373.0</ele><time>2026-04-04T09:16:00.525Z</time></trkpt><trkpt lat="43.1342118" lon="11.1018187"><ele>374.0</ele><time>2026-04-04T09:16:01.531Z</time></trkpt><trkpt lat="43.1342965" lon="11.1018241"><ele>371.0</ele><time>2026-04-04T09:16:02.516Z</time></trkpt><trkpt lat="43.1343831" lon="11.1018417"><ele>368.0</ele><time>2026-04-04T09:16:03.528Z</time></trkpt><trkpt lat="43.1344734" lon="11.1018389"><ele>365.0</ele><time>2026-04-04T09:16:04.507Z</time></trkpt><trkpt lat="43.1345774" lon="11.1018106"><ele>362.0</ele><time>2026-04-04T09:16:05.533Z</time></trkpt><trkpt lat="43.1346863" lon="11.1017731"><ele>359.0</ele><time>2026-04-04T09:16:06.516Z</time></trkpt><trkpt lat="43.1347939" lon="11.1017399"><ele>358.2</ele><time>2026-04-04T09:16:07.514Z</time></trkpt><trkpt lat="43.1348951" lon="11.1017006"><ele>357.4</ele><time>2026-04-04T09:16:08.524Z</time></trkpt><trkpt lat="43.1349959" lon="11.1016647"><ele>356.6</ele><time>2026-04-04T09:16:09.526Z</time></trkpt><trkpt lat="43.1350863" lon="11.1016196"><ele>355.8</ele><time>2026-04-04T09:16:10.524Z</time></trkpt><trkpt lat="43.1351813" lon="11.1015693"><ele>355.0</ele><time>2026-04-04T09:16:11.512Z</time></trkpt><trkpt lat="43.1352688" lon="11.1015111"><ele>355.0</ele><time>2026-04-04T09:16:12.522Z</time></trkpt><trkpt lat="43.1353567" lon="11.1014531"><ele>355.0</ele><time>2026-04-04T09:16:13.511Z</time></trkpt><trkpt lat="43.1354396" lon="11.1014049"><ele>355.0</ele><time>2026-04-04T09:16:14.514Z</time></trkpt><trkpt lat="43.1355134" lon="11.1013339"><ele>355.0</ele><time>2026-04-04T09:16:15.513Z</time></trkpt><trkpt lat="43.1355713" lon="11.1012354"><ele>355.0</ele><time>2026-04-04T09:16:16.522Z</time></trkpt><trkpt lat="43.1356273" lon="11.10109"><ele>355.0</ele><time>2026-04-04T09:16:17.51Z</time></trkpt><trkpt lat="43.1356846" lon="11.1009372"><ele>355.0</ele><time>2026-04-04T09:16:18.511Z</time></trkpt><trkpt lat="43.1357509" lon="11.1007928"><ele>355.0</ele><time>2026-04-04T09:16:19.511Z</time></trkpt><trkpt lat="43.1358089" lon="11.1006481"><ele>355.0</ele><time>2026-04-04T09:16:20.515Z</time></trkpt><trkpt lat="43.1358651" lon="11.1005087"><ele>352.4</ele><time>2026-04-04T09:16:21.514Z</time></trkpt><trkpt lat="43.1359167" lon="11.1003673"><ele>349.8</ele><time>2026-04-04T09:16:22.517Z</time></trkpt><trkpt lat="43.1359572" lon="11.1002281"><ele>347.20000000000005</ele><time>2026-04-04T09:16:23.514Z</time></trkpt><trkpt lat="43.1359875" lon="11.1001051"><ele>344.6</ele><time>2026-04-04T09:16:24.527Z</time></trkpt><trkpt lat="43.1360196" lon="11.0999793"><ele>342.0</ele><time>2026-04-04T09:16:25.52Z</time></trkpt><trkpt lat="43.1360608" lon="11.0998597"><ele>341.8</ele><time>2026-04-04T09:16:26.523Z</time></trkpt><trkpt lat="43.1361169" lon="11.0997401"><ele>341.6</ele><time>2026-04-04T09:16:27.508Z</time></trkpt><trkpt lat="43.1361778" lon="11.0996218"><ele>341.40000000000003</ele><time>2026-04-04T09:16:28.511Z</time></trkpt><trkpt lat="43.1362336" lon="11.0995"><ele>341.20000000000005</ele><time>2026-04-04T09:16:29.495Z</time></trkpt><trkpt lat="43.1362831" lon="11.0993926"><ele>341.0</ele><time>2026-04-04T09:16:30.505Z</time></trkpt><trkpt lat="43.1363299" lon="11.0992921"><ele>341.0</ele><time>2026-04-04T09:16:31.514Z</time></trkpt><trkpt lat="43.1363736" lon="11.0992048"><ele>341.0</ele><time>2026-04-04T09:16:32.514Z</time></trkpt><trkpt lat="43.1364332" lon="11.0991266"><ele>341.0</ele><time>2026-04-04T09:16:33.51Z</time></trkpt><trkpt lat="43.1364924" lon="11.0990625"><ele>341.0</ele><time>2026-04-04T09:16:34.512Z</time></trkpt><trkpt lat="43.1365456" lon="11.0989952"><ele>341.0</ele><time>2026-04-04T09:16:35.522Z</time></trkpt><trkpt lat="43.1365855" lon="11.0989139"><ele>341.0</ele><time>2026-04-04T09:16:36.505Z</time></trkpt><trkpt lat="43.1366129" lon="11.0988277"><ele>341.0</ele><time>2026-04-04T09:16:37.531Z</time></trkpt><trkpt lat="43.1366248" lon="11.0987343"><ele>340.0</ele><time>2026-04-04T09:16:38.518Z</time></trkpt><trkpt lat="43.1366306" lon="11.0986393"><ele>339.0</ele><time>2026-04-04T09:16:39.514Z</time></trkpt><trkpt lat="43.1366376" lon="11.0985497"><ele>338.0</ele><time>2026-04-04T09:16:40.513Z</time></trkpt><trkpt lat="43.1366774" lon="11.0984226"><ele>337.0</ele><time>2026-04-04T09:16:42.523Z</time></trkpt><trkpt lat="43.136782" lon="11.0983676"><ele>336.0</ele><time>2026-04-04T09:16:44.506Z</time></trkpt><trkpt lat="43.1368539" lon="11.0983505"><ele>335.0</ele><time>2026-04-04T09:16:45.508Z</time></trkpt><trkpt lat="43.1369194" lon="11.0983339"><ele>335.0</ele><time>2026-04-04T09:16:46.527Z</time></trkpt><trkpt lat="43.1369796" lon="11.0983062"><ele>335.0</ele><time>2026-04-04T09:16:47.518Z</time></trkpt><trkpt lat="43.1370344" lon="11.0982073"><ele>335.0</ele><time>2026-04-04T09:16:49.51Z</time></trkpt><trkpt lat="43.1370114" lon="11.0980592"><ele>335.0</ele><time>2026-04-04T09:16:51.52Z</time></trkpt><trkpt lat="43.1369707" lon="11.0979549"><ele>335.0</ele><time>2026-04-04T09:16:52.508Z</time></trkpt><trkpt lat="43.1369248" lon="11.0978374"><ele>335.0</ele><time>2026-04-04T09:16:53.514Z</time></trkpt><trkpt lat="43.1369358" lon="11.0977004"><ele>336.4</ele><time>2026-04-04T09:16:55.516Z</time></trkpt><trkpt lat="43.1370607" lon="11.0976601"><ele>337.8</ele><time>2026-04-04T09:16:57.501Z</time></trkpt><trkpt lat="43.1371457" lon="11.0976375"><ele>339.20000000000005</ele><time>2026-04-04T09:16:58.508Z</time></trkpt><trkpt lat="43.1372282" lon="11.0976113"><ele>340.6</ele><time>2026-04-04T09:16:59.518Z</time></trkpt><trkpt lat="43.1373098" lon="11.097566"><ele>342.0</ele><time>2026-04-04T09:17:00.515Z</time></trkpt><trkpt lat="43.1373854" lon="11.0974827"><ele>344.25</ele><time>2026-04-04T09:17:01.505Z</time></trkpt><trkpt lat="43.1374614" lon="11.0973888"><ele>346.5</ele><time>2026-04-04T09:17:02.503Z</time></trkpt><trkpt lat="43.1375511" lon="11.0972657"><ele>348.75</ele><time>2026-04-04T09:17:03.489Z</time></trkpt><trkpt lat="43.137631" lon="11.0971443"><ele>351.0</ele><time>2026-04-04T09:17:04.517Z</time></trkpt><trkpt lat="43.137701" lon="11.097038"><ele>351.0</ele><time>2026-04-04T09:17:05.509Z</time></trkpt><trkpt lat="43.1377633" lon="11.0969521"><ele>351.0</ele><time>2026-04-04T09:17:06.524Z</time></trkpt><trkpt lat="43.1378225" lon="11.0968791"><ele>351.0</ele><time>2026-04-04T09:17:07.521Z</time></trkpt><trkpt lat="43.1379105" lon="11.0968078"><ele>351.0</ele><time>2026-04-04T09:17:08.506Z</time></trkpt><trkpt lat="43.1380043" lon="11.0967415"><ele>351.0</ele><time>2026-04-04T09:17:09.511Z</time></trkpt><trkpt lat="43.1381063" lon="11.0966863"><ele>351.0</ele><time>2026-04-04T09:17:10.508Z</time></trkpt><trkpt lat="43.1381922" lon="11.0966228"><ele>351.0</ele><time>2026-04-04T09:17:11.5Z</time></trkpt><trkpt lat="43.1382619" lon="11.0965269"><ele>351.0</ele><time>2026-04-04T09:17:12.501Z</time></trkpt><trkpt lat="43.1383265" lon="11.0964523"><ele>351.0</ele><time>2026-04-04T09:17:13.509Z</time></trkpt><trkpt lat="43.1383796" lon="11.0963647"><ele>351.0</ele><time>2026-04-04T09:17:14.501Z</time></trkpt><trkpt lat="43.1384051" lon="11.0962719"><ele>351.0</ele><time>2026-04-04T09:17:15.513Z</time></trkpt><trkpt lat="43.1384171" lon="11.096158"><ele>351.0</ele><time>2026-04-04T09:17:16.511Z</time></trkpt><trkpt lat="43.138413" lon="11.0960556"><ele>351.0</ele><time>2026-04-04T09:17:17.496Z</time></trkpt><trkpt lat="43.1384071" lon="11.0959565"><ele>351.0</ele><time>2026-04-04T09:17:18.494Z</time></trkpt><trkpt lat="43.1384042" lon="11.0958565"><ele>351.0</ele><time>2026-04-04T09:17:19.506Z</time></trkpt><trkpt lat="43.1384048" lon="11.0957358"><ele>351.0</ele><time>2026-04-04T09:17:20.511Z</time></trkpt><trkpt lat="43.1384187" lon="11.0956129"><ele>351.0</ele><time>2026-04-04T09:17:21.508Z</time></trkpt><trkpt lat="43.1384394" lon="11.0954962"><ele>351.0</ele><time>2026-04-04T09:17:22.515Z</time></trkpt><trkpt lat="43.1384777" lon="11.0953757"><ele>351.0</ele><time>2026-04-04T09:17:23.512Z</time></trkpt><trkpt lat="43.1385537" lon="11.095272"><ele>351.0</ele><time>2026-04-04T09:17:24.509Z</time></trkpt><trkpt lat="43.1386347" lon="11.0951566"><ele>351.0</ele><time>2026-04-04T09:17:25.503Z</time></trkpt><trkpt lat="43.1387339" lon="11.0950578"><ele>351.0</ele><time>2026-04-04T09:17:26.494Z</time></trkpt><trkpt lat="43.1388163" lon="11.0949583"><ele>350.6</ele><time>2026-04-04T09:17:27.517Z</time></trkpt><trkpt lat="43.138887" lon="11.0948601"><ele>350.20000000000005</ele><time>2026-04-04T09:17:28.523Z</time></trkpt><trkpt lat="43.138954" lon="11.0947675"><ele>349.79999999999995</ele><time>2026-04-04T09:17:29.503Z</time></trkpt><trkpt lat="43.139021" lon="11.0946843"><ele>349.4</ele><time>2026-04-04T09:17:30.51Z</time></trkpt><trkpt lat="43.1391002" lon="11.0946362"><ele>349.0</ele><time>2026-04-04T09:17:31.519Z</time></trkpt><trkpt lat="43.1391842" lon="11.0945946"><ele>349.0</ele><time>2026-04-04T09:17:32.517Z</time></trkpt><trkpt lat="43.1392681" lon="11.0945666"><ele>349.0</ele><time>2026-04-04T09:17:33.523Z</time></trkpt><trkpt lat="43.1393632" lon="11.0945343"><ele>349.0</ele><time>2026-04-04T09:17:34.496Z</time></trkpt><trkpt lat="43.1394724" lon="11.0945009"><ele>349.0</ele><time>2026-04-04T09:17:35.501Z</time></trkpt><trkpt lat="43.1396216" lon="11.0944517"><ele>349.0</ele><time>2026-04-04T09:17:36.504Z</time></trkpt><trkpt lat="43.1397859" lon="11.0944"><ele>349.0</ele><time>2026-04-04T09:17:37.513Z</time></trkpt><trkpt lat="43.1399519" lon="11.0943484"><ele>349.0</ele><time>2026-04-04T09:17:38.507Z</time></trkpt><trkpt lat="43.1400968" lon="11.0943142"><ele>348.4</ele><time>2026-04-04T09:17:39.507Z</time></trkpt><trkpt lat="43.1402165" lon="11.0942923"><ele>347.79999999999995</ele><time>2026-04-04T09:17:40.518Z</time></trkpt><trkpt lat="43.1403082" lon="11.0942673"><ele>347.20000000000005</ele><time>2026-04-04T09:17:41.505Z</time></trkpt><trkpt lat="43.1404031" lon="11.0942538"><ele>346.6</ele><time>2026-04-04T09:17:42.519Z</time></trkpt><trkpt lat="43.140488" lon="11.0942479"><ele>346.0</ele><time>2026-04-04T09:17:43.52Z</time></trkpt><trkpt lat="43.1405871" lon="11.0942436"><ele>346.0</ele><time>2026-04-04T09:17:44.529Z</time></trkpt><trkpt lat="43.1406838" lon="11.0942555"><ele>346.0</ele><time>2026-04-04T09:17:45.506Z</time></trkpt><trkpt lat="43.1407794" lon="11.0942872"><ele>346.0</ele><time>2026-04-04T09:17:46.515Z</time></trkpt><trkpt lat="43.1408693" lon="11.0943315"><ele>346.0</ele><time>2026-04-04T09:17:47.503Z</time></trkpt><trkpt lat="43.1409606" lon="11.0943756"><ele>346.0</ele><time>2026-04-04T09:17:48.517Z</time></trkpt><trkpt lat="43.1410407" lon="11.0944285"><ele>345.66666666666663</ele><time>2026-04-04T09:17:49.515Z</time></trkpt><trkpt lat="43.1411187" lon="11.0944803"><ele>345.3333333333333</ele><time>2026-04-04T09:17:50.517Z</time></trkpt><trkpt lat="43.1411955" lon="11.0945281"><ele>345.0</ele><time>2026-04-04T09:17:51.513Z</time></trkpt><trkpt lat="43.1412732" lon="11.0945529"><ele>344.6666666666667</ele><time>2026-04-04T09:17:52.515Z</time></trkpt><trkpt lat="43.141339" lon="11.0945714"><ele>344.33333333333337</ele><time>2026-04-04T09:17:53.52Z</time></trkpt><trkpt lat="43.1414026" lon="11.0945839"><ele>344.0</ele><time>2026-04-04T09:17:54.52Z</time></trkpt><trkpt lat="43.1415152" lon="11.0945975"><ele>342.4</ele><time>2026-04-04T09:17:56.517Z</time></trkpt><trkpt lat="43.1416204" lon="11.094544"><ele>340.79999999999995</ele><time>2026-04-04T09:17:58.508Z</time></trkpt><trkpt lat="43.1416776" lon="11.094471"><ele>339.20000000000005</ele><time>2026-04-04T09:17:59.517Z</time></trkpt><trkpt lat="43.1417493" lon="11.0943803"><ele>337.6</ele><time>2026-04-04T09:18:00.506Z</time></trkpt><trkpt lat="43.141823" lon="11.0943077"><ele>336.0</ele><time>2026-04-04T09:18:01.533Z</time></trkpt><trkpt lat="43.1418916" lon="11.0942335"><ele>336.0</ele><time>2026-04-04T09:18:02.525Z</time></trkpt><trkpt lat="43.1419629" lon="11.0941564"><ele>336.0</ele><time>2026-04-04T09:18:03.51Z</time></trkpt><trkpt lat="43.1420341" lon="11.0940886"><ele>336.0</ele><time>2026-04-04T09:18:04.512Z</time></trkpt><trkpt lat="43.142092" lon="11.0940347"><ele>336.0</ele><time>2026-04-04T09:18:05.515Z</time></trkpt><trkpt lat="43.1421745" lon="11.0939459"><ele>336.0</ele><time>2026-04-04T09:18:07.519Z</time></trkpt><trkpt lat="43.1422353" lon="11.0938495"><ele>336.0</ele><time>2026-04-04T09:18:09.532Z</time></trkpt><trkpt lat="43.142275" lon="11.0937239"><ele>335.6666666666667</ele><time>2026-04-04T09:18:11.52Z</time></trkpt><trkpt lat="43.1422976" lon="11.0936396"><ele>335.3333333333333</ele><time>2026-04-04T09:18:13.516Z</time></trkpt><trkpt lat="43.1423185" lon="11.0935209"><ele>335.0</ele><time>2026-04-04T09:18:16.51Z</time></trkpt><trkpt lat="43.1423382" lon="11.0934377"><ele>334.66666666666663</ele><time>2026-04-04T09:18:18.539Z</time></trkpt><trkpt lat="43.1423409" lon="11.0933239"><ele>334.3333333333333</ele><time>2026-04-04T09:18:22.52Z</time></trkpt><trkpt lat="43.1423535" lon="11.0932274"><ele>334.0</ele><time>2026-04-04T09:18:24.521Z</time></trkpt><trkpt lat="43.1423663" lon="11.0930579"><ele>334.0</ele><time>2026-04-04T09:18:26.507Z</time></trkpt><trkpt lat="43.1423672" lon="11.092957"><ele>334.0</ele><time>2026-04-04T09:18:27.519Z</time></trkpt><trkpt lat="43.1423639" lon="11.0928371"><ele>334.0</ele><time>2026-04-04T09:18:28.518Z</time></trkpt><trkpt lat="43.1423592" lon="11.0927084"><ele>334.0</ele><time>2026-04-04T09:18:29.51Z</time></trkpt><trkpt lat="43.1423437" lon="11.0926101"><ele>334.0</ele><time>2026-04-04T09:18:30.522Z</time></trkpt><trkpt lat="43.142325" lon="11.0924678"><ele>334.0</ele><time>2026-04-04T09:18:32.513Z</time></trkpt><trkpt lat="43.142275" lon="11.0923657"><ele>334.0</ele><time>2026-04-04T09:18:34.522Z</time></trkpt><trkpt lat="43.1421898" lon="11.0923479"><ele>334.0</ele><time>2026-04-04T09:18:37.501Z</time></trkpt><trkpt lat="43.1421439" lon="11.0924238"><ele>334.0</ele><time>2026-04-04T09:19:51.499Z</time></trkpt><trkpt lat="43.1421048" lon="11.0923442"><ele>334.0</ele><time>2026-04-04T09:26:25.535Z</time></trkpt><trkpt lat="43.1421078" lon="11.0921955"><ele>334.0</ele><time>2026-04-04T09:26:28.534Z</time></trkpt><trkpt lat="43.1420646" lon="11.0921301"><ele>334.0</ele><time>2026-04-04T09:26:29.541Z</time></trkpt><trkpt lat="43.1419498" lon="11.0920456"><ele>335.0</ele><time>2026-04-04T09:26:30.527Z</time></trkpt><trkpt lat="43.1418104" lon="11.0919354"><ele>336.0</ele><time>2026-04-04T09:26:31.536Z</time></trkpt><trkpt lat="43.1416917" lon="11.0917765"><ele>337.0</ele><time>2026-04-04T09:26:32.499Z</time></trkpt><trkpt lat="43.1415759" lon="11.0915797"><ele>335.3333333333333</ele><time>2026-04-04T09:26:33.539Z</time></trkpt><trkpt lat="43.1414703" lon="11.0913712"><ele>333.6666666666667</ele><time>2026-04-04T09:26:34.499Z</time></trkpt><trkpt lat="43.1413584" lon="11.0911385"><ele>332.0</ele><time>2026-04-04T09:26:35.537Z</time></trkpt><trkpt lat="43.1412536" lon="11.0909072"><ele>333.33333333333337</ele><time>2026-04-04T09:26:36.524Z</time></trkpt><trkpt lat="43.1411537" lon="11.0906718"><ele>334.6666666666667</ele><time>2026-04-04T09:26:37.539Z</time></trkpt><trkpt lat="43.1410701" lon="11.0904532"><ele>336.0</ele><time>2026-04-04T09:26:38.526Z</time></trkpt><trkpt lat="43.1409926" lon="11.0902552"><ele>336.0</ele><time>2026-04-04T09:26:39.52Z</time></trkpt><trkpt lat="43.1409186" lon="11.0900741"><ele>336.0</ele><time>2026-04-04T09:26:40.535Z</time></trkpt><trkpt lat="43.1408313" lon="11.0899068"><ele>336.0</ele><time>2026-04-04T09:26:41.528Z</time></trkpt><trkpt lat="43.1407127" lon="11.0897565"><ele>336.3333333333333</ele><time>2026-04-04T09:26:42.538Z</time></trkpt><trkpt lat="43.140572" lon="11.0896354"><ele>336.66666666666663</ele><time>2026-04-04T09:26:43.531Z</time></trkpt><trkpt lat="43.1404064" lon="11.0895586"><ele>337.0</ele><time>2026-04-04T09:26:44.519Z</time></trkpt><trkpt lat="43.1402376" lon="11.0895002"><ele>337.0</ele><time>2026-04-04T09:26:45.526Z</time></trkpt><trkpt lat="43.1400728" lon="11.0894422"><ele>337.0</ele><time>2026-04-04T09:26:46.539Z</time></trkpt><trkpt lat="43.1399102" lon="11.0893906"><ele>337.0</ele><time>2026-04-04T09:26:47.491Z</time></trkpt><trkpt lat="43.1397406" lon="11.0893631"><ele>340.3333333333333</ele><time>2026-04-04T09:26:48.507Z</time></trkpt><trkpt lat="43.1395638" lon="11.0893743"><ele>343.6666666666667</ele><time>2026-04-04T09:26:49.497Z</time></trkpt><trkpt lat="43.1393619" lon="11.0894107"><ele>347.0</ele><time>2026-04-04T09:26:50.529Z</time></trkpt><trkpt lat="43.1391615" lon="11.0894377"><ele>347.0</ele><time>2026-04-04T09:26:51.525Z</time></trkpt><trkpt lat="43.1389681" lon="11.089464"><ele>347.0</ele><time>2026-04-04T09:26:52.535Z</time></trkpt><trkpt lat="43.1387895" lon="11.0894738"><ele>347.0</ele><time>2026-04-04T09:26:53.528Z</time></trkpt><trkpt lat="43.1386228" lon="11.089477"><ele>347.0</ele><time>2026-04-04T09:26:54.546Z</time></trkpt><trkpt lat="43.1384549" lon="11.08947"><ele>347.0</ele><time>2026-04-04T09:26:55.509Z</time></trkpt><trkpt lat="43.1382898" lon="11.0894182"><ele>347.0</ele><time>2026-04-04T09:26:56.526Z</time></trkpt><trkpt lat="43.1381208" lon="11.0893321"><ele>348.33333333333337</ele><time>2026-04-04T09:26:57.518Z</time></trkpt><trkpt lat="43.1379478" lon="11.0892256"><ele>349.6666666666667</ele><time>2026-04-04T09:26:58.533Z</time></trkpt><trkpt lat="43.1377692" lon="11.0891021"><ele>351.0</ele><time>2026-04-04T09:26:59.52Z</time></trkpt><trkpt lat="43.1375987" lon="11.0889935"><ele>351.0</ele><time>2026-04-04T09:27:00.514Z</time></trkpt><trkpt lat="43.1374255" lon="11.0888737"><ele>351.0</ele><time>2026-04-04T09:27:01.535Z</time></trkpt><trkpt lat="43.1372532" lon="11.0887264"><ele>351.0</ele><time>2026-04-04T09:27:02.516Z</time></trkpt><trkpt lat="43.1370724" lon="11.0885807"><ele>350.3333333333333</ele><time>2026-04-04T09:27:03.528Z</time></trkpt><trkpt lat="43.1368967" lon="11.0884372"><ele>349.66666666666663</ele><time>2026-04-04T09:27:04.525Z</time></trkpt><trkpt lat="43.1367366" lon="11.0883038"><ele>349.0</ele><time>2026-04-04T09:27:05.529Z</time></trkpt><trkpt lat="43.1365907" lon="11.0881756"><ele>346.66666666666663</ele><time>2026-04-04T09:27:06.512Z</time></trkpt><trkpt lat="43.136458" lon="11.0880632"><ele>344.3333333333333</ele><time>2026-04-04T09:27:07.526Z</time></trkpt><trkpt lat="43.1363285" lon="11.087951"><ele>342.0</ele><time>2026-04-04T09:27:08.523Z</time></trkpt><trkpt lat="43.1362091" lon="11.0878331"><ele>342.0</ele><time>2026-04-04T09:27:09.528Z</time></trkpt><trkpt lat="43.1361272" lon="11.0876689"><ele>342.0</ele><time>2026-04-04T09:27:10.521Z</time></trkpt><trkpt lat="43.1360728" lon="11.0874659"><ele>342.0</ele><time>2026-04-04T09:27:11.526Z</time></trkpt><trkpt lat="43.1360402" lon="11.0872416"><ele>341.6666666666667</ele><time>2026-04-04T09:27:12.521Z</time></trkpt><trkpt lat="43.1360075" lon="11.0870042"><ele>341.33333333333337</ele><time>2026-04-04T09:27:13.511Z</time></trkpt><trkpt lat="43.1359697" lon="11.0867385"><ele>341.0</ele><time>2026-04-04T09:27:14.549Z</time></trkpt><trkpt lat="43.1359281" lon="11.0864831"><ele>342.0</ele><time>2026-04-04T09:27:15.532Z</time></trkpt><trkpt lat="43.1358849" lon="11.0862106"><ele>343.0</ele><time>2026-04-04T09:27:16.553Z</time></trkpt><trkpt lat="43.1358307" lon="11.085946"><ele>344.0</ele><time>2026-04-04T09:27:17.538Z</time></trkpt><trkpt lat="43.1357705" lon="11.0856875"><ele>342.6666666666667</ele><time>2026-04-04T09:27:18.544Z</time></trkpt><trkpt lat="43.1357124" lon="11.0854416"><ele>341.3333333333333</ele><time>2026-04-04T09:27:19.54Z</time></trkpt><trkpt lat="43.1356475" lon="11.0852031"><ele>340.0</ele><time>2026-04-04T09:27:20.542Z</time></trkpt><trkpt lat="43.1355618" lon="11.0849668"><ele>341.0</ele><time>2026-04-04T09:27:21.549Z</time></trkpt><trkpt lat="43.1354436" lon="11.0847593"><ele>342.0</ele><time>2026-04-04T09:27:22.539Z</time></trkpt><trkpt lat="43.1352957" lon="11.0845699"><ele>343.0</ele><time>2026-04-04T09:27:23.536Z</time></trkpt><trkpt lat="43.1351297" lon="11.0844158"><ele>343.0</ele><time>2026-04-04T09:27:24.494Z</time></trkpt><trkpt lat="43.134947" lon="11.0842829"><ele>343.0</ele><time>2026-04-04T09:27:25.504Z</time></trkpt><trkpt lat="43.1347605" lon="11.0841603"><ele>343.0</ele><time>2026-04-04T09:27:26.515Z</time></trkpt><trkpt lat="43.1345795" lon="11.0840284"><ele>343.66666666666663</ele><time>2026-04-04T09:27:27.522Z</time></trkpt><trkpt lat="43.1344127" lon="11.0838591"><ele>344.3333333333333</ele><time>2026-04-04T09:27:28.541Z</time></trkpt><trkpt lat="43.1342513" lon="11.0836554"><ele>345.0</ele><time>2026-04-04T09:27:29.528Z</time></trkpt><trkpt lat="43.134081" lon="11.083427"><ele>345.0</ele><time>2026-04-04T09:27:30.537Z</time></trkpt><trkpt lat="43.1339086" lon="11.083191"><ele>345.0</ele><time>2026-04-04T09:27:31.531Z</time></trkpt><trkpt lat="43.1337409" lon="11.0829542"><ele>345.0</ele><time>2026-04-04T09:27:32.529Z</time></trkpt><trkpt lat="43.1335629" lon="11.0827301"><ele>345.0</ele><time>2026-04-04T09:27:33.54Z</time></trkpt><trkpt lat="43.1333974" lon="11.0825101"><ele>344.5</ele><time>2026-04-04T09:27:34.529Z</time></trkpt><trkpt lat="43.13323" lon="11.0822956"><ele>344.0</ele><time>2026-04-04T09:27:35.535Z</time></trkpt><trkpt lat="43.1330619" lon="11.082079"><ele>343.33333333333337</ele><time>2026-04-04T09:27:36.536Z</time></trkpt><trkpt lat="43.1328975" lon="11.0818661"><ele>342.6666666666667</ele><time>2026-04-04T09:27:37.557Z</time></trkpt><trkpt lat="43.1327386" lon="11.0816594"><ele>342.0</ele><time>2026-04-04T09:27:38.525Z</time></trkpt><trkpt lat="43.1325904" lon="11.0814644"><ele>343.0</ele><time>2026-04-04T09:27:39.529Z</time></trkpt><trkpt lat="43.1324467" lon="11.0812726"><ele>344.0</ele><time>2026-04-04T09:27:40.536Z</time></trkpt><trkpt lat="43.1323008" lon="11.0810862"><ele>345.0</ele><time>2026-04-04T09:27:41.534Z</time></trkpt><trkpt lat="43.1321477" lon="11.0808883"><ele>346.3333333333333</ele><time>2026-04-04T09:27:42.514Z</time></trkpt><trkpt lat="43.1319998" lon="11.0806981"><ele>347.66666666666663</ele><time>2026-04-04T09:27:43.519Z</time></trkpt><trkpt lat="43.1318485" lon="11.0805069"><ele>349.0</ele><time>2026-04-04T09:27:44.526Z</time></trkpt><trkpt lat="43.1317027" lon="11.0803058"><ele>349.0</ele><time>2026-04-04T09:27:45.534Z</time></trkpt><trkpt lat="43.1315691" lon="11.0801007"><ele>349.0</ele><time>2026-04-04T09:27:46.526Z</time></trkpt><trkpt lat="43.131437" lon="11.0799023"><ele>349.0</ele><time>2026-04-04T09:27:47.528Z</time></trkpt><trkpt lat="43.1313121" lon="11.079713"><ele>348.0</ele><time>2026-04-04T09:27:48.502Z</time></trkpt><trkpt lat="43.131194" lon="11.0795378"><ele>347.0</ele><time>2026-04-04T09:27:49.524Z</time></trkpt><trkpt lat="43.1310805" lon="11.0793649"><ele>346.0</ele><time>2026-04-04T09:27:50.531Z</time></trkpt><trkpt lat="43.1309767" lon="11.0791979"><ele>346.3333333333333</ele><time>2026-04-04T09:27:51.525Z</time></trkpt><trkpt lat="43.1308735" lon="11.0790246"><ele>346.6666666666667</ele><time>2026-04-04T09:27:52.532Z</time></trkpt><trkpt lat="43.130779" lon="11.0788379"><ele>347.0</ele><time>2026-04-04T09:27:53.529Z</time></trkpt><trkpt lat="43.1307144" lon="11.0786275"><ele>346.6666666666667</ele><time>2026-04-04T09:27:54.53Z</time></trkpt><trkpt lat="43.1306588" lon="11.0783904"><ele>346.3333333333333</ele><time>2026-04-04T09:27:55.528Z</time></trkpt><trkpt lat="43.1306102" lon="11.0781512"><ele>346.0</ele><time>2026-04-04T09:27:56.534Z</time></trkpt><trkpt lat="43.1305552" lon="11.0779254"><ele>346.0</ele><time>2026-04-04T09:27:57.53Z</time></trkpt><trkpt lat="43.1304838" lon="11.0777024"><ele>346.0</ele><time>2026-04-04T09:27:58.53Z</time></trkpt><trkpt lat="43.1303788" lon="11.0774993"><ele>346.0</ele><time>2026-04-04T09:27:59.509Z</time></trkpt><trkpt lat="43.1302427" lon="11.0773455"><ele>347.3333333333333</ele><time>2026-04-04T09:28:00.537Z</time></trkpt><trkpt lat="43.1300787" lon="11.0772235"><ele>348.6666666666667</ele><time>2026-04-04T09:28:01.543Z</time></trkpt><trkpt lat="43.1298837" lon="11.0771201"><ele>350.0</ele><time>2026-04-04T09:28:02.535Z</time></trkpt><trkpt lat="43.1296773" lon="11.0770277"><ele>350.0</ele><time>2026-04-04T09:28:03.532Z</time></trkpt><trkpt lat="43.129475" lon="11.0769419"><ele>350.0</ele><time>2026-04-04T09:28:04.531Z</time></trkpt><trkpt lat="43.1292916" lon="11.0768632"><ele>350.0</ele><time>2026-04-04T09:28:05.527Z</time></trkpt><trkpt lat="43.1291386" lon="11.0767917"><ele>349.0</ele><time>2026-04-04T09:28:06.54Z</time></trkpt><trkpt lat="43.1290052" lon="11.0767177"><ele>348.0</ele><time>2026-04-04T09:28:07.517Z</time></trkpt><trkpt lat="43.1289008" lon="11.0765824"><ele>347.0</ele><time>2026-04-04T09:28:08.534Z</time></trkpt><trkpt lat="43.1288403" lon="11.0763968"><ele>346.0</ele><time>2026-04-04T09:28:09.508Z</time></trkpt><trkpt lat="43.1288081" lon="11.0761783"><ele>346.0</ele><time>2026-04-04T09:28:10.535Z</time></trkpt><trkpt lat="43.1287754" lon="11.0759328"><ele>346.0</ele><time>2026-04-04T09:28:11.557Z</time></trkpt><trkpt lat="43.1287527" lon="11.0756682"><ele>346.0</ele><time>2026-04-04T09:28:12.505Z</time></trkpt><trkpt lat="43.1287186" lon="11.0753877"><ele>347.0</ele><time>2026-04-04T09:28:13.534Z</time></trkpt><trkpt lat="43.1286811" lon="11.0750755"><ele>348.0</ele><time>2026-04-04T09:28:14.524Z</time></trkpt><trkpt lat="43.12863" lon="11.074753"><ele>348.3333333333333</ele><time>2026-04-04T09:28:15.528Z</time></trkpt><trkpt lat="43.128588" lon="11.0744687"><ele>348.66666666666663</ele><time>2026-04-04T09:28:16.537Z</time></trkpt><trkpt lat="43.1285555" lon="11.0742301"><ele>349.0</ele><time>2026-04-04T09:28:17.533Z</time></trkpt><trkpt lat="43.1285289" lon="11.0740507"><ele>349.66666666666663</ele><time>2026-04-04T09:28:18.541Z</time></trkpt><trkpt lat="43.1285037" lon="11.0739302"><ele>350.3333333333333</ele><time>2026-04-04T09:28:19.5Z</time></trkpt><trkpt lat="43.1284941" lon="11.0738404"><ele>351.0</ele><time>2026-04-04T09:28:20.514Z</time></trkpt><trkpt lat="43.1285188" lon="11.0737408"><ele>351.6666666666667</ele><time>2026-04-04T09:28:22.538Z</time></trkpt><trkpt lat="43.1286003" lon="11.073808"><ele>352.33333333333337</ele><time>2026-04-04T09:28:25.527Z</time></trkpt><trkpt lat="43.1286148" lon="11.0738964"><ele>353.0</ele><time>2026-04-04T09:28:26.526Z</time></trkpt><trkpt lat="43.1286218" lon="11.0740183"><ele>352.0</ele><time>2026-04-04T09:28:27.525Z</time></trkpt><trkpt lat="43.1286521" lon="11.0741721"><ele>351.0</ele><time>2026-04-04T09:28:28.528Z</time></trkpt><trkpt lat="43.1286954" lon="11.0743398"><ele>350.0</ele><time>2026-04-04T09:28:29.547Z</time></trkpt><trkpt lat="43.1287564" lon="11.0745171"><ele>349.0</ele><time>2026-04-04T09:28:30.536Z</time></trkpt><trkpt lat="43.1288178" lon="11.0746653"><ele>349.0</ele><time>2026-04-04T09:28:31.527Z</time></trkpt><trkpt lat="43.1288961" lon="11.0747868"><ele>349.0</ele><time>2026-04-04T09:28:32.537Z</time></trkpt><trkpt lat="43.1289926" lon="11.0748616"><ele>349.0</ele><time>2026-04-04T09:28:33.541Z</time></trkpt><trkpt lat="43.1291155" lon="11.0748824"><ele>349.0</ele><time>2026-04-04T09:28:34.543Z</time></trkpt><trkpt lat="43.1292354" lon="11.0748377"><ele>352.5</ele><time>2026-04-04T09:28:35.528Z</time></trkpt><trkpt lat="43.1293567" lon="11.0747325"><ele>356.0</ele><time>2026-04-04T09:28:36.52Z</time></trkpt><trkpt lat="43.1294355" lon="11.0745896"><ele>359.5</ele><time>2026-04-04T09:28:37.517Z</time></trkpt><trkpt lat="43.129474" lon="11.0744047"><ele>363.0</ele><time>2026-04-04T09:28:38.525Z</time></trkpt><trkpt lat="43.1294794" lon="11.0741919"><ele>365.3333333333333</ele><time>2026-04-04T09:28:39.53Z</time></trkpt><trkpt lat="43.1295015" lon="11.073979"><ele>367.66666666666663</ele><time>2026-04-04T09:28:40.516Z</time></trkpt><trkpt lat="43.1295591" lon="11.0737996"><ele>370.0</ele><time>2026-04-04T09:28:41.54Z</time></trkpt><trkpt lat="43.1296593" lon="11.0736264"><ele>370.0</ele><time>2026-04-04T09:28:42.536Z</time></trkpt><trkpt lat="43.1297625" lon="11.0734539"><ele>370.0</ele><time>2026-04-04T09:28:43.536Z</time></trkpt><trkpt lat="43.1298731" lon="11.0732313"><ele>370.0</ele><time>2026-04-04T09:28:44.537Z</time></trkpt><trkpt lat="43.1299676" lon="11.0729978"><ele>370.0</ele><time>2026-04-04T09:28:45.53Z</time></trkpt><trkpt lat="43.1300538" lon="11.0727378"><ele>370.0</ele><time>2026-04-04T09:28:46.541Z</time></trkpt><trkpt lat="43.1301398" lon="11.0724723"><ele>370.0</ele><time>2026-04-04T09:28:47.534Z</time></trkpt><trkpt lat="43.1302196" lon="11.0722175"><ele>372.66666666666663</ele><time>2026-04-04T09:28:48.539Z</time></trkpt><trkpt lat="43.1302848" lon="11.0719914"><ele>375.3333333333333</ele><time>2026-04-04T09:28:49.531Z</time></trkpt><trkpt lat="43.1303408" lon="11.0717777"><ele>378.0</ele><time>2026-04-04T09:28:50.522Z</time></trkpt><trkpt lat="43.1303901" lon="11.0715881"><ele>378.25</ele><time>2026-04-04T09:28:51.545Z</time></trkpt><trkpt lat="43.1304534" lon="11.071422"><ele>378.5</ele><time>2026-04-04T09:28:52.513Z</time></trkpt><trkpt lat="43.1305423" lon="11.071269"><ele>378.75</ele><time>2026-04-04T09:28:53.527Z</time></trkpt><trkpt lat="43.1306684" lon="11.0711562"><ele>379.0</ele><time>2026-04-04T09:28:54.529Z</time></trkpt><trkpt lat="43.1308138" lon="11.0710712"><ele>379.0</ele><time>2026-04-04T09:28:55.524Z</time></trkpt><trkpt lat="43.1309658" lon="11.0709962"><ele>379.0</ele><time>2026-04-04T09:28:56.524Z</time></trkpt><trkpt lat="43.1311086" lon="11.070911"><ele>379.0</ele><time>2026-04-04T09:28:57.538Z</time></trkpt><trkpt lat="43.1312445" lon="11.070789"><ele>380.66666666666663</ele><time>2026-04-04T09:28:58.529Z</time></trkpt><trkpt lat="43.1313768" lon="11.070646"><ele>382.3333333333333</ele><time>2026-04-04T09:28:59.535Z</time></trkpt><trkpt lat="43.1315092" lon="11.0704725"><ele>384.0</ele><time>2026-04-04T09:29:00.518Z</time></trkpt><trkpt lat="43.1316331" lon="11.0702539"><ele>384.0</ele><time>2026-04-04T09:29:01.513Z</time></trkpt><trkpt lat="43.1317584" lon="11.0700078"><ele>384.0</ele><time>2026-04-04T09:29:02.53Z</time></trkpt><trkpt lat="43.1318628" lon="11.0697849"><ele>384.0</ele><time>2026-04-04T09:29:03.541Z</time></trkpt><trkpt lat="43.1319552" lon="11.0696043"><ele>386.0</ele><time>2026-04-04T09:29:04.541Z</time></trkpt><trkpt lat="43.1320652" lon="11.0694957"><ele>388.0</ele><time>2026-04-04T09:29:05.531Z</time></trkpt><trkpt lat="43.1322168" lon="11.069401"><ele>390.0</ele><time>2026-04-04T09:29:06.526Z</time></trkpt><trkpt lat="43.1323921" lon="11.0693027"><ele>391.0</ele><time>2026-04-04T09:29:07.524Z</time></trkpt><trkpt lat="43.1325897" lon="11.0692003"><ele>392.0</ele><time>2026-04-04T09:29:08.539Z</time></trkpt><trkpt lat="43.1327738" lon="11.0690484"><ele>393.0</ele><time>2026-04-04T09:29:09.535Z</time></trkpt><trkpt lat="43.1329615" lon="11.0688545"><ele>391.66666666666663</ele><time>2026-04-04T09:29:10.525Z</time></trkpt><trkpt lat="43.1331457" lon="11.068671"><ele>390.3333333333333</ele><time>2026-04-04T09:29:11.532Z</time></trkpt><trkpt lat="43.1333126" lon="11.0684909"><ele>389.0</ele><time>2026-04-04T09:29:12.54Z</time></trkpt><trkpt lat="43.1334684" lon="11.0683143"><ele>390.66666666666663</ele><time>2026-04-04T09:29:13.52Z</time></trkpt><trkpt lat="43.1335841" lon="11.0681585"><ele>392.33333333333337</ele><time>2026-04-04T09:29:14.523Z</time></trkpt><trkpt lat="43.1337075" lon="11.0680221"><ele>394.0</ele><time>2026-04-04T09:29:15.536Z</time></trkpt><trkpt lat="43.1338455" lon="11.067926"><ele>394.0</ele><time>2026-04-04T09:29:16.53Z</time></trkpt><trkpt lat="43.1340073" lon="11.067827"><ele>394.0</ele><time>2026-04-04T09:29:17.546Z</time></trkpt><trkpt lat="43.1341648" lon="11.0677121"><ele>394.0</ele><time>2026-04-04T09:29:18.514Z</time></trkpt><trkpt lat="43.1343151" lon="11.0676016"><ele>393.6666666666667</ele><time>2026-04-04T09:29:19.501Z</time></trkpt><trkpt lat="43.1344638" lon="11.0674841"><ele>393.33333333333337</ele><time>2026-04-04T09:29:20.53Z</time></trkpt><trkpt lat="43.134627" lon="11.0673682"><ele>393.0</ele><time>2026-04-04T09:29:21.522Z</time></trkpt><trkpt lat="43.134787" lon="11.0672127"><ele>395.66666666666663</ele><time>2026-04-04T09:29:22.539Z</time></trkpt><trkpt lat="43.1349449" lon="11.0670298"><ele>398.3333333333333</ele><time>2026-04-04T09:29:23.534Z</time></trkpt><trkpt lat="43.1350826" lon="11.0668399"><ele>401.0</ele><time>2026-04-04T09:29:24.524Z</time></trkpt><trkpt lat="43.1351957" lon="11.0666308"><ele>404.3333333333333</ele><time>2026-04-04T09:29:25.539Z</time></trkpt><trkpt lat="43.135286" lon="11.0664432"><ele>407.66666666666663</ele><time>2026-04-04T09:29:26.524Z</time></trkpt><trkpt lat="43.1353796" lon="11.0662866"><ele>411.0</ele><time>2026-04-04T09:29:27.534Z</time></trkpt><trkpt lat="43.1355059" lon="11.0661653"><ele>411.0</ele><time>2026-04-04T09:29:28.537Z</time></trkpt><trkpt lat="43.1356605" lon="11.0660359"><ele>411.0</ele><time>2026-04-04T09:29:29.532Z</time></trkpt><trkpt lat="43.135829" lon="11.0658629"><ele>411.0</ele><time>2026-04-04T09:29:30.521Z</time></trkpt><trkpt lat="43.1360222" lon="11.0656924"><ele>413.33333333333337</ele><time>2026-04-04T09:29:31.521Z</time></trkpt><trkpt lat="43.1362018" lon="11.0655463"><ele>415.6666666666667</ele><time>2026-04-04T09:29:32.523Z</time></trkpt><trkpt lat="43.1363573" lon="11.0654276"><ele>418.0</ele><time>2026-04-04T09:29:33.516Z</time></trkpt><trkpt lat="43.1365199" lon="11.0652868"><ele>418.6666666666667</ele><time>2026-04-04T09:29:34.507Z</time></trkpt><trkpt lat="43.1366702" lon="11.0651252"><ele>419.33333333333337</ele><time>2026-04-04T09:29:35.514Z</time></trkpt><trkpt lat="43.136794" lon="11.0649469"><ele>420.0</ele><time>2026-04-04T09:29:36.53Z</time></trkpt><trkpt lat="43.1368846" lon="11.0647721"><ele>420.0</ele><time>2026-04-04T09:29:37.522Z</time></trkpt><trkpt lat="43.1369572" lon="11.0645872"><ele>420.0</ele><time>2026-04-04T09:29:38.528Z</time></trkpt><trkpt lat="43.1370144" lon="11.0643996"><ele>420.0</ele><time>2026-04-04T09:29:39.532Z</time></trkpt><trkpt lat="43.1370652" lon="11.0642549"><ele>420.0</ele><time>2026-04-04T09:29:40.531Z</time></trkpt><trkpt lat="43.1371295" lon="11.0641362"><ele>419.6666666666667</ele><time>2026-04-04T09:29:41.529Z</time></trkpt><trkpt lat="43.1372104" lon="11.0640626"><ele>419.33333333333337</ele><time>2026-04-04T09:29:42.526Z</time></trkpt><trkpt lat="43.1372888" lon="11.064039"><ele>419.0</ele><time>2026-04-04T09:29:43.524Z</time></trkpt><trkpt lat="43.1373518" lon="11.0640637"><ele>418.6666666666667</ele><time>2026-04-04T09:29:44.525Z</time></trkpt><trkpt lat="43.1374206" lon="11.0641454"><ele>418.33333333333337</ele><time>2026-04-04T09:29:45.535Z</time></trkpt><trkpt lat="43.137485" lon="11.0642768"><ele>418.0</ele><time>2026-04-04T09:29:46.525Z</time></trkpt><trkpt lat="43.137518" lon="11.0644278"><ele>418.0</ele><time>2026-04-04T09:29:47.528Z</time></trkpt><trkpt lat="43.1375241" lon="11.0645748"><ele>418.0</ele><time>2026-04-04T09:29:48.532Z</time></trkpt><trkpt lat="43.1374994" lon="11.0647219"><ele>418.0</ele><time>2026-04-04T09:29:49.525Z</time></trkpt><trkpt lat="43.1374693" lon="11.0648713"><ele>418.0</ele><time>2026-04-04T09:29:50.531Z</time></trkpt><trkpt lat="43.1374446" lon="11.0650259"><ele>418.0</ele><time>2026-04-04T09:29:51.511Z</time></trkpt><trkpt lat="43.1374211" lon="11.0651891"><ele>419.0</ele><time>2026-04-04T09:29:52.492Z</time></trkpt><trkpt lat="43.1373888" lon="11.0653358"><ele>420.0</ele><time>2026-04-04T09:29:53.509Z</time></trkpt><trkpt lat="43.1373284" lon="11.065482"><ele>421.0</ele><time>2026-04-04T09:29:54.534Z</time></trkpt><trkpt lat="43.1372407" lon="11.0656099"><ele>422.0</ele><time>2026-04-04T09:29:55.518Z</time></trkpt><trkpt lat="43.1371412" lon="11.0657349"><ele>419.5</ele><time>2026-04-04T09:29:56.524Z</time></trkpt><trkpt lat="43.1370428" lon="11.0658741"><ele>417.0</ele><time>2026-04-04T09:29:57.527Z</time></trkpt><trkpt lat="43.1369542" lon="11.0660254"><ele>414.5</ele><time>2026-04-04T09:29:58.53Z</time></trkpt><trkpt lat="43.1368699" lon="11.0661807"><ele>412.0</ele><time>2026-04-04T09:29:59.519Z</time></trkpt><trkpt lat="43.1367862" lon="11.0663337"><ele>412.0</ele><time>2026-04-04T09:30:00.497Z</time></trkpt><trkpt lat="43.1367015" lon="11.0664816"><ele>412.0</ele><time>2026-04-04T09:30:01.53Z</time></trkpt><trkpt lat="43.1366271" lon="11.0666296"><ele>412.0</ele><time>2026-04-04T09:30:02.526Z</time></trkpt><trkpt lat="43.1365551" lon="11.0667499"><ele>412.0</ele><time>2026-04-04T09:30:03.538Z</time></trkpt><trkpt lat="43.1364948" lon="11.0668476"><ele>411.0</ele><time>2026-04-04T09:30:04.537Z</time></trkpt><trkpt lat="43.1364516" lon="11.0669371"><ele>410.0</ele><time>2026-04-04T09:30:05.529Z</time></trkpt><trkpt lat="43.1364412" lon="11.0670251"><ele>409.0</ele><time>2026-04-04T09:30:06.549Z</time></trkpt><trkpt lat="43.1365455" lon="11.0670731"><ele>408.0</ele><time>2026-04-04T09:30:08.542Z</time></trkpt><trkpt lat="43.1366241" lon="11.0670063"><ele>407.0</ele><time>2026-04-04T09:30:09.547Z</time></trkpt><trkpt lat="43.1366918" lon="11.066885"><ele>408.66666666666663</ele><time>2026-04-04T09:30:10.547Z</time></trkpt><trkpt lat="43.1367818" lon="11.0667306"><ele>410.33333333333337</ele><time>2026-04-04T09:30:11.548Z</time></trkpt><trkpt lat="43.1369077" lon="11.0665834"><ele>412.0</ele><time>2026-04-04T09:30:12.545Z</time></trkpt><trkpt lat="43.1370539" lon="11.066442"><ele>412.0</ele><time>2026-04-04T09:30:13.536Z</time></trkpt><trkpt lat="43.1372101" lon="11.0663001"><ele>412.0</ele><time>2026-04-04T09:30:14.541Z</time></trkpt><trkpt lat="43.1373821" lon="11.0661476"><ele>412.0</ele><time>2026-04-04T09:30:15.553Z</time></trkpt><trkpt lat="43.1375718" lon="11.0659953"><ele>415.33333333333337</ele><time>2026-04-04T09:30:16.546Z</time></trkpt><trkpt lat="43.1377571" lon="11.0658639"><ele>418.66666666666663</ele><time>2026-04-04T09:30:17.546Z</time></trkpt><trkpt lat="43.1379303" lon="11.0657504"><ele>422.0</ele><time>2026-04-04T09:30:18.526Z</time></trkpt><trkpt lat="43.1380862" lon="11.0656445"><ele>426.5</ele><time>2026-04-04T09:30:19.535Z</time></trkpt><trkpt lat="43.1382206" lon="11.0655508"><ele>431.0</ele><time>2026-04-04T09:30:20.541Z</time></trkpt><trkpt lat="43.1383499" lon="11.0654952"><ele>435.5</ele><time>2026-04-04T09:30:21.538Z</time></trkpt><trkpt lat="43.1384849" lon="11.0654768"><ele>440.0</ele><time>2026-04-04T09:30:22.538Z</time></trkpt><trkpt lat="43.1386336" lon="11.0655126"><ele>440.0</ele><time>2026-04-04T09:30:23.537Z</time></trkpt><trkpt lat="43.1387881" lon="11.0655685"><ele>440.0</ele><time>2026-04-04T09:30:24.531Z</time></trkpt><trkpt lat="43.1389347" lon="11.0655925"><ele>440.0</ele><time>2026-04-04T09:30:25.536Z</time></trkpt><trkpt lat="43.1390667" lon="11.0655778"><ele>440.0</ele><time>2026-04-04T09:30:26.542Z</time></trkpt><trkpt lat="43.1391719" lon="11.0655149"><ele>441.75</ele><time>2026-04-04T09:30:27.54Z</time></trkpt><trkpt lat="43.1392411" lon="11.0654243"><ele>443.5</ele><time>2026-04-04T09:30:28.534Z</time></trkpt><trkpt lat="43.1393013" lon="11.0652733"><ele>445.25</ele><time>2026-04-04T09:30:29.544Z</time></trkpt><trkpt lat="43.1393589" lon="11.0650778"><ele>447.0</ele><time>2026-04-04T09:30:30.522Z</time></trkpt><trkpt lat="43.1394032" lon="11.064855"><ele>447.0</ele><time>2026-04-04T09:30:31.527Z</time></trkpt><trkpt lat="43.139447" lon="11.0646201"><ele>447.0</ele><time>2026-04-04T09:30:32.529Z</time></trkpt><trkpt lat="43.1394911" lon="11.0643959"><ele>447.0</ele><time>2026-04-04T09:30:33.526Z</time></trkpt><trkpt lat="43.1395489" lon="11.0642107"><ele>447.25</ele><time>2026-04-04T09:30:34.533Z</time></trkpt><trkpt lat="43.1396266" lon="11.0640497"><ele>447.5</ele><time>2026-04-04T09:30:35.536Z</time></trkpt><trkpt lat="43.139706" lon="11.0639171"><ele>447.75</ele><time>2026-04-04T09:30:36.532Z</time></trkpt><trkpt lat="43.1398048" lon="11.063827"><ele>448.0</ele><time>2026-04-04T09:30:37.534Z</time></trkpt><trkpt lat="43.139931" lon="11.0637754"><ele>448.0</ele><time>2026-04-04T09:30:38.551Z</time></trkpt><trkpt lat="43.1400702" lon="11.0637716"><ele>448.0</ele><time>2026-04-04T09:30:39.531Z</time></trkpt><trkpt lat="43.140207" lon="11.0638223"><ele>448.0</ele><time>2026-04-04T09:30:40.548Z</time></trkpt><trkpt lat="43.140346" lon="11.063866"><ele>448.0</ele><time>2026-04-04T09:30:41.518Z</time></trkpt><trkpt lat="43.1404558" lon="11.0639148"><ele>448.0</ele><time>2026-04-04T09:30:42.533Z</time></trkpt><trkpt lat="43.1405552" lon="11.0639695"><ele>447.99999999999994</ele><time>2026-04-04T09:30:43.537Z</time></trkpt><trkpt lat="43.1406342" lon="11.0640634"><ele>447.99999999999994</ele><time>2026-04-04T09:30:44.517Z</time></trkpt><trkpt lat="43.1406724" lon="11.064202"><ele>448.0</ele><time>2026-04-04T09:30:45.528Z</time></trkpt><trkpt lat="43.1406625" lon="11.064343"><ele>448.0</ele><time>2026-04-04T09:30:46.508Z</time></trkpt><trkpt lat="43.1406047" lon="11.0645013"><ele>449.75</ele><time>2026-04-04T09:30:47.52Z</time></trkpt><trkpt lat="43.1405287" lon="11.0646667"><ele>451.5</ele><time>2026-04-04T09:30:48.525Z</time></trkpt><trkpt lat="43.1404447" lon="11.0648263"><ele>453.25</ele><time>2026-04-04T09:30:49.525Z</time></trkpt><trkpt lat="43.1403819" lon="11.0649873"><ele>455.0</ele><time>2026-04-04T09:30:50.519Z</time></trkpt><trkpt lat="43.140334" lon="11.0651642"><ele>455.25</ele><time>2026-04-04T09:30:51.524Z</time></trkpt><trkpt lat="43.1403265" lon="11.0653453"><ele>455.5</ele><time>2026-04-04T09:30:52.514Z</time></trkpt><trkpt lat="43.1403505" lon="11.0655067"><ele>455.75</ele><time>2026-04-04T09:30:53.538Z</time></trkpt><trkpt lat="43.1403934" lon="11.0656805"><ele>456.0</ele><time>2026-04-04T09:30:54.529Z</time></trkpt><trkpt lat="43.1404847" lon="11.0658345"><ele>456.0</ele><time>2026-04-04T09:30:55.515Z</time></trkpt><trkpt lat="43.1406167" lon="11.0659903"><ele>456.0</ele><time>2026-04-04T09:30:56.526Z</time></trkpt><trkpt lat="43.1407499" lon="11.0661658"><ele>456.0</ele><time>2026-04-04T09:30:57.519Z</time></trkpt><trkpt lat="43.1408861" lon="11.0663478"><ele>463.0</ele><time>2026-04-04T09:30:58.528Z</time></trkpt><trkpt lat="43.1410083" lon="11.066517"><ele>470.0</ele><time>2026-04-04T09:30:59.539Z</time></trkpt><trkpt lat="43.1411202" lon="11.0666815"><ele>477.0</ele><time>2026-04-04T09:31:00.528Z</time></trkpt><trkpt lat="43.1412188" lon="11.0668279"><ele>477.0</ele><time>2026-04-04T09:31:01.529Z</time></trkpt><trkpt lat="43.1413043" lon="11.0669687"><ele>477.00000000000006</ele><time>2026-04-04T09:31:02.531Z</time></trkpt><trkpt lat="43.1413646" lon="11.0670878"><ele>477.00000000000006</ele><time>2026-04-04T09:31:03.541Z</time></trkpt><trkpt lat="43.1414017" lon="11.0672137"><ele>477.0</ele><time>2026-04-04T09:31:04.525Z</time></trkpt><trkpt lat="43.1414022" lon="11.0673459"><ele>477.0</ele><time>2026-04-04T09:31:05.522Z</time></trkpt><trkpt lat="43.1413618" lon="11.0674571"><ele>479.25</ele><time>2026-04-04T09:31:06.531Z</time></trkpt><trkpt lat="43.1412854" lon="11.0675362"><ele>481.5</ele><time>2026-04-04T09:31:07.522Z</time></trkpt><trkpt lat="43.1411756" lon="11.0675753"><ele>483.75</ele><time>2026-04-04T09:31:08.524Z</time></trkpt><trkpt lat="43.1410508" lon="11.0675915"><ele>486.0</ele><time>2026-04-04T09:31:09.528Z</time></trkpt><trkpt lat="43.1409171" lon="11.0675799"><ele>486.0</ele><time>2026-04-04T09:31:10.526Z</time></trkpt><trkpt lat="43.1407774" lon="11.0675398"><ele>486.0</ele><time>2026-04-04T09:31:11.525Z</time></trkpt><trkpt lat="43.140653" lon="11.0674939"><ele>486.0</ele><time>2026-04-04T09:31:12.525Z</time></trkpt><trkpt lat="43.1405303" lon="11.0674567"><ele>486.0</ele><time>2026-04-04T09:31:13.534Z</time></trkpt><trkpt lat="43.1404238" lon="11.0674375"><ele>484.6</ele><time>2026-04-04T09:31:14.542Z</time></trkpt><trkpt lat="43.1403348" lon="11.0674329"><ele>483.20000000000005</ele><time>2026-04-04T09:31:15.535Z</time></trkpt><trkpt lat="43.1402473" lon="11.0674846"><ele>481.79999999999995</ele><time>2026-04-04T09:31:16.539Z</time></trkpt><trkpt lat="43.1401918" lon="11.0676009"><ele>480.4</ele><time>2026-04-04T09:31:17.536Z</time></trkpt><trkpt lat="43.1401505" lon="11.0677462"><ele>479.0</ele><time>2026-04-04T09:31:18.567Z</time></trkpt><trkpt lat="43.1401677" lon="11.0679084"><ele>479.0</ele><time>2026-04-04T09:31:19.523Z</time></trkpt><trkpt lat="43.1402268" lon="11.0680555"><ele>479.0</ele><time>2026-04-04T09:31:20.537Z</time></trkpt><trkpt lat="43.1403184" lon="11.0682126"><ele>479.0</ele><time>2026-04-04T09:31:21.529Z</time></trkpt><trkpt lat="43.1403922" lon="11.0683863"><ele>479.0</ele><time>2026-04-04T09:31:22.533Z</time></trkpt><trkpt lat="43.1404549" lon="11.0685771"><ele>480.25</ele><time>2026-04-04T09:31:23.545Z</time></trkpt><trkpt lat="43.1404983" lon="11.0687697"><ele>481.5</ele><time>2026-04-04T09:31:24.535Z</time></trkpt><trkpt lat="43.1405345" lon="11.0689598"><ele>482.75</ele><time>2026-04-04T09:31:25.516Z</time></trkpt><trkpt lat="43.1405829" lon="11.0691226"><ele>484.0</ele><time>2026-04-04T09:31:26.523Z</time></trkpt><trkpt lat="43.1406508" lon="11.0692668"><ele>488.25</ele><time>2026-04-04T09:31:27.545Z</time></trkpt><trkpt lat="43.1407429" lon="11.0693863"><ele>492.5</ele><time>2026-04-04T09:31:28.534Z</time></trkpt><trkpt lat="43.1408265" lon="11.0695099"><ele>496.75</ele><time>2026-04-04T09:31:29.535Z</time></trkpt><trkpt lat="43.14089" lon="11.0696585"><ele>501.0</ele><time>2026-04-04T09:31:30.516Z</time></trkpt><trkpt lat="43.1409145" lon="11.0698126"><ele>500.5</ele><time>2026-04-04T09:31:31.536Z</time></trkpt><trkpt lat="43.140896" lon="11.0699775"><ele>500.0</ele><time>2026-04-04T09:31:32.534Z</time></trkpt><trkpt lat="43.1408769" lon="11.0701405"><ele>499.5</ele><time>2026-04-04T09:31:33.528Z</time></trkpt><trkpt lat="43.1408919" lon="11.0702883"><ele>499.0</ele><time>2026-04-04T09:31:34.541Z</time></trkpt><trkpt lat="43.1409464" lon="11.0704161"><ele>499.0</ele><time>2026-04-04T09:31:35.519Z</time></trkpt><trkpt lat="43.1409953" lon="11.0705276"><ele>499.0</ele><time>2026-04-04T09:31:36.527Z</time></trkpt><trkpt lat="43.1410404" lon="11.0706475"><ele>499.0</ele><time>2026-04-04T09:31:37.518Z</time></trkpt><trkpt lat="43.1410913" lon="11.0707734"><ele>499.0</ele><time>2026-04-04T09:31:38.529Z</time></trkpt><trkpt lat="43.1411457" lon="11.0708972"><ele>499.0</ele><time>2026-04-04T09:31:39.529Z</time></trkpt><trkpt lat="43.1412032" lon="11.0710068"><ele>498.6</ele><time>2026-04-04T09:31:40.538Z</time></trkpt><trkpt lat="43.1412649" lon="11.071091"><ele>498.2</ele><time>2026-04-04T09:31:41.531Z</time></trkpt><trkpt lat="43.1413296" lon="11.0711658"><ele>497.80000000000007</ele><time>2026-04-04T09:31:42.529Z</time></trkpt><trkpt lat="43.1414209" lon="11.0711726"><ele>497.40000000000003</ele><time>2026-04-04T09:31:43.543Z</time></trkpt><trkpt lat="43.1415299" lon="11.0711289"><ele>497.0</ele><time>2026-04-04T09:31:44.519Z</time></trkpt><trkpt lat="43.141626" lon="11.071073"><ele>500.6</ele><time>2026-04-04T09:31:45.552Z</time></trkpt><trkpt lat="43.1417137" lon="11.0710431"><ele>504.20000000000005</ele><time>2026-04-04T09:31:46.523Z</time></trkpt><trkpt lat="43.1417836" lon="11.0710598"><ele>507.8</ele><time>2026-04-04T09:31:47.538Z</time></trkpt><trkpt lat="43.1418629" lon="11.0711005"><ele>511.4</ele><time>2026-04-04T09:31:48.543Z</time></trkpt><trkpt lat="43.1419511" lon="11.0711753"><ele>515.0</ele><time>2026-04-04T09:31:50.529Z</time></trkpt><trkpt lat="43.1420577" lon="11.0712704"><ele>515.0</ele><time>2026-04-04T09:31:52.542Z</time></trkpt><trkpt lat="43.1421086" lon="11.0713302"><ele>515.0</ele><time>2026-04-04T09:31:53.532Z</time></trkpt><trkpt lat="43.1421607" lon="11.0713852"><ele>515.0</ele><time>2026-04-04T09:31:54.534Z</time></trkpt><trkpt lat="43.142254" lon="11.0714795"><ele>515.0</ele><time>2026-04-04T09:31:56.524Z</time></trkpt><trkpt lat="43.1423809" lon="11.0714791"><ele>515.0</ele><time>2026-04-04T09:31:58.525Z</time></trkpt><trkpt lat="43.1424548" lon="11.0714615"><ele>515.8333333333333</ele><time>2026-04-04T09:31:59.518Z</time></trkpt><trkpt lat="43.1425202" lon="11.0714464"><ele>516.6666666666666</ele><time>2026-04-04T09:32:00.529Z</time></trkpt><trkpt lat="43.1425946" lon="11.0714339"><ele>517.5</ele><time>2026-04-04T09:32:01.524Z</time></trkpt><trkpt lat="43.1426786" lon="11.0714194"><ele>518.3333333333334</ele><time>2026-04-04T09:32:02.538Z</time></trkpt><trkpt lat="43.1427691" lon="11.0713958"><ele>519.1666666666667</ele><time>2026-04-04T09:32:03.532Z</time></trkpt><trkpt lat="43.1428524" lon="11.0713621"><ele>520.0</ele><time>2026-04-04T09:32:04.526Z</time></trkpt><trkpt lat="43.1429254" lon="11.0713154"><ele>520.0</ele><time>2026-04-04T09:32:05.528Z</time></trkpt><trkpt lat="43.1430047" lon="11.0712536"><ele>520.0</ele><time>2026-04-04T09:32:06.523Z</time></trkpt><trkpt lat="43.1430667" lon="11.0711729"><ele>520.0</ele><time>2026-04-04T09:32:07.527Z</time></trkpt><trkpt lat="43.1431325" lon="11.0710978"><ele>520.0</ele><time>2026-04-04T09:32:08.53Z</time></trkpt><trkpt lat="43.1432025" lon="11.0710134"><ele>520.0</ele><time>2026-04-04T09:32:09.524Z</time></trkpt><trkpt lat="43.1432736" lon="11.0709443"><ele>520.0</ele><time>2026-04-04T09:32:10.538Z</time></trkpt><trkpt lat="43.1433476" lon="11.0708982"><ele>520.6666666666667</ele><time>2026-04-04T09:32:11.53Z</time></trkpt><trkpt lat="43.143438" lon="11.0708947"><ele>521.3333333333334</ele><time>2026-04-04T09:32:12.538Z</time></trkpt><trkpt lat="43.1435236" lon="11.0709432"><ele>522.0</ele><time>2026-04-04T09:32:13.531Z</time></trkpt><trkpt lat="43.1435985" lon="11.0710195"><ele>522.6666666666666</ele><time>2026-04-04T09:32:14.527Z</time></trkpt><trkpt lat="43.143647" lon="11.0710782"><ele>523.3333333333333</ele><time>2026-04-04T09:32:15.523Z</time></trkpt><trkpt lat="43.1437353" lon="11.0711434"><ele>524.0</ele><time>2026-04-04T09:32:45.505Z</time></trkpt><trkpt lat="43.143806" lon="11.0712246"><ele>524.0</ele><time>2026-04-04T09:32:46.503Z</time></trkpt><trkpt lat="43.1438752" lon="11.071343"><ele>524.0</ele><time>2026-04-04T09:32:47.491Z</time></trkpt><trkpt lat="43.1439263" lon="11.0714805"><ele>524.0</ele><time>2026-04-04T09:32:48.508Z</time></trkpt><trkpt lat="43.1439737" lon="11.0716458"><ele>524.0</ele><time>2026-04-04T09:32:49.503Z</time></trkpt><trkpt lat="43.1440179" lon="11.0718178"><ele>524.5</ele><time>2026-04-04T09:32:50.507Z</time></trkpt><trkpt lat="43.1440598" lon="11.0719909"><ele>525.0</ele><time>2026-04-04T09:32:51.51Z</time></trkpt><trkpt lat="43.1441035" lon="11.0721696"><ele>525.5</ele><time>2026-04-04T09:32:52.507Z</time></trkpt><trkpt lat="43.1441453" lon="11.0723359"><ele>526.0</ele><time>2026-04-04T09:32:53.504Z</time></trkpt><trkpt lat="43.1441817" lon="11.0724832"><ele>522.6</ele><time>2026-04-04T09:32:54.521Z</time></trkpt><trkpt lat="43.1442126" lon="11.0726228"><ele>519.2</ele><time>2026-04-04T09:32:55.511Z</time></trkpt><trkpt lat="43.1442533" lon="11.0727429"><ele>515.8</ele><time>2026-04-04T09:32:56.506Z</time></trkpt><trkpt lat="43.1443321" lon="11.0728334"><ele>512.4</ele><time>2026-04-04T09:32:57.516Z</time></trkpt><trkpt lat="43.1444518" lon="11.0728777"><ele>509.0</ele><time>2026-04-04T09:32:58.518Z</time></trkpt><trkpt lat="43.1445895" lon="11.0728789"><ele>509.0</ele><time>2026-04-04T09:32:59.508Z</time></trkpt><trkpt lat="43.1447198" lon="11.072825"><ele>509.0</ele><time>2026-04-04T09:33:00.51Z</time></trkpt><trkpt lat="43.1448291" lon="11.0727229"><ele>509.0</ele><time>2026-04-04T09:33:01.511Z</time></trkpt><trkpt lat="43.1449332" lon="11.0725623"><ele>509.0</ele><time>2026-04-04T09:33:02.514Z</time></trkpt><trkpt lat="43.145049" lon="11.0723873"><ele>515.0</ele><time>2026-04-04T09:33:03.518Z</time></trkpt><trkpt lat="43.1451899" lon="11.0722164"><ele>521.0</ele><time>2026-04-04T09:33:04.515Z</time></trkpt><trkpt lat="43.1453376" lon="11.0720903"><ele>527.0</ele><time>2026-04-04T09:33:05.533Z</time></trkpt><trkpt lat="43.1454683" lon="11.0720032"><ele>527.0</ele><time>2026-04-04T09:33:06.501Z</time></trkpt><trkpt lat="43.1455798" lon="11.0719644"><ele>527.0</ele><time>2026-04-04T09:33:07.517Z</time></trkpt><trkpt lat="43.1457114" lon="11.0719818"><ele>527.0</ele><time>2026-04-04T09:33:08.505Z</time></trkpt><trkpt lat="43.1458449" lon="11.0720498"><ele>527.0</ele><time>2026-04-04T09:33:09.52Z</time></trkpt><trkpt lat="43.1459664" lon="11.0721135"><ele>525.0</ele><time>2026-04-04T09:33:10.508Z</time></trkpt><trkpt lat="43.1460689" lon="11.0721404"><ele>523.0</ele><time>2026-04-04T09:33:11.519Z</time></trkpt><trkpt lat="43.1461513" lon="11.0720271"><ele>521.0</ele><time>2026-04-04T09:33:12.528Z</time></trkpt><trkpt lat="43.1462562" lon="11.0718739"><ele>519.0</ele><time>2026-04-04T09:33:13.508Z</time></trkpt><trkpt lat="43.1463697" lon="11.071725"><ele>519.0</ele><time>2026-04-04T09:33:14.505Z</time></trkpt><trkpt lat="43.1465013" lon="11.0716188"><ele>519.0</ele><time>2026-04-04T09:33:15.501Z</time></trkpt><trkpt lat="43.1466548" lon="11.071567"><ele>519.0</ele><time>2026-04-04T09:33:16.511Z</time></trkpt><trkpt lat="43.1468076" lon="11.0715694"><ele>522.5</ele><time>2026-04-04T09:33:17.511Z</time></trkpt><trkpt lat="43.1469338" lon="11.0715938"><ele>526.0</ele><time>2026-04-04T09:33:18.499Z</time></trkpt><trkpt lat="43.14705" lon="11.0715834"><ele>529.5</ele><time>2026-04-04T09:33:19.5Z</time></trkpt><trkpt lat="43.1471543" lon="11.0715443"><ele>533.0</ele><time>2026-04-04T09:33:20.507Z</time></trkpt><trkpt lat="43.1472448" lon="11.0714629"><ele>533.0</ele><time>2026-04-04T09:33:21.511Z</time></trkpt><trkpt lat="43.1472944" lon="11.0713823"><ele>533.0</ele><time>2026-04-04T09:33:22.508Z</time></trkpt><trkpt lat="43.1473316" lon="11.0712953"><ele>533.0</ele><time>2026-04-04T09:33:23.513Z</time></trkpt><trkpt lat="43.1473622" lon="11.0712128"><ele>533.0</ele><time>2026-04-04T09:33:24.502Z</time></trkpt><trkpt lat="43.1473974" lon="11.0711377"><ele>533.0</ele><time>2026-04-04T09:33:25.504Z</time></trkpt><trkpt lat="43.1474299" lon="11.0710536"><ele>533.0</ele><time>2026-04-04T09:33:26.521Z</time></trkpt><trkpt lat="43.1474718" lon="11.0709694"><ele>533.0</ele><time>2026-04-04T09:33:27.509Z</time></trkpt><trkpt lat="43.1475256" lon="11.0708995"><ele>530.6666666666666</ele><time>2026-04-04T09:33:28.51Z</time></trkpt><trkpt lat="43.1475882" lon="11.0708554"><ele>528.3333333333333</ele><time>2026-04-04T09:33:29.496Z</time></trkpt><trkpt lat="43.1476531" lon="11.0708424"><ele>526.0</ele><time>2026-04-04T09:33:30.514Z</time></trkpt><trkpt lat="43.1477179" lon="11.0708587"><ele>523.6666666666666</ele><time>2026-04-04T09:33:31.507Z</time></trkpt><trkpt lat="43.1477863" lon="11.0709074"><ele>521.3333333333334</ele><time>2026-04-04T09:33:32.507Z</time></trkpt><trkpt lat="43.1478638" lon="11.0710013"><ele>519.0</ele><time>2026-04-04T09:33:33.506Z</time></trkpt><trkpt lat="43.147947" lon="11.0711464"><ele>519.0</ele><time>2026-04-04T09:33:34.511Z</time></trkpt><trkpt lat="43.1480244" lon="11.0713074"><ele>519.0</ele><time>2026-04-04T09:33:35.506Z</time></trkpt><trkpt lat="43.1480874" lon="11.0714206"><ele>519.0</ele><time>2026-04-04T09:33:36.513Z</time></trkpt><trkpt lat="43.1481441" lon="11.0714944"><ele>519.0</ele><time>2026-04-04T09:33:37.513Z</time></trkpt><trkpt lat="43.1482258" lon="11.071538"><ele>519.0</ele><time>2026-04-04T09:33:38.499Z</time></trkpt><trkpt lat="43.1483189" lon="11.07153"><ele>515.25</ele><time>2026-04-04T09:33:39.51Z</time></trkpt><trkpt lat="43.1483976" lon="11.0714383"><ele>511.5</ele><time>2026-04-04T09:33:40.513Z</time></trkpt><trkpt lat="43.1484448" lon="11.0712594"><ele>507.75</ele><time>2026-04-04T09:33:41.51Z</time></trkpt><trkpt lat="43.1484694" lon="11.0710822"><ele>504.0</ele><time>2026-04-04T09:33:42.505Z</time></trkpt><trkpt lat="43.1485093" lon="11.0709103"><ele>504.0</ele><time>2026-04-04T09:33:43.52Z</time></trkpt><trkpt lat="43.1485762" lon="11.0707896"><ele>504.0</ele><time>2026-04-04T09:33:44.507Z</time></trkpt><trkpt lat="43.148653" lon="11.0707387"><ele>504.0</ele><time>2026-04-04T09:33:45.506Z</time></trkpt><trkpt lat="43.1487507" lon="11.0706915"><ele>504.0</ele><time>2026-04-04T09:33:46.504Z</time></trkpt><trkpt lat="43.1488608" lon="11.0706893"><ele>504.0</ele><time>2026-04-04T09:33:47.512Z</time></trkpt><trkpt lat="43.1489844" lon="11.0707551"><ele>502.66666666666663</ele><time>2026-04-04T09:33:48.507Z</time></trkpt><trkpt lat="43.1490722" lon="11.0709247"><ele>501.3333333333333</ele><time>2026-04-04T09:33:49.525Z</time></trkpt><trkpt lat="43.1491644" lon="11.0711065"><ele>500.0</ele><time>2026-04-04T09:33:50.503Z</time></trkpt><trkpt lat="43.1492483" lon="11.0712819"><ele>500.0</ele><time>2026-04-04T09:33:51.509Z</time></trkpt><trkpt lat="43.1493059" lon="11.0714746"><ele>500.0</ele><time>2026-04-04T09:33:52.512Z</time></trkpt><trkpt lat="43.1493545" lon="11.0716993"><ele>500.0</ele><time>2026-04-04T09:33:53.516Z</time></trkpt><trkpt lat="43.149373" lon="11.0719349"><ele>496.0</ele><time>2026-04-04T09:33:54.509Z</time></trkpt><trkpt lat="43.1493945" lon="11.072159"><ele>492.0</ele><time>2026-04-04T09:33:55.51Z</time></trkpt><trkpt lat="43.149429" lon="11.0723663"><ele>488.0</ele><time>2026-04-04T09:33:56.516Z</time></trkpt><trkpt lat="43.1494694" lon="11.0725545"><ele>485.25</ele><time>2026-04-04T09:33:57.519Z</time></trkpt><trkpt lat="43.1495033" lon="11.0727429"><ele>482.5</ele><time>2026-04-04T09:33:58.51Z</time></trkpt><trkpt lat="43.1495341" lon="11.0729075"><ele>479.75</ele><time>2026-04-04T09:33:59.512Z</time></trkpt><trkpt lat="43.1495742" lon="11.073043"><ele>477.0</ele><time>2026-04-04T09:34:00.505Z</time></trkpt><trkpt lat="43.1496357" lon="11.0731127"><ele>477.0</ele><time>2026-04-04T09:34:01.514Z</time></trkpt><trkpt lat="43.1497288" lon="11.0731382"><ele>477.00000000000006</ele><time>2026-04-04T09:34:02.501Z</time></trkpt><trkpt lat="43.1498214" lon="11.0730921"><ele>477.00000000000006</ele><time>2026-04-04T09:34:03.522Z</time></trkpt><trkpt lat="43.1498838" lon="11.0729749"><ele>477.0</ele><time>2026-04-04T09:34:04.514Z</time></trkpt><trkpt lat="43.1499179" lon="11.072806"><ele>477.0</ele><time>2026-04-04T09:34:05.505Z</time></trkpt><trkpt lat="43.1499361" lon="11.0726113"><ele>478.5</ele><time>2026-04-04T09:34:06.516Z</time></trkpt><trkpt lat="43.1499645" lon="11.0724145"><ele>480.0</ele><time>2026-04-04T09:34:07.517Z</time></trkpt><trkpt lat="43.1500126" lon="11.0722768"><ele>481.5</ele><time>2026-04-04T09:34:08.518Z</time></trkpt><trkpt lat="43.1500957" lon="11.0721926"><ele>483.0</ele><time>2026-04-04T09:34:09.513Z</time></trkpt><trkpt lat="43.1502103" lon="11.0721478"><ele>483.0</ele><time>2026-04-04T09:34:10.51Z</time></trkpt><trkpt lat="43.150341" lon="11.0721702"><ele>483.0</ele><time>2026-04-04T09:34:11.509Z</time></trkpt><trkpt lat="43.1505034" lon="11.0722397"><ele>483.0</ele><time>2026-04-04T09:34:12.521Z</time></trkpt><trkpt lat="43.150653" lon="11.0723456"><ele>480.33333333333337</ele><time>2026-04-04T09:34:13.513Z</time></trkpt><trkpt lat="43.1507979" lon="11.0724822"><ele>477.6666666666667</ele><time>2026-04-04T09:34:14.519Z</time></trkpt><trkpt lat="43.1509384" lon="11.072637"><ele>475.0</ele><time>2026-04-04T09:34:15.513Z</time></trkpt><trkpt lat="43.1510682" lon="11.0727926"><ele>475.0</ele><time>2026-04-04T09:34:16.515Z</time></trkpt><trkpt lat="43.1511828" lon="11.0729459"><ele>475.0</ele><time>2026-04-04T09:34:17.515Z</time></trkpt><trkpt lat="43.1512744" lon="11.0731169"><ele>475.0</ele><time>2026-04-04T09:34:18.521Z</time></trkpt><trkpt lat="43.1513407" lon="11.0733231"><ele>473.33333333333337</ele><time>2026-04-04T09:34:19.502Z</time></trkpt><trkpt lat="43.1513896" lon="11.0735449"><ele>471.66666666666663</ele><time>2026-04-04T09:34:20.509Z</time></trkpt><trkpt lat="43.1514295" lon="11.0737502"><ele>470.0</ele><time>2026-04-04T09:34:21.514Z</time></trkpt><trkpt lat="43.1514792" lon="11.0739452"><ele>471.66666666666663</ele><time>2026-04-04T09:34:22.512Z</time></trkpt><trkpt lat="43.1515668" lon="11.0741281"><ele>473.33333333333337</ele><time>2026-04-04T09:34:23.516Z</time></trkpt><trkpt lat="43.1516748" lon="11.0742849"><ele>475.0</ele><time>2026-04-04T09:34:24.512Z</time></trkpt><trkpt lat="43.1518068" lon="11.0744003"><ele>475.0</ele><time>2026-04-04T09:34:25.514Z</time></trkpt><trkpt lat="43.1519662" lon="11.0744652"><ele>475.0</ele><time>2026-04-04T09:34:26.514Z</time></trkpt><trkpt lat="43.1521284" lon="11.0744672"><ele>475.0</ele><time>2026-04-04T09:34:27.512Z</time></trkpt><trkpt lat="43.1523086" lon="11.074432"><ele>476.0</ele><time>2026-04-04T09:34:28.501Z</time></trkpt><trkpt lat="43.1524775" lon="11.0743788"><ele>477.0</ele><time>2026-04-04T09:34:29.517Z</time></trkpt><trkpt lat="43.1526348" lon="11.0743454"><ele>478.0</ele><time>2026-04-04T09:34:30.514Z</time></trkpt><trkpt lat="43.1527588" lon="11.0743374"><ele>478.0</ele><time>2026-04-04T09:34:31.525Z</time></trkpt><trkpt lat="43.1528428" lon="11.0743534"><ele>478.0</ele><time>2026-04-04T09:34:32.527Z</time></trkpt><trkpt lat="43.152882" lon="11.0744773"><ele>478.0</ele><time>2026-04-04T09:34:34.506Z</time></trkpt><trkpt lat="43.1527411" lon="11.0745624"><ele>478.0</ele><time>2026-04-04T09:34:36.518Z</time></trkpt><trkpt lat="43.1525982" lon="11.0745923"><ele>478.0</ele><time>2026-04-04T09:34:37.51Z</time></trkpt><trkpt lat="43.1524578" lon="11.0746119"><ele>478.0</ele><time>2026-04-04T09:34:38.504Z</time></trkpt><trkpt lat="43.152328" lon="11.0746887"><ele>478.0</ele><time>2026-04-04T09:34:39.508Z</time></trkpt><trkpt lat="43.1521963" lon="11.0748064"><ele>478.0</ele><time>2026-04-04T09:34:40.505Z</time></trkpt><trkpt lat="43.1520975" lon="11.0749217"><ele>478.5</ele><time>2026-04-04T09:34:41.507Z</time></trkpt><trkpt lat="43.1520305" lon="11.0750459"><ele>479.0</ele><time>2026-04-04T09:34:42.515Z</time></trkpt><trkpt lat="43.152004" lon="11.0752265"><ele>479.5</ele><time>2026-04-04T09:34:43.52Z</time></trkpt><trkpt lat="43.1520015" lon="11.0754274"><ele>480.0</ele><time>2026-04-04T09:34:44.516Z</time></trkpt><trkpt lat="43.1520111" lon="11.0756395"><ele>481.5</ele><time>2026-04-04T09:34:45.513Z</time></trkpt><trkpt lat="43.1520055" lon="11.0758285"><ele>483.0</ele><time>2026-04-04T09:34:46.504Z</time></trkpt><trkpt lat="43.152009" lon="11.0759805"><ele>484.5</ele><time>2026-04-04T09:34:47.523Z</time></trkpt><trkpt lat="43.1520358" lon="11.0761219"><ele>486.0</ele><time>2026-04-04T09:34:48.516Z</time></trkpt><trkpt lat="43.1521143" lon="11.0762129"><ele>486.0</ele><time>2026-04-04T09:34:49.51Z</time></trkpt><trkpt lat="43.1522348" lon="11.0762478"><ele>486.0</ele><time>2026-04-04T09:34:50.521Z</time></trkpt><trkpt lat="43.1523648" lon="11.0762347"><ele>486.0</ele><time>2026-04-04T09:34:51.52Z</time></trkpt><trkpt lat="43.1524941" lon="11.0762501"><ele>486.0</ele><time>2026-04-04T09:34:52.498Z</time></trkpt><trkpt lat="43.1526427" lon="11.076332"><ele>490.33333333333337</ele><time>2026-04-04T09:34:53.516Z</time></trkpt><trkpt lat="43.1527652" lon="11.0764719"><ele>494.6666666666667</ele><time>2026-04-04T09:34:54.515Z</time></trkpt><trkpt lat="43.1528797" lon="11.076614"><ele>499.0</ele><time>2026-04-04T09:34:55.497Z</time></trkpt><trkpt lat="43.1529834" lon="11.0767542"><ele>499.0</ele><time>2026-04-04T09:34:56.537Z</time></trkpt><trkpt lat="43.1530538" lon="11.07693"><ele>499.0</ele><time>2026-04-04T09:34:57.51Z</time></trkpt><trkpt lat="43.1530904" lon="11.0771196"><ele>499.0</ele><time>2026-04-04T09:34:58.505Z</time></trkpt><trkpt lat="43.1530919" lon="11.0773395"><ele>498.6666666666667</ele><time>2026-04-04T09:34:59.509Z</time></trkpt><trkpt lat="43.153068" lon="11.0775553"><ele>498.33333333333337</ele><time>2026-04-04T09:35:00.503Z</time></trkpt><trkpt lat="43.1530143" lon="11.0777806"><ele>498.0</ele><time>2026-04-04T09:35:01.522Z</time></trkpt><trkpt lat="43.1529448" lon="11.0779932"><ele>498.0</ele><time>2026-04-04T09:35:02.532Z</time></trkpt><trkpt lat="43.152888" lon="11.0782091"><ele>498.0</ele><time>2026-04-04T09:35:03.517Z</time></trkpt><trkpt lat="43.152837" lon="11.0784426"><ele>498.0</ele><time>2026-04-04T09:35:04.51Z</time></trkpt><trkpt lat="43.1527971" lon="11.0786766"><ele>499.0</ele><time>2026-04-04T09:35:05.521Z</time></trkpt><trkpt lat="43.1527683" lon="11.0788984"><ele>500.0</ele><time>2026-04-04T09:35:06.51Z</time></trkpt><trkpt lat="43.1527425" lon="11.0791104"><ele>501.0</ele><time>2026-04-04T09:35:07.513Z</time></trkpt><trkpt lat="43.1527193" lon="11.0793073"><ele>502.25</ele><time>2026-04-04T09:35:08.515Z</time></trkpt><trkpt lat="43.152725" lon="11.0794904"><ele>503.5</ele><time>2026-04-04T09:35:09.518Z</time></trkpt><trkpt lat="43.1527463" lon="11.0796804"><ele>504.75</ele><time>2026-04-04T09:35:10.518Z</time></trkpt><trkpt lat="43.1527748" lon="11.0798519"><ele>506.0</ele><time>2026-04-04T09:35:11.511Z</time></trkpt><trkpt lat="43.152794" lon="11.0800208"><ele>507.25</ele><time>2026-04-04T09:35:12.518Z</time></trkpt><trkpt lat="43.1527997" lon="11.0802008"><ele>508.5</ele><time>2026-04-04T09:35:13.524Z</time></trkpt><trkpt lat="43.1528007" lon="11.0803931"><ele>509.75</ele><time>2026-04-04T09:35:14.52Z</time></trkpt><trkpt lat="43.1528031" lon="11.0805764"><ele>511.0</ele><time>2026-04-04T09:35:15.524Z</time></trkpt><trkpt lat="43.1527961" lon="11.080741"><ele>513.0</ele><time>2026-04-04T09:35:16.507Z</time></trkpt><trkpt lat="43.1527436" lon="11.0809003"><ele>515.0</ele><time>2026-04-04T09:35:17.511Z</time></trkpt><trkpt lat="43.1526658" lon="11.0810327"><ele>517.0</ele><time>2026-04-04T09:35:18.507Z</time></trkpt><trkpt lat="43.1525721" lon="11.0811341"><ele>519.0</ele><time>2026-04-04T09:35:19.529Z</time></trkpt><trkpt lat="43.1524767" lon="11.0812214"><ele>519.0</ele><time>2026-04-04T09:35:20.5Z</time></trkpt><trkpt lat="43.1524061" lon="11.0813568"><ele>519.0</ele><time>2026-04-04T09:35:21.526Z</time></trkpt><trkpt lat="43.1523565" lon="11.0815384"><ele>519.0</ele><time>2026-04-04T09:35:22.507Z</time></trkpt><trkpt lat="43.1523354" lon="11.0817278"><ele>519.0</ele><time>2026-04-04T09:35:23.518Z</time></trkpt><trkpt lat="43.1523621" lon="11.0819126"><ele>520.25</ele><time>2026-04-04T09:35:24.523Z</time></trkpt><trkpt lat="43.152427" lon="11.0820514"><ele>521.5</ele><time>2026-04-04T09:35:25.537Z</time></trkpt><trkpt lat="43.1525436" lon="11.0821565"><ele>522.75</ele><time>2026-04-04T09:35:26.496Z</time></trkpt><trkpt lat="43.1526805" lon="11.0822231"><ele>524.0</ele><time>2026-04-04T09:35:27.514Z</time></trkpt><trkpt lat="43.1528201" lon="11.0822489"><ele>524.0</ele><time>2026-04-04T09:35:28.51Z</time></trkpt><trkpt lat="43.1529503" lon="11.0822398"><ele>524.0</ele><time>2026-04-04T09:35:29.518Z</time></trkpt><trkpt lat="43.1530803" lon="11.082252"><ele>524.0</ele><time>2026-04-04T09:35:30.514Z</time></trkpt><trkpt lat="43.1531947" lon="11.0823002"><ele>524.0</ele><time>2026-04-04T09:35:31.518Z</time></trkpt><trkpt lat="43.1532964" lon="11.0823822"><ele>526.5</ele><time>2026-04-04T09:35:32.508Z</time></trkpt><trkpt lat="43.1533822" lon="11.0824728"><ele>529.0</ele><time>2026-04-04T09:35:33.504Z</time></trkpt><trkpt lat="43.1534654" lon="11.0825891"><ele>531.5</ele><time>2026-04-04T09:35:34.528Z</time></trkpt><trkpt lat="43.153542" lon="11.0827199"><ele>534.0</ele><time>2026-04-04T09:35:35.495Z</time></trkpt><trkpt lat="43.1536148" lon="11.0828365"><ele>534.0</ele><time>2026-04-04T09:35:36.52Z</time></trkpt><trkpt lat="43.1536803" lon="11.0829505"><ele>534.0</ele><time>2026-04-04T09:35:37.508Z</time></trkpt><trkpt lat="43.1537283" lon="11.0830608"><ele>534.0</ele><time>2026-04-04T09:35:38.51Z</time></trkpt><trkpt lat="43.1537772" lon="11.0831871"><ele>534.0</ele><time>2026-04-04T09:35:39.492Z</time></trkpt><trkpt lat="43.1538378" lon="11.0833303"><ele>534.0</ele><time>2026-04-04T09:35:40.535Z</time></trkpt><trkpt lat="43.1539005" lon="11.0835014"><ele>536.75</ele><time>2026-04-04T09:35:41.502Z</time></trkpt><trkpt lat="43.1539629" lon="11.0836719"><ele>539.5</ele><time>2026-04-04T09:35:42.512Z</time></trkpt><trkpt lat="43.1540219" lon="11.0838607"><ele>542.25</ele><time>2026-04-04T09:35:43.509Z</time></trkpt><trkpt lat="43.1540808" lon="11.0840433"><ele>545.0</ele><time>2026-04-04T09:35:44.514Z</time></trkpt><trkpt lat="43.1541317" lon="11.0842226"><ele>545.0</ele><time>2026-04-04T09:35:45.517Z</time></trkpt><trkpt lat="43.1541966" lon="11.0843926"><ele>545.0</ele><time>2026-04-04T09:35:46.516Z</time></trkpt><trkpt lat="43.1542567" lon="11.0845654"><ele>545.0</ele><time>2026-04-04T09:35:47.51Z</time></trkpt><trkpt lat="43.1542949" lon="11.0847281"><ele>545.0</ele><time>2026-04-04T09:35:48.512Z</time></trkpt><trkpt lat="43.1543094" lon="11.0848906"><ele>542.0</ele><time>2026-04-04T09:35:49.499Z</time></trkpt><trkpt lat="43.154316" lon="11.0850603"><ele>539.0</ele><time>2026-04-04T09:35:50.518Z</time></trkpt><trkpt lat="43.1543237" lon="11.0852366"><ele>536.0</ele><time>2026-04-04T09:35:51.505Z</time></trkpt><trkpt lat="43.1543271" lon="11.0854098"><ele>533.0</ele><time>2026-04-04T09:35:52.501Z</time></trkpt><trkpt lat="43.1543285" lon="11.085579"><ele>533.0</ele><time>2026-04-04T09:35:53.527Z</time></trkpt><trkpt lat="43.1543299" lon="11.0857289"><ele>533.0</ele><time>2026-04-04T09:35:54.504Z</time></trkpt><trkpt lat="43.1543168" lon="11.0858558"><ele>533.0</ele><time>2026-04-04T09:35:55.508Z</time></trkpt><trkpt lat="43.1542994" lon="11.0859657"><ele>533.0</ele><time>2026-04-04T09:35:56.506Z</time></trkpt><trkpt lat="43.1542765" lon="11.0860507"><ele>533.0</ele><time>2026-04-04T09:35:57.511Z</time></trkpt><trkpt lat="43.1542673" lon="11.0861886"><ele>533.5</ele><time>2026-04-04T09:35:59.521Z</time></trkpt><trkpt lat="43.1543013" lon="11.0862695"><ele>534.0</ele><time>2026-04-04T09:36:02.502Z</time></trkpt><trkpt lat="43.1543695" lon="11.0862739"><ele>534.5</ele><time>2026-04-04T09:36:12.524Z</time></trkpt><trkpt lat="43.1544186" lon="11.0861807"><ele>535.0</ele><time>2026-04-04T09:36:15.503Z</time></trkpt><trkpt lat="43.1544585" lon="11.0860763"><ele>535.5</ele><time>2026-04-04T09:36:17.507Z</time></trkpt><trkpt lat="43.1544989" lon="11.0859731"><ele>536.0</ele><time>2026-04-04T09:36:19.495Z</time></trkpt><trkpt lat="43.1545194" lon="11.0858508"><ele>536.0</ele><time>2026-04-04T09:36:21.501Z</time></trkpt><trkpt lat="43.1545208" lon="11.085764"><ele>536.0</ele><time>2026-04-04T09:36:23.521Z</time></trkpt><trkpt lat="43.1545372" lon="11.0856638"><ele>536.0</ele><time>2026-04-04T09:36:26.522Z</time></trkpt><trkpt lat="43.1545817" lon="11.0855878"><ele>536.0</ele><time>2026-04-04T09:36:29.506Z</time></trkpt><trkpt lat="43.1546358" lon="11.0854502"><ele>536.0</ele><time>2026-04-04T09:36:31.516Z</time></trkpt><trkpt lat="43.1546653" lon="11.0853715"><ele>536.0</ele><time>2026-04-04T09:36:32.512Z</time></trkpt><trkpt lat="43.1546985" lon="11.0852753"><ele>535.5</ele><time>2026-04-04T09:36:33.523Z</time></trkpt><trkpt lat="43.1547467" lon="11.085184"><ele>535.0</ele><time>2026-04-04T09:36:34.51Z</time></trkpt><trkpt lat="43.1547873" lon="11.0850952"><ele>534.5</ele><time>2026-04-04T09:36:35.518Z</time></trkpt><trkpt lat="43.1548282" lon="11.0850001"><ele>534.0</ele><time>2026-04-04T09:36:36.525Z</time></trkpt><trkpt lat="43.1548754" lon="11.0848843"><ele>533.5</ele><time>2026-04-04T09:36:37.51Z</time></trkpt><trkpt lat="43.1549217" lon="11.0847644"><ele>533.0</ele><time>2026-04-04T09:36:38.511Z</time></trkpt><trkpt lat="43.1549686" lon="11.0846505"><ele>537.6</ele><time>2026-04-04T09:36:39.522Z</time></trkpt><trkpt lat="43.1550116" lon="11.0845433"><ele>542.1999999999999</ele><time>2026-04-04T09:36:40.511Z</time></trkpt><trkpt lat="43.1550552" lon="11.0844289"><ele>546.8</ele><time>2026-04-04T09:36:41.5Z</time></trkpt><trkpt lat="43.155103" lon="11.0843194"><ele>551.4</ele><time>2026-04-04T09:36:42.509Z</time></trkpt><trkpt lat="43.1551455" lon="11.0842073"><ele>556.0</ele><time>2026-04-04T09:36:43.513Z</time></trkpt><trkpt lat="43.1551895" lon="11.0840997"><ele>556.3333333333334</ele><time>2026-04-04T09:36:44.507Z</time></trkpt><trkpt lat="43.1552283" lon="11.0839935"><ele>556.6666666666667</ele><time>2026-04-04T09:36:45.512Z</time></trkpt><trkpt lat="43.1552667" lon="11.0838882"><ele>557.0</ele><time>2026-04-04T09:36:46.513Z</time></trkpt><trkpt lat="43.1553083" lon="11.0837897"><ele>557.3333333333334</ele><time>2026-04-04T09:36:47.515Z</time></trkpt><trkpt lat="43.1553464" lon="11.0836895"><ele>557.6666666666666</ele><time>2026-04-04T09:36:48.496Z</time></trkpt><trkpt lat="43.1553918" lon="11.0835906"><ele>558.0</ele><time>2026-04-04T09:36:49.497Z</time></trkpt><trkpt lat="43.1554488" lon="11.083489"><ele>558.0</ele><time>2026-04-04T09:36:50.509Z</time></trkpt><trkpt lat="43.1555193" lon="11.0834012"><ele>558.0</ele><time>2026-04-04T09:36:51.505Z</time></trkpt><trkpt lat="43.1556045" lon="11.0833562"><ele>558.0</ele><time>2026-04-04T09:36:52.514Z</time></trkpt><trkpt lat="43.1557083" lon="11.0833468"><ele>558.0</ele><time>2026-04-04T09:36:53.507Z</time></trkpt><trkpt lat="43.1558042" lon="11.0833587"><ele>558.0</ele><time>2026-04-04T09:36:54.494Z</time></trkpt><trkpt lat="43.1558864" lon="11.0834279"><ele>555.0</ele><time>2026-04-04T09:36:55.505Z</time></trkpt><trkpt lat="43.1559469" lon="11.0835596"><ele>552.0</ele><time>2026-04-04T09:36:56.51Z</time></trkpt><trkpt lat="43.1559806" lon="11.0837443"><ele>549.0</ele><time>2026-04-04T09:36:57.513Z</time></trkpt><trkpt lat="43.1559846" lon="11.0839547"><ele>546.0</ele><time>2026-04-04T09:36:58.506Z</time></trkpt><trkpt lat="43.1559987" lon="11.0841422"><ele>544.2</ele><time>2026-04-04T09:36:59.515Z</time></trkpt><trkpt lat="43.1560115" lon="11.0843156"><ele>542.4000000000001</ele><time>2026-04-04T09:37:00.511Z</time></trkpt><trkpt lat="43.1560464" lon="11.0844561"><ele>540.6</ele><time>2026-04-04T09:37:01.521Z</time></trkpt><trkpt lat="43.156112" lon="11.0845691"><ele>538.8000000000001</ele><time>2026-04-04T09:37:02.509Z</time></trkpt><trkpt lat="43.1562066" lon="11.0846175"><ele>537.0</ele><time>2026-04-04T09:37:03.505Z</time></trkpt><trkpt lat="43.1563199" lon="11.0846112"><ele>537.0</ele><time>2026-04-04T09:37:04.514Z</time></trkpt><trkpt lat="43.1564305" lon="11.0845688"><ele>537.0</ele><time>2026-04-04T09:37:05.508Z</time></trkpt><trkpt lat="43.1565397" lon="11.084514"><ele>537.0</ele><time>2026-04-04T09:37:06.513Z</time></trkpt><trkpt lat="43.1566328" lon="11.0844931"><ele>537.0</ele><time>2026-04-04T09:37:07.505Z</time></trkpt><trkpt lat="43.1567317" lon="11.084521"><ele>537.0</ele><time>2026-04-04T09:37:08.516Z</time></trkpt><trkpt lat="43.1568109" lon="11.0846225"><ele>538.75</ele><time>2026-04-04T09:37:09.514Z</time></trkpt><trkpt lat="43.156873" lon="11.0847727"><ele>540.5</ele><time>2026-04-04T09:37:10.495Z</time></trkpt><trkpt lat="43.1569133" lon="11.0849402"><ele>542.25</ele><time>2026-04-04T09:37:11.508Z</time></trkpt><trkpt lat="43.1569592" lon="11.085101"><ele>544.0</ele><time>2026-04-04T09:37:12.493Z</time></trkpt><trkpt lat="43.1570176" lon="11.0852488"><ele>545.0</ele><time>2026-04-04T09:37:13.493Z</time></trkpt><trkpt lat="43.1571026" lon="11.085372"><ele>546.0</ele><time>2026-04-04T09:37:14.489Z</time></trkpt><trkpt lat="43.1572069" lon="11.0854864"><ele>547.0</ele><time>2026-04-04T09:37:15.511Z</time></trkpt><trkpt lat="43.1573192" lon="11.0856084"><ele>548.0</ele><time>2026-04-04T09:37:16.503Z</time></trkpt><trkpt lat="43.1574278" lon="11.0857437"><ele>539.3333333333333</ele><time>2026-04-04T09:37:17.506Z</time></trkpt><trkpt lat="43.1575443" lon="11.0858844"><ele>530.6666666666666</ele><time>2026-04-04T09:37:18.505Z</time></trkpt><trkpt lat="43.1576807" lon="11.0859946"><ele>522.0</ele><time>2026-04-04T09:37:19.522Z</time></trkpt><trkpt lat="43.1578301" lon="11.0860912"><ele>522.0</ele><time>2026-04-04T09:37:20.504Z</time></trkpt><trkpt lat="43.1579823" lon="11.0861997"><ele>522.0</ele><time>2026-04-04T09:37:21.487Z</time></trkpt><trkpt lat="43.1581318" lon="11.0863205"><ele>522.0</ele><time>2026-04-04T09:37:22.526Z</time></trkpt><trkpt lat="43.1582779" lon="11.0864446"><ele>526.3333333333334</ele><time>2026-04-04T09:37:23.495Z</time></trkpt><trkpt lat="43.1584246" lon="11.086564"><ele>530.6666666666667</ele><time>2026-04-04T09:37:24.508Z</time></trkpt><trkpt lat="43.1585672" lon="11.0866657"><ele>535.0</ele><time>2026-04-04T09:37:25.502Z</time></trkpt><trkpt lat="43.1587043" lon="11.0867527"><ele>528.5</ele><time>2026-04-04T09:37:26.525Z</time></trkpt><trkpt lat="43.1588336" lon="11.0868157"><ele>522.0</ele><time>2026-04-04T09:37:27.506Z</time></trkpt><trkpt lat="43.1589552" lon="11.0868517"><ele>515.5</ele><time>2026-04-04T09:37:28.517Z</time></trkpt><trkpt lat="43.1590607" lon="11.0868495"><ele>509.0</ele><time>2026-04-04T09:37:29.513Z</time></trkpt><trkpt lat="43.1591464" lon="11.0868099"><ele>508.75</ele><time>2026-04-04T09:37:30.498Z</time></trkpt><trkpt lat="43.1592193" lon="11.0867116"><ele>508.5</ele><time>2026-04-04T09:37:31.497Z</time></trkpt><trkpt lat="43.1592622" lon="11.0865583"><ele>508.25</ele><time>2026-04-04T09:37:32.499Z</time></trkpt><trkpt lat="43.1592902" lon="11.0863689"><ele>508.0</ele><time>2026-04-04T09:37:33.497Z</time></trkpt><trkpt lat="43.1593182" lon="11.0862016"><ele>510.75</ele><time>2026-04-04T09:37:34.512Z</time></trkpt><trkpt lat="43.159346" lon="11.0860397"><ele>513.5</ele><time>2026-04-04T09:37:35.506Z</time></trkpt><trkpt lat="43.1593722" lon="11.0858773"><ele>516.25</ele><time>2026-04-04T09:37:36.511Z</time></trkpt><trkpt lat="43.1594046" lon="11.08573"><ele>519.0</ele><time>2026-04-04T09:37:37.507Z</time></trkpt><trkpt lat="43.1594395" lon="11.0855751"><ele>521.75</ele><time>2026-04-04T09:37:38.514Z</time></trkpt><trkpt lat="43.1594828" lon="11.0854278"><ele>524.5</ele><time>2026-04-04T09:37:39.493Z</time></trkpt><trkpt lat="43.1595339" lon="11.0852752"><ele>527.25</ele><time>2026-04-04T09:37:40.498Z</time></trkpt><trkpt lat="43.1595946" lon="11.0851327"><ele>530.0</ele><time>2026-04-04T09:37:41.497Z</time></trkpt><trkpt lat="43.1596597" lon="11.0849884"><ele>532.25</ele><time>2026-04-04T09:37:42.493Z</time></trkpt><trkpt lat="43.1597243" lon="11.0848552"><ele>534.5</ele><time>2026-04-04T09:37:43.509Z</time></trkpt><trkpt lat="43.1597964" lon="11.084729"><ele>536.75</ele><time>2026-04-04T09:37:44.508Z</time></trkpt><trkpt lat="43.159876" lon="11.0846177"><ele>539.0</ele><time>2026-04-04T09:37:45.497Z</time></trkpt><trkpt lat="43.1599594" lon="11.0845335"><ele>533.2</ele><time>2026-04-04T09:37:46.512Z</time></trkpt><trkpt lat="43.1600471" lon="11.0844677"><ele>527.4</ele><time>2026-04-04T09:37:47.503Z</time></trkpt><trkpt lat="43.1601617" lon="11.084436"><ele>521.6</ele><time>2026-04-04T09:37:48.519Z</time></trkpt><trkpt lat="43.1602716" lon="11.0844546"><ele>515.8</ele><time>2026-04-04T09:37:49.505Z</time></trkpt><trkpt lat="43.1603792" lon="11.0845248"><ele>510.0</ele><time>2026-04-04T09:37:50.495Z</time></trkpt><trkpt lat="43.1604504" lon="11.0846455"><ele>510.0</ele><time>2026-04-04T09:37:51.511Z</time></trkpt><trkpt lat="43.1605045" lon="11.0848138"><ele>510.0</ele><time>2026-04-04T09:37:52.508Z</time></trkpt><trkpt lat="43.1605684" lon="11.0850138"><ele>510.0</ele><time>2026-04-04T09:37:53.515Z</time></trkpt><trkpt lat="43.1606466" lon="11.0852135"><ele>506.33333333333337</ele><time>2026-04-04T09:37:54.514Z</time></trkpt><trkpt lat="43.1607552" lon="11.0854086"><ele>502.6666666666667</ele><time>2026-04-04T09:37:55.507Z</time></trkpt><trkpt lat="43.16087" lon="11.0856066"><ele>499.0</ele><time>2026-04-04T09:37:56.51Z</time></trkpt><trkpt lat="43.1609731" lon="11.0858309"><ele>494.33333333333337</ele><time>2026-04-04T09:37:57.51Z</time></trkpt><trkpt lat="43.1610681" lon="11.0860589"><ele>489.66666666666663</ele><time>2026-04-04T09:37:58.511Z</time></trkpt><trkpt lat="43.1611584" lon="11.0862671"><ele>485.0</ele><time>2026-04-04T09:37:59.548Z</time></trkpt><trkpt lat="43.1612385" lon="11.0864733"><ele>480.3333333333333</ele><time>2026-04-04T09:38:00.505Z</time></trkpt><trkpt lat="43.1613155" lon="11.0866888"><ele>475.66666666666663</ele><time>2026-04-04T09:38:01.512Z</time></trkpt><trkpt lat="43.1613797" lon="11.0869141"><ele>471.0</ele><time>2026-04-04T09:38:02.512Z</time></trkpt><trkpt lat="43.1614313" lon="11.0871404"><ele>471.0</ele><time>2026-04-04T09:38:03.514Z</time></trkpt><trkpt lat="43.1614758" lon="11.0873615"><ele>471.0</ele><time>2026-04-04T09:38:04.506Z</time></trkpt><trkpt lat="43.1614987" lon="11.0875826"><ele>471.0</ele><time>2026-04-04T09:38:05.507Z</time></trkpt><trkpt lat="43.161527" lon="11.0877937"><ele>472.0</ele><time>2026-04-04T09:38:06.513Z</time></trkpt><trkpt lat="43.161567" lon="11.0879916"><ele>473.0</ele><time>2026-04-04T09:38:07.513Z</time></trkpt><trkpt lat="43.161638" lon="11.0881748"><ele>474.0</ele><time>2026-04-04T09:38:08.515Z</time></trkpt><trkpt lat="43.1617183" lon="11.0883118"><ele>475.0</ele><time>2026-04-04T09:38:09.503Z</time></trkpt><trkpt lat="43.1618378" lon="11.0884381"><ele>475.0</ele><time>2026-04-04T09:38:10.502Z</time></trkpt><trkpt lat="43.1619672" lon="11.0885334"><ele>475.0</ele><time>2026-04-04T09:38:11.508Z</time></trkpt><trkpt lat="43.1621117" lon="11.0885704"><ele>475.0</ele><time>2026-04-04T09:38:12.513Z</time></trkpt><trkpt lat="43.1622782" lon="11.0885527"><ele>478.6666666666667</ele><time>2026-04-04T09:38:13.5Z</time></trkpt><trkpt lat="43.1624438" lon="11.088539"><ele>482.33333333333337</ele><time>2026-04-04T09:38:14.515Z</time></trkpt><trkpt lat="43.1626139" lon="11.0885416"><ele>486.0</ele><time>2026-04-04T09:38:15.51Z</time></trkpt><trkpt lat="43.1627787" lon="11.088543"><ele>486.0</ele><time>2026-04-04T09:38:16.498Z</time></trkpt><trkpt lat="43.1629394" lon="11.0885424"><ele>486.0</ele><time>2026-04-04T09:38:17.514Z</time></trkpt><trkpt lat="43.1630998" lon="11.0885586"><ele>486.0</ele><time>2026-04-04T09:38:18.497Z</time></trkpt><trkpt lat="43.1632516" lon="11.0886068"><ele>481.66666666666663</ele><time>2026-04-04T09:38:19.505Z</time></trkpt><trkpt lat="43.1634027" lon="11.0886966"><ele>477.3333333333333</ele><time>2026-04-04T09:38:20.49Z</time></trkpt><trkpt lat="43.1635397" lon="11.0888444"><ele>473.0</ele><time>2026-04-04T09:38:21.497Z</time></trkpt><trkpt lat="43.1636407" lon="11.0890422"><ele>467.3333333333333</ele><time>2026-04-04T09:38:22.519Z</time></trkpt><trkpt lat="43.1637315" lon="11.0892656"><ele>461.66666666666663</ele><time>2026-04-04T09:38:23.506Z</time></trkpt><trkpt lat="43.163801" lon="11.0895145"><ele>456.0</ele><time>2026-04-04T09:38:24.5Z</time></trkpt><trkpt lat="43.1638506" lon="11.0897465"><ele>453.66666666666663</ele><time>2026-04-04T09:38:25.505Z</time></trkpt><trkpt lat="43.163894" lon="11.089973"><ele>451.3333333333333</ele><time>2026-04-04T09:38:26.508Z</time></trkpt><trkpt lat="43.1639375" lon="11.0901936"><ele>449.0</ele><time>2026-04-04T09:38:27.511Z</time></trkpt><trkpt lat="43.1640108" lon="11.0903957"><ele>449.0</ele><time>2026-04-04T09:38:28.497Z</time></trkpt><trkpt lat="43.1641042" lon="11.0905753"><ele>449.0</ele><time>2026-04-04T09:38:29.515Z</time></trkpt><trkpt lat="43.1642218" lon="11.0907082"><ele>449.0</ele><time>2026-04-04T09:38:30.51Z</time></trkpt><trkpt lat="43.1643588" lon="11.0907982"><ele>449.0</ele><time>2026-04-04T09:38:31.508Z</time></trkpt><trkpt lat="43.1645053" lon="11.0908357"><ele>449.0</ele><time>2026-04-04T09:38:32.519Z</time></trkpt><trkpt lat="43.1646437" lon="11.0908276"><ele>449.0</ele><time>2026-04-04T09:38:33.513Z</time></trkpt><trkpt lat="43.1647698" lon="11.0907486"><ele>449.0</ele><time>2026-04-04T09:38:34.512Z</time></trkpt><trkpt lat="43.1648825" lon="11.0906135"><ele>452.66666666666663</ele><time>2026-04-04T09:38:35.509Z</time></trkpt><trkpt lat="43.1649874" lon="11.0904565"><ele>456.33333333333337</ele><time>2026-04-04T09:38:36.512Z</time></trkpt><trkpt lat="43.1650999" lon="11.0903133"><ele>460.0</ele><time>2026-04-04T09:38:37.521Z</time></trkpt><trkpt lat="43.1652142" lon="11.0901745"><ele>460.0</ele><time>2026-04-04T09:38:38.517Z</time></trkpt><trkpt lat="43.165347" lon="11.0901007"><ele>460.0</ele><time>2026-04-04T09:38:39.509Z</time></trkpt><trkpt lat="43.1655038" lon="11.0900771"><ele>460.0</ele><time>2026-04-04T09:38:40.505Z</time></trkpt><trkpt lat="43.1656691" lon="11.0900862"><ele>456.6666666666667</ele><time>2026-04-04T09:38:41.504Z</time></trkpt><trkpt lat="43.1658428" lon="11.0901157"><ele>453.33333333333337</ele><time>2026-04-04T09:38:42.509Z</time></trkpt><trkpt lat="43.1660244" lon="11.0901389"><ele>450.0</ele><time>2026-04-04T09:38:43.512Z</time></trkpt><trkpt lat="43.1661895" lon="11.0901558"><ele>450.0</ele><time>2026-04-04T09:38:44.507Z</time></trkpt><trkpt lat="43.1663421" lon="11.0902088"><ele>450.0</ele><time>2026-04-04T09:38:45.501Z</time></trkpt><trkpt lat="43.1664879" lon="11.0903083"><ele>450.0</ele><time>2026-04-04T09:38:46.498Z</time></trkpt><trkpt lat="43.1666245" lon="11.0904604"><ele>450.33333333333337</ele><time>2026-04-04T09:38:47.499Z</time></trkpt><trkpt lat="43.1667376" lon="11.0906546"><ele>450.6666666666667</ele><time>2026-04-04T09:38:48.5Z</time></trkpt><trkpt lat="43.1668501" lon="11.0908611"><ele>451.0</ele><time>2026-04-04T09:38:49.51Z</time></trkpt><trkpt lat="43.1669557" lon="11.0910656"><ele>448.0</ele><time>2026-04-04T09:38:50.51Z</time></trkpt><trkpt lat="43.167066" lon="11.0912639"><ele>445.0</ele><time>2026-04-04T09:38:51.505Z</time></trkpt><trkpt lat="43.1671937" lon="11.0914378"><ele>442.0</ele><time>2026-04-04T09:38:52.505Z</time></trkpt><trkpt lat="43.1673342" lon="11.0915664"><ele>439.6666666666667</ele><time>2026-04-04T09:38:53.503Z</time></trkpt><trkpt lat="43.167476" lon="11.0916817"><ele>437.33333333333337</ele><time>2026-04-04T09:38:54.511Z</time></trkpt><trkpt lat="43.16761" lon="11.0917908"><ele>435.0</ele><time>2026-04-04T09:38:55.507Z</time></trkpt><trkpt lat="43.1677528" lon="11.0918552"><ele>435.0</ele><time>2026-04-04T09:38:56.512Z</time></trkpt><trkpt lat="43.1679098" lon="11.0918619"><ele>435.0</ele><time>2026-04-04T09:38:57.504Z</time></trkpt><trkpt lat="43.1680587" lon="11.0918755"><ele>435.0</ele><time>2026-04-04T09:38:58.507Z</time></trkpt><trkpt lat="43.1681978" lon="11.091903"><ele>435.0</ele><time>2026-04-04T09:38:59.508Z</time></trkpt><trkpt lat="43.1683253" lon="11.092"><ele>435.25</ele><time>2026-04-04T09:39:00.505Z</time></trkpt><trkpt lat="43.1684278" lon="11.0921536"><ele>435.5</ele><time>2026-04-04T09:39:01.504Z</time></trkpt><trkpt lat="43.1684853" lon="11.0923384"><ele>435.75</ele><time>2026-04-04T09:39:02.513Z</time></trkpt><trkpt lat="43.1685406" lon="11.0925065"><ele>436.0</ele><time>2026-04-04T09:39:03.514Z</time></trkpt><trkpt lat="43.1686174" lon="11.0926492"><ele>433.25</ele><time>2026-04-04T09:39:04.511Z</time></trkpt><trkpt lat="43.1687435" lon="11.0927365"><ele>430.5</ele><time>2026-04-04T09:39:05.507Z</time></trkpt><trkpt lat="43.1688894" lon="11.0927492"><ele>427.75</ele><time>2026-04-04T09:39:06.503Z</time></trkpt><trkpt lat="43.1690495" lon="11.0927381"><ele>425.0</ele><time>2026-04-04T09:39:07.497Z</time></trkpt><trkpt lat="43.1692195" lon="11.0927279"><ele>424.0</ele><time>2026-04-04T09:39:08.506Z</time></trkpt><trkpt lat="43.1693791" lon="11.0927279"><ele>423.0</ele><time>2026-04-04T09:39:09.513Z</time></trkpt><trkpt lat="43.169525" lon="11.092789"><ele>422.0</ele><time>2026-04-04T09:39:10.517Z</time></trkpt><trkpt lat="43.1696581" lon="11.0929172"><ele>422.0</ele><time>2026-04-04T09:39:11.517Z</time></trkpt><trkpt lat="43.1697664" lon="11.0931042"><ele>422.0</ele><time>2026-04-04T09:39:12.511Z</time></trkpt><trkpt lat="43.1698886" lon="11.0932893"><ele>422.0</ele><time>2026-04-04T09:39:13.508Z</time></trkpt><trkpt lat="43.1700082" lon="11.0934794"><ele>423.0</ele><time>2026-04-04T09:39:14.493Z</time></trkpt><trkpt lat="43.1701277" lon="11.0936514"><ele>424.0</ele><time>2026-04-04T09:39:15.497Z</time></trkpt><trkpt lat="43.1702591" lon="11.0938438"><ele>425.0</ele><time>2026-04-04T09:39:16.503Z</time></trkpt><trkpt lat="43.1703724" lon="11.0940523"><ele>420.3333333333333</ele><time>2026-04-04T09:39:17.506Z</time></trkpt><trkpt lat="43.1704629" lon="11.0942705"><ele>415.66666666666663</ele><time>2026-04-04T09:39:18.51Z</time></trkpt><trkpt lat="43.1705327" lon="11.0945059"><ele>411.0</ele><time>2026-04-04T09:39:19.504Z</time></trkpt><trkpt lat="43.170598" lon="11.0947457"><ele>414.33333333333337</ele><time>2026-04-04T09:39:20.5Z</time></trkpt><trkpt lat="43.1706537" lon="11.0949915"><ele>417.6666666666667</ele><time>2026-04-04T09:39:21.524Z</time></trkpt><trkpt lat="43.1707064" lon="11.0952198"><ele>421.0</ele><time>2026-04-04T09:39:22.505Z</time></trkpt><trkpt lat="43.1707578" lon="11.0954432"><ele>421.0</ele><time>2026-04-04T09:39:23.513Z</time></trkpt><trkpt lat="43.1708109" lon="11.0956526"><ele>421.0</ele><time>2026-04-04T09:39:24.51Z</time></trkpt><trkpt lat="43.1708662" lon="11.0958445"><ele>421.0</ele><time>2026-04-04T09:39:25.506Z</time></trkpt><trkpt lat="43.1709319" lon="11.0960189"><ele>420.0</ele><time>2026-04-04T09:39:26.514Z</time></trkpt><trkpt lat="43.1710225" lon="11.0961428"><ele>419.0</ele><time>2026-04-04T09:39:27.503Z</time></trkpt><trkpt lat="43.1711424" lon="11.0962069"><ele>418.0</ele><time>2026-04-04T09:39:28.51Z</time></trkpt><trkpt lat="43.1712714" lon="11.0962136"><ele>417.0</ele><time>2026-04-04T09:39:29.499Z</time></trkpt><trkpt lat="43.1714083" lon="11.0961373"><ele>418.33333333333337</ele><time>2026-04-04T09:39:30.511Z</time></trkpt><trkpt lat="43.1715647" lon="11.0960142"><ele>419.6666666666667</ele><time>2026-04-04T09:39:31.513Z</time></trkpt><trkpt lat="43.1717273" lon="11.0958904"><ele>421.0</ele><time>2026-04-04T09:39:32.512Z</time></trkpt><trkpt lat="43.17192" lon="11.0957704"><ele>419.0</ele><time>2026-04-04T09:39:33.51Z</time></trkpt><trkpt lat="43.1721129" lon="11.0956539"><ele>417.0</ele><time>2026-04-04T09:39:34.513Z</time></trkpt><trkpt lat="43.1722884" lon="11.0955383"><ele>415.0</ele><time>2026-04-04T09:39:35.514Z</time></trkpt><trkpt lat="43.1724373" lon="11.0954494"><ele>412.33333333333337</ele><time>2026-04-04T09:39:36.514Z</time></trkpt><trkpt lat="43.1726004" lon="11.0953953"><ele>409.66666666666663</ele><time>2026-04-04T09:39:37.515Z</time></trkpt><trkpt lat="43.172757" lon="11.0953816"><ele>407.0</ele><time>2026-04-04T09:39:38.508Z</time></trkpt><trkpt lat="43.1729248" lon="11.0954271"><ele>407.0</ele><time>2026-04-04T09:39:39.497Z</time></trkpt><trkpt lat="43.1731023" lon="11.0955014"><ele>407.0</ele><time>2026-04-04T09:39:40.518Z</time></trkpt><trkpt lat="43.1732958" lon="11.0955876"><ele>407.0</ele><time>2026-04-04T09:39:41.513Z</time></trkpt><trkpt lat="43.1734895" lon="11.0956889"><ele>404.0</ele><time>2026-04-04T09:39:42.505Z</time></trkpt><trkpt lat="43.1736684" lon="11.0957997"><ele>401.0</ele><time>2026-04-04T09:39:43.505Z</time></trkpt><trkpt lat="43.1738347" lon="11.0959296"><ele>398.0</ele><time>2026-04-04T09:39:44.504Z</time></trkpt><trkpt lat="43.1739913" lon="11.0960658"><ele>398.0</ele><time>2026-04-04T09:39:45.513Z</time></trkpt><trkpt lat="43.1741296" lon="11.0962405"><ele>398.0</ele><time>2026-04-04T09:39:46.508Z</time></trkpt><trkpt lat="43.1742447" lon="11.0964378"><ele>398.0</ele><time>2026-04-04T09:39:47.509Z</time></trkpt><trkpt lat="43.1743326" lon="11.0966662"><ele>398.0</ele><time>2026-04-04T09:39:48.505Z</time></trkpt><trkpt lat="43.1744026" lon="11.0969198"><ele>398.0</ele><time>2026-04-04T09:39:49.508Z</time></trkpt><trkpt lat="43.174475" lon="11.0971863"><ele>398.0</ele><time>2026-04-04T09:39:50.505Z</time></trkpt><trkpt lat="43.1745543" lon="11.0974423"><ele>394.3333333333333</ele><time>2026-04-04T09:39:51.509Z</time></trkpt><trkpt lat="43.1746266" lon="11.097692"><ele>390.66666666666663</ele><time>2026-04-04T09:39:52.507Z</time></trkpt><trkpt lat="43.1746987" lon="11.097926"><ele>387.0</ele><time>2026-04-04T09:39:53.512Z</time></trkpt><trkpt lat="43.1747692" lon="11.0981579"><ele>384.6666666666667</ele><time>2026-04-04T09:39:54.499Z</time></trkpt><trkpt lat="43.1748365" lon="11.0983851"><ele>382.33333333333337</ele><time>2026-04-04T09:39:55.506Z</time></trkpt><trkpt lat="43.1749095" lon="11.0986125"><ele>380.0</ele><time>2026-04-04T09:39:56.514Z</time></trkpt><trkpt lat="43.1749727" lon="11.0988367"><ele>385.33333333333337</ele><time>2026-04-04T09:39:57.514Z</time></trkpt><trkpt lat="43.1750347" lon="11.0990571"><ele>390.6666666666667</ele><time>2026-04-04T09:39:58.512Z</time></trkpt><trkpt lat="43.1751003" lon="11.0992847"><ele>396.0</ele><time>2026-04-04T09:39:59.504Z</time></trkpt><trkpt lat="43.1751627" lon="11.0995062"><ele>396.0</ele><time>2026-04-04T09:40:00.502Z</time></trkpt><trkpt lat="43.1752286" lon="11.099737"><ele>396.0</ele><time>2026-04-04T09:40:01.509Z</time></trkpt><trkpt lat="43.1753011" lon="11.0999749"><ele>396.0</ele><time>2026-04-04T09:40:02.506Z</time></trkpt><trkpt lat="43.1753681" lon="11.1002153"><ele>396.0</ele><time>2026-04-04T09:40:03.517Z</time></trkpt><trkpt lat="43.1754321" lon="11.1004458"><ele>396.0</ele><time>2026-04-04T09:40:04.508Z</time></trkpt><trkpt lat="43.1754976" lon="11.1006698"><ele>396.0</ele><time>2026-04-04T09:40:05.495Z</time></trkpt><trkpt lat="43.1755608" lon="11.1008918"><ele>394.66666666666663</ele><time>2026-04-04T09:40:06.505Z</time></trkpt><trkpt lat="43.1756278" lon="11.1011154"><ele>393.3333333333333</ele><time>2026-04-04T09:40:07.508Z</time></trkpt><trkpt lat="43.1756981" lon="11.1013511"><ele>392.0</ele><time>2026-04-04T09:40:08.517Z</time></trkpt><trkpt lat="43.1757707" lon="11.1015907"><ele>391.0</ele><time>2026-04-04T09:40:09.513Z</time></trkpt><trkpt lat="43.1758447" lon="11.1018295"><ele>390.0</ele><time>2026-04-04T09:40:10.51Z</time></trkpt><trkpt lat="43.1759188" lon="11.1020589"><ele>389.0</ele><time>2026-04-04T09:40:11.522Z</time></trkpt><trkpt lat="43.1759881" lon="11.1022883"><ele>388.3333333333333</ele><time>2026-04-04T09:40:12.519Z</time></trkpt><trkpt lat="43.176051" lon="11.1025063"><ele>387.66666666666663</ele><time>2026-04-04T09:40:13.514Z</time></trkpt><trkpt lat="43.1761195" lon="11.1027274"><ele>387.0</ele><time>2026-04-04T09:40:14.508Z</time></trkpt><trkpt lat="43.1761815" lon="11.1029441"><ele>387.0</ele><time>2026-04-04T09:40:15.51Z</time></trkpt><trkpt lat="43.1762586" lon="11.1031506"><ele>387.0</ele><time>2026-04-04T09:40:16.512Z</time></trkpt><trkpt lat="43.176344" lon="11.1033493"><ele>387.0</ele><time>2026-04-04T09:40:17.505Z</time></trkpt><trkpt lat="43.1764375" lon="11.1035428"><ele>385.0</ele><time>2026-04-04T09:40:18.512Z</time></trkpt><trkpt lat="43.1765351" lon="11.1037288"><ele>383.0</ele><time>2026-04-04T09:40:19.517Z</time></trkpt><trkpt lat="43.1766416" lon="11.1039034"><ele>381.0</ele><time>2026-04-04T09:40:20.523Z</time></trkpt><trkpt lat="43.1767487" lon="11.1040701"><ele>383.0</ele><time>2026-04-04T09:40:21.528Z</time></trkpt><trkpt lat="43.1768522" lon="11.1042443"><ele>385.0</ele><time>2026-04-04T09:40:22.506Z</time></trkpt><trkpt lat="43.1769522" lon="11.1044128"><ele>387.0</ele><time>2026-04-04T09:40:23.513Z</time></trkpt><trkpt lat="43.1770486" lon="11.1045851"><ele>387.0</ele><time>2026-04-04T09:40:24.512Z</time></trkpt><trkpt lat="43.1771443" lon="11.1047498"><ele>387.0</ele><time>2026-04-04T09:40:25.505Z</time></trkpt><trkpt lat="43.1772447" lon="11.1049145"><ele>387.0</ele><time>2026-04-04T09:40:26.514Z</time></trkpt><trkpt lat="43.1773475" lon="11.1050683"><ele>384.6666666666667</ele><time>2026-04-04T09:40:27.507Z</time></trkpt><trkpt lat="43.1774446" lon="11.1052195"><ele>382.33333333333337</ele><time>2026-04-04T09:40:28.514Z</time></trkpt><trkpt lat="43.1775346" lon="11.1053778"><ele>380.0</ele><time>2026-04-04T09:40:29.515Z</time></trkpt><trkpt lat="43.1776257" lon="11.1055532"><ele>380.0</ele><time>2026-04-04T09:40:30.495Z</time></trkpt><trkpt lat="43.1777212" lon="11.1057273"><ele>380.0</ele><time>2026-04-04T09:40:31.509Z</time></trkpt><trkpt lat="43.1778267" lon="11.1058957"><ele>380.0</ele><time>2026-04-04T09:40:32.507Z</time></trkpt><trkpt lat="43.1779383" lon="11.1060656"><ele>379.33333333333337</ele><time>2026-04-04T09:40:33.514Z</time></trkpt><trkpt lat="43.1780537" lon="11.1062243"><ele>378.6666666666667</ele><time>2026-04-04T09:40:34.502Z</time></trkpt><trkpt lat="43.1781677" lon="11.1063706"><ele>378.0</ele><time>2026-04-04T09:40:35.515Z</time></trkpt><trkpt lat="43.178284" lon="11.1065159"><ele>377.0</ele><time>2026-04-04T09:40:36.506Z</time></trkpt><trkpt lat="43.178399" lon="11.1066506"><ele>376.0</ele><time>2026-04-04T09:40:37.507Z</time></trkpt><trkpt lat="43.178508" lon="11.1067902"><ele>375.0</ele><time>2026-04-04T09:40:38.515Z</time></trkpt><trkpt lat="43.1786266" lon="11.1069321"><ele>375.0</ele><time>2026-04-04T09:40:39.519Z</time></trkpt><trkpt lat="43.1787512" lon="11.107058"><ele>375.0</ele><time>2026-04-04T09:40:40.502Z</time></trkpt><trkpt lat="43.1788865" lon="11.1071804"><ele>375.0</ele><time>2026-04-04T09:40:41.521Z</time></trkpt><trkpt lat="43.1790273" lon="11.1072881"><ele>374.6666666666667</ele><time>2026-04-04T09:40:42.508Z</time></trkpt><trkpt lat="43.1791751" lon="11.1073919"><ele>374.33333333333337</ele><time>2026-04-04T09:40:43.51Z</time></trkpt><trkpt lat="43.1793239" lon="11.1074919"><ele>374.0</ele><time>2026-04-04T09:40:44.506Z</time></trkpt><trkpt lat="43.1794749" lon="11.1075959"><ele>374.0</ele><time>2026-04-04T09:40:45.496Z</time></trkpt><trkpt lat="43.1796259" lon="11.107704"><ele>374.0</ele><time>2026-04-04T09:40:46.498Z</time></trkpt><trkpt lat="43.1797815" lon="11.1078162"><ele>374.0</ele><time>2026-04-04T09:40:47.498Z</time></trkpt><trkpt lat="43.1799473" lon="11.1079372"><ele>374.0</ele><time>2026-04-04T09:40:48.508Z</time></trkpt><trkpt lat="43.1801123" lon="11.1080593"><ele>374.0</ele><time>2026-04-04T09:40:49.504Z</time></trkpt><trkpt lat="43.180274" lon="11.108194"><ele>374.0</ele><time>2026-04-04T09:40:50.494Z</time></trkpt><trkpt lat="43.1804407" lon="11.1083052"><ele>374.0</ele><time>2026-04-04T09:40:51.508Z</time></trkpt><trkpt lat="43.1805987" lon="11.1084205"><ele>374.0</ele><time>2026-04-04T09:40:52.506Z</time></trkpt><trkpt lat="43.1807502" lon="11.1085352"><ele>374.0</ele><time>2026-04-04T09:40:53.507Z</time></trkpt><trkpt lat="43.1808951" lon="11.1086507"><ele>371.6666666666667</ele><time>2026-04-04T09:40:54.515Z</time></trkpt><trkpt lat="43.1810236" lon="11.1087881"><ele>369.3333333333333</ele><time>2026-04-04T09:40:55.515Z</time></trkpt><trkpt lat="43.1811399" lon="11.1089686"><ele>367.0</ele><time>2026-04-04T09:40:56.503Z</time></trkpt><trkpt lat="43.1812507" lon="11.1091693"><ele>365.0</ele><time>2026-04-04T09:40:57.502Z</time></trkpt><trkpt lat="43.1813428" lon="11.1093677"><ele>363.0</ele><time>2026-04-04T09:40:58.514Z</time></trkpt><trkpt lat="43.181434" lon="11.1095631"><ele>361.0</ele><time>2026-04-04T09:40:59.507Z</time></trkpt><trkpt lat="43.1815143" lon="11.1097538"><ele>359.66666666666663</ele><time>2026-04-04T09:41:00.507Z</time></trkpt><trkpt lat="43.1815778" lon="11.1099484"><ele>358.3333333333333</ele><time>2026-04-04T09:41:01.523Z</time></trkpt><trkpt lat="43.1816234" lon="11.1101498"><ele>357.0</ele><time>2026-04-04T09:41:02.498Z</time></trkpt><trkpt lat="43.1816551" lon="11.1103669"><ele>357.0</ele><time>2026-04-04T09:41:03.525Z</time></trkpt><trkpt lat="43.1816899" lon="11.1105985"><ele>357.0</ele><time>2026-04-04T09:41:04.518Z</time></trkpt><trkpt lat="43.1817216" lon="11.1108346"><ele>357.0</ele><time>2026-04-04T09:41:05.527Z</time></trkpt><trkpt lat="43.181753" lon="11.1110783"><ele>357.0</ele><time>2026-04-04T09:41:06.519Z</time></trkpt><trkpt lat="43.181784" lon="11.1113217"><ele>357.0</ele><time>2026-04-04T09:41:07.509Z</time></trkpt><trkpt lat="43.1818127" lon="11.1115652"><ele>357.0</ele><time>2026-04-04T09:41:08.527Z</time></trkpt><trkpt lat="43.1818457" lon="11.111802"><ele>357.0</ele><time>2026-04-04T09:41:09.519Z</time></trkpt><trkpt lat="43.1818932" lon="11.1120435"><ele>357.0</ele><time>2026-04-04T09:41:10.509Z</time></trkpt><trkpt lat="43.1819541" lon="11.1122887"><ele>357.0</ele><time>2026-04-04T09:41:11.503Z</time></trkpt><trkpt lat="43.182019" lon="11.1125339"><ele>355.3333333333333</ele><time>2026-04-04T09:41:12.517Z</time></trkpt><trkpt lat="43.182075" lon="11.1127791"><ele>353.66666666666663</ele><time>2026-04-04T09:41:13.52Z</time></trkpt><trkpt lat="43.1821219" lon="11.1130278"><ele>352.0</ele><time>2026-04-04T09:41:14.518Z</time></trkpt><trkpt lat="43.1821359" lon="11.1132907"><ele>350.3333333333333</ele><time>2026-04-04T09:41:15.519Z</time></trkpt><trkpt lat="43.1821268" lon="11.1135465"><ele>348.6666666666667</ele><time>2026-04-04T09:41:16.492Z</time></trkpt><trkpt lat="43.1821165" lon="11.1137827"><ele>347.0</ele><time>2026-04-04T09:41:17.504Z</time></trkpt><trkpt lat="43.1821204" lon="11.1139933"><ele>346.0</ele><time>2026-04-04T09:41:18.514Z</time></trkpt><trkpt lat="43.1821446" lon="11.1141773"><ele>345.0</ele><time>2026-04-04T09:41:19.513Z</time></trkpt><trkpt lat="43.1821874" lon="11.1143511"><ele>344.0</ele><time>2026-04-04T09:41:20.523Z</time></trkpt><trkpt lat="43.1822665" lon="11.1144863"><ele>343.0</ele><time>2026-04-04T09:41:21.524Z</time></trkpt><trkpt lat="43.1823755" lon="11.1145936"><ele>348.0</ele><time>2026-04-04T09:41:22.495Z</time></trkpt><trkpt lat="43.1825217" lon="11.1146631"><ele>353.0</ele><time>2026-04-04T09:41:23.499Z</time></trkpt><trkpt lat="43.1826715" lon="11.114701"><ele>358.0</ele><time>2026-04-04T09:41:24.51Z</time></trkpt><trkpt lat="43.1828328" lon="11.1147157"><ele>358.0</ele><time>2026-04-04T09:41:25.507Z</time></trkpt><trkpt lat="43.1830033" lon="11.1147233"><ele>358.0</ele><time>2026-04-04T09:41:26.523Z</time></trkpt><trkpt lat="43.1831796" lon="11.1147331"><ele>358.0</ele><time>2026-04-04T09:41:27.509Z</time></trkpt><trkpt lat="43.1833593" lon="11.114747"><ele>357.66666666666663</ele><time>2026-04-04T09:41:28.508Z</time></trkpt><trkpt lat="43.1835499" lon="11.1147561"><ele>357.3333333333333</ele><time>2026-04-04T09:41:29.511Z</time></trkpt><trkpt lat="43.1837329" lon="11.1147634"><ele>357.0</ele><time>2026-04-04T09:41:30.511Z</time></trkpt><trkpt lat="43.1839039" lon="11.1147725"><ele>354.3333333333333</ele><time>2026-04-04T09:41:31.502Z</time></trkpt><trkpt lat="43.1840765" lon="11.114787"><ele>351.66666666666663</ele><time>2026-04-04T09:41:32.504Z</time></trkpt><trkpt lat="43.1842361" lon="11.1148303"><ele>349.0</ele><time>2026-04-04T09:41:33.519Z</time></trkpt><trkpt lat="43.1843961" lon="11.1149169"><ele>346.3333333333333</ele><time>2026-04-04T09:41:34.506Z</time></trkpt><trkpt lat="43.1845394" lon="11.1150378"><ele>343.6666666666667</ele><time>2026-04-04T09:41:35.521Z</time></trkpt><trkpt lat="43.1846595" lon="11.1151929"><ele>341.0</ele><time>2026-04-04T09:41:36.517Z</time></trkpt><trkpt lat="43.1847452" lon="11.1153732"><ele>341.0</ele><time>2026-04-04T09:41:37.516Z</time></trkpt><trkpt lat="43.1848085" lon="11.1155959"><ele>341.0</ele><time>2026-04-04T09:41:38.511Z</time></trkpt><trkpt lat="43.1848415" lon="11.1158385"><ele>341.0</ele><time>2026-04-04T09:41:39.518Z</time></trkpt><trkpt lat="43.1848676" lon="11.1160856"><ele>340.33333333333337</ele><time>2026-04-04T09:41:40.505Z</time></trkpt><trkpt lat="43.1849047" lon="11.116324"><ele>339.6666666666667</ele><time>2026-04-04T09:41:41.504Z</time></trkpt><trkpt lat="43.1849128" lon="11.1165648"><ele>339.0</ele><time>2026-04-04T09:41:42.516Z</time></trkpt><trkpt lat="43.1849085" lon="11.1168068"><ele>339.0</ele><time>2026-04-04T09:41:43.514Z</time></trkpt><trkpt lat="43.1849005" lon="11.1170634"><ele>339.0</ele><time>2026-04-04T09:41:44.514Z</time></trkpt><trkpt lat="43.1848889" lon="11.1173121"><ele>339.0</ele><time>2026-04-04T09:41:45.506Z</time></trkpt><trkpt lat="43.1848738" lon="11.1175534"><ele>339.0</ele><time>2026-04-04T09:41:46.513Z</time></trkpt><trkpt lat="43.1848575" lon="11.1177931"><ele>339.0</ele><time>2026-04-04T09:41:47.513Z</time></trkpt><trkpt lat="43.1848407" lon="11.1180224"><ele>339.0</ele><time>2026-04-04T09:41:48.512Z</time></trkpt><trkpt lat="43.1848269" lon="11.1182491"><ele>337.6666666666667</ele><time>2026-04-04T09:41:49.519Z</time></trkpt><trkpt lat="43.1848188" lon="11.1184848"><ele>336.33333333333337</ele><time>2026-04-04T09:41:50.517Z</time></trkpt><trkpt lat="43.1848292" lon="11.1187287"><ele>335.0</ele><time>2026-04-04T09:41:51.516Z</time></trkpt><trkpt lat="43.1848554" lon="11.1189882"><ele>335.0</ele><time>2026-04-04T09:41:52.51Z</time></trkpt><trkpt lat="43.1848917" lon="11.1192468"><ele>335.0</ele><time>2026-04-04T09:41:53.504Z</time></trkpt><trkpt lat="43.1849242" lon="11.1195097"><ele>335.0</ele><time>2026-04-04T09:41:54.507Z</time></trkpt><trkpt lat="43.1849559" lon="11.1197741"><ele>333.6666666666667</ele><time>2026-04-04T09:41:55.514Z</time></trkpt><trkpt lat="43.1849804" lon="11.1200352"><ele>332.3333333333333</ele><time>2026-04-04T09:41:56.523Z</time></trkpt><trkpt lat="43.1850096" lon="11.120288"><ele>331.0</ele><time>2026-04-04T09:41:57.497Z</time></trkpt><trkpt lat="43.1850391" lon="11.1205401"><ele>328.66666666666663</ele><time>2026-04-04T09:41:58.507Z</time></trkpt><trkpt lat="43.1850592" lon="11.1207983"><ele>326.3333333333333</ele><time>2026-04-04T09:41:59.524Z</time></trkpt><trkpt lat="43.1850629" lon="11.1210637"><ele>324.0</ele><time>2026-04-04T09:42:00.536Z</time></trkpt><trkpt lat="43.1850536" lon="11.1213382"><ele>323.6666666666667</ele><time>2026-04-04T09:42:01.536Z</time></trkpt><trkpt lat="43.1850293" lon="11.1215954"><ele>323.33333333333337</ele><time>2026-04-04T09:42:02.537Z</time></trkpt><trkpt lat="43.1850068" lon="11.1218404"><ele>323.0</ele><time>2026-04-04T09:42:03.537Z</time></trkpt><trkpt lat="43.1850126" lon="11.1220886"><ele>323.0</ele><time>2026-04-04T09:42:04.537Z</time></trkpt><trkpt lat="43.1850357" lon="11.1223414"><ele>323.0</ele><time>2026-04-04T09:42:05.548Z</time></trkpt><trkpt lat="43.1851046" lon="11.1226055"><ele>323.0</ele><time>2026-04-04T09:42:06.544Z</time></trkpt><trkpt lat="43.185204" lon="11.1228839"><ele>322.5</ele><time>2026-04-04T09:42:07.528Z</time></trkpt><trkpt lat="43.1853009" lon="11.1231791"><ele>322.0</ele><time>2026-04-04T09:42:08.534Z</time></trkpt><trkpt lat="43.1853957" lon="11.1234688"><ele>321.66666666666663</ele><time>2026-04-04T09:42:09.546Z</time></trkpt><trkpt lat="43.1854934" lon="11.1237372"><ele>321.3333333333333</ele><time>2026-04-04T09:42:10.54Z</time></trkpt><trkpt lat="43.1855791" lon="11.1239951"><ele>321.0</ele><time>2026-04-04T09:42:11.529Z</time></trkpt><trkpt lat="43.1856585" lon="11.1242581"><ele>320.3333333333333</ele><time>2026-04-04T09:42:12.54Z</time></trkpt><trkpt lat="43.18575" lon="11.124526"><ele>319.66666666666663</ele><time>2026-04-04T09:42:13.535Z</time></trkpt><trkpt lat="43.185841" lon="11.124804"><ele>319.0</ele><time>2026-04-04T09:42:14.53Z</time></trkpt><trkpt lat="43.1859291" lon="11.1250853"><ele>317.5</ele><time>2026-04-04T09:42:15.542Z</time></trkpt><trkpt lat="43.1860202" lon="11.1253793"><ele>316.0</ele><time>2026-04-04T09:42:16.541Z</time></trkpt><trkpt lat="43.1861197" lon="11.1257042"><ele>314.5</ele><time>2026-04-04T09:42:17.52Z</time></trkpt><trkpt lat="43.1862324" lon="11.1260435"><ele>313.0</ele><time>2026-04-04T09:42:18.535Z</time></trkpt><trkpt lat="43.1863457" lon="11.1263775"><ele>310.5</ele><time>2026-04-04T09:42:19.539Z</time></trkpt><trkpt lat="43.1864533" lon="11.1266833"><ele>308.0</ele><time>2026-04-04T09:42:20.533Z</time></trkpt><trkpt lat="43.1865475" lon="11.1269849"><ele>308.0</ele><time>2026-04-04T09:42:21.539Z</time></trkpt><trkpt lat="43.1866421" lon="11.1272703"><ele>308.0</ele><time>2026-04-04T09:42:22.539Z</time></trkpt><trkpt lat="43.1867372" lon="11.1275562"><ele>307.0</ele><time>2026-04-04T09:42:23.541Z</time></trkpt><trkpt lat="43.1868323" lon="11.127841"><ele>306.0</ele><time>2026-04-04T09:42:24.534Z</time></trkpt><trkpt lat="43.1869246" lon="11.1281249"><ele>306.0</ele><time>2026-04-04T09:42:25.541Z</time></trkpt><trkpt lat="43.1870169" lon="11.128398"><ele>306.0</ele><time>2026-04-04T09:42:26.493Z</time></trkpt><trkpt lat="43.1871034" lon="11.1286494"><ele>306.0</ele><time>2026-04-04T09:42:27.527Z</time></trkpt><trkpt lat="43.1871807" lon="11.1288861"><ele>306.3333333333333</ele><time>2026-04-04T09:42:28.53Z</time></trkpt><trkpt lat="43.1872573" lon="11.1291037"><ele>306.66666666666663</ele><time>2026-04-04T09:42:29.555Z</time></trkpt><trkpt lat="43.1873174" lon="11.1292889"><ele>307.0</ele><time>2026-04-04T09:42:30.494Z</time></trkpt><trkpt lat="43.1873618" lon="11.1294671"><ele>307.0</ele><time>2026-04-04T09:42:31.553Z</time></trkpt><trkpt lat="43.1873633" lon="11.129644"><ele>307.0</ele><time>2026-04-04T09:42:32.538Z</time></trkpt><trkpt lat="43.1873227" lon="11.129837"><ele>307.0</ele><time>2026-04-04T09:42:33.539Z</time></trkpt><trkpt lat="43.1872562" lon="11.1300327"><ele>307.0</ele><time>2026-04-04T09:42:34.536Z</time></trkpt><trkpt lat="43.1871844" lon="11.1302446"><ele>307.3333333333333</ele><time>2026-04-04T09:42:35.546Z</time></trkpt><trkpt lat="43.1871228" lon="11.1304654"><ele>307.6666666666667</ele><time>2026-04-04T09:42:36.529Z</time></trkpt><trkpt lat="43.1870713" lon="11.130708"><ele>308.0</ele><time>2026-04-04T09:42:37.548Z</time></trkpt><trkpt lat="43.1870358" lon="11.130938"><ele>307.33333333333337</ele><time>2026-04-04T09:42:38.542Z</time></trkpt><trkpt lat="43.1870041" lon="11.1311733"><ele>306.6666666666667</ele><time>2026-04-04T09:42:39.548Z</time></trkpt><trkpt lat="43.1869675" lon="11.1314118"><ele>306.0</ele><time>2026-04-04T09:42:40.53Z</time></trkpt><trkpt lat="43.1869024" lon="11.1316527"><ele>305.0</ele><time>2026-04-04T09:42:41.542Z</time></trkpt><trkpt lat="43.1868217" lon="11.1318876"><ele>304.0</ele><time>2026-04-04T09:42:42.539Z</time></trkpt><trkpt lat="43.1867342" lon="11.1321164"><ele>303.0</ele><time>2026-04-04T09:42:43.546Z</time></trkpt><trkpt lat="43.1866491" lon="11.1323366"><ele>303.3333333333333</ele><time>2026-04-04T09:42:44.544Z</time></trkpt><trkpt lat="43.1865576" lon="11.1325455"><ele>303.66666666666663</ele><time>2026-04-04T09:42:45.542Z</time></trkpt><trkpt lat="43.1864526" lon="11.1327231"><ele>304.0</ele><time>2026-04-04T09:42:46.538Z</time></trkpt><trkpt lat="43.1863453" lon="11.1328704"><ele>304.0</ele><time>2026-04-04T09:42:47.548Z</time></trkpt><trkpt lat="43.1862573" lon="11.1330012"><ele>304.0</ele><time>2026-04-04T09:42:48.549Z</time></trkpt><trkpt lat="43.186181" lon="11.1331252"><ele>304.0</ele><time>2026-04-04T09:42:49.532Z</time></trkpt><trkpt lat="43.1861346" lon="11.1332809"><ele>304.0</ele><time>2026-04-04T09:42:50.535Z</time></trkpt><trkpt lat="43.1861334" lon="11.1334739"><ele>300.0</ele><time>2026-04-04T09:42:51.536Z</time></trkpt><trkpt lat="43.1861673" lon="11.1336988"><ele>296.0</ele><time>2026-04-04T09:42:52.539Z</time></trkpt><trkpt lat="43.1862282" lon="11.1339335"><ele>292.0</ele><time>2026-04-04T09:42:53.526Z</time></trkpt><trkpt lat="43.1863161" lon="11.1341679"><ele>292.3333333333333</ele><time>2026-04-04T09:42:54.538Z</time></trkpt><trkpt lat="43.1863931" lon="11.1344279"><ele>292.6666666666667</ele><time>2026-04-04T09:42:55.544Z</time></trkpt><trkpt lat="43.186468" lon="11.1346976"><ele>293.0</ele><time>2026-04-04T09:42:56.507Z</time></trkpt><trkpt lat="43.1865547" lon="11.1349829"><ele>293.0</ele><time>2026-04-04T09:42:57.494Z</time></trkpt><trkpt lat="43.1866468" lon="11.1352852"><ele>293.0</ele><time>2026-04-04T09:42:58.487Z</time></trkpt><trkpt lat="43.1867418" lon="11.1355915"><ele>290.5</ele><time>2026-04-04T09:42:59.498Z</time></trkpt><trkpt lat="43.1868371" lon="11.1358977"><ele>288.0</ele><time>2026-04-04T09:43:00.517Z</time></trkpt><trkpt lat="43.1869275" lon="11.1361956"><ele>288.0</ele><time>2026-04-04T09:43:01.539Z</time></trkpt><trkpt lat="43.1870076" lon="11.1364958"><ele>288.0</ele><time>2026-04-04T09:43:02.531Z</time></trkpt><trkpt lat="43.187094" lon="11.1367902"><ele>288.0</ele><time>2026-04-04T09:43:03.523Z</time></trkpt><trkpt lat="43.1871802" lon="11.1370769"><ele>288.0</ele><time>2026-04-04T09:43:04.511Z</time></trkpt><trkpt lat="43.1872663" lon="11.1373591"><ele>288.0</ele><time>2026-04-04T09:43:05.518Z</time></trkpt><trkpt lat="43.187351" lon="11.1376392"><ele>288.0</ele><time>2026-04-04T09:43:06.528Z</time></trkpt><trkpt lat="43.1874335" lon="11.1379084"><ele>288.0</ele><time>2026-04-04T09:43:07.527Z</time></trkpt><trkpt lat="43.1875143" lon="11.1381813"><ele>288.0</ele><time>2026-04-04T09:43:08.514Z</time></trkpt><trkpt lat="43.1875916" lon="11.1384594"><ele>287.3333333333333</ele><time>2026-04-04T09:43:09.512Z</time></trkpt><trkpt lat="43.1876754" lon="11.1387358"><ele>286.66666666666663</ele><time>2026-04-04T09:43:10.541Z</time></trkpt><trkpt lat="43.1877548" lon="11.1390075"><ele>286.0</ele><time>2026-04-04T09:43:11.541Z</time></trkpt><trkpt lat="43.1878341" lon="11.1392699"><ele>285.3333333333333</ele><time>2026-04-04T09:43:12.541Z</time></trkpt><trkpt lat="43.1879128" lon="11.1395202"><ele>284.6666666666667</ele><time>2026-04-04T09:43:13.538Z</time></trkpt><trkpt lat="43.1879884" lon="11.1397501"><ele>284.0</ele><time>2026-04-04T09:43:14.532Z</time></trkpt><trkpt lat="43.1880798" lon="11.1399646"><ele>283.33333333333337</ele><time>2026-04-04T09:43:15.526Z</time></trkpt><trkpt lat="43.1881841" lon="11.1401566"><ele>282.6666666666667</ele><time>2026-04-04T09:43:16.541Z</time></trkpt><trkpt lat="43.1883017" lon="11.1403292"><ele>282.0</ele><time>2026-04-04T09:43:17.541Z</time></trkpt><trkpt lat="43.1884421" lon="11.1404849"><ele>282.0</ele><time>2026-04-04T09:43:18.548Z</time></trkpt><trkpt lat="43.1885942" lon="11.1406197"><ele>282.0</ele><time>2026-04-04T09:43:19.541Z</time></trkpt><trkpt lat="43.1887563" lon="11.1407382"><ele>282.0</ele><time>2026-04-04T09:43:20.533Z</time></trkpt><trkpt lat="43.188914" lon="11.1408353"><ele>281.3333333333333</ele><time>2026-04-04T09:43:21.529Z</time></trkpt><trkpt lat="43.1890658" lon="11.140926"><ele>280.66666666666663</ele><time>2026-04-04T09:43:22.537Z</time></trkpt><trkpt lat="43.1892078" lon="11.1410063"><ele>280.0</ele><time>2026-04-04T09:43:23.533Z</time></trkpt><trkpt lat="43.1893339" lon="11.1410837"><ele>280.0</ele><time>2026-04-04T09:43:24.542Z</time></trkpt><trkpt lat="43.1894365" lon="11.1411544"><ele>280.0</ele><time>2026-04-04T09:43:25.527Z</time></trkpt><trkpt lat="43.1895318" lon="11.1412094"><ele>280.0</ele><time>2026-04-04T09:43:26.526Z</time></trkpt><trkpt lat="43.1896187" lon="11.1412586"><ele>280.0</ele><time>2026-04-04T09:43:27.541Z</time></trkpt><trkpt lat="43.1896976" lon="11.1413012"><ele>280.0</ele><time>2026-04-04T09:43:28.525Z</time></trkpt><trkpt lat="43.1897701" lon="11.1413434"><ele>280.0</ele><time>2026-04-04T09:43:29.54Z</time></trkpt><trkpt lat="43.18986" lon="11.1413925"><ele>280.0</ele><time>2026-04-04T09:43:31.534Z</time></trkpt><trkpt lat="43.1899252" lon="11.1414506"><ele>280.0</ele><time>2026-04-04T09:43:34.512Z</time></trkpt><trkpt lat="43.1900067" lon="11.1415502"><ele>280.0</ele><time>2026-04-04T09:43:44.526Z</time></trkpt><trkpt lat="43.1901003" lon="11.1416039"><ele>280.0</ele><time>2026-04-04T09:43:45.537Z</time></trkpt><trkpt lat="43.1902014" lon="11.1416457"><ele>280.0</ele><time>2026-04-04T09:43:46.527Z</time></trkpt><trkpt lat="43.1903227" lon="11.141703"><ele>280.0</ele><time>2026-04-04T09:43:47.531Z</time></trkpt><trkpt lat="43.1904399" lon="11.1417743"><ele>280.0</ele><time>2026-04-04T09:43:48.535Z</time></trkpt><trkpt lat="43.1905723" lon="11.1418527"><ele>280.0</ele><time>2026-04-04T09:43:49.531Z</time></trkpt><trkpt lat="43.1907181" lon="11.1419423"><ele>279.0</ele><time>2026-04-04T09:43:50.539Z</time></trkpt><trkpt lat="43.1908743" lon="11.1420419"><ele>278.0</ele><time>2026-04-04T09:43:51.521Z</time></trkpt><trkpt lat="43.1910503" lon="11.1421389"><ele>277.0</ele><time>2026-04-04T09:43:52.532Z</time></trkpt><trkpt lat="43.1912266" lon="11.1422411"><ele>277.0</ele><time>2026-04-04T09:43:53.541Z</time></trkpt><trkpt lat="43.1914015" lon="11.142354"><ele>277.0</ele><time>2026-04-04T09:43:54.517Z</time></trkpt><trkpt lat="43.1915873" lon="11.1424665"><ele>277.0</ele><time>2026-04-04T09:43:55.533Z</time></trkpt><trkpt lat="43.1917845" lon="11.142586"><ele>276.66666666666663</ele><time>2026-04-04T09:43:56.519Z</time></trkpt><trkpt lat="43.1919779" lon="11.1427033"><ele>276.3333333333333</ele><time>2026-04-04T09:43:57.553Z</time></trkpt><trkpt lat="43.1921769" lon="11.1428158"><ele>276.0</ele><time>2026-04-04T09:43:58.537Z</time></trkpt><trkpt lat="43.1923792" lon="11.1429414"><ele>275.0</ele><time>2026-04-04T09:43:59.54Z</time></trkpt><trkpt lat="43.1925835" lon="11.1430688"><ele>274.0</ele><time>2026-04-04T09:44:00.542Z</time></trkpt><trkpt lat="43.1927954" lon="11.1432003"><ele>274.0</ele><time>2026-04-04T09:44:01.545Z</time></trkpt><trkpt lat="43.1930087" lon="11.1433332"><ele>274.0</ele><time>2026-04-04T09:44:02.54Z</time></trkpt><trkpt lat="43.1932291" lon="11.1434568"><ele>275.0</ele><time>2026-04-04T09:44:03.505Z</time></trkpt><trkpt lat="43.1934426" lon="11.1435854"><ele>276.0</ele><time>2026-04-04T09:44:04.517Z</time></trkpt><trkpt lat="43.1936626" lon="11.1437195"><ele>276.0</ele><time>2026-04-04T09:44:05.53Z</time></trkpt><trkpt lat="43.1938782" lon="11.1438515"><ele>276.0</ele><time>2026-04-04T09:44:06.529Z</time></trkpt><trkpt lat="43.1940922" lon="11.1439838"><ele>274.5</ele><time>2026-04-04T09:44:07.537Z</time></trkpt><trkpt lat="43.1943086" lon="11.1441126"><ele>273.0</ele><time>2026-04-04T09:44:08.535Z</time></trkpt><trkpt lat="43.1945172" lon="11.1442425"><ele>273.0</ele><time>2026-04-04T09:44:09.537Z</time></trkpt><trkpt lat="43.1947269" lon="11.1443734"><ele>273.0</ele><time>2026-04-04T09:44:10.545Z</time></trkpt><trkpt lat="43.1949343" lon="11.1445044"><ele>273.0</ele><time>2026-04-04T09:44:11.558Z</time></trkpt><trkpt lat="43.1951496" lon="11.1446293"><ele>273.0</ele><time>2026-04-04T09:44:12.543Z</time></trkpt><trkpt lat="43.1953644" lon="11.1447508"><ele>273.0</ele><time>2026-04-04T09:44:13.536Z</time></trkpt><trkpt lat="43.1955718" lon="11.1448764"><ele>273.0</ele><time>2026-04-04T09:44:14.552Z</time></trkpt><trkpt lat="43.1957827" lon="11.1449973"><ele>275.0</ele><time>2026-04-04T09:44:15.548Z</time></trkpt><trkpt lat="43.1959999" lon="11.1451078"><ele>277.0</ele><time>2026-04-04T09:44:16.546Z</time></trkpt><trkpt lat="43.1962244" lon="11.1451988"><ele>277.0</ele><time>2026-04-04T09:44:17.543Z</time></trkpt><trkpt lat="43.1964402" lon="11.1452799"><ele>277.0</ele><time>2026-04-04T09:44:18.508Z</time></trkpt><trkpt lat="43.1966586" lon="11.1453577"><ele>277.0</ele><time>2026-04-04T09:44:19.515Z</time></trkpt><trkpt lat="43.1968686" lon="11.1454286"><ele>278.0</ele><time>2026-04-04T09:44:20.525Z</time></trkpt><trkpt lat="43.197074" lon="11.1454881"><ele>279.0</ele><time>2026-04-04T09:44:21.539Z</time></trkpt><trkpt lat="43.1972731" lon="11.1455425"><ele>280.0</ele><time>2026-04-04T09:44:22.544Z</time></trkpt><trkpt lat="43.1974825" lon="11.1455605"><ele>283.0</ele><time>2026-04-04T09:44:23.544Z</time></trkpt><trkpt lat="43.1977048" lon="11.1455329"><ele>286.0</ele><time>2026-04-04T09:44:24.532Z</time></trkpt><trkpt lat="43.1979432" lon="11.1454728"><ele>287.3333333333333</ele><time>2026-04-04T09:44:25.543Z</time></trkpt><trkpt lat="43.1981685" lon="11.1453981"><ele>288.6666666666667</ele><time>2026-04-04T09:44:26.523Z</time></trkpt><trkpt lat="43.198378" lon="11.1453286"><ele>290.0</ele><time>2026-04-04T09:44:27.542Z</time></trkpt><trkpt lat="43.1985768" lon="11.1453163"><ele>290.0</ele><time>2026-04-04T09:44:28.539Z</time></trkpt><trkpt lat="43.1987978" lon="11.1453332"><ele>290.0</ele><time>2026-04-04T09:44:29.543Z</time></trkpt><trkpt lat="43.1990442" lon="11.1453824"><ele>291.5</ele><time>2026-04-04T09:44:30.54Z</time></trkpt><trkpt lat="43.1992945" lon="11.1454312"><ele>293.0</ele><time>2026-04-04T09:44:31.552Z</time></trkpt><trkpt lat="43.199541" lon="11.1454798"><ele>293.0</ele><time>2026-04-04T09:44:32.537Z</time></trkpt><trkpt lat="43.1997609" lon="11.1455436"><ele>293.0</ele><time>2026-04-04T09:44:33.539Z</time></trkpt><trkpt lat="43.1999741" lon="11.1456426"><ele>291.0</ele><time>2026-04-04T09:44:34.529Z</time></trkpt><trkpt lat="43.2001778" lon="11.1457525"><ele>289.0</ele><time>2026-04-04T09:44:35.546Z</time></trkpt><trkpt lat="43.2003758" lon="11.1458968"><ele>287.0</ele><time>2026-04-04T09:44:36.542Z</time></trkpt><trkpt lat="43.2005724" lon="11.1460689"><ele>291.5</ele><time>2026-04-04T09:44:37.532Z</time></trkpt><trkpt lat="43.2007602" lon="11.146247"><ele>296.0</ele><time>2026-04-04T09:44:38.531Z</time></trkpt><trkpt lat="43.200957" lon="11.1464122"><ele>295.33333333333337</ele><time>2026-04-04T09:44:39.541Z</time></trkpt><trkpt lat="43.2011542" lon="11.1465636"><ele>294.6666666666667</ele><time>2026-04-04T09:44:40.552Z</time></trkpt><trkpt lat="43.2013467" lon="11.1466878"><ele>294.0</ele><time>2026-04-04T09:44:41.538Z</time></trkpt><trkpt lat="43.2015317" lon="11.1467969"><ele>296.3333333333333</ele><time>2026-04-04T09:44:42.545Z</time></trkpt><trkpt lat="43.2017105" lon="11.1468883"><ele>298.66666666666663</ele><time>2026-04-04T09:44:43.538Z</time></trkpt><trkpt lat="43.2018785" lon="11.1469537"><ele>301.0</ele><time>2026-04-04T09:44:44.538Z</time></trkpt><trkpt lat="43.2020538" lon="11.1469748"><ele>301.0</ele><time>2026-04-04T09:44:45.541Z</time></trkpt><trkpt lat="43.2022264" lon="11.1469772"><ele>301.0</ele><time>2026-04-04T09:44:46.548Z</time></trkpt><trkpt lat="43.2023857" lon="11.1469778"><ele>301.0</ele><time>2026-04-04T09:44:47.54Z</time></trkpt><trkpt lat="43.2025442" lon="11.1470249"><ele>300.0</ele><time>2026-04-04T09:44:48.54Z</time></trkpt><trkpt lat="43.202675" lon="11.1471364"><ele>299.0</ele><time>2026-04-04T09:44:49.528Z</time></trkpt><trkpt lat="43.2027901" lon="11.1472623"><ele>298.0</ele><time>2026-04-04T09:44:50.537Z</time></trkpt><trkpt lat="43.2028657" lon="11.1474472"><ele>298.0</ele><time>2026-04-04T09:44:51.55Z</time></trkpt><trkpt lat="43.2029363" lon="11.1476826"><ele>298.0</ele><time>2026-04-04T09:44:52.548Z</time></trkpt><trkpt lat="43.2030159" lon="11.1479441"><ele>298.0</ele><time>2026-04-04T09:44:53.545Z</time></trkpt><trkpt lat="43.2031157" lon="11.1481848"><ele>301.3333333333333</ele><time>2026-04-04T09:44:54.517Z</time></trkpt><trkpt lat="43.2032194" lon="11.1484186"><ele>304.6666666666667</ele><time>2026-04-04T09:44:55.53Z</time></trkpt><trkpt lat="43.2033562" lon="11.1486423"><ele>308.0</ele><time>2026-04-04T09:44:56.53Z</time></trkpt><trkpt lat="43.2035183" lon="11.1488707"><ele>311.0</ele><time>2026-04-04T09:44:57.533Z</time></trkpt><trkpt lat="43.2036809" lon="11.149104"><ele>314.0</ele><time>2026-04-04T09:44:58.529Z</time></trkpt><trkpt lat="43.2038282" lon="11.1493164"><ele>317.0</ele><time>2026-04-04T09:44:59.535Z</time></trkpt><trkpt lat="43.2039658" lon="11.1495148"><ele>315.33333333333337</ele><time>2026-04-04T09:45:00.537Z</time></trkpt><trkpt lat="43.2040863" lon="11.1496879"><ele>313.6666666666667</ele><time>2026-04-04T09:45:01.534Z</time></trkpt><trkpt lat="43.2042063" lon="11.1498191"><ele>312.0</ele><time>2026-04-04T09:45:02.546Z</time></trkpt><trkpt lat="43.2043289" lon="11.1499223"><ele>314.0</ele><time>2026-04-04T09:45:03.528Z</time></trkpt><trkpt lat="43.2044725" lon="11.1499847"><ele>316.0</ele><time>2026-04-04T09:45:04.546Z</time></trkpt><trkpt lat="43.2046136" lon="11.1500004"><ele>318.0</ele><time>2026-04-04T09:45:05.533Z</time></trkpt><trkpt lat="43.2047446" lon="11.1499492"><ele>320.0</ele><time>2026-04-04T09:45:06.534Z</time></trkpt><trkpt lat="43.2048655" lon="11.1498358"><ele>320.0</ele><time>2026-04-04T09:45:07.534Z</time></trkpt><trkpt lat="43.2049638" lon="11.149655"><ele>320.0</ele><time>2026-04-04T09:45:08.53Z</time></trkpt><trkpt lat="43.2050613" lon="11.1494866"><ele>320.0</ele><time>2026-04-04T09:45:09.534Z</time></trkpt><trkpt lat="43.2051761" lon="11.1493369"><ele>320.0</ele><time>2026-04-04T09:45:10.534Z</time></trkpt><trkpt lat="43.2052972" lon="11.1492678"><ele>320.0</ele><time>2026-04-04T09:45:11.54Z</time></trkpt><trkpt lat="43.2054054" lon="11.1491901"><ele>320.0</ele><time>2026-04-04T09:45:12.529Z</time></trkpt><trkpt lat="43.2055" lon="11.1490826"><ele>320.0</ele><time>2026-04-04T09:45:13.545Z</time></trkpt><trkpt lat="43.2055332" lon="11.14894"><ele>321.75</ele><time>2026-04-04T09:45:14.538Z</time></trkpt><trkpt lat="43.2055334" lon="11.1487771"><ele>323.5</ele><time>2026-04-04T09:45:15.525Z</time></trkpt><trkpt lat="43.2054655" lon="11.1486197"><ele>325.25</ele><time>2026-04-04T09:45:16.55Z</time></trkpt><trkpt lat="43.2053635" lon="11.148518"><ele>327.0</ele><time>2026-04-04T09:45:17.546Z</time></trkpt><trkpt lat="43.2052185" lon="11.1484472"><ele>327.0</ele><time>2026-04-04T09:45:18.536Z</time></trkpt><trkpt lat="43.2050863" lon="11.1484145"><ele>327.0</ele><time>2026-04-04T09:45:19.556Z</time></trkpt><trkpt lat="43.2049718" lon="11.1483781"><ele>327.0</ele><time>2026-04-04T09:45:20.537Z</time></trkpt><trkpt lat="43.2048914" lon="11.1483079"><ele>327.0</ele><time>2026-04-04T09:45:21.54Z</time></trkpt><trkpt lat="43.2048293" lon="11.1481833"><ele>329.6</ele><time>2026-04-04T09:45:22.528Z</time></trkpt><trkpt lat="43.2048347" lon="11.1480724"><ele>332.20000000000005</ele><time>2026-04-04T09:45:23.537Z</time></trkpt><trkpt lat="43.2048838" lon="11.1479596"><ele>334.8</ele><time>2026-04-04T09:45:24.536Z</time></trkpt><trkpt lat="43.2049509" lon="11.1478819"><ele>337.4</ele><time>2026-04-04T09:45:25.546Z</time></trkpt><trkpt lat="43.205075" lon="11.1478174"><ele>340.0</ele><time>2026-04-04T09:45:26.546Z</time></trkpt><trkpt lat="43.2052251" lon="11.1478236"><ele>340.0</ele><time>2026-04-04T09:45:27.537Z</time></trkpt><trkpt lat="43.2053833" lon="11.1478608"><ele>340.0</ele><time>2026-04-04T09:45:28.532Z</time></trkpt><trkpt lat="43.2055415" lon="11.1479111"><ele>340.0</ele><time>2026-04-04T09:45:29.536Z</time></trkpt><trkpt lat="43.2056774" lon="11.1479652"><ele>340.66666666666663</ele><time>2026-04-04T09:45:30.533Z</time></trkpt><trkpt lat="43.2058218" lon="11.1480516"><ele>341.3333333333333</ele><time>2026-04-04T09:45:31.544Z</time></trkpt><trkpt lat="43.2059659" lon="11.1481538"><ele>342.0</ele><time>2026-04-04T09:45:32.527Z</time></trkpt><trkpt lat="43.2061125" lon="11.1482792"><ele>340.0</ele><time>2026-04-04T09:45:33.534Z</time></trkpt><trkpt lat="43.2062727" lon="11.1484049"><ele>338.0</ele><time>2026-04-04T09:45:34.538Z</time></trkpt><trkpt lat="43.2064477" lon="11.1485475"><ele>336.0</ele><time>2026-04-04T09:45:35.528Z</time></trkpt><trkpt lat="43.2066319" lon="11.1486967"><ele>342.0</ele><time>2026-04-04T09:45:36.535Z</time></trkpt><trkpt lat="43.2068215" lon="11.1488614"><ele>348.0</ele><time>2026-04-04T09:45:37.535Z</time></trkpt><trkpt lat="43.2070185" lon="11.1490287"><ele>350.5</ele><time>2026-04-04T09:45:38.539Z</time></trkpt><trkpt lat="43.2072193" lon="11.1491938"><ele>353.0</ele><time>2026-04-04T09:45:39.533Z</time></trkpt><trkpt lat="43.2074209" lon="11.1493633"><ele>353.0</ele><time>2026-04-04T09:45:40.54Z</time></trkpt><trkpt lat="43.20761" lon="11.149523"><ele>353.0</ele><time>2026-04-04T09:45:41.547Z</time></trkpt><trkpt lat="43.2077868" lon="11.1496753"><ele>353.0</ele><time>2026-04-04T09:45:42.56Z</time></trkpt><trkpt lat="43.2079565" lon="11.1498353"><ele>353.6666666666667</ele><time>2026-04-04T09:45:43.535Z</time></trkpt><trkpt lat="43.2081014" lon="11.1500331"><ele>354.3333333333333</ele><time>2026-04-04T09:45:44.537Z</time></trkpt><trkpt lat="43.2082248" lon="11.1502766"><ele>355.0</ele><time>2026-04-04T09:45:45.526Z</time></trkpt><trkpt lat="43.2083282" lon="11.1505428"><ele>358.66666666666663</ele><time>2026-04-04T09:45:46.543Z</time></trkpt><trkpt lat="43.2084028" lon="11.1507948"><ele>362.3333333333333</ele><time>2026-04-04T09:45:47.537Z</time></trkpt><trkpt lat="43.2084894" lon="11.1510177"><ele>366.0</ele><time>2026-04-04T09:45:48.534Z</time></trkpt><trkpt lat="43.2085901" lon="11.1512106"><ele>366.0</ele><time>2026-04-04T09:45:49.527Z</time></trkpt><trkpt lat="43.2087223" lon="11.1513649"><ele>366.0</ele><time>2026-04-04T09:45:50.538Z</time></trkpt><trkpt lat="43.2088913" lon="11.1514566"><ele>366.0</ele><time>2026-04-04T09:45:51.551Z</time></trkpt><trkpt lat="43.2090757" lon="11.1514893"><ele>366.0</ele><time>2026-04-04T09:45:52.536Z</time></trkpt><trkpt lat="43.2092651" lon="11.1514664"><ele>366.0</ele><time>2026-04-04T09:45:53.526Z</time></trkpt><trkpt lat="43.2094638" lon="11.1514055"><ele>366.0</ele><time>2026-04-04T09:45:54.534Z</time></trkpt><trkpt lat="43.2096665" lon="11.1513489"><ele>367.6666666666667</ele><time>2026-04-04T09:45:55.542Z</time></trkpt><trkpt lat="43.2098807" lon="11.1512867"><ele>369.33333333333337</ele><time>2026-04-04T09:45:56.525Z</time></trkpt><trkpt lat="43.2100919" lon="11.1512334"><ele>371.0</ele><time>2026-04-04T09:45:57.538Z</time></trkpt><trkpt lat="43.2103123" lon="11.1511803"><ele>371.0</ele><time>2026-04-04T09:45:58.544Z</time></trkpt><trkpt lat="43.2105498" lon="11.1511473"><ele>371.0</ele><time>2026-04-04T09:45:59.531Z</time></trkpt><trkpt lat="43.2107805" lon="11.1511366"><ele>372.33333333333337</ele><time>2026-04-04T09:46:00.537Z</time></trkpt><trkpt lat="43.2109938" lon="11.1511312"><ele>373.6666666666667</ele><time>2026-04-04T09:46:01.547Z</time></trkpt><trkpt lat="43.2111883" lon="11.1511346"><ele>375.0</ele><time>2026-04-04T09:46:02.533Z</time></trkpt><trkpt lat="43.2113712" lon="11.1511461"><ele>376.6666666666667</ele><time>2026-04-04T09:46:03.538Z</time></trkpt><trkpt lat="43.2115568" lon="11.151151"><ele>378.33333333333337</ele><time>2026-04-04T09:46:04.539Z</time></trkpt><trkpt lat="43.2117506" lon="11.1511459"><ele>380.0</ele><time>2026-04-04T09:46:05.533Z</time></trkpt><trkpt lat="43.2119414" lon="11.1511731"><ele>380.0</ele><time>2026-04-04T09:46:06.528Z</time></trkpt><trkpt lat="43.212126" lon="11.1512376"><ele>380.0</ele><time>2026-04-04T09:46:07.53Z</time></trkpt><trkpt lat="43.2122972" lon="11.1513359"><ele>380.0</ele><time>2026-04-04T09:46:08.533Z</time></trkpt><trkpt lat="43.2124568" lon="11.1514561"><ele>384.0</ele><time>2026-04-04T09:46:09.545Z</time></trkpt><trkpt lat="43.2126042" lon="11.1516158"><ele>388.0</ele><time>2026-04-04T09:46:10.538Z</time></trkpt><trkpt lat="43.2127272" lon="11.1518306"><ele>392.0</ele><time>2026-04-04T09:46:11.508Z</time></trkpt><trkpt lat="43.2128242" lon="11.1520557"><ele>392.0</ele><time>2026-04-04T09:46:12.531Z</time></trkpt><trkpt lat="43.2129109" lon="11.1523053"><ele>392.0</ele><time>2026-04-04T09:46:13.529Z</time></trkpt><trkpt lat="43.212997" lon="11.1525661"><ele>392.0</ele><time>2026-04-04T09:46:14.54Z</time></trkpt><trkpt lat="43.2130839" lon="11.1528501"><ele>391.3333333333333</ele><time>2026-04-04T09:46:15.543Z</time></trkpt><trkpt lat="43.2131688" lon="11.1531228"><ele>390.66666666666663</ele><time>2026-04-04T09:46:16.547Z</time></trkpt><trkpt lat="43.2132518" lon="11.1533673"><ele>390.0</ele><time>2026-04-04T09:46:17.536Z</time></trkpt><trkpt lat="43.2133558" lon="11.1535682"><ele>393.33333333333337</ele><time>2026-04-04T09:46:18.546Z</time></trkpt><trkpt lat="43.2134866" lon="11.1537467"><ele>396.6666666666667</ele><time>2026-04-04T09:46:19.534Z</time></trkpt><trkpt lat="43.2136439" lon="11.1538832"><ele>400.0</ele><time>2026-04-04T09:46:20.54Z</time></trkpt><trkpt lat="43.2138301" lon="11.1539659"><ele>400.33333333333337</ele><time>2026-04-04T09:46:21.536Z</time></trkpt><trkpt lat="43.2140189" lon="11.1539908"><ele>400.66666666666663</ele><time>2026-04-04T09:46:22.541Z</time></trkpt><trkpt lat="43.2142221" lon="11.1539716"><ele>401.0</ele><time>2026-04-04T09:46:23.553Z</time></trkpt><trkpt lat="43.2144399" lon="11.1539335"><ele>401.0</ele><time>2026-04-04T09:46:24.538Z</time></trkpt><trkpt lat="43.2146566" lon="11.1538939"><ele>401.0</ele><time>2026-04-04T09:46:25.538Z</time></trkpt><trkpt lat="43.2148688" lon="11.1538576"><ele>401.0</ele><time>2026-04-04T09:46:26.535Z</time></trkpt><trkpt lat="43.2150661" lon="11.1538291"><ele>402.0</ele><time>2026-04-04T09:46:27.533Z</time></trkpt><trkpt lat="43.2152455" lon="11.1538167"><ele>403.0</ele><time>2026-04-04T09:46:28.518Z</time></trkpt><trkpt lat="43.215416" lon="11.1538094"><ele>404.0</ele><time>2026-04-04T09:46:29.528Z</time></trkpt><trkpt lat="43.2155805" lon="11.1538498"><ele>404.3333333333333</ele><time>2026-04-04T09:46:30.531Z</time></trkpt><trkpt lat="43.2157436" lon="11.153949"><ele>404.66666666666663</ele><time>2026-04-04T09:46:31.535Z</time></trkpt><trkpt lat="43.2159125" lon="11.1540703"><ele>405.0</ele><time>2026-04-04T09:46:32.52Z</time></trkpt><trkpt lat="43.2160453" lon="11.154236"><ele>407.33333333333337</ele><time>2026-04-04T09:46:33.534Z</time></trkpt><trkpt lat="43.2161698" lon="11.1544158"><ele>409.6666666666667</ele><time>2026-04-04T09:46:34.539Z</time></trkpt><trkpt lat="43.2162621" lon="11.1545855"><ele>412.0</ele><time>2026-04-04T09:46:35.541Z</time></trkpt><trkpt lat="43.2163248" lon="11.1547449"><ele>413.5</ele><time>2026-04-04T09:46:36.542Z</time></trkpt><trkpt lat="43.2163567" lon="11.1549068"><ele>415.0</ele><time>2026-04-04T09:46:37.539Z</time></trkpt><trkpt lat="43.2163463" lon="11.1550714"><ele>416.5</ele><time>2026-04-04T09:46:38.543Z</time></trkpt><trkpt lat="43.2163373" lon="11.1552289"><ele>418.0</ele><time>2026-04-04T09:46:39.542Z</time></trkpt><trkpt lat="43.2163791" lon="11.1553686"><ele>418.75</ele><time>2026-04-04T09:46:40.546Z</time></trkpt><trkpt lat="43.2164876" lon="11.1554805"><ele>419.5</ele><time>2026-04-04T09:46:41.499Z</time></trkpt><trkpt lat="43.2166219" lon="11.155568"><ele>420.25</ele><time>2026-04-04T09:46:42.516Z</time></trkpt><trkpt lat="43.2167523" lon="11.1556549"><ele>421.0</ele><time>2026-04-04T09:46:43.533Z</time></trkpt><trkpt lat="43.2168263" lon="11.1557637"><ele>421.0</ele><time>2026-04-04T09:46:44.53Z</time></trkpt><trkpt lat="43.2168497" lon="11.1559074"><ele>421.0</ele><time>2026-04-04T09:46:45.532Z</time></trkpt><trkpt lat="43.2168286" lon="11.1560581"><ele>421.0</ele><time>2026-04-04T09:46:46.516Z</time></trkpt><trkpt lat="43.2167981" lon="11.1562235"><ele>421.0</ele><time>2026-04-04T09:46:47.522Z</time></trkpt><trkpt lat="43.216826" lon="11.1563658"><ele>421.0</ele><time>2026-04-04T09:46:48.527Z</time></trkpt><trkpt lat="43.2168938" lon="11.1564764"><ele>421.0</ele><time>2026-04-04T09:46:49.528Z</time></trkpt><trkpt lat="43.2169882" lon="11.1565258"><ele>421.0</ele><time>2026-04-04T09:46:50.514Z</time></trkpt><trkpt lat="43.2171084" lon="11.1564715"><ele>421.0</ele><time>2026-04-04T09:46:51.517Z</time></trkpt><trkpt lat="43.2172201" lon="11.1563992"><ele>420.0</ele><time>2026-04-04T09:46:52.525Z</time></trkpt><trkpt lat="43.2173207" lon="11.1564024"><ele>419.0</ele><time>2026-04-04T09:46:53.527Z</time></trkpt><trkpt lat="43.2174215" lon="11.1564647"><ele>418.0</ele><time>2026-04-04T09:46:54.507Z</time></trkpt><trkpt lat="43.2174839" lon="11.1566024"><ele>417.0</ele><time>2026-04-04T09:46:55.499Z</time></trkpt><trkpt lat="43.2175381" lon="11.1567211"><ele>416.0</ele><time>2026-04-04T09:46:56.527Z</time></trkpt><trkpt lat="43.2176176" lon="11.1567865"><ele>416.0</ele><time>2026-04-04T09:46:57.541Z</time></trkpt><trkpt lat="43.2177073" lon="11.1567958"><ele>416.0</ele><time>2026-04-04T09:46:58.533Z</time></trkpt><trkpt lat="43.2178364" lon="11.156712"><ele>416.0</ele><time>2026-04-04T09:46:59.546Z</time></trkpt><trkpt lat="43.2179414" lon="11.1565738"><ele>416.0</ele><time>2026-04-04T09:47:00.535Z</time></trkpt><trkpt lat="43.2180773" lon="11.1564052"><ele>419.0</ele><time>2026-04-04T09:47:01.534Z</time></trkpt><trkpt lat="43.2182386" lon="11.1562467"><ele>422.0</ele><time>2026-04-04T09:47:02.542Z</time></trkpt><trkpt lat="43.2183949" lon="11.1561442"><ele>425.0</ele><time>2026-04-04T09:47:03.563Z</time></trkpt><trkpt lat="43.218527" lon="11.156083"><ele>425.0</ele><time>2026-04-04T09:47:04.552Z</time></trkpt><trkpt lat="43.2186307" lon="11.1560873"><ele>425.0</ele><time>2026-04-04T09:47:05.549Z</time></trkpt><trkpt lat="43.2187525" lon="11.1561545"><ele>425.0</ele><time>2026-04-04T09:47:06.541Z</time></trkpt><trkpt lat="43.2188887" lon="11.1563074"><ele>425.0</ele><time>2026-04-04T09:47:07.536Z</time></trkpt><trkpt lat="43.2190318" lon="11.156465"><ele>428.0</ele><time>2026-04-04T09:47:08.533Z</time></trkpt><trkpt lat="43.2191995" lon="11.1565832"><ele>431.0</ele><time>2026-04-04T09:47:09.538Z</time></trkpt><trkpt lat="43.2193787" lon="11.1566658"><ele>434.0</ele><time>2026-04-04T09:47:10.553Z</time></trkpt><trkpt lat="43.2195406" lon="11.1567092"><ele>434.0</ele><time>2026-04-04T09:47:11.531Z</time></trkpt><trkpt lat="43.2196991" lon="11.1567937"><ele>434.0</ele><time>2026-04-04T09:47:12.524Z</time></trkpt><trkpt lat="43.2198188" lon="11.1569596"><ele>434.0</ele><time>2026-04-04T09:47:13.533Z</time></trkpt><trkpt lat="43.2199187" lon="11.1571424"><ele>434.3333333333333</ele><time>2026-04-04T09:47:14.538Z</time></trkpt><trkpt lat="43.2200201" lon="11.1573379"><ele>434.66666666666663</ele><time>2026-04-04T09:47:15.546Z</time></trkpt><trkpt lat="43.2201073" lon="11.1575085"><ele>435.0</ele><time>2026-04-04T09:47:16.54Z</time></trkpt><trkpt lat="43.2201765" lon="11.1576727"><ele>435.0</ele><time>2026-04-04T09:47:17.543Z</time></trkpt><trkpt lat="43.2202038" lon="11.1578465"><ele>435.0</ele><time>2026-04-04T09:47:18.533Z</time></trkpt><trkpt lat="43.2201707" lon="11.1580353"><ele>435.0</ele><time>2026-04-04T09:47:19.532Z</time></trkpt><trkpt lat="43.2200734" lon="11.1582081"><ele>435.0</ele><time>2026-04-04T09:47:20.533Z</time></trkpt><trkpt lat="43.2199519" lon="11.1583811"><ele>435.33333333333337</ele><time>2026-04-04T09:47:21.532Z</time></trkpt><trkpt lat="43.2198373" lon="11.1585628"><ele>435.6666666666667</ele><time>2026-04-04T09:47:22.537Z</time></trkpt><trkpt lat="43.2197407" lon="11.1587667"><ele>436.0</ele><time>2026-04-04T09:47:23.538Z</time></trkpt><trkpt lat="43.2196674" lon="11.1589899"><ele>439.6666666666667</ele><time>2026-04-04T09:47:24.538Z</time></trkpt><trkpt lat="43.2196361" lon="11.1592367"><ele>443.33333333333337</ele><time>2026-04-04T09:47:25.534Z</time></trkpt><trkpt lat="43.2196384" lon="11.1594929"><ele>447.0</ele><time>2026-04-04T09:47:26.54Z</time></trkpt><trkpt lat="43.2196723" lon="11.1597499"><ele>447.0</ele><time>2026-04-04T09:47:27.545Z</time></trkpt><trkpt lat="43.2197334" lon="11.1600007"><ele>447.0</ele><time>2026-04-04T09:47:28.53Z</time></trkpt><trkpt lat="43.2197991" lon="11.1602446"><ele>447.0</ele><time>2026-04-04T09:47:29.54Z</time></trkpt><trkpt lat="43.2198703" lon="11.1604765"><ele>443.66666666666663</ele><time>2026-04-04T09:47:30.534Z</time></trkpt><trkpt lat="43.219968" lon="11.1607041"><ele>440.3333333333333</ele><time>2026-04-04T09:47:31.547Z</time></trkpt><trkpt lat="43.2201043" lon="11.1608808"><ele>437.0</ele><time>2026-04-04T09:47:32.545Z</time></trkpt><trkpt lat="43.2202337" lon="11.1610538"><ele>437.0</ele><time>2026-04-04T09:47:33.548Z</time></trkpt><trkpt lat="43.2203724" lon="11.161229"><ele>437.0</ele><time>2026-04-04T09:47:34.535Z</time></trkpt><trkpt lat="43.2205026" lon="11.1614126"><ele>437.0</ele><time>2026-04-04T09:47:35.537Z</time></trkpt><trkpt lat="43.2206256" lon="11.1616077"><ele>435.66666666666663</ele><time>2026-04-04T09:47:36.541Z</time></trkpt><trkpt lat="43.2207331" lon="11.1618147"><ele>434.33333333333337</ele><time>2026-04-04T09:47:37.536Z</time></trkpt><trkpt lat="43.2208177" lon="11.1620373"><ele>433.0</ele><time>2026-04-04T09:47:38.545Z</time></trkpt><trkpt lat="43.2208797" lon="11.162282"><ele>433.33333333333337</ele><time>2026-04-04T09:47:39.522Z</time></trkpt><trkpt lat="43.2209257" lon="11.162528"><ele>433.66666666666663</ele><time>2026-04-04T09:47:40.527Z</time></trkpt><trkpt lat="43.2209612" lon="11.1627659"><ele>434.0</ele><time>2026-04-04T09:47:41.532Z</time></trkpt><trkpt lat="43.2209997" lon="11.1629973"><ele>433.3333333333333</ele><time>2026-04-04T09:47:42.536Z</time></trkpt><trkpt lat="43.2210353" lon="11.1632231"><ele>432.66666666666663</ele><time>2026-04-04T09:47:43.528Z</time></trkpt><trkpt lat="43.2210774" lon="11.1634403"><ele>432.0</ele><time>2026-04-04T09:47:44.518Z</time></trkpt><trkpt lat="43.221123" lon="11.1636446"><ele>432.0</ele><time>2026-04-04T09:47:45.544Z</time></trkpt><trkpt lat="43.2211766" lon="11.1638227"><ele>432.0</ele><time>2026-04-04T09:47:46.531Z</time></trkpt><trkpt lat="43.2212473" lon="11.1639719"><ele>432.0</ele><time>2026-04-04T09:47:47.541Z</time></trkpt><trkpt lat="43.2213541" lon="11.1640589"><ele>432.0</ele><time>2026-04-04T09:47:48.541Z</time></trkpt><trkpt lat="43.2214925" lon="11.1640829"><ele>432.33333333333337</ele><time>2026-04-04T09:47:49.551Z</time></trkpt><trkpt lat="43.22165" lon="11.1640542"><ele>432.6666666666667</ele><time>2026-04-04T09:47:50.531Z</time></trkpt><trkpt lat="43.2218162" lon="11.1640106"><ele>433.0</ele><time>2026-04-04T09:47:51.531Z</time></trkpt><trkpt lat="43.2219794" lon="11.1640054"><ele>433.0</ele><time>2026-04-04T09:47:52.56Z</time></trkpt><trkpt lat="43.2221656" lon="11.1640654"><ele>433.0</ele><time>2026-04-04T09:47:53.541Z</time></trkpt><trkpt lat="43.2223467" lon="11.164181"><ele>433.0</ele><time>2026-04-04T09:47:54.532Z</time></trkpt><trkpt lat="43.2225271" lon="11.1642954"><ele>433.6666666666667</ele><time>2026-04-04T09:47:55.535Z</time></trkpt><trkpt lat="43.2227033" lon="11.164411"><ele>434.33333333333337</ele><time>2026-04-04T09:47:56.541Z</time></trkpt><trkpt lat="43.2228738" lon="11.1645177"><ele>435.0</ele><time>2026-04-04T09:47:57.538Z</time></trkpt><trkpt lat="43.2230351" lon="11.1646197"><ele>434.33333333333337</ele><time>2026-04-04T09:47:58.537Z</time></trkpt><trkpt lat="43.2231846" lon="11.1647492"><ele>433.6666666666667</ele><time>2026-04-04T09:47:59.525Z</time></trkpt><trkpt lat="43.2233001" lon="11.1649117"><ele>433.0</ele><time>2026-04-04T09:48:00.536Z</time></trkpt><trkpt lat="43.2233927" lon="11.1651158"><ele>433.0</ele><time>2026-04-04T09:48:01.529Z</time></trkpt><trkpt lat="43.2234511" lon="11.1653373"><ele>433.0</ele><time>2026-04-04T09:48:02.529Z</time></trkpt><trkpt lat="43.2234893" lon="11.1655687"><ele>433.0</ele><time>2026-04-04T09:48:03.549Z</time></trkpt><trkpt lat="43.2235044" lon="11.1658121"><ele>432.6666666666667</ele><time>2026-04-04T09:48:04.545Z</time></trkpt><trkpt lat="43.2234817" lon="11.1660524"><ele>432.33333333333337</ele><time>2026-04-04T09:48:05.545Z</time></trkpt><trkpt lat="43.2234496" lon="11.1662841"><ele>432.0</ele><time>2026-04-04T09:48:06.541Z</time></trkpt><trkpt lat="43.2234536" lon="11.1664908"><ele>431.33333333333337</ele><time>2026-04-04T09:48:07.543Z</time></trkpt><trkpt lat="43.2234868" lon="11.1667015"><ele>430.6666666666667</ele><time>2026-04-04T09:48:08.55Z</time></trkpt><trkpt lat="43.2235768" lon="11.1669142"><ele>430.0</ele><time>2026-04-04T09:48:09.534Z</time></trkpt><trkpt lat="43.2236839" lon="11.1670845"><ele>430.0</ele><time>2026-04-04T09:48:10.528Z</time></trkpt><trkpt lat="43.2237935" lon="11.1672115"><ele>430.0</ele><time>2026-04-04T09:48:11.53Z</time></trkpt><trkpt lat="43.2238992" lon="11.1672548"><ele>430.0</ele><time>2026-04-04T09:48:12.542Z</time></trkpt><trkpt lat="43.2240103" lon="11.1672443"><ele>430.0</ele><time>2026-04-04T09:48:13.536Z</time></trkpt><trkpt lat="43.2241054" lon="11.1671801"><ele>429.5</ele><time>2026-04-04T09:48:14.536Z</time></trkpt><trkpt lat="43.2241931" lon="11.1670285"><ele>429.0</ele><time>2026-04-04T09:48:15.548Z</time></trkpt><trkpt lat="43.2242798" lon="11.1668487"><ele>428.5</ele><time>2026-04-04T09:48:16.54Z</time></trkpt><trkpt lat="43.224343" lon="11.1666626"><ele>428.0</ele><time>2026-04-04T09:48:17.535Z</time></trkpt><trkpt lat="43.2243833" lon="11.1665135"><ele>428.0</ele><time>2026-04-04T09:48:18.54Z</time></trkpt><trkpt lat="43.2244477" lon="11.1664085"><ele>427.99999999999994</ele><time>2026-04-04T09:48:19.523Z</time></trkpt><trkpt lat="43.22454" lon="11.1663662"><ele>427.99999999999994</ele><time>2026-04-04T09:48:20.527Z</time></trkpt><trkpt lat="43.2246351" lon="11.1663875"><ele>428.0</ele><time>2026-04-04T09:48:21.532Z</time></trkpt><trkpt lat="43.2247243" lon="11.1664871"><ele>428.0</ele><time>2026-04-04T09:48:22.538Z</time></trkpt><trkpt lat="43.2247955" lon="11.1666354"><ele>426.3333333333333</ele><time>2026-04-04T09:48:23.537Z</time></trkpt><trkpt lat="43.2248409" lon="11.166839"><ele>424.66666666666663</ele><time>2026-04-04T09:48:24.534Z</time></trkpt><trkpt lat="43.2248681" lon="11.1670809"><ele>423.0</ele><time>2026-04-04T09:48:25.524Z</time></trkpt><trkpt lat="43.2249049" lon="11.1673295"><ele>420.66666666666663</ele><time>2026-04-04T09:48:26.542Z</time></trkpt><trkpt lat="43.2249384" lon="11.1676097"><ele>418.3333333333333</ele><time>2026-04-04T09:48:27.54Z</time></trkpt><trkpt lat="43.2249749" lon="11.1679"><ele>416.0</ele><time>2026-04-04T09:48:28.552Z</time></trkpt><trkpt lat="43.225015" lon="11.1682039"><ele>416.0</ele><time>2026-04-04T09:48:29.547Z</time></trkpt><trkpt lat="43.2250548" lon="11.1685216"><ele>416.0</ele><time>2026-04-04T09:48:30.53Z</time></trkpt><trkpt lat="43.2251066" lon="11.1688188"><ele>417.66666666666663</ele><time>2026-04-04T09:48:31.53Z</time></trkpt><trkpt lat="43.2251833" lon="11.1690945"><ele>419.33333333333337</ele><time>2026-04-04T09:48:32.543Z</time></trkpt><trkpt lat="43.2252667" lon="11.1693638"><ele>421.0</ele><time>2026-04-04T09:48:33.533Z</time></trkpt><trkpt lat="43.225347" lon="11.1696258"><ele>421.33333333333337</ele><time>2026-04-04T09:48:34.531Z</time></trkpt><trkpt lat="43.2254192" lon="11.1698963"><ele>421.66666666666663</ele><time>2026-04-04T09:48:35.549Z</time></trkpt><trkpt lat="43.225462" lon="11.1701852"><ele>422.0</ele><time>2026-04-04T09:48:36.561Z</time></trkpt><trkpt lat="43.2254914" lon="11.1704676"><ele>421.3333333333333</ele><time>2026-04-04T09:48:37.539Z</time></trkpt><trkpt lat="43.225519" lon="11.1707442"><ele>420.66666666666663</ele><time>2026-04-04T09:48:38.552Z</time></trkpt><trkpt lat="43.2255415" lon="11.1710159"><ele>420.0</ele><time>2026-04-04T09:48:39.536Z</time></trkpt><trkpt lat="43.2255515" lon="11.1712794"><ele>420.0</ele><time>2026-04-04T09:48:40.535Z</time></trkpt><trkpt lat="43.2255445" lon="11.1715207"><ele>420.0</ele><time>2026-04-04T09:48:41.531Z</time></trkpt><trkpt lat="43.2255553" lon="11.171744"><ele>420.0</ele><time>2026-04-04T09:48:42.532Z</time></trkpt><trkpt lat="43.2256028" lon="11.1719624"><ele>416.75</ele><time>2026-04-04T09:48:43.543Z</time></trkpt><trkpt lat="43.2256525" lon="11.1721636"><ele>413.5</ele><time>2026-04-04T09:48:44.53Z</time></trkpt><trkpt lat="43.2257122" lon="11.1723409"><ele>410.25</ele><time>2026-04-04T09:48:45.505Z</time></trkpt><trkpt lat="43.2257956" lon="11.1724821"><ele>407.0</ele><time>2026-04-04T09:48:46.541Z</time></trkpt><trkpt lat="43.2259155" lon="11.1725728"><ele>406.3333333333333</ele><time>2026-04-04T09:48:47.523Z</time></trkpt><trkpt lat="43.2260753" lon="11.172631"><ele>405.66666666666663</ele><time>2026-04-04T09:48:48.528Z</time></trkpt><trkpt lat="43.2262628" lon="11.1726816"><ele>405.0</ele><time>2026-04-04T09:48:49.537Z</time></trkpt><trkpt lat="43.2264622" lon="11.1727481"><ele>401.33333333333337</ele><time>2026-04-04T09:48:50.526Z</time></trkpt><trkpt lat="43.2266735" lon="11.1728374"><ele>397.6666666666667</ele><time>2026-04-04T09:48:51.535Z</time></trkpt><trkpt lat="43.2268789" lon="11.1729327"><ele>394.0</ele><time>2026-04-04T09:48:52.536Z</time></trkpt><trkpt lat="43.2270759" lon="11.1730181"><ele>394.0</ele><time>2026-04-04T09:48:53.53Z</time></trkpt><trkpt lat="43.2272635" lon="11.1730934"><ele>394.0</ele><time>2026-04-04T09:48:54.542Z</time></trkpt><trkpt lat="43.2274462" lon="11.1731643"><ele>394.0</ele><time>2026-04-04T09:48:55.531Z</time></trkpt><trkpt lat="43.2276253" lon="11.1732429"><ele>393.33333333333337</ele><time>2026-04-04T09:48:56.525Z</time></trkpt><trkpt lat="43.227805" lon="11.1733258"><ele>392.66666666666663</ele><time>2026-04-04T09:48:57.536Z</time></trkpt><trkpt lat="43.2279896" lon="11.1734215"><ele>392.0</ele><time>2026-04-04T09:48:58.536Z</time></trkpt><trkpt lat="43.2281674" lon="11.1735321"><ele>388.3333333333333</ele><time>2026-04-04T09:48:59.54Z</time></trkpt><trkpt lat="43.2283345" lon="11.1736591"><ele>384.66666666666663</ele><time>2026-04-04T09:49:00.526Z</time></trkpt><trkpt lat="43.2284809" lon="11.1738006"><ele>381.0</ele><time>2026-04-04T09:49:01.535Z</time></trkpt><trkpt lat="43.2286231" lon="11.1739536"><ele>382.33333333333337</ele><time>2026-04-04T09:49:02.539Z</time></trkpt><trkpt lat="43.2287525" lon="11.1741116"><ele>383.6666666666667</ele><time>2026-04-04T09:49:03.542Z</time></trkpt><trkpt lat="43.228858" lon="11.1742855"><ele>385.0</ele><time>2026-04-04T09:49:04.54Z</time></trkpt><trkpt lat="43.2289551" lon="11.1744459"><ele>383.75</ele><time>2026-04-04T09:49:05.542Z</time></trkpt><trkpt lat="43.2290244" lon="11.1746083"><ele>382.5</ele><time>2026-04-04T09:49:06.523Z</time></trkpt><trkpt lat="43.2290433" lon="11.1748058"><ele>381.25</ele><time>2026-04-04T09:49:07.534Z</time></trkpt><trkpt lat="43.2289936" lon="11.1749841"><ele>380.0</ele><time>2026-04-04T09:49:08.535Z</time></trkpt><trkpt lat="43.228894" lon="11.1751644"><ele>380.0</ele><time>2026-04-04T09:49:09.537Z</time></trkpt><trkpt lat="43.2287545" lon="11.1753357"><ele>380.0</ele><time>2026-04-04T09:49:10.545Z</time></trkpt><trkpt lat="43.2286071" lon="11.1754791"><ele>380.0</ele><time>2026-04-04T09:49:11.53Z</time></trkpt><trkpt lat="43.2284602" lon="11.1756109"><ele>379.25</ele><time>2026-04-04T09:49:12.553Z</time></trkpt><trkpt lat="43.228325" lon="11.1757454"><ele>378.5</ele><time>2026-04-04T09:49:13.527Z</time></trkpt><trkpt lat="43.2282075" lon="11.175859"><ele>377.75</ele><time>2026-04-04T09:49:14.539Z</time></trkpt><trkpt lat="43.2281038" lon="11.1759635"><ele>377.0</ele><time>2026-04-04T09:49:15.541Z</time></trkpt><trkpt lat="43.2280394" lon="11.1761041"><ele>377.0</ele><time>2026-04-04T09:49:16.517Z</time></trkpt><trkpt lat="43.2280053" lon="11.1762769"><ele>377.0</ele><time>2026-04-04T09:49:17.539Z</time></trkpt><trkpt lat="43.2280161" lon="11.1764312"><ele>377.0</ele><time>2026-04-04T09:49:18.535Z</time></trkpt><trkpt lat="43.2280899" lon="11.1765931"><ele>377.0</ele><time>2026-04-04T09:49:19.555Z</time></trkpt><trkpt lat="43.2282012" lon="11.1767358"><ele>373.33333333333337</ele><time>2026-04-04T09:49:20.495Z</time></trkpt><trkpt lat="43.2283414" lon="11.176816"><ele>369.6666666666667</ele><time>2026-04-04T09:49:21.521Z</time></trkpt><trkpt lat="43.2284998" lon="11.1768378"><ele>366.0</ele><time>2026-04-04T09:49:22.513Z</time></trkpt><trkpt lat="43.2286823" lon="11.1768239"><ele>366.0</ele><time>2026-04-04T09:49:23.494Z</time></trkpt><trkpt lat="43.2288742" lon="11.1767746"><ele>366.0</ele><time>2026-04-04T09:49:24.486Z</time></trkpt><trkpt lat="43.2290632" lon="11.1767296"><ele>366.0</ele><time>2026-04-04T09:49:25.484Z</time></trkpt><trkpt lat="43.2292432" lon="11.1766919"><ele>363.3333333333333</ele><time>2026-04-04T09:49:26.498Z</time></trkpt><trkpt lat="43.2294167" lon="11.1766625"><ele>360.66666666666663</ele><time>2026-04-04T09:49:27.526Z</time></trkpt><trkpt lat="43.2295806" lon="11.176626"><ele>358.0</ele><time>2026-04-04T09:49:28.528Z</time></trkpt><trkpt lat="43.2297408" lon="11.176589"><ele>358.66666666666663</ele><time>2026-04-04T09:49:29.54Z</time></trkpt><trkpt lat="43.2299026" lon="11.1765434"><ele>359.3333333333333</ele><time>2026-04-04T09:49:30.539Z</time></trkpt><trkpt lat="43.2300482" lon="11.1764871"><ele>360.0</ele><time>2026-04-04T09:49:31.534Z</time></trkpt><trkpt lat="43.2301811" lon="11.1763536"><ele>360.0</ele><time>2026-04-04T09:49:32.526Z</time></trkpt><trkpt lat="43.2303116" lon="11.1761422"><ele>360.0</ele><time>2026-04-04T09:49:33.555Z</time></trkpt><trkpt lat="43.2304323" lon="11.1759028"><ele>360.0</ele><time>2026-04-04T09:49:34.532Z</time></trkpt><trkpt lat="43.2305678" lon="11.1756233"><ele>356.0</ele><time>2026-04-04T09:49:35.492Z</time></trkpt><trkpt lat="43.2306997" lon="11.1753555"><ele>352.0</ele><time>2026-04-04T09:49:36.522Z</time></trkpt><trkpt lat="43.2308093" lon="11.1751299"><ele>348.0</ele><time>2026-04-04T09:49:37.539Z</time></trkpt><trkpt lat="43.2309012" lon="11.1749358"><ele>347.6666666666667</ele><time>2026-04-04T09:49:38.537Z</time></trkpt><trkpt lat="43.2309766" lon="11.1747589"><ele>347.33333333333337</ele><time>2026-04-04T09:49:39.528Z</time></trkpt><trkpt lat="43.2310078" lon="11.1745397"><ele>347.0</ele><time>2026-04-04T09:49:40.537Z</time></trkpt><trkpt lat="43.2310064" lon="11.1742926"><ele>347.0</ele><time>2026-04-04T09:49:41.538Z</time></trkpt><trkpt lat="43.231024" lon="11.1740605"><ele>347.0</ele><time>2026-04-04T09:49:42.533Z</time></trkpt><trkpt lat="43.2310557" lon="11.1738338"><ele>347.0</ele><time>2026-04-04T09:49:43.533Z</time></trkpt><trkpt lat="43.2310909" lon="11.1736086"><ele>346.33333333333337</ele><time>2026-04-04T09:49:44.538Z</time></trkpt><trkpt lat="43.2311115" lon="11.17337"><ele>345.6666666666667</ele><time>2026-04-04T09:49:45.552Z</time></trkpt><trkpt lat="43.2311316" lon="11.1731431"><ele>345.0</ele><time>2026-04-04T09:49:46.528Z</time></trkpt><trkpt lat="43.2311643" lon="11.1729167"><ele>344.8</ele><time>2026-04-04T09:49:47.526Z</time></trkpt><trkpt lat="43.2311912" lon="11.1727272"><ele>344.6</ele><time>2026-04-04T09:49:48.528Z</time></trkpt><trkpt lat="43.2312131" lon="11.1725763"><ele>344.4</ele><time>2026-04-04T09:49:49.528Z</time></trkpt><trkpt lat="43.2312331" lon="11.1724612"><ele>344.2</ele><time>2026-04-04T09:49:50.531Z</time></trkpt><trkpt lat="43.2312796" lon="11.1723697"><ele>344.0</ele><time>2026-04-04T09:49:51.538Z</time></trkpt><trkpt lat="43.23135" lon="11.1723411"><ele>344.0</ele><time>2026-04-04T09:49:52.536Z</time></trkpt><trkpt lat="43.2314436" lon="11.172374"><ele>344.0</ele><time>2026-04-04T09:49:53.531Z</time></trkpt><trkpt lat="43.2315161" lon="11.1724756"><ele>344.0</ele><time>2026-04-04T09:49:54.53Z</time></trkpt><trkpt lat="43.2315513" lon="11.1726262"><ele>344.0</ele><time>2026-04-04T09:49:55.518Z</time></trkpt><trkpt lat="43.2315756" lon="11.1728181"><ele>339.33333333333337</ele><time>2026-04-04T09:49:56.534Z</time></trkpt><trkpt lat="43.2315768" lon="11.173025"><ele>334.6666666666667</ele><time>2026-04-04T09:49:57.524Z</time></trkpt><trkpt lat="43.2315783" lon="11.1732265"><ele>330.0</ele><time>2026-04-04T09:49:58.54Z</time></trkpt><trkpt lat="43.231587" lon="11.1734358"><ele>329.3333333333333</ele><time>2026-04-04T09:49:59.541Z</time></trkpt><trkpt lat="43.2316289" lon="11.173663"><ele>328.66666666666663</ele><time>2026-04-04T09:50:00.533Z</time></trkpt><trkpt lat="43.2317078" lon="11.1738665"><ele>328.0</ele><time>2026-04-04T09:50:01.519Z</time></trkpt><trkpt lat="43.2317589" lon="11.1740667"><ele>327.75</ele><time>2026-04-04T09:50:02.516Z</time></trkpt><trkpt lat="43.2317995" lon="11.1742411"><ele>327.5</ele><time>2026-04-04T09:50:03.528Z</time></trkpt><trkpt lat="43.231874" lon="11.1744107"><ele>327.25</ele><time>2026-04-04T09:50:04.534Z</time></trkpt><trkpt lat="43.2320041" lon="11.1745477"><ele>327.0</ele><time>2026-04-04T09:50:05.518Z</time></trkpt><trkpt lat="43.232171" lon="11.1746661"><ele>323.6666666666667</ele><time>2026-04-04T09:50:06.516Z</time></trkpt><trkpt lat="43.2323341" lon="11.1747974"><ele>320.33333333333337</ele><time>2026-04-04T09:50:07.531Z</time></trkpt><trkpt lat="43.2324864" lon="11.1749305"><ele>317.0</ele><time>2026-04-04T09:50:08.542Z</time></trkpt><trkpt lat="43.232616" lon="11.1750717"><ele>317.0</ele><time>2026-04-04T09:50:09.519Z</time></trkpt><trkpt lat="43.2327131" lon="11.1752469"><ele>317.0</ele><time>2026-04-04T09:50:10.531Z</time></trkpt><trkpt lat="43.232771" lon="11.1754741"><ele>317.0</ele><time>2026-04-04T09:50:11.54Z</time></trkpt><trkpt lat="43.2328132" lon="11.1757334"><ele>316.6666666666667</ele><time>2026-04-04T09:50:12.528Z</time></trkpt><trkpt lat="43.2328388" lon="11.1759622"><ele>316.3333333333333</ele><time>2026-04-04T09:50:13.523Z</time></trkpt><trkpt lat="43.232872" lon="11.1761642"><ele>316.0</ele><time>2026-04-04T09:50:14.499Z</time></trkpt><trkpt lat="43.2329252" lon="11.1763589"><ele>315.75</ele><time>2026-04-04T09:50:15.542Z</time></trkpt><trkpt lat="43.2329936" lon="11.1765345"><ele>315.5</ele><time>2026-04-04T09:50:16.539Z</time></trkpt><trkpt lat="43.2330554" lon="11.1767162"><ele>315.25</ele><time>2026-04-04T09:50:17.555Z</time></trkpt><trkpt lat="43.2330915" lon="11.1768873"><ele>315.0</ele><time>2026-04-04T09:50:18.541Z</time></trkpt><trkpt lat="43.2330982" lon="11.1770877"><ele>315.0</ele><time>2026-04-04T09:50:19.536Z</time></trkpt><trkpt lat="43.2330645" lon="11.1772882"><ele>315.0</ele><time>2026-04-04T09:50:20.528Z</time></trkpt><trkpt lat="43.2330047" lon="11.1774914"><ele>315.0</ele><time>2026-04-04T09:50:21.538Z</time></trkpt><trkpt lat="43.2329278" lon="11.1777284"><ele>314.3333333333333</ele><time>2026-04-04T09:50:22.543Z</time></trkpt><trkpt lat="43.2328451" lon="11.1779789"><ele>313.66666666666663</ele><time>2026-04-04T09:50:23.527Z</time></trkpt><trkpt lat="43.2327604" lon="11.1782274"><ele>313.0</ele><time>2026-04-04T09:50:24.539Z</time></trkpt><trkpt lat="43.2326727" lon="11.1784615"><ele>312.0</ele><time>2026-04-04T09:50:25.543Z</time></trkpt><trkpt lat="43.2325807" lon="11.1786962"><ele>311.0</ele><time>2026-04-04T09:50:26.54Z</time></trkpt><trkpt lat="43.2324899" lon="11.1789406"><ele>310.0</ele><time>2026-04-04T09:50:27.532Z</time></trkpt><trkpt lat="43.2324074" lon="11.1791953"><ele>309.0</ele><time>2026-04-04T09:50:28.532Z</time></trkpt><trkpt lat="43.232325" lon="11.1794426"><ele>308.0</ele><time>2026-04-04T09:50:29.537Z</time></trkpt><trkpt lat="43.2322434" lon="11.179684"><ele>307.0</ele><time>2026-04-04T09:50:30.541Z</time></trkpt><trkpt lat="43.2321623" lon="11.1799078"><ele>304.3333333333333</ele><time>2026-04-04T09:50:31.524Z</time></trkpt><trkpt lat="43.2320802" lon="11.1801383"><ele>301.6666666666667</ele><time>2026-04-04T09:50:32.528Z</time></trkpt><trkpt lat="43.2319988" lon="11.1803567"><ele>299.0</ele><time>2026-04-04T09:50:33.535Z</time></trkpt><trkpt lat="43.2319208" lon="11.180574"><ele>298.33333333333337</ele><time>2026-04-04T09:50:34.531Z</time></trkpt><trkpt lat="43.2318397" lon="11.1807976"><ele>297.6666666666667</ele><time>2026-04-04T09:50:35.532Z</time></trkpt><trkpt lat="43.2317584" lon="11.1810293"><ele>297.0</ele><time>2026-04-04T09:50:36.501Z</time></trkpt><trkpt lat="43.2316814" lon="11.1812623"><ele>297.0</ele><time>2026-04-04T09:50:37.53Z</time></trkpt><trkpt lat="43.2315996" lon="11.1814904"><ele>297.0</ele><time>2026-04-04T09:50:38.545Z</time></trkpt><trkpt lat="43.2315215" lon="11.1817203"><ele>297.0</ele><time>2026-04-04T09:50:39.54Z</time></trkpt><trkpt lat="43.2314448" lon="11.1819416"><ele>297.0</ele><time>2026-04-04T09:50:40.531Z</time></trkpt><trkpt lat="43.231369" lon="11.1821762"><ele>297.0</ele><time>2026-04-04T09:50:41.532Z</time></trkpt><trkpt lat="43.2312881" lon="11.1824053"><ele>297.0</ele><time>2026-04-04T09:50:42.533Z</time></trkpt><trkpt lat="43.2312176" lon="11.1826291"><ele>295.3333333333333</ele><time>2026-04-04T09:50:43.531Z</time></trkpt><trkpt lat="43.2311556" lon="11.1828494"><ele>293.66666666666663</ele><time>2026-04-04T09:50:44.528Z</time></trkpt><trkpt lat="43.2311061" lon="11.183048"><ele>292.0</ele><time>2026-04-04T09:50:45.524Z</time></trkpt><trkpt lat="43.231056" lon="11.1832264"><ele>292.0</ele><time>2026-04-04T09:50:46.529Z</time></trkpt><trkpt lat="43.2310156" lon="11.1833982"><ele>292.0</ele><time>2026-04-04T09:50:47.533Z</time></trkpt><trkpt lat="43.230995" lon="11.1835527"><ele>292.0</ele><time>2026-04-04T09:50:48.531Z</time></trkpt><trkpt lat="43.2309948" lon="11.1837028"><ele>292.0</ele><time>2026-04-04T09:50:49.531Z</time></trkpt><trkpt lat="43.2310087" lon="11.1838536"><ele>292.0</ele><time>2026-04-04T09:50:50.527Z</time></trkpt><trkpt lat="43.2310317" lon="11.1840194"><ele>292.0</ele><time>2026-04-04T09:50:51.528Z</time></trkpt><trkpt lat="43.231037" lon="11.1841899"><ele>292.0</ele><time>2026-04-04T09:50:52.537Z</time></trkpt><trkpt lat="43.231009" lon="11.1843627"><ele>292.0</ele><time>2026-04-04T09:50:53.529Z</time></trkpt><trkpt lat="43.2309638" lon="11.1845293"><ele>292.0</ele><time>2026-04-04T09:50:54.534Z</time></trkpt><trkpt lat="43.2309014" lon="11.1846888"><ele>292.0</ele><time>2026-04-04T09:50:55.535Z</time></trkpt><trkpt lat="43.2308394" lon="11.1848444"><ele>292.0</ele><time>2026-04-04T09:50:56.533Z</time></trkpt><trkpt lat="43.2307985" lon="11.1850206"><ele>292.0</ele><time>2026-04-04T09:50:57.527Z</time></trkpt><trkpt lat="43.2307741" lon="11.1852045"><ele>290.3333333333333</ele><time>2026-04-04T09:50:58.53Z</time></trkpt><trkpt lat="43.2307772" lon="11.1853857"><ele>288.6666666666667</ele><time>2026-04-04T09:50:59.537Z</time></trkpt><trkpt lat="43.2307946" lon="11.1855759"><ele>287.0</ele><time>2026-04-04T09:51:00.534Z</time></trkpt><trkpt lat="43.2308819" lon="11.1857939"><ele>284.6666666666667</ele><time>2026-04-04T09:51:01.535Z</time></trkpt><trkpt lat="43.2309766" lon="11.1860447"><ele>282.3333333333333</ele><time>2026-04-04T09:51:02.526Z</time></trkpt><trkpt lat="43.2310146" lon="11.1862666"><ele>280.0</ele><time>2026-04-04T09:51:03.526Z</time></trkpt><trkpt lat="43.2310147" lon="11.1865099"><ele>278.3333333333333</ele><time>2026-04-04T09:51:04.534Z</time></trkpt><trkpt lat="43.2309975" lon="11.1867238"><ele>276.6666666666667</ele><time>2026-04-04T09:51:05.535Z</time></trkpt><trkpt lat="43.2309547" lon="11.1869391"><ele>275.0</ele><time>2026-04-04T09:51:06.532Z</time></trkpt><trkpt lat="43.2309324" lon="11.1871266"><ele>275.0</ele><time>2026-04-04T09:51:07.529Z</time></trkpt><trkpt lat="43.2309528" lon="11.1872843"><ele>275.0</ele><time>2026-04-04T09:51:08.54Z</time></trkpt><trkpt lat="43.2310147" lon="11.1874542"><ele>275.0</ele><time>2026-04-04T09:51:09.53Z</time></trkpt><trkpt lat="43.2311286" lon="11.1876185"><ele>275.0</ele><time>2026-04-04T09:51:10.533Z</time></trkpt><trkpt lat="43.2312522" lon="11.1878049"><ele>276.33333333333337</ele><time>2026-04-04T09:51:11.515Z</time></trkpt><trkpt lat="43.2313656" lon="11.1880127"><ele>277.6666666666667</ele><time>2026-04-04T09:51:12.524Z</time></trkpt><trkpt lat="43.2314587" lon="11.1882383"><ele>279.0</ele><time>2026-04-04T09:51:13.521Z</time></trkpt><trkpt lat="43.231552" lon="11.1884534"><ele>284.0</ele><time>2026-04-04T09:51:14.522Z</time></trkpt><trkpt lat="43.2316561" lon="11.1886339"><ele>289.0</ele><time>2026-04-04T09:51:15.523Z</time></trkpt><trkpt lat="43.2317916" lon="11.1887703"><ele>294.0</ele><time>2026-04-04T09:51:16.522Z</time></trkpt><trkpt lat="43.2319299" lon="11.1888983"><ele>290.6666666666667</ele><time>2026-04-04T09:51:17.515Z</time></trkpt><trkpt lat="43.2320626" lon="11.1890318"><ele>287.33333333333337</ele><time>2026-04-04T09:51:18.527Z</time></trkpt><trkpt lat="43.2321843" lon="11.1891543"><ele>284.0</ele><time>2026-04-04T09:51:19.521Z</time></trkpt><trkpt lat="43.2323006" lon="11.1892974"><ele>283.0</ele><time>2026-04-04T09:51:20.542Z</time></trkpt><trkpt lat="43.2324254" lon="11.1894761"><ele>282.0</ele><time>2026-04-04T09:51:21.53Z</time></trkpt><trkpt lat="43.232531" lon="11.1896878"><ele>281.0</ele><time>2026-04-04T09:51:22.524Z</time></trkpt><trkpt lat="43.2326169" lon="11.189923"><ele>281.0</ele><time>2026-04-04T09:51:23.525Z</time></trkpt><trkpt lat="43.2326873" lon="11.1901768"><ele>281.0</ele><time>2026-04-04T09:51:24.524Z</time></trkpt><trkpt lat="43.2327453" lon="11.1904227"><ele>281.0</ele><time>2026-04-04T09:51:25.524Z</time></trkpt><trkpt lat="43.2327938" lon="11.1906547"><ele>282.0</ele><time>2026-04-04T09:51:26.526Z</time></trkpt><trkpt lat="43.2328473" lon="11.190864"><ele>283.0</ele><time>2026-04-04T09:51:27.528Z</time></trkpt><trkpt lat="43.2328985" lon="11.1910632"><ele>284.0</ele><time>2026-04-04T09:51:28.531Z</time></trkpt><trkpt lat="43.2329738" lon="11.1912405"><ele>284.0</ele><time>2026-04-04T09:51:29.525Z</time></trkpt><trkpt lat="43.2330825" lon="11.1913697"><ele>284.0</ele><time>2026-04-04T09:51:30.52Z</time></trkpt><trkpt lat="43.2332279" lon="11.191447"><ele>284.0</ele><time>2026-04-04T09:51:31.506Z</time></trkpt><trkpt lat="43.233391" lon="11.1914652"><ele>284.6666666666667</ele><time>2026-04-04T09:51:32.527Z</time></trkpt><trkpt lat="43.2335635" lon="11.1914234"><ele>285.3333333333333</ele><time>2026-04-04T09:51:33.524Z</time></trkpt><trkpt lat="43.2337304" lon="11.1913191"><ele>286.0</ele><time>2026-04-04T09:51:34.518Z</time></trkpt><trkpt lat="43.233908" lon="11.1911714"><ele>282.66666666666663</ele><time>2026-04-04T09:51:35.514Z</time></trkpt><trkpt lat="43.2340802" lon="11.1910131"><ele>279.3333333333333</ele><time>2026-04-04T09:51:36.523Z</time></trkpt><trkpt lat="43.2342443" lon="11.1908667"><ele>276.0</ele><time>2026-04-04T09:51:37.523Z</time></trkpt><trkpt lat="43.2343772" lon="11.1907443"><ele>276.75</ele><time>2026-04-04T09:51:38.523Z</time></trkpt><trkpt lat="43.2345031" lon="11.1906586"><ele>277.5</ele><time>2026-04-04T09:51:39.528Z</time></trkpt><trkpt lat="43.2346204" lon="11.1906216"><ele>278.25</ele><time>2026-04-04T09:51:40.541Z</time></trkpt><trkpt lat="43.234757" lon="11.1906583"><ele>279.0</ele><time>2026-04-04T09:51:41.524Z</time></trkpt><trkpt lat="43.2348968" lon="11.1907725"><ele>279.0</ele><time>2026-04-04T09:51:42.525Z</time></trkpt><trkpt lat="43.2350462" lon="11.190917"><ele>279.0</ele><time>2026-04-04T09:51:43.526Z</time></trkpt><trkpt lat="43.2351683" lon="11.1910725"><ele>279.0</ele><time>2026-04-04T09:51:44.535Z</time></trkpt><trkpt lat="43.2352806" lon="11.1912351"><ele>279.0</ele><time>2026-04-04T09:51:45.523Z</time></trkpt><trkpt lat="43.2353995" lon="11.1913998"><ele>279.0</ele><time>2026-04-04T09:51:46.532Z</time></trkpt><trkpt lat="43.2355491" lon="11.1915314"><ele>279.0</ele><time>2026-04-04T09:51:47.523Z</time></trkpt><trkpt lat="43.2357241" lon="11.191604"><ele>277.3333333333333</ele><time>2026-04-04T09:51:48.511Z</time></trkpt><trkpt lat="43.2359178" lon="11.1916422"><ele>275.66666666666663</ele><time>2026-04-04T09:51:49.516Z</time></trkpt><trkpt lat="43.2361195" lon="11.1916643"><ele>274.0</ele><time>2026-04-04T09:51:50.512Z</time></trkpt><trkpt lat="43.2363118" lon="11.1916864"><ele>276.0</ele><time>2026-04-04T09:51:51.524Z</time></trkpt><trkpt lat="43.2364979" lon="11.1917299"><ele>278.0</ele><time>2026-04-04T09:51:52.533Z</time></trkpt><trkpt lat="43.2366671" lon="11.1918003"><ele>280.0</ele><time>2026-04-04T09:51:53.529Z</time></trkpt><trkpt lat="43.2368296" lon="11.1918895"><ele>280.0</ele><time>2026-04-04T09:51:54.528Z</time></trkpt><trkpt lat="43.2369955" lon="11.1919822"><ele>280.0</ele><time>2026-04-04T09:51:55.53Z</time></trkpt><trkpt lat="43.2371522" lon="11.192103"><ele>280.0</ele><time>2026-04-04T09:51:56.533Z</time></trkpt><trkpt lat="43.2373003" lon="11.1922159"><ele>278.5</ele><time>2026-04-04T09:51:57.523Z</time></trkpt><trkpt lat="43.2374338" lon="11.1923327"><ele>277.0</ele><time>2026-04-04T09:51:58.508Z</time></trkpt><trkpt lat="43.2375285" lon="11.1924757"><ele>275.5</ele><time>2026-04-04T09:51:59.534Z</time></trkpt><trkpt lat="43.2375804" lon="11.1926651"><ele>274.0</ele><time>2026-04-04T09:52:00.519Z</time></trkpt><trkpt lat="43.2376256" lon="11.1928513"><ele>274.0</ele><time>2026-04-04T09:52:01.498Z</time></trkpt><trkpt lat="43.2376812" lon="11.1929969"><ele>274.0</ele><time>2026-04-04T09:52:02.516Z</time></trkpt><trkpt lat="43.2377482" lon="11.1931014"><ele>274.0</ele><time>2026-04-04T09:52:03.511Z</time></trkpt><trkpt lat="43.2378441" lon="11.1931296"><ele>274.0</ele><time>2026-04-04T09:52:04.525Z</time></trkpt><trkpt lat="43.2379485" lon="11.1930857"><ele>274.0</ele><time>2026-04-04T09:52:05.524Z</time></trkpt><trkpt lat="43.2380501" lon="11.1929567"><ele>274.0</ele><time>2026-04-04T09:52:06.509Z</time></trkpt><trkpt lat="43.2381275" lon="11.1927928"><ele>274.0</ele><time>2026-04-04T09:52:07.521Z</time></trkpt><trkpt lat="43.2382118" lon="11.1926236"><ele>274.0</ele><time>2026-04-04T09:52:08.526Z</time></trkpt><trkpt lat="43.2383085" lon="11.1924624"><ele>274.0</ele><time>2026-04-04T09:52:09.517Z</time></trkpt><trkpt lat="43.2384225" lon="11.1923338"><ele>280.0</ele><time>2026-04-04T09:52:10.529Z</time></trkpt><trkpt lat="43.2385498" lon="11.1922572"><ele>286.0</ele><time>2026-04-04T09:52:11.519Z</time></trkpt><trkpt lat="43.2386823" lon="11.1922247"><ele>292.0</ele><time>2026-04-04T09:52:12.519Z</time></trkpt><trkpt lat="43.2388156" lon="11.1922546"><ele>298.0</ele><time>2026-04-04T09:52:13.523Z</time></trkpt><trkpt lat="43.2389355" lon="11.1923249"><ele>290.75</ele><time>2026-04-04T09:52:14.482Z</time></trkpt><trkpt lat="43.2390286" lon="11.1924639"><ele>283.5</ele><time>2026-04-04T09:52:15.504Z</time></trkpt><trkpt lat="43.2391075" lon="11.1926396"><ele>276.25</ele><time>2026-04-04T09:52:16.507Z</time></trkpt><trkpt lat="43.2391777" lon="11.1928388"><ele>269.0</ele><time>2026-04-04T09:52:17.512Z</time></trkpt><trkpt lat="43.2392549" lon="11.1930455"><ele>266.33333333333337</ele><time>2026-04-04T09:52:18.515Z</time></trkpt><trkpt lat="43.2393278" lon="11.1932613"><ele>263.6666666666667</ele><time>2026-04-04T09:52:19.52Z</time></trkpt><trkpt lat="43.2394039" lon="11.1934724"><ele>261.0</ele><time>2026-04-04T09:52:20.52Z</time></trkpt><trkpt lat="43.2394808" lon="11.193705"><ele>261.0</ele><time>2026-04-04T09:52:21.528Z</time></trkpt><trkpt lat="43.2395484" lon="11.1939522"><ele>261.0</ele><time>2026-04-04T09:52:22.511Z</time></trkpt><trkpt lat="43.2396202" lon="11.1942028"><ele>261.0</ele><time>2026-04-04T09:52:23.515Z</time></trkpt><trkpt lat="43.2396838" lon="11.1944409"><ele>262.0</ele><time>2026-04-04T09:52:24.525Z</time></trkpt><trkpt lat="43.2397524" lon="11.1946763"><ele>263.0</ele><time>2026-04-04T09:52:25.53Z</time></trkpt><trkpt lat="43.2398223" lon="11.1949256"><ele>264.0</ele><time>2026-04-04T09:52:26.516Z</time></trkpt><trkpt lat="43.239894" lon="11.1951751"><ele>261.0</ele><time>2026-04-04T09:52:27.527Z</time></trkpt><trkpt lat="43.239962" lon="11.1954259"><ele>258.0</ele><time>2026-04-04T09:52:28.521Z</time></trkpt><trkpt lat="43.2400271" lon="11.1956838"><ele>255.0</ele><time>2026-04-04T09:52:29.523Z</time></trkpt><trkpt lat="43.2400942" lon="11.1959486"><ele>254.0</ele><time>2026-04-04T09:52:30.53Z</time></trkpt><trkpt lat="43.2401521" lon="11.196213"><ele>253.0</ele><time>2026-04-04T09:52:31.522Z</time></trkpt><trkpt lat="43.2402088" lon="11.1964725"><ele>252.0</ele><time>2026-04-04T09:52:32.525Z</time></trkpt><trkpt lat="43.2402598" lon="11.1967357"><ele>250.66666666666669</ele><time>2026-04-04T09:52:33.532Z</time></trkpt><trkpt lat="43.2402969" lon="11.1970044"><ele>249.33333333333334</ele><time>2026-04-04T09:52:34.519Z</time></trkpt><trkpt lat="43.2403189" lon="11.1972845"><ele>248.0</ele><time>2026-04-04T09:52:35.517Z</time></trkpt><trkpt lat="43.240341" lon="11.1975603"><ele>247.33333333333334</ele><time>2026-04-04T09:52:36.525Z</time></trkpt><trkpt lat="43.2403692" lon="11.1978377"><ele>246.66666666666669</ele><time>2026-04-04T09:52:37.532Z</time></trkpt><trkpt lat="43.2404014" lon="11.1981182"><ele>246.0</ele><time>2026-04-04T09:52:38.524Z</time></trkpt><trkpt lat="43.2404385" lon="11.1983975"><ele>245.66666666666669</ele><time>2026-04-04T09:52:39.528Z</time></trkpt><trkpt lat="43.2404734" lon="11.1986996"><ele>245.33333333333334</ele><time>2026-04-04T09:52:40.519Z</time></trkpt><trkpt lat="43.2405084" lon="11.1990051"><ele>245.0</ele><time>2026-04-04T09:52:41.525Z</time></trkpt><trkpt lat="43.2405426" lon="11.1993082"><ele>244.33333333333334</ele><time>2026-04-04T09:52:42.521Z</time></trkpt><trkpt lat="43.2405704" lon="11.1996076"><ele>243.66666666666669</ele><time>2026-04-04T09:52:43.518Z</time></trkpt><trkpt lat="43.2405864" lon="11.1998883"><ele>243.0</ele><time>2026-04-04T09:52:44.534Z</time></trkpt><trkpt lat="43.2406074" lon="11.2001562"><ele>243.0</ele><time>2026-04-04T09:52:45.534Z</time></trkpt><trkpt lat="43.2406571" lon="11.2004218"><ele>243.0</ele><time>2026-04-04T09:52:46.528Z</time></trkpt><trkpt lat="43.2407336" lon="11.2006828"><ele>243.0</ele><time>2026-04-04T09:52:47.531Z</time></trkpt><trkpt lat="43.2408213" lon="11.2009495"><ele>243.0</ele><time>2026-04-04T09:52:48.546Z</time></trkpt><trkpt lat="43.2409167" lon="11.20121"><ele>243.0</ele><time>2026-04-04T09:52:49.53Z</time></trkpt><trkpt lat="43.2410168" lon="11.2014547"><ele>243.0</ele><time>2026-04-04T09:52:50.521Z</time></trkpt><trkpt lat="43.2411131" lon="11.2016905"><ele>243.0</ele><time>2026-04-04T09:52:51.531Z</time></trkpt><trkpt lat="43.2412036" lon="11.2019046"><ele>243.0</ele><time>2026-04-04T09:52:52.51Z</time></trkpt><trkpt lat="43.241311" lon="11.2021043"><ele>243.0</ele><time>2026-04-04T09:52:53.514Z</time></trkpt><trkpt lat="43.2414488" lon="11.2022901"><ele>243.0</ele><time>2026-04-04T09:52:54.524Z</time></trkpt><trkpt lat="43.2416129" lon="11.2024635"><ele>243.0</ele><time>2026-04-04T09:52:55.522Z</time></trkpt><trkpt lat="43.2417953" lon="11.2026531"><ele>243.0</ele><time>2026-04-04T09:52:56.544Z</time></trkpt><trkpt lat="43.2419894" lon="11.2028531"><ele>243.0</ele><time>2026-04-04T09:52:57.528Z</time></trkpt><trkpt lat="43.2421824" lon="11.2030561"><ele>243.0</ele><time>2026-04-04T09:52:58.494Z</time></trkpt><trkpt lat="43.2423673" lon="11.2032478"><ele>241.5</ele><time>2026-04-04T09:52:59.525Z</time></trkpt><trkpt lat="43.2425661" lon="11.2034132"><ele>240.0</ele><time>2026-04-04T09:53:00.526Z</time></trkpt><trkpt lat="43.2427705" lon="11.2035742"><ele>240.0</ele><time>2026-04-04T09:53:01.55Z</time></trkpt><trkpt lat="43.242969" lon="11.2037161"><ele>240.0</ele><time>2026-04-04T09:53:02.528Z</time></trkpt><trkpt lat="43.2431501" lon="11.2038394"><ele>240.0</ele><time>2026-04-04T09:53:03.499Z</time></trkpt><trkpt lat="43.2433146" lon="11.2039648"><ele>240.66666666666669</ele><time>2026-04-04T09:53:04.521Z</time></trkpt><trkpt lat="43.243463" lon="11.2041126"><ele>241.33333333333334</ele><time>2026-04-04T09:53:05.516Z</time></trkpt><trkpt lat="43.2435666" lon="11.204315"><ele>242.0</ele><time>2026-04-04T09:53:06.522Z</time></trkpt><trkpt lat="43.2436327" lon="11.2045511"><ele>242.0</ele><time>2026-04-04T09:53:07.524Z</time></trkpt><trkpt lat="43.2437009" lon="11.2047873"><ele>242.0</ele><time>2026-04-04T09:53:08.522Z</time></trkpt><trkpt lat="43.2437867" lon="11.2050294"><ele>242.0</ele><time>2026-04-04T09:53:09.531Z</time></trkpt><trkpt lat="43.2439301" lon="11.2052316"><ele>240.33333333333334</ele><time>2026-04-04T09:53:10.527Z</time></trkpt><trkpt lat="43.2440785" lon="11.2054334"><ele>238.66666666666669</ele><time>2026-04-04T09:53:11.526Z</time></trkpt><trkpt lat="43.2442422" lon="11.2056372"><ele>237.0</ele><time>2026-04-04T09:53:12.529Z</time></trkpt><trkpt lat="43.2443986" lon="11.2058452"><ele>237.0</ele><time>2026-04-04T09:53:13.528Z</time></trkpt><trkpt lat="43.244553" lon="11.2060492"><ele>237.0</ele><time>2026-04-04T09:53:14.534Z</time></trkpt><trkpt lat="43.244707" lon="11.2062434"><ele>237.0</ele><time>2026-04-04T09:53:15.526Z</time></trkpt><trkpt lat="43.2448489" lon="11.206456"><ele>237.0</ele><time>2026-04-04T09:53:16.526Z</time></trkpt><trkpt lat="43.2449649" lon="11.2066851"><ele>237.0</ele><time>2026-04-04T09:53:17.512Z</time></trkpt><trkpt lat="43.2450672" lon="11.2069428"><ele>237.0</ele><time>2026-04-04T09:53:18.519Z</time></trkpt><trkpt lat="43.2451709" lon="11.2071979"><ele>235.66666666666669</ele><time>2026-04-04T09:53:19.514Z</time></trkpt><trkpt lat="43.2452707" lon="11.2074567"><ele>234.33333333333334</ele><time>2026-04-04T09:53:20.516Z</time></trkpt><trkpt lat="43.2453741" lon="11.2077109"><ele>233.0</ele><time>2026-04-04T09:53:21.527Z</time></trkpt><trkpt lat="43.2454803" lon="11.2079618"><ele>230.66666666666669</ele><time>2026-04-04T09:53:22.524Z</time></trkpt><trkpt lat="43.2456002" lon="11.208201"><ele>228.33333333333331</ele><time>2026-04-04T09:53:23.515Z</time></trkpt><trkpt lat="43.245726" lon="11.2084353"><ele>226.0</ele><time>2026-04-04T09:53:24.519Z</time></trkpt><trkpt lat="43.2458529" lon="11.2086648"><ele>226.0</ele><time>2026-04-04T09:53:25.503Z</time></trkpt><trkpt lat="43.2459817" lon="11.2088868"><ele>226.0</ele><time>2026-04-04T09:53:26.526Z</time></trkpt><trkpt lat="43.2461159" lon="11.2090959"><ele>226.0</ele><time>2026-04-04T09:53:27.515Z</time></trkpt><trkpt lat="43.2462512" lon="11.2092926"><ele>226.33333333333331</ele><time>2026-04-04T09:53:28.526Z</time></trkpt><trkpt lat="43.2463869" lon="11.2094681"><ele>226.66666666666669</ele><time>2026-04-04T09:53:29.518Z</time></trkpt><trkpt lat="43.2465172" lon="11.2096395"><ele>227.0</ele><time>2026-04-04T09:53:30.525Z</time></trkpt><trkpt lat="43.246639" lon="11.2098357"><ele>226.33333333333334</ele><time>2026-04-04T09:53:31.525Z</time></trkpt><trkpt lat="43.2467424" lon="11.2100643"><ele>225.66666666666669</ele><time>2026-04-04T09:53:32.525Z</time></trkpt><trkpt lat="43.2468064" lon="11.2103079"><ele>225.0</ele><time>2026-04-04T09:53:33.521Z</time></trkpt><trkpt lat="43.2468467" lon="11.2105588"><ele>223.66666666666669</ele><time>2026-04-04T09:53:34.496Z</time></trkpt><trkpt lat="43.246868" lon="11.2108186"><ele>222.33333333333334</ele><time>2026-04-04T09:53:35.521Z</time></trkpt><trkpt lat="43.2468837" lon="11.2110874"><ele>221.0</ele><time>2026-04-04T09:53:36.52Z</time></trkpt><trkpt lat="43.2468706" lon="11.2113722"><ele>220.66666666666669</ele><time>2026-04-04T09:53:37.52Z</time></trkpt><trkpt lat="43.2468141" lon="11.2116428"><ele>220.33333333333331</ele><time>2026-04-04T09:53:38.511Z</time></trkpt><trkpt lat="43.2467268" lon="11.2118869"><ele>220.0</ele><time>2026-04-04T09:53:39.517Z</time></trkpt><trkpt lat="43.2466134" lon="11.2121305"><ele>218.66666666666666</ele><time>2026-04-04T09:53:40.511Z</time></trkpt><trkpt lat="43.2464903" lon="11.2123706"><ele>217.33333333333331</ele><time>2026-04-04T09:53:41.532Z</time></trkpt><trkpt lat="43.2463714" lon="11.2126057"><ele>216.0</ele><time>2026-04-04T09:53:42.504Z</time></trkpt><trkpt lat="43.2462506" lon="11.212835"><ele>216.0</ele><time>2026-04-04T09:53:43.532Z</time></trkpt><trkpt lat="43.2461397" lon="11.213072"><ele>216.0</ele><time>2026-04-04T09:53:44.509Z</time></trkpt><trkpt lat="43.2460284" lon="11.2133067"><ele>216.0</ele><time>2026-04-04T09:53:45.521Z</time></trkpt><trkpt lat="43.2459297" lon="11.2135334"><ele>216.0</ele><time>2026-04-04T09:53:46.53Z</time></trkpt><trkpt lat="43.245846" lon="11.2137759"><ele>216.0</ele><time>2026-04-04T09:53:47.521Z</time></trkpt><trkpt lat="43.2457763" lon="11.2140333"><ele>216.0</ele><time>2026-04-04T09:53:48.532Z</time></trkpt><trkpt lat="43.2457152" lon="11.2142976"><ele>216.0</ele><time>2026-04-04T09:53:49.513Z</time></trkpt><trkpt lat="43.2456574" lon="11.2145621"><ele>216.0</ele><time>2026-04-04T09:53:50.524Z</time></trkpt><trkpt lat="43.2455951" lon="11.2148291"><ele>216.0</ele><time>2026-04-04T09:53:51.514Z</time></trkpt><trkpt lat="43.2455411" lon="11.2150897"><ele>214.33333333333331</ele><time>2026-04-04T09:53:52.537Z</time></trkpt><trkpt lat="43.2454863" lon="11.2153485"><ele>212.66666666666666</ele><time>2026-04-04T09:53:53.53Z</time></trkpt><trkpt lat="43.2454344" lon="11.2156029"><ele>211.0</ele><time>2026-04-04T09:53:54.53Z</time></trkpt><trkpt lat="43.2453828" lon="11.2158536"><ele>210.33333333333331</ele><time>2026-04-04T09:53:55.518Z</time></trkpt><trkpt lat="43.245334" lon="11.2161021"><ele>209.66666666666669</ele><time>2026-04-04T09:53:56.52Z</time></trkpt><trkpt lat="43.2452857" lon="11.2163386"><ele>209.0</ele><time>2026-04-04T09:53:57.521Z</time></trkpt><trkpt lat="43.2452379" lon="11.2165666"><ele>211.33333333333334</ele><time>2026-04-04T09:53:58.529Z</time></trkpt><trkpt lat="43.2451929" lon="11.2167749"><ele>213.66666666666669</ele><time>2026-04-04T09:53:59.519Z</time></trkpt><trkpt lat="43.2451538" lon="11.2169756"><ele>216.0</ele><time>2026-04-04T09:54:00.526Z</time></trkpt><trkpt lat="43.2451159" lon="11.2171681"><ele>215.75</ele><time>2026-04-04T09:54:01.52Z</time></trkpt><trkpt lat="43.2450821" lon="11.2173582"><ele>215.5</ele><time>2026-04-04T09:54:02.508Z</time></trkpt><trkpt lat="43.2450465" lon="11.2175433"><ele>215.25</ele><time>2026-04-04T09:54:03.524Z</time></trkpt><trkpt lat="43.2450132" lon="11.21772"><ele>215.0</ele><time>2026-04-04T09:54:04.531Z</time></trkpt><trkpt lat="43.244979" lon="11.2178997"><ele>215.0</ele><time>2026-04-04T09:54:05.527Z</time></trkpt><trkpt lat="43.2449358" lon="11.2180638"><ele>215.0</ele><time>2026-04-04T09:54:06.523Z</time></trkpt><trkpt lat="43.2448844" lon="11.2182079"><ele>215.0</ele><time>2026-04-04T09:54:07.517Z</time></trkpt><trkpt lat="43.2448199" lon="11.2183399"><ele>215.0</ele><time>2026-04-04T09:54:08.525Z</time></trkpt><trkpt lat="43.2447576" lon="11.2184733"><ele>212.8</ele><time>2026-04-04T09:54:09.546Z</time></trkpt><trkpt lat="43.2447037" lon="11.2186052"><ele>210.6</ele><time>2026-04-04T09:54:10.547Z</time></trkpt><trkpt lat="43.2446481" lon="11.2187248"><ele>208.39999999999998</ele><time>2026-04-04T09:54:11.536Z</time></trkpt><trkpt lat="43.2445971" lon="11.2188412"><ele>206.2</ele><time>2026-04-04T09:54:12.532Z</time></trkpt><trkpt lat="43.2445512" lon="11.2189555"><ele>204.0</ele><time>2026-04-04T09:54:13.534Z</time></trkpt><trkpt lat="43.2445058" lon="11.2190632"><ele>204.0</ele><time>2026-04-04T09:54:14.532Z</time></trkpt><trkpt lat="43.2444644" lon="11.2191663"><ele>204.0</ele><time>2026-04-04T09:54:15.548Z</time></trkpt><trkpt lat="43.2444285" lon="11.2192659"><ele>204.0</ele><time>2026-04-04T09:54:16.51Z</time></trkpt><trkpt lat="43.2443977" lon="11.2193615"><ele>204.0</ele><time>2026-04-04T09:54:17.523Z</time></trkpt><trkpt lat="43.2443759" lon="11.2194695"><ele>204.0</ele><time>2026-04-04T09:54:18.526Z</time></trkpt><trkpt lat="43.2443644" lon="11.2195656"><ele>204.0</ele><time>2026-04-04T09:54:19.523Z</time></trkpt><trkpt lat="43.244377" lon="11.21969"><ele>204.0</ele><time>2026-04-04T09:54:20.529Z</time></trkpt><trkpt lat="43.2444148" lon="11.2198315"><ele>204.0</ele><time>2026-04-04T09:54:21.515Z</time></trkpt><trkpt lat="43.2444549" lon="11.2199905"><ele>204.0</ele><time>2026-04-04T09:54:22.534Z</time></trkpt><trkpt lat="43.2444882" lon="11.2201472"><ele>204.0</ele><time>2026-04-04T09:54:23.537Z</time></trkpt><trkpt lat="43.2445258" lon="11.2203051"><ele>204.0</ele><time>2026-04-04T09:54:24.538Z</time></trkpt><trkpt lat="43.2445634" lon="11.2204602"><ele>204.0</ele><time>2026-04-04T09:54:25.493Z</time></trkpt><trkpt lat="43.2446052" lon="11.2206248"><ele>204.0</ele><time>2026-04-04T09:54:26.522Z</time></trkpt><trkpt lat="43.2446424" lon="11.2207782"><ele>204.0</ele><time>2026-04-04T09:54:27.529Z</time></trkpt><trkpt lat="43.2446833" lon="11.2209271"><ele>203.79999999999998</ele><time>2026-04-04T09:54:28.521Z</time></trkpt><trkpt lat="43.244727" lon="11.2210658"><ele>203.6</ele><time>2026-04-04T09:54:29.528Z</time></trkpt><trkpt lat="43.2447661" lon="11.2212066"><ele>203.4</ele><time>2026-04-04T09:54:30.539Z</time></trkpt><trkpt lat="43.2448034" lon="11.2213404"><ele>203.2</ele><time>2026-04-04T09:54:31.529Z</time></trkpt><trkpt lat="43.2448382" lon="11.2214681"><ele>203.0</ele><time>2026-04-04T09:54:32.536Z</time></trkpt><trkpt lat="43.2448784" lon="11.2215864"><ele>202.8</ele><time>2026-04-04T09:54:33.54Z</time></trkpt><trkpt lat="43.2449151" lon="11.2217059"><ele>202.60000000000002</ele><time>2026-04-04T09:54:34.544Z</time></trkpt><trkpt lat="43.2449593" lon="11.2218344"><ele>202.39999999999998</ele><time>2026-04-04T09:54:35.533Z</time></trkpt><trkpt lat="43.2450161" lon="11.2219424"><ele>202.2</ele><time>2026-04-04T09:54:36.533Z</time></trkpt><trkpt lat="43.245077" lon="11.2220393"><ele>202.0</ele><time>2026-04-04T09:54:37.516Z</time></trkpt><trkpt lat="43.2451469" lon="11.2221237"><ele>201.99999999999997</ele><time>2026-04-04T09:54:38.539Z</time></trkpt><trkpt lat="43.2452197" lon="11.2221999"><ele>202.0</ele><time>2026-04-04T09:54:39.538Z</time></trkpt><trkpt lat="43.2452921" lon="11.2222676"><ele>202.0</ele><time>2026-04-04T09:54:40.545Z</time></trkpt><trkpt lat="43.2453664" lon="11.2223194"><ele>202.0</ele><time>2026-04-04T09:54:41.533Z</time></trkpt><trkpt lat="43.2454361" lon="11.2223727"><ele>201.99999999999997</ele><time>2026-04-04T09:54:42.501Z</time></trkpt><trkpt lat="43.2455092" lon="11.2224195"><ele>202.0</ele><time>2026-04-04T09:54:43.543Z</time></trkpt><trkpt lat="43.2455826" lon="11.2224468"><ele>202.0</ele><time>2026-04-04T09:54:44.54Z</time></trkpt><trkpt lat="43.2456513" lon="11.2224736"><ele>202.0</ele><time>2026-04-04T09:54:45.533Z</time></trkpt><trkpt lat="43.2457163" lon="11.2224996"><ele>202.0</ele><time>2026-04-04T09:54:46.536Z</time></trkpt><trkpt lat="43.2457825" lon="11.2225214"><ele>202.0</ele><time>2026-04-04T09:54:47.537Z</time></trkpt><trkpt lat="43.245848" lon="11.222547"><ele>202.0</ele><time>2026-04-04T09:54:48.534Z</time></trkpt><trkpt lat="43.2459164" lon="11.2225786"><ele>202.0</ele><time>2026-04-04T09:54:49.555Z</time></trkpt><trkpt lat="43.2459815" lon="11.2226058"><ele>202.0</ele><time>2026-04-04T09:54:50.537Z</time></trkpt><trkpt lat="43.2460446" lon="11.2226436"><ele>202.0</ele><time>2026-04-04T09:54:51.542Z</time></trkpt><trkpt lat="43.2461083" lon="11.2226689"><ele>202.0</ele><time>2026-04-04T09:54:52.549Z</time></trkpt><trkpt lat="43.2461798" lon="11.2226914"><ele>202.0</ele><time>2026-04-04T09:54:53.526Z</time></trkpt><trkpt lat="43.2462516" lon="11.2227141"><ele>202.0</ele><time>2026-04-04T09:54:54.53Z</time></trkpt><trkpt lat="43.2463202" lon="11.2227379"><ele>202.0</ele><time>2026-04-04T09:54:55.539Z</time></trkpt><trkpt lat="43.2463921" lon="11.222761"><ele>202.0</ele><time>2026-04-04T09:54:56.542Z</time></trkpt><trkpt lat="43.2464649" lon="11.2227856"><ele>202.0</ele><time>2026-04-04T09:54:57.546Z</time></trkpt><trkpt lat="43.2465389" lon="11.2228128"><ele>202.33333333333331</ele><time>2026-04-04T09:54:58.537Z</time></trkpt><trkpt lat="43.246611" lon="11.2228376"><ele>202.66666666666666</ele><time>2026-04-04T09:54:59.531Z</time></trkpt><trkpt lat="43.2466828" lon="11.2228605"><ele>203.0</ele><time>2026-04-04T09:55:00.542Z</time></trkpt><trkpt lat="43.2467478" lon="11.2228827"><ele>203.33333333333331</ele><time>2026-04-04T09:55:01.534Z</time></trkpt><trkpt lat="43.2468178" lon="11.2229069"><ele>203.66666666666666</ele><time>2026-04-04T09:55:02.537Z</time></trkpt><trkpt lat="43.2468993" lon="11.2229175"><ele>204.0</ele><time>2026-04-04T09:55:03.554Z</time></trkpt><trkpt lat="43.2469918" lon="11.2229351"><ele>204.0</ele><time>2026-04-04T09:55:04.543Z</time></trkpt><trkpt lat="43.2470861" lon="11.222951"><ele>204.0</ele><time>2026-04-04T09:55:05.54Z</time></trkpt><trkpt lat="43.2471775" lon="11.2229648"><ele>204.0</ele><time>2026-04-04T09:55:06.54Z</time></trkpt><trkpt lat="43.2472661" lon="11.2229775"><ele>204.0</ele><time>2026-04-04T09:55:07.536Z</time></trkpt><trkpt lat="43.2473574" lon="11.2229917"><ele>204.0</ele><time>2026-04-04T09:55:08.527Z</time></trkpt><trkpt lat="43.2474487" lon="11.2229983"><ele>203.5</ele><time>2026-04-04T09:55:09.521Z</time></trkpt><trkpt lat="43.2475385" lon="11.2229979"><ele>203.0</ele><time>2026-04-04T09:55:10.532Z</time></trkpt><trkpt lat="43.2476302" lon="11.2230021"><ele>202.5</ele><time>2026-04-04T09:55:11.535Z</time></trkpt><trkpt lat="43.247721" lon="11.2230045"><ele>202.0</ele><time>2026-04-04T09:55:12.531Z</time></trkpt><trkpt lat="43.2478074" lon="11.2230061"><ele>201.5</ele><time>2026-04-04T09:55:13.524Z</time></trkpt><trkpt lat="43.247889" lon="11.2230052"><ele>201.0</ele><time>2026-04-04T09:55:14.523Z</time></trkpt><trkpt lat="43.2479574" lon="11.2230031"><ele>201.0</ele><time>2026-04-04T09:55:15.526Z</time></trkpt><trkpt lat="43.2480366" lon="11.2230331"><ele>201.0</ele><time>2026-04-04T09:55:17.516Z</time></trkpt><trkpt lat="43.2480646" lon="11.2231236"><ele>201.0</ele><time>2026-04-04T09:55:20.528Z</time></trkpt><trkpt lat="43.2481266" lon="11.2231066"><ele>201.0</ele><time>2026-04-04T09:55:23.53Z</time></trkpt><trkpt lat="43.2482042" lon="11.2231431"><ele>201.0</ele><time>2026-04-04T09:58:40.526Z</time></trkpt><trkpt lat="43.2483078" lon="11.223132"><ele>201.0</ele><time>2026-04-04T09:58:43.519Z</time></trkpt><trkpt lat="43.2483666" lon="11.2230806"><ele>201.0</ele><time>2026-04-04T09:58:45.534Z</time></trkpt><trkpt lat="43.2484653" lon="11.2230208"><ele>201.0</ele><time>2026-04-04T09:58:55.519Z</time></trkpt><trkpt lat="43.2485655" lon="11.2230462"><ele>201.0</ele><time>2026-04-04T09:58:56.526Z</time></trkpt><trkpt lat="43.2486741" lon="11.2230383"><ele>201.0</ele><time>2026-04-04T09:58:57.542Z</time></trkpt><trkpt lat="43.248789" lon="11.2230417"><ele>201.0</ele><time>2026-04-04T09:58:58.539Z</time></trkpt><trkpt lat="43.248911" lon="11.2230565"><ele>201.25</ele><time>2026-04-04T09:58:59.505Z</time></trkpt><trkpt lat="43.249042" lon="11.2230587"><ele>201.5</ele><time>2026-04-04T09:59:00.534Z</time></trkpt><trkpt lat="43.2491761" lon="11.2230648"><ele>201.75</ele><time>2026-04-04T09:59:01.519Z</time></trkpt><trkpt lat="43.2493041" lon="11.2230737"><ele>202.0</ele><time>2026-04-04T09:59:02.528Z</time></trkpt><trkpt lat="43.2494253" lon="11.2230793"><ele>201.99999999999997</ele><time>2026-04-04T09:59:03.543Z</time></trkpt><trkpt lat="43.2495297" lon="11.223093"><ele>202.0</ele><time>2026-04-04T09:59:04.537Z</time></trkpt><trkpt lat="43.2496311" lon="11.2231096"><ele>202.0</ele><time>2026-04-04T09:59:05.544Z</time></trkpt><trkpt lat="43.2497039" lon="11.2231311"><ele>202.0</ele><time>2026-04-04T09:59:06.518Z</time></trkpt><trkpt lat="43.2497826" lon="11.2231505"><ele>201.99999999999997</ele><time>2026-04-04T09:59:09.519Z</time></trkpt><trkpt lat="43.249849" lon="11.2231562"><ele>202.0</ele><time>2026-04-04T09:59:12.538Z</time></trkpt><trkpt lat="43.25001" lon="11.2231931"><ele>201.0</ele><time>2026-04-04T09:59:14.551Z</time></trkpt><trkpt lat="43.250122" lon="11.2232348"><ele>200.0</ele><time>2026-04-04T09:59:15.529Z</time></trkpt><trkpt lat="43.2502397" lon="11.2232761"><ele>199.0</ele><time>2026-04-04T09:59:16.528Z</time></trkpt><trkpt lat="43.2503504" lon="11.223316"><ele>198.0</ele><time>2026-04-04T09:59:17.535Z</time></trkpt><trkpt lat="43.2504626" lon="11.2233486"><ele>198.0</ele><time>2026-04-04T09:59:18.535Z</time></trkpt><trkpt lat="43.2505831" lon="11.2233838"><ele>198.0</ele><time>2026-04-04T09:59:19.526Z</time></trkpt><trkpt lat="43.2507054" lon="11.2234151"><ele>198.0</ele><time>2026-04-04T09:59:20.521Z</time></trkpt><trkpt lat="43.2508072" lon="11.2234483"><ele>198.0</ele><time>2026-04-04T09:59:21.522Z</time></trkpt><trkpt lat="43.2509048" lon="11.223473"><ele>197.66666666666666</ele><time>2026-04-04T09:59:22.53Z</time></trkpt><trkpt lat="43.2509953" lon="11.2234976"><ele>197.33333333333331</ele><time>2026-04-04T09:59:23.539Z</time></trkpt><trkpt lat="43.2510777" lon="11.2235204"><ele>197.0</ele><time>2026-04-04T09:59:24.519Z</time></trkpt><trkpt lat="43.2511545" lon="11.2235433"><ele>196.66666666666666</ele><time>2026-04-04T09:59:25.531Z</time></trkpt><trkpt lat="43.2512389" lon="11.2235781"><ele>196.33333333333331</ele><time>2026-04-04T09:59:26.52Z</time></trkpt><trkpt lat="43.251334" lon="11.2236124"><ele>196.0</ele><time>2026-04-04T09:59:27.542Z</time></trkpt><trkpt lat="43.2514322" lon="11.2236411"><ele>196.4</ele><time>2026-04-04T09:59:28.541Z</time></trkpt><trkpt lat="43.25152" lon="11.2236773"><ele>196.8</ele><time>2026-04-04T09:59:29.539Z</time></trkpt><trkpt lat="43.2515924" lon="11.223743"><ele>197.20000000000002</ele><time>2026-04-04T09:59:30.538Z</time></trkpt><trkpt lat="43.2516591" lon="11.2238295"><ele>197.60000000000002</ele><time>2026-04-04T09:59:31.543Z</time></trkpt><trkpt lat="43.251736" lon="11.2238809"><ele>198.0</ele><time>2026-04-04T09:59:32.538Z</time></trkpt><trkpt lat="43.2518377" lon="11.2238742"><ele>198.0</ele><time>2026-04-04T09:59:33.535Z</time></trkpt><trkpt lat="43.2519562" lon="11.223867"><ele>198.0</ele><time>2026-04-04T09:59:34.537Z</time></trkpt><trkpt lat="43.2520921" lon="11.2238833"><ele>198.0</ele><time>2026-04-04T09:59:35.536Z</time></trkpt><trkpt lat="43.2522388" lon="11.2239427"><ele>198.0</ele><time>2026-04-04T09:59:36.512Z</time></trkpt><trkpt lat="43.2523729" lon="11.2240303"><ele>198.33333333333331</ele><time>2026-04-04T09:59:37.537Z</time></trkpt><trkpt lat="43.2525234" lon="11.2241148"><ele>198.66666666666666</ele><time>2026-04-04T09:59:38.526Z</time></trkpt><trkpt lat="43.2526761" lon="11.2242045"><ele>199.0</ele><time>2026-04-04T09:59:39.534Z</time></trkpt><trkpt lat="43.2528222" lon="11.2243058"><ele>199.0</ele><time>2026-04-04T09:59:40.531Z</time></trkpt><trkpt lat="43.2529738" lon="11.2244057"><ele>199.0</ele><time>2026-04-04T09:59:41.528Z</time></trkpt><trkpt lat="43.2531309" lon="11.2245073"><ele>199.0</ele><time>2026-04-04T09:59:42.536Z</time></trkpt><trkpt lat="43.2532873" lon="11.2245958"><ele>198.33333333333331</ele><time>2026-04-04T09:59:43.515Z</time></trkpt><trkpt lat="43.2534536" lon="11.2246608"><ele>197.66666666666669</ele><time>2026-04-04T09:59:44.53Z</time></trkpt><trkpt lat="43.2536342" lon="11.2246996"><ele>197.0</ele><time>2026-04-04T09:59:45.517Z</time></trkpt><trkpt lat="43.2538126" lon="11.2247039"><ele>197.66666666666669</ele><time>2026-04-04T09:59:46.559Z</time></trkpt><trkpt lat="43.2539948" lon="11.224703"><ele>198.33333333333331</ele><time>2026-04-04T09:59:47.533Z</time></trkpt><trkpt lat="43.2541806" lon="11.2247086"><ele>199.0</ele><time>2026-04-04T09:59:48.545Z</time></trkpt><trkpt lat="43.2543708" lon="11.2247473"><ele>199.0</ele><time>2026-04-04T09:59:49.549Z</time></trkpt><trkpt lat="43.2545552" lon="11.2248037"><ele>199.0</ele><time>2026-04-04T09:59:50.49Z</time></trkpt><trkpt lat="43.254735" lon="11.2248769"><ele>199.0</ele><time>2026-04-04T09:59:51.488Z</time></trkpt><trkpt lat="43.2549225" lon="11.2249533"><ele>199.0</ele><time>2026-04-04T09:59:52.495Z</time></trkpt><trkpt lat="43.2551027" lon="11.2250329"><ele>199.0</ele><time>2026-04-04T09:59:53.492Z</time></trkpt><trkpt lat="43.2552767" lon="11.2251178"><ele>199.0</ele><time>2026-04-04T09:59:54.483Z</time></trkpt><trkpt lat="43.2554395" lon="11.2252167"><ele>199.0</ele><time>2026-04-04T09:59:55.489Z</time></trkpt><trkpt lat="43.2556031" lon="11.2253323"><ele>199.0</ele><time>2026-04-04T09:59:56.53Z</time></trkpt><trkpt lat="43.2557703" lon="11.2254524"><ele>199.0</ele><time>2026-04-04T09:59:57.511Z</time></trkpt><trkpt lat="43.2559256" lon="11.2255789"><ele>198.0</ele><time>2026-04-04T09:59:58.497Z</time></trkpt><trkpt lat="43.256089" lon="11.2257021"><ele>197.0</ele><time>2026-04-04T09:59:59.492Z</time></trkpt><trkpt lat="43.2562526" lon="11.2258235"><ele>196.0</ele><time>2026-04-04T10:00:00.531Z</time></trkpt><trkpt lat="43.2564241" lon="11.2259279"><ele>196.33333333333331</ele><time>2026-04-04T10:00:01.526Z</time></trkpt><trkpt lat="43.2565997" lon="11.2260084"><ele>196.66666666666669</ele><time>2026-04-04T10:00:02.512Z</time></trkpt><trkpt lat="43.2567986" lon="11.2260408"><ele>197.0</ele><time>2026-04-04T10:00:03.529Z</time></trkpt><trkpt lat="43.2570049" lon="11.2260656"><ele>197.0</ele><time>2026-04-04T10:00:04.525Z</time></trkpt><trkpt lat="43.2572277" lon="11.2260749"><ele>197.0</ele><time>2026-04-04T10:00:05.54Z</time></trkpt><trkpt lat="43.2574534" lon="11.2260814"><ele>197.0</ele><time>2026-04-04T10:00:06.513Z</time></trkpt><trkpt lat="43.2576763" lon="11.2260807"><ele>197.0</ele><time>2026-04-04T10:00:07.513Z</time></trkpt><trkpt lat="43.2578927" lon="11.2260832"><ele>197.0</ele><time>2026-04-04T10:00:08.541Z</time></trkpt><trkpt lat="43.2581041" lon="11.2261025"><ele>197.0</ele><time>2026-04-04T10:00:09.543Z</time></trkpt><trkpt lat="43.2583166" lon="11.2261652"><ele>197.0</ele><time>2026-04-04T10:00:10.545Z</time></trkpt><trkpt lat="43.2585199" lon="11.2262579"><ele>197.0</ele><time>2026-04-04T10:00:11.545Z</time></trkpt><trkpt lat="43.2587176" lon="11.2263732"><ele>197.0</ele><time>2026-04-04T10:00:12.54Z</time></trkpt><trkpt lat="43.2589136" lon="11.2265284"><ele>197.0</ele><time>2026-04-04T10:00:13.529Z</time></trkpt><trkpt lat="43.2590966" lon="11.2267299"><ele>197.0</ele><time>2026-04-04T10:00:14.516Z</time></trkpt><trkpt lat="43.2592686" lon="11.2269576"><ele>197.0</ele><time>2026-04-04T10:00:15.518Z</time></trkpt><trkpt lat="43.2594435" lon="11.2272104"><ele>197.0</ele><time>2026-04-04T10:00:16.536Z</time></trkpt><trkpt lat="43.2596203" lon="11.2274656"><ele>198.5</ele><time>2026-04-04T10:00:17.517Z</time></trkpt><trkpt lat="43.2597993" lon="11.2277168"><ele>200.0</ele><time>2026-04-04T10:00:18.561Z</time></trkpt><trkpt lat="43.2599806" lon="11.2279662"><ele>196.5</ele><time>2026-04-04T10:00:19.515Z</time></trkpt><trkpt lat="43.2601644" lon="11.2282216"><ele>193.0</ele><time>2026-04-04T10:00:20.515Z</time></trkpt><trkpt lat="43.2603541" lon="11.2284703"><ele>193.0</ele><time>2026-04-04T10:00:21.539Z</time></trkpt><trkpt lat="43.2605429" lon="11.2287276"><ele>193.0</ele><time>2026-04-04T10:00:22.533Z</time></trkpt><trkpt lat="43.2607267" lon="11.2289853"><ele>194.0</ele><time>2026-04-04T10:00:23.533Z</time></trkpt><trkpt lat="43.260914" lon="11.229243"><ele>195.0</ele><time>2026-04-04T10:00:24.532Z</time></trkpt><trkpt lat="43.2610997" lon="11.2294968"><ele>195.0</ele><time>2026-04-04T10:00:25.532Z</time></trkpt><trkpt lat="43.2612825" lon="11.2297444"><ele>195.0</ele><time>2026-04-04T10:00:26.541Z</time></trkpt><trkpt lat="43.2614637" lon="11.2299885"><ele>197.0</ele><time>2026-04-04T10:00:27.52Z</time></trkpt><trkpt lat="43.2616438" lon="11.2302309"><ele>199.0</ele><time>2026-04-04T10:00:28.514Z</time></trkpt><trkpt lat="43.2618157" lon="11.2304495"><ele>198.5</ele><time>2026-04-04T10:00:29.538Z</time></trkpt><trkpt lat="43.2619783" lon="11.230665"><ele>198.0</ele><time>2026-04-04T10:00:30.531Z</time></trkpt><trkpt lat="43.2621398" lon="11.2308775"><ele>200.0</ele><time>2026-04-04T10:00:31.532Z</time></trkpt><trkpt lat="43.2622968" lon="11.231085"><ele>202.0</ele><time>2026-04-04T10:00:32.527Z</time></trkpt><trkpt lat="43.2624456" lon="11.2313014"><ele>204.0</ele><time>2026-04-04T10:00:33.539Z</time></trkpt><trkpt lat="43.2625939" lon="11.2315355"><ele>204.0</ele><time>2026-04-04T10:00:34.523Z</time></trkpt><trkpt lat="43.262736" lon="11.231765"><ele>204.0</ele><time>2026-04-04T10:00:35.53Z</time></trkpt><trkpt lat="43.2628628" lon="11.2319941"><ele>204.0</ele><time>2026-04-04T10:00:36.494Z</time></trkpt><trkpt lat="43.2629901" lon="11.2322154"><ele>204.0</ele><time>2026-04-04T10:00:37.528Z</time></trkpt><trkpt lat="43.2631094" lon="11.232433"><ele>204.0</ele><time>2026-04-04T10:00:38.502Z</time></trkpt><trkpt lat="43.2632123" lon="11.2326452"><ele>204.0</ele><time>2026-04-04T10:00:39.551Z</time></trkpt><trkpt lat="43.2633199" lon="11.2328365"><ele>206.66666666666669</ele><time>2026-04-04T10:00:40.517Z</time></trkpt><trkpt lat="43.2634266" lon="11.2330314"><ele>209.33333333333334</ele><time>2026-04-04T10:00:41.533Z</time></trkpt><trkpt lat="43.2635418" lon="11.2332369"><ele>212.0</ele><time>2026-04-04T10:00:42.533Z</time></trkpt><trkpt lat="43.2636583" lon="11.2334532"><ele>212.33333333333334</ele><time>2026-04-04T10:00:43.543Z</time></trkpt><trkpt lat="43.2637884" lon="11.2336855"><ele>212.66666666666669</ele><time>2026-04-04T10:00:44.538Z</time></trkpt><trkpt lat="43.2639235" lon="11.2339223"><ele>213.0</ele><time>2026-04-04T10:00:45.537Z</time></trkpt><trkpt lat="43.2640643" lon="11.2341563"><ele>209.0</ele><time>2026-04-04T10:00:46.534Z</time></trkpt><trkpt lat="43.2642055" lon="11.2343991"><ele>205.0</ele><time>2026-04-04T10:00:47.529Z</time></trkpt><trkpt lat="43.264344" lon="11.2346407"><ele>204.33333333333331</ele><time>2026-04-04T10:00:48.529Z</time></trkpt><trkpt lat="43.2644801" lon="11.2348795"><ele>203.66666666666669</ele><time>2026-04-04T10:00:49.532Z</time></trkpt><trkpt lat="43.2646129" lon="11.2351294"><ele>203.0</ele><time>2026-04-04T10:00:50.535Z</time></trkpt><trkpt lat="43.2647516" lon="11.2353747"><ele>203.5</ele><time>2026-04-04T10:00:51.544Z</time></trkpt><trkpt lat="43.2648904" lon="11.2356219"><ele>204.0</ele><time>2026-04-04T10:00:52.536Z</time></trkpt><trkpt lat="43.2650292" lon="11.2358639"><ele>204.0</ele><time>2026-04-04T10:00:53.536Z</time></trkpt><trkpt lat="43.2651671" lon="11.236106"><ele>204.0</ele><time>2026-04-04T10:00:54.531Z</time></trkpt><trkpt lat="43.2653065" lon="11.2363364"><ele>204.0</ele><time>2026-04-04T10:00:55.538Z</time></trkpt><trkpt lat="43.2654436" lon="11.2365623"><ele>204.0</ele><time>2026-04-04T10:00:56.532Z</time></trkpt><trkpt lat="43.2655844" lon="11.2367981"><ele>204.0</ele><time>2026-04-04T10:00:57.539Z</time></trkpt><trkpt lat="43.2657279" lon="11.2370388"><ele>204.0</ele><time>2026-04-04T10:00:58.545Z</time></trkpt><trkpt lat="43.2658812" lon="11.2372899"><ele>206.0</ele><time>2026-04-04T10:00:59.52Z</time></trkpt><trkpt lat="43.2660436" lon="11.2375556"><ele>208.0</ele><time>2026-04-04T10:01:00.536Z</time></trkpt><trkpt lat="43.2662247" lon="11.2378467"><ele>207.5</ele><time>2026-04-04T10:01:01.558Z</time></trkpt><trkpt lat="43.2663957" lon="11.2381466"><ele>207.0</ele><time>2026-04-04T10:01:02.54Z</time></trkpt><trkpt lat="43.2665596" lon="11.2384438"><ele>204.0</ele><time>2026-04-04T10:01:03.541Z</time></trkpt><trkpt lat="43.2667206" lon="11.2387376"><ele>201.0</ele><time>2026-04-04T10:01:04.538Z</time></trkpt><trkpt lat="43.2668865" lon="11.2390266"><ele>200.5</ele><time>2026-04-04T10:01:05.527Z</time></trkpt><trkpt lat="43.2670514" lon="11.239304"><ele>200.0</ele><time>2026-04-04T10:01:06.554Z</time></trkpt><trkpt lat="43.2672144" lon="11.2395733"><ele>199.0</ele><time>2026-04-04T10:01:07.544Z</time></trkpt><trkpt lat="43.2673806" lon="11.2398442"><ele>198.0</ele><time>2026-04-04T10:01:08.516Z</time></trkpt><trkpt lat="43.2675431" lon="11.2401073"><ele>198.0</ele><time>2026-04-04T10:01:09.526Z</time></trkpt><trkpt lat="43.2676985" lon="11.2403707"><ele>198.0</ele><time>2026-04-04T10:01:10.515Z</time></trkpt><trkpt lat="43.2678486" lon="11.24063"><ele>198.0</ele><time>2026-04-04T10:01:11.539Z</time></trkpt><trkpt lat="43.2679903" lon="11.2408765"><ele>198.0</ele><time>2026-04-04T10:01:12.541Z</time></trkpt><trkpt lat="43.2681266" lon="11.2411138"><ele>198.0</ele><time>2026-04-04T10:01:13.539Z</time></trkpt><trkpt lat="43.268256" lon="11.24134"><ele>200.66666666666669</ele><time>2026-04-04T10:01:14.52Z</time></trkpt><trkpt lat="43.2683884" lon="11.2415605"><ele>203.33333333333334</ele><time>2026-04-04T10:01:15.513Z</time></trkpt><trkpt lat="43.2685141" lon="11.2417794"><ele>206.0</ele><time>2026-04-04T10:01:16.539Z</time></trkpt><trkpt lat="43.2686526" lon="11.2419962"><ele>206.0</ele><time>2026-04-04T10:01:17.531Z</time></trkpt><trkpt lat="43.2688004" lon="11.2422171"><ele>206.0</ele><time>2026-04-04T10:01:18.529Z</time></trkpt><trkpt lat="43.2689507" lon="11.2424427"><ele>206.0</ele><time>2026-04-04T10:01:19.533Z</time></trkpt><trkpt lat="43.2691013" lon="11.2426774"><ele>204.5</ele><time>2026-04-04T10:01:20.529Z</time></trkpt><trkpt lat="43.2692587" lon="11.2429108"><ele>203.0</ele><time>2026-04-04T10:01:21.533Z</time></trkpt><trkpt lat="43.269412" lon="11.2431495"><ele>201.0</ele><time>2026-04-04T10:01:22.538Z</time></trkpt><trkpt lat="43.2695734" lon="11.2433869"><ele>199.0</ele><time>2026-04-04T10:01:23.545Z</time></trkpt><trkpt lat="43.269729" lon="11.2436249"><ele>198.5</ele><time>2026-04-04T10:01:24.529Z</time></trkpt><trkpt lat="43.2698878" lon="11.2438624"><ele>198.0</ele><time>2026-04-04T10:01:25.536Z</time></trkpt><trkpt lat="43.2700438" lon="11.2441037"><ele>197.0</ele><time>2026-04-04T10:01:26.533Z</time></trkpt><trkpt lat="43.2702009" lon="11.2443508"><ele>196.0</ele><time>2026-04-04T10:01:27.531Z</time></trkpt><trkpt lat="43.2703574" lon="11.2445925"><ele>196.5</ele><time>2026-04-04T10:01:28.543Z</time></trkpt><trkpt lat="43.2705095" lon="11.2448254"><ele>197.0</ele><time>2026-04-04T10:01:29.534Z</time></trkpt><trkpt lat="43.2706562" lon="11.2450544"><ele>197.0</ele><time>2026-04-04T10:01:30.523Z</time></trkpt><trkpt lat="43.2708034" lon="11.245271"><ele>197.0</ele><time>2026-04-04T10:01:31.531Z</time></trkpt><trkpt lat="43.2709445" lon="11.2454865"><ele>197.0</ele><time>2026-04-04T10:01:32.533Z</time></trkpt><trkpt lat="43.2710835" lon="11.2456925"><ele>197.0</ele><time>2026-04-04T10:01:33.535Z</time></trkpt><trkpt lat="43.2712112" lon="11.2458909"><ele>197.0</ele><time>2026-04-04T10:01:34.54Z</time></trkpt><trkpt lat="43.2713344" lon="11.2460894"><ele>197.0</ele><time>2026-04-04T10:01:35.542Z</time></trkpt><trkpt lat="43.2714575" lon="11.2462827"><ele>198.33333333333334</ele><time>2026-04-04T10:01:36.544Z</time></trkpt><trkpt lat="43.271579" lon="11.2464764"><ele>199.66666666666669</ele><time>2026-04-04T10:01:37.532Z</time></trkpt><trkpt lat="43.2716933" lon="11.2466783"><ele>201.0</ele><time>2026-04-04T10:01:38.532Z</time></trkpt><trkpt lat="43.271796" lon="11.246882"><ele>201.0</ele><time>2026-04-04T10:01:39.535Z</time></trkpt><trkpt lat="43.2718942" lon="11.2470883"><ele>201.0</ele><time>2026-04-04T10:01:40.544Z</time></trkpt><trkpt lat="43.271989" lon="11.2472835"><ele>201.0</ele><time>2026-04-04T10:01:41.553Z</time></trkpt><trkpt lat="43.2720867" lon="11.2474602"><ele>202.0</ele><time>2026-04-04T10:01:42.532Z</time></trkpt><trkpt lat="43.2721732" lon="11.2476296"><ele>203.0</ele><time>2026-04-04T10:01:43.533Z</time></trkpt><trkpt lat="43.27224" lon="11.2478012"><ele>204.0</ele><time>2026-04-04T10:01:44.517Z</time></trkpt><trkpt lat="43.2722701" lon="11.2479594"><ele>205.0</ele><time>2026-04-04T10:01:45.523Z</time></trkpt><trkpt lat="43.2722628" lon="11.2481217"><ele>205.5</ele><time>2026-04-04T10:01:46.531Z</time></trkpt><trkpt lat="43.2722192" lon="11.2482848"><ele>206.0</ele><time>2026-04-04T10:01:47.53Z</time></trkpt><trkpt lat="43.2721221" lon="11.2484242"><ele>206.5</ele><time>2026-04-04T10:01:48.537Z</time></trkpt><trkpt lat="43.2719934" lon="11.2485615"><ele>207.0</ele><time>2026-04-04T10:01:49.533Z</time></trkpt><trkpt lat="43.2718578" lon="11.2487196"><ele>207.0</ele><time>2026-04-04T10:01:50.545Z</time></trkpt><trkpt lat="43.2717085" lon="11.248889"><ele>207.0</ele><time>2026-04-04T10:01:51.528Z</time></trkpt><trkpt lat="43.2715562" lon="11.2490659"><ele>207.0</ele><time>2026-04-04T10:01:52.534Z</time></trkpt><trkpt lat="43.2714062" lon="11.2492504"><ele>208.66666666666669</ele><time>2026-04-04T10:01:53.539Z</time></trkpt><trkpt lat="43.2712619" lon="11.2494279"><ele>210.33333333333334</ele><time>2026-04-04T10:01:54.531Z</time></trkpt><trkpt lat="43.2711252" lon="11.2495893"><ele>212.0</ele><time>2026-04-04T10:01:55.531Z</time></trkpt><trkpt lat="43.2709966" lon="11.249728"><ele>212.66666666666669</ele><time>2026-04-04T10:01:56.516Z</time></trkpt><trkpt lat="43.2708785" lon="11.2498687"><ele>213.33333333333331</ele><time>2026-04-04T10:01:57.51Z</time></trkpt><trkpt lat="43.2707587" lon="11.2500132"><ele>214.0</ele><time>2026-04-04T10:01:58.531Z</time></trkpt><trkpt lat="43.2706275" lon="11.2501627"><ele>214.33333333333331</ele><time>2026-04-04T10:01:59.535Z</time></trkpt><trkpt lat="43.2704925" lon="11.2503143"><ele>214.66666666666669</ele><time>2026-04-04T10:02:00.541Z</time></trkpt><trkpt lat="43.2703567" lon="11.250469"><ele>215.0</ele><time>2026-04-04T10:02:01.55Z</time></trkpt><trkpt lat="43.2702352" lon="11.2506451"><ele>215.0</ele><time>2026-04-04T10:02:02.537Z</time></trkpt><trkpt lat="43.2701385" lon="11.2508451"><ele>215.0</ele><time>2026-04-04T10:02:03.544Z</time></trkpt><trkpt lat="43.2700826" lon="11.2510638"><ele>215.0</ele><time>2026-04-04T10:02:04.541Z</time></trkpt><trkpt lat="43.2700701" lon="11.2513155"><ele>216.66666666666669</ele><time>2026-04-04T10:02:05.538Z</time></trkpt><trkpt lat="43.2700833" lon="11.2515954"><ele>218.33333333333331</ele><time>2026-04-04T10:02:06.53Z</time></trkpt><trkpt lat="43.2701104" lon="11.2518496"><ele>220.0</ele><time>2026-04-04T10:02:07.516Z</time></trkpt><trkpt lat="43.2701397" lon="11.2521009"><ele>221.0</ele><time>2026-04-04T10:02:08.543Z</time></trkpt><trkpt lat="43.2701622" lon="11.2523414"><ele>222.0</ele><time>2026-04-04T10:02:09.537Z</time></trkpt><trkpt lat="43.2701809" lon="11.2525801"><ele>223.0</ele><time>2026-04-04T10:02:10.526Z</time></trkpt><trkpt lat="43.2701947" lon="11.2528349"><ele>223.0</ele><time>2026-04-04T10:02:11.542Z</time></trkpt><trkpt lat="43.2702204" lon="11.253096"><ele>223.0</ele><time>2026-04-04T10:02:12.547Z</time></trkpt><trkpt lat="43.2702522" lon="11.2533574"><ele>223.0</ele><time>2026-04-04T10:02:13.545Z</time></trkpt><trkpt lat="43.2702717" lon="11.253615"><ele>221.66666666666666</ele><time>2026-04-04T10:02:14.538Z</time></trkpt><trkpt lat="43.2702972" lon="11.2538664"><ele>220.33333333333331</ele><time>2026-04-04T10:02:15.533Z</time></trkpt><trkpt lat="43.2702986" lon="11.2541135"><ele>219.0</ele><time>2026-04-04T10:02:16.541Z</time></trkpt><trkpt lat="43.2702787" lon="11.2543435"><ele>218.0</ele><time>2026-04-04T10:02:17.535Z</time></trkpt><trkpt lat="43.2702015" lon="11.2545701"><ele>217.0</ele><time>2026-04-04T10:02:18.549Z</time></trkpt><trkpt lat="43.2700918" lon="11.2547662"><ele>216.0</ele><time>2026-04-04T10:02:19.535Z</time></trkpt><trkpt lat="43.2699508" lon="11.254944"><ele>216.33333333333331</ele><time>2026-04-04T10:02:20.536Z</time></trkpt><trkpt lat="43.2698016" lon="11.2551287"><ele>216.66666666666666</ele><time>2026-04-04T10:02:21.5Z</time></trkpt><trkpt lat="43.2696469" lon="11.2552978"><ele>217.0</ele><time>2026-04-04T10:02:22.536Z</time></trkpt><trkpt lat="43.2694832" lon="11.2554665"><ele>215.0</ele><time>2026-04-04T10:02:23.548Z</time></trkpt><trkpt lat="43.2693203" lon="11.2556373"><ele>213.0</ele><time>2026-04-04T10:02:24.547Z</time></trkpt><trkpt lat="43.2691542" lon="11.255818"><ele>211.0</ele><time>2026-04-04T10:02:25.538Z</time></trkpt><trkpt lat="43.2689837" lon="11.2559988"><ele>211.0</ele><time>2026-04-04T10:02:26.526Z</time></trkpt><trkpt lat="43.2688139" lon="11.256178"><ele>211.0</ele><time>2026-04-04T10:02:27.536Z</time></trkpt><trkpt lat="43.2686432" lon="11.2563613"><ele>211.0</ele><time>2026-04-04T10:02:28.529Z</time></trkpt><trkpt lat="43.2684694" lon="11.2565475"><ele>210.0</ele><time>2026-04-04T10:02:29.541Z</time></trkpt><trkpt lat="43.2682952" lon="11.2567329"><ele>209.0</ele><time>2026-04-04T10:02:30.539Z</time></trkpt><trkpt lat="43.2681289" lon="11.2569172"><ele>208.0</ele><time>2026-04-04T10:02:31.534Z</time></trkpt><trkpt lat="43.2679644" lon="11.2571024"><ele>207.66666666666666</ele><time>2026-04-04T10:02:32.534Z</time></trkpt><trkpt lat="43.2678052" lon="11.2572781"><ele>207.33333333333331</ele><time>2026-04-04T10:02:33.541Z</time></trkpt><trkpt lat="43.2676501" lon="11.2574518"><ele>207.0</ele><time>2026-04-04T10:02:34.551Z</time></trkpt><trkpt lat="43.2674978" lon="11.2576233"><ele>206.66666666666669</ele><time>2026-04-04T10:02:35.53Z</time></trkpt><trkpt lat="43.2673476" lon="11.2577968"><ele>206.33333333333334</ele><time>2026-04-04T10:02:36.535Z</time></trkpt><trkpt lat="43.2671996" lon="11.2579698"><ele>206.0</ele><time>2026-04-04T10:02:37.542Z</time></trkpt><trkpt lat="43.2670519" lon="11.2581486"><ele>206.0</ele><time>2026-04-04T10:02:38.523Z</time></trkpt><trkpt lat="43.2669099" lon="11.2583323"><ele>206.0</ele><time>2026-04-04T10:02:39.533Z</time></trkpt><trkpt lat="43.2667606" lon="11.2585075"><ele>206.0</ele><time>2026-04-04T10:02:40.522Z</time></trkpt><trkpt lat="43.2666115" lon="11.258684"><ele>206.0</ele><time>2026-04-04T10:02:41.528Z</time></trkpt><trkpt lat="43.2664704" lon="11.2588593"><ele>206.0</ele><time>2026-04-04T10:02:42.523Z</time></trkpt><trkpt lat="43.266327" lon="11.2590323"><ele>206.0</ele><time>2026-04-04T10:02:43.538Z</time></trkpt><trkpt lat="43.2661857" lon="11.259213"><ele>207.0</ele><time>2026-04-04T10:02:44.542Z</time></trkpt><trkpt lat="43.2660517" lon="11.2594042"><ele>208.0</ele><time>2026-04-04T10:02:45.533Z</time></trkpt><trkpt lat="43.2659328" lon="11.2596096"><ele>209.0</ele><time>2026-04-04T10:02:46.542Z</time></trkpt><trkpt lat="43.265835" lon="11.2598569"><ele>209.33333333333334</ele><time>2026-04-04T10:02:47.539Z</time></trkpt><trkpt lat="43.2657509" lon="11.260135"><ele>209.66666666666669</ele><time>2026-04-04T10:02:48.524Z</time></trkpt><trkpt lat="43.2656719" lon="11.260424"><ele>210.0</ele><time>2026-04-04T10:02:49.541Z</time></trkpt><trkpt lat="43.2655946" lon="11.2607288"><ele>208.0</ele><time>2026-04-04T10:02:50.521Z</time></trkpt><trkpt lat="43.2655151" lon="11.2610422"><ele>206.0</ele><time>2026-04-04T10:02:51.53Z</time></trkpt><trkpt lat="43.2654359" lon="11.261356"><ele>204.5</ele><time>2026-04-04T10:02:52.543Z</time></trkpt><trkpt lat="43.2653521" lon="11.261667"><ele>203.0</ele><time>2026-04-04T10:02:53.517Z</time></trkpt><trkpt lat="43.2652751" lon="11.2619763"><ele>201.5</ele><time>2026-04-04T10:02:54.53Z</time></trkpt><trkpt lat="43.2651954" lon="11.2622931"><ele>200.0</ele><time>2026-04-04T10:02:55.522Z</time></trkpt><trkpt lat="43.2651138" lon="11.2626174"><ele>200.0</ele><time>2026-04-04T10:02:56.541Z</time></trkpt><trkpt lat="43.2650411" lon="11.2629443"><ele>200.0</ele><time>2026-04-04T10:02:57.513Z</time></trkpt><trkpt lat="43.264969" lon="11.2632594"><ele>199.0</ele><time>2026-04-04T10:02:58.541Z</time></trkpt><trkpt lat="43.2648935" lon="11.2635633"><ele>198.0</ele><time>2026-04-04T10:02:59.54Z</time></trkpt><trkpt lat="43.2648154" lon="11.2638555"><ele>196.0</ele><time>2026-04-04T10:03:00.549Z</time></trkpt><trkpt lat="43.2647256" lon="11.2641418"><ele>194.0</ele><time>2026-04-04T10:03:01.537Z</time></trkpt><trkpt lat="43.2646226" lon="11.2644244"><ele>194.0</ele><time>2026-04-04T10:03:02.536Z</time></trkpt><trkpt lat="43.2645186" lon="11.2646786"><ele>194.0</ele><time>2026-04-04T10:03:03.542Z</time></trkpt><trkpt lat="43.2644057" lon="11.2649128"><ele>194.0</ele><time>2026-04-04T10:03:04.54Z</time></trkpt><trkpt lat="43.2642855" lon="11.2651368"><ele>194.33333333333334</ele><time>2026-04-04T10:03:05.528Z</time></trkpt><trkpt lat="43.2641663" lon="11.2653588"><ele>194.66666666666669</ele><time>2026-04-04T10:03:06.538Z</time></trkpt><trkpt lat="43.2640532" lon="11.2655761"><ele>195.0</ele><time>2026-04-04T10:03:07.539Z</time></trkpt><trkpt lat="43.2639395" lon="11.2658006"><ele>195.0</ele><time>2026-04-04T10:03:08.541Z</time></trkpt><trkpt lat="43.2638234" lon="11.2660392"><ele>195.0</ele><time>2026-04-04T10:03:09.536Z</time></trkpt><trkpt lat="43.2637026" lon="11.2662922"><ele>195.0</ele><time>2026-04-04T10:03:10.538Z</time></trkpt><trkpt lat="43.2635618" lon="11.2665481"><ele>196.0</ele><time>2026-04-04T10:03:11.563Z</time></trkpt><trkpt lat="43.2634006" lon="11.2668219"><ele>197.0</ele><time>2026-04-04T10:03:12.536Z</time></trkpt><trkpt lat="43.2632338" lon="11.2671223"><ele>196.0</ele><time>2026-04-04T10:03:13.539Z</time></trkpt><trkpt lat="43.2630634" lon="11.2674437"><ele>195.0</ele><time>2026-04-04T10:03:14.54Z</time></trkpt><trkpt lat="43.2628895" lon="11.267782"><ele>194.5</ele><time>2026-04-04T10:03:15.541Z</time></trkpt><trkpt lat="43.2627149" lon="11.2681219"><ele>194.0</ele><time>2026-04-04T10:03:16.539Z</time></trkpt><trkpt lat="43.2625539" lon="11.2684403"><ele>194.0</ele><time>2026-04-04T10:03:17.547Z</time></trkpt><trkpt lat="43.2623997" lon="11.2687342"><ele>194.0</ele><time>2026-04-04T10:03:18.538Z</time></trkpt><trkpt lat="43.262256" lon="11.2690155"><ele>193.5</ele><time>2026-04-04T10:03:19.536Z</time></trkpt><trkpt lat="43.2621221" lon="11.2692806"><ele>193.0</ele><time>2026-04-04T10:03:20.527Z</time></trkpt><trkpt lat="43.2619937" lon="11.2695322"><ele>192.66666666666666</ele><time>2026-04-04T10:03:21.533Z</time></trkpt><trkpt lat="43.2618814" lon="11.2697814"><ele>192.33333333333331</ele><time>2026-04-04T10:03:22.518Z</time></trkpt><trkpt lat="43.2617993" lon="11.2700532"><ele>192.0</ele><time>2026-04-04T10:03:23.543Z</time></trkpt><trkpt lat="43.2617478" lon="11.2703195"><ele>192.0</ele><time>2026-04-04T10:03:24.556Z</time></trkpt><trkpt lat="43.2617087" lon="11.2706049"><ele>192.0</ele><time>2026-04-04T10:03:25.545Z</time></trkpt><trkpt lat="43.2616739" lon="11.2708784"><ele>192.0</ele><time>2026-04-04T10:03:26.532Z</time></trkpt><trkpt lat="43.2616484" lon="11.2711408"><ele>191.66666666666666</ele><time>2026-04-04T10:03:27.538Z</time></trkpt><trkpt lat="43.2616328" lon="11.2713944"><ele>191.33333333333331</ele><time>2026-04-04T10:03:28.535Z</time></trkpt><trkpt lat="43.2616394" lon="11.2716525"><ele>191.0</ele><time>2026-04-04T10:03:29.535Z</time></trkpt><trkpt lat="43.2616722" lon="11.2719172"><ele>191.0</ele><time>2026-04-04T10:03:30.538Z</time></trkpt><trkpt lat="43.26172" lon="11.2721937"><ele>191.0</ele><time>2026-04-04T10:03:31.528Z</time></trkpt><trkpt lat="43.2617748" lon="11.2724798"><ele>191.0</ele><time>2026-04-04T10:03:32.529Z</time></trkpt><trkpt lat="43.2618212" lon="11.2727804"><ele>192.0</ele><time>2026-04-04T10:03:33.53Z</time></trkpt><trkpt lat="43.2618813" lon="11.2730862"><ele>193.0</ele><time>2026-04-04T10:03:34.548Z</time></trkpt><trkpt lat="43.2619509" lon="11.273389"><ele>193.5</ele><time>2026-04-04T10:03:35.536Z</time></trkpt><trkpt lat="43.2620261" lon="11.2736931"><ele>194.0</ele><time>2026-04-04T10:03:36.547Z</time></trkpt><trkpt lat="43.2621206" lon="11.2739974"><ele>194.5</ele><time>2026-04-04T10:03:37.528Z</time></trkpt><trkpt lat="43.2622229" lon="11.2743136"><ele>195.0</ele><time>2026-04-04T10:03:38.533Z</time></trkpt><trkpt lat="43.2623209" lon="11.2746296"><ele>195.0</ele><time>2026-04-04T10:03:39.538Z</time></trkpt><trkpt lat="43.2624218" lon="11.2749492"><ele>195.0</ele><time>2026-04-04T10:03:40.543Z</time></trkpt><trkpt lat="43.2625191" lon="11.275263"><ele>195.0</ele><time>2026-04-04T10:03:41.546Z</time></trkpt><trkpt lat="43.262601" lon="11.2755611"><ele>195.0</ele><time>2026-04-04T10:03:42.544Z</time></trkpt><trkpt lat="43.2626709" lon="11.2758478"><ele>196.0</ele><time>2026-04-04T10:03:43.539Z</time></trkpt><trkpt lat="43.2627103" lon="11.2761576"><ele>197.0</ele><time>2026-04-04T10:03:44.536Z</time></trkpt><trkpt lat="43.2627291" lon="11.276479"><ele>198.0</ele><time>2026-04-04T10:03:45.533Z</time></trkpt><trkpt lat="43.2627305" lon="11.2768075"><ele>199.0</ele><time>2026-04-04T10:03:46.543Z</time></trkpt><trkpt lat="43.2627264" lon="11.2771444"><ele>199.5</ele><time>2026-04-04T10:03:47.541Z</time></trkpt><trkpt lat="43.2627227" lon="11.2775078"><ele>200.0</ele><time>2026-04-04T10:03:48.546Z</time></trkpt><trkpt lat="43.2627275" lon="11.2778825"><ele>202.0</ele><time>2026-04-04T10:03:49.531Z</time></trkpt><trkpt lat="43.2627231" lon="11.2782591"><ele>204.0</ele><time>2026-04-04T10:03:50.541Z</time></trkpt><trkpt lat="43.2627186" lon="11.2786148"><ele>207.0</ele><time>2026-04-04T10:03:51.551Z</time></trkpt><trkpt lat="43.2626985" lon="11.2789476"><ele>210.0</ele><time>2026-04-04T10:03:52.534Z</time></trkpt><trkpt lat="43.2626676" lon="11.2792686"><ele>210.0</ele><time>2026-04-04T10:03:53.54Z</time></trkpt><trkpt lat="43.262615" lon="11.2795735"><ele>210.0</ele><time>2026-04-04T10:03:54.536Z</time></trkpt><trkpt lat="43.2625572" lon="11.2798583"><ele>210.0</ele><time>2026-04-04T10:03:55.527Z</time></trkpt><trkpt lat="43.262499" lon="11.280117"><ele>211.0</ele><time>2026-04-04T10:03:56.53Z</time></trkpt><trkpt lat="43.2624455" lon="11.2803592"><ele>212.0</ele><time>2026-04-04T10:03:57.52Z</time></trkpt><trkpt lat="43.2623922" lon="11.2805852"><ele>213.0</ele><time>2026-04-04T10:03:58.534Z</time></trkpt><trkpt lat="43.2623499" lon="11.2807925"><ele>213.5</ele><time>2026-04-04T10:03:59.532Z</time></trkpt><trkpt lat="43.2623093" lon="11.2809803"><ele>214.0</ele><time>2026-04-04T10:04:00.543Z</time></trkpt><trkpt lat="43.262282" lon="11.2811674"><ele>214.5</ele><time>2026-04-04T10:04:01.52Z</time></trkpt><trkpt lat="43.2622777" lon="11.2813727"><ele>215.0</ele><time>2026-04-04T10:04:02.504Z</time></trkpt><trkpt lat="43.2622943" lon="11.281574"><ele>216.0</ele><time>2026-04-04T10:04:03.527Z</time></trkpt><trkpt lat="43.2623194" lon="11.2817576"><ele>217.0</ele><time>2026-04-04T10:04:04.529Z</time></trkpt><trkpt lat="43.2623468" lon="11.2819279"><ele>218.0</ele><time>2026-04-04T10:04:05.527Z</time></trkpt><trkpt lat="43.262368" lon="11.2821106"><ele>219.0</ele><time>2026-04-04T10:04:06.53Z</time></trkpt><trkpt lat="43.2623727" lon="11.2823109"><ele>219.33333333333331</ele><time>2026-04-04T10:04:07.531Z</time></trkpt><trkpt lat="43.2623518" lon="11.2825292"><ele>219.66666666666666</ele><time>2026-04-04T10:04:08.538Z</time></trkpt><trkpt lat="43.2623271" lon="11.2827452"><ele>220.0</ele><time>2026-04-04T10:04:09.543Z</time></trkpt><trkpt lat="43.2622959" lon="11.28296"><ele>224.0</ele><time>2026-04-04T10:04:10.533Z</time></trkpt><trkpt lat="43.2622631" lon="11.2831674"><ele>228.0</ele><time>2026-04-04T10:04:11.536Z</time></trkpt><trkpt lat="43.2622337" lon="11.2833636"><ele>232.0</ele><time>2026-04-04T10:04:12.528Z</time></trkpt><trkpt lat="43.2622112" lon="11.2835598"><ele>236.0</ele><time>2026-04-04T10:04:13.523Z</time></trkpt><trkpt lat="43.2621876" lon="11.2837533"><ele>236.25</ele><time>2026-04-04T10:04:14.537Z</time></trkpt><trkpt lat="43.2621635" lon="11.2839447"><ele>236.5</ele><time>2026-04-04T10:04:15.543Z</time></trkpt><trkpt lat="43.262142" lon="11.2841262"><ele>236.75</ele><time>2026-04-04T10:04:16.536Z</time></trkpt><trkpt lat="43.2621269" lon="11.2843081"><ele>237.0</ele><time>2026-04-04T10:04:17.531Z</time></trkpt><trkpt lat="43.2621133" lon="11.2844798"><ele>237.0</ele><time>2026-04-04T10:04:18.561Z</time></trkpt><trkpt lat="43.262102" lon="11.2846463"><ele>237.0</ele><time>2026-04-04T10:04:19.536Z</time></trkpt><trkpt lat="43.2620938" lon="11.2848175"><ele>237.0</ele><time>2026-04-04T10:04:20.553Z</time></trkpt><trkpt lat="43.2621099" lon="11.2849914"><ele>237.0</ele><time>2026-04-04T10:04:21.545Z</time></trkpt><trkpt lat="43.2621395" lon="11.2851924"><ele>238.0</ele><time>2026-04-04T10:04:22.531Z</time></trkpt><trkpt lat="43.262172" lon="11.285391"><ele>239.0</ele><time>2026-04-04T10:04:23.541Z</time></trkpt><trkpt lat="43.2621845" lon="11.285603"><ele>240.0</ele><time>2026-04-04T10:04:24.54Z</time></trkpt><trkpt lat="43.2621844" lon="11.2858038"><ele>241.0</ele><time>2026-04-04T10:04:25.528Z</time></trkpt><trkpt lat="43.2621823" lon="11.2859823"><ele>241.60000000000002</ele><time>2026-04-04T10:04:26.536Z</time></trkpt><trkpt lat="43.2621778" lon="11.2861457"><ele>242.20000000000002</ele><time>2026-04-04T10:04:27.528Z</time></trkpt><trkpt lat="43.2621728" lon="11.2862921"><ele>242.79999999999998</ele><time>2026-04-04T10:04:28.537Z</time></trkpt><trkpt lat="43.2621676" lon="11.2864226"><ele>243.39999999999998</ele><time>2026-04-04T10:04:29.527Z</time></trkpt><trkpt lat="43.2621579" lon="11.2865311"><ele>244.0</ele><time>2026-04-04T10:04:30.53Z</time></trkpt><trkpt lat="43.2621529" lon="11.2866209"><ele>244.16666666666666</ele><time>2026-04-04T10:04:31.53Z</time></trkpt><trkpt lat="43.2621221" lon="11.286766"><ele>244.33333333333331</ele><time>2026-04-04T10:04:33.537Z</time></trkpt><trkpt lat="43.2620695" lon="11.2868475"><ele>244.5</ele><time>2026-04-04T10:04:35.541Z</time></trkpt><trkpt lat="43.2619958" lon="11.2868722"><ele>244.66666666666669</ele><time>2026-04-04T10:04:37.541Z</time></trkpt><trkpt lat="43.261925" lon="11.2868499"><ele>244.83333333333334</ele><time>2026-04-04T10:04:38.545Z</time></trkpt><trkpt lat="43.2618571" lon="11.2868289"><ele>245.0</ele><time>2026-04-04T10:04:39.534Z</time></trkpt><trkpt lat="43.2617544" lon="11.2868109"><ele>245.0</ele><time>2026-04-04T10:04:40.537Z</time></trkpt><trkpt lat="43.2616332" lon="11.2868056"><ele>245.0</ele><time>2026-04-04T10:04:41.519Z</time></trkpt><trkpt lat="43.2615027" lon="11.2867934"><ele>245.0</ele><time>2026-04-04T10:04:42.535Z</time></trkpt><trkpt lat="43.2613588" lon="11.286779"><ele>245.0</ele><time>2026-04-04T10:04:43.531Z</time></trkpt><trkpt lat="43.2612189" lon="11.2867693"><ele>244.5</ele><time>2026-04-04T10:04:44.503Z</time></trkpt><trkpt lat="43.2610783" lon="11.2867783"><ele>244.0</ele><time>2026-04-04T10:04:45.505Z</time></trkpt><trkpt lat="43.2609524" lon="11.2867959"><ele>243.5</ele><time>2026-04-04T10:04:46.521Z</time></trkpt><trkpt lat="43.2608379" lon="11.2868219"><ele>243.0</ele><time>2026-04-04T10:04:47.535Z</time></trkpt><trkpt lat="43.2607392" lon="11.286851"><ele>243.0</ele><time>2026-04-04T10:04:48.512Z</time></trkpt><trkpt lat="43.2606606" lon="11.2868609"><ele>243.0</ele><time>2026-04-04T10:04:49.526Z</time></trkpt><trkpt lat="43.2605927" lon="11.286864"><ele>243.0</ele><time>2026-04-04T10:04:50.542Z</time></trkpt><trkpt lat="43.260496" lon="11.2868453"><ele>243.0</ele><time>2026-04-04T10:04:52.535Z</time></trkpt><trkpt lat="43.2604116" lon="11.2867949"><ele>243.0</ele><time>2026-04-04T10:04:54.535Z</time></trkpt><trkpt lat="43.260351" lon="11.2866714"><ele>243.0</ele><time>2026-04-04T10:04:56.516Z</time></trkpt><trkpt lat="43.2602979" lon="11.2865856"><ele>243.0</ele><time>2026-04-04T10:04:58.532Z</time></trkpt><trkpt lat="43.2602335" lon="11.2865749"><ele>243.0</ele><time>2026-04-04T10:04:59.529Z</time></trkpt><trkpt lat="43.2600855" lon="11.2865913"><ele>243.0</ele><time>2026-04-04T10:05:01.508Z</time></trkpt><trkpt lat="43.2600008" lon="11.2865559"><ele>243.0</ele><time>2026-04-04T10:05:02.521Z</time></trkpt><trkpt lat="43.2599275" lon="11.2864956"><ele>243.0</ele><time>2026-04-04T10:05:03.526Z</time></trkpt><trkpt lat="43.2598717" lon="11.2864392"><ele>242.16666666666666</ele><time>2026-04-04T10:05:04.543Z</time></trkpt><trkpt lat="43.2598155" lon="11.286395"><ele>241.33333333333331</ele><time>2026-04-04T10:05:05.532Z</time></trkpt><trkpt lat="43.2597584" lon="11.2863495"><ele>240.5</ele><time>2026-04-04T10:05:06.544Z</time></trkpt><trkpt lat="43.2597033" lon="11.2862992"><ele>239.66666666666666</ele><time>2026-04-04T10:05:07.529Z</time></trkpt><trkpt lat="43.2596442" lon="11.2862521"><ele>238.83333333333331</ele><time>2026-04-04T10:05:08.542Z</time></trkpt><trkpt lat="43.2595401" lon="11.2861695"><ele>238.0</ele><time>2026-04-04T10:05:10.535Z</time></trkpt><trkpt lat="43.2594351" lon="11.2860674"><ele>239.83333333333331</ele><time>2026-04-04T10:05:12.538Z</time></trkpt><trkpt lat="43.2593713" lon="11.2860102"><ele>241.66666666666666</ele><time>2026-04-04T10:05:13.533Z</time></trkpt><trkpt lat="43.2593087" lon="11.2859487"><ele>243.5</ele><time>2026-04-04T10:05:14.523Z</time></trkpt><trkpt lat="43.2592497" lon="11.2858921"><ele>245.33333333333331</ele><time>2026-04-04T10:05:15.534Z</time></trkpt><trkpt lat="43.2591957" lon="11.2858357"><ele>247.16666666666666</ele><time>2026-04-04T10:05:16.535Z</time></trkpt><trkpt lat="43.2591397" lon="11.2857828"><ele>249.0</ele><time>2026-04-04T10:05:17.532Z</time></trkpt><trkpt lat="43.2590459" lon="11.2857054"><ele>249.2</ele><time>2026-04-04T10:05:19.545Z</time></trkpt><trkpt lat="43.2589316" lon="11.2856103"><ele>249.39999999999998</ele><time>2026-04-04T10:05:21.527Z</time></trkpt><trkpt lat="43.2588558" lon="11.2855425"><ele>249.6</ele><time>2026-04-04T10:05:22.54Z</time></trkpt><trkpt lat="43.2587848" lon="11.285476"><ele>249.8</ele><time>2026-04-04T10:05:23.538Z</time></trkpt><trkpt lat="43.2587155" lon="11.285427"><ele>250.0</ele><time>2026-04-04T10:05:24.542Z</time></trkpt><trkpt lat="43.2586424" lon="11.2853954"><ele>249.16666666666666</ele><time>2026-04-04T10:05:25.526Z</time></trkpt><trkpt lat="43.2585675" lon="11.2853803"><ele>248.33333333333331</ele><time>2026-04-04T10:05:26.537Z</time></trkpt><trkpt lat="43.2584908" lon="11.2853746"><ele>247.5</ele><time>2026-04-04T10:05:27.549Z</time></trkpt><trkpt lat="43.2584165" lon="11.2853717"><ele>246.66666666666669</ele><time>2026-04-04T10:05:28.537Z</time></trkpt><trkpt lat="43.2583418" lon="11.2853706"><ele>245.83333333333334</ele><time>2026-04-04T10:05:29.536Z</time></trkpt><trkpt lat="43.2582622" lon="11.2853768"><ele>245.0</ele><time>2026-04-04T10:05:30.531Z</time></trkpt><trkpt lat="43.2581853" lon="11.2853841"><ele>245.00000000000003</ele><time>2026-04-04T10:05:31.537Z</time></trkpt><trkpt lat="43.2581193" lon="11.2853873"><ele>245.0</ele><time>2026-04-04T10:05:32.527Z</time></trkpt><trkpt lat="43.2580026" lon="11.2854018"><ele>245.0</ele><time>2026-04-04T10:05:34.543Z</time></trkpt><trkpt lat="43.2579134" lon="11.28543"><ele>245.0</ele><time>2026-04-04T10:05:36.55Z</time></trkpt><trkpt lat="43.257861" lon="11.285483"><ele>245.00000000000003</ele><time>2026-04-04T10:05:39.541Z</time></trkpt><trkpt lat="43.2578085" lon="11.2854344"><ele>245.0</ele><time>2026-04-04T10:10:58.522Z</time></trkpt><trkpt lat="43.2577672" lon="11.2853441"><ele>245.2</ele><time>2026-04-04T10:11:07.506Z</time></trkpt><trkpt lat="43.2576962" lon="11.2853398"><ele>245.4</ele><time>2026-04-04T10:11:09.535Z</time></trkpt><trkpt lat="43.2576315" lon="11.2852811"><ele>245.60000000000002</ele><time>2026-04-04T10:11:12.551Z</time></trkpt><trkpt lat="43.2576345" lon="11.2851524"><ele>245.8</ele><time>2026-04-04T10:11:14.545Z</time></trkpt><trkpt lat="43.2576501" lon="11.2850153"><ele>246.0</ele><time>2026-04-04T10:11:16.548Z</time></trkpt><trkpt lat="43.2576702" lon="11.2848535"><ele>244.5714285714286</ele><time>2026-04-04T10:11:18.54Z</time></trkpt><trkpt lat="43.2576788" lon="11.2847609"><ele>243.14285714285717</ele><time>2026-04-04T10:11:19.529Z</time></trkpt><trkpt lat="43.2576909" lon="11.2846687"><ele>241.71428571428572</ele><time>2026-04-04T10:11:20.539Z</time></trkpt><trkpt lat="43.2577024" lon="11.2845718"><ele>240.2857142857143</ele><time>2026-04-04T10:11:21.537Z</time></trkpt><trkpt lat="43.2577141" lon="11.2844739"><ele>238.8571428571429</ele><time>2026-04-04T10:11:22.545Z</time></trkpt><trkpt lat="43.2577262" lon="11.284377"><ele>237.42857142857142</ele><time>2026-04-04T10:11:23.534Z</time></trkpt><trkpt lat="43.2577366" lon="11.2842826"><ele>236.0</ele><time>2026-04-04T10:11:24.503Z</time></trkpt><trkpt lat="43.2577455" lon="11.2841848"><ele>236.00000000000003</ele><time>2026-04-04T10:11:25.506Z</time></trkpt><trkpt lat="43.2577643" lon="11.2840868"><ele>236.0</ele><time>2026-04-04T10:11:26.53Z</time></trkpt><trkpt lat="43.2577923" lon="11.2839884"><ele>236.0</ele><time>2026-04-04T10:11:27.539Z</time></trkpt><trkpt lat="43.2578353" lon="11.2839049"><ele>236.0</ele><time>2026-04-04T10:11:28.541Z</time></trkpt><trkpt lat="43.2579003" lon="11.2838327"><ele>236.00000000000003</ele><time>2026-04-04T10:11:29.54Z</time></trkpt><trkpt lat="43.2579503" lon="11.283759"><ele>236.0</ele><time>2026-04-04T10:11:30.529Z</time></trkpt><trkpt lat="43.2579872" lon="11.2836559"><ele>234.83333333333334</ele><time>2026-04-04T10:11:31.553Z</time></trkpt><trkpt lat="43.2580099" lon="11.283557"><ele>233.66666666666669</ele><time>2026-04-04T10:11:32.54Z</time></trkpt><trkpt lat="43.2580314" lon="11.2834664"><ele>232.5</ele><time>2026-04-04T10:11:33.546Z</time></trkpt><trkpt lat="43.2580475" lon="11.283331"><ele>231.33333333333331</ele><time>2026-04-04T10:11:35.549Z</time></trkpt><trkpt lat="43.2580394" lon="11.2831673"><ele>230.16666666666666</ele><time>2026-04-04T10:11:37.544Z</time></trkpt><trkpt lat="43.2580475" lon="11.2830651"><ele>229.0</ele><time>2026-04-04T10:11:38.539Z</time></trkpt><trkpt lat="43.2580594" lon="11.282961"><ele>228.16666666666666</ele><time>2026-04-04T10:11:39.542Z</time></trkpt><trkpt lat="43.2580683" lon="11.2828652"><ele>227.33333333333331</ele><time>2026-04-04T10:11:40.549Z</time></trkpt><trkpt lat="43.2580753" lon="11.2827761"><ele>226.5</ele><time>2026-04-04T10:11:41.526Z</time></trkpt><trkpt lat="43.2581085" lon="11.2826326"><ele>225.66666666666669</ele><time>2026-04-04T10:11:43.534Z</time></trkpt><trkpt lat="43.2581699" lon="11.282538"><ele>224.83333333333334</ele><time>2026-04-04T10:11:45.54Z</time></trkpt><trkpt lat="43.2582447" lon="11.2825064"><ele>224.0</ele><time>2026-04-04T10:11:46.537Z</time></trkpt><trkpt lat="43.258323" lon="11.2825186"><ele>224.0</ele><time>2026-04-04T10:11:47.545Z</time></trkpt><trkpt lat="43.2584202" lon="11.2825642"><ele>223.99999999999997</ele><time>2026-04-04T10:11:48.537Z</time></trkpt><trkpt lat="43.2585079" lon="11.2826143"><ele>223.99999999999997</ele><time>2026-04-04T10:11:49.536Z</time></trkpt><trkpt lat="43.2585874" lon="11.2826877"><ele>224.0</ele><time>2026-04-04T10:11:50.541Z</time></trkpt><trkpt lat="43.2586639" lon="11.2827896"><ele>224.0</ele><time>2026-04-04T10:11:51.54Z</time></trkpt><trkpt lat="43.2587368" lon="11.2828951"><ele>224.0</ele><time>2026-04-04T10:11:52.544Z</time></trkpt><trkpt lat="43.2588064" lon="11.283003"><ele>223.99999999999997</ele><time>2026-04-04T10:11:53.51Z</time></trkpt><trkpt lat="43.2588737" lon="11.283114"><ele>223.99999999999997</ele><time>2026-04-04T10:11:54.542Z</time></trkpt><trkpt lat="43.2589438" lon="11.2832278"><ele>224.0</ele><time>2026-04-04T10:11:55.531Z</time></trkpt><trkpt lat="43.2590155" lon="11.2833614"><ele>224.0</ele><time>2026-04-04T10:11:56.543Z</time></trkpt><trkpt lat="43.2590691" lon="11.2834951"><ele>224.39999999999998</ele><time>2026-04-04T10:11:57.527Z</time></trkpt><trkpt lat="43.2591061" lon="11.2836226"><ele>224.79999999999998</ele><time>2026-04-04T10:11:58.532Z</time></trkpt><trkpt lat="43.2591301" lon="11.2837621"><ele>225.20000000000002</ele><time>2026-04-04T10:11:59.541Z</time></trkpt><trkpt lat="43.2591557" lon="11.2839206"><ele>225.60000000000002</ele><time>2026-04-04T10:12:00.534Z</time></trkpt><trkpt lat="43.2591777" lon="11.2840815"><ele>226.0</ele><time>2026-04-04T10:12:01.539Z</time></trkpt><trkpt lat="43.2591901" lon="11.2842445"><ele>227.25</ele><time>2026-04-04T10:12:02.556Z</time></trkpt><trkpt lat="43.2591973" lon="11.2844078"><ele>228.5</ele><time>2026-04-04T10:12:03.543Z</time></trkpt><trkpt lat="43.2592178" lon="11.2845633"><ele>229.75</ele><time>2026-04-04T10:12:04.554Z</time></trkpt><trkpt lat="43.2592632" lon="11.2846981"><ele>231.0</ele><time>2026-04-04T10:12:05.531Z</time></trkpt><trkpt lat="43.2593349" lon="11.284828"><ele>232.75</ele><time>2026-04-04T10:12:06.529Z</time></trkpt><trkpt lat="43.2594347" lon="11.2849479"><ele>234.5</ele><time>2026-04-04T10:12:07.536Z</time></trkpt><trkpt lat="43.2595452" lon="11.2850455"><ele>236.25</ele><time>2026-04-04T10:12:08.548Z</time></trkpt><trkpt lat="43.2596606" lon="11.2851491"><ele>238.0</ele><time>2026-04-04T10:12:09.541Z</time></trkpt><trkpt lat="43.2597809" lon="11.2852551"><ele>238.0</ele><time>2026-04-04T10:12:10.543Z</time></trkpt><trkpt lat="43.259892" lon="11.2853615"><ele>238.0</ele><time>2026-04-04T10:12:11.534Z</time></trkpt><trkpt lat="43.2600025" lon="11.2854616"><ele>238.0</ele><time>2026-04-04T10:12:12.526Z</time></trkpt><trkpt lat="43.260099" lon="11.2855521"><ele>238.0</ele><time>2026-04-04T10:12:13.543Z</time></trkpt><trkpt lat="43.260192" lon="11.2856525"><ele>238.0</ele><time>2026-04-04T10:12:14.544Z</time></trkpt><trkpt lat="43.2602756" lon="11.2857691"><ele>238.0</ele><time>2026-04-04T10:12:15.551Z</time></trkpt><trkpt lat="43.2603352" lon="11.2858996"><ele>238.0</ele><time>2026-04-04T10:12:16.542Z</time></trkpt><trkpt lat="43.2603652" lon="11.2860265"><ele>238.0</ele><time>2026-04-04T10:12:17.539Z</time></trkpt><trkpt lat="43.2603716" lon="11.2861554"><ele>238.0</ele><time>2026-04-04T10:12:18.55Z</time></trkpt><trkpt lat="43.2603623" lon="11.286266"><ele>237.99999999999997</ele><time>2026-04-04T10:12:19.539Z</time></trkpt><trkpt lat="43.2603505" lon="11.2863542"><ele>238.0</ele><time>2026-04-04T10:12:20.527Z</time></trkpt><trkpt lat="43.2603241" lon="11.2864377"><ele>238.0</ele><time>2026-04-04T10:12:24.505Z</time></trkpt><trkpt lat="43.2602863" lon="11.286516"><ele>238.0</ele><time>2026-04-04T10:12:28.515Z</time></trkpt><trkpt lat="43.2602266" lon="11.2865759"><ele>237.99999999999997</ele><time>2026-04-04T10:12:31.554Z</time></trkpt><trkpt lat="43.2601731" lon="11.2866738"><ele>238.0</ele><time>2026-04-04T10:12:33.522Z</time></trkpt><trkpt lat="43.2602036" lon="11.2868181"><ele>239.0</ele><time>2026-04-04T10:12:35.532Z</time></trkpt><trkpt lat="43.260268" lon="11.2868625"><ele>240.0</ele><time>2026-04-04T10:12:36.546Z</time></trkpt><trkpt lat="43.2603586" lon="11.2868903"><ele>241.0</ele><time>2026-04-04T10:12:37.538Z</time></trkpt><trkpt lat="43.2604694" lon="11.286884"><ele>242.0</ele><time>2026-04-04T10:12:38.526Z</time></trkpt><trkpt lat="43.2606025" lon="11.2868744"><ele>243.0</ele><time>2026-04-04T10:12:39.536Z</time></trkpt><trkpt lat="43.2607385" lon="11.286866"><ele>243.0</ele><time>2026-04-04T10:12:40.542Z</time></trkpt><trkpt lat="43.2608761" lon="11.2868532"><ele>243.0</ele><time>2026-04-04T10:12:41.535Z</time></trkpt><trkpt lat="43.2610178" lon="11.2868365"><ele>243.0</ele><time>2026-04-04T10:12:42.52Z</time></trkpt><trkpt lat="43.2611568" lon="11.2868325"><ele>243.0</ele><time>2026-04-04T10:12:43.54Z</time></trkpt><trkpt lat="43.2612975" lon="11.2868347"><ele>243.0</ele><time>2026-04-04T10:12:44.505Z</time></trkpt><trkpt lat="43.2614334" lon="11.2868509"><ele>243.0</ele><time>2026-04-04T10:12:45.526Z</time></trkpt><trkpt lat="43.2615644" lon="11.286866"><ele>243.0</ele><time>2026-04-04T10:12:46.539Z</time></trkpt><trkpt lat="43.2616885" lon="11.2868717"><ele>243.0</ele><time>2026-04-04T10:12:47.541Z</time></trkpt><trkpt lat="43.2618088" lon="11.2868852"><ele>243.5</ele><time>2026-04-04T10:12:48.533Z</time></trkpt><trkpt lat="43.2619217" lon="11.2869071"><ele>244.0</ele><time>2026-04-04T10:12:49.525Z</time></trkpt><trkpt lat="43.2620237" lon="11.2869398"><ele>244.5</ele><time>2026-04-04T10:12:50.553Z</time></trkpt><trkpt lat="43.2621327" lon="11.2869721"><ele>245.0</ele><time>2026-04-04T10:12:51.543Z</time></trkpt><trkpt lat="43.2622564" lon="11.2870216"><ele>244.5</ele><time>2026-04-04T10:12:52.541Z</time></trkpt><trkpt lat="43.262383" lon="11.287083"><ele>244.0</ele><time>2026-04-04T10:12:53.548Z</time></trkpt><trkpt lat="43.2625083" lon="11.2871613"><ele>243.5</ele><time>2026-04-04T10:12:54.526Z</time></trkpt><trkpt lat="43.2626361" lon="11.2872423"><ele>243.0</ele><time>2026-04-04T10:12:55.538Z</time></trkpt><trkpt lat="43.2627669" lon="11.2873312"><ele>243.0</ele><time>2026-04-04T10:12:56.541Z</time></trkpt><trkpt lat="43.2629021" lon="11.2874252"><ele>243.0</ele><time>2026-04-04T10:12:57.551Z</time></trkpt><trkpt lat="43.2630393" lon="11.2875302"><ele>243.0</ele><time>2026-04-04T10:12:58.537Z</time></trkpt><trkpt lat="43.2631734" lon="11.2876369"><ele>244.0</ele><time>2026-04-04T10:12:59.534Z</time></trkpt><trkpt lat="43.2633108" lon="11.2877476"><ele>245.0</ele><time>2026-04-04T10:13:00.537Z</time></trkpt><trkpt lat="43.2634501" lon="11.2878485"><ele>246.0</ele><time>2026-04-04T10:13:01.538Z</time></trkpt><trkpt lat="43.2636038" lon="11.2879265"><ele>246.0</ele><time>2026-04-04T10:13:02.529Z</time></trkpt><trkpt lat="43.263761" lon="11.2879984"><ele>246.0</ele><time>2026-04-04T10:13:03.539Z</time></trkpt><trkpt lat="43.2639199" lon="11.2880592"><ele>246.0</ele><time>2026-04-04T10:13:04.497Z</time></trkpt><trkpt lat="43.2640838" lon="11.2881248"><ele>246.0</ele><time>2026-04-04T10:13:05.521Z</time></trkpt><trkpt lat="43.2642488" lon="11.2881846"><ele>246.0</ele><time>2026-04-04T10:13:06.534Z</time></trkpt><trkpt lat="43.2644166" lon="11.288259"><ele>246.0</ele><time>2026-04-04T10:13:07.546Z</time></trkpt><trkpt lat="43.2645872" lon="11.2883335"><ele>246.0</ele><time>2026-04-04T10:13:08.546Z</time></trkpt><trkpt lat="43.2647526" lon="11.28841"><ele>246.0</ele><time>2026-04-04T10:13:09.538Z</time></trkpt><trkpt lat="43.2649035" lon="11.2884875"><ele>246.0</ele><time>2026-04-04T10:13:10.531Z</time></trkpt><trkpt lat="43.2650382" lon="11.2885625"><ele>246.25</ele><time>2026-04-04T10:13:11.511Z</time></trkpt><trkpt lat="43.2651681" lon="11.288636"><ele>246.5</ele><time>2026-04-04T10:13:12.541Z</time></trkpt><trkpt lat="43.2652927" lon="11.2887086"><ele>246.75</ele><time>2026-04-04T10:13:13.547Z</time></trkpt><trkpt lat="43.2654113" lon="11.2887726"><ele>247.0</ele><time>2026-04-04T10:13:14.543Z</time></trkpt><trkpt lat="43.2655366" lon="11.2888234"><ele>246.75</ele><time>2026-04-04T10:13:15.541Z</time></trkpt><trkpt lat="43.2656752" lon="11.2888706"><ele>246.5</ele><time>2026-04-04T10:13:16.542Z</time></trkpt><trkpt lat="43.2658178" lon="11.2889137"><ele>246.25</ele><time>2026-04-04T10:13:17.509Z</time></trkpt><trkpt lat="43.2659674" lon="11.288956"><ele>246.0</ele><time>2026-04-04T10:13:18.549Z</time></trkpt><trkpt lat="43.2661199" lon="11.2890114"><ele>246.33333333333331</ele><time>2026-04-04T10:13:19.524Z</time></trkpt><trkpt lat="43.266267" lon="11.2890803"><ele>246.66666666666666</ele><time>2026-04-04T10:13:20.54Z</time></trkpt><trkpt lat="43.2664105" lon="11.2891578"><ele>247.0</ele><time>2026-04-04T10:13:21.552Z</time></trkpt><trkpt lat="43.2665534" lon="11.2892424"><ele>247.0</ele><time>2026-04-04T10:13:22.537Z</time></trkpt><trkpt lat="43.2667023" lon="11.2893333"><ele>247.0</ele><time>2026-04-04T10:13:23.534Z</time></trkpt><trkpt lat="43.2668438" lon="11.2894198"><ele>247.0</ele><time>2026-04-04T10:13:24.539Z</time></trkpt><trkpt lat="43.2669893" lon="11.2895129"><ele>247.0</ele><time>2026-04-04T10:13:25.541Z</time></trkpt><trkpt lat="43.2671338" lon="11.2896053"><ele>247.0</ele><time>2026-04-04T10:13:26.546Z</time></trkpt><trkpt lat="43.2672822" lon="11.2896913"><ele>247.0</ele><time>2026-04-04T10:13:27.551Z</time></trkpt><trkpt lat="43.2674323" lon="11.2897734"><ele>249.0</ele><time>2026-04-04T10:13:28.533Z</time></trkpt><trkpt lat="43.2675746" lon="11.2898472"><ele>251.0</ele><time>2026-04-04T10:13:29.532Z</time></trkpt><trkpt lat="43.2677151" lon="11.2899272"><ele>253.0</ele><time>2026-04-04T10:13:30.531Z</time></trkpt><trkpt lat="43.267842" lon="11.2900129"><ele>255.0</ele><time>2026-04-04T10:13:31.528Z</time></trkpt><trkpt lat="43.2679571" lon="11.2901248"><ele>255.0</ele><time>2026-04-04T10:13:32.539Z</time></trkpt><trkpt lat="43.2680662" lon="11.290258"><ele>255.0</ele><time>2026-04-04T10:13:33.513Z</time></trkpt><trkpt lat="43.2681812" lon="11.2904003"><ele>255.0</ele><time>2026-04-04T10:13:34.546Z</time></trkpt><trkpt lat="43.2682978" lon="11.2905176"><ele>255.0</ele><time>2026-04-04T10:13:35.535Z</time></trkpt><trkpt lat="43.2684195" lon="11.29063"><ele>253.0</ele><time>2026-04-04T10:13:36.541Z</time></trkpt><trkpt lat="43.2685485" lon="11.2907388"><ele>251.0</ele><time>2026-04-04T10:13:37.53Z</time></trkpt><trkpt lat="43.2686849" lon="11.2908329"><ele>249.0</ele><time>2026-04-04T10:13:38.542Z</time></trkpt><trkpt lat="43.2688298" lon="11.2909131"><ele>250.66666666666669</ele><time>2026-04-04T10:13:39.529Z</time></trkpt><trkpt lat="43.2689875" lon="11.2909838"><ele>252.33333333333334</ele><time>2026-04-04T10:13:40.52Z</time></trkpt><trkpt lat="43.2691493" lon="11.2910493"><ele>254.0</ele><time>2026-04-04T10:13:41.536Z</time></trkpt><trkpt lat="43.2693165" lon="11.2911132"><ele>254.0</ele><time>2026-04-04T10:13:42.539Z</time></trkpt><trkpt lat="43.269487" lon="11.2911852"><ele>254.0</ele><time>2026-04-04T10:13:43.535Z</time></trkpt><trkpt lat="43.2696607" lon="11.2912732"><ele>254.0</ele><time>2026-04-04T10:13:44.536Z</time></trkpt><trkpt lat="43.2698274" lon="11.291361"><ele>253.0</ele><time>2026-04-04T10:13:45.542Z</time></trkpt><trkpt lat="43.269994" lon="11.2914567"><ele>252.0</ele><time>2026-04-04T10:13:46.545Z</time></trkpt><trkpt lat="43.2701538" lon="11.2915524"><ele>251.0</ele><time>2026-04-04T10:13:47.527Z</time></trkpt><trkpt lat="43.2702895" lon="11.2916343"><ele>251.0</ele><time>2026-04-04T10:13:48.542Z</time></trkpt><trkpt lat="43.2704292" lon="11.2917161"><ele>251.0</ele><time>2026-04-04T10:13:49.543Z</time></trkpt><trkpt lat="43.2705672" lon="11.2918188"><ele>251.0</ele><time>2026-04-04T10:13:50.532Z</time></trkpt><trkpt lat="43.2706714" lon="11.2919711"><ele>251.0</ele><time>2026-04-04T10:13:51.536Z</time></trkpt><trkpt lat="43.2707736" lon="11.292135"><ele>251.0</ele><time>2026-04-04T10:13:52.551Z</time></trkpt><trkpt lat="43.2708629" lon="11.2923173"><ele>251.0</ele><time>2026-04-04T10:13:53.549Z</time></trkpt><trkpt lat="43.2709383" lon="11.2925221"><ele>250.66666666666669</ele><time>2026-04-04T10:13:54.537Z</time></trkpt><trkpt lat="43.2710109" lon="11.292735"><ele>250.33333333333331</ele><time>2026-04-04T10:13:55.529Z</time></trkpt><trkpt lat="43.2710675" lon="11.2929499"><ele>250.0</ele><time>2026-04-04T10:13:56.547Z</time></trkpt><trkpt lat="43.2711139" lon="11.2931505"><ele>250.0</ele><time>2026-04-04T10:13:57.608Z</time></trkpt><trkpt lat="43.2711582" lon="11.2933324"><ele>250.0</ele><time>2026-04-04T10:13:58.522Z</time></trkpt><trkpt lat="43.2712254" lon="11.2934853"><ele>250.0</ele><time>2026-04-04T10:13:59.54Z</time></trkpt><trkpt lat="43.2713241" lon="11.2936105"><ele>250.0</ele><time>2026-04-04T10:14:00.534Z</time></trkpt><trkpt lat="43.2714571" lon="11.293698"><ele>252.66666666666666</ele><time>2026-04-04T10:14:01.501Z</time></trkpt><trkpt lat="43.2716142" lon="11.2937647"><ele>255.33333333333331</ele><time>2026-04-04T10:14:02.531Z</time></trkpt><trkpt lat="43.2717856" lon="11.2938312"><ele>258.0</ele><time>2026-04-04T10:14:03.547Z</time></trkpt><trkpt lat="43.2719755" lon="11.2939127"><ele>256.6666666666667</ele><time>2026-04-04T10:14:04.524Z</time></trkpt><trkpt lat="43.2721701" lon="11.2940176"><ele>255.33333333333334</ele><time>2026-04-04T10:14:05.525Z</time></trkpt><trkpt lat="43.2723665" lon="11.2941466"><ele>254.0</ele><time>2026-04-04T10:14:06.524Z</time></trkpt><trkpt lat="43.2725524" lon="11.2942673"><ele>254.0</ele><time>2026-04-04T10:14:07.534Z</time></trkpt><trkpt lat="43.272739" lon="11.2943849"><ele>254.0</ele><time>2026-04-04T10:14:08.536Z</time></trkpt><trkpt lat="43.2729163" lon="11.2944962"><ele>254.0</ele><time>2026-04-04T10:14:09.528Z</time></trkpt><trkpt lat="43.273095" lon="11.2946123"><ele>252.33333333333334</ele><time>2026-04-04T10:14:10.534Z</time></trkpt><trkpt lat="43.2732886" lon="11.2947114"><ele>250.66666666666669</ele><time>2026-04-04T10:14:11.544Z</time></trkpt><trkpt lat="43.2734776" lon="11.2947793"><ele>249.0</ele><time>2026-04-04T10:14:12.537Z</time></trkpt><trkpt lat="43.2736709" lon="11.2948213"><ele>252.33333333333331</ele><time>2026-04-04T10:14:13.54Z</time></trkpt><trkpt lat="43.2738704" lon="11.2948318"><ele>255.66666666666666</ele><time>2026-04-04T10:14:14.544Z</time></trkpt><trkpt lat="43.2740715" lon="11.2948397"><ele>259.0</ele><time>2026-04-04T10:14:15.556Z</time></trkpt><trkpt lat="43.2742635" lon="11.2948415"><ele>259.0</ele><time>2026-04-04T10:14:16.541Z</time></trkpt><trkpt lat="43.2744529" lon="11.2948299"><ele>259.0</ele><time>2026-04-04T10:14:17.556Z</time></trkpt><trkpt lat="43.2746353" lon="11.2948178"><ele>259.0</ele><time>2026-04-04T10:14:18.537Z</time></trkpt><trkpt lat="43.274819" lon="11.2947982"><ele>257.66666666666663</ele><time>2026-04-04T10:14:19.508Z</time></trkpt><trkpt lat="43.2749906" lon="11.2947809"><ele>256.3333333333333</ele><time>2026-04-04T10:14:20.533Z</time></trkpt><trkpt lat="43.2751588" lon="11.294752"><ele>255.0</ele><time>2026-04-04T10:14:21.527Z</time></trkpt><trkpt lat="43.2753294" lon="11.2947303"><ele>254.0</ele><time>2026-04-04T10:14:22.532Z</time></trkpt><trkpt lat="43.2755048" lon="11.2947087"><ele>253.0</ele><time>2026-04-04T10:14:23.545Z</time></trkpt><trkpt lat="43.2756765" lon="11.2946817"><ele>252.0</ele><time>2026-04-04T10:14:24.542Z</time></trkpt><trkpt lat="43.2758508" lon="11.2946527"><ele>252.0</ele><time>2026-04-04T10:14:25.527Z</time></trkpt><trkpt lat="43.276022" lon="11.2946465"><ele>252.0</ele><time>2026-04-04T10:14:26.545Z</time></trkpt><trkpt lat="43.2761885" lon="11.2946619"><ele>252.0</ele><time>2026-04-04T10:14:27.537Z</time></trkpt><trkpt lat="43.2763606" lon="11.2947008"><ele>249.66666666666669</ele><time>2026-04-04T10:14:28.538Z</time></trkpt><trkpt lat="43.2765321" lon="11.2947574"><ele>247.33333333333334</ele><time>2026-04-04T10:14:29.526Z</time></trkpt><trkpt lat="43.2767009" lon="11.2948166"><ele>245.0</ele><time>2026-04-04T10:14:30.546Z</time></trkpt><trkpt lat="43.27687" lon="11.2948795"><ele>245.0</ele><time>2026-04-04T10:14:31.549Z</time></trkpt><trkpt lat="43.2770422" lon="11.2949435"><ele>245.0</ele><time>2026-04-04T10:14:32.545Z</time></trkpt><trkpt lat="43.2772146" lon="11.2950132"><ele>245.0</ele><time>2026-04-04T10:14:33.514Z</time></trkpt><trkpt lat="43.277384" lon="11.2950891"><ele>244.66666666666669</ele><time>2026-04-04T10:14:34.533Z</time></trkpt><trkpt lat="43.2775454" lon="11.2951602"><ele>244.33333333333331</ele><time>2026-04-04T10:14:35.541Z</time></trkpt><trkpt lat="43.2776977" lon="11.2952381"><ele>244.0</ele><time>2026-04-04T10:14:36.495Z</time></trkpt><trkpt lat="43.2778396" lon="11.2953149"><ele>244.0</ele><time>2026-04-04T10:14:37.523Z</time></trkpt><trkpt lat="43.2779493" lon="11.2953944"><ele>243.99999999999997</ele><time>2026-04-04T10:14:38.538Z</time></trkpt><trkpt lat="43.2780289" lon="11.2954463"><ele>243.99999999999997</ele><time>2026-04-04T10:14:39.55Z</time></trkpt><trkpt lat="43.2780911" lon="11.2955103"><ele>244.0</ele><time>2026-04-04T10:14:40.547Z</time></trkpt><trkpt lat="43.2781514" lon="11.2955683"><ele>244.0</ele><time>2026-04-04T10:14:41.534Z</time></trkpt><trkpt lat="43.2782233" lon="11.295638"><ele>242.25</ele><time>2026-04-04T10:14:42.563Z</time></trkpt><trkpt lat="43.2783196" lon="11.2957305"><ele>240.5</ele><time>2026-04-04T10:14:43.532Z</time></trkpt><trkpt lat="43.278441" lon="11.2958307"><ele>238.75</ele><time>2026-04-04T10:14:44.531Z</time></trkpt><trkpt lat="43.2785777" lon="11.2959607"><ele>237.0</ele><time>2026-04-04T10:14:45.535Z</time></trkpt><trkpt lat="43.2787093" lon="11.2961154"><ele>237.0</ele><time>2026-04-04T10:14:46.53Z</time></trkpt><trkpt lat="43.2788326" lon="11.2963124"><ele>237.0</ele><time>2026-04-04T10:14:47.548Z</time></trkpt><trkpt lat="43.2789493" lon="11.2965318"><ele>237.0</ele><time>2026-04-04T10:14:48.544Z</time></trkpt><trkpt lat="43.2790614" lon="11.2967393"><ele>236.0</ele><time>2026-04-04T10:14:49.531Z</time></trkpt><trkpt lat="43.279168" lon="11.2969302"><ele>235.0</ele><time>2026-04-04T10:14:50.526Z</time></trkpt><trkpt lat="43.2792677" lon="11.2971177"><ele>234.0</ele><time>2026-04-04T10:14:51.529Z</time></trkpt><trkpt lat="43.2793578" lon="11.2972932"><ele>234.0</ele><time>2026-04-04T10:14:52.545Z</time></trkpt><trkpt lat="43.2794513" lon="11.2974603"><ele>234.0</ele><time>2026-04-04T10:14:53.553Z</time></trkpt><trkpt lat="43.2795475" lon="11.2975961"><ele>234.0</ele><time>2026-04-04T10:14:54.539Z</time></trkpt><trkpt lat="43.2796425" lon="11.2977069"><ele>234.0</ele><time>2026-04-04T10:14:55.522Z</time></trkpt><trkpt lat="43.2797409" lon="11.2978224"><ele>236.33333333333331</ele><time>2026-04-04T10:14:56.531Z</time></trkpt><trkpt lat="43.2798685" lon="11.2979141"><ele>238.66666666666666</ele><time>2026-04-04T10:14:57.542Z</time></trkpt><trkpt lat="43.2800188" lon="11.2979991"><ele>241.0</ele><time>2026-04-04T10:14:58.532Z</time></trkpt><trkpt lat="43.2801878" lon="11.2980778"><ele>241.33333333333331</ele><time>2026-04-04T10:14:59.543Z</time></trkpt><trkpt lat="43.2803681" lon="11.2981684"><ele>241.66666666666669</ele><time>2026-04-04T10:15:00.541Z</time></trkpt><trkpt lat="43.2805613" lon="11.2982827"><ele>242.0</ele><time>2026-04-04T10:15:01.533Z</time></trkpt><trkpt lat="43.2807558" lon="11.2984031"><ele>242.0</ele><time>2026-04-04T10:15:02.548Z</time></trkpt><trkpt lat="43.2809383" lon="11.2985094"><ele>242.0</ele><time>2026-04-04T10:15:03.494Z</time></trkpt><trkpt lat="43.2810931" lon="11.298612"><ele>242.0</ele><time>2026-04-04T10:15:04.523Z</time></trkpt><trkpt lat="43.2812194" lon="11.298715"><ele>242.0</ele><time>2026-04-04T10:15:05.519Z</time></trkpt><trkpt lat="43.2813335" lon="11.2988507"><ele>242.0</ele><time>2026-04-04T10:15:06.494Z</time></trkpt><trkpt lat="43.2814478" lon="11.299049"><ele>242.0</ele><time>2026-04-04T10:15:07.493Z</time></trkpt><trkpt lat="43.2815483" lon="11.2992744"><ele>244.33333333333334</ele><time>2026-04-04T10:15:08.494Z</time></trkpt><trkpt lat="43.2816485" lon="11.2994741"><ele>246.66666666666669</ele><time>2026-04-04T10:15:09.504Z</time></trkpt><trkpt lat="43.2817562" lon="11.2996287"><ele>249.0</ele><time>2026-04-04T10:15:10.508Z</time></trkpt><trkpt lat="43.2818439" lon="11.2997867"><ele>249.0</ele><time>2026-04-04T10:15:11.519Z</time></trkpt><trkpt lat="43.2819094" lon="11.2999836"><ele>249.0</ele><time>2026-04-04T10:15:12.537Z</time></trkpt><trkpt lat="43.2819427" lon="11.3002263"><ele>249.0</ele><time>2026-04-04T10:15:13.505Z</time></trkpt><trkpt lat="43.2819533" lon="11.3004843"><ele>248.33333333333331</ele><time>2026-04-04T10:15:14.493Z</time></trkpt><trkpt lat="43.2819753" lon="11.300747"><ele>247.66666666666666</ele><time>2026-04-04T10:15:15.507Z</time></trkpt><trkpt lat="43.2820114" lon="11.3010135"><ele>247.0</ele><time>2026-04-04T10:15:16.496Z</time></trkpt><trkpt lat="43.2820475" lon="11.3012692"><ele>247.33333333333331</ele><time>2026-04-04T10:15:17.501Z</time></trkpt><trkpt lat="43.2820688" lon="11.3015234"><ele>247.66666666666669</ele><time>2026-04-04T10:15:18.512Z</time></trkpt><trkpt lat="43.2820861" lon="11.3017779"><ele>248.0</ele><time>2026-04-04T10:15:19.519Z</time></trkpt><trkpt lat="43.2821066" lon="11.3020265"><ele>248.66666666666669</ele><time>2026-04-04T10:15:20.534Z</time></trkpt><trkpt lat="43.2821258" lon="11.3022603"><ele>249.33333333333331</ele><time>2026-04-04T10:15:21.54Z</time></trkpt><trkpt lat="43.2821514" lon="11.3024885"><ele>250.0</ele><time>2026-04-04T10:15:22.503Z</time></trkpt><trkpt lat="43.2821862" lon="11.3027119"><ele>250.0</ele><time>2026-04-04T10:15:23.5Z</time></trkpt><trkpt lat="43.2822237" lon="11.3029074"><ele>250.0</ele><time>2026-04-04T10:15:24.512Z</time></trkpt><trkpt lat="43.2822684" lon="11.3030814"><ele>250.0</ele><time>2026-04-04T10:15:25.549Z</time></trkpt><trkpt lat="43.282319" lon="11.3032237"><ele>250.0</ele><time>2026-04-04T10:15:26.541Z</time></trkpt><trkpt lat="43.2823473" lon="11.3033237"><ele>251.0</ele><time>2026-04-04T10:15:27.516Z</time></trkpt><trkpt lat="43.2823383" lon="11.3034346"><ele>252.0</ele><time>2026-04-04T10:15:28.531Z</time></trkpt><trkpt lat="43.282296" lon="11.3035526"><ele>253.0</ele><time>2026-04-04T10:15:29.53Z</time></trkpt><trkpt lat="43.2822563" lon="11.3036498"><ele>254.0</ele><time>2026-04-04T10:15:30.502Z</time></trkpt><trkpt lat="43.2822124" lon="11.3037607"><ele>255.0</ele><time>2026-04-04T10:15:31.528Z</time></trkpt><trkpt lat="43.2821567" lon="11.3038794"><ele>254.2</ele><time>2026-04-04T10:15:32.536Z</time></trkpt><trkpt lat="43.2821014" lon="11.3040056"><ele>253.4</ele><time>2026-04-04T10:15:33.546Z</time></trkpt><trkpt lat="43.2820566" lon="11.304135"><ele>252.60000000000002</ele><time>2026-04-04T10:15:34.537Z</time></trkpt><trkpt lat="43.2820017" lon="11.3042659"><ele>251.8</ele><time>2026-04-04T10:15:35.535Z</time></trkpt><trkpt lat="43.2819388" lon="11.3043944"><ele>251.0</ele><time>2026-04-04T10:15:36.532Z</time></trkpt><trkpt lat="43.281873" lon="11.3045197"><ele>251.0</ele><time>2026-04-04T10:15:37.541Z</time></trkpt><trkpt lat="43.2818075" lon="11.3046432"><ele>251.00000000000003</ele><time>2026-04-04T10:15:38.502Z</time></trkpt><trkpt lat="43.2817523" lon="11.3047667"><ele>251.00000000000003</ele><time>2026-04-04T10:15:39.534Z</time></trkpt><trkpt lat="43.2817002" lon="11.3048756"><ele>251.0</ele><time>2026-04-04T10:15:40.544Z</time></trkpt><trkpt lat="43.2816434" lon="11.3049715"><ele>251.0</ele><time>2026-04-04T10:15:41.542Z</time></trkpt><trkpt lat="43.281599" lon="11.3050803"><ele>250.66666666666669</ele><time>2026-04-04T10:15:42.532Z</time></trkpt><trkpt lat="43.2815506" lon="11.3051696"><ele>250.33333333333334</ele><time>2026-04-04T10:15:43.541Z</time></trkpt><trkpt lat="43.281501" lon="11.3052305"><ele>250.0</ele><time>2026-04-04T10:15:44.519Z</time></trkpt><trkpt lat="43.2814063" lon="11.3052165"><ele>249.66666666666669</ele><time>2026-04-04T10:15:46.52Z</time></trkpt><trkpt lat="43.2813442" lon="11.3051339"><ele>249.33333333333334</ele><time>2026-04-04T10:15:47.52Z</time></trkpt><trkpt lat="43.2812877" lon="11.3050065"><ele>249.0</ele><time>2026-04-04T10:15:48.534Z</time></trkpt><trkpt lat="43.2812357" lon="11.3048746"><ele>248.39999999999998</ele><time>2026-04-04T10:15:49.532Z</time></trkpt><trkpt lat="43.2811768" lon="11.3047512"><ele>247.79999999999998</ele><time>2026-04-04T10:15:50.526Z</time></trkpt><trkpt lat="43.2811222" lon="11.3046497"><ele>247.20000000000002</ele><time>2026-04-04T10:15:51.531Z</time></trkpt><trkpt lat="43.2810722" lon="11.3045516"><ele>246.60000000000002</ele><time>2026-04-04T10:15:52.531Z</time></trkpt><trkpt lat="43.2810224" lon="11.3044432"><ele>246.0</ele><time>2026-04-04T10:15:53.543Z</time></trkpt><trkpt lat="43.2809762" lon="11.3043291"><ele>246.0</ele><time>2026-04-04T10:15:54.54Z</time></trkpt><trkpt lat="43.2809291" lon="11.3042195"><ele>246.00000000000003</ele><time>2026-04-04T10:15:55.537Z</time></trkpt><trkpt lat="43.2808834" lon="11.3041111"><ele>246.00000000000003</ele><time>2026-04-04T10:15:56.53Z</time></trkpt><trkpt lat="43.2808345" lon="11.3040044"><ele>246.0</ele><time>2026-04-04T10:15:57.534Z</time></trkpt><trkpt lat="43.2807789" lon="11.3038958"><ele>246.0</ele><time>2026-04-04T10:15:58.548Z</time></trkpt><trkpt lat="43.2807225" lon="11.3037855"><ele>245.5</ele><time>2026-04-04T10:15:59.546Z</time></trkpt><trkpt lat="43.2806747" lon="11.303676"><ele>245.0</ele><time>2026-04-04T10:16:00.542Z</time></trkpt><trkpt lat="43.2806297" lon="11.303588"><ele>244.5</ele><time>2026-04-04T10:16:01.548Z</time></trkpt><trkpt lat="43.2805581" lon="11.3034896"><ele>244.0</ele><time>2026-04-04T10:16:03.539Z</time></trkpt><trkpt lat="43.2804855" lon="11.3035526"><ele>243.5</ele><time>2026-04-04T10:16:05.499Z</time></trkpt><trkpt lat="43.2804244" lon="11.3036332"><ele>243.0</ele><time>2026-04-04T10:16:07.539Z</time></trkpt><trkpt lat="43.2803616" lon="11.3036695"><ele>243.0</ele><time>2026-04-04T10:16:09.532Z</time></trkpt><trkpt lat="43.280273" lon="11.3036196"><ele>243.0</ele><time>2026-04-04T10:16:11.539Z</time></trkpt><trkpt lat="43.280175" lon="11.3035687"><ele>243.0</ele><time>2026-04-04T10:16:13.543Z</time></trkpt><trkpt lat="43.2800959" lon="11.3035045"><ele>243.0</ele><time>2026-04-04T10:16:15.502Z</time></trkpt><trkpt lat="43.2800331" lon="11.3034746"><ele>243.0</ele><time>2026-04-04T10:16:17.52Z</time></trkpt></trkseg></trk></gpx>